<?xml version="1.0" encoding="UTF-8"?>
<gpx version="1.1" creator="https://www.youtrack.es" xsi:schemaLocation="http://www.topografix.com/GPX/1/1 http://www.topografix.com/GPX/1/1/gpx.xsd http://www.garmin.com/xmlschemas/GpxExtensions/v3 http://www.garmin.com/xmlschemas/GpxExtensionsv3.xsd http://www.garmin.com/xmlschemas/TrackPointExtension/v1 http://www.garmin.com/xmlschemas/TrackPointExtensionv1.xsd" xmlns:gpxtpx="http://www.garmin.com/xmlschemas/TrackPointExtension/v1" xmlns:gpxx="http://www.garmin.com/xmlschemas/GpxExtensions/v3" xmlns:xsi="http://www.w3.org/2001/XMLSchema-instance">
  <metadata>
    <link href="https://www.youtrack.es">
      <text>YouTrack.es</text>
    </link>
    <time>2026-05-08T10:50:01Z</time>
  </metadata>
  <trk>
    <src>https://www.youtrack.es</src>
    <link href="https://www.youtrack.es/ruta/21239-entredo--fondo-mtb">
      <text>YouTrack.es</text>
    </link>
    <trkseg>
      <trkpt lat="5.0416480" lon="-75.5011910">
        <ele>1876.8</ele>
        <time>2021-04-17T12:53:43Z</time>
      </trkpt>
      <trkpt lat="5.0416490" lon="-75.5011910">
        <ele>1876.6</ele>
        <time>2021-04-17T12:53:44Z</time>
      </trkpt>
      <trkpt lat="5.0415840" lon="-75.5011630">
        <ele>1875.4</ele>
        <time>2021-04-17T12:53:52Z</time>
      </trkpt>
      <trkpt lat="5.0415900" lon="-75.5012040">
        <ele>1874.8</ele>
        <time>2021-04-17T12:53:54Z</time>
      </trkpt>
      <trkpt lat="5.0416360" lon="-75.5012700">
        <ele>1874.2</ele>
        <time>2021-04-17T12:53:57Z</time>
      </trkpt>
      <trkpt lat="5.0417040" lon="-75.5013570">
        <ele>1873.8</ele>
        <time>2021-04-17T12:54:00Z</time>
      </trkpt>
      <trkpt lat="5.0418430" lon="-75.5015490">
        <ele>1874.2</ele>
        <time>2021-04-17T12:54:06Z</time>
      </trkpt>
      <trkpt lat="5.0419600" lon="-75.5017340">
        <ele>1873.2</ele>
        <time>2021-04-17T12:54:12Z</time>
      </trkpt>
      <trkpt lat="5.0419660" lon="-75.5017800">
        <ele>1872.6</ele>
        <time>2021-04-17T12:54:14Z</time>
      </trkpt>
      <trkpt lat="5.0419610" lon="-75.5018350">
        <ele>1870.8</ele>
        <time>2021-04-17T12:54:17Z</time>
      </trkpt>
      <trkpt lat="5.0419610" lon="-75.5018490">
        <ele>1869.4</ele>
        <time>2021-04-17T12:54:19Z</time>
      </trkpt>
      <trkpt lat="5.0419440" lon="-75.5018960">
        <ele>1868.4</ele>
        <time>2021-04-17T12:54:21Z</time>
      </trkpt>
      <trkpt lat="5.0419440" lon="-75.5018960">
        <ele>1868.2</ele>
        <time>2021-04-17T12:54:22Z</time>
      </trkpt>
      <trkpt lat="5.0419240" lon="-75.5018990">
        <ele>1868.2</ele>
        <time>2021-04-17T12:54:23Z</time>
      </trkpt>
      <trkpt lat="5.0419150" lon="-75.5018840">
        <ele>1868.0</ele>
        <time>2021-04-17T12:54:25Z</time>
      </trkpt>
      <trkpt lat="5.0418790" lon="-75.5018420">
        <ele>1868.0</ele>
        <time>2021-04-17T12:54:29Z</time>
      </trkpt>
      <trkpt lat="5.0418890" lon="-75.5018520">
        <ele>1868.2</ele>
        <time>2021-04-17T12:54:31Z</time>
      </trkpt>
      <trkpt lat="5.0419310" lon="-75.5019110">
        <ele>1868.6</ele>
        <time>2021-04-17T12:54:35Z</time>
      </trkpt>
      <trkpt lat="5.0419190" lon="-75.5019260">
        <ele>1868.8</ele>
        <time>2021-04-17T12:54:37Z</time>
      </trkpt>
      <trkpt lat="5.0418270" lon="-75.5020040">
        <ele>1869.4</ele>
        <time>2021-04-17T12:54:41Z</time>
      </trkpt>
      <trkpt lat="5.0417210" lon="-75.5021040">
        <ele>1870.0</ele>
        <time>2021-04-17T12:54:48Z</time>
      </trkpt>
      <trkpt lat="5.0417120" lon="-75.5021270">
        <ele>1870.0</ele>
        <time>2021-04-17T12:54:49Z</time>
      </trkpt>
      <trkpt lat="5.0416510" lon="-75.5021580">
        <ele>1870.0</ele>
        <time>2021-04-17T12:54:52Z</time>
      </trkpt>
      <trkpt lat="5.0416480" lon="-75.5021120">
        <ele>1870.0</ele>
        <time>2021-04-17T12:54:54Z</time>
      </trkpt>
      <trkpt lat="5.0416680" lon="-75.5020950">
        <ele>1870.0</ele>
        <time>2021-04-17T12:54:55Z</time>
      </trkpt>
      <trkpt lat="5.0417040" lon="-75.5021050">
        <ele>1869.6</ele>
        <time>2021-04-17T12:54:58Z</time>
      </trkpt>
      <trkpt lat="5.0416800" lon="-75.5021110">
        <ele>1869.2</ele>
        <time>2021-04-17T12:54:59Z</time>
      </trkpt>
      <trkpt lat="5.0416740" lon="-75.5020960">
        <ele>1868.8</ele>
        <time>2021-04-17T12:55:01Z</time>
      </trkpt>
      <trkpt lat="5.0416850" lon="-75.5020800">
        <ele>1868.2</ele>
        <time>2021-04-17T12:55:03Z</time>
      </trkpt>
      <trkpt lat="5.0416990" lon="-75.5020860">
        <ele>1868.0</ele>
        <time>2021-04-17T12:55:04Z</time>
      </trkpt>
      <trkpt lat="5.0417040" lon="-75.5021170">
        <ele>1867.2</ele>
        <time>2021-04-17T12:55:07Z</time>
      </trkpt>
      <trkpt lat="5.0416990" lon="-75.5021390">
        <ele>1867.0</ele>
        <time>2021-04-17T12:55:08Z</time>
      </trkpt>
      <trkpt lat="5.0416980" lon="-75.5022290">
        <ele>1865.8</ele>
        <time>2021-04-17T12:55:11Z</time>
      </trkpt>
      <trkpt lat="5.0416970" lon="-75.5022930">
        <ele>1864.8</ele>
        <time>2021-04-17T12:55:14Z</time>
      </trkpt>
      <trkpt lat="5.0416950" lon="-75.5022960">
        <ele>1864.4</ele>
        <time>2021-04-17T12:55:15Z</time>
      </trkpt>
      <trkpt lat="5.0416950" lon="-75.5022970">
        <ele>1864.4</ele>
        <time>2021-04-17T12:55:16Z</time>
      </trkpt>
      <trkpt lat="5.0417030" lon="-75.5023410">
        <ele>1863.6</ele>
        <time>2021-04-17T12:56:44Z</time>
      </trkpt>
      <trkpt lat="5.0417060" lon="-75.5023610">
        <ele>1863.8</ele>
        <time>2021-04-17T12:56:45Z</time>
      </trkpt>
      <trkpt lat="5.0417150" lon="-75.5023780">
        <ele>1863.8</ele>
        <time>2021-04-17T12:56:46Z</time>
      </trkpt>
      <trkpt lat="5.0417390" lon="-75.5024340">
        <ele>1863.6</ele>
        <time>2021-04-17T12:56:49Z</time>
      </trkpt>
      <trkpt lat="5.0416860" lon="-75.5024380">
        <ele>1863.6</ele>
        <time>2021-04-17T12:56:52Z</time>
      </trkpt>
      <trkpt lat="5.0417170" lon="-75.5024060">
        <ele>1863.4</ele>
        <time>2021-04-17T12:56:55Z</time>
      </trkpt>
      <trkpt lat="5.0417100" lon="-75.5024300">
        <ele>1863.0</ele>
        <time>2021-04-17T12:56:58Z</time>
      </trkpt>
      <trkpt lat="5.0416950" lon="-75.5024210">
        <ele>1862.6</ele>
        <time>2021-04-17T12:56:59Z</time>
      </trkpt>
      <trkpt lat="5.0416870" lon="-75.5024080">
        <ele>1862.2</ele>
        <time>2021-04-17T12:57:00Z</time>
      </trkpt>
      <trkpt lat="5.0416890" lon="-75.5024000">
        <ele>1861.8</ele>
        <time>2021-04-17T12:57:01Z</time>
      </trkpt>
      <trkpt lat="5.0417010" lon="-75.5023960">
        <ele>1861.2</ele>
        <time>2021-04-17T12:57:02Z</time>
      </trkpt>
      <trkpt lat="5.0417050" lon="-75.5024170">
        <ele>1860.4</ele>
        <time>2021-04-17T12:57:04Z</time>
      </trkpt>
      <trkpt lat="5.0416930" lon="-75.5024240">
        <ele>1860.0</ele>
        <time>2021-04-17T12:57:05Z</time>
      </trkpt>
      <trkpt lat="5.0416640" lon="-75.5024060">
        <ele>1859.6</ele>
        <time>2021-04-17T12:57:07Z</time>
      </trkpt>
      <trkpt lat="5.0416440" lon="-75.5023830">
        <ele>1858.8</ele>
        <time>2021-04-17T12:57:09Z</time>
      </trkpt>
      <trkpt lat="5.0416130" lon="-75.5024010">
        <ele>1857.6</ele>
        <time>2021-04-17T12:57:11Z</time>
      </trkpt>
      <trkpt lat="5.0415720" lon="-75.5024400">
        <ele>1857.0</ele>
        <time>2021-04-17T12:57:13Z</time>
      </trkpt>
      <trkpt lat="5.0415050" lon="-75.5025170">
        <ele>1856.8</ele>
        <time>2021-04-17T12:57:16Z</time>
      </trkpt>
      <trkpt lat="5.0412800" lon="-75.5027520">
        <ele>1856.8</ele>
        <time>2021-04-17T12:57:25Z</time>
      </trkpt>
      <trkpt lat="5.0410610" lon="-75.5029790">
        <ele>1856.6</ele>
        <time>2021-04-17T12:57:32Z</time>
      </trkpt>
      <trkpt lat="5.0409850" lon="-75.5030760">
        <ele>1856.6</ele>
        <time>2021-04-17T12:57:34Z</time>
      </trkpt>
      <trkpt lat="5.0409220" lon="-75.5031940">
        <ele>1856.2</ele>
        <time>2021-04-17T12:57:36Z</time>
      </trkpt>
      <trkpt lat="5.0408740" lon="-75.5034410">
        <ele>1855.6</ele>
        <time>2021-04-17T12:57:40Z</time>
      </trkpt>
      <trkpt lat="5.0408840" lon="-75.5035450">
        <ele>1855.0</ele>
        <time>2021-04-17T12:57:42Z</time>
      </trkpt>
      <trkpt lat="5.0408940" lon="-75.5036870">
        <ele>1854.6</ele>
        <time>2021-04-17T12:57:45Z</time>
      </trkpt>
      <trkpt lat="5.0409020" lon="-75.5037310">
        <ele>1854.6</ele>
        <time>2021-04-17T12:57:46Z</time>
      </trkpt>
      <trkpt lat="5.0409990" lon="-75.5040230">
        <ele>1854.8</ele>
        <time>2021-04-17T12:57:53Z</time>
      </trkpt>
      <trkpt lat="5.0412000" lon="-75.5043220">
        <ele>1855.6</ele>
        <time>2021-04-17T12:58:01Z</time>
      </trkpt>
      <trkpt lat="5.0412920" lon="-75.5044260">
        <ele>1856.0</ele>
        <time>2021-04-17T12:58:04Z</time>
      </trkpt>
      <trkpt lat="5.0414600" lon="-75.5046100">
        <ele>1856.6</ele>
        <time>2021-04-17T12:58:10Z</time>
      </trkpt>
      <trkpt lat="5.0415770" lon="-75.5047400">
        <ele>1857.0</ele>
        <time>2021-04-17T12:58:15Z</time>
      </trkpt>
      <trkpt lat="5.0416710" lon="-75.5048360">
        <ele>1858.4</ele>
        <time>2021-04-17T12:58:19Z</time>
      </trkpt>
      <trkpt lat="5.0417860" lon="-75.5049630">
        <ele>1859.2</ele>
        <time>2021-04-17T12:58:24Z</time>
      </trkpt>
      <trkpt lat="5.0418290" lon="-75.5050110">
        <ele>1859.6</ele>
        <time>2021-04-17T12:58:26Z</time>
      </trkpt>
      <trkpt lat="5.0418930" lon="-75.5050810">
        <ele>1860.2</ele>
        <time>2021-04-17T12:58:29Z</time>
      </trkpt>
      <trkpt lat="5.0420090" lon="-75.5052200">
        <ele>1861.4</ele>
        <time>2021-04-17T12:58:35Z</time>
      </trkpt>
      <trkpt lat="5.0420480" lon="-75.5053520">
        <ele>1862.4</ele>
        <time>2021-04-17T12:58:40Z</time>
      </trkpt>
      <trkpt lat="5.0420490" lon="-75.5053800">
        <ele>1862.6</ele>
        <time>2021-04-17T12:58:41Z</time>
      </trkpt>
      <trkpt lat="5.0420370" lon="-75.5054970">
        <ele>1863.6</ele>
        <time>2021-04-17T12:58:45Z</time>
      </trkpt>
      <trkpt lat="5.0419920" lon="-75.5056070">
        <ele>1864.6</ele>
        <time>2021-04-17T12:58:49Z</time>
      </trkpt>
      <trkpt lat="5.0418770" lon="-75.5057500">
        <ele>1865.6</ele>
        <time>2021-04-17T12:58:56Z</time>
      </trkpt>
      <trkpt lat="5.0418040" lon="-75.5058730">
        <ele>1866.4</ele>
        <time>2021-04-17T12:59:02Z</time>
      </trkpt>
      <trkpt lat="5.0417950" lon="-75.5058950">
        <ele>1866.6</ele>
        <time>2021-04-17T12:59:03Z</time>
      </trkpt>
      <trkpt lat="5.0417640" lon="-75.5060120">
        <ele>1867.6</ele>
        <time>2021-04-17T12:59:08Z</time>
      </trkpt>
      <trkpt lat="5.0417640" lon="-75.5061030">
        <ele>1868.6</ele>
        <time>2021-04-17T12:59:12Z</time>
      </trkpt>
      <trkpt lat="5.0417830" lon="-75.5061880">
        <ele>1869.6</ele>
        <time>2021-04-17T12:59:16Z</time>
      </trkpt>
      <trkpt lat="5.0418130" lon="-75.5062660">
        <ele>1870.8</ele>
        <time>2021-04-17T12:59:20Z</time>
      </trkpt>
      <trkpt lat="5.0418390" lon="-75.5063160">
        <ele>1871.8</ele>
        <time>2021-04-17T12:59:23Z</time>
      </trkpt>
      <trkpt lat="5.0418510" lon="-75.5063330">
        <ele>1872.0</ele>
        <time>2021-04-17T12:59:24Z</time>
      </trkpt>
      <trkpt lat="5.0418950" lon="-75.5063800">
        <ele>1873.0</ele>
        <time>2021-04-17T12:59:27Z</time>
      </trkpt>
      <trkpt lat="5.0419500" lon="-75.5064170">
        <ele>1874.0</ele>
        <time>2021-04-17T12:59:30Z</time>
      </trkpt>
      <trkpt lat="5.0419660" lon="-75.5064220">
        <ele>1874.2</ele>
        <time>2021-04-17T12:59:31Z</time>
      </trkpt>
      <trkpt lat="5.0420570" lon="-75.5064430">
        <ele>1875.2</ele>
        <time>2021-04-17T12:59:36Z</time>
      </trkpt>
      <trkpt lat="5.0421310" lon="-75.5064660">
        <ele>1876.4</ele>
        <time>2021-04-17T12:59:40Z</time>
      </trkpt>
      <trkpt lat="5.0422090" lon="-75.5064870">
        <ele>1877.4</ele>
        <time>2021-04-17T12:59:44Z</time>
      </trkpt>
      <trkpt lat="5.0422800" lon="-75.5065230">
        <ele>1878.6</ele>
        <time>2021-04-17T12:59:48Z</time>
      </trkpt>
      <trkpt lat="5.0423490" lon="-75.5065690">
        <ele>1879.2</ele>
        <time>2021-04-17T12:59:52Z</time>
      </trkpt>
      <trkpt lat="5.0423650" lon="-75.5065820">
        <ele>1879.4</ele>
        <time>2021-04-17T12:59:53Z</time>
      </trkpt>
      <trkpt lat="5.0424240" lon="-75.5066410">
        <ele>1880.4</ele>
        <time>2021-04-17T12:59:57Z</time>
      </trkpt>
      <trkpt lat="5.0424690" lon="-75.5066850">
        <ele>1881.2</ele>
        <time>2021-04-17T13:00:00Z</time>
      </trkpt>
      <trkpt lat="5.0424850" lon="-75.5067000">
        <ele>1881.6</ele>
        <time>2021-04-17T13:00:01Z</time>
      </trkpt>
      <trkpt lat="5.0425540" lon="-75.5067760">
        <ele>1882.6</ele>
        <time>2021-04-17T13:00:06Z</time>
      </trkpt>
      <trkpt lat="5.0425660" lon="-75.5067900">
        <ele>1882.8</ele>
        <time>2021-04-17T13:00:07Z</time>
      </trkpt>
      <trkpt lat="5.0426270" lon="-75.5068630">
        <ele>1883.6</ele>
        <time>2021-04-17T13:00:11Z</time>
      </trkpt>
      <trkpt lat="5.0426790" lon="-75.5069170">
        <ele>1884.2</ele>
        <time>2021-04-17T13:00:14Z</time>
      </trkpt>
      <trkpt lat="5.0427110" lon="-75.5069690">
        <ele>1884.6</ele>
        <time>2021-04-17T13:00:17Z</time>
      </trkpt>
      <trkpt lat="5.0427360" lon="-75.5070100">
        <ele>1885.2</ele>
        <time>2021-04-17T13:00:19Z</time>
      </trkpt>
      <trkpt lat="5.0427820" lon="-75.5070680">
        <ele>1885.6</ele>
        <time>2021-04-17T13:00:22Z</time>
      </trkpt>
      <trkpt lat="5.0428490" lon="-75.5071420">
        <ele>1886.8</ele>
        <time>2021-04-17T13:00:26Z</time>
      </trkpt>
      <trkpt lat="5.0428850" lon="-75.5071800">
        <ele>1887.2</ele>
        <time>2021-04-17T13:00:28Z</time>
      </trkpt>
      <trkpt lat="5.0429430" lon="-75.5072280">
        <ele>1887.8</ele>
        <time>2021-04-17T13:00:31Z</time>
      </trkpt>
      <trkpt lat="5.0430420" lon="-75.5073120">
        <ele>1889.0</ele>
        <time>2021-04-17T13:00:36Z</time>
      </trkpt>
      <trkpt lat="5.0432010" lon="-75.5074520">
        <ele>1890.0</ele>
        <time>2021-04-17T13:00:43Z</time>
      </trkpt>
      <trkpt lat="5.0432560" lon="-75.5074960">
        <ele>1890.2</ele>
        <time>2021-04-17T13:00:45Z</time>
      </trkpt>
      <trkpt lat="5.0434170" lon="-75.5076240">
        <ele>1891.0</ele>
        <time>2021-04-17T13:00:51Z</time>
      </trkpt>
      <trkpt lat="5.0434460" lon="-75.5076420">
        <ele>1891.0</ele>
        <time>2021-04-17T13:00:52Z</time>
      </trkpt>
      <trkpt lat="5.0436770" lon="-75.5077540">
        <ele>1891.6</ele>
        <time>2021-04-17T13:01:00Z</time>
      </trkpt>
      <trkpt lat="5.0437320" lon="-75.5077760">
        <ele>1892.2</ele>
        <time>2021-04-17T13:01:02Z</time>
      </trkpt>
      <trkpt lat="5.0438570" lon="-75.5078370">
        <ele>1893.0</ele>
        <time>2021-04-17T13:01:07Z</time>
      </trkpt>
      <trkpt lat="5.0439040" lon="-75.5078650">
        <ele>1893.6</ele>
        <time>2021-04-17T13:01:09Z</time>
      </trkpt>
      <trkpt lat="5.0439490" lon="-75.5078950">
        <ele>1894.2</ele>
        <time>2021-04-17T13:01:11Z</time>
      </trkpt>
      <trkpt lat="5.0440580" lon="-75.5079760">
        <ele>1895.2</ele>
        <time>2021-04-17T13:01:16Z</time>
      </trkpt>
      <trkpt lat="5.0441440" lon="-75.5080470">
        <ele>1895.8</ele>
        <time>2021-04-17T13:01:20Z</time>
      </trkpt>
      <trkpt lat="5.0441870" lon="-75.5080800">
        <ele>1896.2</ele>
        <time>2021-04-17T13:01:22Z</time>
      </trkpt>
      <trkpt lat="5.0443100" lon="-75.5081860">
        <ele>1897.2</ele>
        <time>2021-04-17T13:01:28Z</time>
      </trkpt>
      <trkpt lat="5.0443720" lon="-75.5082390">
        <ele>1897.8</ele>
        <time>2021-04-17T13:01:31Z</time>
      </trkpt>
      <trkpt lat="5.0444080" lon="-75.5082740">
        <ele>1898.4</ele>
        <time>2021-04-17T13:01:33Z</time>
      </trkpt>
      <trkpt lat="5.0444860" lon="-75.5083750">
        <ele>1899.2</ele>
        <time>2021-04-17T13:01:38Z</time>
      </trkpt>
      <trkpt lat="5.0444970" lon="-75.5083980">
        <ele>1899.4</ele>
        <time>2021-04-17T13:01:39Z</time>
      </trkpt>
      <trkpt lat="5.0445110" lon="-75.5084910">
        <ele>1900.6</ele>
        <time>2021-04-17T13:01:43Z</time>
      </trkpt>
      <trkpt lat="5.0445010" lon="-75.5085430">
        <ele>1901.2</ele>
        <time>2021-04-17T13:01:45Z</time>
      </trkpt>
      <trkpt lat="5.0444670" lon="-75.5086420">
        <ele>1901.6</ele>
        <time>2021-04-17T13:01:49Z</time>
      </trkpt>
      <trkpt lat="5.0444170" lon="-75.5086990">
        <ele>1902.0</ele>
        <time>2021-04-17T13:01:52Z</time>
      </trkpt>
      <trkpt lat="5.0443140" lon="-75.5087570">
        <ele>1902.8</ele>
        <time>2021-04-17T13:01:56Z</time>
      </trkpt>
      <trkpt lat="5.0442580" lon="-75.5087880">
        <ele>1903.4</ele>
        <time>2021-04-17T13:01:58Z</time>
      </trkpt>
      <trkpt lat="5.0442050" lon="-75.5088290">
        <ele>1904.0</ele>
        <time>2021-04-17T13:02:00Z</time>
      </trkpt>
      <trkpt lat="5.0440850" lon="-75.5089600">
        <ele>1905.0</ele>
        <time>2021-04-17T13:02:05Z</time>
      </trkpt>
      <trkpt lat="5.0440600" lon="-75.5089850">
        <ele>1905.0</ele>
        <time>2021-04-17T13:02:06Z</time>
      </trkpt>
      <trkpt lat="5.0439310" lon="-75.5090860">
        <ele>1905.2</ele>
        <time>2021-04-17T13:02:11Z</time>
      </trkpt>
      <trkpt lat="5.0438410" lon="-75.5091600">
        <ele>1905.4</ele>
        <time>2021-04-17T13:02:16Z</time>
      </trkpt>
      <trkpt lat="5.0437940" lon="-75.5092070">
        <ele>1906.0</ele>
        <time>2021-04-17T13:02:19Z</time>
      </trkpt>
      <trkpt lat="5.0437150" lon="-75.5092800">
        <ele>1907.2</ele>
        <time>2021-04-17T13:02:24Z</time>
      </trkpt>
      <trkpt lat="5.0436650" lon="-75.5093220">
        <ele>1908.2</ele>
        <time>2021-04-17T13:02:27Z</time>
      </trkpt>
      <trkpt lat="5.0436210" lon="-75.5093730">
        <ele>1909.2</ele>
        <time>2021-04-17T13:02:30Z</time>
      </trkpt>
      <trkpt lat="5.0435870" lon="-75.5094050">
        <ele>1910.4</ele>
        <time>2021-04-17T13:02:32Z</time>
      </trkpt>
      <trkpt lat="5.0435680" lon="-75.5094200">
        <ele>1910.8</ele>
        <time>2021-04-17T13:02:33Z</time>
      </trkpt>
      <trkpt lat="5.0435320" lon="-75.5094520">
        <ele>1911.6</ele>
        <time>2021-04-17T13:02:35Z</time>
      </trkpt>
      <trkpt lat="5.0434980" lon="-75.5094740">
        <ele>1912.8</ele>
        <time>2021-04-17T13:02:37Z</time>
      </trkpt>
      <trkpt lat="5.0434690" lon="-75.5094880">
        <ele>1913.8</ele>
        <time>2021-04-17T13:02:39Z</time>
      </trkpt>
      <trkpt lat="5.0434560" lon="-75.5094960">
        <ele>1914.2</ele>
        <time>2021-04-17T13:02:40Z</time>
      </trkpt>
      <trkpt lat="5.0434450" lon="-75.5095210">
        <ele>1915.2</ele>
        <time>2021-04-17T13:02:42Z</time>
      </trkpt>
      <trkpt lat="5.0434180" lon="-75.5095560">
        <ele>1916.0</ele>
        <time>2021-04-17T13:02:45Z</time>
      </trkpt>
      <trkpt lat="5.0434060" lon="-75.5095720">
        <ele>1916.4</ele>
        <time>2021-04-17T13:02:46Z</time>
      </trkpt>
      <trkpt lat="5.0433550" lon="-75.5096250">
        <ele>1917.2</ele>
        <time>2021-04-17T13:02:50Z</time>
      </trkpt>
      <trkpt lat="5.0433160" lon="-75.5096590">
        <ele>1917.6</ele>
        <time>2021-04-17T13:02:53Z</time>
      </trkpt>
      <trkpt lat="5.0432610" lon="-75.5096980">
        <ele>1918.4</ele>
        <time>2021-04-17T13:02:57Z</time>
      </trkpt>
      <trkpt lat="5.0432370" lon="-75.5097180">
        <ele>1919.2</ele>
        <time>2021-04-17T13:02:59Z</time>
      </trkpt>
      <trkpt lat="5.0432250" lon="-75.5097280">
        <ele>1919.6</ele>
        <time>2021-04-17T13:03:00Z</time>
      </trkpt>
      <trkpt lat="5.0431740" lon="-75.5097680">
        <ele>1920.8</ele>
        <time>2021-04-17T13:03:04Z</time>
      </trkpt>
      <trkpt lat="5.0431480" lon="-75.5097900">
        <ele>1921.6</ele>
        <time>2021-04-17T13:03:06Z</time>
      </trkpt>
      <trkpt lat="5.0431350" lon="-75.5098010">
        <ele>1921.8</ele>
        <time>2021-04-17T13:03:07Z</time>
      </trkpt>
      <trkpt lat="5.0430920" lon="-75.5098420">
        <ele>1922.8</ele>
        <time>2021-04-17T13:03:10Z</time>
      </trkpt>
      <trkpt lat="5.0430810" lon="-75.5098490">
        <ele>1923.2</ele>
        <time>2021-04-17T13:03:11Z</time>
      </trkpt>
      <trkpt lat="5.0430630" lon="-75.5098670">
        <ele>1924.2</ele>
        <time>2021-04-17T13:03:13Z</time>
      </trkpt>
      <trkpt lat="5.0430310" lon="-75.5099020">
        <ele>1925.4</ele>
        <time>2021-04-17T13:03:16Z</time>
      </trkpt>
      <trkpt lat="5.0429920" lon="-75.5099380">
        <ele>1926.6</ele>
        <time>2021-04-17T13:03:19Z</time>
      </trkpt>
      <trkpt lat="5.0429680" lon="-75.5099630">
        <ele>1927.2</ele>
        <time>2021-04-17T13:03:21Z</time>
      </trkpt>
      <trkpt lat="5.0429560" lon="-75.5099750">
        <ele>1927.6</ele>
        <time>2021-04-17T13:03:22Z</time>
      </trkpt>
      <trkpt lat="5.0429440" lon="-75.5099860">
        <ele>1928.0</ele>
        <time>2021-04-17T13:03:23Z</time>
      </trkpt>
      <trkpt lat="5.0428920" lon="-75.5100270">
        <ele>1929.0</ele>
        <time>2021-04-17T13:03:27Z</time>
      </trkpt>
      <trkpt lat="5.0428660" lon="-75.5100460">
        <ele>1929.6</ele>
        <time>2021-04-17T13:03:29Z</time>
      </trkpt>
      <trkpt lat="5.0428450" lon="-75.5100650">
        <ele>1930.0</ele>
        <time>2021-04-17T13:03:31Z</time>
      </trkpt>
      <trkpt lat="5.0428230" lon="-75.5100820">
        <ele>1930.8</ele>
        <time>2021-04-17T13:03:35Z</time>
      </trkpt>
      <trkpt lat="5.0427650" lon="-75.5100500">
        <ele>1931.6</ele>
        <time>2021-04-17T13:04:43Z</time>
      </trkpt>
      <trkpt lat="5.0427210" lon="-75.5100090">
        <ele>1931.6</ele>
        <time>2021-04-17T13:04:46Z</time>
      </trkpt>
      <trkpt lat="5.0426250" lon="-75.5099270">
        <ele>1931.6</ele>
        <time>2021-04-17T13:04:52Z</time>
      </trkpt>
      <trkpt lat="5.0425540" lon="-75.5098460">
        <ele>1932.4</ele>
        <time>2021-04-17T13:04:57Z</time>
      </trkpt>
      <trkpt lat="5.0425060" lon="-75.5097900">
        <ele>1932.6</ele>
        <time>2021-04-17T13:05:00Z</time>
      </trkpt>
      <trkpt lat="5.0423790" lon="-75.5096790">
        <ele>1933.4</ele>
        <time>2021-04-17T13:05:07Z</time>
      </trkpt>
      <trkpt lat="5.0423620" lon="-75.5096610">
        <ele>1933.6</ele>
        <time>2021-04-17T13:05:08Z</time>
      </trkpt>
      <trkpt lat="5.0422380" lon="-75.5095290">
        <ele>1934.6</ele>
        <time>2021-04-17T13:05:15Z</time>
      </trkpt>
      <trkpt lat="5.0422210" lon="-75.5095080">
        <ele>1934.8</ele>
        <time>2021-04-17T13:05:16Z</time>
      </trkpt>
      <trkpt lat="5.0420930" lon="-75.5093660">
        <ele>1935.4</ele>
        <time>2021-04-17T13:05:23Z</time>
      </trkpt>
      <trkpt lat="5.0419850" lon="-75.5092680">
        <ele>1936.2</ele>
        <time>2021-04-17T13:05:29Z</time>
      </trkpt>
      <trkpt lat="5.0419660" lon="-75.5092530">
        <ele>1936.2</ele>
        <time>2021-04-17T13:05:30Z</time>
      </trkpt>
      <trkpt lat="5.0418940" lon="-75.5091890">
        <ele>1937.2</ele>
        <time>2021-04-17T13:05:34Z</time>
      </trkpt>
      <trkpt lat="5.0418510" lon="-75.5091300">
        <ele>1937.8</ele>
        <time>2021-04-17T13:05:37Z</time>
      </trkpt>
      <trkpt lat="5.0418200" lon="-75.5090930">
        <ele>1938.4</ele>
        <time>2021-04-17T13:05:39Z</time>
      </trkpt>
      <trkpt lat="5.0417830" lon="-75.5090370">
        <ele>1939.4</ele>
        <time>2021-04-17T13:05:42Z</time>
      </trkpt>
      <trkpt lat="5.0417650" lon="-75.5090190">
        <ele>1939.8</ele>
        <time>2021-04-17T13:05:43Z</time>
      </trkpt>
      <trkpt lat="5.0417120" lon="-75.5089860">
        <ele>1940.4</ele>
        <time>2021-04-17T13:05:45Z</time>
      </trkpt>
      <trkpt lat="5.0416180" lon="-75.5089530">
        <ele>1940.6</ele>
        <time>2021-04-17T13:05:47Z</time>
      </trkpt>
      <trkpt lat="5.0415530" lon="-75.5089250">
        <ele>1940.8</ele>
        <time>2021-04-17T13:05:48Z</time>
      </trkpt>
      <trkpt lat="5.0414140" lon="-75.5088330">
        <ele>1940.8</ele>
        <time>2021-04-17T13:05:50Z</time>
      </trkpt>
      <trkpt lat="5.0412840" lon="-75.5087180">
        <ele>1940.8</ele>
        <time>2021-04-17T13:05:52Z</time>
      </trkpt>
      <trkpt lat="5.0412150" lon="-75.5086730">
        <ele>1940.8</ele>
        <time>2021-04-17T13:05:53Z</time>
      </trkpt>
      <trkpt lat="5.0411420" lon="-75.5086410">
        <ele>1940.8</ele>
        <time>2021-04-17T13:05:54Z</time>
      </trkpt>
      <trkpt lat="5.0409870" lon="-75.5085870">
        <ele>1939.6</ele>
        <time>2021-04-17T13:05:56Z</time>
      </trkpt>
      <trkpt lat="5.0409080" lon="-75.5085610">
        <ele>1939.0</ele>
        <time>2021-04-17T13:05:57Z</time>
      </trkpt>
      <trkpt lat="5.0408390" lon="-75.5085210">
        <ele>1938.0</ele>
        <time>2021-04-17T13:05:58Z</time>
      </trkpt>
      <trkpt lat="5.0407860" lon="-75.5084700">
        <ele>1937.6</ele>
        <time>2021-04-17T13:05:59Z</time>
      </trkpt>
      <trkpt lat="5.0407320" lon="-75.5083520">
        <ele>1936.2</ele>
        <time>2021-04-17T13:06:01Z</time>
      </trkpt>
      <trkpt lat="5.0407040" lon="-75.5082970">
        <ele>1935.8</ele>
        <time>2021-04-17T13:06:02Z</time>
      </trkpt>
      <trkpt lat="5.0406690" lon="-75.5082510">
        <ele>1935.2</ele>
        <time>2021-04-17T13:06:03Z</time>
      </trkpt>
      <trkpt lat="5.0405840" lon="-75.5081810">
        <ele>1934.6</ele>
        <time>2021-04-17T13:06:05Z</time>
      </trkpt>
      <trkpt lat="5.0404440" lon="-75.5081160">
        <ele>1934.0</ele>
        <time>2021-04-17T13:06:08Z</time>
      </trkpt>
      <trkpt lat="5.0403990" lon="-75.5081040">
        <ele>1934.0</ele>
        <time>2021-04-17T13:06:09Z</time>
      </trkpt>
      <trkpt lat="5.0403540" lon="-75.5080950">
        <ele>1933.8</ele>
        <time>2021-04-17T13:06:10Z</time>
      </trkpt>
      <trkpt lat="5.0401050" lon="-75.5080860">
        <ele>1934.0</ele>
        <time>2021-04-17T13:06:16Z</time>
      </trkpt>
      <trkpt lat="5.0399060" lon="-75.5080770">
        <ele>1935.2</ele>
        <time>2021-04-17T13:06:22Z</time>
      </trkpt>
      <trkpt lat="5.0398220" lon="-75.5080740">
        <ele>1935.8</ele>
        <time>2021-04-17T13:06:25Z</time>
      </trkpt>
      <trkpt lat="5.0397690" lon="-75.5080740">
        <ele>1936.4</ele>
        <time>2021-04-17T13:06:27Z</time>
      </trkpt>
      <trkpt lat="5.0396680" lon="-75.5080740">
        <ele>1937.6</ele>
        <time>2021-04-17T13:06:31Z</time>
      </trkpt>
      <trkpt lat="5.0395960" lon="-75.5080730">
        <ele>1938.4</ele>
        <time>2021-04-17T13:06:34Z</time>
      </trkpt>
      <trkpt lat="5.0395720" lon="-75.5080730">
        <ele>1938.8</ele>
        <time>2021-04-17T13:06:35Z</time>
      </trkpt>
      <trkpt lat="5.0394710" lon="-75.5080820">
        <ele>1939.8</ele>
        <time>2021-04-17T13:06:39Z</time>
      </trkpt>
      <trkpt lat="5.0393960" lon="-75.5081120">
        <ele>1940.2</ele>
        <time>2021-04-17T13:06:42Z</time>
      </trkpt>
      <trkpt lat="5.0393300" lon="-75.5081610">
        <ele>1940.8</ele>
        <time>2021-04-17T13:06:45Z</time>
      </trkpt>
      <trkpt lat="5.0392470" lon="-75.5082320">
        <ele>1942.2</ele>
        <time>2021-04-17T13:06:49Z</time>
      </trkpt>
      <trkpt lat="5.0391620" lon="-75.5082900">
        <ele>1943.4</ele>
        <time>2021-04-17T13:06:53Z</time>
      </trkpt>
      <trkpt lat="5.0390690" lon="-75.5083440">
        <ele>1944.2</ele>
        <time>2021-04-17T13:06:57Z</time>
      </trkpt>
      <trkpt lat="5.0390440" lon="-75.5083560">
        <ele>1944.4</ele>
        <time>2021-04-17T13:06:58Z</time>
      </trkpt>
      <trkpt lat="5.0389260" lon="-75.5083970">
        <ele>1945.6</ele>
        <time>2021-04-17T13:07:03Z</time>
      </trkpt>
      <trkpt lat="5.0388410" lon="-75.5084440">
        <ele>1946.6</ele>
        <time>2021-04-17T13:07:07Z</time>
      </trkpt>
      <trkpt lat="5.0387570" lon="-75.5085030">
        <ele>1947.6</ele>
        <time>2021-04-17T13:07:11Z</time>
      </trkpt>
      <trkpt lat="5.0387350" lon="-75.5085170">
        <ele>1947.8</ele>
        <time>2021-04-17T13:07:12Z</time>
      </trkpt>
      <trkpt lat="5.0387120" lon="-75.5085290">
        <ele>1948.0</ele>
        <time>2021-04-17T13:07:13Z</time>
      </trkpt>
      <trkpt lat="5.0386360" lon="-75.5085600">
        <ele>1948.6</ele>
        <time>2021-04-17T13:07:16Z</time>
      </trkpt>
      <trkpt lat="5.0385900" lon="-75.5085800">
        <ele>1949.2</ele>
        <time>2021-04-17T13:07:18Z</time>
      </trkpt>
      <trkpt lat="5.0385450" lon="-75.5086000">
        <ele>1949.8</ele>
        <time>2021-04-17T13:07:20Z</time>
      </trkpt>
      <trkpt lat="5.0384510" lon="-75.5086360">
        <ele>1951.0</ele>
        <time>2021-04-17T13:07:24Z</time>
      </trkpt>
      <trkpt lat="5.0384030" lon="-75.5086450">
        <ele>1951.6</ele>
        <time>2021-04-17T13:07:26Z</time>
      </trkpt>
      <trkpt lat="5.0383550" lon="-75.5086580">
        <ele>1952.0</ele>
        <time>2021-04-17T13:07:28Z</time>
      </trkpt>
      <trkpt lat="5.0382640" lon="-75.5087040">
        <ele>1953.0</ele>
        <time>2021-04-17T13:07:32Z</time>
      </trkpt>
      <trkpt lat="5.0382430" lon="-75.5087160">
        <ele>1953.4</ele>
        <time>2021-04-17T13:07:33Z</time>
      </trkpt>
      <trkpt lat="5.0381840" lon="-75.5087580">
        <ele>1953.8</ele>
        <time>2021-04-17T13:07:36Z</time>
      </trkpt>
      <trkpt lat="5.0381190" lon="-75.5088150">
        <ele>1954.8</ele>
        <time>2021-04-17T13:07:40Z</time>
      </trkpt>
      <trkpt lat="5.0381040" lon="-75.5088320">
        <ele>1955.0</ele>
        <time>2021-04-17T13:07:41Z</time>
      </trkpt>
      <trkpt lat="5.0380420" lon="-75.5088930">
        <ele>1956.2</ele>
        <time>2021-04-17T13:07:45Z</time>
      </trkpt>
      <trkpt lat="5.0380250" lon="-75.5089060">
        <ele>1956.6</ele>
        <time>2021-04-17T13:07:46Z</time>
      </trkpt>
      <trkpt lat="5.0379410" lon="-75.5089480">
        <ele>1957.4</ele>
        <time>2021-04-17T13:07:50Z</time>
      </trkpt>
      <trkpt lat="5.0378940" lon="-75.5089610">
        <ele>1957.8</ele>
        <time>2021-04-17T13:07:52Z</time>
      </trkpt>
      <trkpt lat="5.0378150" lon="-75.5089690">
        <ele>1958.6</ele>
        <time>2021-04-17T13:07:55Z</time>
      </trkpt>
      <trkpt lat="5.0376810" lon="-75.5089580">
        <ele>1959.8</ele>
        <time>2021-04-17T13:08:00Z</time>
      </trkpt>
      <trkpt lat="5.0375500" lon="-75.5089290">
        <ele>1960.6</ele>
        <time>2021-04-17T13:08:05Z</time>
      </trkpt>
      <trkpt lat="5.0374400" lon="-75.5089050">
        <ele>1961.6</ele>
        <time>2021-04-17T13:08:09Z</time>
      </trkpt>
      <trkpt lat="5.0374130" lon="-75.5089020">
        <ele>1961.8</ele>
        <time>2021-04-17T13:08:10Z</time>
      </trkpt>
      <trkpt lat="5.0373070" lon="-75.5088870">
        <ele>1962.8</ele>
        <time>2021-04-17T13:08:14Z</time>
      </trkpt>
      <trkpt lat="5.0372570" lon="-75.5088750">
        <ele>1963.2</ele>
        <time>2021-04-17T13:08:16Z</time>
      </trkpt>
      <trkpt lat="5.0371910" lon="-75.5088360">
        <ele>1964.0</ele>
        <time>2021-04-17T13:08:19Z</time>
      </trkpt>
      <trkpt lat="5.0371600" lon="-75.5087920">
        <ele>1964.2</ele>
        <time>2021-04-17T13:08:21Z</time>
      </trkpt>
      <trkpt lat="5.0371230" lon="-75.5087200">
        <ele>1964.8</ele>
        <time>2021-04-17T13:08:24Z</time>
      </trkpt>
      <trkpt lat="5.0370880" lon="-75.5086190">
        <ele>1965.6</ele>
        <time>2021-04-17T13:08:28Z</time>
      </trkpt>
      <trkpt lat="5.0370830" lon="-75.5085970">
        <ele>1965.8</ele>
        <time>2021-04-17T13:08:29Z</time>
      </trkpt>
      <trkpt lat="5.0370040" lon="-75.5084640">
        <ele>1967.0</ele>
        <time>2021-04-17T13:08:35Z</time>
      </trkpt>
      <trkpt lat="5.0369090" lon="-75.5084170">
        <ele>1968.0</ele>
        <time>2021-04-17T13:08:39Z</time>
      </trkpt>
      <trkpt lat="5.0368840" lon="-75.5084090">
        <ele>1968.2</ele>
        <time>2021-04-17T13:08:40Z</time>
      </trkpt>
      <trkpt lat="5.0367600" lon="-75.5084070">
        <ele>1969.2</ele>
        <time>2021-04-17T13:08:45Z</time>
      </trkpt>
      <trkpt lat="5.0366370" lon="-75.5084780">
        <ele>1970.2</ele>
        <time>2021-04-17T13:08:51Z</time>
      </trkpt>
      <trkpt lat="5.0366180" lon="-75.5084980">
        <ele>1970.4</ele>
        <time>2021-04-17T13:08:52Z</time>
      </trkpt>
      <trkpt lat="5.0365560" lon="-75.5085830">
        <ele>1971.4</ele>
        <time>2021-04-17T13:08:56Z</time>
      </trkpt>
      <trkpt lat="5.0364980" lon="-75.5086650">
        <ele>1972.4</ele>
        <time>2021-04-17T13:09:00Z</time>
      </trkpt>
      <trkpt lat="5.0364800" lon="-75.5086850">
        <ele>1972.6</ele>
        <time>2021-04-17T13:09:01Z</time>
      </trkpt>
      <trkpt lat="5.0363710" lon="-75.5087530">
        <ele>1973.6</ele>
        <time>2021-04-17T13:09:06Z</time>
      </trkpt>
      <trkpt lat="5.0363450" lon="-75.5087630">
        <ele>1973.8</ele>
        <time>2021-04-17T13:09:07Z</time>
      </trkpt>
      <trkpt lat="5.0362120" lon="-75.5088010">
        <ele>1974.6</ele>
        <time>2021-04-17T13:09:12Z</time>
      </trkpt>
      <trkpt lat="5.0361860" lon="-75.5088110">
        <ele>1974.8</ele>
        <time>2021-04-17T13:09:13Z</time>
      </trkpt>
      <trkpt lat="5.0360580" lon="-75.5088580">
        <ele>1975.8</ele>
        <time>2021-04-17T13:09:18Z</time>
      </trkpt>
      <trkpt lat="5.0359600" lon="-75.5088900">
        <ele>1976.6</ele>
        <time>2021-04-17T13:09:22Z</time>
      </trkpt>
      <trkpt lat="5.0359350" lon="-75.5088970">
        <ele>1976.8</ele>
        <time>2021-04-17T13:09:23Z</time>
      </trkpt>
      <trkpt lat="5.0357870" lon="-75.5089510">
        <ele>1977.6</ele>
        <time>2021-04-17T13:09:29Z</time>
      </trkpt>
      <trkpt lat="5.0357640" lon="-75.5089650">
        <ele>1977.8</ele>
        <time>2021-04-17T13:09:30Z</time>
      </trkpt>
      <trkpt lat="5.0356450" lon="-75.5090180">
        <ele>1978.8</ele>
        <time>2021-04-17T13:09:35Z</time>
      </trkpt>
      <trkpt lat="5.0355450" lon="-75.5090450">
        <ele>1979.8</ele>
        <time>2021-04-17T13:09:39Z</time>
      </trkpt>
      <trkpt lat="5.0355180" lon="-75.5090500">
        <ele>1980.0</ele>
        <time>2021-04-17T13:09:40Z</time>
      </trkpt>
      <trkpt lat="5.0353620" lon="-75.5090530">
        <ele>1981.2</ele>
        <time>2021-04-17T13:09:46Z</time>
      </trkpt>
      <trkpt lat="5.0353360" lon="-75.5090500">
        <ele>1981.6</ele>
        <time>2021-04-17T13:09:47Z</time>
      </trkpt>
      <trkpt lat="5.0352570" lon="-75.5090430">
        <ele>1982.4</ele>
        <time>2021-04-17T13:09:50Z</time>
      </trkpt>
      <trkpt lat="5.0351550" lon="-75.5090240">
        <ele>1983.2</ele>
        <time>2021-04-17T13:09:54Z</time>
      </trkpt>
      <trkpt lat="5.0351060" lon="-75.5090190">
        <ele>1983.4</ele>
        <time>2021-04-17T13:09:56Z</time>
      </trkpt>
      <trkpt lat="5.0350010" lon="-75.5090180">
        <ele>1984.4</ele>
        <time>2021-04-17T13:10:01Z</time>
      </trkpt>
      <trkpt lat="5.0349280" lon="-75.5090310">
        <ele>1985.2</ele>
        <time>2021-04-17T13:10:05Z</time>
      </trkpt>
      <trkpt lat="5.0349110" lon="-75.5090360">
        <ele>1985.4</ele>
        <time>2021-04-17T13:10:06Z</time>
      </trkpt>
      <trkpt lat="5.0348480" lon="-75.5090580">
        <ele>1986.4</ele>
        <time>2021-04-17T13:10:10Z</time>
      </trkpt>
      <trkpt lat="5.0348030" lon="-75.5090660">
        <ele>1987.0</ele>
        <time>2021-04-17T13:10:13Z</time>
      </trkpt>
      <trkpt lat="5.0347870" lon="-75.5090730">
        <ele>1987.4</ele>
        <time>2021-04-17T13:10:14Z</time>
      </trkpt>
      <trkpt lat="5.0347110" lon="-75.5090900">
        <ele>1988.2</ele>
        <time>2021-04-17T13:10:19Z</time>
      </trkpt>
      <trkpt lat="5.0346770" lon="-75.5090870">
        <ele>1988.4</ele>
        <time>2021-04-17T13:10:21Z</time>
      </trkpt>
      <trkpt lat="5.0345570" lon="-75.5090720">
        <ele>1989.0</ele>
        <time>2021-04-17T13:10:27Z</time>
      </trkpt>
      <trkpt lat="5.0345030" lon="-75.5090510">
        <ele>1989.4</ele>
        <time>2021-04-17T13:10:30Z</time>
      </trkpt>
      <trkpt lat="5.0344250" lon="-75.5090210">
        <ele>1989.8</ele>
        <time>2021-04-17T13:10:34Z</time>
      </trkpt>
      <trkpt lat="5.0343400" lon="-75.5089850">
        <ele>1990.0</ele>
        <time>2021-04-17T13:10:39Z</time>
      </trkpt>
      <trkpt lat="5.0343250" lon="-75.5089830">
        <ele>1990.2</ele>
        <time>2021-04-17T13:10:40Z</time>
      </trkpt>
      <trkpt lat="5.0343090" lon="-75.5089800">
        <ele>1990.6</ele>
        <time>2021-04-17T13:10:41Z</time>
      </trkpt>
      <trkpt lat="5.0342090" lon="-75.5089650">
        <ele>1991.2</ele>
        <time>2021-04-17T13:10:47Z</time>
      </trkpt>
      <trkpt lat="5.0341790" lon="-75.5089570">
        <ele>1991.4</ele>
        <time>2021-04-17T13:10:49Z</time>
      </trkpt>
      <trkpt lat="5.0341010" lon="-75.5089310">
        <ele>1992.6</ele>
        <time>2021-04-17T13:10:53Z</time>
      </trkpt>
      <trkpt lat="5.0340840" lon="-75.5089280">
        <ele>1993.0</ele>
        <time>2021-04-17T13:10:54Z</time>
      </trkpt>
      <trkpt lat="5.0340220" lon="-75.5089160">
        <ele>1993.6</ele>
        <time>2021-04-17T13:10:57Z</time>
      </trkpt>
      <trkpt lat="5.0339540" lon="-75.5089130">
        <ele>1994.0</ele>
        <time>2021-04-17T13:11:00Z</time>
      </trkpt>
      <trkpt lat="5.0338550" lon="-75.5089120">
        <ele>1994.6</ele>
        <time>2021-04-17T13:11:04Z</time>
      </trkpt>
      <trkpt lat="5.0337590" lon="-75.5089150">
        <ele>1995.6</ele>
        <time>2021-04-17T13:11:08Z</time>
      </trkpt>
      <trkpt lat="5.0336370" lon="-75.5089330">
        <ele>1996.6</ele>
        <time>2021-04-17T13:11:13Z</time>
      </trkpt>
      <trkpt lat="5.0336130" lon="-75.5089440">
        <ele>1996.8</ele>
        <time>2021-04-17T13:11:14Z</time>
      </trkpt>
      <trkpt lat="5.0334820" lon="-75.5090050">
        <ele>1997.8</ele>
        <time>2021-04-17T13:11:19Z</time>
      </trkpt>
      <trkpt lat="5.0333740" lon="-75.5090450">
        <ele>1998.8</ele>
        <time>2021-04-17T13:11:24Z</time>
      </trkpt>
      <trkpt lat="5.0333290" lon="-75.5090670">
        <ele>1999.2</ele>
        <time>2021-04-17T13:11:26Z</time>
      </trkpt>
      <trkpt lat="5.0332500" lon="-75.5091030">
        <ele>1999.8</ele>
        <time>2021-04-17T13:11:29Z</time>
      </trkpt>
      <trkpt lat="5.0331180" lon="-75.5091500">
        <ele>2000.6</ele>
        <time>2021-04-17T13:11:34Z</time>
      </trkpt>
      <trkpt lat="5.0330900" lon="-75.5091590">
        <ele>2000.8</ele>
        <time>2021-04-17T13:11:35Z</time>
      </trkpt>
      <trkpt lat="5.0329050" lon="-75.5091970">
        <ele>2002.0</ele>
        <time>2021-04-17T13:11:42Z</time>
      </trkpt>
      <trkpt lat="5.0327750" lon="-75.5091980">
        <ele>2003.0</ele>
        <time>2021-04-17T13:11:47Z</time>
      </trkpt>
      <trkpt lat="5.0327010" lon="-75.5091970">
        <ele>2003.8</ele>
        <time>2021-04-17T13:11:50Z</time>
      </trkpt>
      <trkpt lat="5.0326500" lon="-75.5091940">
        <ele>2004.2</ele>
        <time>2021-04-17T13:11:52Z</time>
      </trkpt>
      <trkpt lat="5.0325690" lon="-75.5092110">
        <ele>2005.0</ele>
        <time>2021-04-17T13:11:56Z</time>
      </trkpt>
      <trkpt lat="5.0325520" lon="-75.5092190">
        <ele>2005.2</ele>
        <time>2021-04-17T13:11:57Z</time>
      </trkpt>
      <trkpt lat="5.0324420" lon="-75.5092940">
        <ele>2006.2</ele>
        <time>2021-04-17T13:12:03Z</time>
      </trkpt>
      <trkpt lat="5.0323160" lon="-75.5093120">
        <ele>2007.0</ele>
        <time>2021-04-17T13:12:08Z</time>
      </trkpt>
      <trkpt lat="5.0322890" lon="-75.5093020">
        <ele>2007.2</ele>
        <time>2021-04-17T13:12:09Z</time>
      </trkpt>
      <trkpt lat="5.0321730" lon="-75.5092330">
        <ele>2008.2</ele>
        <time>2021-04-17T13:12:14Z</time>
      </trkpt>
      <trkpt lat="5.0321500" lon="-75.5092210">
        <ele>2008.4</ele>
        <time>2021-04-17T13:12:15Z</time>
      </trkpt>
      <trkpt lat="5.0320190" lon="-75.5091840">
        <ele>2009.4</ele>
        <time>2021-04-17T13:12:20Z</time>
      </trkpt>
      <trkpt lat="5.0319920" lon="-75.5091810">
        <ele>2009.6</ele>
        <time>2021-04-17T13:12:21Z</time>
      </trkpt>
      <trkpt lat="5.0318590" lon="-75.5092190">
        <ele>2010.6</ele>
        <time>2021-04-17T13:12:26Z</time>
      </trkpt>
      <trkpt lat="5.0317050" lon="-75.5092760">
        <ele>2011.6</ele>
        <time>2021-04-17T13:12:32Z</time>
      </trkpt>
      <trkpt lat="5.0316360" lon="-75.5092990">
        <ele>2012.4</ele>
        <time>2021-04-17T13:12:35Z</time>
      </trkpt>
      <trkpt lat="5.0315930" lon="-75.5093190">
        <ele>2012.6</ele>
        <time>2021-04-17T13:12:37Z</time>
      </trkpt>
      <trkpt lat="5.0315140" lon="-75.5093500">
        <ele>2013.8</ele>
        <time>2021-04-17T13:12:41Z</time>
      </trkpt>
      <trkpt lat="5.0314950" lon="-75.5093590">
        <ele>2013.8</ele>
        <time>2021-04-17T13:12:42Z</time>
      </trkpt>
      <trkpt lat="5.0313600" lon="-75.5094380">
        <ele>2014.6</ele>
        <time>2021-04-17T13:12:49Z</time>
      </trkpt>
      <trkpt lat="5.0312530" lon="-75.5095990">
        <ele>2015.6</ele>
        <time>2021-04-17T13:12:56Z</time>
      </trkpt>
      <trkpt lat="5.0312010" lon="-75.5097890">
        <ele>2016.8</ele>
        <time>2021-04-17T13:13:02Z</time>
      </trkpt>
      <trkpt lat="5.0311980" lon="-75.5098240">
        <ele>2017.0</ele>
        <time>2021-04-17T13:13:03Z</time>
      </trkpt>
      <trkpt lat="5.0311910" lon="-75.5100560">
        <ele>2017.8</ele>
        <time>2021-04-17T13:13:10Z</time>
      </trkpt>
      <trkpt lat="5.0311940" lon="-75.5102160">
        <ele>2018.8</ele>
        <time>2021-04-17T13:13:15Z</time>
      </trkpt>
      <trkpt lat="5.0311940" lon="-75.5102780">
        <ele>2019.2</ele>
        <time>2021-04-17T13:13:17Z</time>
      </trkpt>
      <trkpt lat="5.0311600" lon="-75.5103960">
        <ele>2019.8</ele>
        <time>2021-04-17T13:13:21Z</time>
      </trkpt>
      <trkpt lat="5.0311210" lon="-75.5104540">
        <ele>2020.0</ele>
        <time>2021-04-17T13:13:23Z</time>
      </trkpt>
      <trkpt lat="5.0309630" lon="-75.5105220">
        <ele>2020.8</ele>
        <time>2021-04-17T13:13:28Z</time>
      </trkpt>
      <trkpt lat="5.0308120" lon="-75.5104780">
        <ele>2021.8</ele>
        <time>2021-04-17T13:13:33Z</time>
      </trkpt>
      <trkpt lat="5.0307880" lon="-75.5104630">
        <ele>2022.0</ele>
        <time>2021-04-17T13:13:34Z</time>
      </trkpt>
      <trkpt lat="5.0306970" lon="-75.5103870">
        <ele>2023.2</ele>
        <time>2021-04-17T13:13:38Z</time>
      </trkpt>
      <trkpt lat="5.0306790" lon="-75.5103660">
        <ele>2023.4</ele>
        <time>2021-04-17T13:13:39Z</time>
      </trkpt>
      <trkpt lat="5.0306040" lon="-75.5102890">
        <ele>2024.4</ele>
        <time>2021-04-17T13:13:43Z</time>
      </trkpt>
      <trkpt lat="5.0305160" lon="-75.5102150">
        <ele>2025.0</ele>
        <time>2021-04-17T13:13:47Z</time>
      </trkpt>
      <trkpt lat="5.0304950" lon="-75.5101980">
        <ele>2025.4</ele>
        <time>2021-04-17T13:13:48Z</time>
      </trkpt>
      <trkpt lat="5.0303680" lon="-75.5100940">
        <ele>2026.6</ele>
        <time>2021-04-17T13:13:54Z</time>
      </trkpt>
      <trkpt lat="5.0302360" lon="-75.5100240">
        <ele>2027.8</ele>
        <time>2021-04-17T13:14:00Z</time>
      </trkpt>
      <trkpt lat="5.0302120" lon="-75.5100240">
        <ele>2028.0</ele>
        <time>2021-04-17T13:14:01Z</time>
      </trkpt>
      <trkpt lat="5.0301360" lon="-75.5100240">
        <ele>2028.8</ele>
        <time>2021-04-17T13:14:04Z</time>
      </trkpt>
      <trkpt lat="5.0300640" lon="-75.5100430">
        <ele>2029.4</ele>
        <time>2021-04-17T13:14:06Z</time>
      </trkpt>
      <trkpt lat="5.0299930" lon="-75.5100700">
        <ele>2029.8</ele>
        <time>2021-04-17T13:14:08Z</time>
      </trkpt>
      <trkpt lat="5.0298010" lon="-75.5101490">
        <ele>2030.4</ele>
        <time>2021-04-17T13:14:13Z</time>
      </trkpt>
      <trkpt lat="5.0297020" lon="-75.5101850">
        <ele>2031.0</ele>
        <time>2021-04-17T13:14:16Z</time>
      </trkpt>
      <trkpt lat="5.0295670" lon="-75.5102360">
        <ele>2032.0</ele>
        <time>2021-04-17T13:14:21Z</time>
      </trkpt>
      <trkpt lat="5.0295440" lon="-75.5102450">
        <ele>2032.2</ele>
        <time>2021-04-17T13:14:22Z</time>
      </trkpt>
      <trkpt lat="5.0294300" lon="-75.5102600">
        <ele>2033.4</ele>
        <time>2021-04-17T13:14:26Z</time>
      </trkpt>
      <trkpt lat="5.0294050" lon="-75.5102600">
        <ele>2033.6</ele>
        <time>2021-04-17T13:14:27Z</time>
      </trkpt>
      <trkpt lat="5.0293260" lon="-75.5102390">
        <ele>2034.2</ele>
        <time>2021-04-17T13:14:30Z</time>
      </trkpt>
      <trkpt lat="5.0293010" lon="-75.5102220">
        <ele>2034.2</ele>
        <time>2021-04-17T13:14:31Z</time>
      </trkpt>
      <trkpt lat="5.0292800" lon="-75.5102040">
        <ele>2034.4</ele>
        <time>2021-04-17T13:14:32Z</time>
      </trkpt>
      <trkpt lat="5.0292020" lon="-75.5101360">
        <ele>2035.2</ele>
        <time>2021-04-17T13:14:36Z</time>
      </trkpt>
      <trkpt lat="5.0291450" lon="-75.5100900">
        <ele>2035.8</ele>
        <time>2021-04-17T13:14:39Z</time>
      </trkpt>
      <trkpt lat="5.0291170" lon="-75.5100670">
        <ele>2036.2</ele>
        <time>2021-04-17T13:14:41Z</time>
      </trkpt>
      <trkpt lat="5.0290820" lon="-75.5100520">
        <ele>2036.8</ele>
        <time>2021-04-17T13:14:43Z</time>
      </trkpt>
      <trkpt lat="5.0290470" lon="-75.5100480">
        <ele>2037.2</ele>
        <time>2021-04-17T13:14:45Z</time>
      </trkpt>
      <trkpt lat="5.0290230" lon="-75.5100440">
        <ele>2037.2</ele>
        <time>2021-04-17T13:14:46Z</time>
      </trkpt>
      <trkpt lat="5.0289130" lon="-75.5100340">
        <ele>2038.0</ele>
        <time>2021-04-17T13:14:51Z</time>
      </trkpt>
      <trkpt lat="5.0288920" lon="-75.5100280">
        <ele>2038.2</ele>
        <time>2021-04-17T13:14:52Z</time>
      </trkpt>
      <trkpt lat="5.0287850" lon="-75.5099890">
        <ele>2039.8</ele>
        <time>2021-04-17T13:14:57Z</time>
      </trkpt>
      <trkpt lat="5.0287030" lon="-75.5099560">
        <ele>2040.6</ele>
        <time>2021-04-17T13:15:01Z</time>
      </trkpt>
      <trkpt lat="5.0286670" lon="-75.5099460">
        <ele>2041.2</ele>
        <time>2021-04-17T13:15:03Z</time>
      </trkpt>
      <trkpt lat="5.0286030" lon="-75.5099260">
        <ele>2041.8</ele>
        <time>2021-04-17T13:15:06Z</time>
      </trkpt>
      <trkpt lat="5.0285090" lon="-75.5099280">
        <ele>2042.2</ele>
        <time>2021-04-17T13:15:09Z</time>
      </trkpt>
      <trkpt lat="5.0284260" lon="-75.5099560">
        <ele>2042.8</ele>
        <time>2021-04-17T13:15:12Z</time>
      </trkpt>
      <trkpt lat="5.0283890" lon="-75.5100050">
        <ele>2043.0</ele>
        <time>2021-04-17T13:15:14Z</time>
      </trkpt>
      <trkpt lat="5.0283510" lon="-75.5101440">
        <ele>2043.8</ele>
        <time>2021-04-17T13:15:19Z</time>
      </trkpt>
      <trkpt lat="5.0283320" lon="-75.5103140">
        <ele>2044.6</ele>
        <time>2021-04-17T13:15:25Z</time>
      </trkpt>
      <trkpt lat="5.0283220" lon="-75.5103380">
        <ele>2044.8</ele>
        <time>2021-04-17T13:15:26Z</time>
      </trkpt>
      <trkpt lat="5.0282880" lon="-75.5104230">
        <ele>2045.8</ele>
        <time>2021-04-17T13:15:29Z</time>
      </trkpt>
      <trkpt lat="5.0282520" lon="-75.5104830">
        <ele>2046.4</ele>
        <time>2021-04-17T13:15:31Z</time>
      </trkpt>
      <trkpt lat="5.0282160" lon="-75.5105430">
        <ele>2046.8</ele>
        <time>2021-04-17T13:15:33Z</time>
      </trkpt>
      <trkpt lat="5.0281400" lon="-75.5107140">
        <ele>2047.8</ele>
        <time>2021-04-17T13:15:39Z</time>
      </trkpt>
      <trkpt lat="5.0281330" lon="-75.5107410">
        <ele>2047.6</ele>
        <time>2021-04-17T13:15:40Z</time>
      </trkpt>
      <trkpt lat="5.0281180" lon="-75.5108760">
        <ele>2048.8</ele>
        <time>2021-04-17T13:15:45Z</time>
      </trkpt>
      <trkpt lat="5.0281180" lon="-75.5109290">
        <ele>2049.2</ele>
        <time>2021-04-17T13:15:47Z</time>
      </trkpt>
      <trkpt lat="5.0281350" lon="-75.5110170">
        <ele>2050.0</ele>
        <time>2021-04-17T13:15:50Z</time>
      </trkpt>
      <trkpt lat="5.0281510" lon="-75.5111160">
        <ele>2050.4</ele>
        <time>2021-04-17T13:15:53Z</time>
      </trkpt>
      <trkpt lat="5.0281480" lon="-75.5111790">
        <ele>2051.0</ele>
        <time>2021-04-17T13:15:55Z</time>
      </trkpt>
      <trkpt lat="5.0280970" lon="-75.5112930">
        <ele>2051.8</ele>
        <time>2021-04-17T13:15:59Z</time>
      </trkpt>
      <trkpt lat="5.0280710" lon="-75.5113130">
        <ele>2052.2</ele>
        <time>2021-04-17T13:16:00Z</time>
      </trkpt>
      <trkpt lat="5.0279510" lon="-75.5113760">
        <ele>2053.4</ele>
        <time>2021-04-17T13:16:04Z</time>
      </trkpt>
      <trkpt lat="5.0278250" lon="-75.5113720">
        <ele>2054.4</ele>
        <time>2021-04-17T13:16:08Z</time>
      </trkpt>
      <trkpt lat="5.0277960" lon="-75.5113620">
        <ele>2054.6</ele>
        <time>2021-04-17T13:16:09Z</time>
      </trkpt>
      <trkpt lat="5.0276370" lon="-75.5112830">
        <ele>2055.4</ele>
        <time>2021-04-17T13:16:15Z</time>
      </trkpt>
      <trkpt lat="5.0276160" lon="-75.5112720">
        <ele>2055.6</ele>
        <time>2021-04-17T13:16:16Z</time>
      </trkpt>
      <trkpt lat="5.0275250" lon="-75.5111730">
        <ele>2056.6</ele>
        <time>2021-04-17T13:16:21Z</time>
      </trkpt>
      <trkpt lat="5.0274950" lon="-75.5110720">
        <ele>2057.4</ele>
        <time>2021-04-17T13:16:25Z</time>
      </trkpt>
      <trkpt lat="5.0274880" lon="-75.5110440">
        <ele>2057.8</ele>
        <time>2021-04-17T13:16:26Z</time>
      </trkpt>
      <trkpt lat="5.0274530" lon="-75.5109310">
        <ele>2058.6</ele>
        <time>2021-04-17T13:16:30Z</time>
      </trkpt>
      <trkpt lat="5.0274390" lon="-75.5108870">
        <ele>2059.2</ele>
        <time>2021-04-17T13:16:32Z</time>
      </trkpt>
      <trkpt lat="5.0274260" lon="-75.5108490">
        <ele>2059.8</ele>
        <time>2021-04-17T13:16:34Z</time>
      </trkpt>
      <trkpt lat="5.0273890" lon="-75.5107560">
        <ele>2060.8</ele>
        <time>2021-04-17T13:16:38Z</time>
      </trkpt>
      <trkpt lat="5.0273080" lon="-75.5106140">
        <ele>2062.0</ele>
        <time>2021-04-17T13:16:43Z</time>
      </trkpt>
      <trkpt lat="5.0272590" lon="-75.5105310">
        <ele>2062.4</ele>
        <time>2021-04-17T13:16:46Z</time>
      </trkpt>
      <trkpt lat="5.0272080" lon="-75.5104550">
        <ele>2063.2</ele>
        <time>2021-04-17T13:16:49Z</time>
      </trkpt>
      <trkpt lat="5.0271250" lon="-75.5103400">
        <ele>2064.0</ele>
        <time>2021-04-17T13:16:54Z</time>
      </trkpt>
      <trkpt lat="5.0270450" lon="-75.5102540">
        <ele>2065.2</ele>
        <time>2021-04-17T13:16:59Z</time>
      </trkpt>
      <trkpt lat="5.0270280" lon="-75.5102350">
        <ele>2065.6</ele>
        <time>2021-04-17T13:17:00Z</time>
      </trkpt>
      <trkpt lat="5.0269770" lon="-75.5101790">
        <ele>2066.2</ele>
        <time>2021-04-17T13:17:03Z</time>
      </trkpt>
      <trkpt lat="5.0269280" lon="-75.5100750">
        <ele>2067.2</ele>
        <time>2021-04-17T13:17:07Z</time>
      </trkpt>
      <trkpt lat="5.0269050" lon="-75.5099340">
        <ele>2068.4</ele>
        <time>2021-04-17T13:17:12Z</time>
      </trkpt>
      <trkpt lat="5.0269020" lon="-75.5099080">
        <ele>2068.6</ele>
        <time>2021-04-17T13:17:13Z</time>
      </trkpt>
      <trkpt lat="5.0268860" lon="-75.5098120">
        <ele>2069.4</ele>
        <time>2021-04-17T13:17:16Z</time>
      </trkpt>
      <trkpt lat="5.0268700" lon="-75.5097450">
        <ele>2069.8</ele>
        <time>2021-04-17T13:17:18Z</time>
      </trkpt>
      <trkpt lat="5.0268180" lon="-75.5096470">
        <ele>2070.6</ele>
        <time>2021-04-17T13:17:22Z</time>
      </trkpt>
      <trkpt lat="5.0267980" lon="-75.5096270">
        <ele>2070.8</ele>
        <time>2021-04-17T13:17:23Z</time>
      </trkpt>
      <trkpt lat="5.0266920" lon="-75.5095550">
        <ele>2071.8</ele>
        <time>2021-04-17T13:17:27Z</time>
      </trkpt>
      <trkpt lat="5.0266130" lon="-75.5095040">
        <ele>2072.8</ele>
        <time>2021-04-17T13:17:30Z</time>
      </trkpt>
      <trkpt lat="5.0265890" lon="-75.5094880">
        <ele>2073.0</ele>
        <time>2021-04-17T13:17:31Z</time>
      </trkpt>
      <trkpt lat="5.0264790" lon="-75.5094210">
        <ele>2074.2</ele>
        <time>2021-04-17T13:17:35Z</time>
      </trkpt>
      <trkpt lat="5.0264030" lon="-75.5093820">
        <ele>2075.0</ele>
        <time>2021-04-17T13:17:40Z</time>
      </trkpt>
      <trkpt lat="5.0263850" lon="-75.5093810">
        <ele>2075.2</ele>
        <time>2021-04-17T13:17:41Z</time>
      </trkpt>
      <trkpt lat="5.0262840" lon="-75.5093510">
        <ele>2076.0</ele>
        <time>2021-04-17T13:17:45Z</time>
      </trkpt>
      <trkpt lat="5.0262270" lon="-75.5093370">
        <ele>2077.2</ele>
        <time>2021-04-17T13:17:49Z</time>
      </trkpt>
      <trkpt lat="5.0261680" lon="-75.5093090">
        <ele>2077.6</ele>
        <time>2021-04-17T13:17:52Z</time>
      </trkpt>
      <trkpt lat="5.0261310" lon="-75.5092930">
        <ele>2078.2</ele>
        <time>2021-04-17T13:17:54Z</time>
      </trkpt>
      <trkpt lat="5.0260640" lon="-75.5092890">
        <ele>2078.8</ele>
        <time>2021-04-17T13:17:58Z</time>
      </trkpt>
      <trkpt lat="5.0260240" lon="-75.5093140">
        <ele>2079.0</ele>
        <time>2021-04-17T13:18:00Z</time>
      </trkpt>
      <trkpt lat="5.0259630" lon="-75.5093580">
        <ele>2080.0</ele>
        <time>2021-04-17T13:18:03Z</time>
      </trkpt>
      <trkpt lat="5.0259380" lon="-75.5093740">
        <ele>2080.2</ele>
        <time>2021-04-17T13:18:04Z</time>
      </trkpt>
      <trkpt lat="5.0258280" lon="-75.5094570">
        <ele>2081.4</ele>
        <time>2021-04-17T13:18:08Z</time>
      </trkpt>
      <trkpt lat="5.0257530" lon="-75.5095460">
        <ele>2082.4</ele>
        <time>2021-04-17T13:18:12Z</time>
      </trkpt>
      <trkpt lat="5.0257310" lon="-75.5096020">
        <ele>2082.4</ele>
        <time>2021-04-17T13:18:14Z</time>
      </trkpt>
      <trkpt lat="5.0257030" lon="-75.5096860">
        <ele>2083.2</ele>
        <time>2021-04-17T13:18:18Z</time>
      </trkpt>
      <trkpt lat="5.0257070" lon="-75.5097090">
        <ele>2083.4</ele>
        <time>2021-04-17T13:18:19Z</time>
      </trkpt>
      <trkpt lat="5.0257230" lon="-75.5097740">
        <ele>2084.4</ele>
        <time>2021-04-17T13:18:22Z</time>
      </trkpt>
      <trkpt lat="5.0257270" lon="-75.5097990">
        <ele>2084.8</ele>
        <time>2021-04-17T13:18:23Z</time>
      </trkpt>
      <trkpt lat="5.0257150" lon="-75.5098710">
        <ele>2085.6</ele>
        <time>2021-04-17T13:18:26Z</time>
      </trkpt>
      <trkpt lat="5.0256850" lon="-75.5099520">
        <ele>2085.8</ele>
        <time>2021-04-17T13:18:29Z</time>
      </trkpt>
      <trkpt lat="5.0256450" lon="-75.5099930">
        <ele>2086.4</ele>
        <time>2021-04-17T13:18:31Z</time>
      </trkpt>
      <trkpt lat="5.0255940" lon="-75.5100900">
        <ele>2087.0</ele>
        <time>2021-04-17T13:18:35Z</time>
      </trkpt>
      <trkpt lat="5.0255950" lon="-75.5101430">
        <ele>2087.4</ele>
        <time>2021-04-17T13:18:37Z</time>
      </trkpt>
      <trkpt lat="5.0256200" lon="-75.5102650">
        <ele>2088.0</ele>
        <time>2021-04-17T13:18:42Z</time>
      </trkpt>
      <trkpt lat="5.0256220" lon="-75.5102870">
        <ele>2088.2</ele>
        <time>2021-04-17T13:18:43Z</time>
      </trkpt>
      <trkpt lat="5.0255640" lon="-75.5104090">
        <ele>2089.2</ele>
        <time>2021-04-17T13:18:48Z</time>
      </trkpt>
      <trkpt lat="5.0254490" lon="-75.5104780">
        <ele>2090.4</ele>
        <time>2021-04-17T13:18:52Z</time>
      </trkpt>
      <trkpt lat="5.0254170" lon="-75.5104890">
        <ele>2090.6</ele>
        <time>2021-04-17T13:18:53Z</time>
      </trkpt>
      <trkpt lat="5.0252880" lon="-75.5104940">
        <ele>2091.4</ele>
        <time>2021-04-17T13:18:57Z</time>
      </trkpt>
      <trkpt lat="5.0252580" lon="-75.5104860">
        <ele>2091.8</ele>
        <time>2021-04-17T13:18:58Z</time>
      </trkpt>
      <trkpt lat="5.0251110" lon="-75.5104410">
        <ele>2092.6</ele>
        <time>2021-04-17T13:19:03Z</time>
      </trkpt>
      <trkpt lat="5.0250530" lon="-75.5104310">
        <ele>2092.6</ele>
        <time>2021-04-17T13:19:05Z</time>
      </trkpt>
      <trkpt lat="5.0248680" lon="-75.5104490">
        <ele>2093.4</ele>
        <time>2021-04-17T13:19:11Z</time>
      </trkpt>
      <trkpt lat="5.0247210" lon="-75.5104790">
        <ele>2094.8</ele>
        <time>2021-04-17T13:19:16Z</time>
      </trkpt>
      <trkpt lat="5.0246280" lon="-75.5105040">
        <ele>2095.4</ele>
        <time>2021-04-17T13:19:19Z</time>
      </trkpt>
      <trkpt lat="5.0245670" lon="-75.5105160">
        <ele>2096.0</ele>
        <time>2021-04-17T13:19:21Z</time>
      </trkpt>
      <trkpt lat="5.0244780" lon="-75.5105320">
        <ele>2097.4</ele>
        <time>2021-04-17T13:19:24Z</time>
      </trkpt>
      <trkpt lat="5.0244190" lon="-75.5105280">
        <ele>2097.8</ele>
        <time>2021-04-17T13:19:26Z</time>
      </trkpt>
      <trkpt lat="5.0243370" lon="-75.5105140">
        <ele>2098.2</ele>
        <time>2021-04-17T13:19:29Z</time>
      </trkpt>
      <trkpt lat="5.0242690" lon="-75.5104690">
        <ele>2099.4</ele>
        <time>2021-04-17T13:19:32Z</time>
      </trkpt>
      <trkpt lat="5.0241520" lon="-75.5103610">
        <ele>2100.4</ele>
        <time>2021-04-17T13:19:37Z</time>
      </trkpt>
      <trkpt lat="5.0241080" lon="-75.5103170">
        <ele>2101.0</ele>
        <time>2021-04-17T13:19:39Z</time>
      </trkpt>
      <trkpt lat="5.0240490" lon="-75.5102600">
        <ele>2101.4</ele>
        <time>2021-04-17T13:19:42Z</time>
      </trkpt>
      <trkpt lat="5.0239620" lon="-75.5101890">
        <ele>2102.4</ele>
        <time>2021-04-17T13:19:47Z</time>
      </trkpt>
      <trkpt lat="5.0238580" lon="-75.5100950">
        <ele>2103.4</ele>
        <time>2021-04-17T13:19:52Z</time>
      </trkpt>
      <trkpt lat="5.0238380" lon="-75.5100720">
        <ele>2103.6</ele>
        <time>2021-04-17T13:19:53Z</time>
      </trkpt>
      <trkpt lat="5.0237550" lon="-75.5099580">
        <ele>2104.8</ele>
        <time>2021-04-17T13:19:58Z</time>
      </trkpt>
      <trkpt lat="5.0237350" lon="-75.5099080">
        <ele>2105.2</ele>
        <time>2021-04-17T13:20:00Z</time>
      </trkpt>
      <trkpt lat="5.0237180" lon="-75.5098330">
        <ele>2105.8</ele>
        <time>2021-04-17T13:20:03Z</time>
      </trkpt>
      <trkpt lat="5.0237270" lon="-75.5097280">
        <ele>2106.6</ele>
        <time>2021-04-17T13:20:07Z</time>
      </trkpt>
      <trkpt lat="5.0237700" lon="-75.5095690">
        <ele>2107.8</ele>
        <time>2021-04-17T13:20:13Z</time>
      </trkpt>
      <trkpt lat="5.0237810" lon="-75.5095420">
        <ele>2108.0</ele>
        <time>2021-04-17T13:20:14Z</time>
      </trkpt>
      <trkpt lat="5.0238170" lon="-75.5094190">
        <ele>2108.8</ele>
        <time>2021-04-17T13:20:20Z</time>
      </trkpt>
      <trkpt lat="5.0237870" lon="-75.5093150">
        <ele>2109.6</ele>
        <time>2021-04-17T13:20:25Z</time>
      </trkpt>
      <trkpt lat="5.0237710" lon="-75.5092960">
        <ele>2110.0</ele>
        <time>2021-04-17T13:20:26Z</time>
      </trkpt>
      <trkpt lat="5.0237350" lon="-75.5092360">
        <ele>2111.0</ele>
        <time>2021-04-17T13:20:30Z</time>
      </trkpt>
      <trkpt lat="5.0237220" lon="-75.5092230">
        <ele>2111.2</ele>
        <time>2021-04-17T13:20:31Z</time>
      </trkpt>
      <trkpt lat="5.0237060" lon="-75.5091350">
        <ele>2112.0</ele>
        <time>2021-04-17T13:20:35Z</time>
      </trkpt>
      <trkpt lat="5.0237110" lon="-75.5090830">
        <ele>2112.4</ele>
        <time>2021-04-17T13:20:37Z</time>
      </trkpt>
      <trkpt lat="5.0237400" lon="-75.5089960">
        <ele>2113.2</ele>
        <time>2021-04-17T13:20:40Z</time>
      </trkpt>
      <trkpt lat="5.0237470" lon="-75.5089700">
        <ele>2113.4</ele>
        <time>2021-04-17T13:20:41Z</time>
      </trkpt>
      <trkpt lat="5.0237590" lon="-75.5088160">
        <ele>2114.2</ele>
        <time>2021-04-17T13:20:46Z</time>
      </trkpt>
      <trkpt lat="5.0237540" lon="-75.5087900">
        <ele>2114.4</ele>
        <time>2021-04-17T13:20:47Z</time>
      </trkpt>
      <trkpt lat="5.0237140" lon="-75.5087300">
        <ele>2115.2</ele>
        <time>2021-04-17T13:20:51Z</time>
      </trkpt>
      <trkpt lat="5.0237000" lon="-75.5087300">
        <ele>2115.4</ele>
        <time>2021-04-17T13:20:52Z</time>
      </trkpt>
      <trkpt lat="5.0236300" lon="-75.5087230">
        <ele>2116.2</ele>
        <time>2021-04-17T13:20:56Z</time>
      </trkpt>
      <trkpt lat="5.0236110" lon="-75.5087300">
        <ele>2116.6</ele>
        <time>2021-04-17T13:20:57Z</time>
      </trkpt>
      <trkpt lat="5.0235400" lon="-75.5087730">
        <ele>2117.8</ele>
        <time>2021-04-17T13:21:01Z</time>
      </trkpt>
      <trkpt lat="5.0235060" lon="-75.5088080">
        <ele>2118.2</ele>
        <time>2021-04-17T13:21:03Z</time>
      </trkpt>
      <trkpt lat="5.0234580" lon="-75.5088650">
        <ele>2118.8</ele>
        <time>2021-04-17T13:21:06Z</time>
      </trkpt>
      <trkpt lat="5.0234170" lon="-75.5088860">
        <ele>2119.4</ele>
        <time>2021-04-17T13:21:08Z</time>
      </trkpt>
      <trkpt lat="5.0233800" lon="-75.5089080">
        <ele>2119.8</ele>
        <time>2021-04-17T13:21:10Z</time>
      </trkpt>
      <trkpt lat="5.0233580" lon="-75.5089210">
        <ele>2120.2</ele>
        <time>2021-04-17T13:21:11Z</time>
      </trkpt>
      <trkpt lat="5.0232920" lon="-75.5089620">
        <ele>2120.8</ele>
        <time>2021-04-17T13:21:14Z</time>
      </trkpt>
      <trkpt lat="5.0231080" lon="-75.5089630">
        <ele>2121.8</ele>
        <time>2021-04-17T13:21:20Z</time>
      </trkpt>
      <trkpt lat="5.0229840" lon="-75.5089230">
        <ele>2122.8</ele>
        <time>2021-04-17T13:21:25Z</time>
      </trkpt>
      <trkpt lat="5.0228730" lon="-75.5088560">
        <ele>2123.8</ele>
        <time>2021-04-17T13:21:30Z</time>
      </trkpt>
      <trkpt lat="5.0228490" lon="-75.5088370">
        <ele>2124.2</ele>
        <time>2021-04-17T13:21:31Z</time>
      </trkpt>
      <trkpt lat="5.0227280" lon="-75.5087550">
        <ele>2125.0</ele>
        <time>2021-04-17T13:21:36Z</time>
      </trkpt>
      <trkpt lat="5.0227030" lon="-75.5087390">
        <ele>2125.0</ele>
        <time>2021-04-17T13:21:37Z</time>
      </trkpt>
      <trkpt lat="5.0225860" lon="-75.5086980">
        <ele>2125.8</ele>
        <time>2021-04-17T13:21:43Z</time>
      </trkpt>
      <trkpt lat="5.0225670" lon="-75.5086990">
        <ele>2126.0</ele>
        <time>2021-04-17T13:21:44Z</time>
      </trkpt>
      <trkpt lat="5.0224900" lon="-75.5087210">
        <ele>2127.0</ele>
        <time>2021-04-17T13:21:48Z</time>
      </trkpt>
      <trkpt lat="5.0224270" lon="-75.5087590">
        <ele>2128.2</ele>
        <time>2021-04-17T13:21:52Z</time>
      </trkpt>
      <trkpt lat="5.0223880" lon="-75.5088060">
        <ele>2129.2</ele>
        <time>2021-04-17T13:21:55Z</time>
      </trkpt>
      <trkpt lat="5.0223540" lon="-75.5088620">
        <ele>2130.4</ele>
        <time>2021-04-17T13:21:58Z</time>
      </trkpt>
      <trkpt lat="5.0222880" lon="-75.5089300">
        <ele>2131.4</ele>
        <time>2021-04-17T13:22:02Z</time>
      </trkpt>
      <trkpt lat="5.0221930" lon="-75.5089850">
        <ele>2132.6</ele>
        <time>2021-04-17T13:22:07Z</time>
      </trkpt>
      <trkpt lat="5.0221590" lon="-75.5090060">
        <ele>2133.0</ele>
        <time>2021-04-17T13:22:09Z</time>
      </trkpt>
      <trkpt lat="5.0221040" lon="-75.5090330">
        <ele>2133.8</ele>
        <time>2021-04-17T13:22:12Z</time>
      </trkpt>
      <trkpt lat="5.0220220" lon="-75.5090720">
        <ele>2135.0</ele>
        <time>2021-04-17T13:22:16Z</time>
      </trkpt>
      <trkpt lat="5.0219850" lon="-75.5090940">
        <ele>2135.4</ele>
        <time>2021-04-17T13:22:18Z</time>
      </trkpt>
      <trkpt lat="5.0219420" lon="-75.5091200">
        <ele>2136.0</ele>
        <time>2021-04-17T13:22:20Z</time>
      </trkpt>
      <trkpt lat="5.0218310" lon="-75.5092010">
        <ele>2136.8</ele>
        <time>2021-04-17T13:22:25Z</time>
      </trkpt>
      <trkpt lat="5.0218140" lon="-75.5092160">
        <ele>2136.8</ele>
        <time>2021-04-17T13:22:26Z</time>
      </trkpt>
      <trkpt lat="5.0217620" lon="-75.5092930">
        <ele>2137.2</ele>
        <time>2021-04-17T13:22:31Z</time>
      </trkpt>
      <trkpt lat="5.0217160" lon="-75.5093510">
        <ele>2137.8</ele>
        <time>2021-04-17T13:22:36Z</time>
      </trkpt>
      <trkpt lat="5.0217060" lon="-75.5093660">
        <ele>2138.2</ele>
        <time>2021-04-17T13:22:37Z</time>
      </trkpt>
      <trkpt lat="5.0216790" lon="-75.5094220">
        <ele>2139.2</ele>
        <time>2021-04-17T13:22:40Z</time>
      </trkpt>
      <trkpt lat="5.0216440" lon="-75.5094900">
        <ele>2140.0</ele>
        <time>2021-04-17T13:22:43Z</time>
      </trkpt>
      <trkpt lat="5.0216290" lon="-75.5095140">
        <ele>2140.2</ele>
        <time>2021-04-17T13:22:44Z</time>
      </trkpt>
      <trkpt lat="5.0215010" lon="-75.5095950">
        <ele>2141.0</ele>
        <time>2021-04-17T13:22:49Z</time>
      </trkpt>
      <trkpt lat="5.0214690" lon="-75.5096010">
        <ele>2141.2</ele>
        <time>2021-04-17T13:22:50Z</time>
      </trkpt>
      <trkpt lat="5.0213360" lon="-75.5096060">
        <ele>2141.6</ele>
        <time>2021-04-17T13:22:55Z</time>
      </trkpt>
      <trkpt lat="5.0212690" lon="-75.5095880">
        <ele>2142.2</ele>
        <time>2021-04-17T13:22:58Z</time>
      </trkpt>
      <trkpt lat="5.0211770" lon="-75.5095380">
        <ele>2143.2</ele>
        <time>2021-04-17T13:23:02Z</time>
      </trkpt>
      <trkpt lat="5.0210790" lon="-75.5094330">
        <ele>2144.2</ele>
        <time>2021-04-17T13:23:07Z</time>
      </trkpt>
      <trkpt lat="5.0210500" lon="-75.5093990">
        <ele>2144.6</ele>
        <time>2021-04-17T13:23:09Z</time>
      </trkpt>
      <trkpt lat="5.0210060" lon="-75.5093710">
        <ele>2145.2</ele>
        <time>2021-04-17T13:23:12Z</time>
      </trkpt>
      <trkpt lat="5.0209580" lon="-75.5093380">
        <ele>2146.0</ele>
        <time>2021-04-17T13:23:15Z</time>
      </trkpt>
      <trkpt lat="5.0209410" lon="-75.5093220">
        <ele>2146.2</ele>
        <time>2021-04-17T13:23:16Z</time>
      </trkpt>
      <trkpt lat="5.0209240" lon="-75.5093060">
        <ele>2146.4</ele>
        <time>2021-04-17T13:23:17Z</time>
      </trkpt>
      <trkpt lat="5.0208040" lon="-75.5091890">
        <ele>2147.2</ele>
        <time>2021-04-17T13:23:23Z</time>
      </trkpt>
      <trkpt lat="5.0207270" lon="-75.5091110">
        <ele>2148.4</ele>
        <time>2021-04-17T13:23:27Z</time>
      </trkpt>
      <trkpt lat="5.0206680" lon="-75.5090560">
        <ele>2149.2</ele>
        <time>2021-04-17T13:23:30Z</time>
      </trkpt>
      <trkpt lat="5.0206510" lon="-75.5090370">
        <ele>2149.2</ele>
        <time>2021-04-17T13:23:31Z</time>
      </trkpt>
      <trkpt lat="5.0205530" lon="-75.5089360">
        <ele>2150.4</ele>
        <time>2021-04-17T13:23:36Z</time>
      </trkpt>
      <trkpt lat="5.0205320" lon="-75.5089180">
        <ele>2150.6</ele>
        <time>2021-04-17T13:23:37Z</time>
      </trkpt>
      <trkpt lat="5.0204450" lon="-75.5088540">
        <ele>2151.6</ele>
        <time>2021-04-17T13:23:41Z</time>
      </trkpt>
      <trkpt lat="5.0203940" lon="-75.5088230">
        <ele>2152.2</ele>
        <time>2021-04-17T13:23:43Z</time>
      </trkpt>
      <trkpt lat="5.0203460" lon="-75.5087970">
        <ele>2152.8</ele>
        <time>2021-04-17T13:23:45Z</time>
      </trkpt>
      <trkpt lat="5.0202290" lon="-75.5087060">
        <ele>2153.8</ele>
        <time>2021-04-17T13:23:50Z</time>
      </trkpt>
      <trkpt lat="5.0201200" lon="-75.5085910">
        <ele>2154.6</ele>
        <time>2021-04-17T13:23:56Z</time>
      </trkpt>
      <trkpt lat="5.0201110" lon="-75.5085680">
        <ele>2154.8</ele>
        <time>2021-04-17T13:23:57Z</time>
      </trkpt>
      <trkpt lat="5.0201090" lon="-75.5084670">
        <ele>2155.8</ele>
        <time>2021-04-17T13:24:01Z</time>
      </trkpt>
      <trkpt lat="5.0201200" lon="-75.5084170">
        <ele>2156.4</ele>
        <time>2021-04-17T13:24:03Z</time>
      </trkpt>
      <trkpt lat="5.0201280" lon="-75.5083750">
        <ele>2156.8</ele>
        <time>2021-04-17T13:24:05Z</time>
      </trkpt>
      <trkpt lat="5.0201590" lon="-75.5083170">
        <ele>2157.8</ele>
        <time>2021-04-17T13:24:08Z</time>
      </trkpt>
      <trkpt lat="5.0201720" lon="-75.5083010">
        <ele>2158.0</ele>
        <time>2021-04-17T13:24:09Z</time>
      </trkpt>
      <trkpt lat="5.0202560" lon="-75.5082060">
        <ele>2158.8</ele>
        <time>2021-04-17T13:24:14Z</time>
      </trkpt>
      <trkpt lat="5.0202820" lon="-75.5081660">
        <ele>2159.0</ele>
        <time>2021-04-17T13:24:16Z</time>
      </trkpt>
      <trkpt lat="5.0203220" lon="-75.5080870">
        <ele>2160.0</ele>
        <time>2021-04-17T13:24:20Z</time>
      </trkpt>
      <trkpt lat="5.0203310" lon="-75.5080010">
        <ele>2161.0</ele>
        <time>2021-04-17T13:24:26Z</time>
      </trkpt>
      <trkpt lat="5.0203310" lon="-75.5078980">
        <ele>2162.0</ele>
        <time>2021-04-17T13:24:32Z</time>
      </trkpt>
      <trkpt lat="5.0203310" lon="-75.5078800">
        <ele>2162.0</ele>
        <time>2021-04-17T13:24:33Z</time>
      </trkpt>
      <trkpt lat="5.0203090" lon="-75.5078200">
        <ele>2163.2</ele>
        <time>2021-04-17T13:24:37Z</time>
      </trkpt>
      <trkpt lat="5.0202920" lon="-75.5078010">
        <ele>2163.2</ele>
        <time>2021-04-17T13:24:38Z</time>
      </trkpt>
      <trkpt lat="5.0202210" lon="-75.5077250">
        <ele>2164.2</ele>
        <time>2021-04-17T13:24:42Z</time>
      </trkpt>
      <trkpt lat="5.0201780" lon="-75.5076940">
        <ele>2164.6</ele>
        <time>2021-04-17T13:24:44Z</time>
      </trkpt>
      <trkpt lat="5.0200970" lon="-75.5076350">
        <ele>2165.4</ele>
        <time>2021-04-17T13:24:48Z</time>
      </trkpt>
      <trkpt lat="5.0200800" lon="-75.5076200">
        <ele>2165.6</ele>
        <time>2021-04-17T13:24:49Z</time>
      </trkpt>
      <trkpt lat="5.0200070" lon="-75.5075530">
        <ele>2166.2</ele>
        <time>2021-04-17T13:24:53Z</time>
      </trkpt>
      <trkpt lat="5.0199890" lon="-75.5075380">
        <ele>2166.6</ele>
        <time>2021-04-17T13:24:54Z</time>
      </trkpt>
      <trkpt lat="5.0199100" lon="-75.5074810">
        <ele>2167.4</ele>
        <time>2021-04-17T13:24:58Z</time>
      </trkpt>
      <trkpt lat="5.0198670" lon="-75.5074570">
        <ele>2167.8</ele>
        <time>2021-04-17T13:25:00Z</time>
      </trkpt>
      <trkpt lat="5.0197670" lon="-75.5074170">
        <ele>2168.4</ele>
        <time>2021-04-17T13:25:04Z</time>
      </trkpt>
      <trkpt lat="5.0197190" lon="-75.5074190">
        <ele>2168.6</ele>
        <time>2021-04-17T13:25:06Z</time>
      </trkpt>
      <trkpt lat="5.0196260" lon="-75.5074200">
        <ele>2169.2</ele>
        <time>2021-04-17T13:25:10Z</time>
      </trkpt>
      <trkpt lat="5.0196050" lon="-75.5074260">
        <ele>2169.4</ele>
        <time>2021-04-17T13:25:11Z</time>
      </trkpt>
      <trkpt lat="5.0195330" lon="-75.5074560">
        <ele>2170.6</ele>
        <time>2021-04-17T13:25:14Z</time>
      </trkpt>
      <trkpt lat="5.0194530" lon="-75.5074670">
        <ele>2171.8</ele>
        <time>2021-04-17T13:25:17Z</time>
      </trkpt>
      <trkpt lat="5.0193380" lon="-75.5074440">
        <ele>2172.8</ele>
        <time>2021-04-17T13:25:21Z</time>
      </trkpt>
      <trkpt lat="5.0192850" lon="-75.5074200">
        <ele>2173.2</ele>
        <time>2021-04-17T13:25:23Z</time>
      </trkpt>
      <trkpt lat="5.0191740" lon="-75.5073570">
        <ele>2173.6</ele>
        <time>2021-04-17T13:25:28Z</time>
      </trkpt>
      <trkpt lat="5.0191540" lon="-75.5073450">
        <ele>2173.8</ele>
        <time>2021-04-17T13:25:29Z</time>
      </trkpt>
      <trkpt lat="5.0190240" lon="-75.5072860">
        <ele>2175.0</ele>
        <time>2021-04-17T13:25:35Z</time>
      </trkpt>
      <trkpt lat="5.0190000" lon="-75.5072820">
        <ele>2175.2</ele>
        <time>2021-04-17T13:25:36Z</time>
      </trkpt>
      <trkpt lat="5.0189060" lon="-75.5072740">
        <ele>2175.8</ele>
        <time>2021-04-17T13:25:40Z</time>
      </trkpt>
      <trkpt lat="5.0188290" lon="-75.5072600">
        <ele>2176.4</ele>
        <time>2021-04-17T13:25:43Z</time>
      </trkpt>
      <trkpt lat="5.0187630" lon="-75.5072400">
        <ele>2177.0</ele>
        <time>2021-04-17T13:25:46Z</time>
      </trkpt>
      <trkpt lat="5.0186950" lon="-75.5072300">
        <ele>2177.6</ele>
        <time>2021-04-17T13:25:49Z</time>
      </trkpt>
      <trkpt lat="5.0186470" lon="-75.5072260">
        <ele>2178.2</ele>
        <time>2021-04-17T13:25:51Z</time>
      </trkpt>
      <trkpt lat="5.0185470" lon="-75.5072040">
        <ele>2178.8</ele>
        <time>2021-04-17T13:25:55Z</time>
      </trkpt>
      <trkpt lat="5.0184960" lon="-75.5071990">
        <ele>2179.2</ele>
        <time>2021-04-17T13:25:57Z</time>
      </trkpt>
      <trkpt lat="5.0183770" lon="-75.5071850">
        <ele>2180.4</ele>
        <time>2021-04-17T13:26:02Z</time>
      </trkpt>
      <trkpt lat="5.0182550" lon="-75.5071610">
        <ele>2181.4</ele>
        <time>2021-04-17T13:26:07Z</time>
      </trkpt>
      <trkpt lat="5.0182290" lon="-75.5071580">
        <ele>2181.8</ele>
        <time>2021-04-17T13:26:08Z</time>
      </trkpt>
      <trkpt lat="5.0181080" lon="-75.5071390">
        <ele>2182.6</ele>
        <time>2021-04-17T13:26:13Z</time>
      </trkpt>
      <trkpt lat="5.0180330" lon="-75.5071330">
        <ele>2183.2</ele>
        <time>2021-04-17T13:26:16Z</time>
      </trkpt>
      <trkpt lat="5.0179630" lon="-75.5071090">
        <ele>2183.8</ele>
        <time>2021-04-17T13:26:19Z</time>
      </trkpt>
      <trkpt lat="5.0178920" lon="-75.5070890">
        <ele>2184.8</ele>
        <time>2021-04-17T13:26:22Z</time>
      </trkpt>
      <trkpt lat="5.0178730" lon="-75.5070850">
        <ele>2185.0</ele>
        <time>2021-04-17T13:26:23Z</time>
      </trkpt>
      <trkpt lat="5.0177650" lon="-75.5070610">
        <ele>2186.0</ele>
        <time>2021-04-17T13:26:28Z</time>
      </trkpt>
      <trkpt lat="5.0177410" lon="-75.5070620">
        <ele>2186.0</ele>
        <time>2021-04-17T13:26:29Z</time>
      </trkpt>
      <trkpt lat="5.0176470" lon="-75.5070840">
        <ele>2187.0</ele>
        <time>2021-04-17T13:26:33Z</time>
      </trkpt>
      <trkpt lat="5.0176040" lon="-75.5070870">
        <ele>2187.4</ele>
        <time>2021-04-17T13:26:35Z</time>
      </trkpt>
      <trkpt lat="5.0175410" lon="-75.5071090">
        <ele>2188.0</ele>
        <time>2021-04-17T13:26:38Z</time>
      </trkpt>
      <trkpt lat="5.0174820" lon="-75.5071200">
        <ele>2188.6</ele>
        <time>2021-04-17T13:26:41Z</time>
      </trkpt>
      <trkpt lat="5.0174460" lon="-75.5071410">
        <ele>2189.2</ele>
        <time>2021-04-17T13:26:43Z</time>
      </trkpt>
      <trkpt lat="5.0173390" lon="-75.5071800">
        <ele>2190.0</ele>
        <time>2021-04-17T13:26:48Z</time>
      </trkpt>
      <trkpt lat="5.0172260" lon="-75.5071900">
        <ele>2191.0</ele>
        <time>2021-04-17T13:26:53Z</time>
      </trkpt>
      <trkpt lat="5.0171990" lon="-75.5071770">
        <ele>2191.2</ele>
        <time>2021-04-17T13:26:54Z</time>
      </trkpt>
      <trkpt lat="5.0170940" lon="-75.5070920">
        <ele>2192.0</ele>
        <time>2021-04-17T13:26:59Z</time>
      </trkpt>
      <trkpt lat="5.0170830" lon="-75.5070710">
        <ele>2192.2</ele>
        <time>2021-04-17T13:27:00Z</time>
      </trkpt>
      <trkpt lat="5.0170630" lon="-75.5069610">
        <ele>2193.0</ele>
        <time>2021-04-17T13:27:05Z</time>
      </trkpt>
      <trkpt lat="5.0170630" lon="-75.5069100">
        <ele>2193.4</ele>
        <time>2021-04-17T13:27:07Z</time>
      </trkpt>
      <trkpt lat="5.0170790" lon="-75.5068700">
        <ele>2193.8</ele>
        <time>2021-04-17T13:27:09Z</time>
      </trkpt>
      <trkpt lat="5.0170870" lon="-75.5068530">
        <ele>2194.2</ele>
        <time>2021-04-17T13:27:10Z</time>
      </trkpt>
      <trkpt lat="5.0170980" lon="-75.5068310">
        <ele>2194.4</ele>
        <time>2021-04-17T13:27:11Z</time>
      </trkpt>
      <trkpt lat="5.0171680" lon="-75.5067120">
        <ele>2195.2</ele>
        <time>2021-04-17T13:27:16Z</time>
      </trkpt>
      <trkpt lat="5.0171800" lon="-75.5066880">
        <ele>2195.6</ele>
        <time>2021-04-17T13:27:17Z</time>
      </trkpt>
      <trkpt lat="5.0172460" lon="-75.5065850">
        <ele>2196.4</ele>
        <time>2021-04-17T13:27:22Z</time>
      </trkpt>
      <trkpt lat="5.0172710" lon="-75.5065480">
        <ele>2196.6</ele>
        <time>2021-04-17T13:27:24Z</time>
      </trkpt>
      <trkpt lat="5.0172930" lon="-75.5065120">
        <ele>2197.4</ele>
        <time>2021-04-17T13:27:26Z</time>
      </trkpt>
      <trkpt lat="5.0173320" lon="-75.5064420">
        <ele>2198.0</ele>
        <time>2021-04-17T13:27:30Z</time>
      </trkpt>
      <trkpt lat="5.0173530" lon="-75.5064010">
        <ele>2198.4</ele>
        <time>2021-04-17T13:27:32Z</time>
      </trkpt>
      <trkpt lat="5.0174050" lon="-75.5063190">
        <ele>2199.0</ele>
        <time>2021-04-17T13:27:36Z</time>
      </trkpt>
      <trkpt lat="5.0174270" lon="-75.5062800">
        <ele>2199.6</ele>
        <time>2021-04-17T13:27:38Z</time>
      </trkpt>
      <trkpt lat="5.0174490" lon="-75.5062000">
        <ele>2199.8</ele>
        <time>2021-04-17T13:27:41Z</time>
      </trkpt>
      <trkpt lat="5.0174610" lon="-75.5060720">
        <ele>2200.4</ele>
        <time>2021-04-17T13:27:46Z</time>
      </trkpt>
      <trkpt lat="5.0174600" lon="-75.5060510">
        <ele>2200.6</ele>
        <time>2021-04-17T13:27:47Z</time>
      </trkpt>
      <trkpt lat="5.0175120" lon="-75.5058770">
        <ele>2201.4</ele>
        <time>2021-04-17T13:27:52Z</time>
      </trkpt>
      <trkpt lat="5.0175700" lon="-75.5057320">
        <ele>2202.4</ele>
        <time>2021-04-17T13:27:57Z</time>
      </trkpt>
      <trkpt lat="5.0175970" lon="-75.5056760">
        <ele>2202.8</ele>
        <time>2021-04-17T13:27:59Z</time>
      </trkpt>
      <trkpt lat="5.0177100" lon="-75.5055160">
        <ele>2203.4</ele>
        <time>2021-04-17T13:28:05Z</time>
      </trkpt>
      <trkpt lat="5.0178210" lon="-75.5054350">
        <ele>2204.6</ele>
        <time>2021-04-17T13:28:09Z</time>
      </trkpt>
      <trkpt lat="5.0178510" lon="-75.5054220">
        <ele>2204.6</ele>
        <time>2021-04-17T13:28:10Z</time>
      </trkpt>
      <trkpt lat="5.0180250" lon="-75.5053430">
        <ele>2205.4</ele>
        <time>2021-04-17T13:28:16Z</time>
      </trkpt>
      <trkpt lat="5.0180450" lon="-75.5053260">
        <ele>2205.4</ele>
        <time>2021-04-17T13:28:17Z</time>
      </trkpt>
      <trkpt lat="5.0181180" lon="-75.5052340">
        <ele>2206.2</ele>
        <time>2021-04-17T13:28:21Z</time>
      </trkpt>
      <trkpt lat="5.0181370" lon="-75.5052120">
        <ele>2206.6</ele>
        <time>2021-04-17T13:28:22Z</time>
      </trkpt>
      <trkpt lat="5.0181550" lon="-75.5051280">
        <ele>2207.8</ele>
        <time>2021-04-17T13:28:25Z</time>
      </trkpt>
      <trkpt lat="5.0181600" lon="-75.5051050">
        <ele>2208.0</ele>
        <time>2021-04-17T13:28:26Z</time>
      </trkpt>
      <trkpt lat="5.0181320" lon="-75.5049910">
        <ele>2208.8</ele>
        <time>2021-04-17T13:28:31Z</time>
      </trkpt>
      <trkpt lat="5.0181540" lon="-75.5048570">
        <ele>2209.6</ele>
        <time>2021-04-17T13:28:36Z</time>
      </trkpt>
      <trkpt lat="5.0182250" lon="-75.5047010">
        <ele>2211.0</ele>
        <time>2021-04-17T13:28:41Z</time>
      </trkpt>
      <trkpt lat="5.0182410" lon="-75.5046760">
        <ele>2211.4</ele>
        <time>2021-04-17T13:28:42Z</time>
      </trkpt>
      <trkpt lat="5.0182840" lon="-75.5045290">
        <ele>2212.2</ele>
        <time>2021-04-17T13:28:47Z</time>
      </trkpt>
      <trkpt lat="5.0182810" lon="-75.5045020">
        <ele>2212.4</ele>
        <time>2021-04-17T13:28:48Z</time>
      </trkpt>
      <trkpt lat="5.0182020" lon="-75.5043770">
        <ele>2213.4</ele>
        <time>2021-04-17T13:28:53Z</time>
      </trkpt>
      <trkpt lat="5.0181490" lon="-75.5043320">
        <ele>2214.0</ele>
        <time>2021-04-17T13:28:55Z</time>
      </trkpt>
      <trkpt lat="5.0180890" lon="-75.5042800">
        <ele>2214.4</ele>
        <time>2021-04-17T13:28:57Z</time>
      </trkpt>
      <trkpt lat="5.0180240" lon="-75.5041470">
        <ele>2215.2</ele>
        <time>2021-04-17T13:29:02Z</time>
      </trkpt>
      <trkpt lat="5.0180110" lon="-75.5041010">
        <ele>2215.4</ele>
        <time>2021-04-17T13:29:04Z</time>
      </trkpt>
      <trkpt lat="5.0180290" lon="-75.5039740">
        <ele>2216.2</ele>
        <time>2021-04-17T13:29:09Z</time>
      </trkpt>
      <trkpt lat="5.0180660" lon="-75.5039350">
        <ele>2216.6</ele>
        <time>2021-04-17T13:29:11Z</time>
      </trkpt>
      <trkpt lat="5.0181300" lon="-75.5038980">
        <ele>2217.2</ele>
        <time>2021-04-17T13:29:14Z</time>
      </trkpt>
      <trkpt lat="5.0181620" lon="-75.5038740">
        <ele>2217.8</ele>
        <time>2021-04-17T13:29:16Z</time>
      </trkpt>
      <trkpt lat="5.0182330" lon="-75.5038100">
        <ele>2218.4</ele>
        <time>2021-04-17T13:29:20Z</time>
      </trkpt>
      <trkpt lat="5.0182510" lon="-75.5037930">
        <ele>2218.6</ele>
        <time>2021-04-17T13:29:21Z</time>
      </trkpt>
      <trkpt lat="5.0183070" lon="-75.5036750">
        <ele>2219.4</ele>
        <time>2021-04-17T13:29:26Z</time>
      </trkpt>
      <trkpt lat="5.0183520" lon="-75.5035780">
        <ele>2219.8</ele>
        <time>2021-04-17T13:29:30Z</time>
      </trkpt>
      <trkpt lat="5.0183450" lon="-75.5035490">
        <ele>2220.0</ele>
        <time>2021-04-17T13:29:31Z</time>
      </trkpt>
      <trkpt lat="5.0183590" lon="-75.5034190">
        <ele>2221.0</ele>
        <time>2021-04-17T13:29:36Z</time>
      </trkpt>
      <trkpt lat="5.0183540" lon="-75.5033910">
        <ele>2221.2</ele>
        <time>2021-04-17T13:29:37Z</time>
      </trkpt>
      <trkpt lat="5.0183470" lon="-75.5032550">
        <ele>2221.8</ele>
        <time>2021-04-17T13:29:42Z</time>
      </trkpt>
      <trkpt lat="5.0183470" lon="-75.5032270">
        <ele>2221.8</ele>
        <time>2021-04-17T13:29:43Z</time>
      </trkpt>
      <trkpt lat="5.0183330" lon="-75.5031030">
        <ele>2223.0</ele>
        <time>2021-04-17T13:29:48Z</time>
      </trkpt>
      <trkpt lat="5.0183270" lon="-75.5030830">
        <ele>2223.0</ele>
        <time>2021-04-17T13:29:49Z</time>
      </trkpt>
      <trkpt lat="5.0182720" lon="-75.5029870">
        <ele>2224.0</ele>
        <time>2021-04-17T13:29:53Z</time>
      </trkpt>
      <trkpt lat="5.0182620" lon="-75.5029600">
        <ele>2224.2</ele>
        <time>2021-04-17T13:29:54Z</time>
      </trkpt>
      <trkpt lat="5.0182290" lon="-75.5028600">
        <ele>2225.2</ele>
        <time>2021-04-17T13:29:57Z</time>
      </trkpt>
      <trkpt lat="5.0181690" lon="-75.5027480">
        <ele>2225.8</ele>
        <time>2021-04-17T13:30:01Z</time>
      </trkpt>
      <trkpt lat="5.0181180" lon="-75.5027030">
        <ele>2226.2</ele>
        <time>2021-04-17T13:30:03Z</time>
      </trkpt>
      <trkpt lat="5.0180540" lon="-75.5026130">
        <ele>2226.8</ele>
        <time>2021-04-17T13:30:07Z</time>
      </trkpt>
      <trkpt lat="5.0180250" lon="-75.5025600">
        <ele>2227.2</ele>
        <time>2021-04-17T13:30:09Z</time>
      </trkpt>
      <trkpt lat="5.0179790" lon="-75.5024450">
        <ele>2228.2</ele>
        <time>2021-04-17T13:30:13Z</time>
      </trkpt>
      <trkpt lat="5.0179720" lon="-75.5024170">
        <ele>2228.6</ele>
        <time>2021-04-17T13:30:14Z</time>
      </trkpt>
      <trkpt lat="5.0179300" lon="-75.5022640">
        <ele>2229.2</ele>
        <time>2021-04-17T13:30:18Z</time>
      </trkpt>
      <trkpt lat="5.0179230" lon="-75.5021870">
        <ele>2229.6</ele>
        <time>2021-04-17T13:30:20Z</time>
      </trkpt>
      <trkpt lat="5.0179080" lon="-75.5021120">
        <ele>2230.4</ele>
        <time>2021-04-17T13:30:23Z</time>
      </trkpt>
      <trkpt lat="5.0179000" lon="-75.5020680">
        <ele>2230.6</ele>
        <time>2021-04-17T13:30:25Z</time>
      </trkpt>
      <trkpt lat="5.0178860" lon="-75.5020210">
        <ele>2231.2</ele>
        <time>2021-04-17T13:30:27Z</time>
      </trkpt>
      <trkpt lat="5.0178450" lon="-75.5018890">
        <ele>2232.2</ele>
        <time>2021-04-17T13:30:31Z</time>
      </trkpt>
      <trkpt lat="5.0178390" lon="-75.5018670">
        <ele>2232.4</ele>
        <time>2021-04-17T13:30:32Z</time>
      </trkpt>
      <trkpt lat="5.0177870" lon="-75.5017880">
        <ele>2233.2</ele>
        <time>2021-04-17T13:30:35Z</time>
      </trkpt>
      <trkpt lat="5.0177660" lon="-75.5017720">
        <ele>2233.4</ele>
        <time>2021-04-17T13:30:36Z</time>
      </trkpt>
      <trkpt lat="5.0176610" lon="-75.5017470">
        <ele>2234.0</ele>
        <time>2021-04-17T13:30:39Z</time>
      </trkpt>
      <trkpt lat="5.0175600" lon="-75.5017420">
        <ele>2234.6</ele>
        <time>2021-04-17T13:30:42Z</time>
      </trkpt>
      <trkpt lat="5.0174870" lon="-75.5017440">
        <ele>2234.6</ele>
        <time>2021-04-17T13:30:44Z</time>
      </trkpt>
      <trkpt lat="5.0172990" lon="-75.5017330">
        <ele>2235.4</ele>
        <time>2021-04-17T13:30:49Z</time>
      </trkpt>
      <trkpt lat="5.0172700" lon="-75.5017430">
        <ele>2235.8</ele>
        <time>2021-04-17T13:30:50Z</time>
      </trkpt>
      <trkpt lat="5.0171170" lon="-75.5017580">
        <ele>2236.2</ele>
        <time>2021-04-17T13:30:54Z</time>
      </trkpt>
      <trkpt lat="5.0170810" lon="-75.5017590">
        <ele>2236.6</ele>
        <time>2021-04-17T13:30:55Z</time>
      </trkpt>
      <trkpt lat="5.0169780" lon="-75.5017510">
        <ele>2237.8</ele>
        <time>2021-04-17T13:30:58Z</time>
      </trkpt>
      <trkpt lat="5.0168810" lon="-75.5017230">
        <ele>2238.6</ele>
        <time>2021-04-17T13:31:01Z</time>
      </trkpt>
      <trkpt lat="5.0167930" lon="-75.5016870">
        <ele>2238.8</ele>
        <time>2021-04-17T13:31:04Z</time>
      </trkpt>
      <trkpt lat="5.0167210" lon="-75.5016430">
        <ele>2239.2</ele>
        <time>2021-04-17T13:31:07Z</time>
      </trkpt>
      <trkpt lat="5.0166820" lon="-75.5015950">
        <ele>2239.8</ele>
        <time>2021-04-17T13:31:09Z</time>
      </trkpt>
      <trkpt lat="5.0166350" lon="-75.5015360">
        <ele>2240.6</ele>
        <time>2021-04-17T13:31:12Z</time>
      </trkpt>
      <trkpt lat="5.0166230" lon="-75.5015190">
        <ele>2240.8</ele>
        <time>2021-04-17T13:31:13Z</time>
      </trkpt>
      <trkpt lat="5.0166070" lon="-75.5015010">
        <ele>2241.0</ele>
        <time>2021-04-17T13:31:14Z</time>
      </trkpt>
      <trkpt lat="5.0165230" lon="-75.5014280">
        <ele>2241.6</ele>
        <time>2021-04-17T13:31:18Z</time>
      </trkpt>
      <trkpt lat="5.0164980" lon="-75.5014110">
        <ele>2241.8</ele>
        <time>2021-04-17T13:31:19Z</time>
      </trkpt>
      <trkpt lat="5.0163820" lon="-75.5013560">
        <ele>2243.0</ele>
        <time>2021-04-17T13:31:24Z</time>
      </trkpt>
      <trkpt lat="5.0162810" lon="-75.5013420">
        <ele>2244.2</ele>
        <time>2021-04-17T13:31:28Z</time>
      </trkpt>
      <trkpt lat="5.0162230" lon="-75.5013460">
        <ele>2245.2</ele>
        <time>2021-04-17T13:31:30Z</time>
      </trkpt>
      <trkpt lat="5.0162010" lon="-75.5013450">
        <ele>2245.4</ele>
        <time>2021-04-17T13:31:31Z</time>
      </trkpt>
      <trkpt lat="5.0160390" lon="-75.5013380">
        <ele>2246.4</ele>
        <time>2021-04-17T13:31:37Z</time>
      </trkpt>
      <trkpt lat="5.0158940" lon="-75.5013390">
        <ele>2247.4</ele>
        <time>2021-04-17T13:31:43Z</time>
      </trkpt>
      <trkpt lat="5.0157540" lon="-75.5013530">
        <ele>2248.6</ele>
        <time>2021-04-17T13:31:49Z</time>
      </trkpt>
      <trkpt lat="5.0157270" lon="-75.5013550">
        <ele>2248.8</ele>
        <time>2021-04-17T13:31:50Z</time>
      </trkpt>
      <trkpt lat="5.0156530" lon="-75.5013680">
        <ele>2249.6</ele>
        <time>2021-04-17T13:31:53Z</time>
      </trkpt>
      <trkpt lat="5.0155650" lon="-75.5014000">
        <ele>2250.6</ele>
        <time>2021-04-17T13:31:57Z</time>
      </trkpt>
      <trkpt lat="5.0155470" lon="-75.5014030">
        <ele>2250.6</ele>
        <time>2021-04-17T13:31:58Z</time>
      </trkpt>
      <trkpt lat="5.0154350" lon="-75.5014680">
        <ele>2251.8</ele>
        <time>2021-04-17T13:32:04Z</time>
      </trkpt>
      <trkpt lat="5.0153570" lon="-75.5015160">
        <ele>2253.0</ele>
        <time>2021-04-17T13:32:08Z</time>
      </trkpt>
      <trkpt lat="5.0153400" lon="-75.5015320">
        <ele>2253.0</ele>
        <time>2021-04-17T13:32:09Z</time>
      </trkpt>
      <trkpt lat="5.0151890" lon="-75.5015480">
        <ele>2253.8</ele>
        <time>2021-04-17T13:32:14Z</time>
      </trkpt>
      <trkpt lat="5.0151210" lon="-75.5015510">
        <ele>2254.6</ele>
        <time>2021-04-17T13:32:17Z</time>
      </trkpt>
      <trkpt lat="5.0150990" lon="-75.5015470">
        <ele>2255.0</ele>
        <time>2021-04-17T13:32:18Z</time>
      </trkpt>
      <trkpt lat="5.0150050" lon="-75.5014980">
        <ele>2255.8</ele>
        <time>2021-04-17T13:32:22Z</time>
      </trkpt>
      <trkpt lat="5.0149690" lon="-75.5014760">
        <ele>2256.0</ele>
        <time>2021-04-17T13:32:23Z</time>
      </trkpt>
      <trkpt lat="5.0148830" lon="-75.5014290">
        <ele>2256.8</ele>
        <time>2021-04-17T13:32:26Z</time>
      </trkpt>
      <trkpt lat="5.0148110" lon="-75.5013930">
        <ele>2257.2</ele>
        <time>2021-04-17T13:32:29Z</time>
      </trkpt>
      <trkpt lat="5.0147160" lon="-75.5013300">
        <ele>2258.0</ele>
        <time>2021-04-17T13:32:33Z</time>
      </trkpt>
      <trkpt lat="5.0146770" lon="-75.5013080">
        <ele>2258.2</ele>
        <time>2021-04-17T13:32:35Z</time>
      </trkpt>
      <trkpt lat="5.0145990" lon="-75.5012530">
        <ele>2259.0</ele>
        <time>2021-04-17T13:32:39Z</time>
      </trkpt>
      <trkpt lat="5.0145560" lon="-75.5012000">
        <ele>2259.8</ele>
        <time>2021-04-17T13:32:42Z</time>
      </trkpt>
      <trkpt lat="5.0145360" lon="-75.5011680">
        <ele>2260.2</ele>
        <time>2021-04-17T13:32:44Z</time>
      </trkpt>
      <trkpt lat="5.0145180" lon="-75.5010980">
        <ele>2260.8</ele>
        <time>2021-04-17T13:32:48Z</time>
      </trkpt>
      <trkpt lat="5.0145210" lon="-75.5010540">
        <ele>2261.2</ele>
        <time>2021-04-17T13:32:51Z</time>
      </trkpt>
      <trkpt lat="5.0145230" lon="-75.5010150">
        <ele>2261.8</ele>
        <time>2021-04-17T13:32:53Z</time>
      </trkpt>
      <trkpt lat="5.0145220" lon="-75.5009690">
        <ele>2262.2</ele>
        <time>2021-04-17T13:32:55Z</time>
      </trkpt>
      <trkpt lat="5.0144920" lon="-75.5008690">
        <ele>2262.8</ele>
        <time>2021-04-17T13:32:59Z</time>
      </trkpt>
      <trkpt lat="5.0144580" lon="-75.5008230">
        <ele>2263.2</ele>
        <time>2021-04-17T13:33:01Z</time>
      </trkpt>
      <trkpt lat="5.0144030" lon="-75.5007430">
        <ele>2264.0</ele>
        <time>2021-04-17T13:33:05Z</time>
      </trkpt>
      <trkpt lat="5.0143690" lon="-75.5007180">
        <ele>2264.2</ele>
        <time>2021-04-17T13:33:07Z</time>
      </trkpt>
      <trkpt lat="5.0142630" lon="-75.5006940">
        <ele>2265.0</ele>
        <time>2021-04-17T13:33:11Z</time>
      </trkpt>
      <trkpt lat="5.0141950" lon="-75.5006950">
        <ele>2265.4</ele>
        <time>2021-04-17T13:33:13Z</time>
      </trkpt>
      <trkpt lat="5.0141050" lon="-75.5007080">
        <ele>2266.4</ele>
        <time>2021-04-17T13:33:16Z</time>
      </trkpt>
      <trkpt lat="5.0140290" lon="-75.5007040">
        <ele>2267.2</ele>
        <time>2021-04-17T13:33:19Z</time>
      </trkpt>
      <trkpt lat="5.0140040" lon="-75.5006940">
        <ele>2267.4</ele>
        <time>2021-04-17T13:33:20Z</time>
      </trkpt>
      <trkpt lat="5.0138950" lon="-75.5006360">
        <ele>2268.6</ele>
        <time>2021-04-17T13:33:24Z</time>
      </trkpt>
      <trkpt lat="5.0138690" lon="-75.5006190">
        <ele>2269.0</ele>
        <time>2021-04-17T13:33:25Z</time>
      </trkpt>
      <trkpt lat="5.0137980" lon="-75.5005500">
        <ele>2269.6</ele>
        <time>2021-04-17T13:33:28Z</time>
      </trkpt>
      <trkpt lat="5.0137570" lon="-75.5004890">
        <ele>2269.8</ele>
        <time>2021-04-17T13:33:30Z</time>
      </trkpt>
      <trkpt lat="5.0137240" lon="-75.5004000">
        <ele>2270.4</ele>
        <time>2021-04-17T13:33:33Z</time>
      </trkpt>
      <trkpt lat="5.0137060" lon="-75.5003180">
        <ele>2271.2</ele>
        <time>2021-04-17T13:33:36Z</time>
      </trkpt>
      <trkpt lat="5.0136900" lon="-75.5002450">
        <ele>2271.6</ele>
        <time>2021-04-17T13:33:39Z</time>
      </trkpt>
      <trkpt lat="5.0136740" lon="-75.5001570">
        <ele>2272.2</ele>
        <time>2021-04-17T13:33:43Z</time>
      </trkpt>
      <trkpt lat="5.0136700" lon="-75.5001190">
        <ele>2272.6</ele>
        <time>2021-04-17T13:33:45Z</time>
      </trkpt>
      <trkpt lat="5.0136560" lon="-75.5000560">
        <ele>2273.6</ele>
        <time>2021-04-17T13:33:49Z</time>
      </trkpt>
      <trkpt lat="5.0136540" lon="-75.5000390">
        <ele>2273.8</ele>
        <time>2021-04-17T13:33:50Z</time>
      </trkpt>
      <trkpt lat="5.0136380" lon="-75.4999690">
        <ele>2274.6</ele>
        <time>2021-04-17T13:33:53Z</time>
      </trkpt>
      <trkpt lat="5.0136320" lon="-75.4999310">
        <ele>2275.0</ele>
        <time>2021-04-17T13:33:55Z</time>
      </trkpt>
      <trkpt lat="5.0136250" lon="-75.4998170">
        <ele>2276.0</ele>
        <time>2021-04-17T13:34:01Z</time>
      </trkpt>
      <trkpt lat="5.0135850" lon="-75.4996910">
        <ele>2276.8</ele>
        <time>2021-04-17T13:34:06Z</time>
      </trkpt>
      <trkpt lat="5.0135690" lon="-75.4996750">
        <ele>2277.0</ele>
        <time>2021-04-17T13:34:07Z</time>
      </trkpt>
      <trkpt lat="5.0135110" lon="-75.4996100">
        <ele>2277.6</ele>
        <time>2021-04-17T13:34:11Z</time>
      </trkpt>
      <trkpt lat="5.0134940" lon="-75.4995920">
        <ele>2277.6</ele>
        <time>2021-04-17T13:34:12Z</time>
      </trkpt>
      <trkpt lat="5.0134750" lon="-75.4995740">
        <ele>2277.8</ele>
        <time>2021-04-17T13:34:13Z</time>
      </trkpt>
      <trkpt lat="5.0134160" lon="-75.4995250">
        <ele>2279.0</ele>
        <time>2021-04-17T13:34:17Z</time>
      </trkpt>
      <trkpt lat="5.0133730" lon="-75.4994460">
        <ele>2280.0</ele>
        <time>2021-04-17T13:34:22Z</time>
      </trkpt>
      <trkpt lat="5.0133700" lon="-75.4994230">
        <ele>2280.2</ele>
        <time>2021-04-17T13:34:23Z</time>
      </trkpt>
      <trkpt lat="5.0133660" lon="-75.4993380">
        <ele>2281.2</ele>
        <time>2021-04-17T13:34:27Z</time>
      </trkpt>
      <trkpt lat="5.0133670" lon="-75.4992990">
        <ele>2281.6</ele>
        <time>2021-04-17T13:34:29Z</time>
      </trkpt>
      <trkpt lat="5.0133650" lon="-75.4992130">
        <ele>2282.2</ele>
        <time>2021-04-17T13:34:33Z</time>
      </trkpt>
      <trkpt lat="5.0133670" lon="-75.4991710">
        <ele>2282.6</ele>
        <time>2021-04-17T13:34:35Z</time>
      </trkpt>
      <trkpt lat="5.0133640" lon="-75.4990620">
        <ele>2283.4</ele>
        <time>2021-04-17T13:34:40Z</time>
      </trkpt>
      <trkpt lat="5.0133590" lon="-75.4990470">
        <ele>2283.6</ele>
        <time>2021-04-17T13:34:41Z</time>
      </trkpt>
      <trkpt lat="5.0132950" lon="-75.4989820">
        <ele>2284.2</ele>
        <time>2021-04-17T13:34:45Z</time>
      </trkpt>
      <trkpt lat="5.0132730" lon="-75.4989750">
        <ele>2284.4</ele>
        <time>2021-04-17T13:34:46Z</time>
      </trkpt>
      <trkpt lat="5.0131470" lon="-75.4989600">
        <ele>2285.2</ele>
        <time>2021-04-17T13:34:52Z</time>
      </trkpt>
      <trkpt lat="5.0131240" lon="-75.4989640">
        <ele>2285.4</ele>
        <time>2021-04-17T13:34:53Z</time>
      </trkpt>
      <trkpt lat="5.0130540" lon="-75.4989870">
        <ele>2286.2</ele>
        <time>2021-04-17T13:34:56Z</time>
      </trkpt>
      <trkpt lat="5.0130030" lon="-75.4990040">
        <ele>2286.4</ele>
        <time>2021-04-17T13:34:57Z</time>
      </trkpt>
      <trkpt lat="5.0130030" lon="-75.4990040">
        <ele>2286.8</ele>
        <time>2021-04-17T13:34:58Z</time>
      </trkpt>
      <trkpt lat="5.0129590" lon="-75.4990230">
        <ele>2287.4</ele>
        <time>2021-04-17T13:35:00Z</time>
      </trkpt>
      <trkpt lat="5.0128680" lon="-75.4990410">
        <ele>2288.2</ele>
        <time>2021-04-17T13:35:04Z</time>
      </trkpt>
      <trkpt lat="5.0128180" lon="-75.4990560">
        <ele>2288.8</ele>
        <time>2021-04-17T13:35:06Z</time>
      </trkpt>
      <trkpt lat="5.0126640" lon="-75.4990340">
        <ele>2290.0</ele>
        <time>2021-04-17T13:35:11Z</time>
      </trkpt>
      <trkpt lat="5.0125130" lon="-75.4990490">
        <ele>2290.8</ele>
        <time>2021-04-17T13:35:16Z</time>
      </trkpt>
      <trkpt lat="5.0124860" lon="-75.4990510">
        <ele>2291.0</ele>
        <time>2021-04-17T13:35:17Z</time>
      </trkpt>
      <trkpt lat="5.0124150" lon="-75.4990540">
        <ele>2292.0</ele>
        <time>2021-04-17T13:35:20Z</time>
      </trkpt>
      <trkpt lat="5.0123330" lon="-75.4990700">
        <ele>2292.6</ele>
        <time>2021-04-17T13:35:24Z</time>
      </trkpt>
      <trkpt lat="5.0123140" lon="-75.4990640">
        <ele>2293.0</ele>
        <time>2021-04-17T13:35:25Z</time>
      </trkpt>
      <trkpt lat="5.0122540" lon="-75.4990180">
        <ele>2294.0</ele>
        <time>2021-04-17T13:35:28Z</time>
      </trkpt>
      <trkpt lat="5.0122360" lon="-75.4990010">
        <ele>2294.2</ele>
        <time>2021-04-17T13:35:29Z</time>
      </trkpt>
      <trkpt lat="5.0122010" lon="-75.4989230">
        <ele>2295.0</ele>
        <time>2021-04-17T13:35:33Z</time>
      </trkpt>
      <trkpt lat="5.0121990" lon="-75.4989060">
        <ele>2295.4</ele>
        <time>2021-04-17T13:35:34Z</time>
      </trkpt>
      <trkpt lat="5.0122070" lon="-75.4988250">
        <ele>2296.0</ele>
        <time>2021-04-17T13:35:38Z</time>
      </trkpt>
      <trkpt lat="5.0122230" lon="-75.4987680">
        <ele>2296.6</ele>
        <time>2021-04-17T13:35:41Z</time>
      </trkpt>
      <trkpt lat="5.0122410" lon="-75.4987170">
        <ele>2297.2</ele>
        <time>2021-04-17T13:35:44Z</time>
      </trkpt>
      <trkpt lat="5.0122500" lon="-75.4986570">
        <ele>2298.2</ele>
        <time>2021-04-17T13:35:47Z</time>
      </trkpt>
      <trkpt lat="5.0122510" lon="-75.4986360">
        <ele>2298.4</ele>
        <time>2021-04-17T13:35:48Z</time>
      </trkpt>
      <trkpt lat="5.0122200" lon="-75.4985550">
        <ele>2299.0</ele>
        <time>2021-04-17T13:35:53Z</time>
      </trkpt>
      <trkpt lat="5.0122040" lon="-75.4985230">
        <ele>2299.4</ele>
        <time>2021-04-17T13:35:55Z</time>
      </trkpt>
      <trkpt lat="5.0121560" lon="-75.4984600">
        <ele>2300.4</ele>
        <time>2021-04-17T13:36:00Z</time>
      </trkpt>
      <trkpt lat="5.0121080" lon="-75.4983980">
        <ele>2301.4</ele>
        <time>2021-04-17T13:36:04Z</time>
      </trkpt>
      <trkpt lat="5.0120970" lon="-75.4983830">
        <ele>2301.8</ele>
        <time>2021-04-17T13:36:05Z</time>
      </trkpt>
      <trkpt lat="5.0120500" lon="-75.4983350">
        <ele>2302.2</ele>
        <time>2021-04-17T13:36:08Z</time>
      </trkpt>
      <trkpt lat="5.0119650" lon="-75.4982660">
        <ele>2303.2</ele>
        <time>2021-04-17T13:36:12Z</time>
      </trkpt>
      <trkpt lat="5.0118660" lon="-75.4982100">
        <ele>2304.4</ele>
        <time>2021-04-17T13:36:17Z</time>
      </trkpt>
      <trkpt lat="5.0118500" lon="-75.4982000">
        <ele>2304.4</ele>
        <time>2021-04-17T13:36:18Z</time>
      </trkpt>
      <trkpt lat="5.0117620" lon="-75.4981160">
        <ele>2305.6</ele>
        <time>2021-04-17T13:36:24Z</time>
      </trkpt>
      <trkpt lat="5.0117100" lon="-75.4980150">
        <ele>2306.4</ele>
        <time>2021-04-17T13:36:29Z</time>
      </trkpt>
      <trkpt lat="5.0116930" lon="-75.4979770">
        <ele>2306.8</ele>
        <time>2021-04-17T13:36:31Z</time>
      </trkpt>
      <trkpt lat="5.0116500" lon="-75.4979140">
        <ele>2307.6</ele>
        <time>2021-04-17T13:36:35Z</time>
      </trkpt>
      <trkpt lat="5.0116040" lon="-75.4978750">
        <ele>2308.0</ele>
        <time>2021-04-17T13:36:39Z</time>
      </trkpt>
      <trkpt lat="5.0115800" lon="-75.4978560">
        <ele>2308.4</ele>
        <time>2021-04-17T13:36:41Z</time>
      </trkpt>
      <trkpt lat="5.0115260" lon="-75.4977990">
        <ele>2309.4</ele>
        <time>2021-04-17T13:36:45Z</time>
      </trkpt>
      <trkpt lat="5.0114600" lon="-75.4977350">
        <ele>2310.4</ele>
        <time>2021-04-17T13:36:50Z</time>
      </trkpt>
      <trkpt lat="5.0114240" lon="-75.4976990">
        <ele>2310.8</ele>
        <time>2021-04-17T13:36:52Z</time>
      </trkpt>
      <trkpt lat="5.0113930" lon="-75.4976660">
        <ele>2311.2</ele>
        <time>2021-04-17T13:36:54Z</time>
      </trkpt>
      <trkpt lat="5.0113350" lon="-75.4976230">
        <ele>2311.8</ele>
        <time>2021-04-17T13:36:58Z</time>
      </trkpt>
      <trkpt lat="5.0112950" lon="-75.4975890">
        <ele>2312.4</ele>
        <time>2021-04-17T13:37:01Z</time>
      </trkpt>
      <trkpt lat="5.0112450" lon="-75.4975640">
        <ele>2312.8</ele>
        <time>2021-04-17T13:37:04Z</time>
      </trkpt>
      <trkpt lat="5.0111780" lon="-75.4975490">
        <ele>2313.2</ele>
        <time>2021-04-17T13:37:08Z</time>
      </trkpt>
      <trkpt lat="5.0111580" lon="-75.4975450">
        <ele>2313.4</ele>
        <time>2021-04-17T13:37:09Z</time>
      </trkpt>
      <trkpt lat="5.0110460" lon="-75.4975080">
        <ele>2314.4</ele>
        <time>2021-04-17T13:37:15Z</time>
      </trkpt>
      <trkpt lat="5.0110020" lon="-75.4974870">
        <ele>2315.0</ele>
        <time>2021-04-17T13:37:18Z</time>
      </trkpt>
      <trkpt lat="5.0109700" lon="-75.4974670">
        <ele>2315.2</ele>
        <time>2021-04-17T13:37:20Z</time>
      </trkpt>
      <trkpt lat="5.0109360" lon="-75.4974450">
        <ele>2315.6</ele>
        <time>2021-04-17T13:37:22Z</time>
      </trkpt>
      <trkpt lat="5.0109050" lon="-75.4974330">
        <ele>2316.0</ele>
        <time>2021-04-17T13:37:24Z</time>
      </trkpt>
      <trkpt lat="5.0108890" lon="-75.4974280">
        <ele>2316.2</ele>
        <time>2021-04-17T13:37:25Z</time>
      </trkpt>
      <trkpt lat="5.0107810" lon="-75.4974280">
        <ele>2317.4</ele>
        <time>2021-04-17T13:37:30Z</time>
      </trkpt>
      <trkpt lat="5.0106490" lon="-75.4974450">
        <ele>2318.2</ele>
        <time>2021-04-17T13:37:36Z</time>
      </trkpt>
      <trkpt lat="5.0106260" lon="-75.4974580">
        <ele>2318.4</ele>
        <time>2021-04-17T13:37:37Z</time>
      </trkpt>
      <trkpt lat="5.0105170" lon="-75.4974900">
        <ele>2319.2</ele>
        <time>2021-04-17T13:37:42Z</time>
      </trkpt>
      <trkpt lat="5.0104320" lon="-75.4975070">
        <ele>2320.2</ele>
        <time>2021-04-17T13:37:46Z</time>
      </trkpt>
      <trkpt lat="5.0103880" lon="-75.4975170">
        <ele>2320.4</ele>
        <time>2021-04-17T13:37:48Z</time>
      </trkpt>
      <trkpt lat="5.0103440" lon="-75.4975220">
        <ele>2321.2</ele>
        <time>2021-04-17T13:37:50Z</time>
      </trkpt>
      <trkpt lat="5.0102760" lon="-75.4975460">
        <ele>2322.0</ele>
        <time>2021-04-17T13:37:54Z</time>
      </trkpt>
      <trkpt lat="5.0102580" lon="-75.4975510">
        <ele>2322.2</ele>
        <time>2021-04-17T13:37:55Z</time>
      </trkpt>
      <trkpt lat="5.0101470" lon="-75.4975790">
        <ele>2323.4</ele>
        <time>2021-04-17T13:38:00Z</time>
      </trkpt>
      <trkpt lat="5.0101030" lon="-75.4975930">
        <ele>2323.8</ele>
        <time>2021-04-17T13:38:02Z</time>
      </trkpt>
      <trkpt lat="5.0100530" lon="-75.4975990">
        <ele>2324.4</ele>
        <time>2021-04-17T13:38:04Z</time>
      </trkpt>
      <trkpt lat="5.0099570" lon="-75.4976210">
        <ele>2325.6</ele>
        <time>2021-04-17T13:38:08Z</time>
      </trkpt>
      <trkpt lat="5.0099350" lon="-75.4976260">
        <ele>2325.8</ele>
        <time>2021-04-17T13:38:09Z</time>
      </trkpt>
      <trkpt lat="5.0098610" lon="-75.4976230">
        <ele>2326.6</ele>
        <time>2021-04-17T13:38:12Z</time>
      </trkpt>
      <trkpt lat="5.0097660" lon="-75.4976240">
        <ele>2327.6</ele>
        <time>2021-04-17T13:38:16Z</time>
      </trkpt>
      <trkpt lat="5.0097410" lon="-75.4976240">
        <ele>2327.8</ele>
        <time>2021-04-17T13:38:17Z</time>
      </trkpt>
      <trkpt lat="5.0096110" lon="-75.4976410">
        <ele>2328.6</ele>
        <time>2021-04-17T13:38:22Z</time>
      </trkpt>
      <trkpt lat="5.0095860" lon="-75.4976340">
        <ele>2328.8</ele>
        <time>2021-04-17T13:38:23Z</time>
      </trkpt>
      <trkpt lat="5.0094940" lon="-75.4976200">
        <ele>2329.4</ele>
        <time>2021-04-17T13:38:27Z</time>
      </trkpt>
      <trkpt lat="5.0094110" lon="-75.4976140">
        <ele>2329.8</ele>
        <time>2021-04-17T13:38:30Z</time>
      </trkpt>
      <trkpt lat="5.0093390" lon="-75.4976290">
        <ele>2330.2</ele>
        <time>2021-04-17T13:38:33Z</time>
      </trkpt>
      <trkpt lat="5.0092120" lon="-75.4976390">
        <ele>2330.6</ele>
        <time>2021-04-17T13:38:38Z</time>
      </trkpt>
      <trkpt lat="5.0091820" lon="-75.4976500">
        <ele>2330.8</ele>
        <time>2021-04-17T13:38:39Z</time>
      </trkpt>
      <trkpt lat="5.0090850" lon="-75.4977090">
        <ele>2331.2</ele>
        <time>2021-04-17T13:38:43Z</time>
      </trkpt>
      <trkpt lat="5.0090080" lon="-75.4977990">
        <ele>2332.0</ele>
        <time>2021-04-17T13:38:47Z</time>
      </trkpt>
      <trkpt lat="5.0089610" lon="-75.4978390">
        <ele>2332.4</ele>
        <time>2021-04-17T13:38:49Z</time>
      </trkpt>
      <trkpt lat="5.0088460" lon="-75.4978940">
        <ele>2332.8</ele>
        <time>2021-04-17T13:38:53Z</time>
      </trkpt>
      <trkpt lat="5.0087870" lon="-75.4979090">
        <ele>2333.0</ele>
        <time>2021-04-17T13:38:55Z</time>
      </trkpt>
      <trkpt lat="5.0086290" lon="-75.4978660">
        <ele>2333.8</ele>
        <time>2021-04-17T13:39:00Z</time>
      </trkpt>
      <trkpt lat="5.0086030" lon="-75.4978530">
        <ele>2333.8</ele>
        <time>2021-04-17T13:39:01Z</time>
      </trkpt>
      <trkpt lat="5.0084650" lon="-75.4978060">
        <ele>2334.6</ele>
        <time>2021-04-17T13:39:06Z</time>
      </trkpt>
      <trkpt lat="5.0083820" lon="-75.4977880">
        <ele>2335.0</ele>
        <time>2021-04-17T13:39:09Z</time>
      </trkpt>
      <trkpt lat="5.0082590" lon="-75.4977830">
        <ele>2335.8</ele>
        <time>2021-04-17T13:39:13Z</time>
      </trkpt>
      <trkpt lat="5.0082270" lon="-75.4977780">
        <ele>2336.0</ele>
        <time>2021-04-17T13:39:14Z</time>
      </trkpt>
      <trkpt lat="5.0080480" lon="-75.4977530">
        <ele>2337.2</ele>
        <time>2021-04-17T13:39:20Z</time>
      </trkpt>
      <trkpt lat="5.0078790" lon="-75.4977980">
        <ele>2338.4</ele>
        <time>2021-04-17T13:39:25Z</time>
      </trkpt>
      <trkpt lat="5.0078400" lon="-75.4978140">
        <ele>2338.8</ele>
        <time>2021-04-17T13:39:26Z</time>
      </trkpt>
      <trkpt lat="5.0076560" lon="-75.4978540">
        <ele>2339.6</ele>
        <time>2021-04-17T13:39:32Z</time>
      </trkpt>
      <trkpt lat="5.0075870" lon="-75.4978590">
        <ele>2340.2</ele>
        <time>2021-04-17T13:39:34Z</time>
      </trkpt>
      <trkpt lat="5.0075250" lon="-75.4978570">
        <ele>2340.8</ele>
        <time>2021-04-17T13:39:36Z</time>
      </trkpt>
      <trkpt lat="5.0073320" lon="-75.4978850">
        <ele>2341.4</ele>
        <time>2021-04-17T13:39:42Z</time>
      </trkpt>
      <trkpt lat="5.0073020" lon="-75.4978890">
        <ele>2341.6</ele>
        <time>2021-04-17T13:39:43Z</time>
      </trkpt>
      <trkpt lat="5.0071590" lon="-75.4979280">
        <ele>2342.6</ele>
        <time>2021-04-17T13:39:48Z</time>
      </trkpt>
      <trkpt lat="5.0070500" lon="-75.4979650">
        <ele>2343.4</ele>
        <time>2021-04-17T13:39:52Z</time>
      </trkpt>
      <trkpt lat="5.0069990" lon="-75.4979600">
        <ele>2343.8</ele>
        <time>2021-04-17T13:39:54Z</time>
      </trkpt>
      <trkpt lat="5.0069310" lon="-75.4979120">
        <ele>2344.2</ele>
        <time>2021-04-17T13:39:57Z</time>
      </trkpt>
      <trkpt lat="5.0068570" lon="-75.4978660">
        <ele>2345.0</ele>
        <time>2021-04-17T13:40:00Z</time>
      </trkpt>
      <trkpt lat="5.0067870" lon="-75.4978230">
        <ele>2345.4</ele>
        <time>2021-04-17T13:40:03Z</time>
      </trkpt>
      <trkpt lat="5.0067430" lon="-75.4977970">
        <ele>2346.0</ele>
        <time>2021-04-17T13:40:05Z</time>
      </trkpt>
      <trkpt lat="5.0066790" lon="-75.4977650">
        <ele>2346.8</ele>
        <time>2021-04-17T13:40:08Z</time>
      </trkpt>
      <trkpt lat="5.0066560" lon="-75.4977550">
        <ele>2347.0</ele>
        <time>2021-04-17T13:40:09Z</time>
      </trkpt>
      <trkpt lat="5.0065210" lon="-75.4977190">
        <ele>2348.2</ele>
        <time>2021-04-17T13:40:15Z</time>
      </trkpt>
      <trkpt lat="5.0064200" lon="-75.4977240">
        <ele>2349.2</ele>
        <time>2021-04-17T13:40:20Z</time>
      </trkpt>
      <trkpt lat="5.0063970" lon="-75.4977240">
        <ele>2349.4</ele>
        <time>2021-04-17T13:40:21Z</time>
      </trkpt>
      <trkpt lat="5.0062910" lon="-75.4976970">
        <ele>2350.0</ele>
        <time>2021-04-17T13:40:26Z</time>
      </trkpt>
      <trkpt lat="5.0062670" lon="-75.4976920">
        <ele>2350.2</ele>
        <time>2021-04-17T13:40:27Z</time>
      </trkpt>
      <trkpt lat="5.0061270" lon="-75.4976490">
        <ele>2351.0</ele>
        <time>2021-04-17T13:40:32Z</time>
      </trkpt>
      <trkpt lat="5.0060730" lon="-75.4976340">
        <ele>2351.4</ele>
        <time>2021-04-17T13:40:34Z</time>
      </trkpt>
      <trkpt lat="5.0059910" lon="-75.4976020">
        <ele>2352.0</ele>
        <time>2021-04-17T13:40:37Z</time>
      </trkpt>
      <trkpt lat="5.0058900" lon="-75.4975850">
        <ele>2353.0</ele>
        <time>2021-04-17T13:40:41Z</time>
      </trkpt>
      <trkpt lat="5.0058660" lon="-75.4975840">
        <ele>2353.2</ele>
        <time>2021-04-17T13:40:42Z</time>
      </trkpt>
      <trkpt lat="5.0056990" lon="-75.4975910">
        <ele>2354.2</ele>
        <time>2021-04-17T13:40:49Z</time>
      </trkpt>
      <trkpt lat="5.0055760" lon="-75.4976180">
        <ele>2355.2</ele>
        <time>2021-04-17T13:40:54Z</time>
      </trkpt>
      <trkpt lat="5.0055060" lon="-75.4976210">
        <ele>2355.6</ele>
        <time>2021-04-17T13:40:57Z</time>
      </trkpt>
      <trkpt lat="5.0054460" lon="-75.4976310">
        <ele>2356.2</ele>
        <time>2021-04-17T13:41:00Z</time>
      </trkpt>
      <trkpt lat="5.0053680" lon="-75.4976460">
        <ele>2356.8</ele>
        <time>2021-04-17T13:41:04Z</time>
      </trkpt>
      <trkpt lat="5.0053520" lon="-75.4976520">
        <ele>2357.0</ele>
        <time>2021-04-17T13:41:05Z</time>
      </trkpt>
      <trkpt lat="5.0052140" lon="-75.4976700">
        <ele>2358.2</ele>
        <time>2021-04-17T13:41:11Z</time>
      </trkpt>
      <trkpt lat="5.0051110" lon="-75.4976840">
        <ele>2359.4</ele>
        <time>2021-04-17T13:41:16Z</time>
      </trkpt>
      <trkpt lat="5.0050900" lon="-75.4976790">
        <ele>2359.6</ele>
        <time>2021-04-17T13:41:17Z</time>
      </trkpt>
      <trkpt lat="5.0049910" lon="-75.4976890">
        <ele>2360.6</ele>
        <time>2021-04-17T13:41:22Z</time>
      </trkpt>
      <trkpt lat="5.0049480" lon="-75.4976880">
        <ele>2361.0</ele>
        <time>2021-04-17T13:41:24Z</time>
      </trkpt>
      <trkpt lat="5.0048940" lon="-75.4976850">
        <ele>2361.6</ele>
        <time>2021-04-17T13:41:26Z</time>
      </trkpt>
      <trkpt lat="5.0047730" lon="-75.4976890">
        <ele>2362.0</ele>
        <time>2021-04-17T13:41:31Z</time>
      </trkpt>
      <trkpt lat="5.0047270" lon="-75.4976960">
        <ele>2362.4</ele>
        <time>2021-04-17T13:41:33Z</time>
      </trkpt>
      <trkpt lat="5.0046170" lon="-75.4977080">
        <ele>2363.4</ele>
        <time>2021-04-17T13:41:38Z</time>
      </trkpt>
      <trkpt lat="5.0045940" lon="-75.4977070">
        <ele>2363.6</ele>
        <time>2021-04-17T13:41:39Z</time>
      </trkpt>
      <trkpt lat="5.0044860" lon="-75.4977160">
        <ele>2364.6</ele>
        <time>2021-04-17T13:41:44Z</time>
      </trkpt>
      <trkpt lat="5.0044360" lon="-75.4977260">
        <ele>2365.0</ele>
        <time>2021-04-17T13:41:46Z</time>
      </trkpt>
      <trkpt lat="5.0043810" lon="-75.4977590">
        <ele>2365.8</ele>
        <time>2021-04-17T13:41:49Z</time>
      </trkpt>
      <trkpt lat="5.0043090" lon="-75.4978020">
        <ele>2366.6</ele>
        <time>2021-04-17T13:41:53Z</time>
      </trkpt>
      <trkpt lat="5.0042900" lon="-75.4978100">
        <ele>2366.8</ele>
        <time>2021-04-17T13:41:54Z</time>
      </trkpt>
      <trkpt lat="5.0042040" lon="-75.4978610">
        <ele>2367.6</ele>
        <time>2021-04-17T13:41:59Z</time>
      </trkpt>
      <trkpt lat="5.0041730" lon="-75.4978910">
        <ele>2367.8</ele>
        <time>2021-04-17T13:42:01Z</time>
      </trkpt>
      <trkpt lat="5.0041320" lon="-75.4979700">
        <ele>2368.4</ele>
        <time>2021-04-17T13:42:05Z</time>
      </trkpt>
      <trkpt lat="5.0041000" lon="-75.4980430">
        <ele>2369.0</ele>
        <time>2021-04-17T13:42:08Z</time>
      </trkpt>
      <trkpt lat="5.0040430" lon="-75.4981480">
        <ele>2370.2</ele>
        <time>2021-04-17T13:42:13Z</time>
      </trkpt>
      <trkpt lat="5.0039160" lon="-75.4982180">
        <ele>2371.0</ele>
        <time>2021-04-17T13:42:19Z</time>
      </trkpt>
      <trkpt lat="5.0038940" lon="-75.4982200">
        <ele>2371.2</ele>
        <time>2021-04-17T13:42:20Z</time>
      </trkpt>
      <trkpt lat="5.0038230" lon="-75.4982350">
        <ele>2372.2</ele>
        <time>2021-04-17T13:42:23Z</time>
      </trkpt>
      <trkpt lat="5.0038000" lon="-75.4982340">
        <ele>2372.4</ele>
        <time>2021-04-17T13:42:24Z</time>
      </trkpt>
      <trkpt lat="5.0037770" lon="-75.4982320">
        <ele>2372.6</ele>
        <time>2021-04-17T13:42:25Z</time>
      </trkpt>
      <trkpt lat="5.0036980" lon="-75.4982010">
        <ele>2373.6</ele>
        <time>2021-04-17T13:42:29Z</time>
      </trkpt>
      <trkpt lat="5.0036630" lon="-75.4981820">
        <ele>2374.0</ele>
        <time>2021-04-17T13:42:31Z</time>
      </trkpt>
      <trkpt lat="5.0036270" lon="-75.4981550">
        <ele>2374.6</ele>
        <time>2021-04-17T13:42:33Z</time>
      </trkpt>
      <trkpt lat="5.0035550" lon="-75.4980760">
        <ele>2375.8</ele>
        <time>2021-04-17T13:42:37Z</time>
      </trkpt>
      <trkpt lat="5.0034980" lon="-75.4980660">
        <ele>2375.8</ele>
        <time>2021-04-17T13:42:40Z</time>
      </trkpt>
      <trkpt lat="5.0034780" lon="-75.4980740">
        <ele>2376.0</ele>
        <time>2021-04-17T13:42:41Z</time>
      </trkpt>
      <trkpt lat="5.0033690" lon="-75.4981100">
        <ele>2376.6</ele>
        <time>2021-04-17T13:42:46Z</time>
      </trkpt>
      <trkpt lat="5.0032230" lon="-75.4981600">
        <ele>2377.4</ele>
        <time>2021-04-17T13:42:51Z</time>
      </trkpt>
      <trkpt lat="5.0031900" lon="-75.4981730">
        <ele>2377.6</ele>
        <time>2021-04-17T13:42:52Z</time>
      </trkpt>
      <trkpt lat="5.0030480" lon="-75.4982490">
        <ele>2378.8</ele>
        <time>2021-04-17T13:42:57Z</time>
      </trkpt>
      <trkpt lat="5.0029340" lon="-75.4983270">
        <ele>2379.8</ele>
        <time>2021-04-17T13:43:02Z</time>
      </trkpt>
      <trkpt lat="5.0028620" lon="-75.4983830">
        <ele>2380.2</ele>
        <time>2021-04-17T13:43:05Z</time>
      </trkpt>
      <trkpt lat="5.0027620" lon="-75.4984540">
        <ele>2381.0</ele>
        <time>2021-04-17T13:43:09Z</time>
      </trkpt>
      <trkpt lat="5.0027000" lon="-75.4984710">
        <ele>2381.4</ele>
        <time>2021-04-17T13:43:11Z</time>
      </trkpt>
      <trkpt lat="5.0025380" lon="-75.4984980">
        <ele>2382.0</ele>
        <time>2021-04-17T13:43:17Z</time>
      </trkpt>
      <trkpt lat="5.0025110" lon="-75.4985030">
        <ele>2382.0</ele>
        <time>2021-04-17T13:43:18Z</time>
      </trkpt>
      <trkpt lat="5.0023870" lon="-75.4985180">
        <ele>2383.0</ele>
        <time>2021-04-17T13:43:23Z</time>
      </trkpt>
      <trkpt lat="5.0022900" lon="-75.4985200">
        <ele>2383.6</ele>
        <time>2021-04-17T13:43:27Z</time>
      </trkpt>
      <trkpt lat="5.0021780" lon="-75.4985170">
        <ele>2384.4</ele>
        <time>2021-04-17T13:43:31Z</time>
      </trkpt>
      <trkpt lat="5.0020820" lon="-75.4985000">
        <ele>2384.8</ele>
        <time>2021-04-17T13:43:35Z</time>
      </trkpt>
      <trkpt lat="5.0019610" lon="-75.4984830">
        <ele>2385.6</ele>
        <time>2021-04-17T13:43:41Z</time>
      </trkpt>
      <trkpt lat="5.0019140" lon="-75.4984830">
        <ele>2385.8</ele>
        <time>2021-04-17T13:43:43Z</time>
      </trkpt>
      <trkpt lat="5.0017450" lon="-75.4985050">
        <ele>2386.6</ele>
        <time>2021-04-17T13:43:50Z</time>
      </trkpt>
      <trkpt lat="5.0016990" lon="-75.4985070">
        <ele>2386.8</ele>
        <time>2021-04-17T13:43:52Z</time>
      </trkpt>
      <trkpt lat="5.0015540" lon="-75.4985250">
        <ele>2387.4</ele>
        <time>2021-04-17T13:43:58Z</time>
      </trkpt>
      <trkpt lat="5.0015270" lon="-75.4985310">
        <ele>2387.6</ele>
        <time>2021-04-17T13:43:59Z</time>
      </trkpt>
      <trkpt lat="5.0013940" lon="-75.4985730">
        <ele>2388.6</ele>
        <time>2021-04-17T13:44:04Z</time>
      </trkpt>
      <trkpt lat="5.0013700" lon="-75.4985860">
        <ele>2389.0</ele>
        <time>2021-04-17T13:44:05Z</time>
      </trkpt>
      <trkpt lat="5.0012240" lon="-75.4986530">
        <ele>2389.6</ele>
        <time>2021-04-17T13:44:11Z</time>
      </trkpt>
      <trkpt lat="5.0011500" lon="-75.4986830">
        <ele>2390.0</ele>
        <time>2021-04-17T13:44:14Z</time>
      </trkpt>
      <trkpt lat="5.0010650" lon="-75.4987150">
        <ele>2390.6</ele>
        <time>2021-04-17T13:44:18Z</time>
      </trkpt>
      <trkpt lat="5.0009840" lon="-75.4987530">
        <ele>2391.2</ele>
        <time>2021-04-17T13:44:22Z</time>
      </trkpt>
      <trkpt lat="5.0008900" lon="-75.4988380">
        <ele>2391.6</ele>
        <time>2021-04-17T13:44:27Z</time>
      </trkpt>
      <trkpt lat="5.0008700" lon="-75.4988740">
        <ele>2392.0</ele>
        <time>2021-04-17T13:44:29Z</time>
      </trkpt>
      <trkpt lat="5.0008040" lon="-75.4989670">
        <ele>2393.0</ele>
        <time>2021-04-17T13:44:34Z</time>
      </trkpt>
      <trkpt lat="5.0007860" lon="-75.4989850">
        <ele>2393.2</ele>
        <time>2021-04-17T13:44:35Z</time>
      </trkpt>
      <trkpt lat="5.0006930" lon="-75.4990780">
        <ele>2393.8</ele>
        <time>2021-04-17T13:44:40Z</time>
      </trkpt>
      <trkpt lat="5.0006000" lon="-75.4991300">
        <ele>2394.4</ele>
        <time>2021-04-17T13:44:44Z</time>
      </trkpt>
      <trkpt lat="5.0005490" lon="-75.4991450">
        <ele>2394.8</ele>
        <time>2021-04-17T13:44:46Z</time>
      </trkpt>
      <trkpt lat="5.0004460" lon="-75.4991290">
        <ele>2395.8</ele>
        <time>2021-04-17T13:44:50Z</time>
      </trkpt>
      <trkpt lat="5.0004210" lon="-75.4991130">
        <ele>2395.8</ele>
        <time>2021-04-17T13:44:51Z</time>
      </trkpt>
      <trkpt lat="5.0003370" lon="-75.4990460">
        <ele>2396.4</ele>
        <time>2021-04-17T13:44:55Z</time>
      </trkpt>
      <trkpt lat="5.0003070" lon="-75.4989740">
        <ele>2397.0</ele>
        <time>2021-04-17T13:44:58Z</time>
      </trkpt>
      <trkpt lat="5.0002980" lon="-75.4989250">
        <ele>2397.4</ele>
        <time>2021-04-17T13:45:00Z</time>
      </trkpt>
      <trkpt lat="5.0002820" lon="-75.4988420">
        <ele>2397.8</ele>
        <time>2021-04-17T13:45:03Z</time>
      </trkpt>
      <trkpt lat="5.0002530" lon="-75.4987320">
        <ele>2398.8</ele>
        <time>2021-04-17T13:45:07Z</time>
      </trkpt>
      <trkpt lat="5.0002400" lon="-75.4987070">
        <ele>2399.0</ele>
        <time>2021-04-17T13:45:08Z</time>
      </trkpt>
      <trkpt lat="5.0001660" lon="-75.4986390">
        <ele>2399.6</ele>
        <time>2021-04-17T13:45:12Z</time>
      </trkpt>
      <trkpt lat="5.0000700" lon="-75.4985930">
        <ele>2400.0</ele>
        <time>2021-04-17T13:45:16Z</time>
      </trkpt>
      <trkpt lat="5.0000290" lon="-75.4985750">
        <ele>2400.4</ele>
        <time>2021-04-17T13:45:18Z</time>
      </trkpt>
      <trkpt lat="4.9999700" lon="-75.4985570">
        <ele>2401.2</ele>
        <time>2021-04-17T13:45:21Z</time>
      </trkpt>
      <trkpt lat="4.9999230" lon="-75.4985410">
        <ele>2401.6</ele>
        <time>2021-04-17T13:45:23Z</time>
      </trkpt>
      <trkpt lat="4.9998410" lon="-75.4985130">
        <ele>2402.2</ele>
        <time>2021-04-17T13:45:26Z</time>
      </trkpt>
      <trkpt lat="4.9997260" lon="-75.4984940">
        <ele>2403.2</ele>
        <time>2021-04-17T13:45:30Z</time>
      </trkpt>
      <trkpt lat="4.9996720" lon="-75.4984950">
        <ele>2403.0</ele>
        <time>2021-04-17T13:45:32Z</time>
      </trkpt>
      <trkpt lat="4.9995270" lon="-75.4985050">
        <ele>2404.2</ele>
        <time>2021-04-17T13:45:37Z</time>
      </trkpt>
      <trkpt lat="4.9994110" lon="-75.4984610">
        <ele>2404.8</ele>
        <time>2021-04-17T13:45:42Z</time>
      </trkpt>
      <trkpt lat="4.9993440" lon="-75.4984270">
        <ele>2405.4</ele>
        <time>2021-04-17T13:45:45Z</time>
      </trkpt>
      <trkpt lat="4.9992790" lon="-75.4983850">
        <ele>2405.8</ele>
        <time>2021-04-17T13:45:48Z</time>
      </trkpt>
      <trkpt lat="4.9992390" lon="-75.4983560">
        <ele>2406.6</ele>
        <time>2021-04-17T13:45:50Z</time>
      </trkpt>
      <trkpt lat="4.9991270" lon="-75.4982640">
        <ele>2407.0</ele>
        <time>2021-04-17T13:45:55Z</time>
      </trkpt>
      <trkpt lat="4.9990290" lon="-75.4981930">
        <ele>2407.4</ele>
        <time>2021-04-17T13:45:59Z</time>
      </trkpt>
      <trkpt lat="4.9989670" lon="-75.4981530">
        <ele>2408.0</ele>
        <time>2021-04-17T13:46:02Z</time>
      </trkpt>
      <trkpt lat="4.9988970" lon="-75.4981180">
        <ele>2408.4</ele>
        <time>2021-04-17T13:46:05Z</time>
      </trkpt>
      <trkpt lat="4.9988140" lon="-75.4980870">
        <ele>2409.2</ele>
        <time>2021-04-17T13:46:08Z</time>
      </trkpt>
      <trkpt lat="4.9987580" lon="-75.4980780">
        <ele>2409.6</ele>
        <time>2021-04-17T13:46:10Z</time>
      </trkpt>
      <trkpt lat="4.9986260" lon="-75.4980610">
        <ele>2410.6</ele>
        <time>2021-04-17T13:46:14Z</time>
      </trkpt>
      <trkpt lat="4.9985870" lon="-75.4980520">
        <ele>2410.4</ele>
        <time>2021-04-17T13:46:15Z</time>
      </trkpt>
      <trkpt lat="4.9983570" lon="-75.4980400">
        <ele>2410.6</ele>
        <time>2021-04-17T13:46:21Z</time>
      </trkpt>
      <trkpt lat="4.9981520" lon="-75.4980550">
        <ele>2411.0</ele>
        <time>2021-04-17T13:46:27Z</time>
      </trkpt>
      <trkpt lat="4.9979910" lon="-75.4980830">
        <ele>2411.4</ele>
        <time>2021-04-17T13:46:33Z</time>
      </trkpt>
      <trkpt lat="4.9978980" lon="-75.4981330">
        <ele>2412.6</ele>
        <time>2021-04-17T13:46:37Z</time>
      </trkpt>
      <trkpt lat="4.9978530" lon="-75.4981550">
        <ele>2413.4</ele>
        <time>2021-04-17T13:46:39Z</time>
      </trkpt>
      <trkpt lat="4.9978060" lon="-75.4981710">
        <ele>2413.8</ele>
        <time>2021-04-17T13:46:41Z</time>
      </trkpt>
      <trkpt lat="4.9976670" lon="-75.4982050">
        <ele>2415.0</ele>
        <time>2021-04-17T13:46:46Z</time>
      </trkpt>
      <trkpt lat="4.9975300" lon="-75.4982930">
        <ele>2416.0</ele>
        <time>2021-04-17T13:46:51Z</time>
      </trkpt>
      <trkpt lat="4.9974770" lon="-75.4983390">
        <ele>2416.4</ele>
        <time>2021-04-17T13:46:53Z</time>
      </trkpt>
      <trkpt lat="4.9973880" lon="-75.4984350">
        <ele>2417.2</ele>
        <time>2021-04-17T13:46:57Z</time>
      </trkpt>
      <trkpt lat="4.9973630" lon="-75.4984580">
        <ele>2417.4</ele>
        <time>2021-04-17T13:46:58Z</time>
      </trkpt>
      <trkpt lat="4.9971990" lon="-75.4984920">
        <ele>2418.2</ele>
        <time>2021-04-17T13:47:04Z</time>
      </trkpt>
      <trkpt lat="4.9970200" lon="-75.4984370">
        <ele>2418.8</ele>
        <time>2021-04-17T13:47:09Z</time>
      </trkpt>
      <trkpt lat="4.9968720" lon="-75.4984820">
        <ele>2419.0</ele>
        <time>2021-04-17T13:47:13Z</time>
      </trkpt>
      <trkpt lat="4.9967910" lon="-75.4985460">
        <ele>2419.2</ele>
        <time>2021-04-17T13:47:16Z</time>
      </trkpt>
      <trkpt lat="4.9967270" lon="-75.4986080">
        <ele>2419.2</ele>
        <time>2021-04-17T13:47:19Z</time>
      </trkpt>
      <trkpt lat="4.9966010" lon="-75.4986650">
        <ele>2419.6</ele>
        <time>2021-04-17T13:47:25Z</time>
      </trkpt>
      <trkpt lat="4.9965590" lon="-75.4986650">
        <ele>2420.0</ele>
        <time>2021-04-17T13:47:27Z</time>
      </trkpt>
      <trkpt lat="4.9964760" lon="-75.4986490">
        <ele>2421.2</ele>
        <time>2021-04-17T13:47:31Z</time>
      </trkpt>
      <trkpt lat="4.9963230" lon="-75.4986330">
        <ele>2422.2</ele>
        <time>2021-04-17T13:47:37Z</time>
      </trkpt>
      <trkpt lat="4.9962980" lon="-75.4986310">
        <ele>2422.4</ele>
        <time>2021-04-17T13:47:38Z</time>
      </trkpt>
      <trkpt lat="4.9961720" lon="-75.4986280">
        <ele>2423.4</ele>
        <time>2021-04-17T13:47:44Z</time>
      </trkpt>
      <trkpt lat="4.9960530" lon="-75.4986210">
        <ele>2424.0</ele>
        <time>2021-04-17T13:47:50Z</time>
      </trkpt>
      <trkpt lat="4.9960050" lon="-75.4986160">
        <ele>2424.4</ele>
        <time>2021-04-17T13:47:52Z</time>
      </trkpt>
      <trkpt lat="4.9959080" lon="-75.4986110">
        <ele>2425.6</ele>
        <time>2021-04-17T13:47:56Z</time>
      </trkpt>
      <trkpt lat="4.9957890" lon="-75.4986050">
        <ele>2426.8</ele>
        <time>2021-04-17T13:48:01Z</time>
      </trkpt>
      <trkpt lat="4.9957390" lon="-75.4986160">
        <ele>2427.2</ele>
        <time>2021-04-17T13:48:03Z</time>
      </trkpt>
      <trkpt lat="4.9957170" lon="-75.4986220">
        <ele>2427.8</ele>
        <time>2021-04-17T13:48:04Z</time>
      </trkpt>
      <trkpt lat="4.9955780" lon="-75.4986210">
        <ele>2429.0</ele>
        <time>2021-04-17T13:48:10Z</time>
      </trkpt>
      <trkpt lat="4.9954770" lon="-75.4986250">
        <ele>2430.0</ele>
        <time>2021-04-17T13:48:14Z</time>
      </trkpt>
      <trkpt lat="4.9953980" lon="-75.4986140">
        <ele>2430.8</ele>
        <time>2021-04-17T13:48:17Z</time>
      </trkpt>
      <trkpt lat="4.9953740" lon="-75.4986110">
        <ele>2430.8</ele>
        <time>2021-04-17T13:48:18Z</time>
      </trkpt>
      <trkpt lat="4.9952320" lon="-75.4985910">
        <ele>2432.2</ele>
        <time>2021-04-17T13:48:24Z</time>
      </trkpt>
      <trkpt lat="4.9951830" lon="-75.4985820">
        <ele>2432.8</ele>
        <time>2021-04-17T13:48:26Z</time>
      </trkpt>
      <trkpt lat="4.9951110" lon="-75.4985890">
        <ele>2433.4</ele>
        <time>2021-04-17T13:48:29Z</time>
      </trkpt>
      <trkpt lat="4.9950090" lon="-75.4986130">
        <ele>2434.4</ele>
        <time>2021-04-17T13:48:33Z</time>
      </trkpt>
      <trkpt lat="4.9949540" lon="-75.4986230">
        <ele>2434.8</ele>
        <time>2021-04-17T13:48:35Z</time>
      </trkpt>
      <trkpt lat="4.9948280" lon="-75.4986050">
        <ele>2435.2</ele>
        <time>2021-04-17T13:48:40Z</time>
      </trkpt>
      <trkpt lat="4.9947840" lon="-75.4985790">
        <ele>2435.2</ele>
        <time>2021-04-17T13:48:42Z</time>
      </trkpt>
      <trkpt lat="4.9946910" lon="-75.4984990">
        <ele>2435.8</ele>
        <time>2021-04-17T13:48:46Z</time>
      </trkpt>
      <trkpt lat="4.9946000" lon="-75.4983320">
        <ele>2436.0</ele>
        <time>2021-04-17T13:48:51Z</time>
      </trkpt>
      <trkpt lat="4.9945270" lon="-75.4981990">
        <ele>2436.2</ele>
        <time>2021-04-17T13:48:55Z</time>
      </trkpt>
      <trkpt lat="4.9944650" lon="-75.4981070">
        <ele>2436.4</ele>
        <time>2021-04-17T13:48:58Z</time>
      </trkpt>
      <trkpt lat="4.9943100" lon="-75.4979190">
        <ele>2436.8</ele>
        <time>2021-04-17T13:49:04Z</time>
      </trkpt>
      <trkpt lat="4.9942530" lon="-75.4978460">
        <ele>2436.8</ele>
        <time>2021-04-17T13:49:06Z</time>
      </trkpt>
      <trkpt lat="4.9941870" lon="-75.4977730">
        <ele>2436.8</ele>
        <time>2021-04-17T13:49:08Z</time>
      </trkpt>
      <trkpt lat="4.9941280" lon="-75.4976900">
        <ele>2436.8</ele>
        <time>2021-04-17T13:49:10Z</time>
      </trkpt>
      <trkpt lat="4.9939950" lon="-75.4974080">
        <ele>2436.6</ele>
        <time>2021-04-17T13:49:16Z</time>
      </trkpt>
      <trkpt lat="4.9939200" lon="-75.4971340">
        <ele>2436.4</ele>
        <time>2021-04-17T13:49:21Z</time>
      </trkpt>
      <trkpt lat="4.9938900" lon="-75.4970820">
        <ele>2436.4</ele>
        <time>2021-04-17T13:49:22Z</time>
      </trkpt>
      <trkpt lat="4.9937630" lon="-75.4969390">
        <ele>2436.0</ele>
        <time>2021-04-17T13:49:25Z</time>
      </trkpt>
      <trkpt lat="4.9937140" lon="-75.4968950">
        <ele>2435.8</ele>
        <time>2021-04-17T13:49:26Z</time>
      </trkpt>
      <trkpt lat="4.9934280" lon="-75.4966440">
        <ele>2434.8</ele>
        <time>2021-04-17T13:49:31Z</time>
      </trkpt>
      <trkpt lat="4.9932400" lon="-75.4964490">
        <ele>2433.0</ele>
        <time>2021-04-17T13:49:34Z</time>
      </trkpt>
      <trkpt lat="4.9931930" lon="-75.4963770">
        <ele>2432.6</ele>
        <time>2021-04-17T13:49:35Z</time>
      </trkpt>
      <trkpt lat="4.9931640" lon="-75.4963050">
        <ele>2432.4</ele>
        <time>2021-04-17T13:49:36Z</time>
      </trkpt>
      <trkpt lat="4.9931560" lon="-75.4962310">
        <ele>2431.8</ele>
        <time>2021-04-17T13:49:37Z</time>
      </trkpt>
      <trkpt lat="4.9931710" lon="-75.4961220">
        <ele>2430.4</ele>
        <time>2021-04-17T13:49:39Z</time>
      </trkpt>
      <trkpt lat="4.9931850" lon="-75.4960570">
        <ele>2429.4</ele>
        <time>2021-04-17T13:49:41Z</time>
      </trkpt>
      <trkpt lat="4.9931910" lon="-75.4959960">
        <ele>2428.0</ele>
        <time>2021-04-17T13:49:43Z</time>
      </trkpt>
      <trkpt lat="4.9931860" lon="-75.4959670">
        <ele>2426.8</ele>
        <time>2021-04-17T13:49:44Z</time>
      </trkpt>
      <trkpt lat="4.9931590" lon="-75.4959020">
        <ele>2425.0</ele>
        <time>2021-04-17T13:49:46Z</time>
      </trkpt>
      <trkpt lat="4.9931290" lon="-75.4958700">
        <ele>2424.0</ele>
        <time>2021-04-17T13:49:47Z</time>
      </trkpt>
      <trkpt lat="4.9929670" lon="-75.4958330">
        <ele>2423.0</ele>
        <time>2021-04-17T13:49:50Z</time>
      </trkpt>
      <trkpt lat="4.9927790" lon="-75.4957370">
        <ele>2422.0</ele>
        <time>2021-04-17T13:49:53Z</time>
      </trkpt>
      <trkpt lat="4.9927540" lon="-75.4956760">
        <ele>2421.6</ele>
        <time>2021-04-17T13:49:54Z</time>
      </trkpt>
      <trkpt lat="4.9927500" lon="-75.4956090">
        <ele>2421.0</ele>
        <time>2021-04-17T13:49:55Z</time>
      </trkpt>
      <trkpt lat="4.9927710" lon="-75.4954660">
        <ele>2420.4</ele>
        <time>2021-04-17T13:49:57Z</time>
      </trkpt>
      <trkpt lat="4.9927580" lon="-75.4953110">
        <ele>2419.4</ele>
        <time>2021-04-17T13:49:59Z</time>
      </trkpt>
      <trkpt lat="4.9927040" lon="-75.4951640">
        <ele>2418.4</ele>
        <time>2021-04-17T13:50:01Z</time>
      </trkpt>
      <trkpt lat="4.9926790" lon="-75.4950880">
        <ele>2418.2</ele>
        <time>2021-04-17T13:50:02Z</time>
      </trkpt>
      <trkpt lat="4.9926490" lon="-75.4950110">
        <ele>2418.0</ele>
        <time>2021-04-17T13:50:03Z</time>
      </trkpt>
      <trkpt lat="4.9926130" lon="-75.4949340">
        <ele>2417.2</ele>
        <time>2021-04-17T13:50:04Z</time>
      </trkpt>
      <trkpt lat="4.9925490" lon="-75.4948680">
        <ele>2416.8</ele>
        <time>2021-04-17T13:50:05Z</time>
      </trkpt>
      <trkpt lat="4.9924760" lon="-75.4948070">
        <ele>2416.4</ele>
        <time>2021-04-17T13:50:06Z</time>
      </trkpt>
      <trkpt lat="4.9923110" lon="-75.4947130">
        <ele>2415.6</ele>
        <time>2021-04-17T13:50:08Z</time>
      </trkpt>
      <trkpt lat="4.9922260" lon="-75.4946880">
        <ele>2415.0</ele>
        <time>2021-04-17T13:50:09Z</time>
      </trkpt>
      <trkpt lat="4.9920420" lon="-75.4947000">
        <ele>2413.4</ele>
        <time>2021-04-17T13:50:11Z</time>
      </trkpt>
      <trkpt lat="4.9919530" lon="-75.4947290">
        <ele>2413.0</ele>
        <time>2021-04-17T13:50:12Z</time>
      </trkpt>
      <trkpt lat="4.9918720" lon="-75.4947720">
        <ele>2412.2</ele>
        <time>2021-04-17T13:50:13Z</time>
      </trkpt>
      <trkpt lat="4.9917260" lon="-75.4948980">
        <ele>2410.6</ele>
        <time>2021-04-17T13:50:15Z</time>
      </trkpt>
      <trkpt lat="4.9915890" lon="-75.4950040">
        <ele>2409.2</ele>
        <time>2021-04-17T13:50:17Z</time>
      </trkpt>
      <trkpt lat="4.9915170" lon="-75.4950240">
        <ele>2408.4</ele>
        <time>2021-04-17T13:50:18Z</time>
      </trkpt>
      <trkpt lat="4.9914450" lon="-75.4950130">
        <ele>2407.6</ele>
        <time>2021-04-17T13:50:19Z</time>
      </trkpt>
      <trkpt lat="4.9912840" lon="-75.4949360">
        <ele>2405.2</ele>
        <time>2021-04-17T13:50:21Z</time>
      </trkpt>
      <trkpt lat="4.9911120" lon="-75.4948630">
        <ele>2403.8</ele>
        <time>2021-04-17T13:50:23Z</time>
      </trkpt>
      <trkpt lat="4.9909340" lon="-75.4947790">
        <ele>2402.4</ele>
        <time>2021-04-17T13:50:25Z</time>
      </trkpt>
      <trkpt lat="4.9908520" lon="-75.4947300">
        <ele>2401.4</ele>
        <time>2021-04-17T13:50:26Z</time>
      </trkpt>
      <trkpt lat="4.9907690" lon="-75.4946800">
        <ele>2401.0</ele>
        <time>2021-04-17T13:50:27Z</time>
      </trkpt>
      <trkpt lat="4.9906050" lon="-75.4946090">
        <ele>2399.8</ele>
        <time>2021-04-17T13:50:29Z</time>
      </trkpt>
      <trkpt lat="4.9904400" lon="-75.4945840">
        <ele>2398.0</ele>
        <time>2021-04-17T13:50:31Z</time>
      </trkpt>
      <trkpt lat="4.9903540" lon="-75.4945750">
        <ele>2397.0</ele>
        <time>2021-04-17T13:50:32Z</time>
      </trkpt>
      <trkpt lat="4.9902660" lon="-75.4945660">
        <ele>2396.4</ele>
        <time>2021-04-17T13:50:33Z</time>
      </trkpt>
      <trkpt lat="4.9899920" lon="-75.4945480">
        <ele>2394.8</ele>
        <time>2021-04-17T13:50:36Z</time>
      </trkpt>
      <trkpt lat="4.9899010" lon="-75.4945430">
        <ele>2393.8</ele>
        <time>2021-04-17T13:50:37Z</time>
      </trkpt>
      <trkpt lat="4.9897240" lon="-75.4945260">
        <ele>2392.0</ele>
        <time>2021-04-17T13:50:39Z</time>
      </trkpt>
      <trkpt lat="4.9895510" lon="-75.4945100">
        <ele>2390.8</ele>
        <time>2021-04-17T13:50:41Z</time>
      </trkpt>
      <trkpt lat="4.9893890" lon="-75.4945000">
        <ele>2389.6</ele>
        <time>2021-04-17T13:50:43Z</time>
      </trkpt>
      <trkpt lat="4.9893130" lon="-75.4944920">
        <ele>2389.2</ele>
        <time>2021-04-17T13:50:44Z</time>
      </trkpt>
      <trkpt lat="4.9892390" lon="-75.4944730">
        <ele>2388.8</ele>
        <time>2021-04-17T13:50:45Z</time>
      </trkpt>
      <trkpt lat="4.9891670" lon="-75.4944480">
        <ele>2388.2</ele>
        <time>2021-04-17T13:50:46Z</time>
      </trkpt>
      <trkpt lat="4.9890970" lon="-75.4944160">
        <ele>2387.6</ele>
        <time>2021-04-17T13:50:47Z</time>
      </trkpt>
      <trkpt lat="4.9889640" lon="-75.4943320">
        <ele>2387.0</ele>
        <time>2021-04-17T13:50:49Z</time>
      </trkpt>
      <trkpt lat="4.9885430" lon="-75.4940950">
        <ele>2386.2</ele>
        <time>2021-04-17T13:50:55Z</time>
      </trkpt>
      <trkpt lat="4.9884750" lon="-75.4940580">
        <ele>2386.0</ele>
        <time>2021-04-17T13:50:56Z</time>
      </trkpt>
      <trkpt lat="4.9884090" lon="-75.4940170">
        <ele>2385.8</ele>
        <time>2021-04-17T13:50:57Z</time>
      </trkpt>
      <trkpt lat="4.9882920" lon="-75.4939170">
        <ele>2385.2</ele>
        <time>2021-04-17T13:50:59Z</time>
      </trkpt>
      <trkpt lat="4.9881940" lon="-75.4938040">
        <ele>2384.8</ele>
        <time>2021-04-17T13:51:01Z</time>
      </trkpt>
      <trkpt lat="4.9880670" lon="-75.4936450">
        <ele>2384.4</ele>
        <time>2021-04-17T13:51:04Z</time>
      </trkpt>
      <trkpt lat="4.9879910" lon="-75.4934500">
        <ele>2384.4</ele>
        <time>2021-04-17T13:51:08Z</time>
      </trkpt>
      <trkpt lat="4.9879450" lon="-75.4932820">
        <ele>2384.4</ele>
        <time>2021-04-17T13:51:13Z</time>
      </trkpt>
      <trkpt lat="4.9879030" lon="-75.4932270">
        <ele>2385.2</ele>
        <time>2021-04-17T13:51:16Z</time>
      </trkpt>
      <trkpt lat="4.9878620" lon="-75.4932070">
        <ele>2385.8</ele>
        <time>2021-04-17T13:51:18Z</time>
      </trkpt>
      <trkpt lat="4.9878010" lon="-75.4931970">
        <ele>2387.0</ele>
        <time>2021-04-17T13:51:21Z</time>
      </trkpt>
      <trkpt lat="4.9877880" lon="-75.4932010">
        <ele>2387.2</ele>
        <time>2021-04-17T13:51:22Z</time>
      </trkpt>
      <trkpt lat="4.9877730" lon="-75.4932070">
        <ele>2387.4</ele>
        <time>2021-04-17T13:51:23Z</time>
      </trkpt>
      <trkpt lat="4.9877240" lon="-75.4932530">
        <ele>2388.0</ele>
        <time>2021-04-17T13:51:26Z</time>
      </trkpt>
      <trkpt lat="4.9876860" lon="-75.4933100">
        <ele>2388.8</ele>
        <time>2021-04-17T13:51:29Z</time>
      </trkpt>
      <trkpt lat="4.9876740" lon="-75.4933270">
        <ele>2389.6</ele>
        <time>2021-04-17T13:51:30Z</time>
      </trkpt>
      <trkpt lat="4.9876180" lon="-75.4934240">
        <ele>2390.4</ele>
        <time>2021-04-17T13:51:35Z</time>
      </trkpt>
      <trkpt lat="4.9876070" lon="-75.4934460">
        <ele>2390.6</ele>
        <time>2021-04-17T13:51:36Z</time>
      </trkpt>
      <trkpt lat="4.9875340" lon="-75.4935400">
        <ele>2391.6</ele>
        <time>2021-04-17T13:51:41Z</time>
      </trkpt>
      <trkpt lat="4.9874910" lon="-75.4935660">
        <ele>2392.2</ele>
        <time>2021-04-17T13:51:43Z</time>
      </trkpt>
      <trkpt lat="4.9874150" lon="-75.4935770">
        <ele>2392.6</ele>
        <time>2021-04-17T13:51:46Z</time>
      </trkpt>
      <trkpt lat="4.9873660" lon="-75.4935700">
        <ele>2393.0</ele>
        <time>2021-04-17T13:51:48Z</time>
      </trkpt>
      <trkpt lat="4.9872220" lon="-75.4935230">
        <ele>2393.6</ele>
        <time>2021-04-17T13:51:54Z</time>
      </trkpt>
      <trkpt lat="4.9872000" lon="-75.4935140">
        <ele>2393.8</ele>
        <time>2021-04-17T13:51:55Z</time>
      </trkpt>
      <trkpt lat="4.9870820" lon="-75.4935050">
        <ele>2394.8</ele>
        <time>2021-04-17T13:52:00Z</time>
      </trkpt>
      <trkpt lat="4.9870620" lon="-75.4935140">
        <ele>2395.0</ele>
        <time>2021-04-17T13:52:01Z</time>
      </trkpt>
      <trkpt lat="4.9869880" lon="-75.4935890">
        <ele>2396.0</ele>
        <time>2021-04-17T13:52:06Z</time>
      </trkpt>
      <trkpt lat="4.9869650" lon="-75.4936200">
        <ele>2396.4</ele>
        <time>2021-04-17T13:52:08Z</time>
      </trkpt>
      <trkpt lat="4.9869110" lon="-75.4936780">
        <ele>2397.0</ele>
        <time>2021-04-17T13:52:12Z</time>
      </trkpt>
      <trkpt lat="4.9868580" lon="-75.4937150">
        <ele>2397.8</ele>
        <time>2021-04-17T13:52:15Z</time>
      </trkpt>
      <trkpt lat="4.9868370" lon="-75.4937210">
        <ele>2398.2</ele>
        <time>2021-04-17T13:52:16Z</time>
      </trkpt>
      <trkpt lat="4.9867480" lon="-75.4937170">
        <ele>2399.2</ele>
        <time>2021-04-17T13:52:20Z</time>
      </trkpt>
      <trkpt lat="4.9866420" lon="-75.4936680">
        <ele>2400.4</ele>
        <time>2021-04-17T13:52:25Z</time>
      </trkpt>
      <trkpt lat="4.9866020" lon="-75.4936400">
        <ele>2400.8</ele>
        <time>2021-04-17T13:52:27Z</time>
      </trkpt>
      <trkpt lat="4.9865680" lon="-75.4936120">
        <ele>2401.2</ele>
        <time>2021-04-17T13:52:29Z</time>
      </trkpt>
      <trkpt lat="4.9865200" lon="-75.4935720">
        <ele>2402.2</ele>
        <time>2021-04-17T13:52:32Z</time>
      </trkpt>
      <trkpt lat="4.9865040" lon="-75.4935610">
        <ele>2402.6</ele>
        <time>2021-04-17T13:52:33Z</time>
      </trkpt>
      <trkpt lat="4.9864290" lon="-75.4935260">
        <ele>2403.4</ele>
        <time>2021-04-17T13:52:37Z</time>
      </trkpt>
      <trkpt lat="4.9863630" lon="-75.4935080">
        <ele>2404.4</ele>
        <time>2021-04-17T13:52:40Z</time>
      </trkpt>
      <trkpt lat="4.9862410" lon="-75.4934900">
        <ele>2405.6</ele>
        <time>2021-04-17T13:52:45Z</time>
      </trkpt>
      <trkpt lat="4.9861940" lon="-75.4935030">
        <ele>2406.0</ele>
        <time>2021-04-17T13:52:47Z</time>
      </trkpt>
      <trkpt lat="4.9861260" lon="-75.4935150">
        <ele>2406.6</ele>
        <time>2021-04-17T13:52:50Z</time>
      </trkpt>
      <trkpt lat="4.9860310" lon="-75.4935320">
        <ele>2407.4</ele>
        <time>2021-04-17T13:52:54Z</time>
      </trkpt>
      <trkpt lat="4.9860070" lon="-75.4935300">
        <ele>2407.8</ele>
        <time>2021-04-17T13:52:55Z</time>
      </trkpt>
      <trkpt lat="4.9859260" lon="-75.4934910">
        <ele>2408.6</ele>
        <time>2021-04-17T13:52:59Z</time>
      </trkpt>
      <trkpt lat="4.9859110" lon="-75.4934720">
        <ele>2408.8</ele>
        <time>2021-04-17T13:53:00Z</time>
      </trkpt>
      <trkpt lat="4.9858630" lon="-75.4933620">
        <ele>2409.8</ele>
        <time>2021-04-17T13:53:05Z</time>
      </trkpt>
      <trkpt lat="4.9858630" lon="-75.4933390">
        <ele>2409.8</ele>
        <time>2021-04-17T13:53:06Z</time>
      </trkpt>
      <trkpt lat="4.9858830" lon="-75.4932380">
        <ele>2410.8</ele>
        <time>2021-04-17T13:53:11Z</time>
      </trkpt>
      <trkpt lat="4.9858890" lon="-75.4932190">
        <ele>2411.0</ele>
        <time>2021-04-17T13:53:12Z</time>
      </trkpt>
      <trkpt lat="4.9859220" lon="-75.4931470">
        <ele>2411.8</ele>
        <time>2021-04-17T13:53:16Z</time>
      </trkpt>
      <trkpt lat="4.9859380" lon="-75.4931090">
        <ele>2412.2</ele>
        <time>2021-04-17T13:53:18Z</time>
      </trkpt>
      <trkpt lat="4.9859740" lon="-75.4930430">
        <ele>2413.0</ele>
        <time>2021-04-17T13:53:22Z</time>
      </trkpt>
      <trkpt lat="4.9859850" lon="-75.4930290">
        <ele>2413.2</ele>
        <time>2021-04-17T13:53:23Z</time>
      </trkpt>
      <trkpt lat="4.9860290" lon="-75.4929500">
        <ele>2414.2</ele>
        <time>2021-04-17T13:53:28Z</time>
      </trkpt>
      <trkpt lat="4.9860370" lon="-75.4929320">
        <ele>2414.4</ele>
        <time>2021-04-17T13:53:29Z</time>
      </trkpt>
      <trkpt lat="4.9860630" lon="-75.4928880">
        <ele>2415.0</ele>
        <time>2021-04-17T13:53:32Z</time>
      </trkpt>
      <trkpt lat="4.9860980" lon="-75.4928310">
        <ele>2416.2</ele>
        <time>2021-04-17T13:53:36Z</time>
      </trkpt>
      <trkpt lat="4.9861120" lon="-75.4928150">
        <ele>2416.4</ele>
        <time>2021-04-17T13:53:37Z</time>
      </trkpt>
      <trkpt lat="4.9861420" lon="-75.4927640">
        <ele>2417.2</ele>
        <time>2021-04-17T13:53:40Z</time>
      </trkpt>
      <trkpt lat="4.9862010" lon="-75.4927180">
        <ele>2417.8</ele>
        <time>2021-04-17T13:53:43Z</time>
      </trkpt>
      <trkpt lat="4.9862300" lon="-75.4926860">
        <ele>2418.4</ele>
        <time>2021-04-17T13:53:45Z</time>
      </trkpt>
      <trkpt lat="4.9862830" lon="-75.4925860">
        <ele>2419.4</ele>
        <time>2021-04-17T13:53:50Z</time>
      </trkpt>
      <trkpt lat="4.9862550" lon="-75.4925060">
        <ele>2420.6</ele>
        <time>2021-04-17T13:53:54Z</time>
      </trkpt>
      <trkpt lat="4.9862420" lon="-75.4924910">
        <ele>2420.8</ele>
        <time>2021-04-17T13:53:55Z</time>
      </trkpt>
      <trkpt lat="4.9861390" lon="-75.4924010">
        <ele>2421.4</ele>
        <time>2021-04-17T13:54:02Z</time>
      </trkpt>
      <trkpt lat="4.9861210" lon="-75.4923860">
        <ele>2421.8</ele>
        <time>2021-04-17T13:54:03Z</time>
      </trkpt>
      <trkpt lat="4.9860350" lon="-75.4923070">
        <ele>2422.4</ele>
        <time>2021-04-17T13:54:08Z</time>
      </trkpt>
      <trkpt lat="4.9859990" lon="-75.4922810">
        <ele>2422.6</ele>
        <time>2021-04-17T13:54:10Z</time>
      </trkpt>
      <trkpt lat="4.9859340" lon="-75.4922110">
        <ele>2423.4</ele>
        <time>2021-04-17T13:54:14Z</time>
      </trkpt>
      <trkpt lat="4.9859180" lon="-75.4921950">
        <ele>2423.8</ele>
        <time>2021-04-17T13:54:15Z</time>
      </trkpt>
      <trkpt lat="4.9858120" lon="-75.4920770">
        <ele>2424.4</ele>
        <time>2021-04-17T13:54:21Z</time>
      </trkpt>
      <trkpt lat="4.9857350" lon="-75.4919960">
        <ele>2424.6</ele>
        <time>2021-04-17T13:54:26Z</time>
      </trkpt>
      <trkpt lat="4.9857180" lon="-75.4919840">
        <ele>2424.8</ele>
        <time>2021-04-17T13:54:27Z</time>
      </trkpt>
      <trkpt lat="4.9856430" lon="-75.4919430">
        <ele>2426.0</ele>
        <time>2021-04-17T13:54:31Z</time>
      </trkpt>
      <trkpt lat="4.9856020" lon="-75.4919290">
        <ele>2426.6</ele>
        <time>2021-04-17T13:54:33Z</time>
      </trkpt>
      <trkpt lat="4.9855530" lon="-75.4919210">
        <ele>2427.0</ele>
        <time>2021-04-17T13:54:35Z</time>
      </trkpt>
      <trkpt lat="4.9854820" lon="-75.4919130">
        <ele>2427.8</ele>
        <time>2021-04-17T13:54:38Z</time>
      </trkpt>
      <trkpt lat="4.9854560" lon="-75.4919110">
        <ele>2428.0</ele>
        <time>2021-04-17T13:54:39Z</time>
      </trkpt>
      <trkpt lat="4.9853210" lon="-75.4919160">
        <ele>2428.8</ele>
        <time>2021-04-17T13:54:44Z</time>
      </trkpt>
      <trkpt lat="4.9852630" lon="-75.4919160">
        <ele>2429.4</ele>
        <time>2021-04-17T13:54:46Z</time>
      </trkpt>
      <trkpt lat="4.9851630" lon="-75.4919140">
        <ele>2430.2</ele>
        <time>2021-04-17T13:54:50Z</time>
      </trkpt>
      <trkpt lat="4.9850530" lon="-75.4919110">
        <ele>2431.2</ele>
        <time>2021-04-17T13:54:54Z</time>
      </trkpt>
      <trkpt lat="4.9849430" lon="-75.4919020">
        <ele>2432.0</ele>
        <time>2021-04-17T13:54:58Z</time>
      </trkpt>
      <trkpt lat="4.9848700" lon="-75.4918720">
        <ele>2432.4</ele>
        <time>2021-04-17T13:55:01Z</time>
      </trkpt>
      <trkpt lat="4.9848120" lon="-75.4918290">
        <ele>2432.6</ele>
        <time>2021-04-17T13:55:04Z</time>
      </trkpt>
      <trkpt lat="4.9847460" lon="-75.4917620">
        <ele>2433.4</ele>
        <time>2021-04-17T13:55:08Z</time>
      </trkpt>
      <trkpt lat="4.9847080" lon="-75.4917360">
        <ele>2433.8</ele>
        <time>2021-04-17T13:55:10Z</time>
      </trkpt>
      <trkpt lat="4.9846720" lon="-75.4917020">
        <ele>2434.4</ele>
        <time>2021-04-17T13:55:12Z</time>
      </trkpt>
      <trkpt lat="4.9845750" lon="-75.4916410">
        <ele>2435.2</ele>
        <time>2021-04-17T13:55:17Z</time>
      </trkpt>
      <trkpt lat="4.9845560" lon="-75.4916270">
        <ele>2435.8</ele>
        <time>2021-04-17T13:55:18Z</time>
      </trkpt>
      <trkpt lat="4.9844520" lon="-75.4915600">
        <ele>2437.0</ele>
        <time>2021-04-17T13:55:23Z</time>
      </trkpt>
      <trkpt lat="4.9844290" lon="-75.4915460">
        <ele>2437.2</ele>
        <time>2021-04-17T13:55:24Z</time>
      </trkpt>
      <trkpt lat="4.9843230" lon="-75.4914820">
        <ele>2438.0</ele>
        <time>2021-04-17T13:55:28Z</time>
      </trkpt>
      <trkpt lat="4.9842370" lon="-75.4914240">
        <ele>2438.4</ele>
        <time>2021-04-17T13:55:31Z</time>
      </trkpt>
      <trkpt lat="4.9840840" lon="-75.4912940">
        <ele>2438.8</ele>
        <time>2021-04-17T13:55:36Z</time>
      </trkpt>
      <trkpt lat="4.9839320" lon="-75.4911550">
        <ele>2438.8</ele>
        <time>2021-04-17T13:55:41Z</time>
      </trkpt>
      <trkpt lat="4.9837130" lon="-75.4911000">
        <ele>2438.8</ele>
        <time>2021-04-17T13:55:45Z</time>
      </trkpt>
      <trkpt lat="4.9834280" lon="-75.4911760">
        <ele>2438.4</ele>
        <time>2021-04-17T13:55:49Z</time>
      </trkpt>
      <trkpt lat="4.9832680" lon="-75.4912630">
        <ele>2438.2</ele>
        <time>2021-04-17T13:55:51Z</time>
      </trkpt>
      <trkpt lat="4.9831890" lon="-75.4913190">
        <ele>2438.0</ele>
        <time>2021-04-17T13:55:52Z</time>
      </trkpt>
      <trkpt lat="4.9831130" lon="-75.4913820">
        <ele>2437.8</ele>
        <time>2021-04-17T13:55:53Z</time>
      </trkpt>
      <trkpt lat="4.9828820" lon="-75.4915720">
        <ele>2436.6</ele>
        <time>2021-04-17T13:55:56Z</time>
      </trkpt>
      <trkpt lat="4.9827250" lon="-75.4917200">
        <ele>2435.2</ele>
        <time>2021-04-17T13:55:58Z</time>
      </trkpt>
      <trkpt lat="4.9824710" lon="-75.4918920">
        <ele>2433.6</ele>
        <time>2021-04-17T13:56:01Z</time>
      </trkpt>
      <trkpt lat="4.9823850" lon="-75.4919420">
        <ele>2432.0</ele>
        <time>2021-04-17T13:56:02Z</time>
      </trkpt>
      <trkpt lat="4.9822100" lon="-75.4920380">
        <ele>2430.2</ele>
        <time>2021-04-17T13:56:04Z</time>
      </trkpt>
      <trkpt lat="4.9820450" lon="-75.4921460">
        <ele>2428.8</ele>
        <time>2021-04-17T13:56:06Z</time>
      </trkpt>
      <trkpt lat="4.9819670" lon="-75.4922100">
        <ele>2428.4</ele>
        <time>2021-04-17T13:56:07Z</time>
      </trkpt>
      <trkpt lat="4.9818010" lon="-75.4923520">
        <ele>2427.2</ele>
        <time>2021-04-17T13:56:09Z</time>
      </trkpt>
      <trkpt lat="4.9816220" lon="-75.4924930">
        <ele>2426.0</ele>
        <time>2021-04-17T13:56:11Z</time>
      </trkpt>
      <trkpt lat="4.9815260" lon="-75.4925560">
        <ele>2425.8</ele>
        <time>2021-04-17T13:56:12Z</time>
      </trkpt>
      <trkpt lat="4.9814360" lon="-75.4926280">
        <ele>2425.0</ele>
        <time>2021-04-17T13:56:13Z</time>
      </trkpt>
      <trkpt lat="4.9812610" lon="-75.4927780">
        <ele>2422.8</ele>
        <time>2021-04-17T13:56:15Z</time>
      </trkpt>
      <trkpt lat="4.9811010" lon="-75.4929470">
        <ele>2421.4</ele>
        <time>2021-04-17T13:56:17Z</time>
      </trkpt>
      <trkpt lat="4.9809880" lon="-75.4931060">
        <ele>2420.2</ele>
        <time>2021-04-17T13:56:19Z</time>
      </trkpt>
      <trkpt lat="4.9809750" lon="-75.4931920">
        <ele>2419.4</ele>
        <time>2021-04-17T13:56:20Z</time>
      </trkpt>
      <trkpt lat="4.9809900" lon="-75.4932760">
        <ele>2419.0</ele>
        <time>2021-04-17T13:56:21Z</time>
      </trkpt>
      <trkpt lat="4.9810190" lon="-75.4933580">
        <ele>2418.0</ele>
        <time>2021-04-17T13:56:22Z</time>
      </trkpt>
      <trkpt lat="4.9810630" lon="-75.4934340">
        <ele>2416.8</ele>
        <time>2021-04-17T13:56:23Z</time>
      </trkpt>
      <trkpt lat="4.9811070" lon="-75.4935140">
        <ele>2415.8</ele>
        <time>2021-04-17T13:56:24Z</time>
      </trkpt>
      <trkpt lat="4.9811530" lon="-75.4935960">
        <ele>2415.0</ele>
        <time>2021-04-17T13:56:25Z</time>
      </trkpt>
      <trkpt lat="4.9812000" lon="-75.4936800">
        <ele>2413.6</ele>
        <time>2021-04-17T13:56:26Z</time>
      </trkpt>
      <trkpt lat="4.9812470" lon="-75.4937670">
        <ele>2412.0</ele>
        <time>2021-04-17T13:56:27Z</time>
      </trkpt>
      <trkpt lat="4.9812960" lon="-75.4938510">
        <ele>2410.8</ele>
        <time>2021-04-17T13:56:28Z</time>
      </trkpt>
      <trkpt lat="4.9813470" lon="-75.4939350">
        <ele>2410.0</ele>
        <time>2021-04-17T13:56:29Z</time>
      </trkpt>
      <trkpt lat="4.9814010" lon="-75.4940210">
        <ele>2409.6</ele>
        <time>2021-04-17T13:56:30Z</time>
      </trkpt>
      <trkpt lat="4.9814410" lon="-75.4941110">
        <ele>2408.8</ele>
        <time>2021-04-17T13:56:31Z</time>
      </trkpt>
      <trkpt lat="4.9814710" lon="-75.4941960">
        <ele>2408.2</ele>
        <time>2021-04-17T13:56:32Z</time>
      </trkpt>
      <trkpt lat="4.9814700" lon="-75.4942900">
        <ele>2407.2</ele>
        <time>2021-04-17T13:56:33Z</time>
      </trkpt>
      <trkpt lat="4.9814390" lon="-75.4944860">
        <ele>2405.2</ele>
        <time>2021-04-17T13:56:35Z</time>
      </trkpt>
      <trkpt lat="4.9814090" lon="-75.4945780">
        <ele>2404.0</ele>
        <time>2021-04-17T13:56:36Z</time>
      </trkpt>
      <trkpt lat="4.9813600" lon="-75.4946630">
        <ele>2403.4</ele>
        <time>2021-04-17T13:56:37Z</time>
      </trkpt>
      <trkpt lat="4.9812890" lon="-75.4947350">
        <ele>2402.8</ele>
        <time>2021-04-17T13:56:38Z</time>
      </trkpt>
      <trkpt lat="4.9812050" lon="-75.4947940">
        <ele>2401.8</ele>
        <time>2021-04-17T13:56:39Z</time>
      </trkpt>
      <trkpt lat="4.9811040" lon="-75.4948460">
        <ele>2400.8</ele>
        <time>2021-04-17T13:56:40Z</time>
      </trkpt>
      <trkpt lat="4.9809990" lon="-75.4948900">
        <ele>2399.8</ele>
        <time>2021-04-17T13:56:41Z</time>
      </trkpt>
      <trkpt lat="4.9808900" lon="-75.4949270">
        <ele>2398.4</ele>
        <time>2021-04-17T13:56:42Z</time>
      </trkpt>
      <trkpt lat="4.9807750" lon="-75.4949530">
        <ele>2396.8</ele>
        <time>2021-04-17T13:56:43Z</time>
      </trkpt>
      <trkpt lat="4.9806580" lon="-75.4949810">
        <ele>2395.8</ele>
        <time>2021-04-17T13:56:44Z</time>
      </trkpt>
      <trkpt lat="4.9805540" lon="-75.4950190">
        <ele>2394.8</ele>
        <time>2021-04-17T13:56:45Z</time>
      </trkpt>
      <trkpt lat="4.9804650" lon="-75.4950560">
        <ele>2394.0</ele>
        <time>2021-04-17T13:56:46Z</time>
      </trkpt>
      <trkpt lat="4.9803830" lon="-75.4950790">
        <ele>2393.2</ele>
        <time>2021-04-17T13:56:47Z</time>
      </trkpt>
      <trkpt lat="4.9803070" lon="-75.4950810">
        <ele>2391.8</ele>
        <time>2021-04-17T13:56:48Z</time>
      </trkpt>
      <trkpt lat="4.9802330" lon="-75.4950580">
        <ele>2390.6</ele>
        <time>2021-04-17T13:56:49Z</time>
      </trkpt>
      <trkpt lat="4.9801630" lon="-75.4950110">
        <ele>2389.6</ele>
        <time>2021-04-17T13:56:50Z</time>
      </trkpt>
      <trkpt lat="4.9800960" lon="-75.4949560">
        <ele>2388.6</ele>
        <time>2021-04-17T13:56:51Z</time>
      </trkpt>
      <trkpt lat="4.9800390" lon="-75.4948800">
        <ele>2387.8</ele>
        <time>2021-04-17T13:56:52Z</time>
      </trkpt>
      <trkpt lat="4.9799870" lon="-75.4948080">
        <ele>2387.0</ele>
        <time>2021-04-17T13:56:53Z</time>
      </trkpt>
      <trkpt lat="4.9799330" lon="-75.4947390">
        <ele>2386.2</ele>
        <time>2021-04-17T13:56:54Z</time>
      </trkpt>
      <trkpt lat="4.9798810" lon="-75.4946650">
        <ele>2385.2</ele>
        <time>2021-04-17T13:56:55Z</time>
      </trkpt>
      <trkpt lat="4.9797700" lon="-75.4945370">
        <ele>2383.4</ele>
        <time>2021-04-17T13:56:57Z</time>
      </trkpt>
      <trkpt lat="4.9797040" lon="-75.4944800">
        <ele>2382.2</ele>
        <time>2021-04-17T13:56:58Z</time>
      </trkpt>
      <trkpt lat="4.9796280" lon="-75.4944350">
        <ele>2381.2</ele>
        <time>2021-04-17T13:56:59Z</time>
      </trkpt>
      <trkpt lat="4.9794520" lon="-75.4943850">
        <ele>2380.2</ele>
        <time>2021-04-17T13:57:01Z</time>
      </trkpt>
      <trkpt lat="4.9793570" lon="-75.4943710">
        <ele>2380.0</ele>
        <time>2021-04-17T13:57:02Z</time>
      </trkpt>
      <trkpt lat="4.9792560" lon="-75.4943680">
        <ele>2378.8</ele>
        <time>2021-04-17T13:57:03Z</time>
      </trkpt>
      <trkpt lat="4.9791550" lon="-75.4943780">
        <ele>2378.2</ele>
        <time>2021-04-17T13:57:04Z</time>
      </trkpt>
      <trkpt lat="4.9790670" lon="-75.4943940">
        <ele>2377.4</ele>
        <time>2021-04-17T13:57:05Z</time>
      </trkpt>
      <trkpt lat="4.9789940" lon="-75.4944350">
        <ele>2376.2</ele>
        <time>2021-04-17T13:57:06Z</time>
      </trkpt>
      <trkpt lat="4.9789480" lon="-75.4944860">
        <ele>2375.2</ele>
        <time>2021-04-17T13:57:07Z</time>
      </trkpt>
      <trkpt lat="4.9789250" lon="-75.4945590">
        <ele>2374.2</ele>
        <time>2021-04-17T13:57:08Z</time>
      </trkpt>
      <trkpt lat="4.9789520" lon="-75.4946830">
        <ele>2371.6</ele>
        <time>2021-04-17T13:57:09Z</time>
      </trkpt>
      <trkpt lat="4.9789780" lon="-75.4947750">
        <ele>2370.4</ele>
        <time>2021-04-17T13:57:10Z</time>
      </trkpt>
      <trkpt lat="4.9790130" lon="-75.4948600">
        <ele>2369.6</ele>
        <time>2021-04-17T13:57:11Z</time>
      </trkpt>
      <trkpt lat="4.9790460" lon="-75.4949360">
        <ele>2369.0</ele>
        <time>2021-04-17T13:57:12Z</time>
      </trkpt>
      <trkpt lat="4.9790670" lon="-75.4950080">
        <ele>2368.4</ele>
        <time>2021-04-17T13:57:13Z</time>
      </trkpt>
      <trkpt lat="4.9790680" lon="-75.4950640">
        <ele>2367.4</ele>
        <time>2021-04-17T13:57:14Z</time>
      </trkpt>
      <trkpt lat="4.9790340" lon="-75.4951130">
        <ele>2366.4</ele>
        <time>2021-04-17T13:57:15Z</time>
      </trkpt>
      <trkpt lat="4.9789730" lon="-75.4951590">
        <ele>2365.8</ele>
        <time>2021-04-17T13:57:16Z</time>
      </trkpt>
      <trkpt lat="4.9788030" lon="-75.4952120">
        <ele>2364.0</ele>
        <time>2021-04-17T13:57:18Z</time>
      </trkpt>
      <trkpt lat="4.9786010" lon="-75.4951910">
        <ele>2362.4</ele>
        <time>2021-04-17T13:57:20Z</time>
      </trkpt>
      <trkpt lat="4.9785040" lon="-75.4951560">
        <ele>2361.4</ele>
        <time>2021-04-17T13:57:21Z</time>
      </trkpt>
      <trkpt lat="4.9784020" lon="-75.4951160">
        <ele>2360.6</ele>
        <time>2021-04-17T13:57:22Z</time>
      </trkpt>
      <trkpt lat="4.9782970" lon="-75.4950750">
        <ele>2360.0</ele>
        <time>2021-04-17T13:57:23Z</time>
      </trkpt>
      <trkpt lat="4.9781930" lon="-75.4950310">
        <ele>2359.4</ele>
        <time>2021-04-17T13:57:24Z</time>
      </trkpt>
      <trkpt lat="4.9780910" lon="-75.4949880">
        <ele>2358.4</ele>
        <time>2021-04-17T13:57:25Z</time>
      </trkpt>
      <trkpt lat="4.9779870" lon="-75.4949440">
        <ele>2357.6</ele>
        <time>2021-04-17T13:57:26Z</time>
      </trkpt>
      <trkpt lat="4.9778820" lon="-75.4949170">
        <ele>2356.2</ele>
        <time>2021-04-17T13:57:27Z</time>
      </trkpt>
      <trkpt lat="4.9776670" lon="-75.4948880">
        <ele>2354.6</ele>
        <time>2021-04-17T13:57:29Z</time>
      </trkpt>
      <trkpt lat="4.9774560" lon="-75.4948880">
        <ele>2353.2</ele>
        <time>2021-04-17T13:57:31Z</time>
      </trkpt>
      <trkpt lat="4.9773580" lon="-75.4949000">
        <ele>2352.4</ele>
        <time>2021-04-17T13:57:32Z</time>
      </trkpt>
      <trkpt lat="4.9772630" lon="-75.4949240">
        <ele>2351.2</ele>
        <time>2021-04-17T13:57:33Z</time>
      </trkpt>
      <trkpt lat="4.9771790" lon="-75.4949660">
        <ele>2350.0</ele>
        <time>2021-04-17T13:57:34Z</time>
      </trkpt>
      <trkpt lat="4.9771050" lon="-75.4950230">
        <ele>2349.0</ele>
        <time>2021-04-17T13:57:35Z</time>
      </trkpt>
      <trkpt lat="4.9770360" lon="-75.4950920">
        <ele>2348.2</ele>
        <time>2021-04-17T13:57:36Z</time>
      </trkpt>
      <trkpt lat="4.9769690" lon="-75.4951700">
        <ele>2347.6</ele>
        <time>2021-04-17T13:57:37Z</time>
      </trkpt>
      <trkpt lat="4.9769040" lon="-75.4952470">
        <ele>2346.8</ele>
        <time>2021-04-17T13:57:38Z</time>
      </trkpt>
      <trkpt lat="4.9768420" lon="-75.4953220">
        <ele>2345.8</ele>
        <time>2021-04-17T13:57:39Z</time>
      </trkpt>
      <trkpt lat="4.9767820" lon="-75.4953970">
        <ele>2344.4</ele>
        <time>2021-04-17T13:57:40Z</time>
      </trkpt>
      <trkpt lat="4.9767280" lon="-75.4954710">
        <ele>2343.4</ele>
        <time>2021-04-17T13:57:41Z</time>
      </trkpt>
      <trkpt lat="4.9766820" lon="-75.4955440">
        <ele>2342.2</ele>
        <time>2021-04-17T13:57:42Z</time>
      </trkpt>
      <trkpt lat="4.9766390" lon="-75.4956130">
        <ele>2340.4</ele>
        <time>2021-04-17T13:57:43Z</time>
      </trkpt>
      <trkpt lat="4.9765500" lon="-75.4957300">
        <ele>2339.8</ele>
        <time>2021-04-17T13:57:45Z</time>
      </trkpt>
      <trkpt lat="4.9763280" lon="-75.4958510">
        <ele>2339.6</ele>
        <time>2021-04-17T13:57:49Z</time>
      </trkpt>
      <trkpt lat="4.9762740" lon="-75.4958630">
        <ele>2339.6</ele>
        <time>2021-04-17T13:57:50Z</time>
      </trkpt>
      <trkpt lat="4.9762250" lon="-75.4958780">
        <ele>2339.6</ele>
        <time>2021-04-17T13:57:51Z</time>
      </trkpt>
      <trkpt lat="4.9760910" lon="-75.4959480">
        <ele>2339.6</ele>
        <time>2021-04-17T13:57:54Z</time>
      </trkpt>
      <trkpt lat="4.9760120" lon="-75.4960080">
        <ele>2340.2</ele>
        <time>2021-04-17T13:57:56Z</time>
      </trkpt>
      <trkpt lat="4.9758320" lon="-75.4961170">
        <ele>2340.6</ele>
        <time>2021-04-17T13:58:00Z</time>
      </trkpt>
      <trkpt lat="4.9757840" lon="-75.4961370">
        <ele>2340.6</ele>
        <time>2021-04-17T13:58:01Z</time>
      </trkpt>
      <trkpt lat="4.9756320" lon="-75.4962010">
        <ele>2340.8</ele>
        <time>2021-04-17T13:58:04Z</time>
      </trkpt>
      <trkpt lat="4.9754170" lon="-75.4963260">
        <ele>2340.8</ele>
        <time>2021-04-17T13:58:08Z</time>
      </trkpt>
      <trkpt lat="4.9753560" lon="-75.4963540">
        <ele>2340.6</ele>
        <time>2021-04-17T13:58:09Z</time>
      </trkpt>
      <trkpt lat="4.9752260" lon="-75.4963990">
        <ele>2340.6</ele>
        <time>2021-04-17T13:58:11Z</time>
      </trkpt>
      <trkpt lat="4.9751550" lon="-75.4964140">
        <ele>2340.6</ele>
        <time>2021-04-17T13:58:12Z</time>
      </trkpt>
      <trkpt lat="4.9750830" lon="-75.4964340">
        <ele>2340.6</ele>
        <time>2021-04-17T13:58:13Z</time>
      </trkpt>
      <trkpt lat="4.9748560" lon="-75.4965160">
        <ele>2340.4</ele>
        <time>2021-04-17T13:58:16Z</time>
      </trkpt>
      <trkpt lat="4.9747850" lon="-75.4965610">
        <ele>2340.4</ele>
        <time>2021-04-17T13:58:17Z</time>
      </trkpt>
      <trkpt lat="4.9746640" lon="-75.4966900">
        <ele>2339.6</ele>
        <time>2021-04-17T13:58:19Z</time>
      </trkpt>
      <trkpt lat="4.9745400" lon="-75.4969470">
        <ele>2338.8</ele>
        <time>2021-04-17T13:58:22Z</time>
      </trkpt>
      <trkpt lat="4.9743680" lon="-75.4971600">
        <ele>2336.8</ele>
        <time>2021-04-17T13:58:25Z</time>
      </trkpt>
      <trkpt lat="4.9742020" lon="-75.4972320">
        <ele>2335.2</ele>
        <time>2021-04-17T13:58:27Z</time>
      </trkpt>
      <trkpt lat="4.9741040" lon="-75.4972490">
        <ele>2334.8</ele>
        <time>2021-04-17T13:58:28Z</time>
      </trkpt>
      <trkpt lat="4.9740100" lon="-75.4972770">
        <ele>2334.2</ele>
        <time>2021-04-17T13:58:29Z</time>
      </trkpt>
      <trkpt lat="4.9738370" lon="-75.4973710">
        <ele>2333.4</ele>
        <time>2021-04-17T13:58:31Z</time>
      </trkpt>
      <trkpt lat="4.9737640" lon="-75.4974380">
        <ele>2332.8</ele>
        <time>2021-04-17T13:58:32Z</time>
      </trkpt>
      <trkpt lat="4.9736480" lon="-75.4975660">
        <ele>2331.8</ele>
        <time>2021-04-17T13:58:34Z</time>
      </trkpt>
      <trkpt lat="4.9736160" lon="-75.4976290">
        <ele>2331.2</ele>
        <time>2021-04-17T13:58:35Z</time>
      </trkpt>
      <trkpt lat="4.9735980" lon="-75.4977540">
        <ele>2330.0</ele>
        <time>2021-04-17T13:58:37Z</time>
      </trkpt>
      <trkpt lat="4.9735920" lon="-75.4978260">
        <ele>2329.0</ele>
        <time>2021-04-17T13:58:38Z</time>
      </trkpt>
      <trkpt lat="4.9735830" lon="-75.4979090">
        <ele>2327.6</ele>
        <time>2021-04-17T13:58:39Z</time>
      </trkpt>
      <trkpt lat="4.9735660" lon="-75.4979900">
        <ele>2326.4</ele>
        <time>2021-04-17T13:58:40Z</time>
      </trkpt>
      <trkpt lat="4.9735480" lon="-75.4980650">
        <ele>2325.4</ele>
        <time>2021-04-17T13:58:41Z</time>
      </trkpt>
      <trkpt lat="4.9735400" lon="-75.4981370">
        <ele>2324.4</ele>
        <time>2021-04-17T13:58:42Z</time>
      </trkpt>
      <trkpt lat="4.9735440" lon="-75.4982920">
        <ele>2323.0</ele>
        <time>2021-04-17T13:58:44Z</time>
      </trkpt>
      <trkpt lat="4.9735420" lon="-75.4983580">
        <ele>2322.2</ele>
        <time>2021-04-17T13:58:45Z</time>
      </trkpt>
      <trkpt lat="4.9735290" lon="-75.4984120">
        <ele>2321.2</ele>
        <time>2021-04-17T13:58:46Z</time>
      </trkpt>
      <trkpt lat="4.9735100" lon="-75.4984580">
        <ele>2320.4</ele>
        <time>2021-04-17T13:58:47Z</time>
      </trkpt>
      <trkpt lat="4.9734910" lon="-75.4985060">
        <ele>2319.6</ele>
        <time>2021-04-17T13:58:48Z</time>
      </trkpt>
      <trkpt lat="4.9734540" lon="-75.4985570">
        <ele>2319.2</ele>
        <time>2021-04-17T13:58:49Z</time>
      </trkpt>
      <trkpt lat="4.9734010" lon="-75.4985980">
        <ele>2319.0</ele>
        <time>2021-04-17T13:58:50Z</time>
      </trkpt>
      <trkpt lat="4.9733330" lon="-75.4986270">
        <ele>2318.4</ele>
        <time>2021-04-17T13:58:51Z</time>
      </trkpt>
      <trkpt lat="4.9731770" lon="-75.4986670">
        <ele>2317.8</ele>
        <time>2021-04-17T13:58:53Z</time>
      </trkpt>
      <trkpt lat="4.9730290" lon="-75.4986980">
        <ele>2317.4</ele>
        <time>2021-04-17T13:58:55Z</time>
      </trkpt>
      <trkpt lat="4.9729620" lon="-75.4987250">
        <ele>2317.4</ele>
        <time>2021-04-17T13:58:56Z</time>
      </trkpt>
      <trkpt lat="4.9728460" lon="-75.4987880">
        <ele>2316.6</ele>
        <time>2021-04-17T13:58:58Z</time>
      </trkpt>
      <trkpt lat="4.9727900" lon="-75.4988220">
        <ele>2316.0</ele>
        <time>2021-04-17T13:58:59Z</time>
      </trkpt>
      <trkpt lat="4.9726690" lon="-75.4988820">
        <ele>2314.6</ele>
        <time>2021-04-17T13:59:01Z</time>
      </trkpt>
      <trkpt lat="4.9725430" lon="-75.4989170">
        <ele>2313.2</ele>
        <time>2021-04-17T13:59:03Z</time>
      </trkpt>
      <trkpt lat="4.9724090" lon="-75.4989440">
        <ele>2312.0</ele>
        <time>2021-04-17T13:59:05Z</time>
      </trkpt>
      <trkpt lat="4.9723370" lon="-75.4989650">
        <ele>2311.8</ele>
        <time>2021-04-17T13:59:06Z</time>
      </trkpt>
      <trkpt lat="4.9722660" lon="-75.4989950">
        <ele>2311.4</ele>
        <time>2021-04-17T13:59:07Z</time>
      </trkpt>
      <trkpt lat="4.9721930" lon="-75.4990280">
        <ele>2310.6</ele>
        <time>2021-04-17T13:59:08Z</time>
      </trkpt>
      <trkpt lat="4.9719590" lon="-75.4991220">
        <ele>2309.0</ele>
        <time>2021-04-17T13:59:11Z</time>
      </trkpt>
      <trkpt lat="4.9718790" lon="-75.4991610">
        <ele>2308.6</ele>
        <time>2021-04-17T13:59:12Z</time>
      </trkpt>
      <trkpt lat="4.9717170" lon="-75.4992490">
        <ele>2307.8</ele>
        <time>2021-04-17T13:59:14Z</time>
      </trkpt>
      <trkpt lat="4.9715530" lon="-75.4993400">
        <ele>2306.8</ele>
        <time>2021-04-17T13:59:16Z</time>
      </trkpt>
      <trkpt lat="4.9713840" lon="-75.4994320">
        <ele>2305.4</ele>
        <time>2021-04-17T13:59:18Z</time>
      </trkpt>
      <trkpt lat="4.9712970" lon="-75.4994720">
        <ele>2304.8</ele>
        <time>2021-04-17T13:59:19Z</time>
      </trkpt>
      <trkpt lat="4.9712050" lon="-75.4995000">
        <ele>2304.4</ele>
        <time>2021-04-17T13:59:20Z</time>
      </trkpt>
      <trkpt lat="4.9710180" lon="-75.4995490">
        <ele>2303.6</ele>
        <time>2021-04-17T13:59:22Z</time>
      </trkpt>
      <trkpt lat="4.9709230" lon="-75.4995760">
        <ele>2302.8</ele>
        <time>2021-04-17T13:59:23Z</time>
      </trkpt>
      <trkpt lat="4.9708330" lon="-75.4996130">
        <ele>2302.2</ele>
        <time>2021-04-17T13:59:24Z</time>
      </trkpt>
      <trkpt lat="4.9707440" lon="-75.4996570">
        <ele>2301.8</ele>
        <time>2021-04-17T13:59:25Z</time>
      </trkpt>
      <trkpt lat="4.9706560" lon="-75.4997070">
        <ele>2301.2</ele>
        <time>2021-04-17T13:59:26Z</time>
      </trkpt>
      <trkpt lat="4.9705740" lon="-75.4997700">
        <ele>2300.2</ele>
        <time>2021-04-17T13:59:27Z</time>
      </trkpt>
      <trkpt lat="4.9704170" lon="-75.4998960">
        <ele>2299.2</ele>
        <time>2021-04-17T13:59:29Z</time>
      </trkpt>
      <trkpt lat="4.9703360" lon="-75.4999550">
        <ele>2298.8</ele>
        <time>2021-04-17T13:59:30Z</time>
      </trkpt>
      <trkpt lat="4.9702500" lon="-75.5000050">
        <ele>2297.8</ele>
        <time>2021-04-17T13:59:31Z</time>
      </trkpt>
      <trkpt lat="4.9700540" lon="-75.5000830">
        <ele>2296.8</ele>
        <time>2021-04-17T13:59:33Z</time>
      </trkpt>
      <trkpt lat="4.9699490" lon="-75.5001100">
        <ele>2296.6</ele>
        <time>2021-04-17T13:59:34Z</time>
      </trkpt>
      <trkpt lat="4.9697320" lon="-75.5001600">
        <ele>2295.2</ele>
        <time>2021-04-17T13:59:36Z</time>
      </trkpt>
      <trkpt lat="4.9695130" lon="-75.5002160">
        <ele>2294.2</ele>
        <time>2021-04-17T13:59:38Z</time>
      </trkpt>
      <trkpt lat="4.9694030" lon="-75.5002440">
        <ele>2293.8</ele>
        <time>2021-04-17T13:59:39Z</time>
      </trkpt>
      <trkpt lat="4.9691750" lon="-75.5002910">
        <ele>2292.4</ele>
        <time>2021-04-17T13:59:41Z</time>
      </trkpt>
      <trkpt lat="4.9689370" lon="-75.5003050">
        <ele>2290.8</ele>
        <time>2021-04-17T13:59:43Z</time>
      </trkpt>
      <trkpt lat="4.9686970" lon="-75.5003070">
        <ele>2289.0</ele>
        <time>2021-04-17T13:59:45Z</time>
      </trkpt>
      <trkpt lat="4.9685030" lon="-75.5003240">
        <ele>2287.4</ele>
        <time>2021-04-17T13:59:47Z</time>
      </trkpt>
      <trkpt lat="4.9684320" lon="-75.5003480">
        <ele>2286.4</ele>
        <time>2021-04-17T13:59:48Z</time>
      </trkpt>
      <trkpt lat="4.9683660" lon="-75.5004680">
        <ele>2284.6</ele>
        <time>2021-04-17T13:59:50Z</time>
      </trkpt>
      <trkpt lat="4.9683710" lon="-75.5005500">
        <ele>2283.4</ele>
        <time>2021-04-17T13:59:51Z</time>
      </trkpt>
      <trkpt lat="4.9684290" lon="-75.5007260">
        <ele>2281.6</ele>
        <time>2021-04-17T13:59:53Z</time>
      </trkpt>
      <trkpt lat="4.9684660" lon="-75.5008170">
        <ele>2280.2</ele>
        <time>2021-04-17T13:59:54Z</time>
      </trkpt>
      <trkpt lat="4.9685050" lon="-75.5009080">
        <ele>2278.6</ele>
        <time>2021-04-17T13:59:55Z</time>
      </trkpt>
      <trkpt lat="4.9685480" lon="-75.5010000">
        <ele>2277.4</ele>
        <time>2021-04-17T13:59:56Z</time>
      </trkpt>
      <trkpt lat="4.9685860" lon="-75.5010930">
        <ele>2275.8</ele>
        <time>2021-04-17T13:59:57Z</time>
      </trkpt>
      <trkpt lat="4.9686170" lon="-75.5011880">
        <ele>2275.0</ele>
        <time>2021-04-17T13:59:58Z</time>
      </trkpt>
      <trkpt lat="4.9686360" lon="-75.5012850">
        <ele>2274.0</ele>
        <time>2021-04-17T13:59:59Z</time>
      </trkpt>
      <trkpt lat="4.9686430" lon="-75.5014890">
        <ele>2272.4</ele>
        <time>2021-04-17T14:00:01Z</time>
      </trkpt>
      <trkpt lat="4.9686470" lon="-75.5016910">
        <ele>2270.2</ele>
        <time>2021-04-17T14:00:03Z</time>
      </trkpt>
      <trkpt lat="4.9686470" lon="-75.5017780">
        <ele>2269.0</ele>
        <time>2021-04-17T14:00:04Z</time>
      </trkpt>
      <trkpt lat="4.9686350" lon="-75.5018570">
        <ele>2268.2</ele>
        <time>2021-04-17T14:00:05Z</time>
      </trkpt>
      <trkpt lat="4.9686010" lon="-75.5019290">
        <ele>2267.2</ele>
        <time>2021-04-17T14:00:06Z</time>
      </trkpt>
      <trkpt lat="4.9685380" lon="-75.5019800">
        <ele>2266.2</ele>
        <time>2021-04-17T14:00:07Z</time>
      </trkpt>
      <trkpt lat="4.9684610" lon="-75.5020110">
        <ele>2265.4</ele>
        <time>2021-04-17T14:00:08Z</time>
      </trkpt>
      <trkpt lat="4.9682870" lon="-75.5020380">
        <ele>2264.0</ele>
        <time>2021-04-17T14:00:10Z</time>
      </trkpt>
      <trkpt lat="4.9681890" lon="-75.5020470">
        <ele>2262.8</ele>
        <time>2021-04-17T14:00:11Z</time>
      </trkpt>
      <trkpt lat="4.9680860" lon="-75.5020550">
        <ele>2261.2</ele>
        <time>2021-04-17T14:00:12Z</time>
      </trkpt>
      <trkpt lat="4.9679830" lon="-75.5020620">
        <ele>2259.8</ele>
        <time>2021-04-17T14:00:13Z</time>
      </trkpt>
      <trkpt lat="4.9678890" lon="-75.5020770">
        <ele>2258.6</ele>
        <time>2021-04-17T14:00:14Z</time>
      </trkpt>
      <trkpt lat="4.9678020" lon="-75.5021050">
        <ele>2257.8</ele>
        <time>2021-04-17T14:00:15Z</time>
      </trkpt>
      <trkpt lat="4.9677210" lon="-75.5021450">
        <ele>2257.0</ele>
        <time>2021-04-17T14:00:16Z</time>
      </trkpt>
      <trkpt lat="4.9676180" lon="-75.5022790">
        <ele>2255.6</ele>
        <time>2021-04-17T14:00:18Z</time>
      </trkpt>
      <trkpt lat="4.9675930" lon="-75.5024570">
        <ele>2253.6</ele>
        <time>2021-04-17T14:00:20Z</time>
      </trkpt>
      <trkpt lat="4.9676010" lon="-75.5025520">
        <ele>2252.8</ele>
        <time>2021-04-17T14:00:21Z</time>
      </trkpt>
      <trkpt lat="4.9676100" lon="-75.5026390">
        <ele>2252.0</ele>
        <time>2021-04-17T14:00:22Z</time>
      </trkpt>
      <trkpt lat="4.9675610" lon="-75.5027770">
        <ele>2250.4</ele>
        <time>2021-04-17T14:00:24Z</time>
      </trkpt>
      <trkpt lat="4.9674400" lon="-75.5028950">
        <ele>2248.8</ele>
        <time>2021-04-17T14:00:26Z</time>
      </trkpt>
      <trkpt lat="4.9673940" lon="-75.5029640">
        <ele>2247.6</ele>
        <time>2021-04-17T14:00:27Z</time>
      </trkpt>
      <trkpt lat="4.9673710" lon="-75.5030350">
        <ele>2246.6</ele>
        <time>2021-04-17T14:00:28Z</time>
      </trkpt>
      <trkpt lat="4.9673760" lon="-75.5031170">
        <ele>2245.4</ele>
        <time>2021-04-17T14:00:29Z</time>
      </trkpt>
      <trkpt lat="4.9674620" lon="-75.5032590">
        <ele>2243.2</ele>
        <time>2021-04-17T14:00:31Z</time>
      </trkpt>
      <trkpt lat="4.9675070" lon="-75.5033360">
        <ele>2241.8</ele>
        <time>2021-04-17T14:00:32Z</time>
      </trkpt>
      <trkpt lat="4.9675370" lon="-75.5035030">
        <ele>2240.4</ele>
        <time>2021-04-17T14:00:34Z</time>
      </trkpt>
      <trkpt lat="4.9675020" lon="-75.5035770">
        <ele>2238.8</ele>
        <time>2021-04-17T14:00:35Z</time>
      </trkpt>
      <trkpt lat="4.9674200" lon="-75.5036160">
        <ele>2237.6</ele>
        <time>2021-04-17T14:00:36Z</time>
      </trkpt>
      <trkpt lat="4.9672220" lon="-75.5036700">
        <ele>2236.0</ele>
        <time>2021-04-17T14:00:38Z</time>
      </trkpt>
      <trkpt lat="4.9671220" lon="-75.5036910">
        <ele>2234.8</ele>
        <time>2021-04-17T14:00:39Z</time>
      </trkpt>
      <trkpt lat="4.9669110" lon="-75.5037140">
        <ele>2233.4</ele>
        <time>2021-04-17T14:00:41Z</time>
      </trkpt>
      <trkpt lat="4.9667320" lon="-75.5037260">
        <ele>2231.8</ele>
        <time>2021-04-17T14:00:43Z</time>
      </trkpt>
      <trkpt lat="4.9666650" lon="-75.5037410">
        <ele>2231.4</ele>
        <time>2021-04-17T14:00:44Z</time>
      </trkpt>
      <trkpt lat="4.9666170" lon="-75.5037730">
        <ele>2230.6</ele>
        <time>2021-04-17T14:00:45Z</time>
      </trkpt>
      <trkpt lat="4.9665810" lon="-75.5038260">
        <ele>2230.0</ele>
        <time>2021-04-17T14:00:46Z</time>
      </trkpt>
      <trkpt lat="4.9665460" lon="-75.5038820">
        <ele>2229.2</ele>
        <time>2021-04-17T14:00:47Z</time>
      </trkpt>
      <trkpt lat="4.9664480" lon="-75.5040000">
        <ele>2227.6</ele>
        <time>2021-04-17T14:00:49Z</time>
      </trkpt>
      <trkpt lat="4.9663840" lon="-75.5040500">
        <ele>2226.2</ele>
        <time>2021-04-17T14:00:50Z</time>
      </trkpt>
      <trkpt lat="4.9663160" lon="-75.5040850">
        <ele>2225.0</ele>
        <time>2021-04-17T14:00:51Z</time>
      </trkpt>
      <trkpt lat="4.9662450" lon="-75.5040990">
        <ele>2224.0</ele>
        <time>2021-04-17T14:00:52Z</time>
      </trkpt>
      <trkpt lat="4.9661770" lon="-75.5040760">
        <ele>2222.8</ele>
        <time>2021-04-17T14:00:53Z</time>
      </trkpt>
      <trkpt lat="4.9660540" lon="-75.5039080">
        <ele>2221.4</ele>
        <time>2021-04-17T14:00:55Z</time>
      </trkpt>
      <trkpt lat="4.9659750" lon="-75.5037230">
        <ele>2220.2</ele>
        <time>2021-04-17T14:00:57Z</time>
      </trkpt>
      <trkpt lat="4.9659330" lon="-75.5036240">
        <ele>2218.8</ele>
        <time>2021-04-17T14:00:58Z</time>
      </trkpt>
      <trkpt lat="4.9658890" lon="-75.5035380">
        <ele>2217.6</ele>
        <time>2021-04-17T14:00:59Z</time>
      </trkpt>
      <trkpt lat="4.9658390" lon="-75.5034610">
        <ele>2216.4</ele>
        <time>2021-04-17T14:01:00Z</time>
      </trkpt>
      <trkpt lat="4.9657810" lon="-75.5033980">
        <ele>2215.2</ele>
        <time>2021-04-17T14:01:01Z</time>
      </trkpt>
      <trkpt lat="4.9657150" lon="-75.5033590">
        <ele>2214.2</ele>
        <time>2021-04-17T14:01:02Z</time>
      </trkpt>
      <trkpt lat="4.9655760" lon="-75.5033090">
        <ele>2213.0</ele>
        <time>2021-04-17T14:01:04Z</time>
      </trkpt>
      <trkpt lat="4.9654500" lon="-75.5032530">
        <ele>2211.2</ele>
        <time>2021-04-17T14:01:06Z</time>
      </trkpt>
      <trkpt lat="4.9653890" lon="-75.5032120">
        <ele>2210.2</ele>
        <time>2021-04-17T14:01:07Z</time>
      </trkpt>
      <trkpt lat="4.9653280" lon="-75.5031680">
        <ele>2209.2</ele>
        <time>2021-04-17T14:01:08Z</time>
      </trkpt>
      <trkpt lat="4.9652620" lon="-75.5031140">
        <ele>2207.4</ele>
        <time>2021-04-17T14:01:09Z</time>
      </trkpt>
      <trkpt lat="4.9651250" lon="-75.5030180">
        <ele>2206.4</ele>
        <time>2021-04-17T14:01:11Z</time>
      </trkpt>
      <trkpt lat="4.9650490" lon="-75.5029900">
        <ele>2206.0</ele>
        <time>2021-04-17T14:01:12Z</time>
      </trkpt>
      <trkpt lat="4.9648720" lon="-75.5029610">
        <ele>2204.4</ele>
        <time>2021-04-17T14:01:14Z</time>
      </trkpt>
      <trkpt lat="4.9647010" lon="-75.5029750">
        <ele>2203.2</ele>
        <time>2021-04-17T14:01:16Z</time>
      </trkpt>
      <trkpt lat="4.9645780" lon="-75.5030420">
        <ele>2200.8</ele>
        <time>2021-04-17T14:01:18Z</time>
      </trkpt>
      <trkpt lat="4.9645370" lon="-75.5030980">
        <ele>2199.4</ele>
        <time>2021-04-17T14:01:19Z</time>
      </trkpt>
      <trkpt lat="4.9645230" lon="-75.5032610">
        <ele>2197.8</ele>
        <time>2021-04-17T14:01:21Z</time>
      </trkpt>
      <trkpt lat="4.9645220" lon="-75.5034180">
        <ele>2195.8</ele>
        <time>2021-04-17T14:01:23Z</time>
      </trkpt>
      <trkpt lat="4.9644970" lon="-75.5034980">
        <ele>2194.4</ele>
        <time>2021-04-17T14:01:24Z</time>
      </trkpt>
      <trkpt lat="4.9644560" lon="-75.5035700">
        <ele>2192.8</ele>
        <time>2021-04-17T14:01:25Z</time>
      </trkpt>
      <trkpt lat="4.9644040" lon="-75.5036390">
        <ele>2191.6</ele>
        <time>2021-04-17T14:01:26Z</time>
      </trkpt>
      <trkpt lat="4.9643400" lon="-75.5037010">
        <ele>2190.6</ele>
        <time>2021-04-17T14:01:27Z</time>
      </trkpt>
      <trkpt lat="4.9642660" lon="-75.5037500">
        <ele>2189.0</ele>
        <time>2021-04-17T14:01:28Z</time>
      </trkpt>
      <trkpt lat="4.9641800" lon="-75.5037850">
        <ele>2187.6</ele>
        <time>2021-04-17T14:01:29Z</time>
      </trkpt>
      <trkpt lat="4.9640870" lon="-75.5038190">
        <ele>2186.4</ele>
        <time>2021-04-17T14:01:30Z</time>
      </trkpt>
      <trkpt lat="4.9638920" lon="-75.5039050">
        <ele>2185.2</ele>
        <time>2021-04-17T14:01:32Z</time>
      </trkpt>
      <trkpt lat="4.9636950" lon="-75.5040030">
        <ele>2183.4</ele>
        <time>2021-04-17T14:01:34Z</time>
      </trkpt>
      <trkpt lat="4.9635900" lon="-75.5040410">
        <ele>2182.8</ele>
        <time>2021-04-17T14:01:35Z</time>
      </trkpt>
      <trkpt lat="4.9634800" lon="-75.5040680">
        <ele>2182.4</ele>
        <time>2021-04-17T14:01:36Z</time>
      </trkpt>
      <trkpt lat="4.9633690" lon="-75.5040910">
        <ele>2181.0</ele>
        <time>2021-04-17T14:01:37Z</time>
      </trkpt>
      <trkpt lat="4.9632640" lon="-75.5041200">
        <ele>2180.2</ele>
        <time>2021-04-17T14:01:38Z</time>
      </trkpt>
      <trkpt lat="4.9631650" lon="-75.5041580">
        <ele>2179.2</ele>
        <time>2021-04-17T14:01:39Z</time>
      </trkpt>
      <trkpt lat="4.9629820" lon="-75.5042450">
        <ele>2178.2</ele>
        <time>2021-04-17T14:01:41Z</time>
      </trkpt>
      <trkpt lat="4.9628960" lon="-75.5042900">
        <ele>2177.4</ele>
        <time>2021-04-17T14:01:42Z</time>
      </trkpt>
      <trkpt lat="4.9628090" lon="-75.5043330">
        <ele>2176.4</ele>
        <time>2021-04-17T14:01:43Z</time>
      </trkpt>
      <trkpt lat="4.9627190" lon="-75.5043670">
        <ele>2175.4</ele>
        <time>2021-04-17T14:01:44Z</time>
      </trkpt>
      <trkpt lat="4.9626280" lon="-75.5043920">
        <ele>2174.4</ele>
        <time>2021-04-17T14:01:45Z</time>
      </trkpt>
      <trkpt lat="4.9624580" lon="-75.5044290">
        <ele>2172.8</ele>
        <time>2021-04-17T14:01:47Z</time>
      </trkpt>
      <trkpt lat="4.9623080" lon="-75.5044700">
        <ele>2172.0</ele>
        <time>2021-04-17T14:01:49Z</time>
      </trkpt>
      <trkpt lat="4.9622510" lon="-75.5045180">
        <ele>2171.8</ele>
        <time>2021-04-17T14:01:50Z</time>
      </trkpt>
      <trkpt lat="4.9621260" lon="-75.5047090">
        <ele>2170.8</ele>
        <time>2021-04-17T14:01:53Z</time>
      </trkpt>
      <trkpt lat="4.9620850" lon="-75.5047740">
        <ele>2170.6</ele>
        <time>2021-04-17T14:01:54Z</time>
      </trkpt>
      <trkpt lat="4.9620360" lon="-75.5048310">
        <ele>2170.4</ele>
        <time>2021-04-17T14:01:55Z</time>
      </trkpt>
      <trkpt lat="4.9619070" lon="-75.5049010">
        <ele>2169.8</ele>
        <time>2021-04-17T14:01:57Z</time>
      </trkpt>
      <trkpt lat="4.9618370" lon="-75.5049130">
        <ele>2169.6</ele>
        <time>2021-04-17T14:01:58Z</time>
      </trkpt>
      <trkpt lat="4.9617690" lon="-75.5049220">
        <ele>2169.4</ele>
        <time>2021-04-17T14:01:59Z</time>
      </trkpt>
      <trkpt lat="4.9616340" lon="-75.5049390">
        <ele>2169.4</ele>
        <time>2021-04-17T14:02:01Z</time>
      </trkpt>
      <trkpt lat="4.9613720" lon="-75.5049990">
        <ele>2169.0</ele>
        <time>2021-04-17T14:02:05Z</time>
      </trkpt>
      <trkpt lat="4.9613160" lon="-75.5050180">
        <ele>2169.0</ele>
        <time>2021-04-17T14:02:06Z</time>
      </trkpt>
      <trkpt lat="4.9612370" lon="-75.5050440">
        <ele>2168.8</ele>
        <time>2021-04-17T14:02:08Z</time>
      </trkpt>
      <trkpt lat="4.9611980" lon="-75.5050550">
        <ele>2168.8</ele>
        <time>2021-04-17T14:02:10Z</time>
      </trkpt>
      <trkpt lat="4.9611680" lon="-75.5050580">
        <ele>2168.8</ele>
        <time>2021-04-17T14:02:12Z</time>
      </trkpt>
      <trkpt lat="4.9611560" lon="-75.5050470">
        <ele>2168.2</ele>
        <time>2021-04-17T14:02:14Z</time>
      </trkpt>
      <trkpt lat="4.9611630" lon="-75.5050380">
        <ele>2168.0</ele>
        <time>2021-04-17T14:02:15Z</time>
      </trkpt>
      <trkpt lat="4.9611800" lon="-75.5050300">
        <ele>2167.6</ele>
        <time>2021-04-17T14:02:16Z</time>
      </trkpt>
      <trkpt lat="4.9612020" lon="-75.5050250">
        <ele>2167.2</ele>
        <time>2021-04-17T14:02:17Z</time>
      </trkpt>
      <trkpt lat="4.9613230" lon="-75.5049960">
        <ele>2167.2</ele>
        <time>2021-04-17T14:02:21Z</time>
      </trkpt>
      <trkpt lat="4.9615130" lon="-75.5049260">
        <ele>2167.2</ele>
        <time>2021-04-17T14:02:26Z</time>
      </trkpt>
      <trkpt lat="4.9615510" lon="-75.5049170">
        <ele>2167.2</ele>
        <time>2021-04-17T14:02:27Z</time>
      </trkpt>
      <trkpt lat="4.9617190" lon="-75.5048980">
        <ele>2167.4</ele>
        <time>2021-04-17T14:02:31Z</time>
      </trkpt>
      <trkpt lat="4.9618600" lon="-75.5048910">
        <ele>2168.0</ele>
        <time>2021-04-17T14:02:34Z</time>
      </trkpt>
      <trkpt lat="4.9619590" lon="-75.5048600">
        <ele>2168.0</ele>
        <time>2021-04-17T14:02:36Z</time>
      </trkpt>
      <trkpt lat="4.9621100" lon="-75.5047130">
        <ele>2168.0</ele>
        <time>2021-04-17T14:02:40Z</time>
      </trkpt>
      <trkpt lat="4.9621380" lon="-75.5046700">
        <ele>2168.0</ele>
        <time>2021-04-17T14:02:41Z</time>
      </trkpt>
      <trkpt lat="4.9622460" lon="-75.5044990">
        <ele>2168.2</ele>
        <time>2021-04-17T14:02:45Z</time>
      </trkpt>
      <trkpt lat="4.9622800" lon="-75.5044660">
        <ele>2168.2</ele>
        <time>2021-04-17T14:02:46Z</time>
      </trkpt>
      <trkpt lat="4.9624170" lon="-75.5043860">
        <ele>2168.2</ele>
        <time>2021-04-17T14:02:50Z</time>
      </trkpt>
      <trkpt lat="4.9623840" lon="-75.5043480">
        <ele>2168.2</ele>
        <time>2021-04-17T14:02:52Z</time>
      </trkpt>
      <trkpt lat="4.9622280" lon="-75.5043770">
        <ele>2168.0</ele>
        <time>2021-04-17T14:02:56Z</time>
      </trkpt>
      <trkpt lat="4.9621040" lon="-75.5045140">
        <ele>2167.8</ele>
        <time>2021-04-17T14:02:59Z</time>
      </trkpt>
      <trkpt lat="4.9620560" lon="-75.5045610">
        <ele>2167.8</ele>
        <time>2021-04-17T14:03:00Z</time>
      </trkpt>
      <trkpt lat="4.9619200" lon="-75.5046120">
        <ele>2167.4</ele>
        <time>2021-04-17T14:03:02Z</time>
      </trkpt>
      <trkpt lat="4.9616870" lon="-75.5045370">
        <ele>2166.6</ele>
        <time>2021-04-17T14:03:05Z</time>
      </trkpt>
      <trkpt lat="4.9616170" lon="-75.5044940">
        <ele>2166.0</ele>
        <time>2021-04-17T14:03:06Z</time>
      </trkpt>
      <trkpt lat="4.9614720" lon="-75.5044050">
        <ele>2164.0</ele>
        <time>2021-04-17T14:03:08Z</time>
      </trkpt>
      <trkpt lat="4.9613990" lon="-75.5043740">
        <ele>2162.8</ele>
        <time>2021-04-17T14:03:09Z</time>
      </trkpt>
      <trkpt lat="4.9613320" lon="-75.5043600">
        <ele>2161.6</ele>
        <time>2021-04-17T14:03:10Z</time>
      </trkpt>
      <trkpt lat="4.9612010" lon="-75.5043790">
        <ele>2159.8</ele>
        <time>2021-04-17T14:03:12Z</time>
      </trkpt>
      <trkpt lat="4.9611330" lon="-75.5044000">
        <ele>2159.2</ele>
        <time>2021-04-17T14:03:13Z</time>
      </trkpt>
      <trkpt lat="4.9610590" lon="-75.5044250">
        <ele>2158.8</ele>
        <time>2021-04-17T14:03:14Z</time>
      </trkpt>
      <trkpt lat="4.9609000" lon="-75.5044850">
        <ele>2157.2</ele>
        <time>2021-04-17T14:03:16Z</time>
      </trkpt>
      <trkpt lat="4.9608120" lon="-75.5044920">
        <ele>2156.2</ele>
        <time>2021-04-17T14:03:17Z</time>
      </trkpt>
      <trkpt lat="4.9607290" lon="-75.5044740">
        <ele>2155.4</ele>
        <time>2021-04-17T14:03:18Z</time>
      </trkpt>
      <trkpt lat="4.9606530" lon="-75.5044460">
        <ele>2154.6</ele>
        <time>2021-04-17T14:03:19Z</time>
      </trkpt>
      <trkpt lat="4.9605190" lon="-75.5043880">
        <ele>2153.0</ele>
        <time>2021-04-17T14:03:21Z</time>
      </trkpt>
      <trkpt lat="4.9604480" lon="-75.5043750">
        <ele>2152.0</ele>
        <time>2021-04-17T14:03:22Z</time>
      </trkpt>
      <trkpt lat="4.9603740" lon="-75.5043760">
        <ele>2151.0</ele>
        <time>2021-04-17T14:03:23Z</time>
      </trkpt>
      <trkpt lat="4.9602160" lon="-75.5044050">
        <ele>2148.4</ele>
        <time>2021-04-17T14:03:25Z</time>
      </trkpt>
      <trkpt lat="4.9601310" lon="-75.5044230">
        <ele>2147.2</ele>
        <time>2021-04-17T14:03:26Z</time>
      </trkpt>
      <trkpt lat="4.9600420" lon="-75.5044490">
        <ele>2146.2</ele>
        <time>2021-04-17T14:03:27Z</time>
      </trkpt>
      <trkpt lat="4.9598750" lon="-75.5044970">
        <ele>2144.8</ele>
        <time>2021-04-17T14:03:29Z</time>
      </trkpt>
      <trkpt lat="4.9597280" lon="-75.5045170">
        <ele>2142.6</ele>
        <time>2021-04-17T14:03:31Z</time>
      </trkpt>
      <trkpt lat="4.9596550" lon="-75.5045120">
        <ele>2141.6</ele>
        <time>2021-04-17T14:03:32Z</time>
      </trkpt>
      <trkpt lat="4.9595930" lon="-75.5044910">
        <ele>2140.4</ele>
        <time>2021-04-17T14:03:33Z</time>
      </trkpt>
      <trkpt lat="4.9595530" lon="-75.5044560">
        <ele>2139.0</ele>
        <time>2021-04-17T14:03:34Z</time>
      </trkpt>
      <trkpt lat="4.9595340" lon="-75.5044050">
        <ele>2137.6</ele>
        <time>2021-04-17T14:03:35Z</time>
      </trkpt>
      <trkpt lat="4.9595410" lon="-75.5043440">
        <ele>2136.6</ele>
        <time>2021-04-17T14:03:36Z</time>
      </trkpt>
      <trkpt lat="4.9595680" lon="-75.5042820">
        <ele>2135.4</ele>
        <time>2021-04-17T14:03:37Z</time>
      </trkpt>
      <trkpt lat="4.9596060" lon="-75.5042160">
        <ele>2133.8</ele>
        <time>2021-04-17T14:03:38Z</time>
      </trkpt>
      <trkpt lat="4.9596570" lon="-75.5041570">
        <ele>2132.2</ele>
        <time>2021-04-17T14:03:39Z</time>
      </trkpt>
      <trkpt lat="4.9597150" lon="-75.5041050">
        <ele>2130.4</ele>
        <time>2021-04-17T14:03:40Z</time>
      </trkpt>
      <trkpt lat="4.9597800" lon="-75.5040600">
        <ele>2129.0</ele>
        <time>2021-04-17T14:03:41Z</time>
      </trkpt>
      <trkpt lat="4.9598490" lon="-75.5040180">
        <ele>2128.0</ele>
        <time>2021-04-17T14:03:42Z</time>
      </trkpt>
      <trkpt lat="4.9600120" lon="-75.5039440">
        <ele>2126.8</ele>
        <time>2021-04-17T14:03:44Z</time>
      </trkpt>
      <trkpt lat="4.9600950" lon="-75.5039090">
        <ele>2126.0</ele>
        <time>2021-04-17T14:03:45Z</time>
      </trkpt>
      <trkpt lat="4.9601650" lon="-75.5038670">
        <ele>2124.8</ele>
        <time>2021-04-17T14:03:46Z</time>
      </trkpt>
      <trkpt lat="4.9602320" lon="-75.5037510">
        <ele>2123.4</ele>
        <time>2021-04-17T14:03:48Z</time>
      </trkpt>
      <trkpt lat="4.9601550" lon="-75.5036180">
        <ele>2121.8</ele>
        <time>2021-04-17T14:03:50Z</time>
      </trkpt>
      <trkpt lat="4.9600960" lon="-75.5035650">
        <ele>2120.6</ele>
        <time>2021-04-17T14:03:51Z</time>
      </trkpt>
      <trkpt lat="4.9599370" lon="-75.5035090">
        <ele>2118.8</ele>
        <time>2021-04-17T14:03:53Z</time>
      </trkpt>
      <trkpt lat="4.9597750" lon="-75.5035430">
        <ele>2117.4</ele>
        <time>2021-04-17T14:03:55Z</time>
      </trkpt>
      <trkpt lat="4.9597040" lon="-75.5035870">
        <ele>2116.6</ele>
        <time>2021-04-17T14:03:56Z</time>
      </trkpt>
      <trkpt lat="4.9596440" lon="-75.5036470">
        <ele>2116.0</ele>
        <time>2021-04-17T14:03:57Z</time>
      </trkpt>
      <trkpt lat="4.9595890" lon="-75.5037070">
        <ele>2115.0</ele>
        <time>2021-04-17T14:03:58Z</time>
      </trkpt>
      <trkpt lat="4.9595360" lon="-75.5037640">
        <ele>2114.0</ele>
        <time>2021-04-17T14:03:59Z</time>
      </trkpt>
      <trkpt lat="4.9594410" lon="-75.5038740">
        <ele>2113.0</ele>
        <time>2021-04-17T14:04:01Z</time>
      </trkpt>
      <trkpt lat="4.9593980" lon="-75.5039290">
        <ele>2112.8</ele>
        <time>2021-04-17T14:04:02Z</time>
      </trkpt>
      <trkpt lat="4.9593110" lon="-75.5040430">
        <ele>2112.0</ele>
        <time>2021-04-17T14:04:04Z</time>
      </trkpt>
      <trkpt lat="4.9592620" lon="-75.5040980">
        <ele>2112.0</ele>
        <time>2021-04-17T14:04:05Z</time>
      </trkpt>
      <trkpt lat="4.9591310" lon="-75.5041750">
        <ele>2111.6</ele>
        <time>2021-04-17T14:04:07Z</time>
      </trkpt>
      <trkpt lat="4.9588460" lon="-75.5042670">
        <ele>2110.4</ele>
        <time>2021-04-17T14:04:11Z</time>
      </trkpt>
      <trkpt lat="4.9587660" lon="-75.5042830">
        <ele>2110.4</ele>
        <time>2021-04-17T14:04:12Z</time>
      </trkpt>
      <trkpt lat="4.9586850" lon="-75.5042930">
        <ele>2110.2</ele>
        <time>2021-04-17T14:04:13Z</time>
      </trkpt>
      <trkpt lat="4.9583550" lon="-75.5043490">
        <ele>2109.8</ele>
        <time>2021-04-17T14:04:17Z</time>
      </trkpt>
      <trkpt lat="4.9582730" lon="-75.5043820">
        <ele>2109.8</ele>
        <time>2021-04-17T14:04:18Z</time>
      </trkpt>
      <trkpt lat="4.9581900" lon="-75.5044290">
        <ele>2109.6</ele>
        <time>2021-04-17T14:04:19Z</time>
      </trkpt>
      <trkpt lat="4.9580390" lon="-75.5045510">
        <ele>2108.8</ele>
        <time>2021-04-17T14:04:21Z</time>
      </trkpt>
      <trkpt lat="4.9579710" lon="-75.5046120">
        <ele>2108.2</ele>
        <time>2021-04-17T14:04:22Z</time>
      </trkpt>
      <trkpt lat="4.9578650" lon="-75.5047070">
        <ele>2107.0</ele>
        <time>2021-04-17T14:04:24Z</time>
      </trkpt>
      <trkpt lat="4.9577760" lon="-75.5047290">
        <ele>2105.4</ele>
        <time>2021-04-17T14:04:26Z</time>
      </trkpt>
      <trkpt lat="4.9577360" lon="-75.5047280">
        <ele>2104.0</ele>
        <time>2021-04-17T14:04:27Z</time>
      </trkpt>
      <trkpt lat="4.9576900" lon="-75.5047250">
        <ele>2103.0</ele>
        <time>2021-04-17T14:04:28Z</time>
      </trkpt>
      <trkpt lat="4.9576420" lon="-75.5047260">
        <ele>2101.6</ele>
        <time>2021-04-17T14:04:29Z</time>
      </trkpt>
      <trkpt lat="4.9575850" lon="-75.5047270">
        <ele>2100.2</ele>
        <time>2021-04-17T14:04:30Z</time>
      </trkpt>
      <trkpt lat="4.9575250" lon="-75.5047390">
        <ele>2099.4</ele>
        <time>2021-04-17T14:04:31Z</time>
      </trkpt>
      <trkpt lat="4.9574630" lon="-75.5047580">
        <ele>2098.2</ele>
        <time>2021-04-17T14:04:32Z</time>
      </trkpt>
      <trkpt lat="4.9573980" lon="-75.5047880">
        <ele>2097.0</ele>
        <time>2021-04-17T14:04:33Z</time>
      </trkpt>
      <trkpt lat="4.9573340" lon="-75.5048180">
        <ele>2095.8</ele>
        <time>2021-04-17T14:04:34Z</time>
      </trkpt>
      <trkpt lat="4.9572740" lon="-75.5048460">
        <ele>2095.4</ele>
        <time>2021-04-17T14:04:35Z</time>
      </trkpt>
      <trkpt lat="4.9572180" lon="-75.5048570">
        <ele>2094.8</ele>
        <time>2021-04-17T14:04:36Z</time>
      </trkpt>
      <trkpt lat="4.9571730" lon="-75.5048580">
        <ele>2094.4</ele>
        <time>2021-04-17T14:04:37Z</time>
      </trkpt>
      <trkpt lat="4.9571460" lon="-75.5048450">
        <ele>2094.2</ele>
        <time>2021-04-17T14:04:38Z</time>
      </trkpt>
      <trkpt lat="4.9571140" lon="-75.5048050">
        <ele>2093.0</ele>
        <time>2021-04-17T14:04:40Z</time>
      </trkpt>
      <trkpt lat="4.9570650" lon="-75.5047620">
        <ele>2091.6</ele>
        <time>2021-04-17T14:04:42Z</time>
      </trkpt>
      <trkpt lat="4.9570180" lon="-75.5047270">
        <ele>2091.0</ele>
        <time>2021-04-17T14:04:43Z</time>
      </trkpt>
      <trkpt lat="4.9569500" lon="-75.5046840">
        <ele>2090.6</ele>
        <time>2021-04-17T14:04:44Z</time>
      </trkpt>
      <trkpt lat="4.9568740" lon="-75.5046470">
        <ele>2090.0</ele>
        <time>2021-04-17T14:04:45Z</time>
      </trkpt>
      <trkpt lat="4.9567950" lon="-75.5046060">
        <ele>2089.2</ele>
        <time>2021-04-17T14:04:46Z</time>
      </trkpt>
      <trkpt lat="4.9567130" lon="-75.5045750">
        <ele>2088.8</ele>
        <time>2021-04-17T14:04:47Z</time>
      </trkpt>
      <trkpt lat="4.9565390" lon="-75.5045700">
        <ele>2087.4</ele>
        <time>2021-04-17T14:04:49Z</time>
      </trkpt>
      <trkpt lat="4.9563730" lon="-75.5045820">
        <ele>2085.6</ele>
        <time>2021-04-17T14:04:51Z</time>
      </trkpt>
      <trkpt lat="4.9562310" lon="-75.5045280">
        <ele>2084.2</ele>
        <time>2021-04-17T14:04:53Z</time>
      </trkpt>
      <trkpt lat="4.9561440" lon="-75.5043980">
        <ele>2083.0</ele>
        <time>2021-04-17T14:04:55Z</time>
      </trkpt>
      <trkpt lat="4.9561070" lon="-75.5043310">
        <ele>2082.6</ele>
        <time>2021-04-17T14:04:56Z</time>
      </trkpt>
      <trkpt lat="4.9560640" lon="-75.5042700">
        <ele>2081.6</ele>
        <time>2021-04-17T14:04:57Z</time>
      </trkpt>
      <trkpt lat="4.9560130" lon="-75.5042260">
        <ele>2080.2</ele>
        <time>2021-04-17T14:04:58Z</time>
      </trkpt>
      <trkpt lat="4.9559510" lon="-75.5041910">
        <ele>2079.6</ele>
        <time>2021-04-17T14:04:59Z</time>
      </trkpt>
      <trkpt lat="4.9558840" lon="-75.5041580">
        <ele>2078.8</ele>
        <time>2021-04-17T14:05:00Z</time>
      </trkpt>
      <trkpt lat="4.9557300" lon="-75.5041000">
        <ele>2077.4</ele>
        <time>2021-04-17T14:05:02Z</time>
      </trkpt>
      <trkpt lat="4.9556510" lon="-75.5040540">
        <ele>2076.8</ele>
        <time>2021-04-17T14:05:03Z</time>
      </trkpt>
      <trkpt lat="4.9555790" lon="-75.5039910">
        <ele>2075.8</ele>
        <time>2021-04-17T14:05:04Z</time>
      </trkpt>
      <trkpt lat="4.9554650" lon="-75.5038490">
        <ele>2074.2</ele>
        <time>2021-04-17T14:05:06Z</time>
      </trkpt>
      <trkpt lat="4.9554050" lon="-75.5037890">
        <ele>2073.8</ele>
        <time>2021-04-17T14:05:07Z</time>
      </trkpt>
      <trkpt lat="4.9553300" lon="-75.5037390">
        <ele>2071.6</ele>
        <time>2021-04-17T14:05:08Z</time>
      </trkpt>
      <trkpt lat="4.9552420" lon="-75.5037050">
        <ele>2071.0</ele>
        <time>2021-04-17T14:05:09Z</time>
      </trkpt>
      <trkpt lat="4.9551550" lon="-75.5036710">
        <ele>2070.0</ele>
        <time>2021-04-17T14:05:10Z</time>
      </trkpt>
      <trkpt lat="4.9550740" lon="-75.5036310">
        <ele>2069.0</ele>
        <time>2021-04-17T14:05:11Z</time>
      </trkpt>
      <trkpt lat="4.9550000" lon="-75.5035830">
        <ele>2068.6</ele>
        <time>2021-04-17T14:05:12Z</time>
      </trkpt>
      <trkpt lat="4.9549340" lon="-75.5035290">
        <ele>2067.6</ele>
        <time>2021-04-17T14:05:13Z</time>
      </trkpt>
      <trkpt lat="4.9548780" lon="-75.5034660">
        <ele>2066.6</ele>
        <time>2021-04-17T14:05:14Z</time>
      </trkpt>
      <trkpt lat="4.9548200" lon="-75.5034080">
        <ele>2065.6</ele>
        <time>2021-04-17T14:05:15Z</time>
      </trkpt>
      <trkpt lat="4.9547550" lon="-75.5033680">
        <ele>2064.8</ele>
        <time>2021-04-17T14:05:16Z</time>
      </trkpt>
      <trkpt lat="4.9546770" lon="-75.5033480">
        <ele>2064.0</ele>
        <time>2021-04-17T14:05:17Z</time>
      </trkpt>
      <trkpt lat="4.9545930" lon="-75.5033500">
        <ele>2062.6</ele>
        <time>2021-04-17T14:05:18Z</time>
      </trkpt>
      <trkpt lat="4.9545010" lon="-75.5033830">
        <ele>2061.6</ele>
        <time>2021-04-17T14:05:19Z</time>
      </trkpt>
      <trkpt lat="4.9543280" lon="-75.5034820">
        <ele>2060.2</ele>
        <time>2021-04-17T14:05:21Z</time>
      </trkpt>
      <trkpt lat="4.9542510" lon="-75.5035380">
        <ele>2059.4</ele>
        <time>2021-04-17T14:05:22Z</time>
      </trkpt>
      <trkpt lat="4.9541780" lon="-75.5036000">
        <ele>2058.6</ele>
        <time>2021-04-17T14:05:23Z</time>
      </trkpt>
      <trkpt lat="4.9540290" lon="-75.5037110">
        <ele>2057.2</ele>
        <time>2021-04-17T14:05:25Z</time>
      </trkpt>
      <trkpt lat="4.9539500" lon="-75.5037480">
        <ele>2056.4</ele>
        <time>2021-04-17T14:05:26Z</time>
      </trkpt>
      <trkpt lat="4.9538710" lon="-75.5037660">
        <ele>2055.8</ele>
        <time>2021-04-17T14:05:27Z</time>
      </trkpt>
      <trkpt lat="4.9537250" lon="-75.5037320">
        <ele>2054.6</ele>
        <time>2021-04-17T14:05:29Z</time>
      </trkpt>
      <trkpt lat="4.9536500" lon="-75.5037030">
        <ele>2053.6</ele>
        <time>2021-04-17T14:05:30Z</time>
      </trkpt>
      <trkpt lat="4.9535660" lon="-75.5036860">
        <ele>2052.4</ele>
        <time>2021-04-17T14:05:31Z</time>
      </trkpt>
      <trkpt lat="4.9534720" lon="-75.5036790">
        <ele>2050.8</ele>
        <time>2021-04-17T14:05:32Z</time>
      </trkpt>
      <trkpt lat="4.9533840" lon="-75.5036800">
        <ele>2049.6</ele>
        <time>2021-04-17T14:05:33Z</time>
      </trkpt>
      <trkpt lat="4.9531970" lon="-75.5036870">
        <ele>2047.8</ele>
        <time>2021-04-17T14:05:35Z</time>
      </trkpt>
      <trkpt lat="4.9530290" lon="-75.5037480">
        <ele>2046.4</ele>
        <time>2021-04-17T14:05:37Z</time>
      </trkpt>
      <trkpt lat="4.9529440" lon="-75.5038750">
        <ele>2045.2</ele>
        <time>2021-04-17T14:05:39Z</time>
      </trkpt>
      <trkpt lat="4.9529490" lon="-75.5040210">
        <ele>2043.6</ele>
        <time>2021-04-17T14:05:41Z</time>
      </trkpt>
      <trkpt lat="4.9529910" lon="-75.5040730">
        <ele>2041.8</ele>
        <time>2021-04-17T14:05:42Z</time>
      </trkpt>
      <trkpt lat="4.9530600" lon="-75.5041070">
        <ele>2041.6</ele>
        <time>2021-04-17T14:05:43Z</time>
      </trkpt>
      <trkpt lat="4.9531340" lon="-75.5041430">
        <ele>2041.2</ele>
        <time>2021-04-17T14:05:44Z</time>
      </trkpt>
      <trkpt lat="4.9532070" lon="-75.5041900">
        <ele>2041.0</ele>
        <time>2021-04-17T14:05:45Z</time>
      </trkpt>
      <trkpt lat="4.9532760" lon="-75.5042430">
        <ele>2040.8</ele>
        <time>2021-04-17T14:05:46Z</time>
      </trkpt>
      <trkpt lat="4.9534040" lon="-75.5043730">
        <ele>2040.6</ele>
        <time>2021-04-17T14:05:48Z</time>
      </trkpt>
      <trkpt lat="4.9535280" lon="-75.5046520">
        <ele>2039.4</ele>
        <time>2021-04-17T14:05:51Z</time>
      </trkpt>
      <trkpt lat="4.9535580" lon="-75.5047640">
        <ele>2039.0</ele>
        <time>2021-04-17T14:05:52Z</time>
      </trkpt>
      <trkpt lat="4.9536160" lon="-75.5049870">
        <ele>2038.2</ele>
        <time>2021-04-17T14:05:54Z</time>
      </trkpt>
      <trkpt lat="4.9536650" lon="-75.5052250">
        <ele>2036.6</ele>
        <time>2021-04-17T14:05:56Z</time>
      </trkpt>
      <trkpt lat="4.9537280" lon="-75.5054670">
        <ele>2034.4</ele>
        <time>2021-04-17T14:05:58Z</time>
      </trkpt>
      <trkpt lat="4.9537820" lon="-75.5057010">
        <ele>2032.8</ele>
        <time>2021-04-17T14:06:00Z</time>
      </trkpt>
      <trkpt lat="4.9538050" lon="-75.5058050">
        <ele>2031.8</ele>
        <time>2021-04-17T14:06:01Z</time>
      </trkpt>
      <trkpt lat="4.9538640" lon="-75.5060180">
        <ele>2030.4</ele>
        <time>2021-04-17T14:06:03Z</time>
      </trkpt>
      <trkpt lat="4.9539210" lon="-75.5061040">
        <ele>2029.2</ele>
        <time>2021-04-17T14:06:04Z</time>
      </trkpt>
      <trkpt lat="4.9539860" lon="-75.5061810">
        <ele>2028.0</ele>
        <time>2021-04-17T14:06:05Z</time>
      </trkpt>
      <trkpt lat="4.9540490" lon="-75.5062600">
        <ele>2026.6</ele>
        <time>2021-04-17T14:06:06Z</time>
      </trkpt>
      <trkpt lat="4.9541120" lon="-75.5063390">
        <ele>2025.8</ele>
        <time>2021-04-17T14:06:07Z</time>
      </trkpt>
      <trkpt lat="4.9541790" lon="-75.5064190">
        <ele>2025.0</ele>
        <time>2021-04-17T14:06:08Z</time>
      </trkpt>
      <trkpt lat="4.9543240" lon="-75.5065720">
        <ele>2023.8</ele>
        <time>2021-04-17T14:06:10Z</time>
      </trkpt>
      <trkpt lat="4.9544100" lon="-75.5066390">
        <ele>2023.4</ele>
        <time>2021-04-17T14:06:11Z</time>
      </trkpt>
      <trkpt lat="4.9545010" lon="-75.5067050">
        <ele>2022.8</ele>
        <time>2021-04-17T14:06:12Z</time>
      </trkpt>
      <trkpt lat="4.9545900" lon="-75.5067700">
        <ele>2022.2</ele>
        <time>2021-04-17T14:06:13Z</time>
      </trkpt>
      <trkpt lat="4.9546610" lon="-75.5068410">
        <ele>2021.6</ele>
        <time>2021-04-17T14:06:14Z</time>
      </trkpt>
      <trkpt lat="4.9547220" lon="-75.5069100">
        <ele>2021.2</ele>
        <time>2021-04-17T14:06:15Z</time>
      </trkpt>
      <trkpt lat="4.9547740" lon="-75.5069690">
        <ele>2020.4</ele>
        <time>2021-04-17T14:06:16Z</time>
      </trkpt>
      <trkpt lat="4.9548190" lon="-75.5070290">
        <ele>2019.2</ele>
        <time>2021-04-17T14:06:17Z</time>
      </trkpt>
      <trkpt lat="4.9548740" lon="-75.5070780">
        <ele>2018.4</ele>
        <time>2021-04-17T14:06:18Z</time>
      </trkpt>
      <trkpt lat="4.9549330" lon="-75.5071260">
        <ele>2017.4</ele>
        <time>2021-04-17T14:06:19Z</time>
      </trkpt>
      <trkpt lat="4.9550810" lon="-75.5072000">
        <ele>2015.4</ele>
        <time>2021-04-17T14:06:21Z</time>
      </trkpt>
      <trkpt lat="4.9551640" lon="-75.5072380">
        <ele>2014.6</ele>
        <time>2021-04-17T14:06:22Z</time>
      </trkpt>
      <trkpt lat="4.9552490" lon="-75.5072820">
        <ele>2014.0</ele>
        <time>2021-04-17T14:06:23Z</time>
      </trkpt>
      <trkpt lat="4.9554250" lon="-75.5073760">
        <ele>2012.6</ele>
        <time>2021-04-17T14:06:25Z</time>
      </trkpt>
      <trkpt lat="4.9554970" lon="-75.5074310">
        <ele>2012.0</ele>
        <time>2021-04-17T14:06:26Z</time>
      </trkpt>
      <trkpt lat="4.9555530" lon="-75.5074940">
        <ele>2011.4</ele>
        <time>2021-04-17T14:06:27Z</time>
      </trkpt>
      <trkpt lat="4.9555740" lon="-75.5076280">
        <ele>2010.6</ele>
        <time>2021-04-17T14:06:29Z</time>
      </trkpt>
      <trkpt lat="4.9555530" lon="-75.5076940">
        <ele>2009.8</ele>
        <time>2021-04-17T14:06:30Z</time>
      </trkpt>
      <trkpt lat="4.9554720" lon="-75.5077750">
        <ele>2008.2</ele>
        <time>2021-04-17T14:06:32Z</time>
      </trkpt>
      <trkpt lat="4.9553800" lon="-75.5077390">
        <ele>2006.4</ele>
        <time>2021-04-17T14:06:34Z</time>
      </trkpt>
      <trkpt lat="4.9553530" lon="-75.5076240">
        <ele>2004.8</ele>
        <time>2021-04-17T14:06:35Z</time>
      </trkpt>
      <trkpt lat="4.9553400" lon="-75.5075950">
        <ele>2003.8</ele>
        <time>2021-04-17T14:06:36Z</time>
      </trkpt>
      <trkpt lat="4.9553260" lon="-75.5075670">
        <ele>2002.6</ele>
        <time>2021-04-17T14:06:37Z</time>
      </trkpt>
      <trkpt lat="4.9552830" lon="-75.5075300">
        <ele>2001.2</ele>
        <time>2021-04-17T14:06:38Z</time>
      </trkpt>
      <trkpt lat="4.9552270" lon="-75.5075120">
        <ele>2000.2</ele>
        <time>2021-04-17T14:06:39Z</time>
      </trkpt>
      <trkpt lat="4.9551620" lon="-75.5075080">
        <ele>1999.0</ele>
        <time>2021-04-17T14:06:40Z</time>
      </trkpt>
      <trkpt lat="4.9550920" lon="-75.5075070">
        <ele>1998.0</ele>
        <time>2021-04-17T14:06:41Z</time>
      </trkpt>
      <trkpt lat="4.9549460" lon="-75.5074950">
        <ele>1996.4</ele>
        <time>2021-04-17T14:06:43Z</time>
      </trkpt>
      <trkpt lat="4.9548060" lon="-75.5074470">
        <ele>1994.8</ele>
        <time>2021-04-17T14:06:45Z</time>
      </trkpt>
      <trkpt lat="4.9547410" lon="-75.5074140">
        <ele>1994.2</ele>
        <time>2021-04-17T14:06:46Z</time>
      </trkpt>
      <trkpt lat="4.9546020" lon="-75.5073510">
        <ele>1993.8</ele>
        <time>2021-04-17T14:06:47Z</time>
      </trkpt>
      <trkpt lat="4.9545320" lon="-75.5073070">
        <ele>1993.2</ele>
        <time>2021-04-17T14:06:49Z</time>
      </trkpt>
      <trkpt lat="4.9544130" lon="-75.5071910">
        <ele>1993.0</ele>
        <time>2021-04-17T14:06:51Z</time>
      </trkpt>
      <trkpt lat="4.9543480" lon="-75.5071420">
        <ele>1992.8</ele>
        <time>2021-04-17T14:06:52Z</time>
      </trkpt>
      <trkpt lat="4.9542700" lon="-75.5071110">
        <ele>1992.6</ele>
        <time>2021-04-17T14:06:53Z</time>
      </trkpt>
      <trkpt lat="4.9541850" lon="-75.5070930">
        <ele>1992.0</ele>
        <time>2021-04-17T14:06:54Z</time>
      </trkpt>
      <trkpt lat="4.9540060" lon="-75.5070780">
        <ele>1991.4</ele>
        <time>2021-04-17T14:06:56Z</time>
      </trkpt>
      <trkpt lat="4.9539130" lon="-75.5070570">
        <ele>1991.2</ele>
        <time>2021-04-17T14:06:57Z</time>
      </trkpt>
      <trkpt lat="4.9538230" lon="-75.5070240">
        <ele>1990.8</ele>
        <time>2021-04-17T14:06:58Z</time>
      </trkpt>
      <trkpt lat="4.9536470" lon="-75.5069300">
        <ele>1990.2</ele>
        <time>2021-04-17T14:07:00Z</time>
      </trkpt>
      <trkpt lat="4.9534690" lon="-75.5068340">
        <ele>1989.0</ele>
        <time>2021-04-17T14:07:02Z</time>
      </trkpt>
      <trkpt lat="4.9532960" lon="-75.5067350">
        <ele>1987.6</ele>
        <time>2021-04-17T14:07:04Z</time>
      </trkpt>
      <trkpt lat="4.9531500" lon="-75.5066260">
        <ele>1986.4</ele>
        <time>2021-04-17T14:07:06Z</time>
      </trkpt>
      <trkpt lat="4.9530850" lon="-75.5065570">
        <ele>1985.8</ele>
        <time>2021-04-17T14:07:07Z</time>
      </trkpt>
      <trkpt lat="4.9530220" lon="-75.5064850">
        <ele>1985.0</ele>
        <time>2021-04-17T14:07:08Z</time>
      </trkpt>
      <trkpt lat="4.9529040" lon="-75.5063190">
        <ele>1983.4</ele>
        <time>2021-04-17T14:07:10Z</time>
      </trkpt>
      <trkpt lat="4.9528470" lon="-75.5062330">
        <ele>1982.8</ele>
        <time>2021-04-17T14:07:11Z</time>
      </trkpt>
      <trkpt lat="4.9527940" lon="-75.5061480">
        <ele>1982.4</ele>
        <time>2021-04-17T14:07:12Z</time>
      </trkpt>
      <trkpt lat="4.9527070" lon="-75.5059810">
        <ele>1980.2</ele>
        <time>2021-04-17T14:07:14Z</time>
      </trkpt>
      <trkpt lat="4.9526690" lon="-75.5058940">
        <ele>1979.4</ele>
        <time>2021-04-17T14:07:15Z</time>
      </trkpt>
      <trkpt lat="4.9526240" lon="-75.5058000">
        <ele>1978.8</ele>
        <time>2021-04-17T14:07:16Z</time>
      </trkpt>
      <trkpt lat="4.9525360" lon="-75.5056040">
        <ele>1977.2</ele>
        <time>2021-04-17T14:07:18Z</time>
      </trkpt>
      <trkpt lat="4.9524450" lon="-75.5054010">
        <ele>1976.2</ele>
        <time>2021-04-17T14:07:20Z</time>
      </trkpt>
      <trkpt lat="4.9523960" lon="-75.5053010">
        <ele>1975.2</ele>
        <time>2021-04-17T14:07:21Z</time>
      </trkpt>
      <trkpt lat="4.9523350" lon="-75.5052100">
        <ele>1974.2</ele>
        <time>2021-04-17T14:07:22Z</time>
      </trkpt>
      <trkpt lat="4.9522690" lon="-75.5051290">
        <ele>1973.2</ele>
        <time>2021-04-17T14:07:23Z</time>
      </trkpt>
      <trkpt lat="4.9521930" lon="-75.5050560">
        <ele>1972.4</ele>
        <time>2021-04-17T14:07:24Z</time>
      </trkpt>
      <trkpt lat="4.9521150" lon="-75.5049850">
        <ele>1971.6</ele>
        <time>2021-04-17T14:07:25Z</time>
      </trkpt>
      <trkpt lat="4.9520410" lon="-75.5049090">
        <ele>1970.2</ele>
        <time>2021-04-17T14:07:26Z</time>
      </trkpt>
      <trkpt lat="4.9518890" lon="-75.5047590">
        <ele>1968.6</ele>
        <time>2021-04-17T14:07:28Z</time>
      </trkpt>
      <trkpt lat="4.9518100" lon="-75.5046880">
        <ele>1968.0</ele>
        <time>2021-04-17T14:07:29Z</time>
      </trkpt>
      <trkpt lat="4.9517340" lon="-75.5046160">
        <ele>1967.0</ele>
        <time>2021-04-17T14:07:30Z</time>
      </trkpt>
      <trkpt lat="4.9515880" lon="-75.5044810">
        <ele>1966.0</ele>
        <time>2021-04-17T14:07:32Z</time>
      </trkpt>
      <trkpt lat="4.9515170" lon="-75.5044230">
        <ele>1965.2</ele>
        <time>2021-04-17T14:07:33Z</time>
      </trkpt>
      <trkpt lat="4.9514460" lon="-75.5043740">
        <ele>1964.2</ele>
        <time>2021-04-17T14:07:34Z</time>
      </trkpt>
      <trkpt lat="4.9513120" lon="-75.5042750">
        <ele>1963.0</ele>
        <time>2021-04-17T14:07:36Z</time>
      </trkpt>
      <trkpt lat="4.9512610" lon="-75.5042170">
        <ele>1962.2</ele>
        <time>2021-04-17T14:07:37Z</time>
      </trkpt>
      <trkpt lat="4.9512260" lon="-75.5041510">
        <ele>1961.6</ele>
        <time>2021-04-17T14:07:38Z</time>
      </trkpt>
      <trkpt lat="4.9512330" lon="-75.5040060">
        <ele>1960.2</ele>
        <time>2021-04-17T14:07:40Z</time>
      </trkpt>
      <trkpt lat="4.9512540" lon="-75.5039280">
        <ele>1959.4</ele>
        <time>2021-04-17T14:07:41Z</time>
      </trkpt>
      <trkpt lat="4.9512720" lon="-75.5038480">
        <ele>1958.6</ele>
        <time>2021-04-17T14:07:42Z</time>
      </trkpt>
      <trkpt lat="4.9513270" lon="-75.5036870">
        <ele>1957.2</ele>
        <time>2021-04-17T14:07:44Z</time>
      </trkpt>
      <trkpt lat="4.9513650" lon="-75.5036070">
        <ele>1956.8</ele>
        <time>2021-04-17T14:07:45Z</time>
      </trkpt>
      <trkpt lat="4.9514000" lon="-75.5035230">
        <ele>1956.2</ele>
        <time>2021-04-17T14:07:46Z</time>
      </trkpt>
      <trkpt lat="4.9514310" lon="-75.5033400">
        <ele>1955.4</ele>
        <time>2021-04-17T14:07:48Z</time>
      </trkpt>
      <trkpt lat="4.9514470" lon="-75.5032540">
        <ele>1954.8</ele>
        <time>2021-04-17T14:07:49Z</time>
      </trkpt>
      <trkpt lat="4.9515530" lon="-75.5031270">
        <ele>1953.4</ele>
        <time>2021-04-17T14:07:51Z</time>
      </trkpt>
      <trkpt lat="4.9517820" lon="-75.5030410">
        <ele>1952.2</ele>
        <time>2021-04-17T14:07:54Z</time>
      </trkpt>
      <trkpt lat="4.9519260" lon="-75.5029740">
        <ele>1951.2</ele>
        <time>2021-04-17T14:07:56Z</time>
      </trkpt>
      <trkpt lat="4.9519900" lon="-75.5029250">
        <ele>1950.6</ele>
        <time>2021-04-17T14:07:57Z</time>
      </trkpt>
      <trkpt lat="4.9521060" lon="-75.5028000">
        <ele>1949.6</ele>
        <time>2021-04-17T14:07:59Z</time>
      </trkpt>
      <trkpt lat="4.9521620" lon="-75.5027270">
        <ele>1947.8</ele>
        <time>2021-04-17T14:08:00Z</time>
      </trkpt>
      <trkpt lat="4.9522120" lon="-75.5026470">
        <ele>1946.8</ele>
        <time>2021-04-17T14:08:01Z</time>
      </trkpt>
      <trkpt lat="4.9522630" lon="-75.5025620">
        <ele>1946.2</ele>
        <time>2021-04-17T14:08:02Z</time>
      </trkpt>
      <trkpt lat="4.9523120" lon="-75.5024760">
        <ele>1945.2</ele>
        <time>2021-04-17T14:08:03Z</time>
      </trkpt>
      <trkpt lat="4.9523590" lon="-75.5023890">
        <ele>1944.2</ele>
        <time>2021-04-17T14:08:04Z</time>
      </trkpt>
      <trkpt lat="4.9524560" lon="-75.5022230">
        <ele>1942.6</ele>
        <time>2021-04-17T14:08:06Z</time>
      </trkpt>
      <trkpt lat="4.9525170" lon="-75.5021570">
        <ele>1942.2</ele>
        <time>2021-04-17T14:08:07Z</time>
      </trkpt>
      <trkpt lat="4.9526760" lon="-75.5020790">
        <ele>1941.4</ele>
        <time>2021-04-17T14:08:09Z</time>
      </trkpt>
      <trkpt lat="4.9530130" lon="-75.5019250">
        <ele>1940.2</ele>
        <time>2021-04-17T14:08:13Z</time>
      </trkpt>
      <trkpt lat="4.9530950" lon="-75.5018790">
        <ele>1939.8</ele>
        <time>2021-04-17T14:08:14Z</time>
      </trkpt>
      <trkpt lat="4.9531820" lon="-75.5018390">
        <ele>1939.2</ele>
        <time>2021-04-17T14:08:15Z</time>
      </trkpt>
      <trkpt lat="4.9533650" lon="-75.5017770">
        <ele>1937.6</ele>
        <time>2021-04-17T14:08:17Z</time>
      </trkpt>
      <trkpt lat="4.9535560" lon="-75.5017130">
        <ele>1936.6</ele>
        <time>2021-04-17T14:08:19Z</time>
      </trkpt>
      <trkpt lat="4.9536490" lon="-75.5016700">
        <ele>1936.4</ele>
        <time>2021-04-17T14:08:20Z</time>
      </trkpt>
      <trkpt lat="4.9537350" lon="-75.5016190">
        <ele>1936.2</ele>
        <time>2021-04-17T14:08:21Z</time>
      </trkpt>
      <trkpt lat="4.9538750" lon="-75.5014790">
        <ele>1935.4</ele>
        <time>2021-04-17T14:08:23Z</time>
      </trkpt>
      <trkpt lat="4.9540140" lon="-75.5013770">
        <ele>1933.8</ele>
        <time>2021-04-17T14:08:25Z</time>
      </trkpt>
      <trkpt lat="4.9540850" lon="-75.5013410">
        <ele>1933.2</ele>
        <time>2021-04-17T14:08:26Z</time>
      </trkpt>
      <trkpt lat="4.9541570" lon="-75.5013220">
        <ele>1932.6</ele>
        <time>2021-04-17T14:08:27Z</time>
      </trkpt>
      <trkpt lat="4.9542320" lon="-75.5013260">
        <ele>1931.8</ele>
        <time>2021-04-17T14:08:28Z</time>
      </trkpt>
      <trkpt lat="4.9543080" lon="-75.5013560">
        <ele>1930.6</ele>
        <time>2021-04-17T14:08:29Z</time>
      </trkpt>
      <trkpt lat="4.9544450" lon="-75.5014320">
        <ele>1929.2</ele>
        <time>2021-04-17T14:08:31Z</time>
      </trkpt>
      <trkpt lat="4.9546420" lon="-75.5015610">
        <ele>1927.2</ele>
        <time>2021-04-17T14:08:34Z</time>
      </trkpt>
      <trkpt lat="4.9547960" lon="-75.5016020">
        <ele>1926.8</ele>
        <time>2021-04-17T14:08:35Z</time>
      </trkpt>
      <trkpt lat="4.9549690" lon="-75.5016140">
        <ele>1925.2</ele>
        <time>2021-04-17T14:08:38Z</time>
      </trkpt>
      <trkpt lat="4.9552030" lon="-75.5016030">
        <ele>1924.2</ele>
        <time>2021-04-17T14:08:40Z</time>
      </trkpt>
      <trkpt lat="4.9552670" lon="-75.5015900">
        <ele>1924.0</ele>
        <time>2021-04-17T14:08:41Z</time>
      </trkpt>
      <trkpt lat="4.9553190" lon="-75.5015700">
        <ele>1923.2</ele>
        <time>2021-04-17T14:08:43Z</time>
      </trkpt>
      <trkpt lat="4.9553490" lon="-75.5015280">
        <ele>1922.8</ele>
        <time>2021-04-17T14:08:44Z</time>
      </trkpt>
      <trkpt lat="4.9553470" lon="-75.5014040">
        <ele>1922.4</ele>
        <time>2021-04-17T14:08:45Z</time>
      </trkpt>
      <trkpt lat="4.9553300" lon="-75.5013640">
        <ele>1922.2</ele>
        <time>2021-04-17T14:08:46Z</time>
      </trkpt>
      <trkpt lat="4.9553120" lon="-75.5013250">
        <ele>1921.4</ele>
        <time>2021-04-17T14:08:47Z</time>
      </trkpt>
      <trkpt lat="4.9552590" lon="-75.5012060">
        <ele>1920.4</ele>
        <time>2021-04-17T14:08:48Z</time>
      </trkpt>
      <trkpt lat="4.9552410" lon="-75.5011660">
        <ele>1919.6</ele>
        <time>2021-04-17T14:08:49Z</time>
      </trkpt>
      <trkpt lat="4.9552200" lon="-75.5010900">
        <ele>1919.0</ele>
        <time>2021-04-17T14:08:50Z</time>
      </trkpt>
      <trkpt lat="4.9552170" lon="-75.5010140">
        <ele>1918.2</ele>
        <time>2021-04-17T14:08:51Z</time>
      </trkpt>
      <trkpt lat="4.9552360" lon="-75.5009410">
        <ele>1917.6</ele>
        <time>2021-04-17T14:08:52Z</time>
      </trkpt>
      <trkpt lat="4.9553260" lon="-75.5007950">
        <ele>1915.8</ele>
        <time>2021-04-17T14:08:54Z</time>
      </trkpt>
      <trkpt lat="4.9554420" lon="-75.5006630">
        <ele>1913.8</ele>
        <time>2021-04-17T14:08:56Z</time>
      </trkpt>
      <trkpt lat="4.9554980" lon="-75.5006060">
        <ele>1913.0</ele>
        <time>2021-04-17T14:08:57Z</time>
      </trkpt>
      <trkpt lat="4.9555500" lon="-75.5005480">
        <ele>1912.4</ele>
        <time>2021-04-17T14:08:58Z</time>
      </trkpt>
      <trkpt lat="4.9556430" lon="-75.5004340">
        <ele>1910.8</ele>
        <time>2021-04-17T14:09:00Z</time>
      </trkpt>
      <trkpt lat="4.9557140" lon="-75.5003140">
        <ele>1909.0</ele>
        <time>2021-04-17T14:09:02Z</time>
      </trkpt>
      <trkpt lat="4.9557760" lon="-75.5001760">
        <ele>1908.2</ele>
        <time>2021-04-17T14:09:04Z</time>
      </trkpt>
      <trkpt lat="4.9557910" lon="-75.5001050">
        <ele>1908.2</ele>
        <time>2021-04-17T14:09:05Z</time>
      </trkpt>
      <trkpt lat="4.9557870" lon="-75.5000360">
        <ele>1908.0</ele>
        <time>2021-04-17T14:09:06Z</time>
      </trkpt>
      <trkpt lat="4.9556720" lon="-75.4998870">
        <ele>1907.4</ele>
        <time>2021-04-17T14:09:09Z</time>
      </trkpt>
      <trkpt lat="4.9555700" lon="-75.4998130">
        <ele>1907.0</ele>
        <time>2021-04-17T14:09:11Z</time>
      </trkpt>
      <trkpt lat="4.9554790" lon="-75.4997490">
        <ele>1906.6</ele>
        <time>2021-04-17T14:09:13Z</time>
      </trkpt>
      <trkpt lat="4.9553330" lon="-75.4996950">
        <ele>1906.4</ele>
        <time>2021-04-17T14:09:17Z</time>
      </trkpt>
      <trkpt lat="4.9552080" lon="-75.4997260">
        <ele>1906.4</ele>
        <time>2021-04-17T14:09:21Z</time>
      </trkpt>
      <trkpt lat="4.9550260" lon="-75.4997420">
        <ele>1907.2</ele>
        <time>2021-04-17T14:09:27Z</time>
      </trkpt>
      <trkpt lat="4.9549410" lon="-75.4997230">
        <ele>1908.4</ele>
        <time>2021-04-17T14:09:30Z</time>
      </trkpt>
      <trkpt lat="4.9548820" lon="-75.4997290">
        <ele>1909.2</ele>
        <time>2021-04-17T14:09:32Z</time>
      </trkpt>
      <trkpt lat="4.9548200" lon="-75.4997360">
        <ele>1909.8</ele>
        <time>2021-04-17T14:09:34Z</time>
      </trkpt>
      <trkpt lat="4.9547140" lon="-75.4997310">
        <ele>1911.0</ele>
        <time>2021-04-17T14:09:37Z</time>
      </trkpt>
      <trkpt lat="4.9545000" lon="-75.4997230">
        <ele>1912.0</ele>
        <time>2021-04-17T14:09:43Z</time>
      </trkpt>
      <trkpt lat="4.9544610" lon="-75.4997270">
        <ele>1912.2</ele>
        <time>2021-04-17T14:09:44Z</time>
      </trkpt>
      <trkpt lat="4.9543020" lon="-75.4997500">
        <ele>1912.6</ele>
        <time>2021-04-17T14:09:48Z</time>
      </trkpt>
      <trkpt lat="4.9542100" lon="-75.4997630">
        <ele>1912.8</ele>
        <time>2021-04-17T14:09:50Z</time>
      </trkpt>
      <trkpt lat="4.9541130" lon="-75.4997940">
        <ele>1912.8</ele>
        <time>2021-04-17T14:09:52Z</time>
      </trkpt>
      <trkpt lat="4.9540640" lon="-75.4998090">
        <ele>1912.8</ele>
        <time>2021-04-17T14:09:53Z</time>
      </trkpt>
      <trkpt lat="4.9539110" lon="-75.4998610">
        <ele>1912.8</ele>
        <time>2021-04-17T14:09:56Z</time>
      </trkpt>
      <trkpt lat="4.9538620" lon="-75.4998820">
        <ele>1912.8</ele>
        <time>2021-04-17T14:09:57Z</time>
      </trkpt>
      <trkpt lat="4.9538170" lon="-75.4998930">
        <ele>1913.0</ele>
        <time>2021-04-17T14:09:58Z</time>
      </trkpt>
      <trkpt lat="4.9536230" lon="-75.4999150">
        <ele>1913.0</ele>
        <time>2021-04-17T14:10:02Z</time>
      </trkpt>
      <trkpt lat="4.9535730" lon="-75.4999150">
        <ele>1913.2</ele>
        <time>2021-04-17T14:10:03Z</time>
      </trkpt>
      <trkpt lat="4.9534740" lon="-75.4999020">
        <ele>1913.2</ele>
        <time>2021-04-17T14:10:05Z</time>
      </trkpt>
      <trkpt lat="4.9533230" lon="-75.4998590">
        <ele>1913.0</ele>
        <time>2021-04-17T14:10:08Z</time>
      </trkpt>
      <trkpt lat="4.9531450" lon="-75.4998280">
        <ele>1912.8</ele>
        <time>2021-04-17T14:10:11Z</time>
      </trkpt>
      <trkpt lat="4.9530130" lon="-75.4998100">
        <ele>1912.8</ele>
        <time>2021-04-17T14:10:13Z</time>
      </trkpt>
      <trkpt lat="4.9527950" lon="-75.4997520">
        <ele>1912.4</ele>
        <time>2021-04-17T14:10:16Z</time>
      </trkpt>
      <trkpt lat="4.9527250" lon="-75.4997180">
        <ele>1912.2</ele>
        <time>2021-04-17T14:10:17Z</time>
      </trkpt>
      <trkpt lat="4.9524740" lon="-75.4994790">
        <ele>1911.2</ele>
        <time>2021-04-17T14:10:21Z</time>
      </trkpt>
      <trkpt lat="4.9522570" lon="-75.4993130">
        <ele>1909.8</ele>
        <time>2021-04-17T14:10:24Z</time>
      </trkpt>
      <trkpt lat="4.9519860" lon="-75.4992310">
        <ele>1908.4</ele>
        <time>2021-04-17T14:10:27Z</time>
      </trkpt>
      <trkpt lat="4.9518940" lon="-75.4991980">
        <ele>1907.6</ele>
        <time>2021-04-17T14:10:28Z</time>
      </trkpt>
      <trkpt lat="4.9518010" lon="-75.4991500">
        <ele>1906.8</ele>
        <time>2021-04-17T14:10:29Z</time>
      </trkpt>
      <trkpt lat="4.9516040" lon="-75.4990600">
        <ele>1905.4</ele>
        <time>2021-04-17T14:10:31Z</time>
      </trkpt>
      <trkpt lat="4.9514950" lon="-75.4990200">
        <ele>1904.8</ele>
        <time>2021-04-17T14:10:32Z</time>
      </trkpt>
      <trkpt lat="4.9513900" lon="-75.4989820">
        <ele>1904.4</ele>
        <time>2021-04-17T14:10:33Z</time>
      </trkpt>
      <trkpt lat="4.9511840" lon="-75.4989200">
        <ele>1902.8</ele>
        <time>2021-04-17T14:10:35Z</time>
      </trkpt>
      <trkpt lat="4.9509840" lon="-75.4988510">
        <ele>1901.8</ele>
        <time>2021-04-17T14:10:37Z</time>
      </trkpt>
      <trkpt lat="4.9508860" lon="-75.4988100">
        <ele>1900.8</ele>
        <time>2021-04-17T14:10:38Z</time>
      </trkpt>
      <trkpt lat="4.9507920" lon="-75.4987670">
        <ele>1900.0</ele>
        <time>2021-04-17T14:10:39Z</time>
      </trkpt>
      <trkpt lat="4.9506140" lon="-75.4986600">
        <ele>1898.6</ele>
        <time>2021-04-17T14:10:41Z</time>
      </trkpt>
      <trkpt lat="4.9505250" lon="-75.4986050">
        <ele>1898.2</ele>
        <time>2021-04-17T14:10:42Z</time>
      </trkpt>
      <trkpt lat="4.9504380" lon="-75.4985540">
        <ele>1897.4</ele>
        <time>2021-04-17T14:10:43Z</time>
      </trkpt>
      <trkpt lat="4.9501860" lon="-75.4983640">
        <ele>1896.2</ele>
        <time>2021-04-17T14:10:46Z</time>
      </trkpt>
      <trkpt lat="4.9501130" lon="-75.4982930">
        <ele>1895.0</ele>
        <time>2021-04-17T14:10:47Z</time>
      </trkpt>
      <trkpt lat="4.9500520" lon="-75.4982150">
        <ele>1894.4</ele>
        <time>2021-04-17T14:10:48Z</time>
      </trkpt>
      <trkpt lat="4.9500050" lon="-75.4981260">
        <ele>1893.8</ele>
        <time>2021-04-17T14:10:49Z</time>
      </trkpt>
      <trkpt lat="4.9499660" lon="-75.4980370">
        <ele>1892.6</ele>
        <time>2021-04-17T14:10:50Z</time>
      </trkpt>
      <trkpt lat="4.9499360" lon="-75.4979420">
        <ele>1891.0</ele>
        <time>2021-04-17T14:10:51Z</time>
      </trkpt>
      <trkpt lat="4.9499010" lon="-75.4978560">
        <ele>1890.4</ele>
        <time>2021-04-17T14:10:52Z</time>
      </trkpt>
      <trkpt lat="4.9498020" lon="-75.4976910">
        <ele>1889.8</ele>
        <time>2021-04-17T14:10:54Z</time>
      </trkpt>
      <trkpt lat="4.9496000" lon="-75.4973910">
        <ele>1888.8</ele>
        <time>2021-04-17T14:10:57Z</time>
      </trkpt>
      <trkpt lat="4.9496320" lon="-75.4972100">
        <ele>1887.8</ele>
        <time>2021-04-17T14:10:59Z</time>
      </trkpt>
      <trkpt lat="4.9496800" lon="-75.4970490">
        <ele>1887.4</ele>
        <time>2021-04-17T14:11:00Z</time>
      </trkpt>
      <trkpt lat="4.9497280" lon="-75.4968880">
        <ele>1886.6</ele>
        <time>2021-04-17T14:11:03Z</time>
      </trkpt>
      <trkpt lat="4.9497160" lon="-75.4968490">
        <ele>1886.0</ele>
        <time>2021-04-17T14:11:04Z</time>
      </trkpt>
      <trkpt lat="4.9497040" lon="-75.4968100">
        <ele>1885.2</ele>
        <time>2021-04-17T14:11:05Z</time>
      </trkpt>
      <trkpt lat="4.9497040" lon="-75.4968100">
        <ele>1884.6</ele>
        <time>2021-04-17T14:11:06Z</time>
      </trkpt>
      <trkpt lat="4.9496810" lon="-75.4968050">
        <ele>1884.4</ele>
        <time>2021-04-17T14:11:07Z</time>
      </trkpt>
      <trkpt lat="4.9496480" lon="-75.4968170">
        <ele>1883.6</ele>
        <time>2021-04-17T14:11:08Z</time>
      </trkpt>
      <trkpt lat="4.9495410" lon="-75.4968810">
        <ele>1883.0</ele>
        <time>2021-04-17T14:11:09Z</time>
      </trkpt>
      <trkpt lat="4.9494200" lon="-75.4968800">
        <ele>1881.6</ele>
        <time>2021-04-17T14:11:11Z</time>
      </trkpt>
      <trkpt lat="4.9493500" lon="-75.4968560">
        <ele>1880.4</ele>
        <time>2021-04-17T14:11:13Z</time>
      </trkpt>
      <trkpt lat="4.9491960" lon="-75.4967830">
        <ele>1879.8</ele>
        <time>2021-04-17T14:11:15Z</time>
      </trkpt>
      <trkpt lat="4.9491180" lon="-75.4967300">
        <ele>1879.2</ele>
        <time>2021-04-17T14:11:16Z</time>
      </trkpt>
      <trkpt lat="4.9489560" lon="-75.4965950">
        <ele>1878.4</ele>
        <time>2021-04-17T14:11:18Z</time>
      </trkpt>
      <trkpt lat="4.9488690" lon="-75.4965270">
        <ele>1878.0</ele>
        <time>2021-04-17T14:11:19Z</time>
      </trkpt>
      <trkpt lat="4.9487050" lon="-75.4964310">
        <ele>1877.2</ele>
        <time>2021-04-17T14:11:21Z</time>
      </trkpt>
      <trkpt lat="4.9486220" lon="-75.4963970">
        <ele>1876.4</ele>
        <time>2021-04-17T14:11:22Z</time>
      </trkpt>
      <trkpt lat="4.9484730" lon="-75.4962950">
        <ele>1875.4</ele>
        <time>2021-04-17T14:11:24Z</time>
      </trkpt>
      <trkpt lat="4.9484010" lon="-75.4962280">
        <ele>1873.8</ele>
        <time>2021-04-17T14:11:25Z</time>
      </trkpt>
      <trkpt lat="4.9482490" lon="-75.4960940">
        <ele>1871.8</ele>
        <time>2021-04-17T14:11:27Z</time>
      </trkpt>
      <trkpt lat="4.9480980" lon="-75.4959770">
        <ele>1869.6</ele>
        <time>2021-04-17T14:11:29Z</time>
      </trkpt>
      <trkpt lat="4.9479480" lon="-75.4958620">
        <ele>1868.0</ele>
        <time>2021-04-17T14:11:31Z</time>
      </trkpt>
      <trkpt lat="4.9478730" lon="-75.4958090">
        <ele>1867.4</ele>
        <time>2021-04-17T14:11:32Z</time>
      </trkpt>
      <trkpt lat="4.9477930" lon="-75.4957650">
        <ele>1866.4</ele>
        <time>2021-04-17T14:11:33Z</time>
      </trkpt>
      <trkpt lat="4.9477120" lon="-75.4957240">
        <ele>1865.6</ele>
        <time>2021-04-17T14:11:34Z</time>
      </trkpt>
      <trkpt lat="4.9476320" lon="-75.4956890">
        <ele>1864.8</ele>
        <time>2021-04-17T14:11:35Z</time>
      </trkpt>
      <trkpt lat="4.9475540" lon="-75.4956670">
        <ele>1864.4</ele>
        <time>2021-04-17T14:11:36Z</time>
      </trkpt>
      <trkpt lat="4.9473980" lon="-75.4956400">
        <ele>1863.4</ele>
        <time>2021-04-17T14:11:38Z</time>
      </trkpt>
      <trkpt lat="4.9472330" lon="-75.4956430">
        <ele>1862.8</ele>
        <time>2021-04-17T14:11:40Z</time>
      </trkpt>
      <trkpt lat="4.9471480" lon="-75.4956400">
        <ele>1862.4</ele>
        <time>2021-04-17T14:11:41Z</time>
      </trkpt>
      <trkpt lat="4.9470650" lon="-75.4956340">
        <ele>1862.0</ele>
        <time>2021-04-17T14:11:42Z</time>
      </trkpt>
      <trkpt lat="4.9469870" lon="-75.4956330">
        <ele>1861.6</ele>
        <time>2021-04-17T14:11:43Z</time>
      </trkpt>
      <trkpt lat="4.9469140" lon="-75.4956440">
        <ele>1861.2</ele>
        <time>2021-04-17T14:11:44Z</time>
      </trkpt>
      <trkpt lat="4.9468620" lon="-75.4956820">
        <ele>1860.8</ele>
        <time>2021-04-17T14:11:45Z</time>
      </trkpt>
      <trkpt lat="4.9468150" lon="-75.4958070">
        <ele>1860.0</ele>
        <time>2021-04-17T14:11:47Z</time>
      </trkpt>
      <trkpt lat="4.9468780" lon="-75.4959250">
        <ele>1859.0</ele>
        <time>2021-04-17T14:11:49Z</time>
      </trkpt>
      <trkpt lat="4.9469340" lon="-75.4959540">
        <ele>1858.6</ele>
        <time>2021-04-17T14:11:50Z</time>
      </trkpt>
      <trkpt lat="4.9470020" lon="-75.4959900">
        <ele>1858.2</ele>
        <time>2021-04-17T14:11:51Z</time>
      </trkpt>
      <trkpt lat="4.9470810" lon="-75.4960300">
        <ele>1857.4</ele>
        <time>2021-04-17T14:11:52Z</time>
      </trkpt>
      <trkpt lat="4.9472480" lon="-75.4961160">
        <ele>1856.4</ele>
        <time>2021-04-17T14:11:54Z</time>
      </trkpt>
      <trkpt lat="4.9473310" lon="-75.4961670">
        <ele>1856.4</ele>
        <time>2021-04-17T14:11:55Z</time>
      </trkpt>
      <trkpt lat="4.9474920" lon="-75.4962680">
        <ele>1854.6</ele>
        <time>2021-04-17T14:11:57Z</time>
      </trkpt>
      <trkpt lat="4.9475700" lon="-75.4963180">
        <ele>1853.2</ele>
        <time>2021-04-17T14:11:58Z</time>
      </trkpt>
      <trkpt lat="4.9476450" lon="-75.4963690">
        <ele>1851.8</ele>
        <time>2021-04-17T14:11:59Z</time>
      </trkpt>
      <trkpt lat="4.9477070" lon="-75.4964310">
        <ele>1849.4</ele>
        <time>2021-04-17T14:12:00Z</time>
      </trkpt>
      <trkpt lat="4.9477350" lon="-75.4964940">
        <ele>1848.4</ele>
        <time>2021-04-17T14:12:01Z</time>
      </trkpt>
      <trkpt lat="4.9477390" lon="-75.4966210">
        <ele>1847.2</ele>
        <time>2021-04-17T14:12:03Z</time>
      </trkpt>
      <trkpt lat="4.9477120" lon="-75.4967540">
        <ele>1846.6</ele>
        <time>2021-04-17T14:12:05Z</time>
      </trkpt>
      <trkpt lat="4.9476980" lon="-75.4968970">
        <ele>1846.2</ele>
        <time>2021-04-17T14:12:07Z</time>
      </trkpt>
      <trkpt lat="4.9477170" lon="-75.4970290">
        <ele>1846.2</ele>
        <time>2021-04-17T14:12:09Z</time>
      </trkpt>
      <trkpt lat="4.9478140" lon="-75.4972170">
        <ele>1846.2</ele>
        <time>2021-04-17T14:12:13Z</time>
      </trkpt>
      <trkpt lat="4.9478620" lon="-75.4972560">
        <ele>1846.2</ele>
        <time>2021-04-17T14:12:15Z</time>
      </trkpt>
      <trkpt lat="4.9478990" lon="-75.4972920">
        <ele>1846.2</ele>
        <time>2021-04-17T14:12:17Z</time>
      </trkpt>
      <trkpt lat="4.9479710" lon="-75.4974410">
        <ele>1847.2</ele>
        <time>2021-04-17T14:12:23Z</time>
      </trkpt>
      <trkpt lat="4.9479870" lon="-75.4974910">
        <ele>1847.6</ele>
        <time>2021-04-17T14:12:25Z</time>
      </trkpt>
      <trkpt lat="4.9479830" lon="-75.4975630">
        <ele>1848.0</ele>
        <time>2021-04-17T14:12:28Z</time>
      </trkpt>
      <trkpt lat="4.9479290" lon="-75.4976580">
        <ele>1848.8</ele>
        <time>2021-04-17T14:12:32Z</time>
      </trkpt>
      <trkpt lat="4.9479150" lon="-75.4976820">
        <ele>1849.0</ele>
        <time>2021-04-17T14:12:33Z</time>
      </trkpt>
      <trkpt lat="4.9478700" lon="-75.4977510">
        <ele>1850.0</ele>
        <time>2021-04-17T14:12:36Z</time>
      </trkpt>
      <trkpt lat="4.9478260" lon="-75.4978360">
        <ele>1850.6</ele>
        <time>2021-04-17T14:12:40Z</time>
      </trkpt>
      <trkpt lat="4.9478150" lon="-75.4978890">
        <ele>1851.4</ele>
        <time>2021-04-17T14:12:43Z</time>
      </trkpt>
      <trkpt lat="4.9478160" lon="-75.4979050">
        <ele>1851.6</ele>
        <time>2021-04-17T14:12:44Z</time>
      </trkpt>
      <trkpt lat="4.9478250" lon="-75.4979660">
        <ele>1852.4</ele>
        <time>2021-04-17T14:12:48Z</time>
      </trkpt>
      <trkpt lat="4.9478280" lon="-75.4979950">
        <ele>1852.8</ele>
        <time>2021-04-17T14:12:50Z</time>
      </trkpt>
      <trkpt lat="4.9478380" lon="-75.4980490">
        <ele>1853.6</ele>
        <time>2021-04-17T14:12:53Z</time>
      </trkpt>
      <trkpt lat="4.9478440" lon="-75.4980780">
        <ele>1854.0</ele>
        <time>2021-04-17T14:12:55Z</time>
      </trkpt>
      <trkpt lat="4.9478690" lon="-75.4981700">
        <ele>1854.8</ele>
        <time>2021-04-17T14:13:01Z</time>
      </trkpt>
      <trkpt lat="4.9478800" lon="-75.4981940">
        <ele>1855.0</ele>
        <time>2021-04-17T14:13:03Z</time>
      </trkpt>
      <trkpt lat="4.9478850" lon="-75.4982540">
        <ele>1856.2</ele>
        <time>2021-04-17T14:13:07Z</time>
      </trkpt>
      <trkpt lat="4.9478850" lon="-75.4982720">
        <ele>1856.4</ele>
        <time>2021-04-17T14:13:08Z</time>
      </trkpt>
      <trkpt lat="4.9478970" lon="-75.4983550">
        <ele>1857.4</ele>
        <time>2021-04-17T14:13:13Z</time>
      </trkpt>
      <trkpt lat="4.9479210" lon="-75.4984600">
        <ele>1858.4</ele>
        <time>2021-04-17T14:13:19Z</time>
      </trkpt>
      <trkpt lat="4.9479940" lon="-75.4985450">
        <ele>1859.8</ele>
        <time>2021-04-17T14:13:25Z</time>
      </trkpt>
      <trkpt lat="4.9480760" lon="-75.4986300">
        <ele>1860.8</ele>
        <time>2021-04-17T14:13:31Z</time>
      </trkpt>
      <trkpt lat="4.9480930" lon="-75.4986440">
        <ele>1861.0</ele>
        <time>2021-04-17T14:13:32Z</time>
      </trkpt>
      <trkpt lat="4.9481810" lon="-75.4987270">
        <ele>1861.8</ele>
        <time>2021-04-17T14:13:38Z</time>
      </trkpt>
      <trkpt lat="4.9481970" lon="-75.4987420">
        <ele>1862.0</ele>
        <time>2021-04-17T14:13:39Z</time>
      </trkpt>
      <trkpt lat="4.9482640" lon="-75.4988000">
        <ele>1862.8</ele>
        <time>2021-04-17T14:13:43Z</time>
      </trkpt>
      <trkpt lat="4.9482910" lon="-75.4988330">
        <ele>1863.0</ele>
        <time>2021-04-17T14:13:45Z</time>
      </trkpt>
      <trkpt lat="4.9483730" lon="-75.4989040">
        <ele>1864.0</ele>
        <time>2021-04-17T14:13:51Z</time>
      </trkpt>
      <trkpt lat="4.9483860" lon="-75.4989180">
        <ele>1864.2</ele>
        <time>2021-04-17T14:13:52Z</time>
      </trkpt>
      <trkpt lat="4.9484460" lon="-75.4989690">
        <ele>1865.0</ele>
        <time>2021-04-17T14:13:56Z</time>
      </trkpt>
      <trkpt lat="4.9485060" lon="-75.4990090">
        <ele>1866.6</ele>
        <time>2021-04-17T14:14:00Z</time>
      </trkpt>
      <trkpt lat="4.9485650" lon="-75.4990580">
        <ele>1867.8</ele>
        <time>2021-04-17T14:14:04Z</time>
      </trkpt>
      <trkpt lat="4.9485830" lon="-75.4990710">
        <ele>1868.0</ele>
        <time>2021-04-17T14:14:05Z</time>
      </trkpt>
      <trkpt lat="4.9486200" lon="-75.4990950">
        <ele>1868.8</ele>
        <time>2021-04-17T14:14:07Z</time>
      </trkpt>
      <trkpt lat="4.9486810" lon="-75.4991300">
        <ele>1869.8</ele>
        <time>2021-04-17T14:14:11Z</time>
      </trkpt>
      <trkpt lat="4.9487270" lon="-75.4991590">
        <ele>1871.0</ele>
        <time>2021-04-17T14:14:14Z</time>
      </trkpt>
      <trkpt lat="4.9487520" lon="-75.4991660">
        <ele>1872.0</ele>
        <time>2021-04-17T14:14:16Z</time>
      </trkpt>
      <trkpt lat="4.9487760" lon="-75.4991680">
        <ele>1872.6</ele>
        <time>2021-04-17T14:14:18Z</time>
      </trkpt>
      <trkpt lat="4.9488160" lon="-75.4991670">
        <ele>1873.2</ele>
        <time>2021-04-17T14:14:21Z</time>
      </trkpt>
      <trkpt lat="4.9488620" lon="-75.4991720">
        <ele>1873.6</ele>
        <time>2021-04-17T14:14:23Z</time>
      </trkpt>
      <trkpt lat="4.9489380" lon="-75.4991850">
        <ele>1874.4</ele>
        <time>2021-04-17T14:14:27Z</time>
      </trkpt>
      <trkpt lat="4.9489990" lon="-75.4991860">
        <ele>1874.8</ele>
        <time>2021-04-17T14:14:31Z</time>
      </trkpt>
      <trkpt lat="4.9490570" lon="-75.4992040">
        <ele>1875.6</ele>
        <time>2021-04-17T14:14:34Z</time>
      </trkpt>
      <trkpt lat="4.9491410" lon="-75.4992390">
        <ele>1876.4</ele>
        <time>2021-04-17T14:14:39Z</time>
      </trkpt>
      <trkpt lat="4.9491560" lon="-75.4992470">
        <ele>1876.6</ele>
        <time>2021-04-17T14:14:40Z</time>
      </trkpt>
      <trkpt lat="4.9491730" lon="-75.4992580">
        <ele>1876.6</ele>
        <time>2021-04-17T14:14:41Z</time>
      </trkpt>
      <trkpt lat="4.9492320" lon="-75.4993140">
        <ele>1877.6</ele>
        <time>2021-04-17T14:14:45Z</time>
      </trkpt>
      <trkpt lat="4.9492450" lon="-75.4993290">
        <ele>1878.0</ele>
        <time>2021-04-17T14:14:46Z</time>
      </trkpt>
      <trkpt lat="4.9492880" lon="-75.4994120">
        <ele>1878.8</ele>
        <time>2021-04-17T14:14:51Z</time>
      </trkpt>
      <trkpt lat="4.9493010" lon="-75.4994490">
        <ele>1879.4</ele>
        <time>2021-04-17T14:14:53Z</time>
      </trkpt>
      <trkpt lat="4.9493270" lon="-75.4995030">
        <ele>1880.0</ele>
        <time>2021-04-17T14:14:56Z</time>
      </trkpt>
      <trkpt lat="4.9493820" lon="-75.4995940">
        <ele>1881.0</ele>
        <time>2021-04-17T14:15:01Z</time>
      </trkpt>
      <trkpt lat="4.9493930" lon="-75.4996130">
        <ele>1881.2</ele>
        <time>2021-04-17T14:15:02Z</time>
      </trkpt>
      <trkpt lat="4.9494600" lon="-75.4997280">
        <ele>1882.0</ele>
        <time>2021-04-17T14:15:08Z</time>
      </trkpt>
      <trkpt lat="4.9494640" lon="-75.4997440">
        <ele>1882.2</ele>
        <time>2021-04-17T14:15:09Z</time>
      </trkpt>
      <trkpt lat="4.9494980" lon="-75.4998100">
        <ele>1883.4</ele>
        <time>2021-04-17T14:15:14Z</time>
      </trkpt>
      <trkpt lat="4.9495090" lon="-75.4998310">
        <ele>1883.6</ele>
        <time>2021-04-17T14:15:16Z</time>
      </trkpt>
      <trkpt lat="4.9495270" lon="-75.4998840">
        <ele>1884.6</ele>
        <time>2021-04-17T14:15:20Z</time>
      </trkpt>
      <trkpt lat="4.9495380" lon="-75.4999300">
        <ele>1885.0</ele>
        <time>2021-04-17T14:15:23Z</time>
      </trkpt>
      <trkpt lat="4.9495520" lon="-75.4999430">
        <ele>1885.8</ele>
        <time>2021-04-17T14:15:25Z</time>
      </trkpt>
      <trkpt lat="4.9495840" lon="-75.5000520">
        <ele>1887.0</ele>
        <time>2021-04-17T14:15:30Z</time>
      </trkpt>
      <trkpt lat="4.9495930" lon="-75.5000740">
        <ele>1887.2</ele>
        <time>2021-04-17T14:15:31Z</time>
      </trkpt>
      <trkpt lat="4.9496460" lon="-75.5001760">
        <ele>1888.0</ele>
        <time>2021-04-17T14:15:37Z</time>
      </trkpt>
      <trkpt lat="4.9496720" lon="-75.5002310">
        <ele>1888.2</ele>
        <time>2021-04-17T14:15:39Z</time>
      </trkpt>
      <trkpt lat="4.9497010" lon="-75.5003490">
        <ele>1889.2</ele>
        <time>2021-04-17T14:15:45Z</time>
      </trkpt>
      <trkpt lat="4.9497020" lon="-75.5003690">
        <ele>1889.2</ele>
        <time>2021-04-17T14:15:46Z</time>
      </trkpt>
      <trkpt lat="4.9497080" lon="-75.5004880">
        <ele>1890.4</ele>
        <time>2021-04-17T14:15:52Z</time>
      </trkpt>
      <trkpt lat="4.9496720" lon="-75.5005770">
        <ele>1891.8</ele>
        <time>2021-04-17T14:15:57Z</time>
      </trkpt>
      <trkpt lat="4.9496620" lon="-75.5005890">
        <ele>1892.0</ele>
        <time>2021-04-17T14:15:58Z</time>
      </trkpt>
      <trkpt lat="4.9496050" lon="-75.5006280">
        <ele>1892.8</ele>
        <time>2021-04-17T14:16:02Z</time>
      </trkpt>
      <trkpt lat="4.9495470" lon="-75.5006840">
        <ele>1894.0</ele>
        <time>2021-04-17T14:16:06Z</time>
      </trkpt>
      <trkpt lat="4.9494980" lon="-75.5007450">
        <ele>1895.0</ele>
        <time>2021-04-17T14:16:11Z</time>
      </trkpt>
      <trkpt lat="4.9494620" lon="-75.5007790">
        <ele>1896.0</ele>
        <time>2021-04-17T14:16:14Z</time>
      </trkpt>
      <trkpt lat="4.9494370" lon="-75.5008090">
        <ele>1896.4</ele>
        <time>2021-04-17T14:16:16Z</time>
      </trkpt>
      <trkpt lat="4.9494200" lon="-75.5008440">
        <ele>1897.4</ele>
        <time>2021-04-17T14:16:19Z</time>
      </trkpt>
      <trkpt lat="4.9493910" lon="-75.5009200">
        <ele>1898.2</ele>
        <time>2021-04-17T14:16:22Z</time>
      </trkpt>
      <trkpt lat="4.9493840" lon="-75.5009380">
        <ele>1898.6</ele>
        <time>2021-04-17T14:16:23Z</time>
      </trkpt>
      <trkpt lat="4.9493680" lon="-75.5010100">
        <ele>1899.6</ele>
        <time>2021-04-17T14:16:27Z</time>
      </trkpt>
      <trkpt lat="4.9493680" lon="-75.5010100">
        <ele>1899.8</ele>
        <time>2021-04-17T14:16:28Z</time>
      </trkpt>
      <trkpt lat="4.9493380" lon="-75.5010660">
        <ele>1900.8</ele>
        <time>2021-04-17T14:16:31Z</time>
      </trkpt>
      <trkpt lat="4.9492950" lon="-75.5011210">
        <ele>1901.4</ele>
        <time>2021-04-17T14:16:33Z</time>
      </trkpt>
      <trkpt lat="4.9492580" lon="-75.5011790">
        <ele>1901.8</ele>
        <time>2021-04-17T14:16:37Z</time>
      </trkpt>
      <trkpt lat="4.9492130" lon="-75.5012260">
        <ele>1902.0</ele>
        <time>2021-04-17T14:16:39Z</time>
      </trkpt>
      <trkpt lat="4.9491780" lon="-75.5012520">
        <ele>1902.4</ele>
        <time>2021-04-17T14:16:41Z</time>
      </trkpt>
      <trkpt lat="4.9491480" lon="-75.5012890">
        <ele>1902.8</ele>
        <time>2021-04-17T14:16:44Z</time>
      </trkpt>
      <trkpt lat="4.9490350" lon="-75.5013420">
        <ele>1904.0</ele>
        <time>2021-04-17T14:16:49Z</time>
      </trkpt>
      <trkpt lat="4.9488840" lon="-75.5014210">
        <ele>1905.2</ele>
        <time>2021-04-17T14:16:54Z</time>
      </trkpt>
      <trkpt lat="4.9488840" lon="-75.5014210">
        <ele>1905.4</ele>
        <time>2021-04-17T14:16:55Z</time>
      </trkpt>
      <trkpt lat="4.9487520" lon="-75.5015460">
        <ele>1905.6</ele>
        <time>2021-04-17T14:17:00Z</time>
      </trkpt>
      <trkpt lat="4.9486270" lon="-75.5017050">
        <ele>1906.2</ele>
        <time>2021-04-17T14:17:07Z</time>
      </trkpt>
      <trkpt lat="4.9485880" lon="-75.5017600">
        <ele>1906.4</ele>
        <time>2021-04-17T14:17:08Z</time>
      </trkpt>
      <trkpt lat="4.9485060" lon="-75.5018510">
        <ele>1907.0</ele>
        <time>2021-04-17T14:17:12Z</time>
      </trkpt>
      <trkpt lat="4.9485060" lon="-75.5018510">
        <ele>1907.6</ele>
        <time>2021-04-17T14:17:13Z</time>
      </trkpt>
      <trkpt lat="4.9484520" lon="-75.5019460">
        <ele>1909.0</ele>
        <time>2021-04-17T14:17:16Z</time>
      </trkpt>
      <trkpt lat="4.9484100" lon="-75.5019910">
        <ele>1909.8</ele>
        <time>2021-04-17T14:17:19Z</time>
      </trkpt>
      <trkpt lat="4.9483580" lon="-75.5020420">
        <ele>1910.2</ele>
        <time>2021-04-17T14:17:20Z</time>
      </trkpt>
      <trkpt lat="4.9482640" lon="-75.5021340">
        <ele>1911.4</ele>
        <time>2021-04-17T14:17:25Z</time>
      </trkpt>
      <trkpt lat="4.9481440" lon="-75.5021870">
        <ele>1912.0</ele>
        <time>2021-04-17T14:17:29Z</time>
      </trkpt>
      <trkpt lat="4.9481240" lon="-75.5021880">
        <ele>1912.4</ele>
        <time>2021-04-17T14:17:31Z</time>
      </trkpt>
      <trkpt lat="4.9480650" lon="-75.5021800">
        <ele>1912.8</ele>
        <time>2021-04-17T14:17:33Z</time>
      </trkpt>
      <trkpt lat="4.9480290" lon="-75.5021600">
        <ele>1913.0</ele>
        <time>2021-04-17T14:17:35Z</time>
      </trkpt>
      <trkpt lat="4.9480130" lon="-75.5021530">
        <ele>1913.4</ele>
        <time>2021-04-17T14:17:37Z</time>
      </trkpt>
      <trkpt lat="4.9479220" lon="-75.5021160">
        <ele>1914.6</ele>
        <time>2021-04-17T14:17:43Z</time>
      </trkpt>
      <trkpt lat="4.9479080" lon="-75.5021100">
        <ele>1914.8</ele>
        <time>2021-04-17T14:17:44Z</time>
      </trkpt>
      <trkpt lat="4.9478510" lon="-75.5020870">
        <ele>1915.8</ele>
        <time>2021-04-17T14:17:49Z</time>
      </trkpt>
      <trkpt lat="4.9477830" lon="-75.5020330">
        <ele>1916.6</ele>
        <time>2021-04-17T14:17:55Z</time>
      </trkpt>
      <trkpt lat="4.9477470" lon="-75.5020010">
        <ele>1917.0</ele>
        <time>2021-04-17T14:17:57Z</time>
      </trkpt>
      <trkpt lat="4.9476900" lon="-75.5019470">
        <ele>1917.8</ele>
        <time>2021-04-17T14:18:02Z</time>
      </trkpt>
      <trkpt lat="4.9476800" lon="-75.5019350">
        <ele>1918.0</ele>
        <time>2021-04-17T14:18:03Z</time>
      </trkpt>
      <trkpt lat="4.9476090" lon="-75.5018530">
        <ele>1919.2</ele>
        <time>2021-04-17T14:18:09Z</time>
      </trkpt>
      <trkpt lat="4.9475960" lon="-75.5018380">
        <ele>1919.4</ele>
        <time>2021-04-17T14:18:10Z</time>
      </trkpt>
      <trkpt lat="4.9475270" lon="-75.5017680">
        <ele>1920.4</ele>
        <time>2021-04-17T14:18:15Z</time>
      </trkpt>
      <trkpt lat="4.9474850" lon="-75.5017250">
        <ele>1921.2</ele>
        <time>2021-04-17T14:18:19Z</time>
      </trkpt>
      <trkpt lat="4.9474400" lon="-75.5016900">
        <ele>1921.6</ele>
        <time>2021-04-17T14:18:21Z</time>
      </trkpt>
      <trkpt lat="4.9473670" lon="-75.5016270">
        <ele>1922.6</ele>
        <time>2021-04-17T14:18:26Z</time>
      </trkpt>
      <trkpt lat="4.9473430" lon="-75.5015990">
        <ele>1923.0</ele>
        <time>2021-04-17T14:18:28Z</time>
      </trkpt>
      <trkpt lat="4.9473180" lon="-75.5015700">
        <ele>1923.6</ele>
        <time>2021-04-17T14:18:31Z</time>
      </trkpt>
      <trkpt lat="4.9472630" lon="-75.5015230">
        <ele>1924.2</ele>
        <time>2021-04-17T14:18:34Z</time>
      </trkpt>
      <trkpt lat="4.9472320" lon="-75.5015040">
        <ele>1925.0</ele>
        <time>2021-04-17T14:18:37Z</time>
      </trkpt>
      <trkpt lat="4.9472120" lon="-75.5014940">
        <ele>1925.2</ele>
        <time>2021-04-17T14:18:38Z</time>
      </trkpt>
      <trkpt lat="4.9471260" lon="-75.5014490">
        <ele>1926.2</ele>
        <time>2021-04-17T14:18:42Z</time>
      </trkpt>
      <trkpt lat="4.9471260" lon="-75.5014490">
        <ele>1926.4</ele>
        <time>2021-04-17T14:18:43Z</time>
      </trkpt>
      <trkpt lat="4.9470380" lon="-75.5014170">
        <ele>1927.6</ele>
        <time>2021-04-17T14:18:47Z</time>
      </trkpt>
      <trkpt lat="4.9469960" lon="-75.5014100">
        <ele>1928.6</ele>
        <time>2021-04-17T14:18:50Z</time>
      </trkpt>
      <trkpt lat="4.9469210" lon="-75.5014130">
        <ele>1929.6</ele>
        <time>2021-04-17T14:18:54Z</time>
      </trkpt>
      <trkpt lat="4.9468450" lon="-75.5014310">
        <ele>1930.0</ele>
        <time>2021-04-17T14:18:57Z</time>
      </trkpt>
      <trkpt lat="4.9467840" lon="-75.5014490">
        <ele>1930.8</ele>
        <time>2021-04-17T14:19:01Z</time>
      </trkpt>
      <trkpt lat="4.9466770" lon="-75.5014580">
        <ele>1932.0</ele>
        <time>2021-04-17T14:19:06Z</time>
      </trkpt>
      <trkpt lat="4.9465400" lon="-75.5014310">
        <ele>1933.0</ele>
        <time>2021-04-17T14:19:11Z</time>
      </trkpt>
      <trkpt lat="4.9464550" lon="-75.5014110">
        <ele>1933.6</ele>
        <time>2021-04-17T14:19:16Z</time>
      </trkpt>
      <trkpt lat="4.9464190" lon="-75.5013970">
        <ele>1934.0</ele>
        <time>2021-04-17T14:19:18Z</time>
      </trkpt>
      <trkpt lat="4.9463120" lon="-75.5013610">
        <ele>1935.2</ele>
        <time>2021-04-17T14:19:23Z</time>
      </trkpt>
      <trkpt lat="4.9462760" lon="-75.5013490">
        <ele>1935.6</ele>
        <time>2021-04-17T14:19:26Z</time>
      </trkpt>
      <trkpt lat="4.9462200" lon="-75.5013270">
        <ele>1936.2</ele>
        <time>2021-04-17T14:19:29Z</time>
      </trkpt>
      <trkpt lat="4.9461310" lon="-75.5012890">
        <ele>1937.4</ele>
        <time>2021-04-17T14:19:34Z</time>
      </trkpt>
      <trkpt lat="4.9460950" lon="-75.5012800">
        <ele>1937.6</ele>
        <time>2021-04-17T14:19:35Z</time>
      </trkpt>
      <trkpt lat="4.9460240" lon="-75.5012510">
        <ele>1938.6</ele>
        <time>2021-04-17T14:19:39Z</time>
      </trkpt>
      <trkpt lat="4.9459590" lon="-75.5012030">
        <ele>1939.4</ele>
        <time>2021-04-17T14:19:44Z</time>
      </trkpt>
      <trkpt lat="4.9459250" lon="-75.5011780">
        <ele>1939.8</ele>
        <time>2021-04-17T14:19:46Z</time>
      </trkpt>
      <trkpt lat="4.9458830" lon="-75.5011110">
        <ele>1940.4</ele>
        <time>2021-04-17T14:19:50Z</time>
      </trkpt>
      <trkpt lat="4.9458650" lon="-75.5010320">
        <ele>1941.0</ele>
        <time>2021-04-17T14:19:54Z</time>
      </trkpt>
      <trkpt lat="4.9458460" lon="-75.5009530">
        <ele>1942.0</ele>
        <time>2021-04-17T14:19:58Z</time>
      </trkpt>
      <trkpt lat="4.9458270" lon="-75.5008840">
        <ele>1943.2</ele>
        <time>2021-04-17T14:20:02Z</time>
      </trkpt>
      <trkpt lat="4.9458010" lon="-75.5008280">
        <ele>1944.4</ele>
        <time>2021-04-17T14:20:05Z</time>
      </trkpt>
      <trkpt lat="4.9458010" lon="-75.5008280">
        <ele>1944.8</ele>
        <time>2021-04-17T14:20:06Z</time>
      </trkpt>
      <trkpt lat="4.9457820" lon="-75.5007770">
        <ele>1945.6</ele>
        <time>2021-04-17T14:20:09Z</time>
      </trkpt>
      <trkpt lat="4.9457710" lon="-75.5007030">
        <ele>1946.6</ele>
        <time>2021-04-17T14:20:13Z</time>
      </trkpt>
      <trkpt lat="4.9457730" lon="-75.5006840">
        <ele>1947.0</ele>
        <time>2021-04-17T14:20:14Z</time>
      </trkpt>
      <trkpt lat="4.9457780" lon="-75.5005750">
        <ele>1947.6</ele>
        <time>2021-04-17T14:20:19Z</time>
      </trkpt>
      <trkpt lat="4.9457770" lon="-75.5004530">
        <ele>1948.0</ele>
        <time>2021-04-17T14:20:23Z</time>
      </trkpt>
      <trkpt lat="4.9457890" lon="-75.5003850">
        <ele>1948.2</ele>
        <time>2021-04-17T14:20:26Z</time>
      </trkpt>
      <trkpt lat="4.9457880" lon="-75.5002810">
        <ele>1949.2</ele>
        <time>2021-04-17T14:20:33Z</time>
      </trkpt>
      <trkpt lat="4.9458140" lon="-75.5001840">
        <ele>1950.2</ele>
        <time>2021-04-17T14:20:40Z</time>
      </trkpt>
      <trkpt lat="4.9458230" lon="-75.5001700">
        <ele>1950.4</ele>
        <time>2021-04-17T14:20:41Z</time>
      </trkpt>
      <trkpt lat="4.9458550" lon="-75.5001100">
        <ele>1951.4</ele>
        <time>2021-04-17T14:20:46Z</time>
      </trkpt>
      <trkpt lat="4.9458960" lon="-75.5000620">
        <ele>1952.6</ele>
        <time>2021-04-17T14:20:50Z</time>
      </trkpt>
      <trkpt lat="4.9459410" lon="-75.5000150">
        <ele>1954.0</ele>
        <time>2021-04-17T14:20:55Z</time>
      </trkpt>
      <trkpt lat="4.9459860" lon="-75.4999590">
        <ele>1954.8</ele>
        <time>2021-04-17T14:20:58Z</time>
      </trkpt>
      <trkpt lat="4.9459960" lon="-75.4999470">
        <ele>1955.0</ele>
        <time>2021-04-17T14:20:59Z</time>
      </trkpt>
      <trkpt lat="4.9460570" lon="-75.4998640">
        <ele>1956.6</ele>
        <time>2021-04-17T14:21:05Z</time>
      </trkpt>
      <trkpt lat="4.9460690" lon="-75.4998510">
        <ele>1956.8</ele>
        <time>2021-04-17T14:21:06Z</time>
      </trkpt>
      <trkpt lat="4.9460810" lon="-75.4997580">
        <ele>1957.6</ele>
        <time>2021-04-17T14:21:11Z</time>
      </trkpt>
      <trkpt lat="4.9460840" lon="-75.4997400">
        <ele>1958.2</ele>
        <time>2021-04-17T14:21:13Z</time>
      </trkpt>
      <trkpt lat="4.9460900" lon="-75.4996810">
        <ele>1958.6</ele>
        <time>2021-04-17T14:21:16Z</time>
      </trkpt>
      <trkpt lat="4.9460910" lon="-75.4995930">
        <ele>1959.2</ele>
        <time>2021-04-17T14:21:20Z</time>
      </trkpt>
      <trkpt lat="4.9460830" lon="-75.4995180">
        <ele>1959.8</ele>
        <time>2021-04-17T14:21:24Z</time>
      </trkpt>
      <trkpt lat="4.9460600" lon="-75.4994420">
        <ele>1960.4</ele>
        <time>2021-04-17T14:21:28Z</time>
      </trkpt>
      <trkpt lat="4.9460390" lon="-75.4994070">
        <ele>1960.8</ele>
        <time>2021-04-17T14:21:30Z</time>
      </trkpt>
      <trkpt lat="4.9459720" lon="-75.4992940">
        <ele>1961.6</ele>
        <time>2021-04-17T14:21:36Z</time>
      </trkpt>
      <trkpt lat="4.9459600" lon="-75.4992790">
        <ele>1961.8</ele>
        <time>2021-04-17T14:21:37Z</time>
      </trkpt>
      <trkpt lat="4.9458710" lon="-75.4992050">
        <ele>1963.0</ele>
        <time>2021-04-17T14:21:43Z</time>
      </trkpt>
      <trkpt lat="4.9458550" lon="-75.4991970">
        <ele>1963.0</ele>
        <time>2021-04-17T14:21:44Z</time>
      </trkpt>
      <trkpt lat="4.9457780" lon="-75.4991780">
        <ele>1964.0</ele>
        <time>2021-04-17T14:21:48Z</time>
      </trkpt>
      <trkpt lat="4.9457400" lon="-75.4991680">
        <ele>1964.6</ele>
        <time>2021-04-17T14:21:50Z</time>
      </trkpt>
      <trkpt lat="4.9457030" lon="-75.4991550">
        <ele>1965.2</ele>
        <time>2021-04-17T14:21:52Z</time>
      </trkpt>
      <trkpt lat="4.9455960" lon="-75.4991430">
        <ele>1966.4</ele>
        <time>2021-04-17T14:21:57Z</time>
      </trkpt>
      <trkpt lat="4.9454310" lon="-75.4991510">
        <ele>1967.2</ele>
        <time>2021-04-17T14:22:04Z</time>
      </trkpt>
      <trkpt lat="4.9453830" lon="-75.4991460">
        <ele>1967.4</ele>
        <time>2021-04-17T14:22:06Z</time>
      </trkpt>
      <trkpt lat="4.9452510" lon="-75.4991180">
        <ele>1968.0</ele>
        <time>2021-04-17T14:22:12Z</time>
      </trkpt>
      <trkpt lat="4.9451630" lon="-75.4990930">
        <ele>1968.6</ele>
        <time>2021-04-17T14:22:17Z</time>
      </trkpt>
      <trkpt lat="4.9451140" lon="-75.4990790">
        <ele>1969.4</ele>
        <time>2021-04-17T14:22:20Z</time>
      </trkpt>
      <trkpt lat="4.9450990" lon="-75.4990750">
        <ele>1969.6</ele>
        <time>2021-04-17T14:22:21Z</time>
      </trkpt>
      <trkpt lat="4.9450850" lon="-75.4990710">
        <ele>1969.8</ele>
        <time>2021-04-17T14:22:22Z</time>
      </trkpt>
      <trkpt lat="4.9450250" lon="-75.4990490">
        <ele>1971.0</ele>
        <time>2021-04-17T14:22:26Z</time>
      </trkpt>
      <trkpt lat="4.9449600" lon="-75.4990210">
        <ele>1972.2</ele>
        <time>2021-04-17T14:22:30Z</time>
      </trkpt>
      <trkpt lat="4.9448760" lon="-75.4989910">
        <ele>1973.2</ele>
        <time>2021-04-17T14:22:35Z</time>
      </trkpt>
      <trkpt lat="4.9448120" lon="-75.4989670">
        <ele>1974.2</ele>
        <time>2021-04-17T14:22:39Z</time>
      </trkpt>
      <trkpt lat="4.9447950" lon="-75.4989580">
        <ele>1974.6</ele>
        <time>2021-04-17T14:22:40Z</time>
      </trkpt>
      <trkpt lat="4.9447440" lon="-75.4989410">
        <ele>1975.6</ele>
        <time>2021-04-17T14:22:43Z</time>
      </trkpt>
      <trkpt lat="4.9446690" lon="-75.4989150">
        <ele>1977.0</ele>
        <time>2021-04-17T14:22:47Z</time>
      </trkpt>
      <trkpt lat="4.9446520" lon="-75.4989080">
        <ele>1977.4</ele>
        <time>2021-04-17T14:22:48Z</time>
      </trkpt>
      <trkpt lat="4.9445870" lon="-75.4988780">
        <ele>1978.4</ele>
        <time>2021-04-17T14:22:52Z</time>
      </trkpt>
      <trkpt lat="4.9445370" lon="-75.4988500">
        <ele>1979.4</ele>
        <time>2021-04-17T14:22:55Z</time>
      </trkpt>
      <trkpt lat="4.9445210" lon="-75.4988430">
        <ele>1980.0</ele>
        <time>2021-04-17T14:22:56Z</time>
      </trkpt>
      <trkpt lat="4.9444860" lon="-75.4988300">
        <ele>1980.8</ele>
        <time>2021-04-17T14:22:58Z</time>
      </trkpt>
      <trkpt lat="4.9444190" lon="-75.4987980">
        <ele>1982.0</ele>
        <time>2021-04-17T14:23:02Z</time>
      </trkpt>
      <trkpt lat="4.9444010" lon="-75.4987880">
        <ele>1982.2</ele>
        <time>2021-04-17T14:23:03Z</time>
      </trkpt>
      <trkpt lat="4.9443550" lon="-75.4987480">
        <ele>1983.0</ele>
        <time>2021-04-17T14:23:06Z</time>
      </trkpt>
      <trkpt lat="4.9443240" lon="-75.4987150">
        <ele>1984.0</ele>
        <time>2021-04-17T14:23:09Z</time>
      </trkpt>
      <trkpt lat="4.9443100" lon="-75.4986940">
        <ele>1984.4</ele>
        <time>2021-04-17T14:23:11Z</time>
      </trkpt>
      <trkpt lat="4.9442830" lon="-75.4986260">
        <ele>1985.4</ele>
        <time>2021-04-17T14:23:16Z</time>
      </trkpt>
      <trkpt lat="4.9442720" lon="-75.4986010">
        <ele>1985.6</ele>
        <time>2021-04-17T14:23:17Z</time>
      </trkpt>
      <trkpt lat="4.9442460" lon="-75.4985470">
        <ele>1986.6</ele>
        <time>2021-04-17T14:23:22Z</time>
      </trkpt>
      <trkpt lat="4.9442150" lon="-75.4984950">
        <ele>1987.2</ele>
        <time>2021-04-17T14:23:26Z</time>
      </trkpt>
      <trkpt lat="4.9441990" lon="-75.4984690">
        <ele>1987.6</ele>
        <time>2021-04-17T14:23:28Z</time>
      </trkpt>
      <trkpt lat="4.9441590" lon="-75.4983930">
        <ele>1988.4</ele>
        <time>2021-04-17T14:23:34Z</time>
      </trkpt>
      <trkpt lat="4.9441430" lon="-75.4983670">
        <ele>1988.6</ele>
        <time>2021-04-17T14:23:36Z</time>
      </trkpt>
      <trkpt lat="4.9440940" lon="-75.4982650">
        <ele>1989.6</ele>
        <time>2021-04-17T14:23:43Z</time>
      </trkpt>
      <trkpt lat="4.9440860" lon="-75.4982510">
        <ele>1990.0</ele>
        <time>2021-04-17T14:23:44Z</time>
      </trkpt>
      <trkpt lat="4.9440360" lon="-75.4981280">
        <ele>1991.0</ele>
        <time>2021-04-17T14:23:51Z</time>
      </trkpt>
      <trkpt lat="4.9440360" lon="-75.4981280">
        <ele>1991.0</ele>
        <time>2021-04-17T14:23:52Z</time>
      </trkpt>
      <trkpt lat="4.9439860" lon="-75.4980470">
        <ele>1992.0</ele>
        <time>2021-04-17T14:23:58Z</time>
      </trkpt>
      <trkpt lat="4.9439750" lon="-75.4980350">
        <ele>1992.4</ele>
        <time>2021-04-17T14:23:59Z</time>
      </trkpt>
      <trkpt lat="4.9439160" lon="-75.4979920">
        <ele>1993.2</ele>
        <time>2021-04-17T14:24:03Z</time>
      </trkpt>
      <trkpt lat="4.9438840" lon="-75.4979750">
        <ele>1993.6</ele>
        <time>2021-04-17T14:24:05Z</time>
      </trkpt>
      <trkpt lat="4.9438130" lon="-75.4979420">
        <ele>1994.2</ele>
        <time>2021-04-17T14:24:09Z</time>
      </trkpt>
      <trkpt lat="4.9437430" lon="-75.4979060">
        <ele>1995.0</ele>
        <time>2021-04-17T14:24:13Z</time>
      </trkpt>
      <trkpt lat="4.9437260" lon="-75.4978980">
        <ele>1995.4</ele>
        <time>2021-04-17T14:24:14Z</time>
      </trkpt>
      <trkpt lat="4.9436360" lon="-75.4978280">
        <ele>1996.4</ele>
        <time>2021-04-17T14:24:20Z</time>
      </trkpt>
      <trkpt lat="4.9436060" lon="-75.4978030">
        <ele>1996.8</ele>
        <time>2021-04-17T14:24:22Z</time>
      </trkpt>
      <trkpt lat="4.9435620" lon="-75.4977690">
        <ele>1997.6</ele>
        <time>2021-04-17T14:24:25Z</time>
      </trkpt>
      <trkpt lat="4.9434840" lon="-75.4977140">
        <ele>1999.0</ele>
        <time>2021-04-17T14:24:30Z</time>
      </trkpt>
      <trkpt lat="4.9434540" lon="-75.4976960">
        <ele>1999.8</ele>
        <time>2021-04-17T14:24:32Z</time>
      </trkpt>
      <trkpt lat="4.9434370" lon="-75.4976860">
        <ele>2000.0</ele>
        <time>2021-04-17T14:24:33Z</time>
      </trkpt>
      <trkpt lat="4.9433740" lon="-75.4976580">
        <ele>2001.2</ele>
        <time>2021-04-17T14:24:37Z</time>
      </trkpt>
      <trkpt lat="4.9433500" lon="-75.4976440">
        <ele>2001.8</ele>
        <time>2021-04-17T14:24:39Z</time>
      </trkpt>
      <trkpt lat="4.9433260" lon="-75.4976300">
        <ele>2002.4</ele>
        <time>2021-04-17T14:24:41Z</time>
      </trkpt>
      <trkpt lat="4.9432870" lon="-75.4976070">
        <ele>2003.4</ele>
        <time>2021-04-17T14:24:44Z</time>
      </trkpt>
      <trkpt lat="4.9432500" lon="-75.4975920">
        <ele>2004.4</ele>
        <time>2021-04-17T14:24:47Z</time>
      </trkpt>
      <trkpt lat="4.9432380" lon="-75.4975860">
        <ele>2004.8</ele>
        <time>2021-04-17T14:24:48Z</time>
      </trkpt>
      <trkpt lat="4.9431800" lon="-75.4975520">
        <ele>2005.8</ele>
        <time>2021-04-17T14:24:53Z</time>
      </trkpt>
      <trkpt lat="4.9431610" lon="-75.4975390">
        <ele>2006.2</ele>
        <time>2021-04-17T14:24:55Z</time>
      </trkpt>
      <trkpt lat="4.9431300" lon="-75.4975290">
        <ele>2007.0</ele>
        <time>2021-04-17T14:24:58Z</time>
      </trkpt>
      <trkpt lat="4.9430870" lon="-75.4975030">
        <ele>2008.0</ele>
        <time>2021-04-17T14:25:02Z</time>
      </trkpt>
      <trkpt lat="4.9430500" lon="-75.4974600">
        <ele>2009.2</ele>
        <time>2021-04-17T14:25:07Z</time>
      </trkpt>
      <trkpt lat="4.9430310" lon="-75.4974420">
        <ele>2009.6</ele>
        <time>2021-04-17T14:25:09Z</time>
      </trkpt>
      <trkpt lat="4.9430220" lon="-75.4974330">
        <ele>2009.8</ele>
        <time>2021-04-17T14:25:10Z</time>
      </trkpt>
      <trkpt lat="4.9430100" lon="-75.4974160">
        <ele>2010.4</ele>
        <time>2021-04-17T14:25:12Z</time>
      </trkpt>
      <trkpt lat="4.9429820" lon="-75.4973650">
        <ele>2011.4</ele>
        <time>2021-04-17T14:25:16Z</time>
      </trkpt>
      <trkpt lat="4.9429470" lon="-75.4972580">
        <ele>2012.4</ele>
        <time>2021-04-17T14:25:23Z</time>
      </trkpt>
      <trkpt lat="4.9429050" lon="-75.4971620">
        <ele>2013.8</ele>
        <time>2021-04-17T14:25:29Z</time>
      </trkpt>
      <trkpt lat="4.9428970" lon="-75.4971460">
        <ele>2014.0</ele>
        <time>2021-04-17T14:25:30Z</time>
      </trkpt>
      <trkpt lat="4.9428640" lon="-75.4970560">
        <ele>2014.8</ele>
        <time>2021-04-17T14:25:35Z</time>
      </trkpt>
      <trkpt lat="4.9428280" lon="-75.4969920">
        <ele>2015.6</ele>
        <time>2021-04-17T14:25:39Z</time>
      </trkpt>
      <trkpt lat="4.9428040" lon="-75.4969560">
        <ele>2015.8</ele>
        <time>2021-04-17T14:25:41Z</time>
      </trkpt>
      <trkpt lat="4.9427110" lon="-75.4968440">
        <ele>2016.8</ele>
        <time>2021-04-17T14:25:47Z</time>
      </trkpt>
      <trkpt lat="4.9426940" lon="-75.4968260">
        <ele>2016.8</ele>
        <time>2021-04-17T14:25:48Z</time>
      </trkpt>
      <trkpt lat="4.9425870" lon="-75.4967160">
        <ele>2017.6</ele>
        <time>2021-04-17T14:25:54Z</time>
      </trkpt>
      <trkpt lat="4.9425380" lon="-75.4966600">
        <ele>2018.0</ele>
        <time>2021-04-17T14:25:57Z</time>
      </trkpt>
      <trkpt lat="4.9425090" lon="-75.4965880">
        <ele>2018.6</ele>
        <time>2021-04-17T14:26:00Z</time>
      </trkpt>
      <trkpt lat="4.9424920" lon="-75.4965390">
        <ele>2019.2</ele>
        <time>2021-04-17T14:26:02Z</time>
      </trkpt>
      <trkpt lat="4.9424760" lon="-75.4964620">
        <ele>2020.4</ele>
        <time>2021-04-17T14:26:05Z</time>
      </trkpt>
      <trkpt lat="4.9424590" lon="-75.4964000">
        <ele>2021.0</ele>
        <time>2021-04-17T14:26:08Z</time>
      </trkpt>
      <trkpt lat="4.9424460" lon="-75.4963600">
        <ele>2021.4</ele>
        <time>2021-04-17T14:26:10Z</time>
      </trkpt>
      <trkpt lat="4.9424340" lon="-75.4962810">
        <ele>2022.4</ele>
        <time>2021-04-17T14:26:14Z</time>
      </trkpt>
      <trkpt lat="4.9424190" lon="-75.4962240">
        <ele>2023.0</ele>
        <time>2021-04-17T14:26:17Z</time>
      </trkpt>
      <trkpt lat="4.9424170" lon="-75.4961840">
        <ele>2023.4</ele>
        <time>2021-04-17T14:26:19Z</time>
      </trkpt>
      <trkpt lat="4.9424030" lon="-75.4960730">
        <ele>2024.6</ele>
        <time>2021-04-17T14:26:24Z</time>
      </trkpt>
      <trkpt lat="4.9423950" lon="-75.4960500">
        <ele>2025.0</ele>
        <time>2021-04-17T14:26:25Z</time>
      </trkpt>
      <trkpt lat="4.9423370" lon="-75.4959550">
        <ele>2025.8</ele>
        <time>2021-04-17T14:26:30Z</time>
      </trkpt>
      <trkpt lat="4.9423080" lon="-75.4959280">
        <ele>2026.2</ele>
        <time>2021-04-17T14:26:32Z</time>
      </trkpt>
      <trkpt lat="4.9422720" lon="-75.4959120">
        <ele>2026.8</ele>
        <time>2021-04-17T14:26:34Z</time>
      </trkpt>
      <trkpt lat="4.9421930" lon="-75.4958930">
        <ele>2028.0</ele>
        <time>2021-04-17T14:26:38Z</time>
      </trkpt>
      <trkpt lat="4.9421330" lon="-75.4958980">
        <ele>2029.0</ele>
        <time>2021-04-17T14:26:42Z</time>
      </trkpt>
      <trkpt lat="4.9421040" lon="-75.4959020">
        <ele>2029.6</ele>
        <time>2021-04-17T14:26:44Z</time>
      </trkpt>
      <trkpt lat="4.9420760" lon="-75.4959110">
        <ele>2030.2</ele>
        <time>2021-04-17T14:26:46Z</time>
      </trkpt>
      <trkpt lat="4.9420490" lon="-75.4959240">
        <ele>2031.2</ele>
        <time>2021-04-17T14:26:48Z</time>
      </trkpt>
      <trkpt lat="4.9420170" lon="-75.4959550">
        <ele>2031.8</ele>
        <time>2021-04-17T14:26:51Z</time>
      </trkpt>
      <trkpt lat="4.9419990" lon="-75.4959800">
        <ele>2032.4</ele>
        <time>2021-04-17T14:26:53Z</time>
      </trkpt>
      <trkpt lat="4.9419700" lon="-75.4960550">
        <ele>2033.6</ele>
        <time>2021-04-17T14:26:58Z</time>
      </trkpt>
      <trkpt lat="4.9419670" lon="-75.4960700">
        <ele>2033.8</ele>
        <time>2021-04-17T14:26:59Z</time>
      </trkpt>
      <trkpt lat="4.9419790" lon="-75.4961540">
        <ele>2034.6</ele>
        <time>2021-04-17T14:27:04Z</time>
      </trkpt>
      <trkpt lat="4.9419890" lon="-75.4961860">
        <ele>2035.2</ele>
        <time>2021-04-17T14:27:06Z</time>
      </trkpt>
      <trkpt lat="4.9420090" lon="-75.4962350">
        <ele>2035.8</ele>
        <time>2021-04-17T14:27:09Z</time>
      </trkpt>
      <trkpt lat="4.9420450" lon="-75.4962930">
        <ele>2036.8</ele>
        <time>2021-04-17T14:27:13Z</time>
      </trkpt>
      <trkpt lat="4.9420540" lon="-75.4963110">
        <ele>2036.8</ele>
        <time>2021-04-17T14:27:14Z</time>
      </trkpt>
      <trkpt lat="4.9420940" lon="-75.4963990">
        <ele>2038.0</ele>
        <time>2021-04-17T14:27:19Z</time>
      </trkpt>
      <trkpt lat="4.9421130" lon="-75.4964370">
        <ele>2038.4</ele>
        <time>2021-04-17T14:27:21Z</time>
      </trkpt>
      <trkpt lat="4.9421660" lon="-75.4965550">
        <ele>2039.0</ele>
        <time>2021-04-17T14:27:26Z</time>
      </trkpt>
      <trkpt lat="4.9422000" lon="-75.4966260">
        <ele>2039.0</ele>
        <time>2021-04-17T14:27:29Z</time>
      </trkpt>
      <trkpt lat="4.9422830" lon="-75.4967920">
        <ele>2039.8</ele>
        <time>2021-04-17T14:27:37Z</time>
      </trkpt>
      <trkpt lat="4.9423010" lon="-75.4968200">
        <ele>2040.0</ele>
        <time>2021-04-17T14:27:39Z</time>
      </trkpt>
      <trkpt lat="4.9423290" lon="-75.4969040">
        <ele>2041.0</ele>
        <time>2021-04-17T14:27:44Z</time>
      </trkpt>
      <trkpt lat="4.9423360" lon="-75.4969170">
        <ele>2041.2</ele>
        <time>2021-04-17T14:27:45Z</time>
      </trkpt>
      <trkpt lat="4.9423660" lon="-75.4969900">
        <ele>2042.4</ele>
        <time>2021-04-17T14:27:50Z</time>
      </trkpt>
      <trkpt lat="4.9423810" lon="-75.4970210">
        <ele>2043.0</ele>
        <time>2021-04-17T14:27:52Z</time>
      </trkpt>
      <trkpt lat="4.9423940" lon="-75.4970520">
        <ele>2043.4</ele>
        <time>2021-04-17T14:27:54Z</time>
      </trkpt>
      <trkpt lat="4.9424120" lon="-75.4970970">
        <ele>2044.6</ele>
        <time>2021-04-17T14:27:57Z</time>
      </trkpt>
      <trkpt lat="4.9424260" lon="-75.4971420">
        <ele>2045.2</ele>
        <time>2021-04-17T14:28:00Z</time>
      </trkpt>
      <trkpt lat="4.9424260" lon="-75.4971580">
        <ele>2045.4</ele>
        <time>2021-04-17T14:28:01Z</time>
      </trkpt>
      <trkpt lat="4.9424270" lon="-75.4971910">
        <ele>2045.8</ele>
        <time>2021-04-17T14:28:03Z</time>
      </trkpt>
      <trkpt lat="4.9424270" lon="-75.4972090">
        <ele>2046.2</ele>
        <time>2021-04-17T14:28:04Z</time>
      </trkpt>
      <trkpt lat="4.9424230" lon="-75.4972430">
        <ele>2046.8</ele>
        <time>2021-04-17T14:28:06Z</time>
      </trkpt>
      <trkpt lat="4.9424200" lon="-75.4972570">
        <ele>2047.0</ele>
        <time>2021-04-17T14:28:07Z</time>
      </trkpt>
      <trkpt lat="4.9423980" lon="-75.4973050">
        <ele>2048.0</ele>
        <time>2021-04-17T14:28:10Z</time>
      </trkpt>
      <trkpt lat="4.9423630" lon="-75.4973780">
        <ele>2048.8</ele>
        <time>2021-04-17T14:28:14Z</time>
      </trkpt>
      <trkpt lat="4.9423480" lon="-75.4974190">
        <ele>2049.0</ele>
        <time>2021-04-17T14:28:16Z</time>
      </trkpt>
      <trkpt lat="4.9422930" lon="-75.4975050">
        <ele>2049.4</ele>
        <time>2021-04-17T14:28:20Z</time>
      </trkpt>
      <trkpt lat="4.9422150" lon="-75.4976280">
        <ele>2050.2</ele>
        <time>2021-04-17T14:28:27Z</time>
      </trkpt>
      <trkpt lat="4.9421850" lon="-75.4977220">
        <ele>2051.4</ele>
        <time>2021-04-17T14:28:34Z</time>
      </trkpt>
      <trkpt lat="4.9421640" lon="-75.4978150">
        <ele>2052.6</ele>
        <time>2021-04-17T14:28:40Z</time>
      </trkpt>
      <trkpt lat="4.9421620" lon="-75.4978320">
        <ele>2052.6</ele>
        <time>2021-04-17T14:28:41Z</time>
      </trkpt>
      <trkpt lat="4.9421670" lon="-75.4979030">
        <ele>2053.8</ele>
        <time>2021-04-17T14:28:46Z</time>
      </trkpt>
      <trkpt lat="4.9421720" lon="-75.4979180">
        <ele>2054.0</ele>
        <time>2021-04-17T14:28:47Z</time>
      </trkpt>
      <trkpt lat="4.9421930" lon="-75.4979850">
        <ele>2055.0</ele>
        <time>2021-04-17T14:28:51Z</time>
      </trkpt>
      <trkpt lat="4.9422110" lon="-75.4980190">
        <ele>2055.4</ele>
        <time>2021-04-17T14:28:53Z</time>
      </trkpt>
      <trkpt lat="4.9422350" lon="-75.4980640">
        <ele>2056.2</ele>
        <time>2021-04-17T14:28:56Z</time>
      </trkpt>
      <trkpt lat="4.9422730" lon="-75.4981230">
        <ele>2057.2</ele>
        <time>2021-04-17T14:29:00Z</time>
      </trkpt>
      <trkpt lat="4.9422830" lon="-75.4981380">
        <ele>2057.6</ele>
        <time>2021-04-17T14:29:01Z</time>
      </trkpt>
      <trkpt lat="4.9423040" lon="-75.4981700">
        <ele>2058.2</ele>
        <time>2021-04-17T14:29:03Z</time>
      </trkpt>
      <trkpt lat="4.9423310" lon="-75.4982180">
        <ele>2059.6</ele>
        <time>2021-04-17T14:29:06Z</time>
      </trkpt>
      <trkpt lat="4.9423690" lon="-75.4982780">
        <ele>2060.8</ele>
        <time>2021-04-17T14:29:10Z</time>
      </trkpt>
      <trkpt lat="4.9423870" lon="-75.4983250">
        <ele>2061.8</ele>
        <time>2021-04-17T14:29:13Z</time>
      </trkpt>
      <trkpt lat="4.9424040" lon="-75.4983840">
        <ele>2062.8</ele>
        <time>2021-04-17T14:29:17Z</time>
      </trkpt>
      <trkpt lat="4.9424150" lon="-75.4983990">
        <ele>2063.2</ele>
        <time>2021-04-17T14:29:18Z</time>
      </trkpt>
      <trkpt lat="4.9424700" lon="-75.4984570">
        <ele>2064.0</ele>
        <time>2021-04-17T14:29:22Z</time>
      </trkpt>
      <trkpt lat="4.9425050" lon="-75.4985010">
        <ele>2064.6</ele>
        <time>2021-04-17T14:29:25Z</time>
      </trkpt>
      <trkpt lat="4.9425530" lon="-75.4985740">
        <ele>2065.2</ele>
        <time>2021-04-17T14:29:30Z</time>
      </trkpt>
      <trkpt lat="4.9425730" lon="-75.4986020">
        <ele>2065.4</ele>
        <time>2021-04-17T14:29:32Z</time>
      </trkpt>
      <trkpt lat="4.9426080" lon="-75.4986620">
        <ele>2066.2</ele>
        <time>2021-04-17T14:29:36Z</time>
      </trkpt>
      <trkpt lat="4.9426350" lon="-75.4987170">
        <ele>2067.2</ele>
        <time>2021-04-17T14:29:40Z</time>
      </trkpt>
      <trkpt lat="4.9426820" lon="-75.4988230">
        <ele>2068.4</ele>
        <time>2021-04-17T14:29:47Z</time>
      </trkpt>
      <trkpt lat="4.9426890" lon="-75.4988400">
        <ele>2068.4</ele>
        <time>2021-04-17T14:29:48Z</time>
      </trkpt>
      <trkpt lat="4.9427480" lon="-75.4989770">
        <ele>2069.2</ele>
        <time>2021-04-17T14:29:57Z</time>
      </trkpt>
      <trkpt lat="4.9427510" lon="-75.4989890">
        <ele>2069.4</ele>
        <time>2021-04-17T14:29:58Z</time>
      </trkpt>
      <trkpt lat="4.9427770" lon="-75.4990650">
        <ele>2070.4</ele>
        <time>2021-04-17T14:30:04Z</time>
      </trkpt>
      <trkpt lat="4.9427770" lon="-75.4990790">
        <ele>2070.6</ele>
        <time>2021-04-17T14:30:05Z</time>
      </trkpt>
      <trkpt lat="4.9427850" lon="-75.4991550">
        <ele>2071.8</ele>
        <time>2021-04-17T14:30:11Z</time>
      </trkpt>
      <trkpt lat="4.9427780" lon="-75.4991790">
        <ele>2072.4</ele>
        <time>2021-04-17T14:30:13Z</time>
      </trkpt>
      <trkpt lat="4.9427730" lon="-75.4991910">
        <ele>2072.8</ele>
        <time>2021-04-17T14:30:14Z</time>
      </trkpt>
      <trkpt lat="4.9427110" lon="-75.4992630">
        <ele>2073.6</ele>
        <time>2021-04-17T14:30:19Z</time>
      </trkpt>
      <trkpt lat="4.9426990" lon="-75.4992720">
        <ele>2073.8</ele>
        <time>2021-04-17T14:30:20Z</time>
      </trkpt>
      <trkpt lat="4.9426420" lon="-75.4993070">
        <ele>2074.8</ele>
        <time>2021-04-17T14:30:24Z</time>
      </trkpt>
      <trkpt lat="4.9426280" lon="-75.4993190">
        <ele>2075.2</ele>
        <time>2021-04-17T14:30:25Z</time>
      </trkpt>
      <trkpt lat="4.9425880" lon="-75.4993580">
        <ele>2076.0</ele>
        <time>2021-04-17T14:30:29Z</time>
      </trkpt>
      <trkpt lat="4.9425580" lon="-75.4993870">
        <ele>2076.6</ele>
        <time>2021-04-17T14:30:32Z</time>
      </trkpt>
      <trkpt lat="4.9425390" lon="-75.4994020">
        <ele>2077.2</ele>
        <time>2021-04-17T14:30:34Z</time>
      </trkpt>
      <trkpt lat="4.9424940" lon="-75.4994400">
        <ele>2078.2</ele>
        <time>2021-04-17T14:30:39Z</time>
      </trkpt>
      <trkpt lat="4.9424810" lon="-75.4994590">
        <ele>2078.4</ele>
        <time>2021-04-17T14:30:41Z</time>
      </trkpt>
      <trkpt lat="4.9424510" lon="-75.4994980">
        <ele>2079.0</ele>
        <time>2021-04-17T14:30:45Z</time>
      </trkpt>
      <trkpt lat="4.9424460" lon="-75.4995040">
        <ele>2079.2</ele>
        <time>2021-04-17T14:30:46Z</time>
      </trkpt>
      <trkpt lat="4.9424220" lon="-75.4995180">
        <ele>2080.2</ele>
        <time>2021-04-17T14:30:49Z</time>
      </trkpt>
      <trkpt lat="4.9424120" lon="-75.4995220">
        <ele>2080.4</ele>
        <time>2021-04-17T14:30:50Z</time>
      </trkpt>
      <trkpt lat="4.9423760" lon="-75.4995590">
        <ele>2081.4</ele>
        <time>2021-04-17T14:30:55Z</time>
      </trkpt>
      <trkpt lat="4.9423630" lon="-75.4995770">
        <ele>2081.6</ele>
        <time>2021-04-17T14:30:57Z</time>
      </trkpt>
      <trkpt lat="4.9422920" lon="-75.4996230">
        <ele>2082.4</ele>
        <time>2021-04-17T14:31:01Z</time>
      </trkpt>
      <trkpt lat="4.9422760" lon="-75.4996340">
        <ele>2082.6</ele>
        <time>2021-04-17T14:31:02Z</time>
      </trkpt>
      <trkpt lat="4.9422370" lon="-75.4996700">
        <ele>2083.6</ele>
        <time>2021-04-17T14:31:05Z</time>
      </trkpt>
      <trkpt lat="4.9422000" lon="-75.4997040">
        <ele>2084.2</ele>
        <time>2021-04-17T14:31:09Z</time>
      </trkpt>
      <trkpt lat="4.9421910" lon="-75.4997140">
        <ele>2084.6</ele>
        <time>2021-04-17T14:31:10Z</time>
      </trkpt>
      <trkpt lat="4.9421330" lon="-75.4997480">
        <ele>2085.6</ele>
        <time>2021-04-17T14:31:15Z</time>
      </trkpt>
      <trkpt lat="4.9421200" lon="-75.4997570">
        <ele>2085.8</ele>
        <time>2021-04-17T14:31:16Z</time>
      </trkpt>
      <trkpt lat="4.9421090" lon="-75.4997650">
        <ele>2086.2</ele>
        <time>2021-04-17T14:31:17Z</time>
      </trkpt>
      <trkpt lat="4.9420650" lon="-75.4997710">
        <ele>2086.6</ele>
        <time>2021-04-17T14:31:20Z</time>
      </trkpt>
      <trkpt lat="4.9420320" lon="-75.4997670">
        <ele>2087.8</ele>
        <time>2021-04-17T14:31:22Z</time>
      </trkpt>
      <trkpt lat="4.9420170" lon="-75.4997640">
        <ele>2088.0</ele>
        <time>2021-04-17T14:31:23Z</time>
      </trkpt>
      <trkpt lat="4.9420030" lon="-75.4997600">
        <ele>2088.2</ele>
        <time>2021-04-17T14:31:24Z</time>
      </trkpt>
      <trkpt lat="4.9419750" lon="-75.4997530">
        <ele>2088.8</ele>
        <time>2021-04-17T14:31:26Z</time>
      </trkpt>
      <trkpt lat="4.9419180" lon="-75.4997370">
        <ele>2089.8</ele>
        <time>2021-04-17T14:31:30Z</time>
      </trkpt>
      <trkpt lat="4.9419050" lon="-75.4997350">
        <ele>2090.0</ele>
        <time>2021-04-17T14:31:31Z</time>
      </trkpt>
      <trkpt lat="4.9418370" lon="-75.4997210">
        <ele>2091.2</ele>
        <time>2021-04-17T14:31:36Z</time>
      </trkpt>
      <trkpt lat="4.9417470" lon="-75.4997040">
        <ele>2092.4</ele>
        <time>2021-04-17T14:31:42Z</time>
      </trkpt>
      <trkpt lat="4.9417340" lon="-75.4997050">
        <ele>2092.6</ele>
        <time>2021-04-17T14:31:43Z</time>
      </trkpt>
      <trkpt lat="4.9416830" lon="-75.4996870">
        <ele>2093.4</ele>
        <time>2021-04-17T14:31:47Z</time>
      </trkpt>
      <trkpt lat="4.9416540" lon="-75.4996860">
        <ele>2094.0</ele>
        <time>2021-04-17T14:31:49Z</time>
      </trkpt>
      <trkpt lat="4.9416280" lon="-75.4996820">
        <ele>2094.6</ele>
        <time>2021-04-17T14:31:51Z</time>
      </trkpt>
      <trkpt lat="4.9415740" lon="-75.4996700">
        <ele>2095.8</ele>
        <time>2021-04-17T14:31:55Z</time>
      </trkpt>
      <trkpt lat="4.9415600" lon="-75.4996670">
        <ele>2096.4</ele>
        <time>2021-04-17T14:31:56Z</time>
      </trkpt>
      <trkpt lat="4.9415220" lon="-75.4996530">
        <ele>2097.0</ele>
        <time>2021-04-17T14:31:59Z</time>
      </trkpt>
      <trkpt lat="4.9414720" lon="-75.4996070">
        <ele>2098.0</ele>
        <time>2021-04-17T14:32:04Z</time>
      </trkpt>
      <trkpt lat="4.9414610" lon="-75.4995950">
        <ele>2098.0</ele>
        <time>2021-04-17T14:32:05Z</time>
      </trkpt>
      <trkpt lat="4.9413630" lon="-75.4995240">
        <ele>2099.2</ele>
        <time>2021-04-17T14:32:13Z</time>
      </trkpt>
      <trkpt lat="4.9413510" lon="-75.4995160">
        <ele>2099.2</ele>
        <time>2021-04-17T14:32:14Z</time>
      </trkpt>
      <trkpt lat="4.9412370" lon="-75.4994480">
        <ele>2100.0</ele>
        <time>2021-04-17T14:32:22Z</time>
      </trkpt>
      <trkpt lat="4.9412220" lon="-75.4994430">
        <ele>2100.2</ele>
        <time>2021-04-17T14:32:23Z</time>
      </trkpt>
      <trkpt lat="4.9411320" lon="-75.4994310">
        <ele>2101.0</ele>
        <time>2021-04-17T14:32:29Z</time>
      </trkpt>
      <trkpt lat="4.9411040" lon="-75.4994310">
        <ele>2101.4</ele>
        <time>2021-04-17T14:32:31Z</time>
      </trkpt>
      <trkpt lat="4.9410500" lon="-75.4994340">
        <ele>2102.0</ele>
        <time>2021-04-17T14:32:35Z</time>
      </trkpt>
      <trkpt lat="4.9409810" lon="-75.4994390">
        <ele>2103.2</ele>
        <time>2021-04-17T14:32:40Z</time>
      </trkpt>
      <trkpt lat="4.9409250" lon="-75.4994450">
        <ele>2104.4</ele>
        <time>2021-04-17T14:32:44Z</time>
      </trkpt>
      <trkpt lat="4.9408730" lon="-75.4994370">
        <ele>2105.6</ele>
        <time>2021-04-17T14:32:48Z</time>
      </trkpt>
      <trkpt lat="4.9408610" lon="-75.4994340">
        <ele>2106.0</ele>
        <time>2021-04-17T14:32:49Z</time>
      </trkpt>
      <trkpt lat="4.9408180" lon="-75.4994090">
        <ele>2107.0</ele>
        <time>2021-04-17T14:32:53Z</time>
      </trkpt>
      <trkpt lat="4.9407970" lon="-75.4993880">
        <ele>2107.4</ele>
        <time>2021-04-17T14:32:55Z</time>
      </trkpt>
      <trkpt lat="4.9407790" lon="-75.4993670">
        <ele>2108.0</ele>
        <time>2021-04-17T14:32:57Z</time>
      </trkpt>
      <trkpt lat="4.9407500" lon="-75.4993270">
        <ele>2109.2</ele>
        <time>2021-04-17T14:33:01Z</time>
      </trkpt>
      <trkpt lat="4.9407460" lon="-75.4993170">
        <ele>2109.4</ele>
        <time>2021-04-17T14:33:02Z</time>
      </trkpt>
      <trkpt lat="4.9407310" lon="-75.4992830">
        <ele>2110.4</ele>
        <time>2021-04-17T14:33:05Z</time>
      </trkpt>
      <trkpt lat="4.9407160" lon="-75.4992460">
        <ele>2111.0</ele>
        <time>2021-04-17T14:33:08Z</time>
      </trkpt>
      <trkpt lat="4.9407070" lon="-75.4992190">
        <ele>2111.6</ele>
        <time>2021-04-17T14:33:10Z</time>
      </trkpt>
      <trkpt lat="4.9406800" lon="-75.4991380">
        <ele>2112.6</ele>
        <time>2021-04-17T14:33:16Z</time>
      </trkpt>
      <trkpt lat="4.9406740" lon="-75.4991240">
        <ele>2112.8</ele>
        <time>2021-04-17T14:33:17Z</time>
      </trkpt>
      <trkpt lat="4.9406360" lon="-75.4990820">
        <ele>2113.6</ele>
        <time>2021-04-17T14:33:21Z</time>
      </trkpt>
      <trkpt lat="4.9405890" lon="-75.4990460">
        <ele>2114.8</ele>
        <time>2021-04-17T14:33:25Z</time>
      </trkpt>
      <trkpt lat="4.9405200" lon="-75.4990210">
        <ele>2115.8</ele>
        <time>2021-04-17T14:33:30Z</time>
      </trkpt>
      <trkpt lat="4.9404830" lon="-75.4990090">
        <ele>2116.4</ele>
        <time>2021-04-17T14:33:33Z</time>
      </trkpt>
      <trkpt lat="4.9404570" lon="-75.4990000">
        <ele>2116.8</ele>
        <time>2021-04-17T14:33:35Z</time>
      </trkpt>
      <trkpt lat="4.9404060" lon="-75.4989920">
        <ele>2118.0</ele>
        <time>2021-04-17T14:33:39Z</time>
      </trkpt>
      <trkpt lat="4.9403940" lon="-75.4989900">
        <ele>2118.2</ele>
        <time>2021-04-17T14:33:40Z</time>
      </trkpt>
      <trkpt lat="4.9403450" lon="-75.4989790">
        <ele>2119.0</ele>
        <time>2021-04-17T14:33:44Z</time>
      </trkpt>
      <trkpt lat="4.9402820" lon="-75.4989700">
        <ele>2120.4</ele>
        <time>2021-04-17T14:33:49Z</time>
      </trkpt>
      <trkpt lat="4.9402090" lon="-75.4989280">
        <ele>2121.8</ele>
        <time>2021-04-17T14:33:55Z</time>
      </trkpt>
      <trkpt lat="4.9401970" lon="-75.4989180">
        <ele>2122.0</ele>
        <time>2021-04-17T14:33:56Z</time>
      </trkpt>
      <trkpt lat="4.9401650" lon="-75.4988860">
        <ele>2122.8</ele>
        <time>2021-04-17T14:34:00Z</time>
      </trkpt>
      <trkpt lat="4.9401390" lon="-75.4988600">
        <ele>2123.4</ele>
        <time>2021-04-17T14:34:03Z</time>
      </trkpt>
      <trkpt lat="4.9401030" lon="-75.4988350">
        <ele>2124.0</ele>
        <time>2021-04-17T14:34:06Z</time>
      </trkpt>
      <trkpt lat="4.9400470" lon="-75.4987930">
        <ele>2125.0</ele>
        <time>2021-04-17T14:34:11Z</time>
      </trkpt>
      <trkpt lat="4.9400200" lon="-75.4987810">
        <ele>2125.4</ele>
        <time>2021-04-17T14:34:13Z</time>
      </trkpt>
      <trkpt lat="4.9399740" lon="-75.4987650">
        <ele>2126.0</ele>
        <time>2021-04-17T14:34:16Z</time>
      </trkpt>
      <trkpt lat="4.9398890" lon="-75.4987540">
        <ele>2127.0</ele>
        <time>2021-04-17T14:34:21Z</time>
      </trkpt>
      <trkpt lat="4.9398730" lon="-75.4987530">
        <ele>2127.2</ele>
        <time>2021-04-17T14:34:22Z</time>
      </trkpt>
      <trkpt lat="4.9397830" lon="-75.4987790">
        <ele>2128.4</ele>
        <time>2021-04-17T14:34:28Z</time>
      </trkpt>
      <trkpt lat="4.9397710" lon="-75.4987850">
        <ele>2128.6</ele>
        <time>2021-04-17T14:34:29Z</time>
      </trkpt>
      <trkpt lat="4.9396980" lon="-75.4988440">
        <ele>2129.4</ele>
        <time>2021-04-17T14:34:35Z</time>
      </trkpt>
      <trkpt lat="4.9396810" lon="-75.4988690">
        <ele>2129.8</ele>
        <time>2021-04-17T14:34:37Z</time>
      </trkpt>
      <trkpt lat="4.9396600" lon="-75.4989110">
        <ele>2130.6</ele>
        <time>2021-04-17T14:34:40Z</time>
      </trkpt>
      <trkpt lat="4.9396290" lon="-75.4989880">
        <ele>2131.8</ele>
        <time>2021-04-17T14:34:45Z</time>
      </trkpt>
      <trkpt lat="4.9396190" lon="-75.4990180">
        <ele>2132.4</ele>
        <time>2021-04-17T14:34:47Z</time>
      </trkpt>
      <trkpt lat="4.9396090" lon="-75.4990650">
        <ele>2133.0</ele>
        <time>2021-04-17T14:34:50Z</time>
      </trkpt>
      <trkpt lat="4.9396010" lon="-75.4991110">
        <ele>2133.2</ele>
        <time>2021-04-17T14:34:53Z</time>
      </trkpt>
      <trkpt lat="4.9395940" lon="-75.4991590">
        <ele>2134.0</ele>
        <time>2021-04-17T14:34:56Z</time>
      </trkpt>
      <trkpt lat="4.9395780" lon="-75.4991930">
        <ele>2134.6</ele>
        <time>2021-04-17T14:34:59Z</time>
      </trkpt>
      <trkpt lat="4.9395470" lon="-75.4992440">
        <ele>2135.2</ele>
        <time>2021-04-17T14:35:03Z</time>
      </trkpt>
      <trkpt lat="4.9395200" lon="-75.4993210">
        <ele>2136.4</ele>
        <time>2021-04-17T14:35:08Z</time>
      </trkpt>
      <trkpt lat="4.9394890" lon="-75.4994310">
        <ele>2137.6</ele>
        <time>2021-04-17T14:35:15Z</time>
      </trkpt>
      <trkpt lat="4.9394860" lon="-75.4994620">
        <ele>2138.0</ele>
        <time>2021-04-17T14:35:17Z</time>
      </trkpt>
      <trkpt lat="4.9394760" lon="-75.4995230">
        <ele>2138.6</ele>
        <time>2021-04-17T14:35:21Z</time>
      </trkpt>
      <trkpt lat="4.9394650" lon="-75.4995820">
        <ele>2139.6</ele>
        <time>2021-04-17T14:35:25Z</time>
      </trkpt>
      <trkpt lat="4.9394600" lon="-75.4996420">
        <ele>2140.8</ele>
        <time>2021-04-17T14:35:29Z</time>
      </trkpt>
      <trkpt lat="4.9394740" lon="-75.4996940">
        <ele>2142.2</ele>
        <time>2021-04-17T14:35:33Z</time>
      </trkpt>
      <trkpt lat="4.9394890" lon="-75.4997640">
        <ele>2143.0</ele>
        <time>2021-04-17T14:35:38Z</time>
      </trkpt>
      <trkpt lat="4.9394880" lon="-75.4997750">
        <ele>2143.4</ele>
        <time>2021-04-17T14:35:39Z</time>
      </trkpt>
      <trkpt lat="4.9394840" lon="-75.4998150">
        <ele>2144.2</ele>
        <time>2021-04-17T14:35:42Z</time>
      </trkpt>
      <trkpt lat="4.9394800" lon="-75.4998700">
        <ele>2144.8</ele>
        <time>2021-04-17T14:35:46Z</time>
      </trkpt>
      <trkpt lat="4.9394740" lon="-75.4998860">
        <ele>2145.2</ele>
        <time>2021-04-17T14:35:47Z</time>
      </trkpt>
      <trkpt lat="4.9394440" lon="-75.4999560">
        <ele>2146.4</ele>
        <time>2021-04-17T14:35:52Z</time>
      </trkpt>
      <trkpt lat="4.9394350" lon="-75.4999680">
        <ele>2146.6</ele>
        <time>2021-04-17T14:35:53Z</time>
      </trkpt>
      <trkpt lat="4.9394220" lon="-75.4999740">
        <ele>2147.0</ele>
        <time>2021-04-17T14:35:54Z</time>
      </trkpt>
      <trkpt lat="4.9393980" lon="-75.4999850">
        <ele>2147.4</ele>
        <time>2021-04-17T14:35:56Z</time>
      </trkpt>
      <trkpt lat="4.9393700" lon="-75.4999930">
        <ele>2148.0</ele>
        <time>2021-04-17T14:35:58Z</time>
      </trkpt>
      <trkpt lat="4.9393410" lon="-75.4999940">
        <ele>2148.4</ele>
        <time>2021-04-17T14:36:00Z</time>
      </trkpt>
      <trkpt lat="4.9393270" lon="-75.4999910">
        <ele>2148.6</ele>
        <time>2021-04-17T14:36:01Z</time>
      </trkpt>
      <trkpt lat="4.9393000" lon="-75.4999620">
        <ele>2149.0</ele>
        <time>2021-04-17T14:36:04Z</time>
      </trkpt>
      <trkpt lat="4.9392880" lon="-75.4999360">
        <ele>2149.6</ele>
        <time>2021-04-17T14:36:06Z</time>
      </trkpt>
      <trkpt lat="4.9392670" lon="-75.4998670">
        <ele>2150.8</ele>
        <time>2021-04-17T14:36:11Z</time>
      </trkpt>
      <trkpt lat="4.9392630" lon="-75.4998380">
        <ele>2151.2</ele>
        <time>2021-04-17T14:36:13Z</time>
      </trkpt>
      <trkpt lat="4.9392560" lon="-75.4997780">
        <ele>2152.0</ele>
        <time>2021-04-17T14:36:17Z</time>
      </trkpt>
      <trkpt lat="4.9392440" lon="-75.4997370">
        <ele>2152.4</ele>
        <time>2021-04-17T14:36:20Z</time>
      </trkpt>
      <trkpt lat="4.9392240" lon="-75.4996670">
        <ele>2153.2</ele>
        <time>2021-04-17T14:36:25Z</time>
      </trkpt>
      <trkpt lat="4.9392200" lon="-75.4996570">
        <ele>2153.2</ele>
        <time>2021-04-17T14:36:26Z</time>
      </trkpt>
      <trkpt lat="4.9391870" lon="-75.4996100">
        <ele>2154.2</ele>
        <time>2021-04-17T14:36:31Z</time>
      </trkpt>
      <trkpt lat="4.9391650" lon="-75.4995840">
        <ele>2154.8</ele>
        <time>2021-04-17T14:36:34Z</time>
      </trkpt>
      <trkpt lat="4.9391420" lon="-75.4995590">
        <ele>2155.2</ele>
        <time>2021-04-17T14:36:37Z</time>
      </trkpt>
      <trkpt lat="4.9391020" lon="-75.4995180">
        <ele>2156.0</ele>
        <time>2021-04-17T14:36:42Z</time>
      </trkpt>
      <trkpt lat="4.9390690" lon="-75.4994940">
        <ele>2156.4</ele>
        <time>2021-04-17T14:36:45Z</time>
      </trkpt>
      <trkpt lat="4.9390160" lon="-75.4994530">
        <ele>2157.4</ele>
        <time>2021-04-17T14:36:50Z</time>
      </trkpt>
      <trkpt lat="4.9389550" lon="-75.4994240">
        <ele>2158.4</ele>
        <time>2021-04-17T14:36:55Z</time>
      </trkpt>
      <trkpt lat="4.9389310" lon="-75.4994170">
        <ele>2158.8</ele>
        <time>2021-04-17T14:36:57Z</time>
      </trkpt>
      <trkpt lat="4.9388900" lon="-75.4994080">
        <ele>2159.8</ele>
        <time>2021-04-17T14:37:00Z</time>
      </trkpt>
      <trkpt lat="4.9388350" lon="-75.4993890">
        <ele>2160.8</ele>
        <time>2021-04-17T14:37:04Z</time>
      </trkpt>
      <trkpt lat="4.9388210" lon="-75.4993840">
        <ele>2161.0</ele>
        <time>2021-04-17T14:37:05Z</time>
      </trkpt>
      <trkpt lat="4.9387760" lon="-75.4993440">
        <ele>2161.8</ele>
        <time>2021-04-17T14:37:09Z</time>
      </trkpt>
      <trkpt lat="4.9387600" lon="-75.4993180">
        <ele>2162.4</ele>
        <time>2021-04-17T14:37:11Z</time>
      </trkpt>
      <trkpt lat="4.9387490" lon="-75.4992920">
        <ele>2163.0</ele>
        <time>2021-04-17T14:37:13Z</time>
      </trkpt>
      <trkpt lat="4.9387250" lon="-75.4992270">
        <ele>2164.0</ele>
        <time>2021-04-17T14:37:18Z</time>
      </trkpt>
      <trkpt lat="4.9387190" lon="-75.4992150">
        <ele>2164.4</ele>
        <time>2021-04-17T14:37:19Z</time>
      </trkpt>
      <trkpt lat="4.9386950" lon="-75.4991700">
        <ele>2165.0</ele>
        <time>2021-04-17T14:37:23Z</time>
      </trkpt>
      <trkpt lat="4.9386510" lon="-75.4991130">
        <ele>2166.2</ele>
        <time>2021-04-17T14:37:29Z</time>
      </trkpt>
      <trkpt lat="4.9385970" lon="-75.4990820">
        <ele>2167.2</ele>
        <time>2021-04-17T14:37:34Z</time>
      </trkpt>
      <trkpt lat="4.9385350" lon="-75.4990550">
        <ele>2168.2</ele>
        <time>2021-04-17T14:37:39Z</time>
      </trkpt>
      <trkpt lat="4.9385240" lon="-75.4990510">
        <ele>2168.4</ele>
        <time>2021-04-17T14:37:40Z</time>
      </trkpt>
      <trkpt lat="4.9384830" lon="-75.4990320">
        <ele>2169.4</ele>
        <time>2021-04-17T14:37:44Z</time>
      </trkpt>
      <trkpt lat="4.9384590" lon="-75.4990200">
        <ele>2170.2</ele>
        <time>2021-04-17T14:37:47Z</time>
      </trkpt>
      <trkpt lat="4.9384400" lon="-75.4990090">
        <ele>2170.4</ele>
        <time>2021-04-17T14:37:49Z</time>
      </trkpt>
      <trkpt lat="4.9383950" lon="-75.4989710">
        <ele>2171.6</ele>
        <time>2021-04-17T14:37:54Z</time>
      </trkpt>
      <trkpt lat="4.9383500" lon="-75.4989200">
        <ele>2172.6</ele>
        <time>2021-04-17T14:38:00Z</time>
      </trkpt>
      <trkpt lat="4.9383440" lon="-75.4989090">
        <ele>2172.8</ele>
        <time>2021-04-17T14:38:01Z</time>
      </trkpt>
      <trkpt lat="4.9383230" lon="-75.4988670">
        <ele>2173.6</ele>
        <time>2021-04-17T14:38:05Z</time>
      </trkpt>
      <trkpt lat="4.9383000" lon="-75.4988340">
        <ele>2174.4</ele>
        <time>2021-04-17T14:38:09Z</time>
      </trkpt>
      <trkpt lat="4.9382850" lon="-75.4988050">
        <ele>2174.8</ele>
        <time>2021-04-17T14:38:12Z</time>
      </trkpt>
      <trkpt lat="4.9382640" lon="-75.4987590">
        <ele>2176.0</ele>
        <time>2021-04-17T14:38:16Z</time>
      </trkpt>
      <trkpt lat="4.9382580" lon="-75.4987510">
        <ele>2176.2</ele>
        <time>2021-04-17T14:38:17Z</time>
      </trkpt>
      <trkpt lat="4.9382360" lon="-75.4987370">
        <ele>2177.2</ele>
        <time>2021-04-17T14:38:20Z</time>
      </trkpt>
      <trkpt lat="4.9382140" lon="-75.4987210">
        <ele>2177.8</ele>
        <time>2021-04-17T14:38:23Z</time>
      </trkpt>
      <trkpt lat="4.9381970" lon="-75.4987070">
        <ele>2178.4</ele>
        <time>2021-04-17T14:38:25Z</time>
      </trkpt>
      <trkpt lat="4.9381610" lon="-75.4986890">
        <ele>2179.0</ele>
        <time>2021-04-17T14:38:29Z</time>
      </trkpt>
      <trkpt lat="4.9381270" lon="-75.4986760">
        <ele>2179.2</ele>
        <time>2021-04-17T14:38:32Z</time>
      </trkpt>
      <trkpt lat="4.9380550" lon="-75.4986460">
        <ele>2180.4</ele>
        <time>2021-04-17T14:38:40Z</time>
      </trkpt>
      <trkpt lat="4.9380490" lon="-75.4986410">
        <ele>2180.6</ele>
        <time>2021-04-17T14:38:41Z</time>
      </trkpt>
      <trkpt lat="4.9380200" lon="-75.4986200">
        <ele>2181.4</ele>
        <time>2021-04-17T14:38:45Z</time>
      </trkpt>
      <trkpt lat="4.9379680" lon="-75.4985770">
        <ele>2182.6</ele>
        <time>2021-04-17T14:38:51Z</time>
      </trkpt>
      <trkpt lat="4.9379440" lon="-75.4985610">
        <ele>2183.0</ele>
        <time>2021-04-17T14:38:53Z</time>
      </trkpt>
      <trkpt lat="4.9379030" lon="-75.4985310">
        <ele>2183.6</ele>
        <time>2021-04-17T14:38:57Z</time>
      </trkpt>
      <trkpt lat="4.9378470" lon="-75.4984950">
        <ele>2184.6</ele>
        <time>2021-04-17T14:39:02Z</time>
      </trkpt>
      <trkpt lat="4.9378270" lon="-75.4984770">
        <ele>2185.4</ele>
        <time>2021-04-17T14:39:05Z</time>
      </trkpt>
      <trkpt lat="4.9378100" lon="-75.4984630">
        <ele>2185.8</ele>
        <time>2021-04-17T14:39:07Z</time>
      </trkpt>
      <trkpt lat="4.9377730" lon="-75.4984330">
        <ele>2187.0</ele>
        <time>2021-04-17T14:39:12Z</time>
      </trkpt>
      <trkpt lat="4.9377190" lon="-75.4984030">
        <ele>2188.0</ele>
        <time>2021-04-17T14:39:17Z</time>
      </trkpt>
      <trkpt lat="4.9377070" lon="-75.4983980">
        <ele>2188.2</ele>
        <time>2021-04-17T14:39:18Z</time>
      </trkpt>
      <trkpt lat="4.9376870" lon="-75.4983690">
        <ele>2189.2</ele>
        <time>2021-04-17T14:39:21Z</time>
      </trkpt>
      <trkpt lat="4.9376610" lon="-75.4983200">
        <ele>2190.4</ele>
        <time>2021-04-17T14:39:26Z</time>
      </trkpt>
      <trkpt lat="4.9376580" lon="-75.4983080">
        <ele>2190.8</ele>
        <time>2021-04-17T14:39:27Z</time>
      </trkpt>
      <trkpt lat="4.9376230" lon="-75.4982590">
        <ele>2191.4</ele>
        <time>2021-04-17T14:39:32Z</time>
      </trkpt>
      <trkpt lat="4.9375990" lon="-75.4982140">
        <ele>2192.2</ele>
        <time>2021-04-17T14:39:36Z</time>
      </trkpt>
      <trkpt lat="4.9375850" lon="-75.4981930">
        <ele>2192.4</ele>
        <time>2021-04-17T14:39:38Z</time>
      </trkpt>
      <trkpt lat="4.9375520" lon="-75.4981500">
        <ele>2193.4</ele>
        <time>2021-04-17T14:39:43Z</time>
      </trkpt>
      <trkpt lat="4.9375040" lon="-75.4980940">
        <ele>2194.6</ele>
        <time>2021-04-17T14:39:49Z</time>
      </trkpt>
      <trkpt lat="4.9374790" lon="-75.4980790">
        <ele>2195.2</ele>
        <time>2021-04-17T14:39:51Z</time>
      </trkpt>
      <trkpt lat="4.9374320" lon="-75.4980520">
        <ele>2195.8</ele>
        <time>2021-04-17T14:39:55Z</time>
      </trkpt>
      <trkpt lat="4.9373870" lon="-75.4980420">
        <ele>2196.6</ele>
        <time>2021-04-17T14:39:58Z</time>
      </trkpt>
      <trkpt lat="4.9373710" lon="-75.4980400">
        <ele>2197.0</ele>
        <time>2021-04-17T14:39:59Z</time>
      </trkpt>
      <trkpt lat="4.9373170" lon="-75.4980240">
        <ele>2197.8</ele>
        <time>2021-04-17T14:40:03Z</time>
      </trkpt>
      <trkpt lat="4.9373050" lon="-75.4980220">
        <ele>2198.2</ele>
        <time>2021-04-17T14:40:04Z</time>
      </trkpt>
      <trkpt lat="4.9372930" lon="-75.4980210">
        <ele>2198.4</ele>
        <time>2021-04-17T14:40:05Z</time>
      </trkpt>
      <trkpt lat="4.9372620" lon="-75.4980310">
        <ele>2199.2</ele>
        <time>2021-04-17T14:40:08Z</time>
      </trkpt>
      <trkpt lat="4.9372470" lon="-75.4980400">
        <ele>2199.6</ele>
        <time>2021-04-17T14:40:10Z</time>
      </trkpt>
      <trkpt lat="4.9372200" lon="-75.4980470">
        <ele>2200.2</ele>
        <time>2021-04-17T14:40:13Z</time>
      </trkpt>
      <trkpt lat="4.9371930" lon="-75.4980610">
        <ele>2200.8</ele>
        <time>2021-04-17T14:40:16Z</time>
      </trkpt>
      <trkpt lat="4.9371680" lon="-75.4980720">
        <ele>2201.0</ele>
        <time>2021-04-17T14:40:19Z</time>
      </trkpt>
      <trkpt lat="4.9371320" lon="-75.4980910">
        <ele>2201.8</ele>
        <time>2021-04-17T14:40:23Z</time>
      </trkpt>
      <trkpt lat="4.9371160" lon="-75.4981030">
        <ele>2202.2</ele>
        <time>2021-04-17T14:40:25Z</time>
      </trkpt>
      <trkpt lat="4.9370740" lon="-75.4981200">
        <ele>2203.4</ele>
        <time>2021-04-17T14:40:30Z</time>
      </trkpt>
      <trkpt lat="4.9370610" lon="-75.4981220">
        <ele>2203.4</ele>
        <time>2021-04-17T14:40:31Z</time>
      </trkpt>
      <trkpt lat="4.9370250" lon="-75.4981310">
        <ele>2204.0</ele>
        <time>2021-04-17T14:40:34Z</time>
      </trkpt>
      <trkpt lat="4.9369840" lon="-75.4981300">
        <ele>2204.6</ele>
        <time>2021-04-17T14:40:37Z</time>
      </trkpt>
      <trkpt lat="4.9369080" lon="-75.4981300">
        <ele>2205.4</ele>
        <time>2021-04-17T14:40:42Z</time>
      </trkpt>
      <trkpt lat="4.9368790" lon="-75.4981350">
        <ele>2205.6</ele>
        <time>2021-04-17T14:40:44Z</time>
      </trkpt>
      <trkpt lat="4.9368370" lon="-75.4981410">
        <ele>2206.2</ele>
        <time>2021-04-17T14:40:47Z</time>
      </trkpt>
      <trkpt lat="4.9368040" lon="-75.4981480">
        <ele>2206.8</ele>
        <time>2021-04-17T14:40:50Z</time>
      </trkpt>
      <trkpt lat="4.9367640" lon="-75.4981520">
        <ele>2207.4</ele>
        <time>2021-04-17T14:40:54Z</time>
      </trkpt>
      <trkpt lat="4.9367400" lon="-75.4981550">
        <ele>2207.8</ele>
        <time>2021-04-17T14:40:56Z</time>
      </trkpt>
      <trkpt lat="4.9367170" lon="-75.4981530">
        <ele>2208.4</ele>
        <time>2021-04-17T14:40:58Z</time>
      </trkpt>
      <trkpt lat="4.9366880" lon="-75.4981430">
        <ele>2208.8</ele>
        <time>2021-04-17T14:41:00Z</time>
      </trkpt>
      <trkpt lat="4.9366710" lon="-75.4981390">
        <ele>2209.0</ele>
        <time>2021-04-17T14:41:01Z</time>
      </trkpt>
      <trkpt lat="4.9366230" lon="-75.4981290">
        <ele>2209.8</ele>
        <time>2021-04-17T14:41:04Z</time>
      </trkpt>
      <trkpt lat="4.9365920" lon="-75.4981270">
        <ele>2210.2</ele>
        <time>2021-04-17T14:41:06Z</time>
      </trkpt>
      <trkpt lat="4.9365780" lon="-75.4981230">
        <ele>2210.2</ele>
        <time>2021-04-17T14:41:07Z</time>
      </trkpt>
      <trkpt lat="4.9365150" lon="-75.4980990">
        <ele>2210.6</ele>
        <time>2021-04-17T14:41:12Z</time>
      </trkpt>
      <trkpt lat="4.9365040" lon="-75.4980950">
        <ele>2210.8</ele>
        <time>2021-04-17T14:41:13Z</time>
      </trkpt>
      <trkpt lat="4.9364910" lon="-75.4980880">
        <ele>2211.0</ele>
        <time>2021-04-17T14:41:14Z</time>
      </trkpt>
      <trkpt lat="4.9364300" lon="-75.4980630">
        <ele>2211.8</ele>
        <time>2021-04-17T14:41:19Z</time>
      </trkpt>
      <trkpt lat="4.9364180" lon="-75.4980620">
        <ele>2212.0</ele>
        <time>2021-04-17T14:41:20Z</time>
      </trkpt>
      <trkpt lat="4.9363380" lon="-75.4980340">
        <ele>2213.0</ele>
        <time>2021-04-17T14:41:26Z</time>
      </trkpt>
      <trkpt lat="4.9363240" lon="-75.4980270">
        <ele>2213.2</ele>
        <time>2021-04-17T14:41:27Z</time>
      </trkpt>
      <trkpt lat="4.9362730" lon="-75.4979740">
        <ele>2214.0</ele>
        <time>2021-04-17T14:41:32Z</time>
      </trkpt>
      <trkpt lat="4.9362700" lon="-75.4979610">
        <ele>2214.2</ele>
        <time>2021-04-17T14:41:33Z</time>
      </trkpt>
      <trkpt lat="4.9362390" lon="-75.4979040">
        <ele>2215.2</ele>
        <time>2021-04-17T14:41:37Z</time>
      </trkpt>
      <trkpt lat="4.9362310" lon="-75.4978930">
        <ele>2215.4</ele>
        <time>2021-04-17T14:41:38Z</time>
      </trkpt>
      <trkpt lat="4.9361920" lon="-75.4978540">
        <ele>2216.4</ele>
        <time>2021-04-17T14:41:42Z</time>
      </trkpt>
      <trkpt lat="4.9361670" lon="-75.4978390">
        <ele>2216.8</ele>
        <time>2021-04-17T14:41:44Z</time>
      </trkpt>
      <trkpt lat="4.9361540" lon="-75.4978320">
        <ele>2217.0</ele>
        <time>2021-04-17T14:41:45Z</time>
      </trkpt>
      <trkpt lat="4.9361250" lon="-75.4978230">
        <ele>2217.4</ele>
        <time>2021-04-17T14:41:47Z</time>
      </trkpt>
      <trkpt lat="4.9360350" lon="-75.4978230">
        <ele>2218.4</ele>
        <time>2021-04-17T14:41:52Z</time>
      </trkpt>
      <trkpt lat="4.9359710" lon="-75.4978540">
        <ele>2219.6</ele>
        <time>2021-04-17T14:41:57Z</time>
      </trkpt>
      <trkpt lat="4.9359480" lon="-75.4978730">
        <ele>2219.8</ele>
        <time>2021-04-17T14:41:59Z</time>
      </trkpt>
      <trkpt lat="4.9359050" lon="-75.4979150">
        <ele>2220.4</ele>
        <time>2021-04-17T14:42:03Z</time>
      </trkpt>
      <trkpt lat="4.9358720" lon="-75.4979440">
        <ele>2221.0</ele>
        <time>2021-04-17T14:42:06Z</time>
      </trkpt>
      <trkpt lat="4.9358310" lon="-75.4979740">
        <ele>2221.4</ele>
        <time>2021-04-17T14:42:09Z</time>
      </trkpt>
      <trkpt lat="4.9357910" lon="-75.4979960">
        <ele>2222.2</ele>
        <time>2021-04-17T14:42:12Z</time>
      </trkpt>
      <trkpt lat="4.9357590" lon="-75.4980160">
        <ele>2222.6</ele>
        <time>2021-04-17T14:42:14Z</time>
      </trkpt>
      <trkpt lat="4.9357110" lon="-75.4980320">
        <ele>2223.4</ele>
        <time>2021-04-17T14:42:17Z</time>
      </trkpt>
      <trkpt lat="4.9356960" lon="-75.4980340">
        <ele>2223.4</ele>
        <time>2021-04-17T14:42:18Z</time>
      </trkpt>
      <trkpt lat="4.9356680" lon="-75.4980360">
        <ele>2223.8</ele>
        <time>2021-04-17T14:42:20Z</time>
      </trkpt>
      <trkpt lat="4.9356140" lon="-75.4980370">
        <ele>2224.6</ele>
        <time>2021-04-17T14:42:24Z</time>
      </trkpt>
      <trkpt lat="4.9355860" lon="-75.4980510">
        <ele>2224.8</ele>
        <time>2021-04-17T14:42:26Z</time>
      </trkpt>
      <trkpt lat="4.9355400" lon="-75.4980680">
        <ele>2225.4</ele>
        <time>2021-04-17T14:42:29Z</time>
      </trkpt>
      <trkpt lat="4.9355240" lon="-75.4980730">
        <ele>2225.6</ele>
        <time>2021-04-17T14:42:30Z</time>
      </trkpt>
      <trkpt lat="4.9354860" lon="-75.4980940">
        <ele>2226.0</ele>
        <time>2021-04-17T14:42:33Z</time>
      </trkpt>
      <trkpt lat="4.9354580" lon="-75.4981150">
        <ele>2226.8</ele>
        <time>2021-04-17T14:42:36Z</time>
      </trkpt>
      <trkpt lat="4.9354530" lon="-75.4981260">
        <ele>2227.2</ele>
        <time>2021-04-17T14:42:37Z</time>
      </trkpt>
      <trkpt lat="4.9354320" lon="-75.4981540">
        <ele>2228.4</ele>
        <time>2021-04-17T14:42:41Z</time>
      </trkpt>
      <trkpt lat="4.9354190" lon="-75.4981730">
        <ele>2228.8</ele>
        <time>2021-04-17T14:42:43Z</time>
      </trkpt>
      <trkpt lat="4.9354040" lon="-75.4981870">
        <ele>2229.2</ele>
        <time>2021-04-17T14:42:45Z</time>
      </trkpt>
      <trkpt lat="4.9353930" lon="-75.4981950">
        <ele>2229.6</ele>
        <time>2021-04-17T14:42:46Z</time>
      </trkpt>
      <trkpt lat="4.9353760" lon="-75.4982110">
        <ele>2229.8</ele>
        <time>2021-04-17T14:42:48Z</time>
      </trkpt>
      <trkpt lat="4.9353700" lon="-75.4982180">
        <ele>2230.0</ele>
        <time>2021-04-17T14:42:49Z</time>
      </trkpt>
      <trkpt lat="4.9353440" lon="-75.4982390">
        <ele>2230.6</ele>
        <time>2021-04-17T14:42:52Z</time>
      </trkpt>
      <trkpt lat="4.9353160" lon="-75.4982520">
        <ele>2230.8</ele>
        <time>2021-04-17T14:42:54Z</time>
      </trkpt>
      <trkpt lat="4.9352830" lon="-75.4982720">
        <ele>2231.4</ele>
        <time>2021-04-17T14:42:57Z</time>
      </trkpt>
      <trkpt lat="4.9352720" lon="-75.4982770">
        <ele>2231.6</ele>
        <time>2021-04-17T14:42:58Z</time>
      </trkpt>
      <trkpt lat="4.9352520" lon="-75.4982970">
        <ele>2232.0</ele>
        <time>2021-04-17T14:43:00Z</time>
      </trkpt>
      <trkpt lat="4.9352010" lon="-75.4983580">
        <ele>2232.8</ele>
        <time>2021-04-17T14:43:06Z</time>
      </trkpt>
      <trkpt lat="4.9351920" lon="-75.4983690">
        <ele>2232.8</ele>
        <time>2021-04-17T14:43:07Z</time>
      </trkpt>
      <trkpt lat="4.9351460" lon="-75.4984150">
        <ele>2233.8</ele>
        <time>2021-04-17T14:43:13Z</time>
      </trkpt>
      <trkpt lat="4.9351330" lon="-75.4984220">
        <ele>2234.0</ele>
        <time>2021-04-17T14:43:14Z</time>
      </trkpt>
      <trkpt lat="4.9350330" lon="-75.4984630">
        <ele>2235.0</ele>
        <time>2021-04-17T14:43:20Z</time>
      </trkpt>
      <trkpt lat="4.9350200" lon="-75.4984630">
        <ele>2235.2</ele>
        <time>2021-04-17T14:43:21Z</time>
      </trkpt>
      <trkpt lat="4.9349540" lon="-75.4984660">
        <ele>2235.6</ele>
        <time>2021-04-17T14:43:25Z</time>
      </trkpt>
      <trkpt lat="4.9348670" lon="-75.4984600">
        <ele>2235.6</ele>
        <time>2021-04-17T14:43:28Z</time>
      </trkpt>
      <trkpt lat="4.9347080" lon="-75.4984920">
        <ele>2235.8</ele>
        <time>2021-04-17T14:43:33Z</time>
      </trkpt>
      <trkpt lat="4.9346390" lon="-75.4985190">
        <ele>2235.8</ele>
        <time>2021-04-17T14:43:37Z</time>
      </trkpt>
      <trkpt lat="4.9346050" lon="-75.4985300">
        <ele>2235.8</ele>
        <time>2021-04-17T14:43:39Z</time>
      </trkpt>
      <trkpt lat="4.9345420" lon="-75.4985640">
        <ele>2236.0</ele>
        <time>2021-04-17T14:43:45Z</time>
      </trkpt>
      <trkpt lat="4.9345280" lon="-75.4985640">
        <ele>2236.2</ele>
        <time>2021-04-17T14:43:46Z</time>
      </trkpt>
      <trkpt lat="4.9344670" lon="-75.4985890">
        <ele>2237.0</ele>
        <time>2021-04-17T14:43:50Z</time>
      </trkpt>
      <trkpt lat="4.9344520" lon="-75.4985940">
        <ele>2236.8</ele>
        <time>2021-04-17T14:43:51Z</time>
      </trkpt>
      <trkpt lat="4.9343850" lon="-75.4985980">
        <ele>2237.8</ele>
        <time>2021-04-17T14:43:54Z</time>
      </trkpt>
      <trkpt lat="4.9343190" lon="-75.4986040">
        <ele>2238.4</ele>
        <time>2021-04-17T14:43:57Z</time>
      </trkpt>
      <trkpt lat="4.9342900" lon="-75.4986000">
        <ele>2239.0</ele>
        <time>2021-04-17T14:43:59Z</time>
      </trkpt>
      <trkpt lat="4.9342290" lon="-75.4985910">
        <ele>2240.0</ele>
        <time>2021-04-17T14:44:03Z</time>
      </trkpt>
      <trkpt lat="4.9342150" lon="-75.4985900">
        <ele>2240.2</ele>
        <time>2021-04-17T14:44:04Z</time>
      </trkpt>
      <trkpt lat="4.9341690" lon="-75.4985980">
        <ele>2241.0</ele>
        <time>2021-04-17T14:44:07Z</time>
      </trkpt>
      <trkpt lat="4.9341380" lon="-75.4986000">
        <ele>2241.4</ele>
        <time>2021-04-17T14:44:09Z</time>
      </trkpt>
      <trkpt lat="4.9341160" lon="-75.4986050">
        <ele>2241.8</ele>
        <time>2021-04-17T14:44:11Z</time>
      </trkpt>
      <trkpt lat="4.9340730" lon="-75.4985960">
        <ele>2242.8</ele>
        <time>2021-04-17T14:44:15Z</time>
      </trkpt>
      <trkpt lat="4.9340570" lon="-75.4985980">
        <ele>2243.0</ele>
        <time>2021-04-17T14:44:16Z</time>
      </trkpt>
      <trkpt lat="4.9340460" lon="-75.4985970">
        <ele>2243.4</ele>
        <time>2021-04-17T14:44:17Z</time>
      </trkpt>
      <trkpt lat="4.9340070" lon="-75.4985870">
        <ele>2244.2</ele>
        <time>2021-04-17T14:44:20Z</time>
      </trkpt>
      <trkpt lat="4.9339940" lon="-75.4985820">
        <ele>2244.6</ele>
        <time>2021-04-17T14:44:21Z</time>
      </trkpt>
      <trkpt lat="4.9339790" lon="-75.4985780">
        <ele>2245.0</ele>
        <time>2021-04-17T14:44:22Z</time>
      </trkpt>
      <trkpt lat="4.9339560" lon="-75.4985750">
        <ele>2245.4</ele>
        <time>2021-04-17T14:44:23Z</time>
      </trkpt>
      <trkpt lat="4.9338740" lon="-75.4985690">
        <ele>2246.8</ele>
        <time>2021-04-17T14:44:27Z</time>
      </trkpt>
      <trkpt lat="4.9338640" lon="-75.4985700">
        <ele>2247.2</ele>
        <time>2021-04-17T14:44:28Z</time>
      </trkpt>
      <trkpt lat="4.9338360" lon="-75.4985610">
        <ele>2248.0</ele>
        <time>2021-04-17T14:44:30Z</time>
      </trkpt>
      <trkpt lat="4.9338070" lon="-75.4985550">
        <ele>2248.8</ele>
        <time>2021-04-17T14:44:32Z</time>
      </trkpt>
      <trkpt lat="4.9337940" lon="-75.4985520">
        <ele>2249.4</ele>
        <time>2021-04-17T14:44:33Z</time>
      </trkpt>
      <trkpt lat="4.9337410" lon="-75.4985500">
        <ele>2250.6</ele>
        <time>2021-04-17T14:44:37Z</time>
      </trkpt>
      <trkpt lat="4.9337190" lon="-75.4985510">
        <ele>2250.8</ele>
        <time>2021-04-17T14:44:39Z</time>
      </trkpt>
      <trkpt lat="4.9336760" lon="-75.4985500">
        <ele>2251.6</ele>
        <time>2021-04-17T14:44:43Z</time>
      </trkpt>
      <trkpt lat="4.9336440" lon="-75.4985380">
        <ele>2251.8</ele>
        <time>2021-04-17T14:44:46Z</time>
      </trkpt>
      <trkpt lat="4.9335680" lon="-75.4985180">
        <ele>2252.6</ele>
        <time>2021-04-17T14:44:52Z</time>
      </trkpt>
      <trkpt lat="4.9335570" lon="-75.4985130">
        <ele>2252.8</ele>
        <time>2021-04-17T14:44:53Z</time>
      </trkpt>
      <trkpt lat="4.9334870" lon="-75.4984810">
        <ele>2253.6</ele>
        <time>2021-04-17T14:44:59Z</time>
      </trkpt>
      <trkpt lat="4.9334750" lon="-75.4984760">
        <ele>2253.8</ele>
        <time>2021-04-17T14:45:00Z</time>
      </trkpt>
      <trkpt lat="4.9333930" lon="-75.4984780">
        <ele>2254.8</ele>
        <time>2021-04-17T14:45:06Z</time>
      </trkpt>
      <trkpt lat="4.9333760" lon="-75.4984760">
        <ele>2255.0</ele>
        <time>2021-04-17T14:45:07Z</time>
      </trkpt>
      <trkpt lat="4.9332700" lon="-75.4984490">
        <ele>2255.8</ele>
        <time>2021-04-17T14:45:14Z</time>
      </trkpt>
      <trkpt lat="4.9332400" lon="-75.4984390">
        <ele>2256.2</ele>
        <time>2021-04-17T14:45:16Z</time>
      </trkpt>
      <trkpt lat="4.9331900" lon="-75.4984230">
        <ele>2256.6</ele>
        <time>2021-04-17T14:45:20Z</time>
      </trkpt>
      <trkpt lat="4.9331600" lon="-75.4984250">
        <ele>2257.0</ele>
        <time>2021-04-17T14:45:22Z</time>
      </trkpt>
      <trkpt lat="4.9331450" lon="-75.4984180">
        <ele>2257.2</ele>
        <time>2021-04-17T14:45:23Z</time>
      </trkpt>
      <trkpt lat="4.9330620" lon="-75.4984210">
        <ele>2257.8</ele>
        <time>2021-04-17T14:45:27Z</time>
      </trkpt>
      <trkpt lat="4.9330460" lon="-75.4984220">
        <ele>2258.0</ele>
        <time>2021-04-17T14:45:28Z</time>
      </trkpt>
      <trkpt lat="4.9329590" lon="-75.4984540">
        <ele>2258.8</ele>
        <time>2021-04-17T14:45:34Z</time>
      </trkpt>
      <trkpt lat="4.9329440" lon="-75.4984600">
        <ele>2259.4</ele>
        <time>2021-04-17T14:45:35Z</time>
      </trkpt>
      <trkpt lat="4.9328800" lon="-75.4984830">
        <ele>2260.4</ele>
        <time>2021-04-17T14:45:40Z</time>
      </trkpt>
      <trkpt lat="4.9328030" lon="-75.4984840">
        <ele>2261.6</ele>
        <time>2021-04-17T14:45:44Z</time>
      </trkpt>
      <trkpt lat="4.9327670" lon="-75.4984850">
        <ele>2261.8</ele>
        <time>2021-04-17T14:45:46Z</time>
      </trkpt>
      <trkpt lat="4.9327160" lon="-75.4984860">
        <ele>2262.6</ele>
        <time>2021-04-17T14:45:49Z</time>
      </trkpt>
      <trkpt lat="4.9326270" lon="-75.4984580">
        <ele>2263.4</ele>
        <time>2021-04-17T14:45:53Z</time>
      </trkpt>
      <trkpt lat="4.9326070" lon="-75.4984500">
        <ele>2263.6</ele>
        <time>2021-04-17T14:45:55Z</time>
      </trkpt>
      <trkpt lat="4.9324730" lon="-75.4984350">
        <ele>2264.2</ele>
        <time>2021-04-17T14:46:01Z</time>
      </trkpt>
      <trkpt lat="4.9324280" lon="-75.4983830">
        <ele>2264.4</ele>
        <time>2021-04-17T14:46:03Z</time>
      </trkpt>
      <trkpt lat="4.9324080" lon="-75.4983470">
        <ele>2264.4</ele>
        <time>2021-04-17T14:46:05Z</time>
      </trkpt>
      <trkpt lat="4.9324080" lon="-75.4983470">
        <ele>2264.8</ele>
        <time>2021-04-17T14:46:06Z</time>
      </trkpt>
      <trkpt lat="4.9323720" lon="-75.4982410">
        <ele>2265.6</ele>
        <time>2021-04-17T14:46:09Z</time>
      </trkpt>
      <trkpt lat="4.9323440" lon="-75.4981560">
        <ele>2266.4</ele>
        <time>2021-04-17T14:46:12Z</time>
      </trkpt>
      <trkpt lat="4.9323060" lon="-75.4980870">
        <ele>2266.6</ele>
        <time>2021-04-17T14:46:14Z</time>
      </trkpt>
      <trkpt lat="4.9322060" lon="-75.4979390">
        <ele>2267.4</ele>
        <time>2021-04-17T14:46:19Z</time>
      </trkpt>
      <trkpt lat="4.9321540" lon="-75.4978980">
        <ele>2267.8</ele>
        <time>2021-04-17T14:46:21Z</time>
      </trkpt>
      <trkpt lat="4.9320710" lon="-75.4978070">
        <ele>2268.8</ele>
        <time>2021-04-17T14:46:25Z</time>
      </trkpt>
      <trkpt lat="4.9319780" lon="-75.4976930">
        <ele>2270.0</ele>
        <time>2021-04-17T14:46:30Z</time>
      </trkpt>
      <trkpt lat="4.9319600" lon="-75.4976710">
        <ele>2270.0</ele>
        <time>2021-04-17T14:46:31Z</time>
      </trkpt>
      <trkpt lat="4.9318960" lon="-75.4976090">
        <ele>2270.8</ele>
        <time>2021-04-17T14:46:34Z</time>
      </trkpt>
      <trkpt lat="4.9317920" lon="-75.4975630">
        <ele>2271.8</ele>
        <time>2021-04-17T14:46:38Z</time>
      </trkpt>
      <trkpt lat="4.9316080" lon="-75.4975170">
        <ele>2273.0</ele>
        <time>2021-04-17T14:46:43Z</time>
      </trkpt>
      <trkpt lat="4.9315250" lon="-75.4974960">
        <ele>2273.2</ele>
        <time>2021-04-17T14:46:45Z</time>
      </trkpt>
      <trkpt lat="4.9314330" lon="-75.4974670">
        <ele>2273.4</ele>
        <time>2021-04-17T14:46:47Z</time>
      </trkpt>
      <trkpt lat="4.9313040" lon="-75.4974000">
        <ele>2273.4</ele>
        <time>2021-04-17T14:46:50Z</time>
      </trkpt>
      <trkpt lat="4.9312110" lon="-75.4972420">
        <ele>2273.4</ele>
        <time>2021-04-17T14:46:54Z</time>
      </trkpt>
      <trkpt lat="4.9311930" lon="-75.4972020">
        <ele>2273.6</ele>
        <time>2021-04-17T14:46:55Z</time>
      </trkpt>
      <trkpt lat="4.9310920" lon="-75.4971010">
        <ele>2273.6</ele>
        <time>2021-04-17T14:46:59Z</time>
      </trkpt>
      <trkpt lat="4.9309610" lon="-75.4971290">
        <ele>2273.8</ele>
        <time>2021-04-17T14:47:03Z</time>
      </trkpt>
      <trkpt lat="4.9308690" lon="-75.4971570">
        <ele>2274.2</ele>
        <time>2021-04-17T14:47:06Z</time>
      </trkpt>
      <trkpt lat="4.9307510" lon="-75.4971800">
        <ele>2274.8</ele>
        <time>2021-04-17T14:47:10Z</time>
      </trkpt>
      <trkpt lat="4.9306950" lon="-75.4971830">
        <ele>2275.2</ele>
        <time>2021-04-17T14:47:12Z</time>
      </trkpt>
      <trkpt lat="4.9305920" lon="-75.4972190">
        <ele>2275.6</ele>
        <time>2021-04-17T14:47:16Z</time>
      </trkpt>
      <trkpt lat="4.9305380" lon="-75.4972360">
        <ele>2276.0</ele>
        <time>2021-04-17T14:47:18Z</time>
      </trkpt>
      <trkpt lat="4.9304000" lon="-75.4972640">
        <ele>2277.2</ele>
        <time>2021-04-17T14:47:23Z</time>
      </trkpt>
      <trkpt lat="4.9303710" lon="-75.4972650">
        <ele>2277.6</ele>
        <time>2021-04-17T14:47:24Z</time>
      </trkpt>
      <trkpt lat="4.9302460" lon="-75.4972580">
        <ele>2278.4</ele>
        <time>2021-04-17T14:47:29Z</time>
      </trkpt>
      <trkpt lat="4.9302240" lon="-75.4972570">
        <ele>2278.6</ele>
        <time>2021-04-17T14:47:30Z</time>
      </trkpt>
      <trkpt lat="4.9301040" lon="-75.4972620">
        <ele>2279.4</ele>
        <time>2021-04-17T14:47:35Z</time>
      </trkpt>
      <trkpt lat="4.9300560" lon="-75.4972650">
        <ele>2279.8</ele>
        <time>2021-04-17T14:47:37Z</time>
      </trkpt>
      <trkpt lat="4.9299910" lon="-75.4972610">
        <ele>2280.6</ele>
        <time>2021-04-17T14:47:40Z</time>
      </trkpt>
      <trkpt lat="4.9299120" lon="-75.4972520">
        <ele>2281.6</ele>
        <time>2021-04-17T14:47:44Z</time>
      </trkpt>
      <trkpt lat="4.9298130" lon="-75.4972430">
        <ele>2282.8</ele>
        <time>2021-04-17T14:47:49Z</time>
      </trkpt>
      <trkpt lat="4.9297740" lon="-75.4972370">
        <ele>2283.2</ele>
        <time>2021-04-17T14:47:51Z</time>
      </trkpt>
      <trkpt lat="4.9297250" lon="-75.4972130">
        <ele>2284.0</ele>
        <time>2021-04-17T14:47:54Z</time>
      </trkpt>
      <trkpt lat="4.9296750" lon="-75.4971810">
        <ele>2284.8</ele>
        <time>2021-04-17T14:47:58Z</time>
      </trkpt>
      <trkpt lat="4.9296670" lon="-75.4971730">
        <ele>2285.2</ele>
        <time>2021-04-17T14:47:59Z</time>
      </trkpt>
      <trkpt lat="4.9296490" lon="-75.4971210">
        <ele>2285.6</ele>
        <time>2021-04-17T14:48:02Z</time>
      </trkpt>
      <trkpt lat="4.9296490" lon="-75.4970860">
        <ele>2286.0</ele>
        <time>2021-04-17T14:48:04Z</time>
      </trkpt>
      <trkpt lat="4.9296500" lon="-75.4970630">
        <ele>2286.4</ele>
        <time>2021-04-17T14:48:06Z</time>
      </trkpt>
      <trkpt lat="4.9296480" lon="-75.4970220">
        <ele>2287.2</ele>
        <time>2021-04-17T14:48:12Z</time>
      </trkpt>
      <trkpt lat="4.9296220" lon="-75.4969180">
        <ele>2287.6</ele>
        <time>2021-04-17T14:48:38Z</time>
      </trkpt>
      <trkpt lat="4.9296020" lon="-75.4968300">
        <ele>2288.2</ele>
        <time>2021-04-17T14:48:43Z</time>
      </trkpt>
      <trkpt lat="4.9295900" lon="-75.4968140">
        <ele>2288.4</ele>
        <time>2021-04-17T14:48:44Z</time>
      </trkpt>
      <trkpt lat="4.9295680" lon="-75.4967830">
        <ele>2288.6</ele>
        <time>2021-04-17T14:48:46Z</time>
      </trkpt>
      <trkpt lat="4.9295000" lon="-75.4967430">
        <ele>2289.6</ele>
        <time>2021-04-17T14:48:50Z</time>
      </trkpt>
      <trkpt lat="4.9294550" lon="-75.4967320">
        <ele>2290.2</ele>
        <time>2021-04-17T14:48:52Z</time>
      </trkpt>
      <trkpt lat="4.9293950" lon="-75.4967240">
        <ele>2290.6</ele>
        <time>2021-04-17T14:48:55Z</time>
      </trkpt>
      <trkpt lat="4.9292990" lon="-75.4967180">
        <ele>2291.8</ele>
        <time>2021-04-17T14:49:00Z</time>
      </trkpt>
      <trkpt lat="4.9291440" lon="-75.4967310">
        <ele>2292.8</ele>
        <time>2021-04-17T14:49:08Z</time>
      </trkpt>
      <trkpt lat="4.9290050" lon="-75.4967540">
        <ele>2293.8</ele>
        <time>2021-04-17T14:49:15Z</time>
      </trkpt>
      <trkpt lat="4.9289840" lon="-75.4967580">
        <ele>2294.0</ele>
        <time>2021-04-17T14:49:16Z</time>
      </trkpt>
      <trkpt lat="4.9288910" lon="-75.4967950">
        <ele>2294.2</ele>
        <time>2021-04-17T14:49:20Z</time>
      </trkpt>
      <trkpt lat="4.9288000" lon="-75.4968430">
        <ele>2295.0</ele>
        <time>2021-04-17T14:49:24Z</time>
      </trkpt>
      <trkpt lat="4.9287260" lon="-75.4968810">
        <ele>2295.8</ele>
        <time>2021-04-17T14:49:27Z</time>
      </trkpt>
      <trkpt lat="4.9286460" lon="-75.4969090">
        <ele>2296.2</ele>
        <time>2021-04-17T14:49:30Z</time>
      </trkpt>
      <trkpt lat="4.9285400" lon="-75.4969480">
        <ele>2296.6</ele>
        <time>2021-04-17T14:49:34Z</time>
      </trkpt>
      <trkpt lat="4.9283990" lon="-75.4969610">
        <ele>2297.2</ele>
        <time>2021-04-17T14:49:39Z</time>
      </trkpt>
      <trkpt lat="4.9283990" lon="-75.4969610">
        <ele>2297.2</ele>
        <time>2021-04-17T14:49:40Z</time>
      </trkpt>
      <trkpt lat="4.9282100" lon="-75.4969570">
        <ele>2298.2</ele>
        <time>2021-04-17T14:49:47Z</time>
      </trkpt>
      <trkpt lat="4.9281450" lon="-75.4969600">
        <ele>2299.2</ele>
        <time>2021-04-17T14:49:51Z</time>
      </trkpt>
      <trkpt lat="4.9280790" lon="-75.4969630">
        <ele>2299.8</ele>
        <time>2021-04-17T14:49:54Z</time>
      </trkpt>
      <trkpt lat="4.9280400" lon="-75.4969510">
        <ele>2300.2</ele>
        <time>2021-04-17T14:49:56Z</time>
      </trkpt>
      <trkpt lat="4.9279060" lon="-75.4969500">
        <ele>2301.4</ele>
        <time>2021-04-17T14:50:02Z</time>
      </trkpt>
      <trkpt lat="4.9277940" lon="-75.4969590">
        <ele>2302.6</ele>
        <time>2021-04-17T14:50:07Z</time>
      </trkpt>
      <trkpt lat="4.9277210" lon="-75.4969840">
        <ele>2303.4</ele>
        <time>2021-04-17T14:50:10Z</time>
      </trkpt>
      <trkpt lat="4.9276760" lon="-75.4969850">
        <ele>2303.8</ele>
        <time>2021-04-17T14:50:12Z</time>
      </trkpt>
      <trkpt lat="4.9275810" lon="-75.4969790">
        <ele>2304.2</ele>
        <time>2021-04-17T14:50:14Z</time>
      </trkpt>
      <trkpt lat="4.9275450" lon="-75.4969540">
        <ele>2304.4</ele>
        <time>2021-04-17T14:50:15Z</time>
      </trkpt>
      <trkpt lat="4.9275240" lon="-75.4968980">
        <ele>2304.6</ele>
        <time>2021-04-17T14:50:17Z</time>
      </trkpt>
      <trkpt lat="4.9275300" lon="-75.4968560">
        <ele>2304.8</ele>
        <time>2021-04-17T14:50:19Z</time>
      </trkpt>
      <trkpt lat="4.9275550" lon="-75.4967060">
        <ele>2304.8</ele>
        <time>2021-04-17T14:50:21Z</time>
      </trkpt>
      <trkpt lat="4.9275580" lon="-75.4966270">
        <ele>2305.0</ele>
        <time>2021-04-17T14:50:24Z</time>
      </trkpt>
      <trkpt lat="4.9275080" lon="-75.4965040">
        <ele>2305.4</ele>
        <time>2021-04-17T14:50:29Z</time>
      </trkpt>
      <trkpt lat="4.9274800" lon="-75.4964970">
        <ele>2305.6</ele>
        <time>2021-04-17T14:50:30Z</time>
      </trkpt>
      <trkpt lat="4.9274260" lon="-75.4964980">
        <ele>2306.0</ele>
        <time>2021-04-17T14:50:32Z</time>
      </trkpt>
      <trkpt lat="4.9274030" lon="-75.4965000">
        <ele>2306.0</ele>
        <time>2021-04-17T14:50:33Z</time>
      </trkpt>
      <trkpt lat="4.9273410" lon="-75.4965260">
        <ele>2306.8</ele>
        <time>2021-04-17T14:50:36Z</time>
      </trkpt>
      <trkpt lat="4.9273220" lon="-75.4965430">
        <ele>2307.2</ele>
        <time>2021-04-17T14:50:37Z</time>
      </trkpt>
      <trkpt lat="4.9272680" lon="-75.4965880">
        <ele>2307.8</ele>
        <time>2021-04-17T14:50:39Z</time>
      </trkpt>
      <trkpt lat="4.9272520" lon="-75.4966010">
        <ele>2308.2</ele>
        <time>2021-04-17T14:50:41Z</time>
      </trkpt>
      <trkpt lat="4.9271740" lon="-75.4966630">
        <ele>2309.4</ele>
        <time>2021-04-17T14:50:45Z</time>
      </trkpt>
      <trkpt lat="4.9271540" lon="-75.4966730">
        <ele>2309.6</ele>
        <time>2021-04-17T14:50:46Z</time>
      </trkpt>
      <trkpt lat="4.9270110" lon="-75.4966780">
        <ele>2310.4</ele>
        <time>2021-04-17T14:50:51Z</time>
      </trkpt>
      <trkpt lat="4.9270110" lon="-75.4966780">
        <ele>2310.6</ele>
        <time>2021-04-17T14:50:52Z</time>
      </trkpt>
      <trkpt lat="4.9268400" lon="-75.4966620">
        <ele>2311.0</ele>
        <time>2021-04-17T14:50:58Z</time>
      </trkpt>
      <trkpt lat="4.9267700" lon="-75.4966650">
        <ele>2311.4</ele>
        <time>2021-04-17T14:51:01Z</time>
      </trkpt>
      <trkpt lat="4.9266570" lon="-75.4966120">
        <ele>2312.2</ele>
        <time>2021-04-17T14:51:06Z</time>
      </trkpt>
      <trkpt lat="4.9265900" lon="-75.4965410">
        <ele>2312.4</ele>
        <time>2021-04-17T14:51:10Z</time>
      </trkpt>
      <trkpt lat="4.9265650" lon="-75.4964960">
        <ele>2312.8</ele>
        <time>2021-04-17T14:51:12Z</time>
      </trkpt>
      <trkpt lat="4.9265280" lon="-75.4963990">
        <ele>2313.6</ele>
        <time>2021-04-17T14:51:16Z</time>
      </trkpt>
      <trkpt lat="4.9265120" lon="-75.4963520">
        <ele>2313.8</ele>
        <time>2021-04-17T14:51:18Z</time>
      </trkpt>
      <trkpt lat="4.9264730" lon="-75.4962110">
        <ele>2314.8</ele>
        <time>2021-04-17T14:51:23Z</time>
      </trkpt>
      <trkpt lat="4.9264010" lon="-75.4960670">
        <ele>2315.8</ele>
        <time>2021-04-17T14:51:31Z</time>
      </trkpt>
      <trkpt lat="4.9263840" lon="-75.4960470">
        <ele>2316.0</ele>
        <time>2021-04-17T14:51:32Z</time>
      </trkpt>
      <trkpt lat="4.9262760" lon="-75.4958830">
        <ele>2316.8</ele>
        <time>2021-04-17T14:51:39Z</time>
      </trkpt>
      <trkpt lat="4.9261730" lon="-75.4956700">
        <ele>2317.2</ele>
        <time>2021-04-17T14:51:45Z</time>
      </trkpt>
      <trkpt lat="4.9260130" lon="-75.4955220">
        <ele>2317.6</ele>
        <time>2021-04-17T14:51:52Z</time>
      </trkpt>
      <trkpt lat="4.9258760" lon="-75.4954310">
        <ele>2317.8</ele>
        <time>2021-04-17T14:51:57Z</time>
      </trkpt>
      <trkpt lat="4.9258120" lon="-75.4953860">
        <ele>2318.4</ele>
        <time>2021-04-17T14:52:02Z</time>
      </trkpt>
      <trkpt lat="4.9257890" lon="-75.4953520">
        <ele>2318.8</ele>
        <time>2021-04-17T14:52:04Z</time>
      </trkpt>
      <trkpt lat="4.9257680" lon="-75.4953150">
        <ele>2318.8</ele>
        <time>2021-04-17T14:52:05Z</time>
      </trkpt>
      <trkpt lat="4.9257310" lon="-75.4951820">
        <ele>2319.6</ele>
        <time>2021-04-17T14:52:13Z</time>
      </trkpt>
      <trkpt lat="4.9257100" lon="-75.4951280">
        <ele>2319.6</ele>
        <time>2021-04-17T14:52:15Z</time>
      </trkpt>
      <trkpt lat="4.9256800" lon="-75.4950780">
        <ele>2320.6</ele>
        <time>2021-04-17T14:52:19Z</time>
      </trkpt>
      <trkpt lat="4.9256680" lon="-75.4950600">
        <ele>2321.0</ele>
        <time>2021-04-17T14:52:20Z</time>
      </trkpt>
      <trkpt lat="4.9256140" lon="-75.4949900">
        <ele>2322.0</ele>
        <time>2021-04-17T14:52:24Z</time>
      </trkpt>
      <trkpt lat="4.9255670" lon="-75.4949280">
        <ele>2322.8</ele>
        <time>2021-04-17T14:52:28Z</time>
      </trkpt>
      <trkpt lat="4.9255480" lon="-75.4949020">
        <ele>2323.0</ele>
        <time>2021-04-17T14:52:30Z</time>
      </trkpt>
      <trkpt lat="4.9255130" lon="-75.4948310">
        <ele>2324.0</ele>
        <time>2021-04-17T14:52:35Z</time>
      </trkpt>
      <trkpt lat="4.9255000" lon="-75.4947980">
        <ele>2324.4</ele>
        <time>2021-04-17T14:52:37Z</time>
      </trkpt>
      <trkpt lat="4.9254830" lon="-75.4947570">
        <ele>2325.0</ele>
        <time>2021-04-17T14:52:39Z</time>
      </trkpt>
      <trkpt lat="4.9254610" lon="-75.4947020">
        <ele>2326.0</ele>
        <time>2021-04-17T14:52:44Z</time>
      </trkpt>
      <trkpt lat="4.9254490" lon="-75.4946790">
        <ele>2326.6</ele>
        <time>2021-04-17T14:52:46Z</time>
      </trkpt>
      <trkpt lat="4.9254400" lon="-75.4946520">
        <ele>2327.2</ele>
        <time>2021-04-17T14:52:48Z</time>
      </trkpt>
      <trkpt lat="4.9254150" lon="-75.4946020">
        <ele>2328.2</ele>
        <time>2021-04-17T14:52:52Z</time>
      </trkpt>
      <trkpt lat="4.9254030" lon="-75.4945810">
        <ele>2328.4</ele>
        <time>2021-04-17T14:52:54Z</time>
      </trkpt>
      <trkpt lat="4.9253750" lon="-75.4945280">
        <ele>2329.4</ele>
        <time>2021-04-17T14:52:58Z</time>
      </trkpt>
      <trkpt lat="4.9253670" lon="-75.4945010">
        <ele>2329.4</ele>
        <time>2021-04-17T14:52:59Z</time>
      </trkpt>
      <trkpt lat="4.9253670" lon="-75.4945010">
        <ele>2329.6</ele>
        <time>2021-04-17T14:53:00Z</time>
      </trkpt>
      <trkpt lat="4.9253490" lon="-75.4944450">
        <ele>2330.2</ele>
        <time>2021-04-17T14:53:03Z</time>
      </trkpt>
      <trkpt lat="4.9253210" lon="-75.4943970">
        <ele>2331.2</ele>
        <time>2021-04-17T14:53:08Z</time>
      </trkpt>
      <trkpt lat="4.9253020" lon="-75.4943770">
        <ele>2331.2</ele>
        <time>2021-04-17T14:53:09Z</time>
      </trkpt>
      <trkpt lat="4.9252520" lon="-75.4943210">
        <ele>2332.4</ele>
        <time>2021-04-17T14:53:15Z</time>
      </trkpt>
      <trkpt lat="4.9251820" lon="-75.4942630">
        <ele>2333.4</ele>
        <time>2021-04-17T14:53:21Z</time>
      </trkpt>
      <trkpt lat="4.9251470" lon="-75.4942370">
        <ele>2333.8</ele>
        <time>2021-04-17T14:53:23Z</time>
      </trkpt>
      <trkpt lat="4.9251110" lon="-75.4942070">
        <ele>2334.6</ele>
        <time>2021-04-17T14:53:27Z</time>
      </trkpt>
      <trkpt lat="4.9250520" lon="-75.4941570">
        <ele>2335.4</ele>
        <time>2021-04-17T14:53:32Z</time>
      </trkpt>
      <trkpt lat="4.9250400" lon="-75.4941470">
        <ele>2335.6</ele>
        <time>2021-04-17T14:53:33Z</time>
      </trkpt>
      <trkpt lat="4.9250000" lon="-75.4941220">
        <ele>2336.6</ele>
        <time>2021-04-17T14:53:36Z</time>
      </trkpt>
      <trkpt lat="4.9249580" lon="-75.4941000">
        <ele>2337.2</ele>
        <time>2021-04-17T14:53:39Z</time>
      </trkpt>
      <trkpt lat="4.9249330" lon="-75.4940860">
        <ele>2337.6</ele>
        <time>2021-04-17T14:53:41Z</time>
      </trkpt>
      <trkpt lat="4.9248650" lon="-75.4940600">
        <ele>2338.4</ele>
        <time>2021-04-17T14:53:46Z</time>
      </trkpt>
      <trkpt lat="4.9248390" lon="-75.4940500">
        <ele>2338.8</ele>
        <time>2021-04-17T14:53:48Z</time>
      </trkpt>
      <trkpt lat="4.9247680" lon="-75.4940180">
        <ele>2339.8</ele>
        <time>2021-04-17T14:53:53Z</time>
      </trkpt>
      <trkpt lat="4.9247570" lon="-75.4940130">
        <ele>2340.0</ele>
        <time>2021-04-17T14:53:54Z</time>
      </trkpt>
      <trkpt lat="4.9247230" lon="-75.4940000">
        <ele>2341.0</ele>
        <time>2021-04-17T14:53:57Z</time>
      </trkpt>
      <trkpt lat="4.9246600" lon="-75.4939760">
        <ele>2341.8</ele>
        <time>2021-04-17T14:54:02Z</time>
      </trkpt>
      <trkpt lat="4.9246350" lon="-75.4939680">
        <ele>2342.0</ele>
        <time>2021-04-17T14:54:04Z</time>
      </trkpt>
      <trkpt lat="4.9246080" lon="-75.4939380">
        <ele>2343.0</ele>
        <time>2021-04-17T14:54:07Z</time>
      </trkpt>
      <trkpt lat="4.9246020" lon="-75.4939250">
        <ele>2343.2</ele>
        <time>2021-04-17T14:54:08Z</time>
      </trkpt>
      <trkpt lat="4.9245640" lon="-75.4938720">
        <ele>2344.2</ele>
        <time>2021-04-17T14:54:13Z</time>
      </trkpt>
      <trkpt lat="4.9245430" lon="-75.4938290">
        <ele>2345.2</ele>
        <time>2021-04-17T14:54:16Z</time>
      </trkpt>
      <trkpt lat="4.9244940" lon="-75.4937430">
        <ele>2345.8</ele>
        <time>2021-04-17T14:54:23Z</time>
      </trkpt>
      <trkpt lat="4.9244740" lon="-75.4936930">
        <ele>2346.2</ele>
        <time>2021-04-17T14:54:27Z</time>
      </trkpt>
      <trkpt lat="4.9244550" lon="-75.4936260">
        <ele>2347.0</ele>
        <time>2021-04-17T14:54:32Z</time>
      </trkpt>
      <trkpt lat="4.9244500" lon="-75.4936050">
        <ele>2347.4</ele>
        <time>2021-04-17T14:54:33Z</time>
      </trkpt>
      <trkpt lat="4.9244440" lon="-75.4935860">
        <ele>2348.6</ele>
        <time>2021-04-17T14:54:36Z</time>
      </trkpt>
      <trkpt lat="4.9244140" lon="-75.4935350">
        <ele>2349.6</ele>
        <time>2021-04-17T14:54:41Z</time>
      </trkpt>
      <trkpt lat="4.9243870" lon="-75.4934830">
        <ele>2350.6</ele>
        <time>2021-04-17T14:54:46Z</time>
      </trkpt>
      <trkpt lat="4.9243820" lon="-75.4934740">
        <ele>2350.8</ele>
        <time>2021-04-17T14:54:47Z</time>
      </trkpt>
      <trkpt lat="4.9243020" lon="-75.4934210">
        <ele>2351.6</ele>
        <time>2021-04-17T14:54:54Z</time>
      </trkpt>
      <trkpt lat="4.9242710" lon="-75.4934160">
        <ele>2352.0</ele>
        <time>2021-04-17T14:54:56Z</time>
      </trkpt>
      <trkpt lat="4.9242280" lon="-75.4933940">
        <ele>2352.8</ele>
        <time>2021-04-17T14:54:59Z</time>
      </trkpt>
      <trkpt lat="4.9242150" lon="-75.4933870">
        <ele>2353.0</ele>
        <time>2021-04-17T14:55:00Z</time>
      </trkpt>
      <trkpt lat="4.9241660" lon="-75.4933650">
        <ele>2353.8</ele>
        <time>2021-04-17T14:55:03Z</time>
      </trkpt>
      <trkpt lat="4.9241170" lon="-75.4933570">
        <ele>2354.6</ele>
        <time>2021-04-17T14:55:06Z</time>
      </trkpt>
      <trkpt lat="4.9241010" lon="-75.4933540">
        <ele>2355.0</ele>
        <time>2021-04-17T14:55:07Z</time>
      </trkpt>
      <trkpt lat="4.9240340" lon="-75.4933290">
        <ele>2356.0</ele>
        <time>2021-04-17T14:55:12Z</time>
      </trkpt>
      <trkpt lat="4.9240110" lon="-75.4933110">
        <ele>2356.2</ele>
        <time>2021-04-17T14:55:14Z</time>
      </trkpt>
      <trkpt lat="4.9239800" lon="-75.4932820">
        <ele>2357.2</ele>
        <time>2021-04-17T14:55:17Z</time>
      </trkpt>
      <trkpt lat="4.9239450" lon="-75.4932570">
        <ele>2358.0</ele>
        <time>2021-04-17T14:55:20Z</time>
      </trkpt>
      <trkpt lat="4.9239340" lon="-75.4932490">
        <ele>2358.0</ele>
        <time>2021-04-17T14:55:21Z</time>
      </trkpt>
      <trkpt lat="4.9238810" lon="-75.4932070">
        <ele>2359.2</ele>
        <time>2021-04-17T14:55:26Z</time>
      </trkpt>
      <trkpt lat="4.9238590" lon="-75.4931940">
        <ele>2359.6</ele>
        <time>2021-04-17T14:55:28Z</time>
      </trkpt>
      <trkpt lat="4.9238200" lon="-75.4931740">
        <ele>2360.4</ele>
        <time>2021-04-17T14:55:31Z</time>
      </trkpt>
      <trkpt lat="4.9237640" lon="-75.4931390">
        <ele>2361.4</ele>
        <time>2021-04-17T14:55:36Z</time>
      </trkpt>
      <trkpt lat="4.9237530" lon="-75.4931310">
        <ele>2361.4</ele>
        <time>2021-04-17T14:55:37Z</time>
      </trkpt>
      <trkpt lat="4.9236900" lon="-75.4931000">
        <ele>2362.6</ele>
        <time>2021-04-17T14:55:42Z</time>
      </trkpt>
      <trkpt lat="4.9236680" lon="-75.4930860">
        <ele>2362.8</ele>
        <time>2021-04-17T14:55:44Z</time>
      </trkpt>
      <trkpt lat="4.9236140" lon="-75.4930470">
        <ele>2363.6</ele>
        <time>2021-04-17T14:55:49Z</time>
      </trkpt>
      <trkpt lat="4.9235790" lon="-75.4930290">
        <ele>2364.0</ele>
        <time>2021-04-17T14:55:52Z</time>
      </trkpt>
      <trkpt lat="4.9235690" lon="-75.4930180">
        <ele>2364.6</ele>
        <time>2021-04-17T14:55:53Z</time>
      </trkpt>
      <trkpt lat="4.9235260" lon="-75.4929800">
        <ele>2365.8</ele>
        <time>2021-04-17T14:55:58Z</time>
      </trkpt>
      <trkpt lat="4.9234850" lon="-75.4929430">
        <ele>2367.0</ele>
        <time>2021-04-17T14:56:03Z</time>
      </trkpt>
      <trkpt lat="4.9234690" lon="-75.4929280">
        <ele>2367.6</ele>
        <time>2021-04-17T14:56:05Z</time>
      </trkpt>
      <trkpt lat="4.9234580" lon="-75.4929110">
        <ele>2368.0</ele>
        <time>2021-04-17T14:56:07Z</time>
      </trkpt>
      <trkpt lat="4.9234340" lon="-75.4928760">
        <ele>2369.0</ele>
        <time>2021-04-17T14:56:11Z</time>
      </trkpt>
      <trkpt lat="4.9234190" lon="-75.4928610">
        <ele>2369.2</ele>
        <time>2021-04-17T14:56:13Z</time>
      </trkpt>
      <trkpt lat="4.9233890" lon="-75.4928190">
        <ele>2370.2</ele>
        <time>2021-04-17T14:56:17Z</time>
      </trkpt>
      <trkpt lat="4.9233460" lon="-75.4927580">
        <ele>2371.2</ele>
        <time>2021-04-17T14:56:23Z</time>
      </trkpt>
      <trkpt lat="4.9233210" lon="-75.4927030">
        <ele>2372.4</ele>
        <time>2021-04-17T14:56:28Z</time>
      </trkpt>
      <trkpt lat="4.9233170" lon="-75.4926900">
        <ele>2372.6</ele>
        <time>2021-04-17T14:56:29Z</time>
      </trkpt>
      <trkpt lat="4.9232840" lon="-75.4926330">
        <ele>2373.6</ele>
        <time>2021-04-17T14:56:34Z</time>
      </trkpt>
      <trkpt lat="4.9232610" lon="-75.4926050">
        <ele>2374.4</ele>
        <time>2021-04-17T14:56:37Z</time>
      </trkpt>
      <trkpt lat="4.9232520" lon="-75.4925950">
        <ele>2374.6</ele>
        <time>2021-04-17T14:56:38Z</time>
      </trkpt>
      <trkpt lat="4.9232020" lon="-75.4925430">
        <ele>2375.6</ele>
        <time>2021-04-17T14:56:44Z</time>
      </trkpt>
      <trkpt lat="4.9231930" lon="-75.4925350">
        <ele>2375.6</ele>
        <time>2021-04-17T14:56:45Z</time>
      </trkpt>
      <trkpt lat="4.9231660" lon="-75.4924990">
        <ele>2376.4</ele>
        <time>2021-04-17T14:56:49Z</time>
      </trkpt>
      <trkpt lat="4.9231430" lon="-75.4924720">
        <ele>2377.0</ele>
        <time>2021-04-17T14:56:51Z</time>
      </trkpt>
      <trkpt lat="4.9231380" lon="-75.4924640">
        <ele>2377.6</ele>
        <time>2021-04-17T14:56:53Z</time>
      </trkpt>
      <trkpt lat="4.9231320" lon="-75.4924540">
        <ele>2378.0</ele>
        <time>2021-04-17T14:56:54Z</time>
      </trkpt>
      <trkpt lat="4.9231060" lon="-75.4924210">
        <ele>2378.8</ele>
        <time>2021-04-17T14:56:57Z</time>
      </trkpt>
      <trkpt lat="4.9231020" lon="-75.4924110">
        <ele>2379.0</ele>
        <time>2021-04-17T14:56:58Z</time>
      </trkpt>
      <trkpt lat="4.9230820" lon="-75.4923770">
        <ele>2379.8</ele>
        <time>2021-04-17T14:57:01Z</time>
      </trkpt>
      <trkpt lat="4.9230640" lon="-75.4923480">
        <ele>2380.4</ele>
        <time>2021-04-17T14:57:04Z</time>
      </trkpt>
      <trkpt lat="4.9230440" lon="-75.4923300">
        <ele>2380.8</ele>
        <time>2021-04-17T14:57:06Z</time>
      </trkpt>
      <trkpt lat="4.9229850" lon="-75.4922770">
        <ele>2381.8</ele>
        <time>2021-04-17T14:57:11Z</time>
      </trkpt>
      <trkpt lat="4.9229850" lon="-75.4922770">
        <ele>2382.0</ele>
        <time>2021-04-17T14:57:12Z</time>
      </trkpt>
      <trkpt lat="4.9229510" lon="-75.4922430">
        <ele>2382.4</ele>
        <time>2021-04-17T14:57:15Z</time>
      </trkpt>
      <trkpt lat="4.9229310" lon="-75.4922270">
        <ele>2382.8</ele>
        <time>2021-04-17T14:57:17Z</time>
      </trkpt>
      <trkpt lat="4.9229220" lon="-75.4922170">
        <ele>2383.4</ele>
        <time>2021-04-17T14:57:19Z</time>
      </trkpt>
      <trkpt lat="4.9228790" lon="-75.4921830">
        <ele>2384.0</ele>
        <time>2021-04-17T14:57:23Z</time>
      </trkpt>
      <trkpt lat="4.9228540" lon="-75.4921750">
        <ele>2384.8</ele>
        <time>2021-04-17T14:57:26Z</time>
      </trkpt>
      <trkpt lat="4.9228310" lon="-75.4921630">
        <ele>2385.0</ele>
        <time>2021-04-17T14:57:28Z</time>
      </trkpt>
      <trkpt lat="4.9227580" lon="-75.4921180">
        <ele>2386.0</ele>
        <time>2021-04-17T14:57:34Z</time>
      </trkpt>
      <trkpt lat="4.9227030" lon="-75.4920890">
        <ele>2387.2</ele>
        <time>2021-04-17T14:57:38Z</time>
      </trkpt>
      <trkpt lat="4.9226750" lon="-75.4920760">
        <ele>2387.6</ele>
        <time>2021-04-17T14:57:40Z</time>
      </trkpt>
      <trkpt lat="4.9226290" lon="-75.4920580">
        <ele>2388.4</ele>
        <time>2021-04-17T14:57:43Z</time>
      </trkpt>
      <trkpt lat="4.9225600" lon="-75.4920330">
        <ele>2389.0</ele>
        <time>2021-04-17T14:57:48Z</time>
      </trkpt>
      <trkpt lat="4.9225370" lon="-75.4920310">
        <ele>2389.4</ele>
        <time>2021-04-17T14:57:50Z</time>
      </trkpt>
      <trkpt lat="4.9224870" lon="-75.4920240">
        <ele>2389.6</ele>
        <time>2021-04-17T14:57:53Z</time>
      </trkpt>
      <trkpt lat="4.9224680" lon="-75.4920190">
        <ele>2389.6</ele>
        <time>2021-04-17T14:57:54Z</time>
      </trkpt>
      <trkpt lat="4.9224490" lon="-75.4920180">
        <ele>2389.8</ele>
        <time>2021-04-17T14:57:55Z</time>
      </trkpt>
      <trkpt lat="4.9224300" lon="-75.4920160">
        <ele>2390.2</ele>
        <time>2021-04-17T14:57:56Z</time>
      </trkpt>
      <trkpt lat="4.9223670" lon="-75.4920180">
        <ele>2390.6</ele>
        <time>2021-04-17T14:57:59Z</time>
      </trkpt>
      <trkpt lat="4.9222830" lon="-75.4920310">
        <ele>2391.0</ele>
        <time>2021-04-17T14:58:04Z</time>
      </trkpt>
      <trkpt lat="4.9222420" lon="-75.4920390">
        <ele>2391.4</ele>
        <time>2021-04-17T14:58:06Z</time>
      </trkpt>
      <trkpt lat="4.9221640" lon="-75.4920570">
        <ele>2392.0</ele>
        <time>2021-04-17T14:58:10Z</time>
      </trkpt>
      <trkpt lat="4.9221490" lon="-75.4920590">
        <ele>2392.4</ele>
        <time>2021-04-17T14:58:12Z</time>
      </trkpt>
      <trkpt lat="4.9220470" lon="-75.4920510">
        <ele>2393.6</ele>
        <time>2021-04-17T14:58:17Z</time>
      </trkpt>
      <trkpt lat="4.9219400" lon="-75.4920480">
        <ele>2394.6</ele>
        <time>2021-04-17T14:58:21Z</time>
      </trkpt>
      <trkpt lat="4.9218790" lon="-75.4920400">
        <ele>2395.4</ele>
        <time>2021-04-17T14:58:25Z</time>
      </trkpt>
      <trkpt lat="4.9218590" lon="-75.4920360">
        <ele>2395.6</ele>
        <time>2021-04-17T14:58:26Z</time>
      </trkpt>
      <trkpt lat="4.9217450" lon="-75.4920060">
        <ele>2396.6</ele>
        <time>2021-04-17T14:58:31Z</time>
      </trkpt>
      <trkpt lat="4.9216760" lon="-75.4919860">
        <ele>2397.0</ele>
        <time>2021-04-17T14:58:33Z</time>
      </trkpt>
      <trkpt lat="4.9216000" lon="-75.4919580">
        <ele>2397.6</ele>
        <time>2021-04-17T14:58:38Z</time>
      </trkpt>
      <trkpt lat="4.9215530" lon="-75.4919130">
        <ele>2397.8</ele>
        <time>2021-04-17T14:58:40Z</time>
      </trkpt>
      <trkpt lat="4.9215200" lon="-75.4918490">
        <ele>2398.8</ele>
        <time>2021-04-17T14:58:44Z</time>
      </trkpt>
      <trkpt lat="4.9215030" lon="-75.4918020">
        <ele>2399.2</ele>
        <time>2021-04-17T14:58:46Z</time>
      </trkpt>
      <trkpt lat="4.9214820" lon="-75.4917000">
        <ele>2399.6</ele>
        <time>2021-04-17T14:58:50Z</time>
      </trkpt>
      <trkpt lat="4.9214590" lon="-75.4915860">
        <ele>2399.8</ele>
        <time>2021-04-17T14:58:54Z</time>
      </trkpt>
      <trkpt lat="4.9213950" lon="-75.4914790">
        <ele>2400.6</ele>
        <time>2021-04-17T14:58:59Z</time>
      </trkpt>
      <trkpt lat="4.9213850" lon="-75.4914580">
        <ele>2400.6</ele>
        <time>2021-04-17T14:59:00Z</time>
      </trkpt>
      <trkpt lat="4.9213760" lon="-75.4914310">
        <ele>2401.0</ele>
        <time>2021-04-17T14:59:02Z</time>
      </trkpt>
      <trkpt lat="4.9213670" lon="-75.4914020">
        <ele>2401.2</ele>
        <time>2021-04-17T14:59:04Z</time>
      </trkpt>
      <trkpt lat="4.9213630" lon="-75.4913440">
        <ele>2401.8</ele>
        <time>2021-04-17T14:59:07Z</time>
      </trkpt>
      <trkpt lat="4.9213180" lon="-75.4912430">
        <ele>2403.0</ele>
        <time>2021-04-17T14:59:11Z</time>
      </trkpt>
      <trkpt lat="4.9212670" lon="-75.4911560">
        <ele>2404.0</ele>
        <time>2021-04-17T14:59:14Z</time>
      </trkpt>
      <trkpt lat="4.9212200" lon="-75.4910470">
        <ele>2404.4</ele>
        <time>2021-04-17T14:59:18Z</time>
      </trkpt>
      <trkpt lat="4.9211790" lon="-75.4909610">
        <ele>2405.0</ele>
        <time>2021-04-17T14:59:22Z</time>
      </trkpt>
      <trkpt lat="4.9211190" lon="-75.4908610">
        <ele>2405.6</ele>
        <time>2021-04-17T14:59:27Z</time>
      </trkpt>
      <trkpt lat="4.9210790" lon="-75.4908330">
        <ele>2406.0</ele>
        <time>2021-04-17T14:59:29Z</time>
      </trkpt>
      <trkpt lat="4.9209510" lon="-75.4907650">
        <ele>2407.0</ele>
        <time>2021-04-17T14:59:36Z</time>
      </trkpt>
      <trkpt lat="4.9209350" lon="-75.4907550">
        <ele>2407.0</ele>
        <time>2021-04-17T14:59:37Z</time>
      </trkpt>
      <trkpt lat="4.9208770" lon="-75.4907030">
        <ele>2408.0</ele>
        <time>2021-04-17T14:59:42Z</time>
      </trkpt>
      <trkpt lat="4.9208670" lon="-75.4906940">
        <ele>2408.2</ele>
        <time>2021-04-17T14:59:43Z</time>
      </trkpt>
      <trkpt lat="4.9208260" lon="-75.4906230">
        <ele>2409.2</ele>
        <time>2021-04-17T14:59:48Z</time>
      </trkpt>
      <trkpt lat="4.9208180" lon="-75.4906070">
        <ele>2409.6</ele>
        <time>2021-04-17T14:59:49Z</time>
      </trkpt>
      <trkpt lat="4.9207850" lon="-75.4905590">
        <ele>2410.2</ele>
        <time>2021-04-17T14:59:52Z</time>
      </trkpt>
      <trkpt lat="4.9207360" lon="-75.4904990">
        <ele>2411.4</ele>
        <time>2021-04-17T14:59:56Z</time>
      </trkpt>
      <trkpt lat="4.9206940" lon="-75.4904330">
        <ele>2412.4</ele>
        <time>2021-04-17T15:00:00Z</time>
      </trkpt>
      <trkpt lat="4.9206520" lon="-75.4903770">
        <ele>2413.0</ele>
        <time>2021-04-17T15:00:03Z</time>
      </trkpt>
      <trkpt lat="4.9206290" lon="-75.4903510">
        <ele>2413.6</ele>
        <time>2021-04-17T15:00:05Z</time>
      </trkpt>
      <trkpt lat="4.9205800" lon="-75.4903090">
        <ele>2414.6</ele>
        <time>2021-04-17T15:00:09Z</time>
      </trkpt>
      <trkpt lat="4.9205800" lon="-75.4903090">
        <ele>2414.8</ele>
        <time>2021-04-17T15:00:10Z</time>
      </trkpt>
      <trkpt lat="4.9205260" lon="-75.4902760">
        <ele>2415.8</ele>
        <time>2021-04-17T15:00:14Z</time>
      </trkpt>
      <trkpt lat="4.9204580" lon="-75.4902530">
        <ele>2416.2</ele>
        <time>2021-04-17T15:00:17Z</time>
      </trkpt>
      <trkpt lat="4.9203710" lon="-75.4901520">
        <ele>2416.6</ele>
        <time>2021-04-17T15:00:23Z</time>
      </trkpt>
      <trkpt lat="4.9203420" lon="-75.4900470">
        <ele>2416.8</ele>
        <time>2021-04-17T15:00:27Z</time>
      </trkpt>
      <trkpt lat="4.9203390" lon="-75.4900160">
        <ele>2416.8</ele>
        <time>2021-04-17T15:00:28Z</time>
      </trkpt>
      <trkpt lat="4.9203010" lon="-75.4897600">
        <ele>2417.2</ele>
        <time>2021-04-17T15:00:37Z</time>
      </trkpt>
      <trkpt lat="4.9202350" lon="-75.4895440">
        <ele>2417.6</ele>
        <time>2021-04-17T15:00:44Z</time>
      </trkpt>
      <trkpt lat="4.9202330" lon="-75.4895200">
        <ele>2417.8</ele>
        <time>2021-04-17T15:00:45Z</time>
      </trkpt>
      <trkpt lat="4.9201830" lon="-75.4894080">
        <ele>2418.8</ele>
        <time>2021-04-17T15:00:51Z</time>
      </trkpt>
      <trkpt lat="4.9201830" lon="-75.4894080">
        <ele>2419.0</ele>
        <time>2021-04-17T15:00:52Z</time>
      </trkpt>
      <trkpt lat="4.9200560" lon="-75.4893310">
        <ele>2420.2</ele>
        <time>2021-04-17T15:00:57Z</time>
      </trkpt>
      <trkpt lat="4.9200060" lon="-75.4892980">
        <ele>2420.6</ele>
        <time>2021-04-17T15:00:59Z</time>
      </trkpt>
      <trkpt lat="4.9199850" lon="-75.4892770">
        <ele>2421.4</ele>
        <time>2021-04-17T15:01:01Z</time>
      </trkpt>
      <trkpt lat="4.9198950" lon="-75.4891700">
        <ele>2421.8</ele>
        <time>2021-04-17T15:01:05Z</time>
      </trkpt>
      <trkpt lat="4.9198330" lon="-75.4890160">
        <ele>2422.2</ele>
        <time>2021-04-17T15:01:11Z</time>
      </trkpt>
      <trkpt lat="4.9197730" lon="-75.4889020">
        <ele>2423.4</ele>
        <time>2021-04-17T15:01:17Z</time>
      </trkpt>
      <trkpt lat="4.9197010" lon="-75.4887140">
        <ele>2424.6</ele>
        <time>2021-04-17T15:01:24Z</time>
      </trkpt>
      <trkpt lat="4.9196650" lon="-75.4886120">
        <ele>2425.6</ele>
        <time>2021-04-17T15:01:29Z</time>
      </trkpt>
      <trkpt lat="4.9196430" lon="-75.4885670">
        <ele>2426.2</ele>
        <time>2021-04-17T15:01:32Z</time>
      </trkpt>
      <trkpt lat="4.9196230" lon="-75.4885430">
        <ele>2426.8</ele>
        <time>2021-04-17T15:01:34Z</time>
      </trkpt>
      <trkpt lat="4.9195790" lon="-75.4885090">
        <ele>2428.2</ele>
        <time>2021-04-17T15:01:37Z</time>
      </trkpt>
      <trkpt lat="4.9195660" lon="-75.4885020">
        <ele>2428.6</ele>
        <time>2021-04-17T15:01:38Z</time>
      </trkpt>
      <trkpt lat="4.9195360" lon="-75.4884840">
        <ele>2429.2</ele>
        <time>2021-04-17T15:01:40Z</time>
      </trkpt>
      <trkpt lat="4.9194750" lon="-75.4884320">
        <ele>2430.0</ele>
        <time>2021-04-17T15:01:45Z</time>
      </trkpt>
      <trkpt lat="4.9193700" lon="-75.4883590">
        <ele>2431.0</ele>
        <time>2021-04-17T15:01:53Z</time>
      </trkpt>
      <trkpt lat="4.9193630" lon="-75.4883510">
        <ele>2431.2</ele>
        <time>2021-04-17T15:01:55Z</time>
      </trkpt>
      <trkpt lat="4.9192710" lon="-75.4882600">
        <ele>2432.0</ele>
        <time>2021-04-17T15:02:02Z</time>
      </trkpt>
      <trkpt lat="4.9192460" lon="-75.4882250">
        <ele>2432.4</ele>
        <time>2021-04-17T15:02:04Z</time>
      </trkpt>
      <trkpt lat="4.9191980" lon="-75.4881660">
        <ele>2433.4</ele>
        <time>2021-04-17T15:02:08Z</time>
      </trkpt>
      <trkpt lat="4.9191750" lon="-75.4881360">
        <ele>2433.4</ele>
        <time>2021-04-17T15:02:10Z</time>
      </trkpt>
      <trkpt lat="4.9191400" lon="-75.4880900">
        <ele>2433.6</ele>
        <time>2021-04-17T15:02:14Z</time>
      </trkpt>
      <trkpt lat="4.9190760" lon="-75.4880080">
        <ele>2434.2</ele>
        <time>2021-04-17T15:02:20Z</time>
      </trkpt>
      <trkpt lat="4.9190460" lon="-75.4879900">
        <ele>2434.6</ele>
        <time>2021-04-17T15:02:22Z</time>
      </trkpt>
      <trkpt lat="4.9189840" lon="-75.4879760">
        <ele>2435.4</ele>
        <time>2021-04-17T15:02:26Z</time>
      </trkpt>
      <trkpt lat="4.9189380" lon="-75.4879640">
        <ele>2435.6</ele>
        <time>2021-04-17T15:02:28Z</time>
      </trkpt>
      <trkpt lat="4.9188570" lon="-75.4879370">
        <ele>2436.4</ele>
        <time>2021-04-17T15:02:32Z</time>
      </trkpt>
      <trkpt lat="4.9188240" lon="-75.4879440">
        <ele>2436.8</ele>
        <time>2021-04-17T15:02:34Z</time>
      </trkpt>
      <trkpt lat="4.9187760" lon="-75.4879540">
        <ele>2437.4</ele>
        <time>2021-04-17T15:02:37Z</time>
      </trkpt>
      <trkpt lat="4.9187370" lon="-75.4879660">
        <ele>2438.6</ele>
        <time>2021-04-17T15:02:40Z</time>
      </trkpt>
      <trkpt lat="4.9187210" lon="-75.4879690">
        <ele>2439.0</ele>
        <time>2021-04-17T15:02:41Z</time>
      </trkpt>
      <trkpt lat="4.9186320" lon="-75.4879770">
        <ele>2439.6</ele>
        <time>2021-04-17T15:02:46Z</time>
      </trkpt>
      <trkpt lat="4.9185780" lon="-75.4879900">
        <ele>2439.8</ele>
        <time>2021-04-17T15:02:48Z</time>
      </trkpt>
      <trkpt lat="4.9184540" lon="-75.4880090">
        <ele>2440.6</ele>
        <time>2021-04-17T15:02:55Z</time>
      </trkpt>
      <trkpt lat="4.9183360" lon="-75.4880220">
        <ele>2441.4</ele>
        <time>2021-04-17T15:03:00Z</time>
      </trkpt>
      <trkpt lat="4.9183150" lon="-75.4880190">
        <ele>2441.8</ele>
        <time>2021-04-17T15:03:02Z</time>
      </trkpt>
      <trkpt lat="4.9182710" lon="-75.4880040">
        <ele>2442.2</ele>
        <time>2021-04-17T15:03:03Z</time>
      </trkpt>
      <trkpt lat="4.9182380" lon="-75.4879810">
        <ele>2442.8</ele>
        <time>2021-04-17T15:03:05Z</time>
      </trkpt>
      <trkpt lat="4.9181570" lon="-75.4878670">
        <ele>2443.6</ele>
        <time>2021-04-17T15:03:11Z</time>
      </trkpt>
      <trkpt lat="4.9181430" lon="-75.4878390">
        <ele>2444.0</ele>
        <time>2021-04-17T15:03:13Z</time>
      </trkpt>
      <trkpt lat="4.9181160" lon="-75.4876480">
        <ele>2444.8</ele>
        <time>2021-04-17T15:03:17Z</time>
      </trkpt>
      <trkpt lat="4.9181050" lon="-75.4876290">
        <ele>2445.0</ele>
        <time>2021-04-17T15:03:18Z</time>
      </trkpt>
      <trkpt lat="4.9180130" lon="-75.4875350">
        <ele>2446.0</ele>
        <time>2021-04-17T15:03:24Z</time>
      </trkpt>
      <trkpt lat="4.9179060" lon="-75.4873960">
        <ele>2447.0</ele>
        <time>2021-04-17T15:03:31Z</time>
      </trkpt>
      <trkpt lat="4.9178790" lon="-75.4873470">
        <ele>2447.0</ele>
        <time>2021-04-17T15:03:32Z</time>
      </trkpt>
      <trkpt lat="4.9178110" lon="-75.4872110">
        <ele>2447.4</ele>
        <time>2021-04-17T15:03:38Z</time>
      </trkpt>
      <trkpt lat="4.9177850" lon="-75.4871410">
        <ele>2448.0</ele>
        <time>2021-04-17T15:03:41Z</time>
      </trkpt>
      <trkpt lat="4.9177580" lon="-75.4870460">
        <ele>2448.6</ele>
        <time>2021-04-17T15:03:45Z</time>
      </trkpt>
      <trkpt lat="4.9177610" lon="-75.4870020">
        <ele>2449.2</ele>
        <time>2021-04-17T15:03:47Z</time>
      </trkpt>
      <trkpt lat="4.9177610" lon="-75.4869260">
        <ele>2450.4</ele>
        <time>2021-04-17T15:03:51Z</time>
      </trkpt>
      <trkpt lat="4.9177590" lon="-75.4868980">
        <ele>2450.4</ele>
        <time>2021-04-17T15:03:53Z</time>
      </trkpt>
      <trkpt lat="4.9177740" lon="-75.4867820">
        <ele>2451.2</ele>
        <time>2021-04-17T15:03:59Z</time>
      </trkpt>
      <trkpt lat="4.9177740" lon="-75.4867820">
        <ele>2451.6</ele>
        <time>2021-04-17T15:04:00Z</time>
      </trkpt>
      <trkpt lat="4.9177820" lon="-75.4866950">
        <ele>2452.6</ele>
        <time>2021-04-17T15:04:04Z</time>
      </trkpt>
      <trkpt lat="4.9177840" lon="-75.4866570">
        <ele>2453.0</ele>
        <time>2021-04-17T15:04:06Z</time>
      </trkpt>
      <trkpt lat="4.9177620" lon="-75.4865990">
        <ele>2453.6</ele>
        <time>2021-04-17T15:04:09Z</time>
      </trkpt>
      <trkpt lat="4.9177480" lon="-75.4865200">
        <ele>2454.6</ele>
        <time>2021-04-17T15:04:14Z</time>
      </trkpt>
      <trkpt lat="4.9177260" lon="-75.4864450">
        <ele>2455.8</ele>
        <time>2021-04-17T15:04:18Z</time>
      </trkpt>
      <trkpt lat="4.9176990" lon="-75.4863640">
        <ele>2456.4</ele>
        <time>2021-04-17T15:04:21Z</time>
      </trkpt>
      <trkpt lat="4.9176830" lon="-75.4863220">
        <ele>2457.0</ele>
        <time>2021-04-17T15:04:23Z</time>
      </trkpt>
      <trkpt lat="4.9176660" lon="-75.4862580">
        <ele>2457.8</ele>
        <time>2021-04-17T15:04:28Z</time>
      </trkpt>
      <trkpt lat="4.9176660" lon="-75.4862300">
        <ele>2458.2</ele>
        <time>2021-04-17T15:04:30Z</time>
      </trkpt>
      <trkpt lat="4.9176380" lon="-75.4861210">
        <ele>2459.2</ele>
        <time>2021-04-17T15:04:36Z</time>
      </trkpt>
      <trkpt lat="4.9176160" lon="-75.4860010">
        <ele>2460.4</ele>
        <time>2021-04-17T15:04:44Z</time>
      </trkpt>
      <trkpt lat="4.9175550" lon="-75.4858630">
        <ele>2461.4</ele>
        <time>2021-04-17T15:04:51Z</time>
      </trkpt>
      <trkpt lat="4.9175090" lon="-75.4857580">
        <ele>2462.2</ele>
        <time>2021-04-17T15:04:58Z</time>
      </trkpt>
      <trkpt lat="4.9174880" lon="-75.4857310">
        <ele>2462.6</ele>
        <time>2021-04-17T15:05:00Z</time>
      </trkpt>
      <trkpt lat="4.9174080" lon="-75.4856670">
        <ele>2463.2</ele>
        <time>2021-04-17T15:05:05Z</time>
      </trkpt>
      <trkpt lat="4.9173610" lon="-75.4856330">
        <ele>2464.2</ele>
        <time>2021-04-17T15:05:08Z</time>
      </trkpt>
      <trkpt lat="4.9173470" lon="-75.4856240">
        <ele>2464.4</ele>
        <time>2021-04-17T15:05:09Z</time>
      </trkpt>
      <trkpt lat="4.9172550" lon="-75.4855840">
        <ele>2465.4</ele>
        <time>2021-04-17T15:05:14Z</time>
      </trkpt>
      <trkpt lat="4.9172360" lon="-75.4855770">
        <ele>2465.6</ele>
        <time>2021-04-17T15:05:15Z</time>
      </trkpt>
      <trkpt lat="4.9171190" lon="-75.4854930">
        <ele>2466.6</ele>
        <time>2021-04-17T15:05:21Z</time>
      </trkpt>
      <trkpt lat="4.9170640" lon="-75.4854570">
        <ele>2466.6</ele>
        <time>2021-04-17T15:05:24Z</time>
      </trkpt>
      <trkpt lat="4.9170470" lon="-75.4854380">
        <ele>2466.8</ele>
        <time>2021-04-17T15:05:25Z</time>
      </trkpt>
      <trkpt lat="4.9169920" lon="-75.4853580">
        <ele>2467.2</ele>
        <time>2021-04-17T15:05:29Z</time>
      </trkpt>
      <trkpt lat="4.9169520" lon="-75.4853020">
        <ele>2467.6</ele>
        <time>2021-04-17T15:05:32Z</time>
      </trkpt>
      <trkpt lat="4.9169350" lon="-75.4852410">
        <ele>2468.2</ele>
        <time>2021-04-17T15:05:35Z</time>
      </trkpt>
      <trkpt lat="4.9169090" lon="-75.4851450">
        <ele>2468.4</ele>
        <time>2021-04-17T15:05:40Z</time>
      </trkpt>
      <trkpt lat="4.9169030" lon="-75.4851260">
        <ele>2468.6</ele>
        <time>2021-04-17T15:05:41Z</time>
      </trkpt>
      <trkpt lat="4.9168670" lon="-75.4850270">
        <ele>2469.2</ele>
        <time>2021-04-17T15:05:47Z</time>
      </trkpt>
      <trkpt lat="4.9168560" lon="-75.4849910">
        <ele>2469.4</ele>
        <time>2021-04-17T15:05:49Z</time>
      </trkpt>
      <trkpt lat="4.9168170" lon="-75.4848900">
        <ele>2470.2</ele>
        <time>2021-04-17T15:05:55Z</time>
      </trkpt>
      <trkpt lat="4.9167970" lon="-75.4848450">
        <ele>2470.4</ele>
        <time>2021-04-17T15:05:58Z</time>
      </trkpt>
      <trkpt lat="4.9167740" lon="-75.4848160">
        <ele>2470.8</ele>
        <time>2021-04-17T15:06:01Z</time>
      </trkpt>
      <trkpt lat="4.9167500" lon="-75.4847760">
        <ele>2471.2</ele>
        <time>2021-04-17T15:06:04Z</time>
      </trkpt>
      <trkpt lat="4.9167180" lon="-75.4847140">
        <ele>2472.2</ele>
        <time>2021-04-17T15:06:08Z</time>
      </trkpt>
      <trkpt lat="4.9167090" lon="-75.4846970">
        <ele>2472.4</ele>
        <time>2021-04-17T15:06:09Z</time>
      </trkpt>
      <trkpt lat="4.9166420" lon="-75.4845840">
        <ele>2473.6</ele>
        <time>2021-04-17T15:06:16Z</time>
      </trkpt>
      <trkpt lat="4.9166020" lon="-75.4845030">
        <ele>2474.8</ele>
        <time>2021-04-17T15:06:21Z</time>
      </trkpt>
      <trkpt lat="4.9165860" lon="-75.4844730">
        <ele>2475.4</ele>
        <time>2021-04-17T15:06:23Z</time>
      </trkpt>
      <trkpt lat="4.9165710" lon="-75.4844510">
        <ele>2476.0</ele>
        <time>2021-04-17T15:06:25Z</time>
      </trkpt>
      <trkpt lat="4.9165640" lon="-75.4844390">
        <ele>2476.2</ele>
        <time>2021-04-17T15:06:26Z</time>
      </trkpt>
      <trkpt lat="4.9165490" lon="-75.4844130">
        <ele>2476.6</ele>
        <time>2021-04-17T15:06:28Z</time>
      </trkpt>
      <trkpt lat="4.9165280" lon="-75.4843930">
        <ele>2477.2</ele>
        <time>2021-04-17T15:06:30Z</time>
      </trkpt>
      <trkpt lat="4.9164880" lon="-75.4843600">
        <ele>2478.2</ele>
        <time>2021-04-17T15:06:34Z</time>
      </trkpt>
      <trkpt lat="4.9164290" lon="-75.4843340">
        <ele>2479.6</ele>
        <time>2021-04-17T15:06:39Z</time>
      </trkpt>
      <trkpt lat="4.9164050" lon="-75.4843260">
        <ele>2480.2</ele>
        <time>2021-04-17T15:06:41Z</time>
      </trkpt>
      <trkpt lat="4.9163800" lon="-75.4843250">
        <ele>2480.6</ele>
        <time>2021-04-17T15:06:43Z</time>
      </trkpt>
      <trkpt lat="4.9163010" lon="-75.4843270">
        <ele>2481.8</ele>
        <time>2021-04-17T15:06:49Z</time>
      </trkpt>
      <trkpt lat="4.9162390" lon="-75.4843230">
        <ele>2482.8</ele>
        <time>2021-04-17T15:06:54Z</time>
      </trkpt>
      <trkpt lat="4.9162260" lon="-75.4843240">
        <ele>2483.0</ele>
        <time>2021-04-17T15:06:55Z</time>
      </trkpt>
      <trkpt lat="4.9162030" lon="-75.4843230">
        <ele>2483.4</ele>
        <time>2021-04-17T15:06:57Z</time>
      </trkpt>
      <trkpt lat="4.9161820" lon="-75.4843170">
        <ele>2484.0</ele>
        <time>2021-04-17T15:06:59Z</time>
      </trkpt>
      <trkpt lat="4.9161630" lon="-75.4843070">
        <ele>2484.4</ele>
        <time>2021-04-17T15:07:01Z</time>
      </trkpt>
      <trkpt lat="4.9161330" lon="-75.4842900">
        <ele>2485.0</ele>
        <time>2021-04-17T15:07:04Z</time>
      </trkpt>
      <trkpt lat="4.9161140" lon="-75.4842720">
        <ele>2485.0</ele>
        <time>2021-04-17T15:07:05Z</time>
      </trkpt>
      <trkpt lat="4.9161140" lon="-75.4842720">
        <ele>2485.4</ele>
        <time>2021-04-17T15:07:06Z</time>
      </trkpt>
      <trkpt lat="4.9160830" lon="-75.4842330">
        <ele>2486.2</ele>
        <time>2021-04-17T15:07:10Z</time>
      </trkpt>
      <trkpt lat="4.9160320" lon="-75.4841460">
        <ele>2487.0</ele>
        <time>2021-04-17T15:07:17Z</time>
      </trkpt>
      <trkpt lat="4.9160270" lon="-75.4841340">
        <ele>2487.4</ele>
        <time>2021-04-17T15:07:19Z</time>
      </trkpt>
      <trkpt lat="4.9160120" lon="-75.4840840">
        <ele>2488.0</ele>
        <time>2021-04-17T15:07:23Z</time>
      </trkpt>
      <trkpt lat="4.9159990" lon="-75.4840230">
        <ele>2488.8</ele>
        <time>2021-04-17T15:07:27Z</time>
      </trkpt>
      <trkpt lat="4.9159960" lon="-75.4840120">
        <ele>2489.2</ele>
        <time>2021-04-17T15:07:29Z</time>
      </trkpt>
      <trkpt lat="4.9159960" lon="-75.4839250">
        <ele>2490.4</ele>
        <time>2021-04-17T15:07:36Z</time>
      </trkpt>
      <trkpt lat="4.9160100" lon="-75.4838350">
        <ele>2491.0</ele>
        <time>2021-04-17T15:07:43Z</time>
      </trkpt>
      <trkpt lat="4.9160170" lon="-75.4838020">
        <ele>2491.2</ele>
        <time>2021-04-17T15:07:46Z</time>
      </trkpt>
      <trkpt lat="4.9160220" lon="-75.4837700">
        <ele>2491.6</ele>
        <time>2021-04-17T15:07:48Z</time>
      </trkpt>
      <trkpt lat="4.9160180" lon="-75.4837560">
        <ele>2491.6</ele>
        <time>2021-04-17T15:07:49Z</time>
      </trkpt>
      <trkpt lat="4.9160270" lon="-75.4837140">
        <ele>2492.2</ele>
        <time>2021-04-17T15:07:52Z</time>
      </trkpt>
      <trkpt lat="4.9160320" lon="-75.4837000">
        <ele>2492.4</ele>
        <time>2021-04-17T15:07:53Z</time>
      </trkpt>
      <trkpt lat="4.9160480" lon="-75.4836580">
        <ele>2493.0</ele>
        <time>2021-04-17T15:07:56Z</time>
      </trkpt>
      <trkpt lat="4.9160560" lon="-75.4835960">
        <ele>2493.4</ele>
        <time>2021-04-17T15:08:00Z</time>
      </trkpt>
      <trkpt lat="4.9160620" lon="-75.4835010">
        <ele>2494.2</ele>
        <time>2021-04-17T15:08:05Z</time>
      </trkpt>
      <trkpt lat="4.9160640" lon="-75.4834690">
        <ele>2494.4</ele>
        <time>2021-04-17T15:08:08Z</time>
      </trkpt>
      <trkpt lat="4.9160600" lon="-75.4833490">
        <ele>2495.4</ele>
        <time>2021-04-17T15:08:15Z</time>
      </trkpt>
      <trkpt lat="4.9160600" lon="-75.4833490">
        <ele>2495.6</ele>
        <time>2021-04-17T15:08:16Z</time>
      </trkpt>
      <trkpt lat="4.9160510" lon="-75.4832840">
        <ele>2496.6</ele>
        <time>2021-04-17T15:08:21Z</time>
      </trkpt>
      <trkpt lat="4.9160440" lon="-75.4832430">
        <ele>2496.8</ele>
        <time>2021-04-17T15:08:23Z</time>
      </trkpt>
      <trkpt lat="4.9160350" lon="-75.4831910">
        <ele>2497.8</ele>
        <time>2021-04-17T15:08:28Z</time>
      </trkpt>
      <trkpt lat="4.9160250" lon="-75.4831340">
        <ele>2498.4</ele>
        <time>2021-04-17T15:08:32Z</time>
      </trkpt>
      <trkpt lat="4.9160210" lon="-75.4831020">
        <ele>2498.6</ele>
        <time>2021-04-17T15:08:33Z</time>
      </trkpt>
      <trkpt lat="4.9159930" lon="-75.4830140">
        <ele>2499.6</ele>
        <time>2021-04-17T15:08:40Z</time>
      </trkpt>
      <trkpt lat="4.9159790" lon="-75.4829180">
        <ele>2500.8</ele>
        <time>2021-04-17T15:08:45Z</time>
      </trkpt>
      <trkpt lat="4.9159730" lon="-75.4828880">
        <ele>2501.2</ele>
        <time>2021-04-17T15:08:48Z</time>
      </trkpt>
      <trkpt lat="4.9159680" lon="-75.4828590">
        <ele>2501.6</ele>
        <time>2021-04-17T15:08:50Z</time>
      </trkpt>
      <trkpt lat="4.9159540" lon="-75.4827800">
        <ele>2502.4</ele>
        <time>2021-04-17T15:08:56Z</time>
      </trkpt>
      <trkpt lat="4.9159490" lon="-75.4827530">
        <ele>2502.6</ele>
        <time>2021-04-17T15:08:58Z</time>
      </trkpt>
      <trkpt lat="4.9159220" lon="-75.4826700">
        <ele>2503.6</ele>
        <time>2021-04-17T15:09:04Z</time>
      </trkpt>
      <trkpt lat="4.9159170" lon="-75.4826590">
        <ele>2503.8</ele>
        <time>2021-04-17T15:09:05Z</time>
      </trkpt>
      <trkpt lat="4.9159050" lon="-75.4825730">
        <ele>2504.4</ele>
        <time>2021-04-17T15:09:11Z</time>
      </trkpt>
      <trkpt lat="4.9159040" lon="-75.4825590">
        <ele>2504.6</ele>
        <time>2021-04-17T15:09:12Z</time>
      </trkpt>
      <trkpt lat="4.9158970" lon="-75.4824780">
        <ele>2505.6</ele>
        <time>2021-04-17T15:09:17Z</time>
      </trkpt>
      <trkpt lat="4.9158990" lon="-75.4824640">
        <ele>2505.8</ele>
        <time>2021-04-17T15:09:18Z</time>
      </trkpt>
      <trkpt lat="4.9158980" lon="-75.4824130">
        <ele>2506.6</ele>
        <time>2021-04-17T15:09:22Z</time>
      </trkpt>
      <trkpt lat="4.9158830" lon="-75.4823630">
        <ele>2507.6</ele>
        <time>2021-04-17T15:09:25Z</time>
      </trkpt>
      <trkpt lat="4.9158680" lon="-75.4823320">
        <ele>2508.0</ele>
        <time>2021-04-17T15:09:27Z</time>
      </trkpt>
      <trkpt lat="4.9158490" lon="-75.4822930">
        <ele>2509.0</ele>
        <time>2021-04-17T15:09:30Z</time>
      </trkpt>
      <trkpt lat="4.9158300" lon="-75.4822500">
        <ele>2509.8</ele>
        <time>2021-04-17T15:09:34Z</time>
      </trkpt>
      <trkpt lat="4.9158270" lon="-75.4822300">
        <ele>2510.0</ele>
        <time>2021-04-17T15:09:35Z</time>
      </trkpt>
      <trkpt lat="4.9158250" lon="-75.4822090">
        <ele>2511.2</ele>
        <time>2021-04-17T15:09:38Z</time>
      </trkpt>
      <trkpt lat="4.9158180" lon="-75.4821660">
        <ele>2512.0</ele>
        <time>2021-04-17T15:09:41Z</time>
      </trkpt>
      <trkpt lat="4.9158180" lon="-75.4821660">
        <ele>2512.2</ele>
        <time>2021-04-17T15:09:42Z</time>
      </trkpt>
      <trkpt lat="4.9158130" lon="-75.4820990">
        <ele>2513.0</ele>
        <time>2021-04-17T15:09:47Z</time>
      </trkpt>
      <trkpt lat="4.9158140" lon="-75.4820870">
        <ele>2513.2</ele>
        <time>2021-04-17T15:09:49Z</time>
      </trkpt>
      <trkpt lat="4.9158160" lon="-75.4820110">
        <ele>2514.2</ele>
        <time>2021-04-17T15:09:55Z</time>
      </trkpt>
      <trkpt lat="4.9158220" lon="-75.4819460">
        <ele>2515.2</ele>
        <time>2021-04-17T15:10:00Z</time>
      </trkpt>
      <trkpt lat="4.9158140" lon="-75.4818810">
        <ele>2516.0</ele>
        <time>2021-04-17T15:10:04Z</time>
      </trkpt>
      <trkpt lat="4.9158170" lon="-75.4818380">
        <ele>2517.0</ele>
        <time>2021-04-17T15:10:08Z</time>
      </trkpt>
      <trkpt lat="4.9158170" lon="-75.4818260">
        <ele>2517.2</ele>
        <time>2021-04-17T15:10:09Z</time>
      </trkpt>
      <trkpt lat="4.9158140" lon="-75.4817610">
        <ele>2518.0</ele>
        <time>2021-04-17T15:10:15Z</time>
      </trkpt>
      <trkpt lat="4.9158120" lon="-75.4817510">
        <ele>2518.0</ele>
        <time>2021-04-17T15:10:16Z</time>
      </trkpt>
      <trkpt lat="4.9158110" lon="-75.4816840">
        <ele>2519.0</ele>
        <time>2021-04-17T15:10:22Z</time>
      </trkpt>
      <trkpt lat="4.9158110" lon="-75.4816040">
        <ele>2520.0</ele>
        <time>2021-04-17T15:10:28Z</time>
      </trkpt>
      <trkpt lat="4.9158080" lon="-75.4815910">
        <ele>2520.2</ele>
        <time>2021-04-17T15:10:29Z</time>
      </trkpt>
      <trkpt lat="4.9157790" lon="-75.4814980">
        <ele>2521.0</ele>
        <time>2021-04-17T15:10:35Z</time>
      </trkpt>
      <trkpt lat="4.9157790" lon="-75.4814980">
        <ele>2521.2</ele>
        <time>2021-04-17T15:10:36Z</time>
      </trkpt>
      <trkpt lat="4.9157670" lon="-75.4814490">
        <ele>2522.2</ele>
        <time>2021-04-17T15:10:40Z</time>
      </trkpt>
      <trkpt lat="4.9157550" lon="-75.4814030">
        <ele>2522.6</ele>
        <time>2021-04-17T15:10:43Z</time>
      </trkpt>
      <trkpt lat="4.9157380" lon="-75.4813610">
        <ele>2523.0</ele>
        <time>2021-04-17T15:10:46Z</time>
      </trkpt>
      <trkpt lat="4.9156990" lon="-75.4812980">
        <ele>2524.2</ele>
        <time>2021-04-17T15:10:51Z</time>
      </trkpt>
      <trkpt lat="4.9156970" lon="-75.4812880">
        <ele>2524.4</ele>
        <time>2021-04-17T15:10:52Z</time>
      </trkpt>
      <trkpt lat="4.9156760" lon="-75.4812440">
        <ele>2525.2</ele>
        <time>2021-04-17T15:10:56Z</time>
      </trkpt>
      <trkpt lat="4.9156530" lon="-75.4811910">
        <ele>2526.2</ele>
        <time>2021-04-17T15:11:00Z</time>
      </trkpt>
      <trkpt lat="4.9156320" lon="-75.4811370">
        <ele>2527.2</ele>
        <time>2021-04-17T15:11:05Z</time>
      </trkpt>
      <trkpt lat="4.9156190" lon="-75.4811200">
        <ele>2527.4</ele>
        <time>2021-04-17T15:11:07Z</time>
      </trkpt>
      <trkpt lat="4.9155950" lon="-75.4810820">
        <ele>2528.4</ele>
        <time>2021-04-17T15:11:11Z</time>
      </trkpt>
      <trkpt lat="4.9155960" lon="-75.4810310">
        <ele>2529.2</ele>
        <time>2021-04-17T15:11:15Z</time>
      </trkpt>
      <trkpt lat="4.9155990" lon="-75.4810180">
        <ele>2529.4</ele>
        <time>2021-04-17T15:11:16Z</time>
      </trkpt>
      <trkpt lat="4.9156210" lon="-75.4809510">
        <ele>2530.6</ele>
        <time>2021-04-17T15:11:21Z</time>
      </trkpt>
      <trkpt lat="4.9156290" lon="-75.4809380">
        <ele>2530.4</ele>
        <time>2021-04-17T15:11:22Z</time>
      </trkpt>
      <trkpt lat="4.9156790" lon="-75.4808620">
        <ele>2531.2</ele>
        <time>2021-04-17T15:11:28Z</time>
      </trkpt>
      <trkpt lat="4.9156870" lon="-75.4808500">
        <ele>2531.4</ele>
        <time>2021-04-17T15:11:29Z</time>
      </trkpt>
      <trkpt lat="4.9157070" lon="-75.4807640">
        <ele>2532.2</ele>
        <time>2021-04-17T15:11:36Z</time>
      </trkpt>
      <trkpt lat="4.9156960" lon="-75.4806970">
        <ele>2533.4</ele>
        <time>2021-04-17T15:11:41Z</time>
      </trkpt>
      <trkpt lat="4.9156920" lon="-75.4806850">
        <ele>2533.6</ele>
        <time>2021-04-17T15:11:42Z</time>
      </trkpt>
      <trkpt lat="4.9156680" lon="-75.4806360">
        <ele>2534.4</ele>
        <time>2021-04-17T15:11:46Z</time>
      </trkpt>
      <trkpt lat="4.9156560" lon="-75.4806110">
        <ele>2535.0</ele>
        <time>2021-04-17T15:11:48Z</time>
      </trkpt>
      <trkpt lat="4.9156290" lon="-75.4805770">
        <ele>2535.6</ele>
        <time>2021-04-17T15:11:51Z</time>
      </trkpt>
      <trkpt lat="4.9155920" lon="-75.4805630">
        <ele>2536.2</ele>
        <time>2021-04-17T15:11:54Z</time>
      </trkpt>
      <trkpt lat="4.9155800" lon="-75.4805590">
        <ele>2536.4</ele>
        <time>2021-04-17T15:11:55Z</time>
      </trkpt>
      <trkpt lat="4.9155170" lon="-75.4805560">
        <ele>2537.2</ele>
        <time>2021-04-17T15:12:00Z</time>
      </trkpt>
      <trkpt lat="4.9154890" lon="-75.4805590">
        <ele>2537.4</ele>
        <time>2021-04-17T15:12:02Z</time>
      </trkpt>
      <trkpt lat="4.9154440" lon="-75.4805710">
        <ele>2538.6</ele>
        <time>2021-04-17T15:12:06Z</time>
      </trkpt>
      <trkpt lat="4.9154350" lon="-75.4805760">
        <ele>2538.8</ele>
        <time>2021-04-17T15:12:07Z</time>
      </trkpt>
      <trkpt lat="4.9153860" lon="-75.4806280">
        <ele>2539.6</ele>
        <time>2021-04-17T15:12:12Z</time>
      </trkpt>
      <trkpt lat="4.9153700" lon="-75.4806560">
        <ele>2539.8</ele>
        <time>2021-04-17T15:12:14Z</time>
      </trkpt>
      <trkpt lat="4.9153470" lon="-75.4807120">
        <ele>2540.6</ele>
        <time>2021-04-17T15:12:18Z</time>
      </trkpt>
      <trkpt lat="4.9153080" lon="-75.4807880">
        <ele>2541.6</ele>
        <time>2021-04-17T15:12:23Z</time>
      </trkpt>
      <trkpt lat="4.9152990" lon="-75.4808020">
        <ele>2541.8</ele>
        <time>2021-04-17T15:12:24Z</time>
      </trkpt>
      <trkpt lat="4.9152380" lon="-75.4808810">
        <ele>2542.6</ele>
        <time>2021-04-17T15:12:29Z</time>
      </trkpt>
      <trkpt lat="4.9152260" lon="-75.4808940">
        <ele>2542.8</ele>
        <time>2021-04-17T15:12:30Z</time>
      </trkpt>
      <trkpt lat="4.9151850" lon="-75.4809680">
        <ele>2543.8</ele>
        <time>2021-04-17T15:12:35Z</time>
      </trkpt>
      <trkpt lat="4.9151790" lon="-75.4809850">
        <ele>2543.8</ele>
        <time>2021-04-17T15:12:36Z</time>
      </trkpt>
      <trkpt lat="4.9151390" lon="-75.4810780">
        <ele>2544.6</ele>
        <time>2021-04-17T15:12:42Z</time>
      </trkpt>
      <trkpt lat="4.9151210" lon="-75.4811080">
        <ele>2545.0</ele>
        <time>2021-04-17T15:12:44Z</time>
      </trkpt>
      <trkpt lat="4.9151000" lon="-75.4811540">
        <ele>2545.8</ele>
        <time>2021-04-17T15:12:47Z</time>
      </trkpt>
      <trkpt lat="4.9150780" lon="-75.4812060">
        <ele>2546.4</ele>
        <time>2021-04-17T15:12:50Z</time>
      </trkpt>
      <trkpt lat="4.9150340" lon="-75.4812740">
        <ele>2547.0</ele>
        <time>2021-04-17T15:12:55Z</time>
      </trkpt>
      <trkpt lat="4.9150220" lon="-75.4813050">
        <ele>2547.2</ele>
        <time>2021-04-17T15:12:57Z</time>
      </trkpt>
      <trkpt lat="4.9149570" lon="-75.4813730">
        <ele>2548.0</ele>
        <time>2021-04-17T15:13:02Z</time>
      </trkpt>
      <trkpt lat="4.9149440" lon="-75.4813870">
        <ele>2548.2</ele>
        <time>2021-04-17T15:13:03Z</time>
      </trkpt>
      <trkpt lat="4.9149040" lon="-75.4814240">
        <ele>2549.0</ele>
        <time>2021-04-17T15:13:06Z</time>
      </trkpt>
      <trkpt lat="4.9148560" lon="-75.4814890">
        <ele>2550.0</ele>
        <time>2021-04-17T15:13:10Z</time>
      </trkpt>
      <trkpt lat="4.9148420" lon="-75.4815050">
        <ele>2549.8</ele>
        <time>2021-04-17T15:13:11Z</time>
      </trkpt>
      <trkpt lat="4.9147770" lon="-75.4815650">
        <ele>2550.8</ele>
        <time>2021-04-17T15:13:16Z</time>
      </trkpt>
      <trkpt lat="4.9147240" lon="-75.4816360">
        <ele>2552.0</ele>
        <time>2021-04-17T15:13:22Z</time>
      </trkpt>
      <trkpt lat="4.9147170" lon="-75.4816510">
        <ele>2552.2</ele>
        <time>2021-04-17T15:13:23Z</time>
      </trkpt>
      <trkpt lat="4.9146700" lon="-75.4817290">
        <ele>2553.0</ele>
        <time>2021-04-17T15:13:28Z</time>
      </trkpt>
      <trkpt lat="4.9146560" lon="-75.4817420">
        <ele>2553.2</ele>
        <time>2021-04-17T15:13:29Z</time>
      </trkpt>
      <trkpt lat="4.9146430" lon="-75.4817530">
        <ele>2553.6</ele>
        <time>2021-04-17T15:13:30Z</time>
      </trkpt>
      <trkpt lat="4.9146120" lon="-75.4817870">
        <ele>2554.0</ele>
        <time>2021-04-17T15:13:33Z</time>
      </trkpt>
      <trkpt lat="4.9145770" lon="-75.4818190">
        <ele>2554.6</ele>
        <time>2021-04-17T15:13:36Z</time>
      </trkpt>
      <trkpt lat="4.9145550" lon="-75.4818460">
        <ele>2555.0</ele>
        <time>2021-04-17T15:13:38Z</time>
      </trkpt>
      <trkpt lat="4.9145460" lon="-75.4818610">
        <ele>2555.2</ele>
        <time>2021-04-17T15:13:39Z</time>
      </trkpt>
      <trkpt lat="4.9144790" lon="-75.4819610">
        <ele>2556.0</ele>
        <time>2021-04-17T15:13:46Z</time>
      </trkpt>
      <trkpt lat="4.9144300" lon="-75.4820340">
        <ele>2557.2</ele>
        <time>2021-04-17T15:13:52Z</time>
      </trkpt>
      <trkpt lat="4.9144240" lon="-75.4820480">
        <ele>2557.4</ele>
        <time>2021-04-17T15:13:53Z</time>
      </trkpt>
      <trkpt lat="4.9143950" lon="-75.4821150">
        <ele>2558.0</ele>
        <time>2021-04-17T15:13:58Z</time>
      </trkpt>
      <trkpt lat="4.9143890" lon="-75.4821520">
        <ele>2558.4</ele>
        <time>2021-04-17T15:14:00Z</time>
      </trkpt>
      <trkpt lat="4.9143680" lon="-75.4822230">
        <ele>2559.2</ele>
        <time>2021-04-17T15:14:05Z</time>
      </trkpt>
      <trkpt lat="4.9143590" lon="-75.4822370">
        <ele>2559.2</ele>
        <time>2021-04-17T15:14:06Z</time>
      </trkpt>
      <trkpt lat="4.9143270" lon="-75.4823220">
        <ele>2560.0</ele>
        <time>2021-04-17T15:14:12Z</time>
      </trkpt>
      <trkpt lat="4.9143200" lon="-75.4823360">
        <ele>2560.2</ele>
        <time>2021-04-17T15:14:13Z</time>
      </trkpt>
      <trkpt lat="4.9142910" lon="-75.4824170">
        <ele>2561.2</ele>
        <time>2021-04-17T15:14:19Z</time>
      </trkpt>
      <trkpt lat="4.9142860" lon="-75.4824310">
        <ele>2561.4</ele>
        <time>2021-04-17T15:14:20Z</time>
      </trkpt>
      <trkpt lat="4.9142620" lon="-75.4825200">
        <ele>2562.2</ele>
        <time>2021-04-17T15:14:26Z</time>
      </trkpt>
      <trkpt lat="4.9142490" lon="-75.4825480">
        <ele>2562.4</ele>
        <time>2021-04-17T15:14:28Z</time>
      </trkpt>
      <trkpt lat="4.9142250" lon="-75.4826240">
        <ele>2563.2</ele>
        <time>2021-04-17T15:14:33Z</time>
      </trkpt>
      <trkpt lat="4.9142090" lon="-75.4826970">
        <ele>2564.4</ele>
        <time>2021-04-17T15:14:38Z</time>
      </trkpt>
      <trkpt lat="4.9141810" lon="-75.4827790">
        <ele>2565.2</ele>
        <time>2021-04-17T15:14:44Z</time>
      </trkpt>
      <trkpt lat="4.9141680" lon="-75.4828120">
        <ele>2565.2</ele>
        <time>2021-04-17T15:14:46Z</time>
      </trkpt>
      <trkpt lat="4.9141120" lon="-75.4829350">
        <ele>2566.2</ele>
        <time>2021-04-17T15:14:53Z</time>
      </trkpt>
      <trkpt lat="4.9141120" lon="-75.4829350">
        <ele>2566.4</ele>
        <time>2021-04-17T15:14:54Z</time>
      </trkpt>
      <trkpt lat="4.9140470" lon="-75.4830190">
        <ele>2567.4</ele>
        <time>2021-04-17T15:15:01Z</time>
      </trkpt>
      <trkpt lat="4.9140300" lon="-75.4830480">
        <ele>2567.6</ele>
        <time>2021-04-17T15:15:02Z</time>
      </trkpt>
      <trkpt lat="4.9139880" lon="-75.4831230">
        <ele>2568.6</ele>
        <time>2021-04-17T15:15:07Z</time>
      </trkpt>
      <trkpt lat="4.9139560" lon="-75.4831790">
        <ele>2569.4</ele>
        <time>2021-04-17T15:15:11Z</time>
      </trkpt>
      <trkpt lat="4.9139180" lon="-75.4832550">
        <ele>2570.6</ele>
        <time>2021-04-17T15:15:18Z</time>
      </trkpt>
      <trkpt lat="4.9138890" lon="-75.4832940">
        <ele>2570.8</ele>
        <time>2021-04-17T15:15:21Z</time>
      </trkpt>
      <trkpt lat="4.9138360" lon="-75.4833640">
        <ele>2571.8</ele>
        <time>2021-04-17T15:15:28Z</time>
      </trkpt>
      <trkpt lat="4.9137990" lon="-75.4834150">
        <ele>2572.2</ele>
        <time>2021-04-17T15:15:32Z</time>
      </trkpt>
      <trkpt lat="4.9137650" lon="-75.4834620">
        <ele>2572.8</ele>
        <time>2021-04-17T15:15:35Z</time>
      </trkpt>
      <trkpt lat="4.9137320" lon="-75.4835580">
        <ele>2573.8</ele>
        <time>2021-04-17T15:15:42Z</time>
      </trkpt>
      <trkpt lat="4.9137320" lon="-75.4835580">
        <ele>2573.6</ele>
        <time>2021-04-17T15:15:43Z</time>
      </trkpt>
      <trkpt lat="4.9137060" lon="-75.4836530">
        <ele>2574.8</ele>
        <time>2021-04-17T15:15:50Z</time>
      </trkpt>
      <trkpt lat="4.9136890" lon="-75.4837080">
        <ele>2575.4</ele>
        <time>2021-04-17T15:15:54Z</time>
      </trkpt>
      <trkpt lat="4.9136640" lon="-75.4837610">
        <ele>2575.8</ele>
        <time>2021-04-17T15:15:57Z</time>
      </trkpt>
      <trkpt lat="4.9136310" lon="-75.4838260">
        <ele>2576.6</ele>
        <time>2021-04-17T15:16:02Z</time>
      </trkpt>
      <trkpt lat="4.9136250" lon="-75.4838400">
        <ele>2576.8</ele>
        <time>2021-04-17T15:16:03Z</time>
      </trkpt>
      <trkpt lat="4.9135840" lon="-75.4839160">
        <ele>2578.0</ele>
        <time>2021-04-17T15:16:09Z</time>
      </trkpt>
      <trkpt lat="4.9135720" lon="-75.4839420">
        <ele>2578.4</ele>
        <time>2021-04-17T15:16:11Z</time>
      </trkpt>
      <trkpt lat="4.9135510" lon="-75.4839950">
        <ele>2579.0</ele>
        <time>2021-04-17T15:16:15Z</time>
      </trkpt>
      <trkpt lat="4.9135040" lon="-75.4840660">
        <ele>2579.8</ele>
        <time>2021-04-17T15:16:21Z</time>
      </trkpt>
      <trkpt lat="4.9134890" lon="-75.4840940">
        <ele>2580.2</ele>
        <time>2021-04-17T15:16:23Z</time>
      </trkpt>
      <trkpt lat="4.9134610" lon="-75.4841810">
        <ele>2581.2</ele>
        <time>2021-04-17T15:16:29Z</time>
      </trkpt>
      <trkpt lat="4.9134560" lon="-75.4841980">
        <ele>2581.8</ele>
        <time>2021-04-17T15:16:31Z</time>
      </trkpt>
      <trkpt lat="4.9134410" lon="-75.4842450">
        <ele>2582.2</ele>
        <time>2021-04-17T15:16:34Z</time>
      </trkpt>
      <trkpt lat="4.9133890" lon="-75.4843440">
        <ele>2583.0</ele>
        <time>2021-04-17T15:16:41Z</time>
      </trkpt>
      <trkpt lat="4.9133820" lon="-75.4843590">
        <ele>2583.0</ele>
        <time>2021-04-17T15:16:42Z</time>
      </trkpt>
      <trkpt lat="4.9133440" lon="-75.4844400">
        <ele>2584.0</ele>
        <time>2021-04-17T15:16:48Z</time>
      </trkpt>
      <trkpt lat="4.9133410" lon="-75.4844580">
        <ele>2584.2</ele>
        <time>2021-04-17T15:16:49Z</time>
      </trkpt>
      <trkpt lat="4.9133530" lon="-75.4845670">
        <ele>2585.4</ele>
        <time>2021-04-17T15:16:56Z</time>
      </trkpt>
      <trkpt lat="4.9133940" lon="-75.4846560">
        <ele>2586.4</ele>
        <time>2021-04-17T15:17:03Z</time>
      </trkpt>
      <trkpt lat="4.9134460" lon="-75.4847090">
        <ele>2587.4</ele>
        <time>2021-04-17T15:17:09Z</time>
      </trkpt>
      <trkpt lat="4.9134570" lon="-75.4847130">
        <ele>2587.6</ele>
        <time>2021-04-17T15:17:10Z</time>
      </trkpt>
      <trkpt lat="4.9134660" lon="-75.4847160">
        <ele>2587.8</ele>
        <time>2021-04-17T15:17:11Z</time>
      </trkpt>
      <trkpt lat="4.9135010" lon="-75.4847510">
        <ele>2588.4</ele>
        <time>2021-04-17T15:17:16Z</time>
      </trkpt>
      <trkpt lat="4.9135160" lon="-75.4847810">
        <ele>2588.8</ele>
        <time>2021-04-17T15:17:19Z</time>
      </trkpt>
      <trkpt lat="4.9135230" lon="-75.4848180">
        <ele>2589.6</ele>
        <time>2021-04-17T15:17:22Z</time>
      </trkpt>
      <trkpt lat="4.9135240" lon="-75.4848690">
        <ele>2590.2</ele>
        <time>2021-04-17T15:17:27Z</time>
      </trkpt>
      <trkpt lat="4.9135210" lon="-75.4848900">
        <ele>2590.8</ele>
        <time>2021-04-17T15:17:29Z</time>
      </trkpt>
      <trkpt lat="4.9134950" lon="-75.4849570">
        <ele>2591.6</ele>
        <time>2021-04-17T15:17:35Z</time>
      </trkpt>
      <trkpt lat="4.9133980" lon="-75.4850060">
        <ele>2592.4</ele>
        <time>2021-04-17T15:17:42Z</time>
      </trkpt>
      <trkpt lat="4.9133820" lon="-75.4850110">
        <ele>2592.6</ele>
        <time>2021-04-17T15:17:43Z</time>
      </trkpt>
      <trkpt lat="4.9133350" lon="-75.4850240">
        <ele>2593.2</ele>
        <time>2021-04-17T15:17:46Z</time>
      </trkpt>
      <trkpt lat="4.9132850" lon="-75.4850240">
        <ele>2593.6</ele>
        <time>2021-04-17T15:17:49Z</time>
      </trkpt>
      <trkpt lat="4.9132690" lon="-75.4850290">
        <ele>2593.8</ele>
        <time>2021-04-17T15:17:50Z</time>
      </trkpt>
      <trkpt lat="4.9132240" lon="-75.4850450">
        <ele>2594.2</ele>
        <time>2021-04-17T15:17:53Z</time>
      </trkpt>
      <trkpt lat="4.9131950" lon="-75.4850560">
        <ele>2594.2</ele>
        <time>2021-04-17T15:17:55Z</time>
      </trkpt>
      <trkpt lat="4.9131510" lon="-75.4850720">
        <ele>2594.6</ele>
        <time>2021-04-17T15:17:58Z</time>
      </trkpt>
      <trkpt lat="4.9130800" lon="-75.4851030">
        <ele>2595.8</ele>
        <time>2021-04-17T15:18:03Z</time>
      </trkpt>
      <trkpt lat="4.9129850" lon="-75.4851660">
        <ele>2596.8</ele>
        <time>2021-04-17T15:18:10Z</time>
      </trkpt>
      <trkpt lat="4.9129720" lon="-75.4851750">
        <ele>2597.0</ele>
        <time>2021-04-17T15:18:11Z</time>
      </trkpt>
      <trkpt lat="4.9129000" lon="-75.4852110">
        <ele>2597.6</ele>
        <time>2021-04-17T15:18:16Z</time>
      </trkpt>
      <trkpt lat="4.9128410" lon="-75.4852360">
        <ele>2598.6</ele>
        <time>2021-04-17T15:18:20Z</time>
      </trkpt>
      <trkpt lat="4.9128270" lon="-75.4852400">
        <ele>2598.8</ele>
        <time>2021-04-17T15:18:21Z</time>
      </trkpt>
      <trkpt lat="4.9127450" lon="-75.4852580">
        <ele>2599.6</ele>
        <time>2021-04-17T15:18:26Z</time>
      </trkpt>
      <trkpt lat="4.9127290" lon="-75.4852610">
        <ele>2599.8</ele>
        <time>2021-04-17T15:18:27Z</time>
      </trkpt>
      <trkpt lat="4.9126330" lon="-75.4852740">
        <ele>2600.8</ele>
        <time>2021-04-17T15:18:33Z</time>
      </trkpt>
      <trkpt lat="4.9125400" lon="-75.4853090">
        <ele>2601.8</ele>
        <time>2021-04-17T15:18:39Z</time>
      </trkpt>
      <trkpt lat="4.9125170" lon="-75.4853230">
        <ele>2602.0</ele>
        <time>2021-04-17T15:18:41Z</time>
      </trkpt>
      <trkpt lat="4.9124660" lon="-75.4854010">
        <ele>2602.8</ele>
        <time>2021-04-17T15:18:47Z</time>
      </trkpt>
      <trkpt lat="4.9124600" lon="-75.4854200">
        <ele>2603.0</ele>
        <time>2021-04-17T15:18:48Z</time>
      </trkpt>
      <trkpt lat="4.9124620" lon="-75.4855270">
        <ele>2603.8</ele>
        <time>2021-04-17T15:18:54Z</time>
      </trkpt>
      <trkpt lat="4.9124750" lon="-75.4855590">
        <ele>2604.0</ele>
        <time>2021-04-17T15:18:56Z</time>
      </trkpt>
      <trkpt lat="4.9125440" lon="-75.4856250">
        <ele>2604.6</ele>
        <time>2021-04-17T15:19:01Z</time>
      </trkpt>
      <trkpt lat="4.9125980" lon="-75.4856490">
        <ele>2604.8</ele>
        <time>2021-04-17T15:19:04Z</time>
      </trkpt>
      <trkpt lat="4.9126910" lon="-75.4857010">
        <ele>2605.6</ele>
        <time>2021-04-17T15:19:09Z</time>
      </trkpt>
      <trkpt lat="4.9127270" lon="-75.4857240">
        <ele>2606.2</ele>
        <time>2021-04-17T15:19:11Z</time>
      </trkpt>
      <trkpt lat="4.9127900" lon="-75.4858180">
        <ele>2607.0</ele>
        <time>2021-04-17T15:19:16Z</time>
      </trkpt>
      <trkpt lat="4.9127940" lon="-75.4858660">
        <ele>2607.2</ele>
        <time>2021-04-17T15:19:18Z</time>
      </trkpt>
      <trkpt lat="4.9127660" lon="-75.4859580">
        <ele>2607.8</ele>
        <time>2021-04-17T15:19:22Z</time>
      </trkpt>
      <trkpt lat="4.9127310" lon="-75.4859930">
        <ele>2608.2</ele>
        <time>2021-04-17T15:19:24Z</time>
      </trkpt>
      <trkpt lat="4.9126420" lon="-75.4860330">
        <ele>2608.6</ele>
        <time>2021-04-17T15:19:28Z</time>
      </trkpt>
      <trkpt lat="4.9125850" lon="-75.4860490">
        <ele>2609.2</ele>
        <time>2021-04-17T15:19:31Z</time>
      </trkpt>
      <trkpt lat="4.9125320" lon="-75.4860440">
        <ele>2610.0</ele>
        <time>2021-04-17T15:19:34Z</time>
      </trkpt>
      <trkpt lat="4.9125140" lon="-75.4860360">
        <ele>2610.2</ele>
        <time>2021-04-17T15:19:35Z</time>
      </trkpt>
      <trkpt lat="4.9124480" lon="-75.4859810">
        <ele>2611.2</ele>
        <time>2021-04-17T15:19:40Z</time>
      </trkpt>
      <trkpt lat="4.9124360" lon="-75.4859690">
        <ele>2611.4</ele>
        <time>2021-04-17T15:19:41Z</time>
      </trkpt>
      <trkpt lat="4.9123850" lon="-75.4859310">
        <ele>2612.4</ele>
        <time>2021-04-17T15:19:45Z</time>
      </trkpt>
      <trkpt lat="4.9123420" lon="-75.4859040">
        <ele>2613.0</ele>
        <time>2021-04-17T15:19:48Z</time>
      </trkpt>
      <trkpt lat="4.9122960" lon="-75.4858770">
        <ele>2613.4</ele>
        <time>2021-04-17T15:19:51Z</time>
      </trkpt>
      <trkpt lat="4.9122260" lon="-75.4858420">
        <ele>2614.0</ele>
        <time>2021-04-17T15:19:56Z</time>
      </trkpt>
      <trkpt lat="4.9121680" lon="-75.4858110">
        <ele>2614.6</ele>
        <time>2021-04-17T15:20:00Z</time>
      </trkpt>
      <trkpt lat="4.9121310" lon="-75.4857850">
        <ele>2615.0</ele>
        <time>2021-04-17T15:20:03Z</time>
      </trkpt>
      <trkpt lat="4.9120810" lon="-75.4857360">
        <ele>2615.6</ele>
        <time>2021-04-17T15:20:08Z</time>
      </trkpt>
      <trkpt lat="4.9120450" lon="-75.4857070">
        <ele>2616.0</ele>
        <time>2021-04-17T15:20:11Z</time>
      </trkpt>
      <trkpt lat="4.9119610" lon="-75.4856280">
        <ele>2616.6</ele>
        <time>2021-04-17T15:20:18Z</time>
      </trkpt>
      <trkpt lat="4.9119420" lon="-75.4856050">
        <ele>2616.8</ele>
        <time>2021-04-17T15:20:20Z</time>
      </trkpt>
      <trkpt lat="4.9118760" lon="-75.4855550">
        <ele>2617.6</ele>
        <time>2021-04-17T15:20:26Z</time>
      </trkpt>
      <trkpt lat="4.9118640" lon="-75.4855440">
        <ele>2617.8</ele>
        <time>2021-04-17T15:20:27Z</time>
      </trkpt>
      <trkpt lat="4.9117940" lon="-75.4854650">
        <ele>2618.8</ele>
        <time>2021-04-17T15:20:33Z</time>
      </trkpt>
      <trkpt lat="4.9117550" lon="-75.4854210">
        <ele>2619.2</ele>
        <time>2021-04-17T15:20:36Z</time>
      </trkpt>
      <trkpt lat="4.9117140" lon="-75.4853760">
        <ele>2620.0</ele>
        <time>2021-04-17T15:20:39Z</time>
      </trkpt>
      <trkpt lat="4.9116420" lon="-75.4853060">
        <ele>2620.6</ele>
        <time>2021-04-17T15:20:44Z</time>
      </trkpt>
      <trkpt lat="4.9116310" lon="-75.4852920">
        <ele>2620.8</ele>
        <time>2021-04-17T15:20:45Z</time>
      </trkpt>
      <trkpt lat="4.9115630" lon="-75.4852270">
        <ele>2622.0</ele>
        <time>2021-04-17T15:20:51Z</time>
      </trkpt>
      <trkpt lat="4.9115540" lon="-75.4852160">
        <ele>2622.2</ele>
        <time>2021-04-17T15:20:52Z</time>
      </trkpt>
      <trkpt lat="4.9115080" lon="-75.4851540">
        <ele>2623.2</ele>
        <time>2021-04-17T15:20:57Z</time>
      </trkpt>
      <trkpt lat="4.9114690" lon="-75.4851130">
        <ele>2623.6</ele>
        <time>2021-04-17T15:21:01Z</time>
      </trkpt>
      <trkpt lat="4.9114400" lon="-75.4850850">
        <ele>2624.2</ele>
        <time>2021-04-17T15:21:04Z</time>
      </trkpt>
      <trkpt lat="4.9114090" lon="-75.4850470">
        <ele>2624.6</ele>
        <time>2021-04-17T15:21:07Z</time>
      </trkpt>
      <trkpt lat="4.9113660" lon="-75.4849940">
        <ele>2625.2</ele>
        <time>2021-04-17T15:21:11Z</time>
      </trkpt>
      <trkpt lat="4.9113350" lon="-75.4849540">
        <ele>2625.4</ele>
        <time>2021-04-17T15:21:14Z</time>
      </trkpt>
      <trkpt lat="4.9112850" lon="-75.4848830">
        <ele>2626.0</ele>
        <time>2021-04-17T15:21:19Z</time>
      </trkpt>
      <trkpt lat="4.9112480" lon="-75.4848290">
        <ele>2626.6</ele>
        <time>2021-04-17T15:21:23Z</time>
      </trkpt>
      <trkpt lat="4.9112090" lon="-75.4847790">
        <ele>2627.2</ele>
        <time>2021-04-17T15:21:27Z</time>
      </trkpt>
      <trkpt lat="4.9111860" lon="-75.4847530">
        <ele>2627.6</ele>
        <time>2021-04-17T15:21:29Z</time>
      </trkpt>
      <trkpt lat="4.9111170" lon="-75.4847010">
        <ele>2628.2</ele>
        <time>2021-04-17T15:21:34Z</time>
      </trkpt>
      <trkpt lat="4.9111020" lon="-75.4846890">
        <ele>2628.4</ele>
        <time>2021-04-17T15:21:35Z</time>
      </trkpt>
      <trkpt lat="4.9110490" lon="-75.4846130">
        <ele>2629.0</ele>
        <time>2021-04-17T15:21:41Z</time>
      </trkpt>
      <trkpt lat="4.9110390" lon="-75.4846030">
        <ele>2629.4</ele>
        <time>2021-04-17T15:21:42Z</time>
      </trkpt>
      <trkpt lat="4.9109970" lon="-75.4845460">
        <ele>2630.4</ele>
        <time>2021-04-17T15:21:47Z</time>
      </trkpt>
      <trkpt lat="4.9109760" lon="-75.4845240">
        <ele>2631.0</ele>
        <time>2021-04-17T15:21:49Z</time>
      </trkpt>
      <trkpt lat="4.9109650" lon="-75.4844970">
        <ele>2631.4</ele>
        <time>2021-04-17T15:21:51Z</time>
      </trkpt>
      <trkpt lat="4.9109450" lon="-75.4844340">
        <ele>2632.2</ele>
        <time>2021-04-17T15:21:55Z</time>
      </trkpt>
      <trkpt lat="4.9109390" lon="-75.4844190">
        <ele>2632.4</ele>
        <time>2021-04-17T15:21:56Z</time>
      </trkpt>
      <trkpt lat="4.9109080" lon="-75.4843510">
        <ele>2633.6</ele>
        <time>2021-04-17T15:22:01Z</time>
      </trkpt>
      <trkpt lat="4.9108940" lon="-75.4843110">
        <ele>2634.2</ele>
        <time>2021-04-17T15:22:04Z</time>
      </trkpt>
      <trkpt lat="4.9108850" lon="-75.4842760">
        <ele>2634.6</ele>
        <time>2021-04-17T15:22:06Z</time>
      </trkpt>
      <trkpt lat="4.9108520" lon="-75.4842000">
        <ele>2635.4</ele>
        <time>2021-04-17T15:22:11Z</time>
      </trkpt>
      <trkpt lat="4.9108300" lon="-75.4841700">
        <ele>2635.6</ele>
        <time>2021-04-17T15:22:13Z</time>
      </trkpt>
      <trkpt lat="4.9107840" lon="-75.4840820">
        <ele>2636.2</ele>
        <time>2021-04-17T15:22:17Z</time>
      </trkpt>
      <trkpt lat="4.9106530" lon="-75.4839680">
        <ele>2636.6</ele>
        <time>2021-04-17T15:22:23Z</time>
      </trkpt>
      <trkpt lat="4.9104750" lon="-75.4838470">
        <ele>2636.6</ele>
        <time>2021-04-17T15:22:29Z</time>
      </trkpt>
      <trkpt lat="4.9101930" lon="-75.4836730">
        <ele>2636.4</ele>
        <time>2021-04-17T15:22:36Z</time>
      </trkpt>
      <trkpt lat="4.9099830" lon="-75.4835770">
        <ele>2635.8</ele>
        <time>2021-04-17T15:22:40Z</time>
      </trkpt>
      <trkpt lat="4.9099280" lon="-75.4835600">
        <ele>2635.6</ele>
        <time>2021-04-17T15:22:41Z</time>
      </trkpt>
      <trkpt lat="4.9096350" lon="-75.4834790">
        <ele>2635.4</ele>
        <time>2021-04-17T15:22:47Z</time>
      </trkpt>
      <trkpt lat="4.9093200" lon="-75.4834050">
        <ele>2635.6</ele>
        <time>2021-04-17T15:22:55Z</time>
      </trkpt>
      <trkpt lat="4.9092080" lon="-75.4833500">
        <ele>2636.2</ele>
        <time>2021-04-17T15:22:58Z</time>
      </trkpt>
      <trkpt lat="4.9091690" lon="-75.4833350">
        <ele>2636.4</ele>
        <time>2021-04-17T15:22:59Z</time>
      </trkpt>
      <trkpt lat="4.9090840" lon="-75.4832970">
        <ele>2636.4</ele>
        <time>2021-04-17T15:23:01Z</time>
      </trkpt>
      <trkpt lat="4.9089590" lon="-75.4832130">
        <ele>2636.4</ele>
        <time>2021-04-17T15:23:04Z</time>
      </trkpt>
      <trkpt lat="4.9089150" lon="-75.4831860">
        <ele>2636.4</ele>
        <time>2021-04-17T15:23:05Z</time>
      </trkpt>
      <trkpt lat="4.9086960" lon="-75.4830450">
        <ele>2636.6</ele>
        <time>2021-04-17T15:23:11Z</time>
      </trkpt>
      <trkpt lat="4.9084740" lon="-75.4828930">
        <ele>2637.4</ele>
        <time>2021-04-17T15:23:18Z</time>
      </trkpt>
      <trkpt lat="4.9083050" lon="-75.4827910">
        <ele>2638.4</ele>
        <time>2021-04-17T15:23:23Z</time>
      </trkpt>
      <trkpt lat="4.9082370" lon="-75.4827510">
        <ele>2638.6</ele>
        <time>2021-04-17T15:23:25Z</time>
      </trkpt>
      <trkpt lat="4.9080780" lon="-75.4826630">
        <ele>2639.4</ele>
        <time>2021-04-17T15:23:29Z</time>
      </trkpt>
      <trkpt lat="4.9079940" lon="-75.4826110">
        <ele>2639.4</ele>
        <time>2021-04-17T15:23:31Z</time>
      </trkpt>
      <trkpt lat="4.9077720" lon="-75.4824910">
        <ele>2639.4</ele>
        <time>2021-04-17T15:23:36Z</time>
      </trkpt>
      <trkpt lat="4.9076880" lon="-75.4824330">
        <ele>2639.4</ele>
        <time>2021-04-17T15:23:38Z</time>
      </trkpt>
      <trkpt lat="4.9075830" lon="-75.4823470">
        <ele>2639.4</ele>
        <time>2021-04-17T15:23:41Z</time>
      </trkpt>
      <trkpt lat="4.9075070" lon="-75.4822470">
        <ele>2639.4</ele>
        <time>2021-04-17T15:23:44Z</time>
      </trkpt>
      <trkpt lat="4.9074810" lon="-75.4822180">
        <ele>2639.4</ele>
        <time>2021-04-17T15:23:45Z</time>
      </trkpt>
      <trkpt lat="4.9074020" lon="-75.4820780">
        <ele>2639.2</ele>
        <time>2021-04-17T15:23:50Z</time>
      </trkpt>
      <trkpt lat="4.9073500" lon="-75.4819530">
        <ele>2639.4</ele>
        <time>2021-04-17T15:23:57Z</time>
      </trkpt>
      <trkpt lat="4.9073110" lon="-75.4818480">
        <ele>2640.2</ele>
        <time>2021-04-17T15:24:04Z</time>
      </trkpt>
      <trkpt lat="4.9073010" lon="-75.4818360">
        <ele>2640.2</ele>
        <time>2021-04-17T15:24:05Z</time>
      </trkpt>
      <trkpt lat="4.9072770" lon="-75.4817850">
        <ele>2641.2</ele>
        <time>2021-04-17T15:24:09Z</time>
      </trkpt>
      <trkpt lat="4.9072740" lon="-75.4817650">
        <ele>2641.6</ele>
        <time>2021-04-17T15:24:11Z</time>
      </trkpt>
      <trkpt lat="4.9072740" lon="-75.4817640">
        <ele>2641.6</ele>
        <time>2021-04-17T15:24:12Z</time>
      </trkpt>
      <trkpt lat="4.9072310" lon="-75.4817530">
        <ele>2643.6</ele>
        <time>2021-04-17T15:43:42Z</time>
      </trkpt>
      <trkpt lat="4.9072320" lon="-75.4817530">
        <ele>2643.6</ele>
        <time>2021-04-17T15:43:43Z</time>
      </trkpt>
      <trkpt lat="4.9072110" lon="-75.4816420">
        <ele>2643.8</ele>
        <time>2021-04-17T15:47:23Z</time>
      </trkpt>
      <trkpt lat="4.9071980" lon="-75.4816150">
        <ele>2644.2</ele>
        <time>2021-04-17T15:47:25Z</time>
      </trkpt>
      <trkpt lat="4.9071450" lon="-75.4815230">
        <ele>2645.0</ele>
        <time>2021-04-17T15:47:33Z</time>
      </trkpt>
      <trkpt lat="4.9070920" lon="-75.4814300">
        <ele>2645.8</ele>
        <time>2021-04-17T15:47:41Z</time>
      </trkpt>
      <trkpt lat="4.9070670" lon="-75.4813980">
        <ele>2646.0</ele>
        <time>2021-04-17T15:47:44Z</time>
      </trkpt>
      <trkpt lat="4.9070330" lon="-75.4813690">
        <ele>2646.4</ele>
        <time>2021-04-17T15:47:47Z</time>
      </trkpt>
      <trkpt lat="4.9070220" lon="-75.4813610">
        <ele>2646.4</ele>
        <time>2021-04-17T15:47:48Z</time>
      </trkpt>
      <trkpt lat="4.9069610" lon="-75.4813040">
        <ele>2647.2</ele>
        <time>2021-04-17T15:47:54Z</time>
      </trkpt>
      <trkpt lat="4.9069490" lon="-75.4812980">
        <ele>2647.2</ele>
        <time>2021-04-17T15:47:55Z</time>
      </trkpt>
      <trkpt lat="4.9068480" lon="-75.4812540">
        <ele>2648.0</ele>
        <time>2021-04-17T15:48:03Z</time>
      </trkpt>
      <trkpt lat="4.9068360" lon="-75.4812480">
        <ele>2648.4</ele>
        <time>2021-04-17T15:48:04Z</time>
      </trkpt>
      <trkpt lat="4.9067800" lon="-75.4811750">
        <ele>2649.0</ele>
        <time>2021-04-17T15:48:11Z</time>
      </trkpt>
      <trkpt lat="4.9067680" lon="-75.4811460">
        <ele>2649.4</ele>
        <time>2021-04-17T15:48:13Z</time>
      </trkpt>
      <trkpt lat="4.9067580" lon="-75.4810560">
        <ele>2650.4</ele>
        <time>2021-04-17T15:48:19Z</time>
      </trkpt>
      <trkpt lat="4.9067820" lon="-75.4809760">
        <ele>2651.4</ele>
        <time>2021-04-17T15:48:25Z</time>
      </trkpt>
      <trkpt lat="4.9067960" lon="-75.4809550">
        <ele>2651.6</ele>
        <time>2021-04-17T15:48:27Z</time>
      </trkpt>
      <trkpt lat="4.9068490" lon="-75.4809110">
        <ele>2652.8</ele>
        <time>2021-04-17T15:48:33Z</time>
      </trkpt>
      <trkpt lat="4.9068650" lon="-75.4808940">
        <ele>2653.0</ele>
        <time>2021-04-17T15:48:35Z</time>
      </trkpt>
      <trkpt lat="4.9069030" lon="-75.4808620">
        <ele>2653.8</ele>
        <time>2021-04-17T15:48:40Z</time>
      </trkpt>
      <trkpt lat="4.9069230" lon="-75.4808400">
        <ele>2654.6</ele>
        <time>2021-04-17T15:48:43Z</time>
      </trkpt>
      <trkpt lat="4.9069440" lon="-75.4808100">
        <ele>2655.2</ele>
        <time>2021-04-17T15:48:46Z</time>
      </trkpt>
      <trkpt lat="4.9069850" lon="-75.4807820">
        <ele>2656.2</ele>
        <time>2021-04-17T15:48:50Z</time>
      </trkpt>
      <trkpt lat="4.9070450" lon="-75.4807210">
        <ele>2657.0</ele>
        <time>2021-04-17T15:48:57Z</time>
      </trkpt>
      <trkpt lat="4.9070530" lon="-75.4807110">
        <ele>2657.2</ele>
        <time>2021-04-17T15:48:58Z</time>
      </trkpt>
      <trkpt lat="4.9071030" lon="-75.4806400">
        <ele>2658.0</ele>
        <time>2021-04-17T15:49:06Z</time>
      </trkpt>
      <trkpt lat="4.9071240" lon="-75.4805470">
        <ele>2659.2</ele>
        <time>2021-04-17T15:49:13Z</time>
      </trkpt>
      <trkpt lat="4.9071240" lon="-75.4805330">
        <ele>2659.2</ele>
        <time>2021-04-17T15:49:14Z</time>
      </trkpt>
      <trkpt lat="4.9071080" lon="-75.4804530">
        <ele>2660.2</ele>
        <time>2021-04-17T15:49:19Z</time>
      </trkpt>
      <trkpt lat="4.9070730" lon="-75.4804040">
        <ele>2660.4</ele>
        <time>2021-04-17T15:49:23Z</time>
      </trkpt>
      <trkpt lat="4.9069790" lon="-75.4803480">
        <ele>2660.8</ele>
        <time>2021-04-17T15:49:31Z</time>
      </trkpt>
      <trkpt lat="4.9069650" lon="-75.4803460">
        <ele>2661.0</ele>
        <time>2021-04-17T15:49:32Z</time>
      </trkpt>
      <trkpt lat="4.9068750" lon="-75.4803450">
        <ele>2662.2</ele>
        <time>2021-04-17T15:49:39Z</time>
      </trkpt>
      <trkpt lat="4.9067810" lon="-75.4803600">
        <ele>2663.2</ele>
        <time>2021-04-17T15:49:46Z</time>
      </trkpt>
      <trkpt lat="4.9067680" lon="-75.4803660">
        <ele>2663.4</ele>
        <time>2021-04-17T15:49:47Z</time>
      </trkpt>
      <trkpt lat="4.9067090" lon="-75.4803820">
        <ele>2664.0</ele>
        <time>2021-04-17T15:49:52Z</time>
      </trkpt>
      <trkpt lat="4.9066680" lon="-75.4803850">
        <ele>2664.8</ele>
        <time>2021-04-17T15:49:56Z</time>
      </trkpt>
      <trkpt lat="4.9066580" lon="-75.4803890">
        <ele>2665.2</ele>
        <time>2021-04-17T15:49:57Z</time>
      </trkpt>
      <trkpt lat="4.9066180" lon="-75.4804080">
        <ele>2666.2</ele>
        <time>2021-04-17T15:50:01Z</time>
      </trkpt>
      <trkpt lat="4.9065960" lon="-75.4804110">
        <ele>2666.4</ele>
        <time>2021-04-17T15:50:03Z</time>
      </trkpt>
      <trkpt lat="4.9065280" lon="-75.4804170">
        <ele>2667.4</ele>
        <time>2021-04-17T15:50:09Z</time>
      </trkpt>
      <trkpt lat="4.9065050" lon="-75.4804210">
        <ele>2667.6</ele>
        <time>2021-04-17T15:50:11Z</time>
      </trkpt>
      <trkpt lat="4.9064420" lon="-75.4804310">
        <ele>2668.6</ele>
        <time>2021-04-17T15:50:16Z</time>
      </trkpt>
      <trkpt lat="4.9063880" lon="-75.4804310">
        <ele>2669.2</ele>
        <time>2021-04-17T15:50:20Z</time>
      </trkpt>
      <trkpt lat="4.9063490" lon="-75.4804150">
        <ele>2669.6</ele>
        <time>2021-04-17T15:50:23Z</time>
      </trkpt>
      <trkpt lat="4.9063000" lon="-75.4803680">
        <ele>2670.0</ele>
        <time>2021-04-17T15:50:27Z</time>
      </trkpt>
      <trkpt lat="4.9062740" lon="-75.4803430">
        <ele>2670.4</ele>
        <time>2021-04-17T15:50:29Z</time>
      </trkpt>
      <trkpt lat="4.9062420" lon="-75.4803120">
        <ele>2671.0</ele>
        <time>2021-04-17T15:50:32Z</time>
      </trkpt>
      <trkpt lat="4.9062010" lon="-75.4802660">
        <ele>2671.6</ele>
        <time>2021-04-17T15:50:36Z</time>
      </trkpt>
      <trkpt lat="4.9061610" lon="-75.4802180">
        <ele>2672.0</ele>
        <time>2021-04-17T15:50:40Z</time>
      </trkpt>
      <trkpt lat="4.9061200" lon="-75.4801940">
        <ele>2672.4</ele>
        <time>2021-04-17T15:50:43Z</time>
      </trkpt>
      <trkpt lat="4.9060490" lon="-75.4801560">
        <ele>2673.0</ele>
        <time>2021-04-17T15:50:48Z</time>
      </trkpt>
      <trkpt lat="4.9060070" lon="-75.4801330">
        <ele>2673.4</ele>
        <time>2021-04-17T15:50:51Z</time>
      </trkpt>
      <trkpt lat="4.9059410" lon="-75.4800860">
        <ele>2674.2</ele>
        <time>2021-04-17T15:50:57Z</time>
      </trkpt>
      <trkpt lat="4.9058820" lon="-75.4800380">
        <ele>2674.4</ele>
        <time>2021-04-17T15:51:02Z</time>
      </trkpt>
      <trkpt lat="4.9058350" lon="-75.4800140">
        <ele>2675.2</ele>
        <time>2021-04-17T15:51:05Z</time>
      </trkpt>
      <trkpt lat="4.9057720" lon="-75.4799880">
        <ele>2676.0</ele>
        <time>2021-04-17T15:51:09Z</time>
      </trkpt>
      <trkpt lat="4.9057410" lon="-75.4799810">
        <ele>2676.4</ele>
        <time>2021-04-17T15:51:11Z</time>
      </trkpt>
      <trkpt lat="4.9056800" lon="-75.4799670">
        <ele>2677.4</ele>
        <time>2021-04-17T15:51:15Z</time>
      </trkpt>
      <trkpt lat="4.9056690" lon="-75.4799610">
        <ele>2677.6</ele>
        <time>2021-04-17T15:51:16Z</time>
      </trkpt>
      <trkpt lat="4.9056220" lon="-75.4799360">
        <ele>2678.8</ele>
        <time>2021-04-17T15:51:21Z</time>
      </trkpt>
      <trkpt lat="4.9056130" lon="-75.4799300">
        <ele>2679.0</ele>
        <time>2021-04-17T15:51:22Z</time>
      </trkpt>
      <trkpt lat="4.9055870" lon="-75.4799190">
        <ele>2679.6</ele>
        <time>2021-04-17T15:51:24Z</time>
      </trkpt>
      <trkpt lat="4.9055480" lon="-75.4799090">
        <ele>2680.8</ele>
        <time>2021-04-17T15:51:27Z</time>
      </trkpt>
      <trkpt lat="4.9055350" lon="-75.4799070">
        <ele>2681.0</ele>
        <time>2021-04-17T15:51:28Z</time>
      </trkpt>
      <trkpt lat="4.9054770" lon="-75.4798910">
        <ele>2681.8</ele>
        <time>2021-04-17T15:51:33Z</time>
      </trkpt>
      <trkpt lat="4.9054650" lon="-75.4798840">
        <ele>2681.8</ele>
        <time>2021-04-17T15:51:34Z</time>
      </trkpt>
      <trkpt lat="4.9053690" lon="-75.4798310">
        <ele>2682.6</ele>
        <time>2021-04-17T15:51:42Z</time>
      </trkpt>
      <trkpt lat="4.9052780" lon="-75.4797540">
        <ele>2683.4</ele>
        <time>2021-04-17T15:51:50Z</time>
      </trkpt>
      <trkpt lat="4.9052290" lon="-75.4797310">
        <ele>2683.6</ele>
        <time>2021-04-17T15:51:53Z</time>
      </trkpt>
      <trkpt lat="4.9051720" lon="-75.4796980">
        <ele>2684.2</ele>
        <time>2021-04-17T15:51:57Z</time>
      </trkpt>
      <trkpt lat="4.9051090" lon="-75.4796390">
        <ele>2684.4</ele>
        <time>2021-04-17T15:52:03Z</time>
      </trkpt>
      <trkpt lat="4.9050850" lon="-75.4796150">
        <ele>2685.2</ele>
        <time>2021-04-17T15:52:05Z</time>
      </trkpt>
      <trkpt lat="4.9050650" lon="-75.4795870">
        <ele>2685.6</ele>
        <time>2021-04-17T15:52:07Z</time>
      </trkpt>
      <trkpt lat="4.9050230" lon="-75.4795120">
        <ele>2686.6</ele>
        <time>2021-04-17T15:52:12Z</time>
      </trkpt>
      <trkpt lat="4.9049740" lon="-75.4793960">
        <ele>2687.8</ele>
        <time>2021-04-17T15:52:18Z</time>
      </trkpt>
      <trkpt lat="4.9049580" lon="-75.4793650">
        <ele>2688.2</ele>
        <time>2021-04-17T15:52:20Z</time>
      </trkpt>
      <trkpt lat="4.9049230" lon="-75.4793220">
        <ele>2688.6</ele>
        <time>2021-04-17T15:52:24Z</time>
      </trkpt>
      <trkpt lat="4.9049170" lon="-75.4793110">
        <ele>2688.8</ele>
        <time>2021-04-17T15:52:25Z</time>
      </trkpt>
      <trkpt lat="4.9048920" lon="-75.4792850">
        <ele>2689.0</ele>
        <time>2021-04-17T15:52:27Z</time>
      </trkpt>
      <trkpt lat="4.9048640" lon="-75.4792500">
        <ele>2689.6</ele>
        <time>2021-04-17T15:52:30Z</time>
      </trkpt>
      <trkpt lat="4.9048440" lon="-75.4792130">
        <ele>2690.0</ele>
        <time>2021-04-17T15:52:33Z</time>
      </trkpt>
      <trkpt lat="4.9048110" lon="-75.4791640">
        <ele>2690.6</ele>
        <time>2021-04-17T15:52:36Z</time>
      </trkpt>
      <trkpt lat="4.9047750" lon="-75.4791120">
        <ele>2691.4</ele>
        <time>2021-04-17T15:52:39Z</time>
      </trkpt>
      <trkpt lat="4.9047560" lon="-75.4790880">
        <ele>2691.8</ele>
        <time>2021-04-17T15:52:41Z</time>
      </trkpt>
      <trkpt lat="4.9047240" lon="-75.4790350">
        <ele>2692.8</ele>
        <time>2021-04-17T15:52:46Z</time>
      </trkpt>
      <trkpt lat="4.9047150" lon="-75.4790280">
        <ele>2692.8</ele>
        <time>2021-04-17T15:52:47Z</time>
      </trkpt>
      <trkpt lat="4.9046690" lon="-75.4789690">
        <ele>2693.8</ele>
        <time>2021-04-17T15:52:52Z</time>
      </trkpt>
      <trkpt lat="4.9046250" lon="-75.4789140">
        <ele>2694.8</ele>
        <time>2021-04-17T15:52:56Z</time>
      </trkpt>
      <trkpt lat="4.9045680" lon="-75.4788440">
        <ele>2695.8</ele>
        <time>2021-04-17T15:53:02Z</time>
      </trkpt>
      <trkpt lat="4.9045600" lon="-75.4788330">
        <ele>2695.8</ele>
        <time>2021-04-17T15:53:03Z</time>
      </trkpt>
      <trkpt lat="4.9044990" lon="-75.4787520">
        <ele>2696.8</ele>
        <time>2021-04-17T15:53:09Z</time>
      </trkpt>
      <trkpt lat="4.9044870" lon="-75.4787390">
        <ele>2697.0</ele>
        <time>2021-04-17T15:53:10Z</time>
      </trkpt>
      <trkpt lat="4.9044490" lon="-75.4786430">
        <ele>2697.8</ele>
        <time>2021-04-17T15:53:16Z</time>
      </trkpt>
      <trkpt lat="4.9044130" lon="-75.4785330">
        <ele>2699.0</ele>
        <time>2021-04-17T15:53:22Z</time>
      </trkpt>
      <trkpt lat="4.9044070" lon="-75.4785180">
        <ele>2699.2</ele>
        <time>2021-04-17T15:53:23Z</time>
      </trkpt>
      <trkpt lat="4.9043750" lon="-75.4784500">
        <ele>2700.0</ele>
        <time>2021-04-17T15:53:28Z</time>
      </trkpt>
      <trkpt lat="4.9043590" lon="-75.4784200">
        <ele>2700.4</ele>
        <time>2021-04-17T15:53:30Z</time>
      </trkpt>
      <trkpt lat="4.9043480" lon="-75.4784090">
        <ele>2700.6</ele>
        <time>2021-04-17T15:53:31Z</time>
      </trkpt>
      <trkpt lat="4.9043090" lon="-75.4783630">
        <ele>2701.0</ele>
        <time>2021-04-17T15:53:35Z</time>
      </trkpt>
      <trkpt lat="4.9042890" lon="-75.4783390">
        <ele>2701.4</ele>
        <time>2021-04-17T15:53:37Z</time>
      </trkpt>
      <trkpt lat="4.9042670" lon="-75.4782840">
        <ele>2702.0</ele>
        <time>2021-04-17T15:53:41Z</time>
      </trkpt>
      <trkpt lat="4.9042510" lon="-75.4782250">
        <ele>2702.4</ele>
        <time>2021-04-17T15:53:45Z</time>
      </trkpt>
      <trkpt lat="4.9042430" lon="-75.4781840">
        <ele>2703.0</ele>
        <time>2021-04-17T15:53:48Z</time>
      </trkpt>
      <trkpt lat="4.9042340" lon="-75.4781350">
        <ele>2703.8</ele>
        <time>2021-04-17T15:53:52Z</time>
      </trkpt>
      <trkpt lat="4.9042320" lon="-75.4781030">
        <ele>2704.2</ele>
        <time>2021-04-17T15:53:54Z</time>
      </trkpt>
      <trkpt lat="4.9042390" lon="-75.4780190">
        <ele>2705.0</ele>
        <time>2021-04-17T15:53:59Z</time>
      </trkpt>
      <trkpt lat="4.9042290" lon="-75.4779000">
        <ele>2706.0</ele>
        <time>2021-04-17T15:54:05Z</time>
      </trkpt>
      <trkpt lat="4.9042210" lon="-75.4778230">
        <ele>2707.0</ele>
        <time>2021-04-17T15:54:11Z</time>
      </trkpt>
      <trkpt lat="4.9042170" lon="-75.4778120">
        <ele>2707.2</ele>
        <time>2021-04-17T15:54:12Z</time>
      </trkpt>
      <trkpt lat="4.9042080" lon="-75.4777710">
        <ele>2708.0</ele>
        <time>2021-04-17T15:54:15Z</time>
      </trkpt>
      <trkpt lat="4.9042060" lon="-75.4777240">
        <ele>2708.8</ele>
        <time>2021-04-17T15:54:20Z</time>
      </trkpt>
      <trkpt lat="4.9042180" lon="-75.4777000">
        <ele>2709.2</ele>
        <time>2021-04-17T15:54:22Z</time>
      </trkpt>
      <trkpt lat="4.9042420" lon="-75.4776440">
        <ele>2709.4</ele>
        <time>2021-04-17T15:54:26Z</time>
      </trkpt>
      <trkpt lat="4.9042550" lon="-75.4776170">
        <ele>2709.8</ele>
        <time>2021-04-17T15:54:28Z</time>
      </trkpt>
      <trkpt lat="4.9042710" lon="-75.4775890">
        <ele>2710.2</ele>
        <time>2021-04-17T15:54:30Z</time>
      </trkpt>
      <trkpt lat="4.9042830" lon="-75.4775540">
        <ele>2710.8</ele>
        <time>2021-04-17T15:54:32Z</time>
      </trkpt>
      <trkpt lat="4.9042920" lon="-75.4774850">
        <ele>2711.4</ele>
        <time>2021-04-17T15:54:35Z</time>
      </trkpt>
      <trkpt lat="4.9042630" lon="-75.4774280">
        <ele>2712.0</ele>
        <time>2021-04-17T15:54:39Z</time>
      </trkpt>
      <trkpt lat="4.9042630" lon="-75.4774280">
        <ele>2712.2</ele>
        <time>2021-04-17T15:54:40Z</time>
      </trkpt>
      <trkpt lat="4.9041850" lon="-75.4773650">
        <ele>2713.0</ele>
        <time>2021-04-17T15:54:46Z</time>
      </trkpt>
      <trkpt lat="4.9041450" lon="-75.4773540">
        <ele>2713.2</ele>
        <time>2021-04-17T15:54:48Z</time>
      </trkpt>
      <trkpt lat="4.9040300" lon="-75.4773260">
        <ele>2713.8</ele>
        <time>2021-04-17T15:54:53Z</time>
      </trkpt>
      <trkpt lat="4.9040090" lon="-75.4773240">
        <ele>2714.2</ele>
        <time>2021-04-17T15:54:55Z</time>
      </trkpt>
      <trkpt lat="4.9038840" lon="-75.4773180">
        <ele>2714.6</ele>
        <time>2021-04-17T15:55:01Z</time>
      </trkpt>
      <trkpt lat="4.9037970" lon="-75.4773250">
        <ele>2715.2</ele>
        <time>2021-04-17T15:55:05Z</time>
      </trkpt>
      <trkpt lat="4.9037780" lon="-75.4773400">
        <ele>2715.4</ele>
        <time>2021-04-17T15:55:06Z</time>
      </trkpt>
      <trkpt lat="4.9037500" lon="-75.4774210">
        <ele>2715.8</ele>
        <time>2021-04-17T15:55:10Z</time>
      </trkpt>
      <trkpt lat="4.9037440" lon="-75.4774660">
        <ele>2716.0</ele>
        <time>2021-04-17T15:55:12Z</time>
      </trkpt>
      <trkpt lat="4.9037410" lon="-75.4774800">
        <ele>2716.0</ele>
        <time>2021-04-17T15:55:13Z</time>
      </trkpt>
      <trkpt lat="4.9037370" lon="-75.4775360">
        <ele>2717.0</ele>
        <time>2021-04-17T15:55:16Z</time>
      </trkpt>
      <trkpt lat="4.9037350" lon="-75.4775550">
        <ele>2717.6</ele>
        <time>2021-04-17T15:55:18Z</time>
      </trkpt>
      <trkpt lat="4.9037300" lon="-75.4775840">
        <ele>2718.2</ele>
        <time>2021-04-17T15:55:20Z</time>
      </trkpt>
      <trkpt lat="4.9037150" lon="-75.4776380">
        <ele>2719.2</ele>
        <time>2021-04-17T15:55:23Z</time>
      </trkpt>
      <trkpt lat="4.9037050" lon="-75.4776670">
        <ele>2719.6</ele>
        <time>2021-04-17T15:55:26Z</time>
      </trkpt>
      <trkpt lat="4.9036920" lon="-75.4777080">
        <ele>2720.2</ele>
        <time>2021-04-17T15:55:29Z</time>
      </trkpt>
      <trkpt lat="4.9036870" lon="-75.4777690">
        <ele>2721.0</ele>
        <time>2021-04-17T15:55:34Z</time>
      </trkpt>
      <trkpt lat="4.9036910" lon="-75.4778040">
        <ele>2721.0</ele>
        <time>2021-04-17T15:55:35Z</time>
      </trkpt>
      <trkpt lat="4.9036900" lon="-75.4778220">
        <ele>2721.4</ele>
        <time>2021-04-17T15:55:37Z</time>
      </trkpt>
      <trkpt lat="4.9036830" lon="-75.4778470">
        <ele>2722.2</ele>
        <time>2021-04-17T15:55:39Z</time>
      </trkpt>
      <trkpt lat="4.9036760" lon="-75.4778570">
        <ele>2722.2</ele>
        <time>2021-04-17T15:55:40Z</time>
      </trkpt>
      <trkpt lat="4.9036220" lon="-75.4779060">
        <ele>2723.2</ele>
        <time>2021-04-17T15:55:46Z</time>
      </trkpt>
      <trkpt lat="4.9035910" lon="-75.4780030">
        <ele>2723.8</ele>
        <time>2021-04-17T15:55:52Z</time>
      </trkpt>
      <trkpt lat="4.9035770" lon="-75.4780460">
        <ele>2724.2</ele>
        <time>2021-04-17T15:55:55Z</time>
      </trkpt>
      <trkpt lat="4.9035150" lon="-75.4781100">
        <ele>2725.0</ele>
        <time>2021-04-17T15:55:59Z</time>
      </trkpt>
      <trkpt lat="4.9035050" lon="-75.4781270">
        <ele>2725.2</ele>
        <time>2021-04-17T15:56:01Z</time>
      </trkpt>
      <trkpt lat="4.9034220" lon="-75.4781940">
        <ele>2726.2</ele>
        <time>2021-04-17T15:56:08Z</time>
      </trkpt>
      <trkpt lat="4.9034070" lon="-75.4781980">
        <ele>2726.4</ele>
        <time>2021-04-17T15:56:09Z</time>
      </trkpt>
      <trkpt lat="4.9033800" lon="-75.4782510">
        <ele>2727.2</ele>
        <time>2021-04-17T15:56:13Z</time>
      </trkpt>
      <trkpt lat="4.9033430" lon="-75.4782940">
        <ele>2728.0</ele>
        <time>2021-04-17T15:56:17Z</time>
      </trkpt>
      <trkpt lat="4.9033220" lon="-75.4783330">
        <ele>2728.2</ele>
        <time>2021-04-17T15:56:20Z</time>
      </trkpt>
      <trkpt lat="4.9032940" lon="-75.4783740">
        <ele>2728.8</ele>
        <time>2021-04-17T15:56:24Z</time>
      </trkpt>
      <trkpt lat="4.9032600" lon="-75.4783970">
        <ele>2729.2</ele>
        <time>2021-04-17T15:56:27Z</time>
      </trkpt>
      <trkpt lat="4.9032520" lon="-75.4784060">
        <ele>2729.4</ele>
        <time>2021-04-17T15:56:28Z</time>
      </trkpt>
      <trkpt lat="4.9032370" lon="-75.4784300">
        <ele>2730.0</ele>
        <time>2021-04-17T15:56:30Z</time>
      </trkpt>
      <trkpt lat="4.9032210" lon="-75.4784720">
        <ele>2730.4</ele>
        <time>2021-04-17T15:56:33Z</time>
      </trkpt>
      <trkpt lat="4.9032060" lon="-75.4784900">
        <ele>2730.8</ele>
        <time>2021-04-17T15:56:35Z</time>
      </trkpt>
      <trkpt lat="4.9031940" lon="-75.4785110">
        <ele>2731.0</ele>
        <time>2021-04-17T15:56:37Z</time>
      </trkpt>
      <trkpt lat="4.9031750" lon="-75.4785430">
        <ele>2731.2</ele>
        <time>2021-04-17T15:56:40Z</time>
      </trkpt>
      <trkpt lat="4.9031670" lon="-75.4785530">
        <ele>2731.4</ele>
        <time>2021-04-17T15:56:41Z</time>
      </trkpt>
      <trkpt lat="4.9031400" lon="-75.4785930">
        <ele>2732.0</ele>
        <time>2021-04-17T15:56:45Z</time>
      </trkpt>
      <trkpt lat="4.9031210" lon="-75.4786230">
        <ele>2732.8</ele>
        <time>2021-04-17T15:56:48Z</time>
      </trkpt>
      <trkpt lat="4.9031110" lon="-75.4786320">
        <ele>2733.0</ele>
        <time>2021-04-17T15:56:49Z</time>
      </trkpt>
      <trkpt lat="4.9030960" lon="-75.4786480">
        <ele>2733.4</ele>
        <time>2021-04-17T15:56:51Z</time>
      </trkpt>
      <trkpt lat="4.9030810" lon="-75.4786720">
        <ele>2733.8</ele>
        <time>2021-04-17T15:56:53Z</time>
      </trkpt>
      <trkpt lat="4.9030450" lon="-75.4787510">
        <ele>2734.8</ele>
        <time>2021-04-17T15:56:59Z</time>
      </trkpt>
      <trkpt lat="4.9030100" lon="-75.4788000">
        <ele>2736.0</ele>
        <time>2021-04-17T15:57:04Z</time>
      </trkpt>
      <trkpt lat="4.9029780" lon="-75.4788250">
        <ele>2736.6</ele>
        <time>2021-04-17T15:57:07Z</time>
      </trkpt>
      <trkpt lat="4.9029610" lon="-75.4788440">
        <ele>2737.0</ele>
        <time>2021-04-17T15:57:09Z</time>
      </trkpt>
      <trkpt lat="4.9029480" lon="-75.4788600">
        <ele>2737.4</ele>
        <time>2021-04-17T15:57:11Z</time>
      </trkpt>
      <trkpt lat="4.9029390" lon="-75.4788950">
        <ele>2738.0</ele>
        <time>2021-04-17T15:57:14Z</time>
      </trkpt>
      <trkpt lat="4.9029320" lon="-75.4789080">
        <ele>2738.2</ele>
        <time>2021-04-17T15:57:15Z</time>
      </trkpt>
      <trkpt lat="4.9029080" lon="-75.4789730">
        <ele>2739.2</ele>
        <time>2021-04-17T15:57:21Z</time>
      </trkpt>
      <trkpt lat="4.9028880" lon="-75.4790070">
        <ele>2740.4</ele>
        <time>2021-04-17T15:57:25Z</time>
      </trkpt>
      <trkpt lat="4.9028720" lon="-75.4790470">
        <ele>2741.0</ele>
        <time>2021-04-17T15:57:29Z</time>
      </trkpt>
      <trkpt lat="4.9028590" lon="-75.4790620">
        <ele>2741.4</ele>
        <time>2021-04-17T15:57:31Z</time>
      </trkpt>
      <trkpt lat="4.9028420" lon="-75.4791060">
        <ele>2742.6</ele>
        <time>2021-04-17T15:57:36Z</time>
      </trkpt>
      <trkpt lat="4.9028370" lon="-75.4791160">
        <ele>2743.0</ele>
        <time>2021-04-17T15:57:37Z</time>
      </trkpt>
      <trkpt lat="4.9028010" lon="-75.4791550">
        <ele>2743.8</ele>
        <time>2021-04-17T15:57:42Z</time>
      </trkpt>
      <trkpt lat="4.9028000" lon="-75.4792260">
        <ele>2744.8</ele>
        <time>2021-04-17T15:57:47Z</time>
      </trkpt>
      <trkpt lat="4.9028000" lon="-75.4792500">
        <ele>2745.2</ele>
        <time>2021-04-17T15:57:50Z</time>
      </trkpt>
      <trkpt lat="4.9027780" lon="-75.4792950">
        <ele>2745.8</ele>
        <time>2021-04-17T15:57:54Z</time>
      </trkpt>
      <trkpt lat="4.9027550" lon="-75.4793310">
        <ele>2746.6</ele>
        <time>2021-04-17T15:57:57Z</time>
      </trkpt>
      <trkpt lat="4.9027540" lon="-75.4793530">
        <ele>2746.6</ele>
        <time>2021-04-17T15:57:59Z</time>
      </trkpt>
      <trkpt lat="4.9027400" lon="-75.4794110">
        <ele>2747.6</ele>
        <time>2021-04-17T15:58:06Z</time>
      </trkpt>
      <trkpt lat="4.9027330" lon="-75.4794190">
        <ele>2747.8</ele>
        <time>2021-04-17T15:58:07Z</time>
      </trkpt>
      <trkpt lat="4.9027070" lon="-75.4794820">
        <ele>2749.0</ele>
        <time>2021-04-17T15:58:13Z</time>
      </trkpt>
      <trkpt lat="4.9027020" lon="-75.4795160">
        <ele>2749.6</ele>
        <time>2021-04-17T15:58:16Z</time>
      </trkpt>
      <trkpt lat="4.9026880" lon="-75.4795380">
        <ele>2750.0</ele>
        <time>2021-04-17T15:58:18Z</time>
      </trkpt>
      <trkpt lat="4.9026550" lon="-75.4795800">
        <ele>2750.4</ele>
        <time>2021-04-17T15:58:22Z</time>
      </trkpt>
      <trkpt lat="4.9026260" lon="-75.4796420">
        <ele>2751.0</ele>
        <time>2021-04-17T15:58:27Z</time>
      </trkpt>
      <trkpt lat="4.9026200" lon="-75.4796530">
        <ele>2751.0</ele>
        <time>2021-04-17T15:58:28Z</time>
      </trkpt>
      <trkpt lat="4.9025960" lon="-75.4796830">
        <ele>2751.4</ele>
        <time>2021-04-17T15:58:31Z</time>
      </trkpt>
      <trkpt lat="4.9025460" lon="-75.4797040">
        <ele>2752.2</ele>
        <time>2021-04-17T15:58:35Z</time>
      </trkpt>
      <trkpt lat="4.9025160" lon="-75.4797230">
        <ele>2752.6</ele>
        <time>2021-04-17T15:58:38Z</time>
      </trkpt>
      <trkpt lat="4.9024790" lon="-75.4797760">
        <ele>2753.2</ele>
        <time>2021-04-17T15:58:43Z</time>
      </trkpt>
      <trkpt lat="4.9024530" lon="-75.4797980">
        <ele>2753.8</ele>
        <time>2021-04-17T15:58:46Z</time>
      </trkpt>
      <trkpt lat="4.9024290" lon="-75.4798330">
        <ele>2754.4</ele>
        <time>2021-04-17T15:58:49Z</time>
      </trkpt>
      <trkpt lat="4.9023910" lon="-75.4798650">
        <ele>2754.8</ele>
        <time>2021-04-17T15:58:53Z</time>
      </trkpt>
      <trkpt lat="4.9023120" lon="-75.4799030">
        <ele>2755.4</ele>
        <time>2021-04-17T15:58:59Z</time>
      </trkpt>
      <trkpt lat="4.9023010" lon="-75.4799080">
        <ele>2755.6</ele>
        <time>2021-04-17T15:59:00Z</time>
      </trkpt>
      <trkpt lat="4.9022270" lon="-75.4799450">
        <ele>2756.4</ele>
        <time>2021-04-17T15:59:05Z</time>
      </trkpt>
      <trkpt lat="4.9022010" lon="-75.4799570">
        <ele>2756.8</ele>
        <time>2021-04-17T15:59:07Z</time>
      </trkpt>
      <trkpt lat="4.9021450" lon="-75.4799870">
        <ele>2757.4</ele>
        <time>2021-04-17T15:59:12Z</time>
      </trkpt>
      <trkpt lat="4.9021220" lon="-75.4800020">
        <ele>2758.0</ele>
        <time>2021-04-17T15:59:14Z</time>
      </trkpt>
      <trkpt lat="4.9020660" lon="-75.4800440">
        <ele>2758.4</ele>
        <time>2021-04-17T15:59:19Z</time>
      </trkpt>
      <trkpt lat="4.9020420" lon="-75.4800660">
        <ele>2758.8</ele>
        <time>2021-04-17T15:59:21Z</time>
      </trkpt>
      <trkpt lat="4.9019550" lon="-75.4801030">
        <ele>2759.6</ele>
        <time>2021-04-17T15:59:27Z</time>
      </trkpt>
      <trkpt lat="4.9019280" lon="-75.4801180">
        <ele>2759.8</ele>
        <time>2021-04-17T15:59:29Z</time>
      </trkpt>
      <trkpt lat="4.9018970" lon="-75.4801350">
        <ele>2760.2</ele>
        <time>2021-04-17T15:59:32Z</time>
      </trkpt>
      <trkpt lat="4.9018860" lon="-75.4801410">
        <ele>2760.4</ele>
        <time>2021-04-17T15:59:33Z</time>
      </trkpt>
      <trkpt lat="4.9018140" lon="-75.4801640">
        <ele>2761.6</ele>
        <time>2021-04-17T15:59:38Z</time>
      </trkpt>
      <trkpt lat="4.9018020" lon="-75.4801680">
        <ele>2761.6</ele>
        <time>2021-04-17T15:59:39Z</time>
      </trkpt>
      <trkpt lat="4.9017610" lon="-75.4801920">
        <ele>2762.6</ele>
        <time>2021-04-17T15:59:43Z</time>
      </trkpt>
      <trkpt lat="4.9017490" lon="-75.4802080">
        <ele>2763.0</ele>
        <time>2021-04-17T15:59:45Z</time>
      </trkpt>
      <trkpt lat="4.9016990" lon="-75.4802440">
        <ele>2763.6</ele>
        <time>2021-04-17T15:59:50Z</time>
      </trkpt>
      <trkpt lat="4.9016790" lon="-75.4802670">
        <ele>2764.0</ele>
        <time>2021-04-17T15:59:52Z</time>
      </trkpt>
      <trkpt lat="4.9016410" lon="-75.4802920">
        <ele>2764.6</ele>
        <time>2021-04-17T15:59:56Z</time>
      </trkpt>
      <trkpt lat="4.9016280" lon="-75.4802960">
        <ele>2765.0</ele>
        <time>2021-04-17T15:59:57Z</time>
      </trkpt>
      <trkpt lat="4.9015900" lon="-75.4803180">
        <ele>2765.4</ele>
        <time>2021-04-17T16:00:00Z</time>
      </trkpt>
      <trkpt lat="4.9015590" lon="-75.4803350">
        <ele>2766.0</ele>
        <time>2021-04-17T16:00:03Z</time>
      </trkpt>
      <trkpt lat="4.9015310" lon="-75.4803580">
        <ele>2766.8</ele>
        <time>2021-04-17T16:00:06Z</time>
      </trkpt>
      <trkpt lat="4.9014910" lon="-75.4803870">
        <ele>2767.8</ele>
        <time>2021-04-17T16:00:10Z</time>
      </trkpt>
      <trkpt lat="4.9014810" lon="-75.4803970">
        <ele>2768.0</ele>
        <time>2021-04-17T16:00:11Z</time>
      </trkpt>
      <trkpt lat="4.9014200" lon="-75.4804210">
        <ele>2769.0</ele>
        <time>2021-04-17T16:00:16Z</time>
      </trkpt>
      <trkpt lat="4.9013970" lon="-75.4804250">
        <ele>2769.4</ele>
        <time>2021-04-17T16:00:18Z</time>
      </trkpt>
      <trkpt lat="4.9013850" lon="-75.4804230">
        <ele>2769.6</ele>
        <time>2021-04-17T16:00:19Z</time>
      </trkpt>
      <trkpt lat="4.9013610" lon="-75.4804220">
        <ele>2770.0</ele>
        <time>2021-04-17T16:00:21Z</time>
      </trkpt>
      <trkpt lat="4.9013490" lon="-75.4804260">
        <ele>2770.2</ele>
        <time>2021-04-17T16:00:22Z</time>
      </trkpt>
      <trkpt lat="4.9013240" lon="-75.4804210">
        <ele>2770.8</ele>
        <time>2021-04-17T16:00:24Z</time>
      </trkpt>
      <trkpt lat="4.9012950" lon="-75.4804230">
        <ele>2771.0</ele>
        <time>2021-04-17T16:00:26Z</time>
      </trkpt>
      <trkpt lat="4.9012380" lon="-75.4804170">
        <ele>2771.8</ele>
        <time>2021-04-17T16:00:30Z</time>
      </trkpt>
      <trkpt lat="4.9012120" lon="-75.4804040">
        <ele>2772.2</ele>
        <time>2021-04-17T16:00:32Z</time>
      </trkpt>
      <trkpt lat="4.9011470" lon="-75.4803760">
        <ele>2773.0</ele>
        <time>2021-04-17T16:00:37Z</time>
      </trkpt>
      <trkpt lat="4.9010840" lon="-75.4803610">
        <ele>2774.0</ele>
        <time>2021-04-17T16:00:43Z</time>
      </trkpt>
      <trkpt lat="4.9010740" lon="-75.4803590">
        <ele>2774.2</ele>
        <time>2021-04-17T16:00:44Z</time>
      </trkpt>
      <trkpt lat="4.9010270" lon="-75.4803480">
        <ele>2775.2</ele>
        <time>2021-04-17T16:00:49Z</time>
      </trkpt>
      <trkpt lat="4.9009940" lon="-75.4803390">
        <ele>2775.8</ele>
        <time>2021-04-17T16:00:53Z</time>
      </trkpt>
      <trkpt lat="4.9009790" lon="-75.4803430">
        <ele>2776.0</ele>
        <time>2021-04-17T16:00:55Z</time>
      </trkpt>
      <trkpt lat="4.9009200" lon="-75.4803540">
        <ele>2777.2</ele>
        <time>2021-04-17T16:01:01Z</time>
      </trkpt>
      <trkpt lat="4.9008670" lon="-75.4803530">
        <ele>2778.4</ele>
        <time>2021-04-17T16:01:06Z</time>
      </trkpt>
      <trkpt lat="4.9007790" lon="-75.4803410">
        <ele>2779.4</ele>
        <time>2021-04-17T16:01:13Z</time>
      </trkpt>
      <trkpt lat="4.9007390" lon="-75.4803190">
        <ele>2779.8</ele>
        <time>2021-04-17T16:01:17Z</time>
      </trkpt>
      <trkpt lat="4.9006990" lon="-75.4802940">
        <ele>2780.8</ele>
        <time>2021-04-17T16:01:22Z</time>
      </trkpt>
      <trkpt lat="4.9006650" lon="-75.4802460">
        <ele>2781.8</ele>
        <time>2021-04-17T16:01:27Z</time>
      </trkpt>
      <trkpt lat="4.9006440" lon="-75.4802270">
        <ele>2782.0</ele>
        <time>2021-04-17T16:01:29Z</time>
      </trkpt>
      <trkpt lat="4.9005820" lon="-75.4801710">
        <ele>2782.6</ele>
        <time>2021-04-17T16:01:35Z</time>
      </trkpt>
      <trkpt lat="4.9005120" lon="-75.4801390">
        <ele>2783.4</ele>
        <time>2021-04-17T16:01:40Z</time>
      </trkpt>
      <trkpt lat="4.9004880" lon="-75.4801200">
        <ele>2783.8</ele>
        <time>2021-04-17T16:01:42Z</time>
      </trkpt>
      <trkpt lat="4.9004480" lon="-75.4800400">
        <ele>2784.6</ele>
        <time>2021-04-17T16:01:48Z</time>
      </trkpt>
      <trkpt lat="4.9004450" lon="-75.4800250">
        <ele>2784.8</ele>
        <time>2021-04-17T16:01:49Z</time>
      </trkpt>
      <trkpt lat="4.9004160" lon="-75.4799430">
        <ele>2785.6</ele>
        <time>2021-04-17T16:01:56Z</time>
      </trkpt>
      <trkpt lat="4.9004090" lon="-75.4799310">
        <ele>2785.8</ele>
        <time>2021-04-17T16:01:57Z</time>
      </trkpt>
      <trkpt lat="4.9004010" lon="-75.4798640">
        <ele>2787.0</ele>
        <time>2021-04-17T16:02:03Z</time>
      </trkpt>
      <trkpt lat="4.9004030" lon="-75.4797920">
        <ele>2788.2</ele>
        <time>2021-04-17T16:02:08Z</time>
      </trkpt>
      <trkpt lat="4.9004100" lon="-75.4797450">
        <ele>2788.8</ele>
        <time>2021-04-17T16:02:11Z</time>
      </trkpt>
      <trkpt lat="4.9004100" lon="-75.4797280">
        <ele>2789.0</ele>
        <time>2021-04-17T16:02:12Z</time>
      </trkpt>
      <trkpt lat="4.9004110" lon="-75.4796450">
        <ele>2790.2</ele>
        <time>2021-04-17T16:02:18Z</time>
      </trkpt>
      <trkpt lat="4.9003950" lon="-75.4795880">
        <ele>2791.4</ele>
        <time>2021-04-17T16:02:23Z</time>
      </trkpt>
      <trkpt lat="4.9003900" lon="-75.4795590">
        <ele>2791.8</ele>
        <time>2021-04-17T16:02:25Z</time>
      </trkpt>
      <trkpt lat="4.9003720" lon="-75.4795190">
        <ele>2792.2</ele>
        <time>2021-04-17T16:02:29Z</time>
      </trkpt>
      <trkpt lat="4.9003580" lon="-75.4794840">
        <ele>2793.2</ele>
        <time>2021-04-17T16:02:32Z</time>
      </trkpt>
      <trkpt lat="4.9003530" lon="-75.4794710">
        <ele>2793.4</ele>
        <time>2021-04-17T16:02:33Z</time>
      </trkpt>
      <trkpt lat="4.9003090" lon="-75.4794050">
        <ele>2794.0</ele>
        <time>2021-04-17T16:02:40Z</time>
      </trkpt>
      <trkpt lat="4.9002830" lon="-75.4793870">
        <ele>2794.4</ele>
        <time>2021-04-17T16:02:43Z</time>
      </trkpt>
      <trkpt lat="4.9002360" lon="-75.4793740">
        <ele>2795.0</ele>
        <time>2021-04-17T16:02:47Z</time>
      </trkpt>
      <trkpt lat="4.9002270" lon="-75.4793740">
        <ele>2795.2</ele>
        <time>2021-04-17T16:02:48Z</time>
      </trkpt>
      <trkpt lat="4.9001330" lon="-75.4793670">
        <ele>2796.2</ele>
        <time>2021-04-17T16:02:55Z</time>
      </trkpt>
      <trkpt lat="4.9001050" lon="-75.4793600">
        <ele>2796.4</ele>
        <time>2021-04-17T16:02:57Z</time>
      </trkpt>
      <trkpt lat="4.9000410" lon="-75.4793280">
        <ele>2797.4</ele>
        <time>2021-04-17T16:03:02Z</time>
      </trkpt>
      <trkpt lat="4.8999930" lon="-75.4793060">
        <ele>2798.4</ele>
        <time>2021-04-17T16:03:06Z</time>
      </trkpt>
      <trkpt lat="4.8999620" lon="-75.4792800">
        <ele>2798.8</ele>
        <time>2021-04-17T16:03:09Z</time>
      </trkpt>
      <trkpt lat="4.8999320" lon="-75.4792440">
        <ele>2799.6</ele>
        <time>2021-04-17T16:03:12Z</time>
      </trkpt>
      <trkpt lat="4.8999260" lon="-75.4792050">
        <ele>2799.8</ele>
        <time>2021-04-17T16:03:15Z</time>
      </trkpt>
      <trkpt lat="4.8999180" lon="-75.4791580">
        <ele>2800.4</ele>
        <time>2021-04-17T16:03:19Z</time>
      </trkpt>
      <trkpt lat="4.8999240" lon="-75.4791180">
        <ele>2800.6</ele>
        <time>2021-04-17T16:03:22Z</time>
      </trkpt>
      <trkpt lat="4.8999270" lon="-75.4790730">
        <ele>2801.4</ele>
        <time>2021-04-17T16:03:26Z</time>
      </trkpt>
      <trkpt lat="4.8999290" lon="-75.4790420">
        <ele>2801.8</ele>
        <time>2021-04-17T16:03:29Z</time>
      </trkpt>
      <trkpt lat="4.8999180" lon="-75.4789880">
        <ele>2802.4</ele>
        <time>2021-04-17T16:03:34Z</time>
      </trkpt>
      <trkpt lat="4.8999140" lon="-75.4789610">
        <ele>2802.8</ele>
        <time>2021-04-17T16:03:37Z</time>
      </trkpt>
      <trkpt lat="4.8999150" lon="-75.4789420">
        <ele>2802.8</ele>
        <time>2021-04-17T16:03:39Z</time>
      </trkpt>
      <trkpt lat="4.8999090" lon="-75.4789220">
        <ele>2803.4</ele>
        <time>2021-04-17T16:03:41Z</time>
      </trkpt>
      <trkpt lat="4.8999050" lon="-75.4788770">
        <ele>2803.8</ele>
        <time>2021-04-17T16:03:45Z</time>
      </trkpt>
      <trkpt lat="4.8998980" lon="-75.4788440">
        <ele>2804.2</ele>
        <time>2021-04-17T16:03:48Z</time>
      </trkpt>
      <trkpt lat="4.8998930" lon="-75.4787840">
        <ele>2805.2</ele>
        <time>2021-04-17T16:03:53Z</time>
      </trkpt>
      <trkpt lat="4.8998860" lon="-75.4787180">
        <ele>2806.4</ele>
        <time>2021-04-17T16:03:58Z</time>
      </trkpt>
      <trkpt lat="4.8998930" lon="-75.4786930">
        <ele>2806.8</ele>
        <time>2021-04-17T16:04:00Z</time>
      </trkpt>
      <trkpt lat="4.8998990" lon="-75.4786780">
        <ele>2807.2</ele>
        <time>2021-04-17T16:04:02Z</time>
      </trkpt>
      <trkpt lat="4.8999220" lon="-75.4786370">
        <ele>2808.2</ele>
        <time>2021-04-17T16:04:06Z</time>
      </trkpt>
      <trkpt lat="4.8999340" lon="-75.4786290">
        <ele>2808.6</ele>
        <time>2021-04-17T16:04:07Z</time>
      </trkpt>
      <trkpt lat="4.8999480" lon="-75.4786090">
        <ele>2809.0</ele>
        <time>2021-04-17T16:04:09Z</time>
      </trkpt>
      <trkpt lat="4.8999820" lon="-75.4785780">
        <ele>2809.4</ele>
        <time>2021-04-17T16:04:12Z</time>
      </trkpt>
      <trkpt lat="4.8999940" lon="-75.4785660">
        <ele>2809.8</ele>
        <time>2021-04-17T16:04:13Z</time>
      </trkpt>
      <trkpt lat="4.9000520" lon="-75.4784840">
        <ele>2810.4</ele>
        <time>2021-04-17T16:04:19Z</time>
      </trkpt>
      <trkpt lat="4.9001100" lon="-75.4784340">
        <ele>2810.8</ele>
        <time>2021-04-17T16:04:24Z</time>
      </trkpt>
      <trkpt lat="4.9001360" lon="-75.4783960">
        <ele>2811.0</ele>
        <time>2021-04-17T16:04:27Z</time>
      </trkpt>
      <trkpt lat="4.9001500" lon="-75.4783160">
        <ele>2811.8</ele>
        <time>2021-04-17T16:04:33Z</time>
      </trkpt>
      <trkpt lat="4.9001480" lon="-75.4783020">
        <ele>2812.0</ele>
        <time>2021-04-17T16:04:34Z</time>
      </trkpt>
      <trkpt lat="4.9001430" lon="-75.4782480">
        <ele>2812.8</ele>
        <time>2021-04-17T16:04:39Z</time>
      </trkpt>
      <trkpt lat="4.9001400" lon="-75.4782150">
        <ele>2813.2</ele>
        <time>2021-04-17T16:04:42Z</time>
      </trkpt>
      <trkpt lat="4.9001360" lon="-75.4781850">
        <ele>2813.8</ele>
        <time>2021-04-17T16:04:45Z</time>
      </trkpt>
      <trkpt lat="4.9001390" lon="-75.4781430">
        <ele>2814.8</ele>
        <time>2021-04-17T16:04:49Z</time>
      </trkpt>
      <trkpt lat="4.9001400" lon="-75.4781310">
        <ele>2815.0</ele>
        <time>2021-04-17T16:04:50Z</time>
      </trkpt>
      <trkpt lat="4.9001520" lon="-75.4780580">
        <ele>2815.8</ele>
        <time>2021-04-17T16:04:55Z</time>
      </trkpt>
      <trkpt lat="4.9001760" lon="-75.4780170">
        <ele>2816.6</ele>
        <time>2021-04-17T16:04:58Z</time>
      </trkpt>
      <trkpt lat="4.9002180" lon="-75.4779690">
        <ele>2817.2</ele>
        <time>2021-04-17T16:05:02Z</time>
      </trkpt>
      <trkpt lat="4.9002540" lon="-75.4779360">
        <ele>2817.8</ele>
        <time>2021-04-17T16:05:05Z</time>
      </trkpt>
      <trkpt lat="4.9003070" lon="-75.4778970">
        <ele>2818.2</ele>
        <time>2021-04-17T16:05:09Z</time>
      </trkpt>
      <trkpt lat="4.9003400" lon="-75.4778680">
        <ele>2818.4</ele>
        <time>2021-04-17T16:05:12Z</time>
      </trkpt>
      <trkpt lat="4.9003930" lon="-75.4778160">
        <ele>2819.0</ele>
        <time>2021-04-17T16:05:17Z</time>
      </trkpt>
      <trkpt lat="4.9004260" lon="-75.4777800">
        <ele>2819.6</ele>
        <time>2021-04-17T16:05:20Z</time>
      </trkpt>
      <trkpt lat="4.9004540" lon="-75.4777460">
        <ele>2820.2</ele>
        <time>2021-04-17T16:05:23Z</time>
      </trkpt>
      <trkpt lat="4.9005000" lon="-75.4776840">
        <ele>2821.0</ele>
        <time>2021-04-17T16:05:29Z</time>
      </trkpt>
      <trkpt lat="4.9005100" lon="-75.4776740">
        <ele>2821.2</ele>
        <time>2021-04-17T16:05:30Z</time>
      </trkpt>
      <trkpt lat="4.9005570" lon="-75.4776240">
        <ele>2822.2</ele>
        <time>2021-04-17T16:05:35Z</time>
      </trkpt>
      <trkpt lat="4.9006000" lon="-75.4775460">
        <ele>2823.0</ele>
        <time>2021-04-17T16:05:42Z</time>
      </trkpt>
      <trkpt lat="4.9006030" lon="-75.4775370">
        <ele>2823.2</ele>
        <time>2021-04-17T16:05:43Z</time>
      </trkpt>
      <trkpt lat="4.9006170" lon="-75.4774990">
        <ele>2824.4</ele>
        <time>2021-04-17T16:05:47Z</time>
      </trkpt>
      <trkpt lat="4.9006310" lon="-75.4774620">
        <ele>2824.8</ele>
        <time>2021-04-17T16:05:50Z</time>
      </trkpt>
      <trkpt lat="4.9006460" lon="-75.4773930">
        <ele>2825.4</ele>
        <time>2021-04-17T16:05:55Z</time>
      </trkpt>
      <trkpt lat="4.9006530" lon="-75.4773360">
        <ele>2826.2</ele>
        <time>2021-04-17T16:05:59Z</time>
      </trkpt>
      <trkpt lat="4.9006540" lon="-75.4773210">
        <ele>2826.6</ele>
        <time>2021-04-17T16:06:00Z</time>
      </trkpt>
      <trkpt lat="4.9006700" lon="-75.4772000">
        <ele>2827.2</ele>
        <time>2021-04-17T16:06:08Z</time>
      </trkpt>
      <trkpt lat="4.9006700" lon="-75.4771770">
        <ele>2827.6</ele>
        <time>2021-04-17T16:06:10Z</time>
      </trkpt>
      <trkpt lat="4.9006840" lon="-75.4771170">
        <ele>2828.4</ele>
        <time>2021-04-17T16:06:15Z</time>
      </trkpt>
      <trkpt lat="4.9006900" lon="-75.4771030">
        <ele>2828.4</ele>
        <time>2021-04-17T16:06:16Z</time>
      </trkpt>
      <trkpt lat="4.9007100" lon="-75.4770180">
        <ele>2829.2</ele>
        <time>2021-04-17T16:06:22Z</time>
      </trkpt>
      <trkpt lat="4.9007120" lon="-75.4769890">
        <ele>2829.6</ele>
        <time>2021-04-17T16:06:24Z</time>
      </trkpt>
      <trkpt lat="4.9007040" lon="-75.4769270">
        <ele>2830.4</ele>
        <time>2021-04-17T16:06:28Z</time>
      </trkpt>
      <trkpt lat="4.9007000" lon="-75.4768950">
        <ele>2830.6</ele>
        <time>2021-04-17T16:06:30Z</time>
      </trkpt>
      <trkpt lat="4.9006830" lon="-75.4768220">
        <ele>2831.6</ele>
        <time>2021-04-17T16:06:35Z</time>
      </trkpt>
      <trkpt lat="4.9006490" lon="-75.4767310">
        <ele>2832.8</ele>
        <time>2021-04-17T16:06:42Z</time>
      </trkpt>
      <trkpt lat="4.9006010" lon="-75.4766610">
        <ele>2834.0</ele>
        <time>2021-04-17T16:06:49Z</time>
      </trkpt>
      <trkpt lat="4.9005510" lon="-75.4765830">
        <ele>2834.8</ele>
        <time>2021-04-17T16:06:56Z</time>
      </trkpt>
      <trkpt lat="4.9005360" lon="-75.4765630">
        <ele>2835.0</ele>
        <time>2021-04-17T16:06:58Z</time>
      </trkpt>
      <trkpt lat="4.9004830" lon="-75.4765180">
        <ele>2835.8</ele>
        <time>2021-04-17T16:07:03Z</time>
      </trkpt>
      <trkpt lat="4.9004690" lon="-75.4765050">
        <ele>2836.0</ele>
        <time>2021-04-17T16:07:04Z</time>
      </trkpt>
      <trkpt lat="4.9004030" lon="-75.4764530">
        <ele>2837.0</ele>
        <time>2021-04-17T16:07:09Z</time>
      </trkpt>
      <trkpt lat="4.9003740" lon="-75.4764270">
        <ele>2837.0</ele>
        <time>2021-04-17T16:07:11Z</time>
      </trkpt>
      <trkpt lat="4.9002860" lon="-75.4763700">
        <ele>2837.8</ele>
        <time>2021-04-17T16:07:17Z</time>
      </trkpt>
      <trkpt lat="4.9002570" lon="-75.4763550">
        <ele>2838.0</ele>
        <time>2021-04-17T16:07:19Z</time>
      </trkpt>
      <trkpt lat="4.9001810" lon="-75.4763190">
        <ele>2838.8</ele>
        <time>2021-04-17T16:07:24Z</time>
      </trkpt>
      <trkpt lat="4.9001320" lon="-75.4762890">
        <ele>2839.4</ele>
        <time>2021-04-17T16:07:27Z</time>
      </trkpt>
      <trkpt lat="4.9001060" lon="-75.4762670">
        <ele>2839.8</ele>
        <time>2021-04-17T16:07:29Z</time>
      </trkpt>
      <trkpt lat="4.9000400" lon="-75.4761840">
        <ele>2840.6</ele>
        <time>2021-04-17T16:07:35Z</time>
      </trkpt>
      <trkpt lat="4.8999960" lon="-75.4761000">
        <ele>2841.8</ele>
        <time>2021-04-17T16:07:41Z</time>
      </trkpt>
      <trkpt lat="4.8999910" lon="-75.4760840">
        <ele>2842.0</ele>
        <time>2021-04-17T16:07:42Z</time>
      </trkpt>
      <trkpt lat="4.8999960" lon="-75.4759550">
        <ele>2842.8</ele>
        <time>2021-04-17T16:07:49Z</time>
      </trkpt>
      <trkpt lat="4.8999970" lon="-75.4759390">
        <ele>2843.0</ele>
        <time>2021-04-17T16:07:50Z</time>
      </trkpt>
      <trkpt lat="4.9000070" lon="-75.4758570">
        <ele>2844.0</ele>
        <time>2021-04-17T16:07:55Z</time>
      </trkpt>
      <trkpt lat="4.9000140" lon="-75.4758230">
        <ele>2844.2</ele>
        <time>2021-04-17T16:07:57Z</time>
      </trkpt>
      <trkpt lat="4.9000330" lon="-75.4757350">
        <ele>2844.8</ele>
        <time>2021-04-17T16:08:03Z</time>
      </trkpt>
      <trkpt lat="4.9000310" lon="-75.4757060">
        <ele>2845.0</ele>
        <time>2021-04-17T16:08:05Z</time>
      </trkpt>
      <trkpt lat="4.9000120" lon="-75.4755920">
        <ele>2845.8</ele>
        <time>2021-04-17T16:08:12Z</time>
      </trkpt>
      <trkpt lat="4.9000060" lon="-75.4755760">
        <ele>2846.0</ele>
        <time>2021-04-17T16:08:13Z</time>
      </trkpt>
      <trkpt lat="4.8999760" lon="-75.4755020">
        <ele>2847.0</ele>
        <time>2021-04-17T16:08:18Z</time>
      </trkpt>
      <trkpt lat="4.8999570" lon="-75.4754560">
        <ele>2847.6</ele>
        <time>2021-04-17T16:08:21Z</time>
      </trkpt>
      <trkpt lat="4.8999480" lon="-75.4754120">
        <ele>2848.2</ele>
        <time>2021-04-17T16:08:24Z</time>
      </trkpt>
      <trkpt lat="4.8999380" lon="-75.4753570">
        <ele>2848.4</ele>
        <time>2021-04-17T16:08:28Z</time>
      </trkpt>
      <trkpt lat="4.8999190" lon="-75.4753000">
        <ele>2849.0</ele>
        <time>2021-04-17T16:08:32Z</time>
      </trkpt>
      <trkpt lat="4.8999020" lon="-75.4752570">
        <ele>2849.8</ele>
        <time>2021-04-17T16:08:35Z</time>
      </trkpt>
      <trkpt lat="4.8998980" lon="-75.4752420">
        <ele>2850.2</ele>
        <time>2021-04-17T16:08:36Z</time>
      </trkpt>
      <trkpt lat="4.8998550" lon="-75.4751680">
        <ele>2851.2</ele>
        <time>2021-04-17T16:08:42Z</time>
      </trkpt>
      <trkpt lat="4.8998450" lon="-75.4751570">
        <ele>2851.2</ele>
        <time>2021-04-17T16:08:43Z</time>
      </trkpt>
      <trkpt lat="4.8998090" lon="-75.4751080">
        <ele>2852.0</ele>
        <time>2021-04-17T16:08:48Z</time>
      </trkpt>
      <trkpt lat="4.8997840" lon="-75.4750830">
        <ele>2852.6</ele>
        <time>2021-04-17T16:08:51Z</time>
      </trkpt>
      <trkpt lat="4.8997560" lon="-75.4750650">
        <ele>2853.2</ele>
        <time>2021-04-17T16:08:53Z</time>
      </trkpt>
      <trkpt lat="4.8996990" lon="-75.4750400">
        <ele>2853.6</ele>
        <time>2021-04-17T16:08:57Z</time>
      </trkpt>
      <trkpt lat="4.8996280" lon="-75.4749980">
        <ele>2854.2</ele>
        <time>2021-04-17T16:09:02Z</time>
      </trkpt>
      <trkpt lat="4.8995850" lon="-75.4749790">
        <ele>2854.6</ele>
        <time>2021-04-17T16:09:05Z</time>
      </trkpt>
      <trkpt lat="4.8995320" lon="-75.4749340">
        <ele>2855.2</ele>
        <time>2021-04-17T16:09:09Z</time>
      </trkpt>
      <trkpt lat="4.8994660" lon="-75.4748610">
        <ele>2855.8</ele>
        <time>2021-04-17T16:09:14Z</time>
      </trkpt>
      <trkpt lat="4.8993740" lon="-75.4747760">
        <ele>2856.0</ele>
        <time>2021-04-17T16:09:20Z</time>
      </trkpt>
      <trkpt lat="4.8993460" lon="-75.4747450">
        <ele>2856.2</ele>
        <time>2021-04-17T16:09:22Z</time>
      </trkpt>
      <trkpt lat="4.8992140" lon="-75.4746490">
        <ele>2856.8</ele>
        <time>2021-04-17T16:09:30Z</time>
      </trkpt>
      <trkpt lat="4.8991520" lon="-75.4746440">
        <ele>2857.2</ele>
        <time>2021-04-17T16:09:33Z</time>
      </trkpt>
      <trkpt lat="4.8990650" lon="-75.4746620">
        <ele>2857.6</ele>
        <time>2021-04-17T16:09:37Z</time>
      </trkpt>
      <trkpt lat="4.8989770" lon="-75.4746850">
        <ele>2858.2</ele>
        <time>2021-04-17T16:09:41Z</time>
      </trkpt>
      <trkpt lat="4.8988870" lon="-75.4747280">
        <ele>2858.6</ele>
        <time>2021-04-17T16:09:45Z</time>
      </trkpt>
      <trkpt lat="4.8986350" lon="-75.4747750">
        <ele>2859.0</ele>
        <time>2021-04-17T16:09:54Z</time>
      </trkpt>
      <trkpt lat="4.8983930" lon="-75.4747150">
        <ele>2859.4</ele>
        <time>2021-04-17T16:10:01Z</time>
      </trkpt>
      <trkpt lat="4.8981630" lon="-75.4747020">
        <ele>2859.8</ele>
        <time>2021-04-17T16:10:08Z</time>
      </trkpt>
      <trkpt lat="4.8980290" lon="-75.4747070">
        <ele>2860.0</ele>
        <time>2021-04-17T16:10:13Z</time>
      </trkpt>
      <trkpt lat="4.8979760" lon="-75.4746990">
        <ele>2860.4</ele>
        <time>2021-04-17T16:10:15Z</time>
      </trkpt>
      <trkpt lat="4.8978410" lon="-75.4747060">
        <ele>2861.0</ele>
        <time>2021-04-17T16:10:20Z</time>
      </trkpt>
      <trkpt lat="4.8978140" lon="-75.4747050">
        <ele>2861.0</ele>
        <time>2021-04-17T16:10:21Z</time>
      </trkpt>
      <trkpt lat="4.8977030" lon="-75.4747010">
        <ele>2861.6</ele>
        <time>2021-04-17T16:10:25Z</time>
      </trkpt>
      <trkpt lat="4.8976520" lon="-75.4747020">
        <ele>2862.0</ele>
        <time>2021-04-17T16:10:27Z</time>
      </trkpt>
      <trkpt lat="4.8975540" lon="-75.4746960">
        <ele>2863.2</ele>
        <time>2021-04-17T16:10:31Z</time>
      </trkpt>
      <trkpt lat="4.8975280" lon="-75.4746960">
        <ele>2863.4</ele>
        <time>2021-04-17T16:10:32Z</time>
      </trkpt>
      <trkpt lat="4.8974470" lon="-75.4746960">
        <ele>2864.2</ele>
        <time>2021-04-17T16:10:35Z</time>
      </trkpt>
      <trkpt lat="4.8973290" lon="-75.4746870">
        <ele>2864.8</ele>
        <time>2021-04-17T16:10:40Z</time>
      </trkpt>
      <trkpt lat="4.8972860" lon="-75.4746750">
        <ele>2865.2</ele>
        <time>2021-04-17T16:10:42Z</time>
      </trkpt>
      <trkpt lat="4.8971770" lon="-75.4746380">
        <ele>2866.4</ele>
        <time>2021-04-17T16:10:47Z</time>
      </trkpt>
      <trkpt lat="4.8971580" lon="-75.4746270">
        <ele>2866.4</ele>
        <time>2021-04-17T16:10:48Z</time>
      </trkpt>
      <trkpt lat="4.8970440" lon="-75.4745790">
        <ele>2867.6</ele>
        <time>2021-04-17T16:10:54Z</time>
      </trkpt>
      <trkpt lat="4.8969940" lon="-75.4745530">
        <ele>2868.2</ele>
        <time>2021-04-17T16:10:57Z</time>
      </trkpt>
      <trkpt lat="4.8969600" lon="-75.4745340">
        <ele>2868.6</ele>
        <time>2021-04-17T16:10:59Z</time>
      </trkpt>
      <trkpt lat="4.8968600" lon="-75.4744660">
        <ele>2869.8</ele>
        <time>2021-04-17T16:11:05Z</time>
      </trkpt>
      <trkpt lat="4.8967830" lon="-75.4744270">
        <ele>2871.0</ele>
        <time>2021-04-17T16:11:10Z</time>
      </trkpt>
      <trkpt lat="4.8967390" lon="-75.4743940">
        <ele>2871.8</ele>
        <time>2021-04-17T16:11:13Z</time>
      </trkpt>
      <trkpt lat="4.8967130" lon="-75.4743690">
        <ele>2872.2</ele>
        <time>2021-04-17T16:11:15Z</time>
      </trkpt>
      <trkpt lat="4.8966420" lon="-75.4742870">
        <ele>2873.0</ele>
        <time>2021-04-17T16:11:21Z</time>
      </trkpt>
      <trkpt lat="4.8966080" lon="-75.4742470">
        <ele>2873.4</ele>
        <time>2021-04-17T16:11:24Z</time>
      </trkpt>
      <trkpt lat="4.8965540" lon="-75.4741820">
        <ele>2873.8</ele>
        <time>2021-04-17T16:11:29Z</time>
      </trkpt>
      <trkpt lat="4.8965140" lon="-75.4741290">
        <ele>2874.0</ele>
        <time>2021-04-17T16:11:33Z</time>
      </trkpt>
      <trkpt lat="4.8965080" lon="-75.4741160">
        <ele>2874.2</ele>
        <time>2021-04-17T16:11:34Z</time>
      </trkpt>
      <trkpt lat="4.8964960" lon="-75.4740900">
        <ele>2874.4</ele>
        <time>2021-04-17T16:11:36Z</time>
      </trkpt>
      <trkpt lat="4.8964550" lon="-75.4740060">
        <ele>2875.2</ele>
        <time>2021-04-17T16:11:43Z</time>
      </trkpt>
      <trkpt lat="4.8964520" lon="-75.4739920">
        <ele>2875.2</ele>
        <time>2021-04-17T16:11:44Z</time>
      </trkpt>
      <trkpt lat="4.8964340" lon="-75.4738970">
        <ele>2876.4</ele>
        <time>2021-04-17T16:11:51Z</time>
      </trkpt>
      <trkpt lat="4.8964370" lon="-75.4738270">
        <ele>2877.4</ele>
        <time>2021-04-17T16:11:56Z</time>
      </trkpt>
      <trkpt lat="4.8964420" lon="-75.4737770">
        <ele>2878.2</ele>
        <time>2021-04-17T16:12:00Z</time>
      </trkpt>
      <trkpt lat="4.8964460" lon="-75.4737450">
        <ele>2878.4</ele>
        <time>2021-04-17T16:12:02Z</time>
      </trkpt>
      <trkpt lat="4.8964610" lon="-75.4736520">
        <ele>2879.6</ele>
        <time>2021-04-17T16:12:08Z</time>
      </trkpt>
      <trkpt lat="4.8964730" lon="-75.4735630">
        <ele>2881.0</ele>
        <time>2021-04-17T16:12:14Z</time>
      </trkpt>
      <trkpt lat="4.8964760" lon="-75.4735350">
        <ele>2881.8</ele>
        <time>2021-04-17T16:12:16Z</time>
      </trkpt>
      <trkpt lat="4.8964760" lon="-75.4735080">
        <ele>2882.0</ele>
        <time>2021-04-17T16:12:18Z</time>
      </trkpt>
      <trkpt lat="4.8964790" lon="-75.4734400">
        <ele>2882.4</ele>
        <time>2021-04-17T16:12:23Z</time>
      </trkpt>
      <trkpt lat="4.8964820" lon="-75.4733870">
        <ele>2882.8</ele>
        <time>2021-04-17T16:12:27Z</time>
      </trkpt>
      <trkpt lat="4.8964800" lon="-75.4733330">
        <ele>2883.2</ele>
        <time>2021-04-17T16:12:31Z</time>
      </trkpt>
      <trkpt lat="4.8964800" lon="-75.4733070">
        <ele>2883.8</ele>
        <time>2021-04-17T16:12:33Z</time>
      </trkpt>
      <trkpt lat="4.8964810" lon="-75.4732930">
        <ele>2884.2</ele>
        <time>2021-04-17T16:12:34Z</time>
      </trkpt>
      <trkpt lat="4.8964950" lon="-75.4732300">
        <ele>2885.2</ele>
        <time>2021-04-17T16:12:39Z</time>
      </trkpt>
      <trkpt lat="4.8965300" lon="-75.4731560">
        <ele>2886.4</ele>
        <time>2021-04-17T16:12:45Z</time>
      </trkpt>
      <trkpt lat="4.8965640" lon="-75.4730870">
        <ele>2887.6</ele>
        <time>2021-04-17T16:12:50Z</time>
      </trkpt>
      <trkpt lat="4.8965910" lon="-75.4730510">
        <ele>2888.0</ele>
        <time>2021-04-17T16:12:53Z</time>
      </trkpt>
      <trkpt lat="4.8966170" lon="-75.4730060">
        <ele>2888.4</ele>
        <time>2021-04-17T16:12:57Z</time>
      </trkpt>
      <trkpt lat="4.8966320" lon="-75.4729820">
        <ele>2888.8</ele>
        <time>2021-04-17T16:12:59Z</time>
      </trkpt>
      <trkpt lat="4.8966720" lon="-75.4729230">
        <ele>2889.6</ele>
        <time>2021-04-17T16:13:04Z</time>
      </trkpt>
      <trkpt lat="4.8966840" lon="-75.4729020">
        <ele>2890.0</ele>
        <time>2021-04-17T16:13:06Z</time>
      </trkpt>
      <trkpt lat="4.8966990" lon="-75.4728690">
        <ele>2890.6</ele>
        <time>2021-04-17T16:13:09Z</time>
      </trkpt>
      <trkpt lat="4.8967190" lon="-75.4728310">
        <ele>2891.4</ele>
        <time>2021-04-17T16:13:12Z</time>
      </trkpt>
      <trkpt lat="4.8967410" lon="-75.4727910">
        <ele>2891.6</ele>
        <time>2021-04-17T16:13:15Z</time>
      </trkpt>
      <trkpt lat="4.8967810" lon="-75.4727230">
        <ele>2892.2</ele>
        <time>2021-04-17T16:13:20Z</time>
      </trkpt>
      <trkpt lat="4.8968080" lon="-75.4726820">
        <ele>2892.8</ele>
        <time>2021-04-17T16:13:23Z</time>
      </trkpt>
      <trkpt lat="4.8968320" lon="-75.4726380">
        <ele>2893.8</ele>
        <time>2021-04-17T16:13:26Z</time>
      </trkpt>
      <trkpt lat="4.8968660" lon="-75.4725560">
        <ele>2895.0</ele>
        <time>2021-04-17T16:13:32Z</time>
      </trkpt>
      <trkpt lat="4.8968700" lon="-75.4725440">
        <ele>2895.4</ele>
        <time>2021-04-17T16:13:33Z</time>
      </trkpt>
      <trkpt lat="4.8968770" lon="-75.4725110">
        <ele>2896.4</ele>
        <time>2021-04-17T16:13:36Z</time>
      </trkpt>
      <trkpt lat="4.8968990" lon="-75.4724650">
        <ele>2897.2</ele>
        <time>2021-04-17T16:13:40Z</time>
      </trkpt>
      <trkpt lat="4.8969400" lon="-75.4723940">
        <ele>2898.2</ele>
        <time>2021-04-17T16:13:46Z</time>
      </trkpt>
      <trkpt lat="4.8969460" lon="-75.4723830">
        <ele>2898.4</ele>
        <time>2021-04-17T16:13:47Z</time>
      </trkpt>
      <trkpt lat="4.8969520" lon="-75.4723620">
        <ele>2898.8</ele>
        <time>2021-04-17T16:13:49Z</time>
      </trkpt>
      <trkpt lat="4.8969670" lon="-75.4723180">
        <ele>2899.4</ele>
        <time>2021-04-17T16:13:52Z</time>
      </trkpt>
      <trkpt lat="4.8969720" lon="-75.4723030">
        <ele>2899.6</ele>
        <time>2021-04-17T16:13:53Z</time>
      </trkpt>
      <trkpt lat="4.8970130" lon="-75.4722350">
        <ele>2900.6</ele>
        <time>2021-04-17T16:13:58Z</time>
      </trkpt>
      <trkpt lat="4.8970300" lon="-75.4722050">
        <ele>2900.8</ele>
        <time>2021-04-17T16:14:00Z</time>
      </trkpt>
      <trkpt lat="4.8970560" lon="-75.4721420">
        <ele>2901.8</ele>
        <time>2021-04-17T16:14:04Z</time>
      </trkpt>
      <trkpt lat="4.8970600" lon="-75.4721010">
        <ele>2902.6</ele>
        <time>2021-04-17T16:14:07Z</time>
      </trkpt>
      <trkpt lat="4.8970570" lon="-75.4720880">
        <ele>2903.0</ele>
        <time>2021-04-17T16:14:08Z</time>
      </trkpt>
      <trkpt lat="4.8970120" lon="-75.4720040">
        <ele>2904.0</ele>
        <time>2021-04-17T16:14:14Z</time>
      </trkpt>
      <trkpt lat="4.8969990" lon="-75.4719910">
        <ele>2904.2</ele>
        <time>2021-04-17T16:14:15Z</time>
      </trkpt>
      <trkpt lat="4.8968750" lon="-75.4719020">
        <ele>2905.0</ele>
        <time>2021-04-17T16:14:23Z</time>
      </trkpt>
      <trkpt lat="4.8968230" lon="-75.4719070">
        <ele>2905.0</ele>
        <time>2021-04-17T16:14:25Z</time>
      </trkpt>
      <trkpt lat="4.8967720" lon="-75.4719530">
        <ele>2905.4</ele>
        <time>2021-04-17T16:14:28Z</time>
      </trkpt>
      <trkpt lat="4.8966840" lon="-75.4720320">
        <ele>2905.6</ele>
        <time>2021-04-17T16:14:33Z</time>
      </trkpt>
      <trkpt lat="4.8965920" lon="-75.4721160">
        <ele>2905.8</ele>
        <time>2021-04-17T16:14:40Z</time>
      </trkpt>
      <trkpt lat="4.8965450" lon="-75.4721410">
        <ele>2906.0</ele>
        <time>2021-04-17T16:14:43Z</time>
      </trkpt>
      <trkpt lat="4.8964630" lon="-75.4721990">
        <ele>2906.8</ele>
        <time>2021-04-17T16:14:48Z</time>
      </trkpt>
      <trkpt lat="4.8964040" lon="-75.4722310">
        <ele>2907.0</ele>
        <time>2021-04-17T16:14:51Z</time>
      </trkpt>
      <trkpt lat="4.8963020" lon="-75.4722950">
        <ele>2908.0</ele>
        <time>2021-04-17T16:14:56Z</time>
      </trkpt>
      <trkpt lat="4.8962800" lon="-75.4723090">
        <ele>2908.2</ele>
        <time>2021-04-17T16:14:57Z</time>
      </trkpt>
      <trkpt lat="4.8961900" lon="-75.4723600">
        <ele>2908.6</ele>
        <time>2021-04-17T16:15:01Z</time>
      </trkpt>
      <trkpt lat="4.8961220" lon="-75.4723970">
        <ele>2909.0</ele>
        <time>2021-04-17T16:15:04Z</time>
      </trkpt>
      <trkpt lat="4.8960290" lon="-75.4724450">
        <ele>2910.4</ele>
        <time>2021-04-17T16:15:08Z</time>
      </trkpt>
      <trkpt lat="4.8959640" lon="-75.4724740">
        <ele>2911.0</ele>
        <time>2021-04-17T16:15:11Z</time>
      </trkpt>
      <trkpt lat="4.8958950" lon="-75.4725170">
        <ele>2911.4</ele>
        <time>2021-04-17T16:15:14Z</time>
      </trkpt>
      <trkpt lat="4.8957900" lon="-75.4725670">
        <ele>2912.4</ele>
        <time>2021-04-17T16:15:19Z</time>
      </trkpt>
      <trkpt lat="4.8956530" lon="-75.4725880">
        <ele>2913.2</ele>
        <time>2021-04-17T16:15:25Z</time>
      </trkpt>
      <trkpt lat="4.8956080" lon="-75.4725850">
        <ele>2913.6</ele>
        <time>2021-04-17T16:15:27Z</time>
      </trkpt>
      <trkpt lat="4.8955000" lon="-75.4725800">
        <ele>2914.4</ele>
        <time>2021-04-17T16:15:32Z</time>
      </trkpt>
      <trkpt lat="4.8954580" lon="-75.4725780">
        <ele>2914.6</ele>
        <time>2021-04-17T16:15:34Z</time>
      </trkpt>
      <trkpt lat="4.8953730" lon="-75.4725690">
        <ele>2915.2</ele>
        <time>2021-04-17T16:15:38Z</time>
      </trkpt>
      <trkpt lat="4.8953060" lon="-75.4725640">
        <ele>2915.8</ele>
        <time>2021-04-17T16:15:41Z</time>
      </trkpt>
      <trkpt lat="4.8952130" lon="-75.4725500">
        <ele>2917.0</ele>
        <time>2021-04-17T16:15:45Z</time>
      </trkpt>
      <trkpt lat="4.8950200" lon="-75.4725210">
        <ele>2918.0</ele>
        <time>2021-04-17T16:15:53Z</time>
      </trkpt>
      <trkpt lat="4.8948620" lon="-75.4725220">
        <ele>2918.8</ele>
        <time>2021-04-17T16:16:00Z</time>
      </trkpt>
      <trkpt lat="4.8948160" lon="-75.4725280">
        <ele>2919.2</ele>
        <time>2021-04-17T16:16:02Z</time>
      </trkpt>
      <trkpt lat="4.8947070" lon="-75.4725250">
        <ele>2919.8</ele>
        <time>2021-04-17T16:16:07Z</time>
      </trkpt>
      <trkpt lat="4.8946840" lon="-75.4725260">
        <ele>2920.2</ele>
        <time>2021-04-17T16:16:08Z</time>
      </trkpt>
      <trkpt lat="4.8946080" lon="-75.4725360">
        <ele>2921.2</ele>
        <time>2021-04-17T16:16:12Z</time>
      </trkpt>
      <trkpt lat="4.8945330" lon="-75.4725680">
        <ele>2922.2</ele>
        <time>2021-04-17T16:16:16Z</time>
      </trkpt>
      <trkpt lat="4.8944780" lon="-75.4726010">
        <ele>2923.0</ele>
        <time>2021-04-17T16:16:19Z</time>
      </trkpt>
      <trkpt lat="4.8943930" lon="-75.4726630">
        <ele>2923.2</ele>
        <time>2021-04-17T16:16:24Z</time>
      </trkpt>
      <trkpt lat="4.8943590" lon="-75.4726950">
        <ele>2923.4</ele>
        <time>2021-04-17T16:16:26Z</time>
      </trkpt>
      <trkpt lat="4.8942360" lon="-75.4727690">
        <ele>2924.4</ele>
        <time>2021-04-17T16:16:32Z</time>
      </trkpt>
      <trkpt lat="4.8941920" lon="-75.4727900">
        <ele>2924.6</ele>
        <time>2021-04-17T16:16:34Z</time>
      </trkpt>
      <trkpt lat="4.8941210" lon="-75.4728320">
        <ele>2925.4</ele>
        <time>2021-04-17T16:16:38Z</time>
      </trkpt>
      <trkpt lat="4.8940920" lon="-75.4728500">
        <ele>2926.2</ele>
        <time>2021-04-17T16:16:40Z</time>
      </trkpt>
      <trkpt lat="4.8940550" lon="-75.4728690">
        <ele>2926.4</ele>
        <time>2021-04-17T16:16:42Z</time>
      </trkpt>
      <trkpt lat="4.8939420" lon="-75.4728970">
        <ele>2927.6</ele>
        <time>2021-04-17T16:16:47Z</time>
      </trkpt>
      <trkpt lat="4.8938270" lon="-75.4728830">
        <ele>2928.4</ele>
        <time>2021-04-17T16:16:51Z</time>
      </trkpt>
      <trkpt lat="4.8937320" lon="-75.4728750">
        <ele>2928.6</ele>
        <time>2021-04-17T16:16:54Z</time>
      </trkpt>
      <trkpt lat="4.8935410" lon="-75.4728500">
        <ele>2929.4</ele>
        <time>2021-04-17T16:17:00Z</time>
      </trkpt>
      <trkpt lat="4.8934790" lon="-75.4728390">
        <ele>2929.6</ele>
        <time>2021-04-17T16:17:02Z</time>
      </trkpt>
      <trkpt lat="4.8932470" lon="-75.4728220">
        <ele>2930.4</ele>
        <time>2021-04-17T16:17:10Z</time>
      </trkpt>
      <trkpt lat="4.8932200" lon="-75.4728200">
        <ele>2930.4</ele>
        <time>2021-04-17T16:17:11Z</time>
      </trkpt>
      <trkpt lat="4.8930610" lon="-75.4728180">
        <ele>2931.0</ele>
        <time>2021-04-17T16:17:17Z</time>
      </trkpt>
      <trkpt lat="4.8929610" lon="-75.4728100">
        <ele>2931.6</ele>
        <time>2021-04-17T16:17:20Z</time>
      </trkpt>
      <trkpt lat="4.8928500" lon="-75.4728060">
        <ele>2931.6</ele>
        <time>2021-04-17T16:17:23Z</time>
      </trkpt>
      <trkpt lat="4.8927180" lon="-75.4728160">
        <ele>2931.8</ele>
        <time>2021-04-17T16:17:26Z</time>
      </trkpt>
      <trkpt lat="4.8926310" lon="-75.4728270">
        <ele>2931.8</ele>
        <time>2021-04-17T16:17:28Z</time>
      </trkpt>
      <trkpt lat="4.8925440" lon="-75.4728260">
        <ele>2931.8</ele>
        <time>2021-04-17T16:17:30Z</time>
      </trkpt>
      <trkpt lat="4.8922210" lon="-75.4728130">
        <ele>2932.0</ele>
        <time>2021-04-17T16:17:38Z</time>
      </trkpt>
      <trkpt lat="4.8920990" lon="-75.4728210">
        <ele>2932.2</ele>
        <time>2021-04-17T16:17:42Z</time>
      </trkpt>
      <trkpt lat="4.8920130" lon="-75.4728210">
        <ele>2932.6</ele>
        <time>2021-04-17T16:17:45Z</time>
      </trkpt>
      <trkpt lat="4.8919250" lon="-75.4728350">
        <ele>2933.2</ele>
        <time>2021-04-17T16:17:48Z</time>
      </trkpt>
      <trkpt lat="4.8918630" lon="-75.4728390">
        <ele>2933.8</ele>
        <time>2021-04-17T16:17:50Z</time>
      </trkpt>
      <trkpt lat="4.8917400" lon="-75.4728190">
        <ele>2934.6</ele>
        <time>2021-04-17T16:17:54Z</time>
      </trkpt>
      <trkpt lat="4.8916780" lon="-75.4728190">
        <ele>2935.2</ele>
        <time>2021-04-17T16:17:56Z</time>
      </trkpt>
      <trkpt lat="4.8915780" lon="-75.4728190">
        <ele>2935.8</ele>
        <time>2021-04-17T16:17:59Z</time>
      </trkpt>
      <trkpt lat="4.8914820" lon="-75.4728170">
        <ele>2936.8</ele>
        <time>2021-04-17T16:18:02Z</time>
      </trkpt>
      <trkpt lat="4.8914500" lon="-75.4728170">
        <ele>2937.4</ele>
        <time>2021-04-17T16:18:03Z</time>
      </trkpt>
      <trkpt lat="4.8913870" lon="-75.4728070">
        <ele>2937.8</ele>
        <time>2021-04-17T16:18:05Z</time>
      </trkpt>
      <trkpt lat="4.8912740" lon="-75.4727700">
        <ele>2938.2</ele>
        <time>2021-04-17T16:18:09Z</time>
      </trkpt>
      <trkpt lat="4.8911910" lon="-75.4727250">
        <ele>2938.6</ele>
        <time>2021-04-17T16:18:12Z</time>
      </trkpt>
      <trkpt lat="4.8910940" lon="-75.4726690">
        <ele>2939.2</ele>
        <time>2021-04-17T16:18:15Z</time>
      </trkpt>
      <trkpt lat="4.8908480" lon="-75.4725010">
        <ele>2939.4</ele>
        <time>2021-04-17T16:18:22Z</time>
      </trkpt>
      <trkpt lat="4.8907270" lon="-75.4723130">
        <ele>2939.4</ele>
        <time>2021-04-17T16:18:27Z</time>
      </trkpt>
      <trkpt lat="4.8905380" lon="-75.4720460">
        <ele>2939.4</ele>
        <time>2021-04-17T16:18:34Z</time>
      </trkpt>
      <trkpt lat="4.8903970" lon="-75.4717550">
        <ele>2939.2</ele>
        <time>2021-04-17T16:18:41Z</time>
      </trkpt>
      <trkpt lat="4.8902520" lon="-75.4714800">
        <ele>2938.8</ele>
        <time>2021-04-17T16:18:47Z</time>
      </trkpt>
      <trkpt lat="4.8901180" lon="-75.4712480">
        <ele>2938.8</ele>
        <time>2021-04-17T16:18:53Z</time>
      </trkpt>
      <trkpt lat="4.8900350" lon="-75.4711100">
        <ele>2939.2</ele>
        <time>2021-04-17T16:18:59Z</time>
      </trkpt>
      <trkpt lat="4.8900230" lon="-75.4710920">
        <ele>2939.6</ele>
        <time>2021-04-17T16:19:00Z</time>
      </trkpt>
      <trkpt lat="4.8899640" lon="-75.4710020">
        <ele>2940.6</ele>
        <time>2021-04-17T16:19:05Z</time>
      </trkpt>
      <trkpt lat="4.8899340" lon="-75.4709460">
        <ele>2941.6</ele>
        <time>2021-04-17T16:19:08Z</time>
      </trkpt>
      <trkpt lat="4.8899220" lon="-75.4709290">
        <ele>2941.8</ele>
        <time>2021-04-17T16:19:09Z</time>
      </trkpt>
      <trkpt lat="4.8898760" lon="-75.4708370">
        <ele>2942.8</ele>
        <time>2021-04-17T16:19:14Z</time>
      </trkpt>
      <trkpt lat="4.8898680" lon="-75.4708190">
        <ele>2943.0</ele>
        <time>2021-04-17T16:19:15Z</time>
      </trkpt>
      <trkpt lat="4.8898250" lon="-75.4707290">
        <ele>2944.2</ele>
        <time>2021-04-17T16:19:20Z</time>
      </trkpt>
      <trkpt lat="4.8898040" lon="-75.4706920">
        <ele>2944.4</ele>
        <time>2021-04-17T16:19:22Z</time>
      </trkpt>
      <trkpt lat="4.8897550" lon="-75.4705950">
        <ele>2945.2</ele>
        <time>2021-04-17T16:19:27Z</time>
      </trkpt>
      <trkpt lat="4.8897280" lon="-75.4705480">
        <ele>2946.2</ele>
        <time>2021-04-17T16:19:30Z</time>
      </trkpt>
      <trkpt lat="4.8897190" lon="-75.4705310">
        <ele>2946.4</ele>
        <time>2021-04-17T16:19:31Z</time>
      </trkpt>
      <trkpt lat="4.8896780" lon="-75.4704460">
        <ele>2947.2</ele>
        <time>2021-04-17T16:19:36Z</time>
      </trkpt>
      <trkpt lat="4.8896430" lon="-75.4703740">
        <ele>2948.4</ele>
        <time>2021-04-17T16:19:40Z</time>
      </trkpt>
      <trkpt lat="4.8896140" lon="-75.4703170">
        <ele>2948.8</ele>
        <time>2021-04-17T16:19:43Z</time>
      </trkpt>
      <trkpt lat="4.8895680" lon="-75.4702200">
        <ele>2949.6</ele>
        <time>2021-04-17T16:19:48Z</time>
      </trkpt>
      <trkpt lat="4.8895480" lon="-75.4701620">
        <ele>2950.0</ele>
        <time>2021-04-17T16:19:51Z</time>
      </trkpt>
      <trkpt lat="4.8895040" lon="-75.4700340">
        <ele>2950.4</ele>
        <time>2021-04-17T16:19:57Z</time>
      </trkpt>
      <trkpt lat="4.8894860" lon="-75.4699990">
        <ele>2950.6</ele>
        <time>2021-04-17T16:19:59Z</time>
      </trkpt>
      <trkpt lat="4.8894200" lon="-75.4699070">
        <ele>2951.6</ele>
        <time>2021-04-17T16:20:05Z</time>
      </trkpt>
      <trkpt lat="4.8894060" lon="-75.4698920">
        <ele>2951.8</ele>
        <time>2021-04-17T16:20:06Z</time>
      </trkpt>
      <trkpt lat="4.8893370" lon="-75.4698040">
        <ele>2952.6</ele>
        <time>2021-04-17T16:20:12Z</time>
      </trkpt>
      <trkpt lat="4.8893260" lon="-75.4697870">
        <ele>2953.0</ele>
        <time>2021-04-17T16:20:13Z</time>
      </trkpt>
      <trkpt lat="4.8892950" lon="-75.4697340">
        <ele>2953.8</ele>
        <time>2021-04-17T16:20:16Z</time>
      </trkpt>
      <trkpt lat="4.8892520" lon="-75.4696410">
        <ele>2954.8</ele>
        <time>2021-04-17T16:20:21Z</time>
      </trkpt>
      <trkpt lat="4.8892460" lon="-75.4696220">
        <ele>2954.8</ele>
        <time>2021-04-17T16:20:22Z</time>
      </trkpt>
      <trkpt lat="4.8892040" lon="-75.4695110">
        <ele>2955.8</ele>
        <time>2021-04-17T16:20:27Z</time>
      </trkpt>
      <trkpt lat="4.8891780" lon="-75.4694660">
        <ele>2956.2</ele>
        <time>2021-04-17T16:20:29Z</time>
      </trkpt>
      <trkpt lat="4.8891050" lon="-75.4693990">
        <ele>2957.0</ele>
        <time>2021-04-17T16:20:33Z</time>
      </trkpt>
      <trkpt lat="4.8890610" lon="-75.4693800">
        <ele>2957.4</ele>
        <time>2021-04-17T16:20:35Z</time>
      </trkpt>
      <trkpt lat="4.8889340" lon="-75.4693540">
        <ele>2958.0</ele>
        <time>2021-04-17T16:20:41Z</time>
      </trkpt>
      <trkpt lat="4.8889130" lon="-75.4693540">
        <ele>2958.0</ele>
        <time>2021-04-17T16:20:42Z</time>
      </trkpt>
      <trkpt lat="4.8888280" lon="-75.4693480">
        <ele>2958.8</ele>
        <time>2021-04-17T16:20:46Z</time>
      </trkpt>
      <trkpt lat="4.8887110" lon="-75.4693260">
        <ele>2960.0</ele>
        <time>2021-04-17T16:20:51Z</time>
      </trkpt>
      <trkpt lat="4.8886870" lon="-75.4693170">
        <ele>2960.0</ele>
        <time>2021-04-17T16:20:52Z</time>
      </trkpt>
      <trkpt lat="4.8885700" lon="-75.4692690">
        <ele>2961.2</ele>
        <time>2021-04-17T16:20:57Z</time>
      </trkpt>
      <trkpt lat="4.8884460" lon="-75.4692170">
        <ele>2961.8</ele>
        <time>2021-04-17T16:21:02Z</time>
      </trkpt>
      <trkpt lat="4.8883550" lon="-75.4691710">
        <ele>2962.2</ele>
        <time>2021-04-17T16:21:06Z</time>
      </trkpt>
      <trkpt lat="4.8883160" lon="-75.4691460">
        <ele>2962.4</ele>
        <time>2021-04-17T16:21:08Z</time>
      </trkpt>
      <trkpt lat="4.8882460" lon="-75.4690920">
        <ele>2963.2</ele>
        <time>2021-04-17T16:21:12Z</time>
      </trkpt>
      <trkpt lat="4.8881880" lon="-75.4689940">
        <ele>2963.8</ele>
        <time>2021-04-17T16:21:17Z</time>
      </trkpt>
      <trkpt lat="4.8881780" lon="-75.4689440">
        <ele>2964.4</ele>
        <time>2021-04-17T16:21:19Z</time>
      </trkpt>
      <trkpt lat="4.8881720" lon="-75.4688340">
        <ele>2965.2</ele>
        <time>2021-04-17T16:21:23Z</time>
      </trkpt>
      <trkpt lat="4.8881640" lon="-75.4687800">
        <ele>2965.4</ele>
        <time>2021-04-17T16:21:25Z</time>
      </trkpt>
      <trkpt lat="4.8881480" lon="-75.4686170">
        <ele>2966.2</ele>
        <time>2021-04-17T16:21:31Z</time>
      </trkpt>
      <trkpt lat="4.8881400" lon="-75.4685640">
        <ele>2966.4</ele>
        <time>2021-04-17T16:21:33Z</time>
      </trkpt>
      <trkpt lat="4.8880920" lon="-75.4684330">
        <ele>2967.4</ele>
        <time>2021-04-17T16:21:39Z</time>
      </trkpt>
      <trkpt lat="4.8880780" lon="-75.4683940">
        <ele>2967.6</ele>
        <time>2021-04-17T16:21:41Z</time>
      </trkpt>
      <trkpt lat="4.8880630" lon="-75.4683580">
        <ele>2968.0</ele>
        <time>2021-04-17T16:21:43Z</time>
      </trkpt>
      <trkpt lat="4.8880290" lon="-75.4682850">
        <ele>2968.4</ele>
        <time>2021-04-17T16:21:47Z</time>
      </trkpt>
      <trkpt lat="4.8880210" lon="-75.4682680">
        <ele>2968.6</ele>
        <time>2021-04-17T16:21:48Z</time>
      </trkpt>
      <trkpt lat="4.8879600" lon="-75.4681400">
        <ele>2969.6</ele>
        <time>2021-04-17T16:21:55Z</time>
      </trkpt>
      <trkpt lat="4.8879370" lon="-75.4681040">
        <ele>2969.8</ele>
        <time>2021-04-17T16:21:57Z</time>
      </trkpt>
      <trkpt lat="4.8878660" lon="-75.4680310">
        <ele>2970.6</ele>
        <time>2021-04-17T16:22:02Z</time>
      </trkpt>
      <trkpt lat="4.8878200" lon="-75.4679920">
        <ele>2971.0</ele>
        <time>2021-04-17T16:22:05Z</time>
      </trkpt>
      <trkpt lat="4.8877740" lon="-75.4679560">
        <ele>2971.8</ele>
        <time>2021-04-17T16:22:08Z</time>
      </trkpt>
      <trkpt lat="4.8877260" lon="-75.4679000">
        <ele>2972.8</ele>
        <time>2021-04-17T16:22:12Z</time>
      </trkpt>
      <trkpt lat="4.8877170" lon="-75.4678860">
        <ele>2973.0</ele>
        <time>2021-04-17T16:22:13Z</time>
      </trkpt>
      <trkpt lat="4.8876980" lon="-75.4678390">
        <ele>2973.8</ele>
        <time>2021-04-17T16:22:16Z</time>
      </trkpt>
      <trkpt lat="4.8876900" lon="-75.4677830">
        <ele>2975.0</ele>
        <time>2021-04-17T16:22:19Z</time>
      </trkpt>
      <trkpt lat="4.8876900" lon="-75.4677630">
        <ele>2975.4</ele>
        <time>2021-04-17T16:22:20Z</time>
      </trkpt>
      <trkpt lat="4.8876890" lon="-75.4677250">
        <ele>2976.0</ele>
        <time>2021-04-17T16:22:22Z</time>
      </trkpt>
      <trkpt lat="4.8877030" lon="-75.4676490">
        <ele>2977.0</ele>
        <time>2021-04-17T16:22:26Z</time>
      </trkpt>
      <trkpt lat="4.8877120" lon="-75.4676110">
        <ele>2977.4</ele>
        <time>2021-04-17T16:22:28Z</time>
      </trkpt>
      <trkpt lat="4.8877270" lon="-75.4675560">
        <ele>2978.0</ele>
        <time>2021-04-17T16:22:31Z</time>
      </trkpt>
      <trkpt lat="4.8877560" lon="-75.4674530">
        <ele>2979.0</ele>
        <time>2021-04-17T16:22:37Z</time>
      </trkpt>
      <trkpt lat="4.8877870" lon="-75.4673450">
        <ele>2980.2</ele>
        <time>2021-04-17T16:22:44Z</time>
      </trkpt>
      <trkpt lat="4.8877940" lon="-75.4673130">
        <ele>2980.4</ele>
        <time>2021-04-17T16:22:46Z</time>
      </trkpt>
      <trkpt lat="4.8877820" lon="-75.4672370">
        <ele>2981.2</ele>
        <time>2021-04-17T16:22:51Z</time>
      </trkpt>
      <trkpt lat="4.8877580" lon="-75.4671890">
        <ele>2981.6</ele>
        <time>2021-04-17T16:22:54Z</time>
      </trkpt>
      <trkpt lat="4.8877180" lon="-75.4671350">
        <ele>2982.2</ele>
        <time>2021-04-17T16:22:58Z</time>
      </trkpt>
      <trkpt lat="4.8876930" lon="-75.4670890">
        <ele>2982.6</ele>
        <time>2021-04-17T16:23:01Z</time>
      </trkpt>
      <trkpt lat="4.8876790" lon="-75.4670210">
        <ele>2983.4</ele>
        <time>2021-04-17T16:23:05Z</time>
      </trkpt>
      <trkpt lat="4.8876880" lon="-75.4669870">
        <ele>2984.4</ele>
        <time>2021-04-17T16:23:07Z</time>
      </trkpt>
      <trkpt lat="4.8877090" lon="-75.4669540">
        <ele>2985.0</ele>
        <time>2021-04-17T16:23:09Z</time>
      </trkpt>
      <trkpt lat="4.8877340" lon="-75.4669280">
        <ele>2985.6</ele>
        <time>2021-04-17T16:23:11Z</time>
      </trkpt>
      <trkpt lat="4.8877840" lon="-75.4668770">
        <ele>2986.6</ele>
        <time>2021-04-17T16:23:15Z</time>
      </trkpt>
      <trkpt lat="4.8878590" lon="-75.4668190">
        <ele>2987.4</ele>
        <time>2021-04-17T16:23:20Z</time>
      </trkpt>
      <trkpt lat="4.8879070" lon="-75.4667830">
        <ele>2987.6</ele>
        <time>2021-04-17T16:23:23Z</time>
      </trkpt>
      <trkpt lat="4.8879200" lon="-75.4667700">
        <ele>2987.6</ele>
        <time>2021-04-17T16:23:24Z</time>
      </trkpt>
      <trkpt lat="4.8880250" lon="-75.4666640">
        <ele>2988.6</ele>
        <time>2021-04-17T16:23:32Z</time>
      </trkpt>
      <trkpt lat="4.8880610" lon="-75.4665640">
        <ele>2989.6</ele>
        <time>2021-04-17T16:23:39Z</time>
      </trkpt>
      <trkpt lat="4.8880650" lon="-75.4665510">
        <ele>2989.6</ele>
        <time>2021-04-17T16:23:40Z</time>
      </trkpt>
      <trkpt lat="4.8881020" lon="-75.4664740">
        <ele>2990.4</ele>
        <time>2021-04-17T16:23:45Z</time>
      </trkpt>
      <trkpt lat="4.8881250" lon="-75.4664230">
        <ele>2990.6</ele>
        <time>2021-04-17T16:23:48Z</time>
      </trkpt>
      <trkpt lat="4.8881600" lon="-75.4663400">
        <ele>2991.2</ele>
        <time>2021-04-17T16:23:53Z</time>
      </trkpt>
      <trkpt lat="4.8881750" lon="-75.4663070">
        <ele>2991.8</ele>
        <time>2021-04-17T16:23:55Z</time>
      </trkpt>
      <trkpt lat="4.8882210" lon="-75.4662270">
        <ele>2992.2</ele>
        <time>2021-04-17T16:24:00Z</time>
      </trkpt>
      <trkpt lat="4.8882390" lon="-75.4661920">
        <ele>2992.6</ele>
        <time>2021-04-17T16:24:02Z</time>
      </trkpt>
      <trkpt lat="4.8882600" lon="-75.4660850">
        <ele>2993.6</ele>
        <time>2021-04-17T16:24:08Z</time>
      </trkpt>
      <trkpt lat="4.8882610" lon="-75.4660670">
        <ele>2993.8</ele>
        <time>2021-04-17T16:24:09Z</time>
      </trkpt>
      <trkpt lat="4.8882430" lon="-75.4659850">
        <ele>2994.6</ele>
        <time>2021-04-17T16:24:13Z</time>
      </trkpt>
      <trkpt lat="4.8882090" lon="-75.4659170">
        <ele>2995.4</ele>
        <time>2021-04-17T16:24:16Z</time>
      </trkpt>
      <trkpt lat="4.8881780" lon="-75.4658720">
        <ele>2995.6</ele>
        <time>2021-04-17T16:24:18Z</time>
      </trkpt>
      <trkpt lat="4.8880870" lon="-75.4657510">
        <ele>2996.6</ele>
        <time>2021-04-17T16:24:24Z</time>
      </trkpt>
      <trkpt lat="4.8879980" lon="-75.4656400">
        <ele>2997.6</ele>
        <time>2021-04-17T16:24:29Z</time>
      </trkpt>
      <trkpt lat="4.8879640" lon="-75.4655910">
        <ele>2998.0</ele>
        <time>2021-04-17T16:24:31Z</time>
      </trkpt>
      <trkpt lat="4.8878480" lon="-75.4655000">
        <ele>2998.4</ele>
        <time>2021-04-17T16:24:37Z</time>
      </trkpt>
      <trkpt lat="4.8878280" lon="-75.4654900">
        <ele>2998.4</ele>
        <time>2021-04-17T16:24:38Z</time>
      </trkpt>
      <trkpt lat="4.8876970" lon="-75.4654430">
        <ele>2999.4</ele>
        <time>2021-04-17T16:24:44Z</time>
      </trkpt>
      <trkpt lat="4.8876740" lon="-75.4654330">
        <ele>2999.6</ele>
        <time>2021-04-17T16:24:45Z</time>
      </trkpt>
      <trkpt lat="4.8875620" lon="-75.4653290">
        <ele>3000.6</ele>
        <time>2021-04-17T16:24:51Z</time>
      </trkpt>
      <trkpt lat="4.8875500" lon="-75.4652990">
        <ele>3000.8</ele>
        <time>2021-04-17T16:24:52Z</time>
      </trkpt>
      <trkpt lat="4.8875490" lon="-75.4652220">
        <ele>3001.2</ele>
        <time>2021-04-17T16:24:54Z</time>
      </trkpt>
      <trkpt lat="4.8875630" lon="-75.4651800">
        <ele>3001.2</ele>
        <time>2021-04-17T16:24:55Z</time>
      </trkpt>
      <trkpt lat="4.8876510" lon="-75.4649780">
        <ele>3001.2</ele>
        <time>2021-04-17T16:24:59Z</time>
      </trkpt>
      <trkpt lat="4.8876680" lon="-75.4647230">
        <ele>3001.2</ele>
        <time>2021-04-17T16:25:03Z</time>
      </trkpt>
      <trkpt lat="4.8876620" lon="-75.4646670">
        <ele>3000.6</ele>
        <time>2021-04-17T16:25:04Z</time>
      </trkpt>
      <trkpt lat="4.8876610" lon="-75.4645210">
        <ele>2999.8</ele>
        <time>2021-04-17T16:25:07Z</time>
      </trkpt>
      <trkpt lat="4.8876730" lon="-75.4644790">
        <ele>2999.8</ele>
        <time>2021-04-17T16:25:08Z</time>
      </trkpt>
      <trkpt lat="4.8877630" lon="-75.4642840">
        <ele>2999.6</ele>
        <time>2021-04-17T16:25:13Z</time>
      </trkpt>
      <trkpt lat="4.8877780" lon="-75.4642380">
        <ele>2999.6</ele>
        <time>2021-04-17T16:25:14Z</time>
      </trkpt>
      <trkpt lat="4.8877890" lon="-75.4641090">
        <ele>2999.8</ele>
        <time>2021-04-17T16:25:17Z</time>
      </trkpt>
      <trkpt lat="4.8877660" lon="-75.4639290">
        <ele>3000.0</ele>
        <time>2021-04-17T16:25:22Z</time>
      </trkpt>
      <trkpt lat="4.8877720" lon="-75.4638230">
        <ele>3000.2</ele>
        <time>2021-04-17T16:25:26Z</time>
      </trkpt>
      <trkpt lat="4.8877780" lon="-75.4637740">
        <ele>3000.4</ele>
        <time>2021-04-17T16:25:28Z</time>
      </trkpt>
      <trkpt lat="4.8878100" lon="-75.4636310">
        <ele>3001.6</ele>
        <time>2021-04-17T16:25:34Z</time>
      </trkpt>
      <trkpt lat="4.8878300" lon="-75.4635900">
        <ele>3002.2</ele>
        <time>2021-04-17T16:25:36Z</time>
      </trkpt>
      <trkpt lat="4.8878470" lon="-75.4635470">
        <ele>3002.8</ele>
        <time>2021-04-17T16:25:38Z</time>
      </trkpt>
      <trkpt lat="4.8879000" lon="-75.4634620">
        <ele>3003.6</ele>
        <time>2021-04-17T16:25:42Z</time>
      </trkpt>
      <trkpt lat="4.8879070" lon="-75.4634390">
        <ele>3003.8</ele>
        <time>2021-04-17T16:25:43Z</time>
      </trkpt>
      <trkpt lat="4.8879390" lon="-75.4633300">
        <ele>3005.0</ele>
        <time>2021-04-17T16:25:48Z</time>
      </trkpt>
      <trkpt lat="4.8879510" lon="-75.4632580">
        <ele>3006.0</ele>
        <time>2021-04-17T16:25:52Z</time>
      </trkpt>
      <trkpt lat="4.8879630" lon="-75.4632010">
        <ele>3006.4</ele>
        <time>2021-04-17T16:25:55Z</time>
      </trkpt>
      <trkpt lat="4.8879740" lon="-75.4631600">
        <ele>3007.4</ele>
        <time>2021-04-17T16:25:57Z</time>
      </trkpt>
      <trkpt lat="4.8880050" lon="-75.4630840">
        <ele>3008.4</ele>
        <time>2021-04-17T16:26:01Z</time>
      </trkpt>
      <trkpt lat="4.8880090" lon="-75.4630650">
        <ele>3008.8</ele>
        <time>2021-04-17T16:26:02Z</time>
      </trkpt>
      <trkpt lat="4.8880250" lon="-75.4629910">
        <ele>3009.8</ele>
        <time>2021-04-17T16:26:06Z</time>
      </trkpt>
      <trkpt lat="4.8880220" lon="-75.4629100">
        <ele>3011.0</ele>
        <time>2021-04-17T16:26:10Z</time>
      </trkpt>
      <trkpt lat="4.8880220" lon="-75.4628910">
        <ele>3011.2</ele>
        <time>2021-04-17T16:26:11Z</time>
      </trkpt>
      <trkpt lat="4.8880250" lon="-75.4628200">
        <ele>3012.0</ele>
        <time>2021-04-17T16:26:15Z</time>
      </trkpt>
      <trkpt lat="4.8880150" lon="-75.4627480">
        <ele>3012.4</ele>
        <time>2021-04-17T16:26:19Z</time>
      </trkpt>
      <trkpt lat="4.8879730" lon="-75.4626440">
        <ele>3013.2</ele>
        <time>2021-04-17T16:26:24Z</time>
      </trkpt>
      <trkpt lat="4.8879620" lon="-75.4626010">
        <ele>3013.4</ele>
        <time>2021-04-17T16:26:26Z</time>
      </trkpt>
      <trkpt lat="4.8879880" lon="-75.4624390">
        <ele>3013.8</ele>
        <time>2021-04-17T16:26:33Z</time>
      </trkpt>
      <trkpt lat="4.8880090" lon="-75.4623920">
        <ele>3014.2</ele>
        <time>2021-04-17T16:26:35Z</time>
      </trkpt>
      <trkpt lat="4.8880590" lon="-75.4623220">
        <ele>3015.0</ele>
        <time>2021-04-17T16:26:39Z</time>
      </trkpt>
      <trkpt lat="4.8880750" lon="-75.4623060">
        <ele>3015.2</ele>
        <time>2021-04-17T16:26:40Z</time>
      </trkpt>
      <trkpt lat="4.8881710" lon="-75.4622040">
        <ele>3015.6</ele>
        <time>2021-04-17T16:26:45Z</time>
      </trkpt>
      <trkpt lat="4.8882590" lon="-75.4621280">
        <ele>3015.8</ele>
        <time>2021-04-17T16:26:50Z</time>
      </trkpt>
      <trkpt lat="4.8883060" lon="-75.4620930">
        <ele>3016.0</ele>
        <time>2021-04-17T16:26:53Z</time>
      </trkpt>
      <trkpt lat="4.8883650" lon="-75.4620680">
        <ele>3016.6</ele>
        <time>2021-04-17T16:26:56Z</time>
      </trkpt>
      <trkpt lat="4.8884630" lon="-75.4620340">
        <ele>3017.2</ele>
        <time>2021-04-17T16:27:00Z</time>
      </trkpt>
      <trkpt lat="4.8885290" lon="-75.4620160">
        <ele>3017.8</ele>
        <time>2021-04-17T16:27:03Z</time>
      </trkpt>
      <trkpt lat="4.8886290" lon="-75.4619770">
        <ele>3018.4</ele>
        <time>2021-04-17T16:27:08Z</time>
      </trkpt>
      <trkpt lat="4.8886470" lon="-75.4619630">
        <ele>3018.6</ele>
        <time>2021-04-17T16:27:09Z</time>
      </trkpt>
      <trkpt lat="4.8887210" lon="-75.4618910">
        <ele>3019.4</ele>
        <time>2021-04-17T16:27:14Z</time>
      </trkpt>
      <trkpt lat="4.8887340" lon="-75.4618770">
        <ele>3019.6</ele>
        <time>2021-04-17T16:27:15Z</time>
      </trkpt>
      <trkpt lat="4.8888010" lon="-75.4618070">
        <ele>3020.6</ele>
        <time>2021-04-17T16:27:20Z</time>
      </trkpt>
      <trkpt lat="4.8888140" lon="-75.4617910">
        <ele>3020.8</ele>
        <time>2021-04-17T16:27:21Z</time>
      </trkpt>
      <trkpt lat="4.8888740" lon="-75.4617310">
        <ele>3021.8</ele>
        <time>2021-04-17T16:27:25Z</time>
      </trkpt>
      <trkpt lat="4.8889250" lon="-75.4616960">
        <ele>3022.0</ele>
        <time>2021-04-17T16:27:28Z</time>
      </trkpt>
      <trkpt lat="4.8889600" lon="-75.4616760">
        <ele>3022.6</ele>
        <time>2021-04-17T16:27:30Z</time>
      </trkpt>
      <trkpt lat="4.8890190" lon="-75.4616520">
        <ele>3023.6</ele>
        <time>2021-04-17T16:27:33Z</time>
      </trkpt>
      <trkpt lat="4.8890360" lon="-75.4616420">
        <ele>3024.0</ele>
        <time>2021-04-17T16:27:34Z</time>
      </trkpt>
      <trkpt lat="4.8890790" lon="-75.4616120">
        <ele>3024.8</ele>
        <time>2021-04-17T16:27:37Z</time>
      </trkpt>
      <trkpt lat="4.8891200" lon="-75.4615740">
        <ele>3025.8</ele>
        <time>2021-04-17T16:27:40Z</time>
      </trkpt>
      <trkpt lat="4.8891320" lon="-75.4615570">
        <ele>3026.0</ele>
        <time>2021-04-17T16:27:41Z</time>
      </trkpt>
      <trkpt lat="4.8891780" lon="-75.4614860">
        <ele>3027.2</ele>
        <time>2021-04-17T16:27:46Z</time>
      </trkpt>
      <trkpt lat="4.8892490" lon="-75.4614110">
        <ele>3028.4</ele>
        <time>2021-04-17T16:27:51Z</time>
      </trkpt>
      <trkpt lat="4.8892840" lon="-75.4613620">
        <ele>3028.6</ele>
        <time>2021-04-17T16:27:54Z</time>
      </trkpt>
      <trkpt lat="4.8893400" lon="-75.4612600">
        <ele>3029.4</ele>
        <time>2021-04-17T16:28:01Z</time>
      </trkpt>
      <trkpt lat="4.8893470" lon="-75.4612420">
        <ele>3029.6</ele>
        <time>2021-04-17T16:28:02Z</time>
      </trkpt>
      <trkpt lat="4.8893730" lon="-75.4611450">
        <ele>3029.8</ele>
        <time>2021-04-17T16:28:08Z</time>
      </trkpt>
      <trkpt lat="4.8893740" lon="-75.4611070">
        <ele>3030.4</ele>
        <time>2021-04-17T16:28:10Z</time>
      </trkpt>
      <trkpt lat="4.8893720" lon="-75.4610450">
        <ele>3030.8</ele>
        <time>2021-04-17T16:28:14Z</time>
      </trkpt>
      <trkpt lat="4.8893760" lon="-75.4609650">
        <ele>3031.4</ele>
        <time>2021-04-17T16:28:19Z</time>
      </trkpt>
      <trkpt lat="4.8893930" lon="-75.4609150">
        <ele>3031.6</ele>
        <time>2021-04-17T16:28:22Z</time>
      </trkpt>
      <trkpt lat="4.8894280" lon="-75.4608280">
        <ele>3032.4</ele>
        <time>2021-04-17T16:28:26Z</time>
      </trkpt>
      <trkpt lat="4.8894400" lon="-75.4607510">
        <ele>3033.0</ele>
        <time>2021-04-17T16:28:29Z</time>
      </trkpt>
      <trkpt lat="4.8894840" lon="-75.4606780">
        <ele>3033.4</ele>
        <time>2021-04-17T16:28:32Z</time>
      </trkpt>
      <trkpt lat="4.8895310" lon="-75.4606140">
        <ele>3034.0</ele>
        <time>2021-04-17T16:28:35Z</time>
      </trkpt>
      <trkpt lat="4.8895800" lon="-75.4605770">
        <ele>3034.6</ele>
        <time>2021-04-17T16:28:37Z</time>
      </trkpt>
      <trkpt lat="4.8896840" lon="-75.4604990">
        <ele>3035.6</ele>
        <time>2021-04-17T16:28:41Z</time>
      </trkpt>
      <trkpt lat="4.8897050" lon="-75.4604790">
        <ele>3035.8</ele>
        <time>2021-04-17T16:28:42Z</time>
      </trkpt>
      <trkpt lat="4.8897900" lon="-75.4603850">
        <ele>3036.8</ele>
        <time>2021-04-17T16:28:47Z</time>
      </trkpt>
      <trkpt lat="4.8898100" lon="-75.4603380">
        <ele>3037.0</ele>
        <time>2021-04-17T16:28:49Z</time>
      </trkpt>
      <trkpt lat="4.8898390" lon="-75.4602460">
        <ele>3037.8</ele>
        <time>2021-04-17T16:28:53Z</time>
      </trkpt>
      <trkpt lat="4.8898680" lon="-75.4601710">
        <ele>3038.0</ele>
        <time>2021-04-17T16:28:56Z</time>
      </trkpt>
      <trkpt lat="4.8899260" lon="-75.4599660">
        <ele>3038.6</ele>
        <time>2021-04-17T16:29:04Z</time>
      </trkpt>
      <trkpt lat="4.8899920" lon="-75.4597920">
        <ele>3039.6</ele>
        <time>2021-04-17T16:29:11Z</time>
      </trkpt>
      <trkpt lat="4.8900020" lon="-75.4597680">
        <ele>3039.8</ele>
        <time>2021-04-17T16:29:12Z</time>
      </trkpt>
      <trkpt lat="4.8900400" lon="-75.4596500">
        <ele>3040.8</ele>
        <time>2021-04-17T16:29:17Z</time>
      </trkpt>
      <trkpt lat="4.8900630" lon="-75.4595830">
        <ele>3041.2</ele>
        <time>2021-04-17T16:29:20Z</time>
      </trkpt>
      <trkpt lat="4.8900820" lon="-75.4595400">
        <ele>3041.6</ele>
        <time>2021-04-17T16:29:22Z</time>
      </trkpt>
      <trkpt lat="4.8901300" lon="-75.4594660">
        <ele>3042.6</ele>
        <time>2021-04-17T16:29:26Z</time>
      </trkpt>
      <trkpt lat="4.8901480" lon="-75.4594480">
        <ele>3042.8</ele>
        <time>2021-04-17T16:29:27Z</time>
      </trkpt>
      <trkpt lat="4.8902390" lon="-75.4593590">
        <ele>3043.8</ele>
        <time>2021-04-17T16:29:32Z</time>
      </trkpt>
      <trkpt lat="4.8902550" lon="-75.4593470">
        <ele>3043.8</ele>
        <time>2021-04-17T16:29:33Z</time>
      </trkpt>
      <trkpt lat="4.8903440" lon="-75.4592610">
        <ele>3044.4</ele>
        <time>2021-04-17T16:29:39Z</time>
      </trkpt>
      <trkpt lat="4.8903560" lon="-75.4592430">
        <ele>3044.8</ele>
        <time>2021-04-17T16:29:40Z</time>
      </trkpt>
      <trkpt lat="4.8904010" lon="-75.4591960">
        <ele>3046.0</ele>
        <time>2021-04-17T16:29:44Z</time>
      </trkpt>
      <trkpt lat="4.8904080" lon="-75.4591850">
        <ele>3046.4</ele>
        <time>2021-04-17T16:29:45Z</time>
      </trkpt>
      <trkpt lat="4.8904610" lon="-75.4591310">
        <ele>3047.0</ele>
        <time>2021-04-17T16:29:50Z</time>
      </trkpt>
      <trkpt lat="4.8905000" lon="-75.4591030">
        <ele>3047.8</ele>
        <time>2021-04-17T16:29:53Z</time>
      </trkpt>
      <trkpt lat="4.8905270" lon="-75.4590790">
        <ele>3048.2</ele>
        <time>2021-04-17T16:29:55Z</time>
      </trkpt>
      <trkpt lat="4.8905810" lon="-75.4590350">
        <ele>3049.2</ele>
        <time>2021-04-17T16:29:59Z</time>
      </trkpt>
      <trkpt lat="4.8905960" lon="-75.4590240">
        <ele>3049.4</ele>
        <time>2021-04-17T16:30:00Z</time>
      </trkpt>
      <trkpt lat="4.8906900" lon="-75.4589450">
        <ele>3050.2</ele>
        <time>2021-04-17T16:30:06Z</time>
      </trkpt>
      <trkpt lat="4.8907260" lon="-75.4589180">
        <ele>3050.2</ele>
        <time>2021-04-17T16:30:08Z</time>
      </trkpt>
      <trkpt lat="4.8907900" lon="-75.4588530">
        <ele>3051.2</ele>
        <time>2021-04-17T16:30:13Z</time>
      </trkpt>
      <trkpt lat="4.8908420" lon="-75.4587970">
        <ele>3052.2</ele>
        <time>2021-04-17T16:30:17Z</time>
      </trkpt>
      <trkpt lat="4.8908760" lon="-75.4587030">
        <ele>3053.2</ele>
        <time>2021-04-17T16:30:23Z</time>
      </trkpt>
      <trkpt lat="4.8908740" lon="-75.4586850">
        <ele>3053.4</ele>
        <time>2021-04-17T16:30:24Z</time>
      </trkpt>
      <trkpt lat="4.8908180" lon="-75.4586120">
        <ele>3054.4</ele>
        <time>2021-04-17T16:30:29Z</time>
      </trkpt>
      <trkpt lat="4.8907860" lon="-75.4585950">
        <ele>3054.8</ele>
        <time>2021-04-17T16:30:31Z</time>
      </trkpt>
      <trkpt lat="4.8907110" lon="-75.4585880">
        <ele>3055.2</ele>
        <time>2021-04-17T16:30:35Z</time>
      </trkpt>
      <trkpt lat="4.8905250" lon="-75.4585930">
        <ele>3056.2</ele>
        <time>2021-04-17T16:30:44Z</time>
      </trkpt>
      <trkpt lat="4.8904580" lon="-75.4585950">
        <ele>3056.4</ele>
        <time>2021-04-17T16:30:47Z</time>
      </trkpt>
      <trkpt lat="4.8903600" lon="-75.4585970">
        <ele>3056.8</ele>
        <time>2021-04-17T16:30:52Z</time>
      </trkpt>
      <trkpt lat="4.8902480" lon="-75.4585960">
        <ele>3057.4</ele>
        <time>2021-04-17T16:30:58Z</time>
      </trkpt>
      <trkpt lat="4.8902110" lon="-75.4585970">
        <ele>3057.6</ele>
        <time>2021-04-17T16:31:00Z</time>
      </trkpt>
      <trkpt lat="4.8900930" lon="-75.4586140">
        <ele>3058.4</ele>
        <time>2021-04-17T16:31:06Z</time>
      </trkpt>
      <trkpt lat="4.8900720" lon="-75.4586170">
        <ele>3058.6</ele>
        <time>2021-04-17T16:31:07Z</time>
      </trkpt>
      <trkpt lat="4.8900060" lon="-75.4586400">
        <ele>3059.6</ele>
        <time>2021-04-17T16:31:10Z</time>
      </trkpt>
      <trkpt lat="4.8899430" lon="-75.4586720">
        <ele>3060.2</ele>
        <time>2021-04-17T16:31:13Z</time>
      </trkpt>
      <trkpt lat="4.8899040" lon="-75.4586920">
        <ele>3060.6</ele>
        <time>2021-04-17T16:31:15Z</time>
      </trkpt>
      <trkpt lat="4.8898010" lon="-75.4587550">
        <ele>3061.4</ele>
        <time>2021-04-17T16:31:21Z</time>
      </trkpt>
      <trkpt lat="4.8897170" lon="-75.4588060">
        <ele>3062.6</ele>
        <time>2021-04-17T16:31:26Z</time>
      </trkpt>
      <trkpt lat="4.8896670" lon="-75.4588300">
        <ele>3063.0</ele>
        <time>2021-04-17T16:31:29Z</time>
      </trkpt>
      <trkpt lat="4.8896300" lon="-75.4588430">
        <ele>3063.6</ele>
        <time>2021-04-17T16:31:31Z</time>
      </trkpt>
      <trkpt lat="4.8895200" lon="-75.4588950">
        <ele>3064.6</ele>
        <time>2021-04-17T16:31:37Z</time>
      </trkpt>
      <trkpt lat="4.8894230" lon="-75.4589320">
        <ele>3065.8</ele>
        <time>2021-04-17T16:31:42Z</time>
      </trkpt>
      <trkpt lat="4.8893880" lon="-75.4589430">
        <ele>3065.8</ele>
        <time>2021-04-17T16:31:44Z</time>
      </trkpt>
      <trkpt lat="4.8892620" lon="-75.4589330">
        <ele>3066.6</ele>
        <time>2021-04-17T16:31:51Z</time>
      </trkpt>
      <trkpt lat="4.8892480" lon="-75.4589280">
        <ele>3066.8</ele>
        <time>2021-04-17T16:31:52Z</time>
      </trkpt>
      <trkpt lat="4.8891460" lon="-75.4588900">
        <ele>3067.8</ele>
        <time>2021-04-17T16:31:59Z</time>
      </trkpt>
      <trkpt lat="4.8890290" lon="-75.4588450">
        <ele>3068.8</ele>
        <time>2021-04-17T16:32:07Z</time>
      </trkpt>
      <trkpt lat="4.8889330" lon="-75.4588150">
        <ele>3069.8</ele>
        <time>2021-04-17T16:32:14Z</time>
      </trkpt>
      <trkpt lat="4.8889190" lon="-75.4588100">
        <ele>3070.0</ele>
        <time>2021-04-17T16:32:15Z</time>
      </trkpt>
      <trkpt lat="4.8888630" lon="-75.4587840">
        <ele>3071.0</ele>
        <time>2021-04-17T16:32:19Z</time>
      </trkpt>
      <trkpt lat="4.8887910" lon="-75.4587350">
        <ele>3072.0</ele>
        <time>2021-04-17T16:32:24Z</time>
      </trkpt>
      <trkpt lat="4.8886790" lon="-75.4586710">
        <ele>3072.8</ele>
        <time>2021-04-17T16:32:32Z</time>
      </trkpt>
      <trkpt lat="4.8886580" lon="-75.4586480">
        <ele>3073.2</ele>
        <time>2021-04-17T16:32:34Z</time>
      </trkpt>
      <trkpt lat="4.8886130" lon="-75.4586000">
        <ele>3074.4</ele>
        <time>2021-04-17T16:32:38Z</time>
      </trkpt>
      <trkpt lat="4.8885890" lon="-75.4585790">
        <ele>3074.6</ele>
        <time>2021-04-17T16:32:40Z</time>
      </trkpt>
      <trkpt lat="4.8885540" lon="-75.4585430">
        <ele>3075.6</ele>
        <time>2021-04-17T16:32:43Z</time>
      </trkpt>
      <trkpt lat="4.8884830" lon="-75.4584700">
        <ele>3076.4</ele>
        <time>2021-04-17T16:32:49Z</time>
      </trkpt>
      <trkpt lat="4.8884720" lon="-75.4584570">
        <ele>3076.6</ele>
        <time>2021-04-17T16:32:50Z</time>
      </trkpt>
      <trkpt lat="4.8884490" lon="-75.4584340">
        <ele>3077.4</ele>
        <time>2021-04-17T16:32:52Z</time>
      </trkpt>
      <trkpt lat="4.8884250" lon="-75.4584090">
        <ele>3077.8</ele>
        <time>2021-04-17T16:32:54Z</time>
      </trkpt>
      <trkpt lat="4.8883860" lon="-75.4583770">
        <ele>3078.8</ele>
        <time>2021-04-17T16:32:57Z</time>
      </trkpt>
      <trkpt lat="4.8883730" lon="-75.4583670">
        <ele>3079.0</ele>
        <time>2021-04-17T16:32:58Z</time>
      </trkpt>
      <trkpt lat="4.8882830" lon="-75.4583140">
        <ele>3080.2</ele>
        <time>2021-04-17T16:33:04Z</time>
      </trkpt>
      <trkpt lat="4.8882680" lon="-75.4583050">
        <ele>3080.4</ele>
        <time>2021-04-17T16:33:05Z</time>
      </trkpt>
      <trkpt lat="4.8881950" lon="-75.4582670">
        <ele>3081.2</ele>
        <time>2021-04-17T16:33:10Z</time>
      </trkpt>
      <trkpt lat="4.8881430" lon="-75.4582340">
        <ele>3082.2</ele>
        <time>2021-04-17T16:33:14Z</time>
      </trkpt>
      <trkpt lat="4.8881300" lon="-75.4582270">
        <ele>3082.4</ele>
        <time>2021-04-17T16:33:15Z</time>
      </trkpt>
      <trkpt lat="4.8880590" lon="-75.4581680">
        <ele>3083.4</ele>
        <time>2021-04-17T16:33:21Z</time>
      </trkpt>
      <trkpt lat="4.8880480" lon="-75.4581570">
        <ele>3083.4</ele>
        <time>2021-04-17T16:33:22Z</time>
      </trkpt>
      <trkpt lat="4.8879680" lon="-75.4580780">
        <ele>3084.6</ele>
        <time>2021-04-17T16:33:30Z</time>
      </trkpt>
      <trkpt lat="4.8879100" lon="-75.4579870">
        <ele>3085.6</ele>
        <time>2021-04-17T16:33:37Z</time>
      </trkpt>
      <trkpt lat="4.8879000" lon="-75.4579730">
        <ele>3085.6</ele>
        <time>2021-04-17T16:33:38Z</time>
      </trkpt>
      <trkpt lat="4.8878340" lon="-75.4578800">
        <ele>3086.2</ele>
        <time>2021-04-17T16:33:45Z</time>
      </trkpt>
      <trkpt lat="4.8878230" lon="-75.4578670">
        <ele>3086.4</ele>
        <time>2021-04-17T16:33:46Z</time>
      </trkpt>
      <trkpt lat="4.8877500" lon="-75.4577470">
        <ele>3087.4</ele>
        <time>2021-04-17T16:33:54Z</time>
      </trkpt>
      <trkpt lat="4.8877430" lon="-75.4577300">
        <ele>3087.6</ele>
        <time>2021-04-17T16:33:55Z</time>
      </trkpt>
      <trkpt lat="4.8876990" lon="-75.4576280">
        <ele>3088.8</ele>
        <time>2021-04-17T16:34:01Z</time>
      </trkpt>
      <trkpt lat="4.8876930" lon="-75.4576110">
        <ele>3089.2</ele>
        <time>2021-04-17T16:34:02Z</time>
      </trkpt>
      <trkpt lat="4.8876800" lon="-75.4575780">
        <ele>3089.8</ele>
        <time>2021-04-17T16:34:04Z</time>
      </trkpt>
      <trkpt lat="4.8876520" lon="-75.4575100">
        <ele>3090.2</ele>
        <time>2021-04-17T16:34:08Z</time>
      </trkpt>
      <trkpt lat="4.8876320" lon="-75.4574780">
        <ele>3090.6</ele>
        <time>2021-04-17T16:34:10Z</time>
      </trkpt>
      <trkpt lat="4.8875790" lon="-75.4574040">
        <ele>3091.8</ele>
        <time>2021-04-17T16:34:15Z</time>
      </trkpt>
      <trkpt lat="4.8875680" lon="-75.4573910">
        <ele>3092.0</ele>
        <time>2021-04-17T16:34:16Z</time>
      </trkpt>
      <trkpt lat="4.8875080" lon="-75.4573210">
        <ele>3093.0</ele>
        <time>2021-04-17T16:34:21Z</time>
      </trkpt>
      <trkpt lat="4.8874680" lon="-75.4572830">
        <ele>3093.4</ele>
        <time>2021-04-17T16:34:24Z</time>
      </trkpt>
      <trkpt lat="4.8874290" lon="-75.4572480">
        <ele>3093.8</ele>
        <time>2021-04-17T16:34:27Z</time>
      </trkpt>
      <trkpt lat="4.8873610" lon="-75.4571680">
        <ele>3095.2</ele>
        <time>2021-04-17T16:34:33Z</time>
      </trkpt>
      <trkpt lat="4.8873310" lon="-75.4571320">
        <ele>3096.2</ele>
        <time>2021-04-17T16:34:36Z</time>
      </trkpt>
      <trkpt lat="4.8872990" lon="-75.4570970">
        <ele>3096.8</ele>
        <time>2021-04-17T16:34:39Z</time>
      </trkpt>
      <trkpt lat="4.8872810" lon="-75.4570620">
        <ele>3097.2</ele>
        <time>2021-04-17T16:34:41Z</time>
      </trkpt>
      <trkpt lat="4.8872420" lon="-75.4570090">
        <ele>3098.0</ele>
        <time>2021-04-17T16:34:45Z</time>
      </trkpt>
      <trkpt lat="4.8872210" lon="-75.4569880">
        <ele>3098.0</ele>
        <time>2021-04-17T16:34:47Z</time>
      </trkpt>
      <trkpt lat="4.8871780" lon="-75.4569190">
        <ele>3099.2</ele>
        <time>2021-04-17T16:34:52Z</time>
      </trkpt>
      <trkpt lat="4.8871220" lon="-75.4568540">
        <ele>3100.2</ele>
        <time>2021-04-17T16:34:57Z</time>
      </trkpt>
      <trkpt lat="4.8871120" lon="-75.4568420">
        <ele>3100.4</ele>
        <time>2021-04-17T16:34:58Z</time>
      </trkpt>
      <trkpt lat="4.8870790" lon="-75.4568100">
        <ele>3101.6</ele>
        <time>2021-04-17T16:35:01Z</time>
      </trkpt>
      <trkpt lat="4.8870480" lon="-75.4567760">
        <ele>3102.6</ele>
        <time>2021-04-17T16:35:04Z</time>
      </trkpt>
      <trkpt lat="4.8870380" lon="-75.4567650">
        <ele>3103.0</ele>
        <time>2021-04-17T16:35:05Z</time>
      </trkpt>
      <trkpt lat="4.8870090" lon="-75.4567290">
        <ele>3103.8</ele>
        <time>2021-04-17T16:35:08Z</time>
      </trkpt>
      <trkpt lat="4.8869770" lon="-75.4566700">
        <ele>3104.8</ele>
        <time>2021-04-17T16:35:12Z</time>
      </trkpt>
      <trkpt lat="4.8869640" lon="-75.4566380">
        <ele>3105.4</ele>
        <time>2021-04-17T16:35:14Z</time>
      </trkpt>
      <trkpt lat="4.8869500" lon="-75.4565910">
        <ele>3105.8</ele>
        <time>2021-04-17T16:35:17Z</time>
      </trkpt>
      <trkpt lat="4.8869320" lon="-75.4565230">
        <ele>3107.2</ele>
        <time>2021-04-17T16:35:21Z</time>
      </trkpt>
      <trkpt lat="4.8869280" lon="-75.4565010">
        <ele>3107.4</ele>
        <time>2021-04-17T16:35:22Z</time>
      </trkpt>
      <trkpt lat="4.8868960" lon="-75.4564050">
        <ele>3108.2</ele>
        <time>2021-04-17T16:35:27Z</time>
      </trkpt>
      <trkpt lat="4.8868660" lon="-75.4563370">
        <ele>3108.8</ele>
        <time>2021-04-17T16:35:31Z</time>
      </trkpt>
      <trkpt lat="4.8868110" lon="-75.4562420">
        <ele>3109.4</ele>
        <time>2021-04-17T16:35:37Z</time>
      </trkpt>
      <trkpt lat="4.8867990" lon="-75.4562260">
        <ele>3109.4</ele>
        <time>2021-04-17T16:35:38Z</time>
      </trkpt>
      <trkpt lat="4.8866940" lon="-75.4560660">
        <ele>3110.0</ele>
        <time>2021-04-17T16:35:46Z</time>
      </trkpt>
      <trkpt lat="4.8866470" lon="-75.4560200">
        <ele>3110.2</ele>
        <time>2021-04-17T16:35:49Z</time>
      </trkpt>
      <trkpt lat="4.8865480" lon="-75.4559510">
        <ele>3110.6</ele>
        <time>2021-04-17T16:35:55Z</time>
      </trkpt>
      <trkpt lat="4.8864970" lon="-75.4559250">
        <ele>3111.0</ele>
        <time>2021-04-17T16:35:58Z</time>
      </trkpt>
      <trkpt lat="4.8864330" lon="-75.4558930">
        <ele>3112.0</ele>
        <time>2021-04-17T16:36:02Z</time>
      </trkpt>
      <trkpt lat="4.8864150" lon="-75.4558850">
        <ele>3112.2</ele>
        <time>2021-04-17T16:36:03Z</time>
      </trkpt>
      <trkpt lat="4.8863460" lon="-75.4558510">
        <ele>3113.2</ele>
        <time>2021-04-17T16:36:07Z</time>
      </trkpt>
      <trkpt lat="4.8863120" lon="-75.4558290">
        <ele>3113.4</ele>
        <time>2021-04-17T16:36:09Z</time>
      </trkpt>
      <trkpt lat="4.8862260" lon="-75.4557750">
        <ele>3114.4</ele>
        <time>2021-04-17T16:36:14Z</time>
      </trkpt>
      <trkpt lat="4.8861750" lon="-75.4557340">
        <ele>3115.2</ele>
        <time>2021-04-17T16:36:17Z</time>
      </trkpt>
      <trkpt lat="4.8861430" lon="-75.4557060">
        <ele>3115.2</ele>
        <time>2021-04-17T16:36:19Z</time>
      </trkpt>
      <trkpt lat="4.8860370" lon="-75.4556120">
        <ele>3116.4</ele>
        <time>2021-04-17T16:36:25Z</time>
      </trkpt>
      <trkpt lat="4.8859250" lon="-75.4555350">
        <ele>3117.6</ele>
        <time>2021-04-17T16:36:31Z</time>
      </trkpt>
      <trkpt lat="4.8858740" lon="-75.4555020">
        <ele>3117.8</ele>
        <time>2021-04-17T16:36:34Z</time>
      </trkpt>
      <trkpt lat="4.8858090" lon="-75.4554570">
        <ele>3118.6</ele>
        <time>2021-04-17T16:36:38Z</time>
      </trkpt>
      <trkpt lat="4.8857920" lon="-75.4554460">
        <ele>3119.0</ele>
        <time>2021-04-17T16:36:39Z</time>
      </trkpt>
      <trkpt lat="4.8857430" lon="-75.4554210">
        <ele>3119.6</ele>
        <time>2021-04-17T16:36:42Z</time>
      </trkpt>
      <trkpt lat="4.8857270" lon="-75.4554140">
        <ele>3119.8</ele>
        <time>2021-04-17T16:36:43Z</time>
      </trkpt>
      <trkpt lat="4.8856790" lon="-75.4553860">
        <ele>3120.8</ele>
        <time>2021-04-17T16:36:46Z</time>
      </trkpt>
      <trkpt lat="4.8856230" lon="-75.4553550">
        <ele>3121.6</ele>
        <time>2021-04-17T16:36:50Z</time>
      </trkpt>
      <trkpt lat="4.8855800" lon="-75.4553190">
        <ele>3122.6</ele>
        <time>2021-04-17T16:36:53Z</time>
      </trkpt>
      <trkpt lat="4.8855660" lon="-75.4553070">
        <ele>3122.8</ele>
        <time>2021-04-17T16:36:54Z</time>
      </trkpt>
      <trkpt lat="4.8854920" lon="-75.4552450">
        <ele>3123.8</ele>
        <time>2021-04-17T16:36:59Z</time>
      </trkpt>
      <trkpt lat="4.8854560" lon="-75.4552220">
        <ele>3124.4</ele>
        <time>2021-04-17T16:37:01Z</time>
      </trkpt>
      <trkpt lat="4.8854030" lon="-75.4551880">
        <ele>3125.0</ele>
        <time>2021-04-17T16:37:04Z</time>
      </trkpt>
      <trkpt lat="4.8853100" lon="-75.4551260">
        <ele>3125.8</ele>
        <time>2021-04-17T16:37:10Z</time>
      </trkpt>
      <trkpt lat="4.8852780" lon="-75.4551050">
        <ele>3126.0</ele>
        <time>2021-04-17T16:37:12Z</time>
      </trkpt>
      <trkpt lat="4.8852040" lon="-75.4550460">
        <ele>3127.2</ele>
        <time>2021-04-17T16:37:17Z</time>
      </trkpt>
      <trkpt lat="4.8851730" lon="-75.4550250">
        <ele>3127.2</ele>
        <time>2021-04-17T16:37:19Z</time>
      </trkpt>
      <trkpt lat="4.8851110" lon="-75.4549800">
        <ele>3128.2</ele>
        <time>2021-04-17T16:37:23Z</time>
      </trkpt>
      <trkpt lat="4.8850540" lon="-75.4549270">
        <ele>3129.0</ele>
        <time>2021-04-17T16:37:27Z</time>
      </trkpt>
      <trkpt lat="4.8850280" lon="-75.4549030">
        <ele>3129.4</ele>
        <time>2021-04-17T16:37:29Z</time>
      </trkpt>
      <trkpt lat="4.8849640" lon="-75.4548390">
        <ele>3130.2</ele>
        <time>2021-04-17T16:37:34Z</time>
      </trkpt>
      <trkpt lat="4.8849480" lon="-75.4548250">
        <ele>3130.4</ele>
        <time>2021-04-17T16:37:35Z</time>
      </trkpt>
      <trkpt lat="4.8848580" lon="-75.4547520">
        <ele>3131.2</ele>
        <time>2021-04-17T16:37:41Z</time>
      </trkpt>
      <trkpt lat="4.8848440" lon="-75.4547410">
        <ele>3131.4</ele>
        <time>2021-04-17T16:37:42Z</time>
      </trkpt>
      <trkpt lat="4.8847510" lon="-75.4546760">
        <ele>3132.4</ele>
        <time>2021-04-17T16:37:48Z</time>
      </trkpt>
      <trkpt lat="4.8846860" lon="-75.4546310">
        <ele>3133.0</ele>
        <time>2021-04-17T16:37:52Z</time>
      </trkpt>
      <trkpt lat="4.8846540" lon="-75.4546070">
        <ele>3133.4</ele>
        <time>2021-04-17T16:37:54Z</time>
      </trkpt>
      <trkpt lat="4.8845860" lon="-75.4545570">
        <ele>3134.8</ele>
        <time>2021-04-17T16:37:59Z</time>
      </trkpt>
      <trkpt lat="4.8844950" lon="-75.4544850">
        <ele>3136.0</ele>
        <time>2021-04-17T16:38:06Z</time>
      </trkpt>
      <trkpt lat="4.8843860" lon="-75.4544140">
        <ele>3136.8</ele>
        <time>2021-04-17T16:38:13Z</time>
      </trkpt>
      <trkpt lat="4.8843570" lon="-75.4543900">
        <ele>3137.2</ele>
        <time>2021-04-17T16:38:15Z</time>
      </trkpt>
      <trkpt lat="4.8842880" lon="-75.4543500">
        <ele>3138.2</ele>
        <time>2021-04-17T16:38:19Z</time>
      </trkpt>
      <trkpt lat="4.8841950" lon="-75.4543080">
        <ele>3139.2</ele>
        <time>2021-04-17T16:38:24Z</time>
      </trkpt>
      <trkpt lat="4.8841020" lon="-75.4542720">
        <ele>3140.4</ele>
        <time>2021-04-17T16:38:29Z</time>
      </trkpt>
      <trkpt lat="4.8840460" lon="-75.4542580">
        <ele>3141.2</ele>
        <time>2021-04-17T16:38:32Z</time>
      </trkpt>
      <trkpt lat="4.8840290" lon="-75.4542550">
        <ele>3141.4</ele>
        <time>2021-04-17T16:38:33Z</time>
      </trkpt>
      <trkpt lat="4.8839590" lon="-75.4542400">
        <ele>3142.8</ele>
        <time>2021-04-17T16:38:37Z</time>
      </trkpt>
      <trkpt lat="4.8838870" lon="-75.4542480">
        <ele>3143.4</ele>
        <time>2021-04-17T16:38:41Z</time>
      </trkpt>
      <trkpt lat="4.8838690" lon="-75.4542530">
        <ele>3143.8</ele>
        <time>2021-04-17T16:38:42Z</time>
      </trkpt>
      <trkpt lat="4.8837770" lon="-75.4542960">
        <ele>3145.0</ele>
        <time>2021-04-17T16:38:47Z</time>
      </trkpt>
      <trkpt lat="4.8837570" lon="-75.4543110">
        <ele>3145.2</ele>
        <time>2021-04-17T16:38:48Z</time>
      </trkpt>
      <trkpt lat="4.8836720" lon="-75.4543850">
        <ele>3146.0</ele>
        <time>2021-04-17T16:38:52Z</time>
      </trkpt>
      <trkpt lat="4.8835940" lon="-75.4544490">
        <ele>3146.2</ele>
        <time>2021-04-17T16:38:55Z</time>
      </trkpt>
      <trkpt lat="4.8834040" lon="-75.4545750">
        <ele>3146.4</ele>
        <time>2021-04-17T16:39:01Z</time>
      </trkpt>
      <trkpt lat="4.8833200" lon="-75.4546110">
        <ele>3146.4</ele>
        <time>2021-04-17T16:39:03Z</time>
      </trkpt>
      <trkpt lat="4.8832240" lon="-75.4546320">
        <ele>3146.2</ele>
        <time>2021-04-17T16:39:05Z</time>
      </trkpt>
      <trkpt lat="4.8831750" lon="-75.4546370">
        <ele>3146.2</ele>
        <time>2021-04-17T16:39:06Z</time>
      </trkpt>
      <trkpt lat="4.8830130" lon="-75.4546160">
        <ele>3145.6</ele>
        <time>2021-04-17T16:39:09Z</time>
      </trkpt>
      <trkpt lat="4.8829520" lon="-75.4546040">
        <ele>3145.6</ele>
        <time>2021-04-17T16:39:10Z</time>
      </trkpt>
      <trkpt lat="4.8827030" lon="-75.4545480">
        <ele>3145.0</ele>
        <time>2021-04-17T16:39:14Z</time>
      </trkpt>
      <trkpt lat="4.8826410" lon="-75.4545350">
        <ele>3144.8</ele>
        <time>2021-04-17T16:39:15Z</time>
      </trkpt>
      <trkpt lat="4.8824690" lon="-75.4545030">
        <ele>3144.2</ele>
        <time>2021-04-17T16:39:18Z</time>
      </trkpt>
      <trkpt lat="4.8823630" lon="-75.4545100">
        <ele>3144.0</ele>
        <time>2021-04-17T16:39:20Z</time>
      </trkpt>
      <trkpt lat="4.8822180" lon="-75.4545310">
        <ele>3143.6</ele>
        <time>2021-04-17T16:39:23Z</time>
      </trkpt>
      <trkpt lat="4.8820340" lon="-75.4545630">
        <ele>3143.6</ele>
        <time>2021-04-17T16:39:27Z</time>
      </trkpt>
      <trkpt lat="4.8816670" lon="-75.4546230">
        <ele>3144.0</ele>
        <time>2021-04-17T16:39:36Z</time>
      </trkpt>
      <trkpt lat="4.8814090" lon="-75.4547180">
        <ele>3145.6</ele>
        <time>2021-04-17T16:39:43Z</time>
      </trkpt>
      <trkpt lat="4.8811720" lon="-75.4548370">
        <ele>3146.4</ele>
        <time>2021-04-17T16:39:50Z</time>
      </trkpt>
      <trkpt lat="4.8811370" lon="-75.4548540">
        <ele>3146.6</ele>
        <time>2021-04-17T16:39:51Z</time>
      </trkpt>
      <trkpt lat="4.8808700" lon="-75.4550120">
        <ele>3147.4</ele>
        <time>2021-04-17T16:39:58Z</time>
      </trkpt>
      <trkpt lat="4.8805670" lon="-75.4551270">
        <ele>3147.6</ele>
        <time>2021-04-17T16:40:05Z</time>
      </trkpt>
      <trkpt lat="4.8804310" lon="-75.4551590">
        <ele>3147.8</ele>
        <time>2021-04-17T16:40:08Z</time>
      </trkpt>
      <trkpt lat="4.8803410" lon="-75.4551540">
        <ele>3147.8</ele>
        <time>2021-04-17T16:40:10Z</time>
      </trkpt>
      <trkpt lat="4.8802500" lon="-75.4551420">
        <ele>3148.0</ele>
        <time>2021-04-17T16:40:12Z</time>
      </trkpt>
      <trkpt lat="4.8800510" lon="-75.4551070">
        <ele>3148.0</ele>
        <time>2021-04-17T16:40:16Z</time>
      </trkpt>
      <trkpt lat="4.8797250" lon="-75.4550750">
        <ele>3147.8</ele>
        <time>2021-04-17T16:40:21Z</time>
      </trkpt>
      <trkpt lat="4.8793310" lon="-75.4550470">
        <ele>3147.8</ele>
        <time>2021-04-17T16:40:26Z</time>
      </trkpt>
      <trkpt lat="4.8792570" lon="-75.4550520">
        <ele>3147.4</ele>
        <time>2021-04-17T16:40:27Z</time>
      </trkpt>
      <trkpt lat="4.8790530" lon="-75.4550600">
        <ele>3146.0</ele>
        <time>2021-04-17T16:40:30Z</time>
      </trkpt>
      <trkpt lat="4.8789310" lon="-75.4550750">
        <ele>3145.6</ele>
        <time>2021-04-17T16:40:32Z</time>
      </trkpt>
      <trkpt lat="4.8786370" lon="-75.4551100">
        <ele>3145.4</ele>
        <time>2021-04-17T16:40:38Z</time>
      </trkpt>
      <trkpt lat="4.8784620" lon="-75.4551440">
        <ele>3145.6</ele>
        <time>2021-04-17T16:40:44Z</time>
      </trkpt>
      <trkpt lat="4.8783120" lon="-75.4551180">
        <ele>3147.0</ele>
        <time>2021-04-17T16:40:50Z</time>
      </trkpt>
      <trkpt lat="4.8782860" lon="-75.4550970">
        <ele>3147.2</ele>
        <time>2021-04-17T16:40:51Z</time>
      </trkpt>
      <trkpt lat="4.8781910" lon="-75.4550320">
        <ele>3148.2</ele>
        <time>2021-04-17T16:40:54Z</time>
      </trkpt>
      <trkpt lat="4.8780900" lon="-75.4549590">
        <ele>3148.6</ele>
        <time>2021-04-17T16:40:57Z</time>
      </trkpt>
      <trkpt lat="4.8780530" lon="-75.4549410">
        <ele>3148.6</ele>
        <time>2021-04-17T16:40:58Z</time>
      </trkpt>
      <trkpt lat="4.8779020" lon="-75.4548780">
        <ele>3148.8</ele>
        <time>2021-04-17T16:41:02Z</time>
      </trkpt>
      <trkpt lat="4.8778650" lon="-75.4548560">
        <ele>3148.8</ele>
        <time>2021-04-17T16:41:03Z</time>
      </trkpt>
      <trkpt lat="4.8777540" lon="-75.4547860">
        <ele>3149.0</ele>
        <time>2021-04-17T16:41:06Z</time>
      </trkpt>
      <trkpt lat="4.8776700" lon="-75.4547230">
        <ele>3149.0</ele>
        <time>2021-04-17T16:41:08Z</time>
      </trkpt>
      <trkpt lat="4.8773670" lon="-75.4545440">
        <ele>3149.0</ele>
        <time>2021-04-17T16:41:14Z</time>
      </trkpt>
      <trkpt lat="4.8773110" lon="-75.4545350">
        <ele>3148.6</ele>
        <time>2021-04-17T16:41:15Z</time>
      </trkpt>
      <trkpt lat="4.8771510" lon="-75.4545590">
        <ele>3148.4</ele>
        <time>2021-04-17T16:41:18Z</time>
      </trkpt>
      <trkpt lat="4.8770580" lon="-75.4545860">
        <ele>3148.4</ele>
        <time>2021-04-17T16:41:20Z</time>
      </trkpt>
      <trkpt lat="4.8769110" lon="-75.4546700">
        <ele>3148.4</ele>
        <time>2021-04-17T16:41:25Z</time>
      </trkpt>
      <trkpt lat="4.8768440" lon="-75.4546990">
        <ele>3148.8</ele>
        <time>2021-04-17T16:41:28Z</time>
      </trkpt>
      <trkpt lat="4.8768240" lon="-75.4547100">
        <ele>3149.2</ele>
        <time>2021-04-17T16:41:29Z</time>
      </trkpt>
      <trkpt lat="4.8768050" lon="-75.4547210">
        <ele>3149.4</ele>
        <time>2021-04-17T16:41:30Z</time>
      </trkpt>
      <trkpt lat="4.8767620" lon="-75.4547410">
        <ele>3150.4</ele>
        <time>2021-04-17T16:41:32Z</time>
      </trkpt>
      <trkpt lat="4.8766820" lon="-75.4547750">
        <ele>3151.4</ele>
        <time>2021-04-17T16:41:36Z</time>
      </trkpt>
      <trkpt lat="4.8766630" lon="-75.4547810">
        <ele>3151.6</ele>
        <time>2021-04-17T16:41:37Z</time>
      </trkpt>
      <trkpt lat="4.8765770" lon="-75.4547750">
        <ele>3152.4</ele>
        <time>2021-04-17T16:41:41Z</time>
      </trkpt>
      <trkpt lat="4.8765330" lon="-75.4547670">
        <ele>3152.6</ele>
        <time>2021-04-17T16:41:43Z</time>
      </trkpt>
      <trkpt lat="4.8764630" lon="-75.4547100">
        <ele>3153.6</ele>
        <time>2021-04-17T16:41:47Z</time>
      </trkpt>
      <trkpt lat="4.8764460" lon="-75.4546900">
        <ele>3153.8</ele>
        <time>2021-04-17T16:41:48Z</time>
      </trkpt>
      <trkpt lat="4.8763100" lon="-75.4546140">
        <ele>3154.6</ele>
        <time>2021-04-17T16:41:54Z</time>
      </trkpt>
      <trkpt lat="4.8762900" lon="-75.4546050">
        <ele>3154.6</ele>
        <time>2021-04-17T16:41:55Z</time>
      </trkpt>
      <trkpt lat="4.8761090" lon="-75.4545630">
        <ele>3155.4</ele>
        <time>2021-04-17T16:42:03Z</time>
      </trkpt>
      <trkpt lat="4.8760860" lon="-75.4545620">
        <ele>3155.4</ele>
        <time>2021-04-17T16:42:04Z</time>
      </trkpt>
      <trkpt lat="4.8759620" lon="-75.4545650">
        <ele>3156.4</ele>
        <time>2021-04-17T16:42:10Z</time>
      </trkpt>
      <trkpt lat="4.8759420" lon="-75.4545660">
        <ele>3156.4</ele>
        <time>2021-04-17T16:42:11Z</time>
      </trkpt>
      <trkpt lat="4.8757860" lon="-75.4545720">
        <ele>3157.4</ele>
        <time>2021-04-17T16:42:18Z</time>
      </trkpt>
      <trkpt lat="4.8756590" lon="-75.4546130">
        <ele>3158.4</ele>
        <time>2021-04-17T16:42:24Z</time>
      </trkpt>
      <trkpt lat="4.8756420" lon="-75.4546210">
        <ele>3158.4</ele>
        <time>2021-04-17T16:42:25Z</time>
      </trkpt>
      <trkpt lat="4.8755620" lon="-75.4546600">
        <ele>3159.4</ele>
        <time>2021-04-17T16:42:30Z</time>
      </trkpt>
      <trkpt lat="4.8754900" lon="-75.4546860">
        <ele>3160.2</ele>
        <time>2021-04-17T16:42:34Z</time>
      </trkpt>
      <trkpt lat="4.8754490" lon="-75.4546840">
        <ele>3160.4</ele>
        <time>2021-04-17T16:42:36Z</time>
      </trkpt>
      <trkpt lat="4.8753550" lon="-75.4546420">
        <ele>3161.2</ele>
        <time>2021-04-17T16:42:41Z</time>
      </trkpt>
      <trkpt lat="4.8753200" lon="-75.4546170">
        <ele>3161.4</ele>
        <time>2021-04-17T16:42:43Z</time>
      </trkpt>
      <trkpt lat="4.8752180" lon="-75.4545300">
        <ele>3162.2</ele>
        <time>2021-04-17T16:42:49Z</time>
      </trkpt>
      <trkpt lat="4.8751900" lon="-75.4545040">
        <ele>3162.4</ele>
        <time>2021-04-17T16:42:51Z</time>
      </trkpt>
      <trkpt lat="4.8751110" lon="-75.4544420">
        <ele>3162.8</ele>
        <time>2021-04-17T16:42:56Z</time>
      </trkpt>
      <trkpt lat="4.8750170" lon="-75.4543960">
        <ele>3163.2</ele>
        <time>2021-04-17T16:43:01Z</time>
      </trkpt>
      <trkpt lat="4.8749770" lon="-75.4543780">
        <ele>3163.4</ele>
        <time>2021-04-17T16:43:03Z</time>
      </trkpt>
      <trkpt lat="4.8749380" lon="-75.4543640">
        <ele>3163.8</ele>
        <time>2021-04-17T16:43:05Z</time>
      </trkpt>
      <trkpt lat="4.8748990" lon="-75.4543500">
        <ele>3164.4</ele>
        <time>2021-04-17T16:43:07Z</time>
      </trkpt>
      <trkpt lat="4.8747960" lon="-75.4543360">
        <ele>3165.4</ele>
        <time>2021-04-17T16:43:12Z</time>
      </trkpt>
      <trkpt lat="4.8747370" lon="-75.4543300">
        <ele>3165.6</ele>
        <time>2021-04-17T16:43:15Z</time>
      </trkpt>
      <trkpt lat="4.8746820" lon="-75.4543280">
        <ele>3166.6</ele>
        <time>2021-04-17T16:43:18Z</time>
      </trkpt>
      <trkpt lat="4.8745860" lon="-75.4543070">
        <ele>3167.8</ele>
        <time>2021-04-17T16:43:23Z</time>
      </trkpt>
      <trkpt lat="4.8745670" lon="-75.4542980">
        <ele>3168.0</ele>
        <time>2021-04-17T16:43:24Z</time>
      </trkpt>
      <trkpt lat="4.8745090" lon="-75.4542620">
        <ele>3168.8</ele>
        <time>2021-04-17T16:43:27Z</time>
      </trkpt>
      <trkpt lat="4.8744100" lon="-75.4541980">
        <ele>3169.6</ele>
        <time>2021-04-17T16:43:32Z</time>
      </trkpt>
      <trkpt lat="4.8743920" lon="-75.4541890">
        <ele>3169.8</ele>
        <time>2021-04-17T16:43:33Z</time>
      </trkpt>
      <trkpt lat="4.8742550" lon="-75.4541700">
        <ele>3170.6</ele>
        <time>2021-04-17T16:43:40Z</time>
      </trkpt>
      <trkpt lat="4.8742350" lon="-75.4541720">
        <ele>3170.8</ele>
        <time>2021-04-17T16:43:41Z</time>
      </trkpt>
      <trkpt lat="4.8741340" lon="-75.4541770">
        <ele>3172.0</ele>
        <time>2021-04-17T16:43:46Z</time>
      </trkpt>
      <trkpt lat="4.8740470" lon="-75.4541810">
        <ele>3173.0</ele>
        <time>2021-04-17T16:43:50Z</time>
      </trkpt>
      <trkpt lat="4.8740240" lon="-75.4541840">
        <ele>3173.2</ele>
        <time>2021-04-17T16:43:51Z</time>
      </trkpt>
      <trkpt lat="4.8739080" lon="-75.4542180">
        <ele>3173.8</ele>
        <time>2021-04-17T16:43:56Z</time>
      </trkpt>
      <trkpt lat="4.8738670" lon="-75.4542420">
        <ele>3174.2</ele>
        <time>2021-04-17T16:43:58Z</time>
      </trkpt>
      <trkpt lat="4.8738120" lon="-75.4543100">
        <ele>3174.2</ele>
        <time>2021-04-17T16:44:02Z</time>
      </trkpt>
      <trkpt lat="4.8737710" lon="-75.4544000">
        <ele>3175.0</ele>
        <time>2021-04-17T16:44:07Z</time>
      </trkpt>
      <trkpt lat="4.8737590" lon="-75.4544350">
        <ele>3175.6</ele>
        <time>2021-04-17T16:44:09Z</time>
      </trkpt>
      <trkpt lat="4.8737500" lon="-75.4544740">
        <ele>3176.2</ele>
        <time>2021-04-17T16:44:11Z</time>
      </trkpt>
      <trkpt lat="4.8737260" lon="-75.4545270">
        <ele>3176.8</ele>
        <time>2021-04-17T16:44:14Z</time>
      </trkpt>
      <trkpt lat="4.8737060" lon="-75.4545620">
        <ele>3177.2</ele>
        <time>2021-04-17T16:44:16Z</time>
      </trkpt>
      <trkpt lat="4.8736510" lon="-75.4546210">
        <ele>3178.4</ele>
        <time>2021-04-17T16:44:20Z</time>
      </trkpt>
      <trkpt lat="4.8736070" lon="-75.4546360">
        <ele>3179.0</ele>
        <time>2021-04-17T16:44:22Z</time>
      </trkpt>
      <trkpt lat="4.8735610" lon="-75.4546470">
        <ele>3179.4</ele>
        <time>2021-04-17T16:44:24Z</time>
      </trkpt>
      <trkpt lat="4.8734410" lon="-75.4546710">
        <ele>3180.6</ele>
        <time>2021-04-17T16:44:29Z</time>
      </trkpt>
      <trkpt lat="4.8732590" lon="-75.4546780">
        <ele>3181.6</ele>
        <time>2021-04-17T16:44:37Z</time>
      </trkpt>
      <trkpt lat="4.8732120" lon="-75.4546650">
        <ele>3182.0</ele>
        <time>2021-04-17T16:44:39Z</time>
      </trkpt>
      <trkpt lat="4.8731510" lon="-75.4546290">
        <ele>3182.6</ele>
        <time>2021-04-17T16:44:42Z</time>
      </trkpt>
      <trkpt lat="4.8730840" lon="-75.4545610">
        <ele>3183.2</ele>
        <time>2021-04-17T16:44:46Z</time>
      </trkpt>
      <trkpt lat="4.8730150" lon="-75.4544820">
        <ele>3183.6</ele>
        <time>2021-04-17T16:44:50Z</time>
      </trkpt>
      <trkpt lat="4.8729450" lon="-75.4543740">
        <ele>3184.4</ele>
        <time>2021-04-17T16:44:55Z</time>
      </trkpt>
      <trkpt lat="4.8729170" lon="-75.4543360">
        <ele>3184.8</ele>
        <time>2021-04-17T16:44:57Z</time>
      </trkpt>
      <trkpt lat="4.8728080" lon="-75.4542720">
        <ele>3185.6</ele>
        <time>2021-04-17T16:45:02Z</time>
      </trkpt>
      <trkpt lat="4.8727610" lon="-75.4542600">
        <ele>3185.6</ele>
        <time>2021-04-17T16:45:04Z</time>
      </trkpt>
      <trkpt lat="4.8725900" lon="-75.4542120">
        <ele>3186.8</ele>
        <time>2021-04-17T16:45:12Z</time>
      </trkpt>
      <trkpt lat="4.8725680" lon="-75.4542040">
        <ele>3187.2</ele>
        <time>2021-04-17T16:45:13Z</time>
      </trkpt>
      <trkpt lat="4.8724820" lon="-75.4541590">
        <ele>3188.0</ele>
        <time>2021-04-17T16:45:17Z</time>
      </trkpt>
      <trkpt lat="4.8723710" lon="-75.4540900">
        <ele>3189.0</ele>
        <time>2021-04-17T16:45:22Z</time>
      </trkpt>
      <trkpt lat="4.8723490" lon="-75.4540750">
        <ele>3189.2</ele>
        <time>2021-04-17T16:45:23Z</time>
      </trkpt>
      <trkpt lat="4.8723020" lon="-75.4540490">
        <ele>3190.0</ele>
        <time>2021-04-17T16:45:25Z</time>
      </trkpt>
      <trkpt lat="4.8721690" lon="-75.4539780">
        <ele>3191.0</ele>
        <time>2021-04-17T16:45:31Z</time>
      </trkpt>
      <trkpt lat="4.8721470" lon="-75.4539680">
        <ele>3191.2</ele>
        <time>2021-04-17T16:45:32Z</time>
      </trkpt>
      <trkpt lat="4.8720170" lon="-75.4538950">
        <ele>3192.0</ele>
        <time>2021-04-17T16:45:38Z</time>
      </trkpt>
      <trkpt lat="4.8719950" lon="-75.4538820">
        <ele>3192.4</ele>
        <time>2021-04-17T16:45:39Z</time>
      </trkpt>
      <trkpt lat="4.8719750" lon="-75.4538710">
        <ele>3192.6</ele>
        <time>2021-04-17T16:45:40Z</time>
      </trkpt>
      <trkpt lat="4.8719140" lon="-75.4538420">
        <ele>3193.0</ele>
        <time>2021-04-17T16:45:43Z</time>
      </trkpt>
      <trkpt lat="4.8718370" lon="-75.4537790">
        <ele>3194.0</ele>
        <time>2021-04-17T16:45:47Z</time>
      </trkpt>
      <trkpt lat="4.8717530" lon="-75.4537060">
        <ele>3195.0</ele>
        <time>2021-04-17T16:45:52Z</time>
      </trkpt>
      <trkpt lat="4.8717090" lon="-75.4536690">
        <ele>3195.4</ele>
        <time>2021-04-17T16:45:55Z</time>
      </trkpt>
      <trkpt lat="4.8716520" lon="-75.4536040">
        <ele>3196.2</ele>
        <time>2021-04-17T16:46:00Z</time>
      </trkpt>
      <trkpt lat="4.8716220" lon="-75.4535590">
        <ele>3196.4</ele>
        <time>2021-04-17T16:46:03Z</time>
      </trkpt>
      <trkpt lat="4.8715790" lon="-75.4534960">
        <ele>3197.4</ele>
        <time>2021-04-17T16:46:07Z</time>
      </trkpt>
      <trkpt lat="4.8714990" lon="-75.4534010">
        <ele>3198.4</ele>
        <time>2021-04-17T16:46:13Z</time>
      </trkpt>
      <trkpt lat="4.8714850" lon="-75.4533880">
        <ele>3198.6</ele>
        <time>2021-04-17T16:46:14Z</time>
      </trkpt>
      <trkpt lat="4.8713860" lon="-75.4533030">
        <ele>3199.2</ele>
        <time>2021-04-17T16:46:21Z</time>
      </trkpt>
      <trkpt lat="4.8713690" lon="-75.4532920">
        <ele>3199.4</ele>
        <time>2021-04-17T16:46:22Z</time>
      </trkpt>
      <trkpt lat="4.8712820" lon="-75.4532170">
        <ele>3200.4</ele>
        <time>2021-04-17T16:46:28Z</time>
      </trkpt>
      <trkpt lat="4.8712540" lon="-75.4531940">
        <ele>3200.8</ele>
        <time>2021-04-17T16:46:30Z</time>
      </trkpt>
      <trkpt lat="4.8712050" lon="-75.4531590">
        <ele>3201.6</ele>
        <time>2021-04-17T16:46:33Z</time>
      </trkpt>
      <trkpt lat="4.8711190" lon="-75.4531010">
        <ele>3202.4</ele>
        <time>2021-04-17T16:46:38Z</time>
      </trkpt>
      <trkpt lat="4.8710850" lon="-75.4530790">
        <ele>3202.8</ele>
        <time>2021-04-17T16:46:40Z</time>
      </trkpt>
      <trkpt lat="4.8709760" lon="-75.4530200">
        <ele>3203.6</ele>
        <time>2021-04-17T16:46:46Z</time>
      </trkpt>
      <trkpt lat="4.8708560" lon="-75.4529740">
        <ele>3204.8</ele>
        <time>2021-04-17T16:46:52Z</time>
      </trkpt>
      <trkpt lat="4.8707560" lon="-75.4529370">
        <ele>3205.4</ele>
        <time>2021-04-17T16:46:57Z</time>
      </trkpt>
      <trkpt lat="4.8707220" lon="-75.4529180">
        <ele>3205.8</ele>
        <time>2021-04-17T16:46:59Z</time>
      </trkpt>
      <trkpt lat="4.8706610" lon="-75.4528870">
        <ele>3207.0</ele>
        <time>2021-04-17T16:47:03Z</time>
      </trkpt>
      <trkpt lat="4.8706470" lon="-75.4528830">
        <ele>3207.4</ele>
        <time>2021-04-17T16:47:04Z</time>
      </trkpt>
      <trkpt lat="4.8706050" lon="-75.4528620">
        <ele>3208.6</ele>
        <time>2021-04-17T16:47:07Z</time>
      </trkpt>
      <trkpt lat="4.8705630" lon="-75.4528370">
        <ele>3209.6</ele>
        <time>2021-04-17T16:47:10Z</time>
      </trkpt>
      <trkpt lat="4.8705470" lon="-75.4528290">
        <ele>3209.8</ele>
        <time>2021-04-17T16:47:11Z</time>
      </trkpt>
      <trkpt lat="4.8704850" lon="-75.4528050">
        <ele>3210.4</ele>
        <time>2021-04-17T16:47:15Z</time>
      </trkpt>
      <trkpt lat="4.8704530" lon="-75.4527940">
        <ele>3210.8</ele>
        <time>2021-04-17T16:47:17Z</time>
      </trkpt>
      <trkpt lat="4.8703840" lon="-75.4527740">
        <ele>3211.6</ele>
        <time>2021-04-17T16:47:21Z</time>
      </trkpt>
      <trkpt lat="4.8703030" lon="-75.4527440">
        <ele>3212.2</ele>
        <time>2021-04-17T16:47:26Z</time>
      </trkpt>
      <trkpt lat="4.8702490" lon="-75.4527280">
        <ele>3212.6</ele>
        <time>2021-04-17T16:47:29Z</time>
      </trkpt>
      <trkpt lat="4.8701500" lon="-75.4526870">
        <ele>3213.0</ele>
        <time>2021-04-17T16:47:35Z</time>
      </trkpt>
      <trkpt lat="4.8700980" lon="-75.4526620">
        <ele>3213.6</ele>
        <time>2021-04-17T16:47:38Z</time>
      </trkpt>
      <trkpt lat="4.8699820" lon="-75.4526090">
        <ele>3214.6</ele>
        <time>2021-04-17T16:47:45Z</time>
      </trkpt>
      <trkpt lat="4.8699650" lon="-75.4526010">
        <ele>3214.6</ele>
        <time>2021-04-17T16:47:46Z</time>
      </trkpt>
      <trkpt lat="4.8698800" lon="-75.4525620">
        <ele>3215.6</ele>
        <time>2021-04-17T16:47:51Z</time>
      </trkpt>
      <trkpt lat="4.8698120" lon="-75.4525310">
        <ele>3216.2</ele>
        <time>2021-04-17T16:47:55Z</time>
      </trkpt>
      <trkpt lat="4.8697780" lon="-75.4525170">
        <ele>3216.6</ele>
        <time>2021-04-17T16:47:57Z</time>
      </trkpt>
      <trkpt lat="4.8696740" lon="-75.4524770">
        <ele>3217.8</ele>
        <time>2021-04-17T16:48:03Z</time>
      </trkpt>
      <trkpt lat="4.8695200" lon="-75.4524320">
        <ele>3218.8</ele>
        <time>2021-04-17T16:48:11Z</time>
      </trkpt>
      <trkpt lat="4.8695000" lon="-75.4524300">
        <ele>3219.0</ele>
        <time>2021-04-17T16:48:12Z</time>
      </trkpt>
      <trkpt lat="4.8694240" lon="-75.4524290">
        <ele>3219.6</ele>
        <time>2021-04-17T16:48:16Z</time>
      </trkpt>
      <trkpt lat="4.8693280" lon="-75.4524470">
        <ele>3220.4</ele>
        <time>2021-04-17T16:48:21Z</time>
      </trkpt>
      <trkpt lat="4.8693090" lon="-75.4524540">
        <ele>3220.6</ele>
        <time>2021-04-17T16:48:22Z</time>
      </trkpt>
      <trkpt lat="4.8692170" lon="-75.4525000">
        <ele>3221.6</ele>
        <time>2021-04-17T16:48:27Z</time>
      </trkpt>
      <trkpt lat="4.8691980" lon="-75.4525120">
        <ele>3222.0</ele>
        <time>2021-04-17T16:48:28Z</time>
      </trkpt>
      <trkpt lat="4.8691810" lon="-75.4525250">
        <ele>3221.8</ele>
        <time>2021-04-17T16:48:29Z</time>
      </trkpt>
      <trkpt lat="4.8691340" lon="-75.4525590">
        <ele>3222.8</ele>
        <time>2021-04-17T16:48:32Z</time>
      </trkpt>
      <trkpt lat="4.8690800" lon="-75.4526060">
        <ele>3223.6</ele>
        <time>2021-04-17T16:48:36Z</time>
      </trkpt>
      <trkpt lat="4.8690230" lon="-75.4526640">
        <ele>3224.8</ele>
        <time>2021-04-17T16:48:41Z</time>
      </trkpt>
      <trkpt lat="4.8690100" lon="-75.4526760">
        <ele>3225.2</ele>
        <time>2021-04-17T16:48:42Z</time>
      </trkpt>
      <trkpt lat="4.8689830" lon="-75.4527020">
        <ele>3226.0</ele>
        <time>2021-04-17T16:48:44Z</time>
      </trkpt>
      <trkpt lat="4.8689330" lon="-75.4527530">
        <ele>3227.2</ele>
        <time>2021-04-17T16:48:48Z</time>
      </trkpt>
      <trkpt lat="4.8689040" lon="-75.4527780">
        <ele>3227.8</ele>
        <time>2021-04-17T16:48:50Z</time>
      </trkpt>
      <trkpt lat="4.8688910" lon="-75.4527910">
        <ele>3228.2</ele>
        <time>2021-04-17T16:48:51Z</time>
      </trkpt>
      <trkpt lat="4.8688330" lon="-75.4528290">
        <ele>3229.2</ele>
        <time>2021-04-17T16:48:55Z</time>
      </trkpt>
      <trkpt lat="4.8687710" lon="-75.4528500">
        <ele>3230.2</ele>
        <time>2021-04-17T16:48:59Z</time>
      </trkpt>
      <trkpt lat="4.8687540" lon="-75.4528530">
        <ele>3230.4</ele>
        <time>2021-04-17T16:49:00Z</time>
      </trkpt>
      <trkpt lat="4.8686500" lon="-75.4528590">
        <ele>3230.8</ele>
        <time>2021-04-17T16:49:06Z</time>
      </trkpt>
      <trkpt lat="4.8685780" lon="-75.4528610">
        <ele>3231.4</ele>
        <time>2021-04-17T16:49:11Z</time>
      </trkpt>
      <trkpt lat="4.8685420" lon="-75.4528590">
        <ele>3232.0</ele>
        <time>2021-04-17T16:49:14Z</time>
      </trkpt>
      <trkpt lat="4.8684890" lon="-75.4528530">
        <ele>3232.4</ele>
        <time>2021-04-17T16:49:18Z</time>
      </trkpt>
      <trkpt lat="4.8684020" lon="-75.4528340">
        <ele>3233.0</ele>
        <time>2021-04-17T16:49:24Z</time>
      </trkpt>
      <trkpt lat="4.8683540" lon="-75.4528230">
        <ele>3233.4</ele>
        <time>2021-04-17T16:49:27Z</time>
      </trkpt>
      <trkpt lat="4.8682580" lon="-75.4527990">
        <ele>3234.2</ele>
        <time>2021-04-17T16:49:33Z</time>
      </trkpt>
      <trkpt lat="4.8682270" lon="-75.4527980">
        <ele>3234.6</ele>
        <time>2021-04-17T16:49:35Z</time>
      </trkpt>
      <trkpt lat="4.8681470" lon="-75.4528120">
        <ele>3235.4</ele>
        <time>2021-04-17T16:49:40Z</time>
      </trkpt>
      <trkpt lat="4.8680890" lon="-75.4528170">
        <ele>3235.6</ele>
        <time>2021-04-17T16:49:44Z</time>
      </trkpt>
      <trkpt lat="4.8680330" lon="-75.4528200">
        <ele>3236.2</ele>
        <time>2021-04-17T16:49:48Z</time>
      </trkpt>
      <trkpt lat="4.8680050" lon="-75.4528210">
        <ele>3236.6</ele>
        <time>2021-04-17T16:49:50Z</time>
      </trkpt>
      <trkpt lat="4.8679300" lon="-75.4528260">
        <ele>3237.8</ele>
        <time>2021-04-17T16:49:56Z</time>
      </trkpt>
      <trkpt lat="4.8679160" lon="-75.4528300">
        <ele>3237.8</ele>
        <time>2021-04-17T16:49:57Z</time>
      </trkpt>
      <trkpt lat="4.8678750" lon="-75.4528410">
        <ele>3238.6</ele>
        <time>2021-04-17T16:50:00Z</time>
      </trkpt>
      <trkpt lat="4.8678050" lon="-75.4528840">
        <ele>3239.6</ele>
        <time>2021-04-17T16:50:05Z</time>
      </trkpt>
      <trkpt lat="4.8677400" lon="-75.4529460">
        <ele>3240.8</ele>
        <time>2021-04-17T16:50:10Z</time>
      </trkpt>
      <trkpt lat="4.8677140" lon="-75.4529720">
        <ele>3241.0</ele>
        <time>2021-04-17T16:50:12Z</time>
      </trkpt>
      <trkpt lat="4.8676740" lon="-75.4530310">
        <ele>3242.0</ele>
        <time>2021-04-17T16:50:16Z</time>
      </trkpt>
      <trkpt lat="4.8676240" lon="-75.4531110">
        <ele>3242.6</ele>
        <time>2021-04-17T16:50:21Z</time>
      </trkpt>
      <trkpt lat="4.8676160" lon="-75.4531310">
        <ele>3242.8</ele>
        <time>2021-04-17T16:50:22Z</time>
      </trkpt>
      <trkpt lat="4.8675740" lon="-75.4532200">
        <ele>3244.0</ele>
        <time>2021-04-17T16:50:28Z</time>
      </trkpt>
      <trkpt lat="4.8675680" lon="-75.4532320">
        <ele>3244.2</ele>
        <time>2021-04-17T16:50:29Z</time>
      </trkpt>
      <trkpt lat="4.8675570" lon="-75.4532880">
        <ele>3245.2</ele>
        <time>2021-04-17T16:50:33Z</time>
      </trkpt>
      <trkpt lat="4.8675540" lon="-75.4533160">
        <ele>3246.0</ele>
        <time>2021-04-17T16:50:35Z</time>
      </trkpt>
      <trkpt lat="4.8675520" lon="-75.4533410">
        <ele>3246.2</ele>
        <time>2021-04-17T16:50:37Z</time>
      </trkpt>
      <trkpt lat="4.8675350" lon="-75.4534210">
        <ele>3247.2</ele>
        <time>2021-04-17T16:50:42Z</time>
      </trkpt>
      <trkpt lat="4.8675310" lon="-75.4534390">
        <ele>3247.2</ele>
        <time>2021-04-17T16:50:43Z</time>
      </trkpt>
      <trkpt lat="4.8674950" lon="-75.4535170">
        <ele>3247.8</ele>
        <time>2021-04-17T16:50:48Z</time>
      </trkpt>
      <trkpt lat="4.8674580" lon="-75.4535870">
        <ele>3248.4</ele>
        <time>2021-04-17T16:50:53Z</time>
      </trkpt>
      <trkpt lat="4.8674270" lon="-75.4536270">
        <ele>3248.8</ele>
        <time>2021-04-17T16:50:56Z</time>
      </trkpt>
      <trkpt lat="4.8673880" lon="-75.4536680">
        <ele>3249.2</ele>
        <time>2021-04-17T16:51:00Z</time>
      </trkpt>
      <trkpt lat="4.8673150" lon="-75.4537170">
        <ele>3250.2</ele>
        <time>2021-04-17T16:51:06Z</time>
      </trkpt>
      <trkpt lat="4.8672670" lon="-75.4537250">
        <ele>3251.4</ele>
        <time>2021-04-17T16:51:09Z</time>
      </trkpt>
      <trkpt lat="4.8672040" lon="-75.4537160">
        <ele>3251.8</ele>
        <time>2021-04-17T16:51:13Z</time>
      </trkpt>
      <trkpt lat="4.8671490" lon="-75.4537090">
        <ele>3252.4</ele>
        <time>2021-04-17T16:51:17Z</time>
      </trkpt>
      <trkpt lat="4.8671050" lon="-75.4536850">
        <ele>3253.0</ele>
        <time>2021-04-17T16:51:21Z</time>
      </trkpt>
      <trkpt lat="4.8670770" lon="-75.4536620">
        <ele>3253.6</ele>
        <time>2021-04-17T16:51:24Z</time>
      </trkpt>
      <trkpt lat="4.8670380" lon="-75.4536400">
        <ele>3254.6</ele>
        <time>2021-04-17T16:51:28Z</time>
      </trkpt>
      <trkpt lat="4.8670290" lon="-75.4536340">
        <ele>3254.8</ele>
        <time>2021-04-17T16:51:29Z</time>
      </trkpt>
      <trkpt lat="4.8669770" lon="-75.4535700">
        <ele>3255.6</ele>
        <time>2021-04-17T16:51:36Z</time>
      </trkpt>
      <trkpt lat="4.8669440" lon="-75.4534790">
        <ele>3256.8</ele>
        <time>2021-04-17T16:51:43Z</time>
      </trkpt>
      <trkpt lat="4.8669400" lon="-75.4534640">
        <ele>3256.8</ele>
        <time>2021-04-17T16:51:44Z</time>
      </trkpt>
      <trkpt lat="4.8669040" lon="-75.4533880">
        <ele>3257.8</ele>
        <time>2021-04-17T16:51:50Z</time>
      </trkpt>
      <trkpt lat="4.8668980" lon="-75.4533770">
        <ele>3258.0</ele>
        <time>2021-04-17T16:51:51Z</time>
      </trkpt>
      <trkpt lat="4.8668800" lon="-75.4533270">
        <ele>3258.8</ele>
        <time>2021-04-17T16:51:55Z</time>
      </trkpt>
      <trkpt lat="4.8668780" lon="-75.4533140">
        <ele>3259.0</ele>
        <time>2021-04-17T16:51:56Z</time>
      </trkpt>
      <trkpt lat="4.8668690" lon="-75.4532690">
        <ele>3259.6</ele>
        <time>2021-04-17T16:51:59Z</time>
      </trkpt>
      <trkpt lat="4.8668590" lon="-75.4532260">
        <ele>3260.2</ele>
        <time>2021-04-17T16:52:02Z</time>
      </trkpt>
      <trkpt lat="4.8668540" lon="-75.4531570">
        <ele>3260.6</ele>
        <time>2021-04-17T16:52:06Z</time>
      </trkpt>
      <trkpt lat="4.8668610" lon="-75.4530890">
        <ele>3261.2</ele>
        <time>2021-04-17T16:52:10Z</time>
      </trkpt>
      <trkpt lat="4.8668810" lon="-75.4530200">
        <ele>3261.8</ele>
        <time>2021-04-17T16:52:14Z</time>
      </trkpt>
      <trkpt lat="4.8668860" lon="-75.4530020">
        <ele>3262.2</ele>
        <time>2021-04-17T16:52:15Z</time>
      </trkpt>
      <trkpt lat="4.8668800" lon="-75.4528840">
        <ele>3263.0</ele>
        <time>2021-04-17T16:52:21Z</time>
      </trkpt>
      <trkpt lat="4.8668840" lon="-75.4528600">
        <ele>3263.2</ele>
        <time>2021-04-17T16:52:22Z</time>
      </trkpt>
      <trkpt lat="4.8669040" lon="-75.4526950">
        <ele>3263.8</ele>
        <time>2021-04-17T16:52:29Z</time>
      </trkpt>
      <trkpt lat="4.8669160" lon="-75.4526260">
        <ele>3264.2</ele>
        <time>2021-04-17T16:52:32Z</time>
      </trkpt>
      <trkpt lat="4.8669360" lon="-75.4525200">
        <ele>3265.0</ele>
        <time>2021-04-17T16:52:37Z</time>
      </trkpt>
      <trkpt lat="4.8669410" lon="-75.4524990">
        <ele>3265.2</ele>
        <time>2021-04-17T16:52:38Z</time>
      </trkpt>
      <trkpt lat="4.8670000" lon="-75.4523560">
        <ele>3266.2</ele>
        <time>2021-04-17T16:52:45Z</time>
      </trkpt>
      <trkpt lat="4.8670120" lon="-75.4523380">
        <ele>3266.4</ele>
        <time>2021-04-17T16:52:46Z</time>
      </trkpt>
      <trkpt lat="4.8671010" lon="-75.4522230">
        <ele>3267.2</ele>
        <time>2021-04-17T16:52:53Z</time>
      </trkpt>
      <trkpt lat="4.8671130" lon="-75.4522070">
        <ele>3267.8</ele>
        <time>2021-04-17T16:52:54Z</time>
      </trkpt>
      <trkpt lat="4.8671550" lon="-75.4521640">
        <ele>3268.2</ele>
        <time>2021-04-17T16:52:57Z</time>
      </trkpt>
      <trkpt lat="4.8671910" lon="-75.4521180">
        <ele>3269.4</ele>
        <time>2021-04-17T16:53:00Z</time>
      </trkpt>
      <trkpt lat="4.8672030" lon="-75.4521040">
        <ele>3269.6</ele>
        <time>2021-04-17T16:53:01Z</time>
      </trkpt>
      <trkpt lat="4.8672450" lon="-75.4520700">
        <ele>3270.4</ele>
        <time>2021-04-17T16:53:04Z</time>
      </trkpt>
      <trkpt lat="4.8672970" lon="-75.4520160">
        <ele>3271.4</ele>
        <time>2021-04-17T16:53:08Z</time>
      </trkpt>
      <trkpt lat="4.8673530" lon="-75.4519490">
        <ele>3272.4</ele>
        <time>2021-04-17T16:53:13Z</time>
      </trkpt>
      <trkpt lat="4.8673620" lon="-75.4519350">
        <ele>3272.6</ele>
        <time>2021-04-17T16:53:14Z</time>
      </trkpt>
      <trkpt lat="4.8674170" lon="-75.4518900">
        <ele>3273.6</ele>
        <time>2021-04-17T16:53:18Z</time>
      </trkpt>
      <trkpt lat="4.8674830" lon="-75.4518280">
        <ele>3274.6</ele>
        <time>2021-04-17T16:53:23Z</time>
      </trkpt>
      <trkpt lat="4.8674950" lon="-75.4518140">
        <ele>3274.6</ele>
        <time>2021-04-17T16:53:24Z</time>
      </trkpt>
      <trkpt lat="4.8675600" lon="-75.4517010">
        <ele>3275.2</ele>
        <time>2021-04-17T16:53:31Z</time>
      </trkpt>
      <trkpt lat="4.8675640" lon="-75.4516590">
        <ele>3275.6</ele>
        <time>2021-04-17T16:53:33Z</time>
      </trkpt>
      <trkpt lat="4.8675850" lon="-75.4515700">
        <ele>3276.0</ele>
        <time>2021-04-17T16:53:37Z</time>
      </trkpt>
      <trkpt lat="4.8676630" lon="-75.4515070">
        <ele>3276.0</ele>
        <time>2021-04-17T16:53:41Z</time>
      </trkpt>
      <trkpt lat="4.8677510" lon="-75.4514890">
        <ele>3276.4</ele>
        <time>2021-04-17T16:53:45Z</time>
      </trkpt>
      <trkpt lat="4.8677690" lon="-75.4514810">
        <ele>3276.4</ele>
        <time>2021-04-17T16:53:46Z</time>
      </trkpt>
      <trkpt lat="4.8678820" lon="-75.4514220">
        <ele>3277.6</ele>
        <time>2021-04-17T16:53:53Z</time>
      </trkpt>
      <trkpt lat="4.8679490" lon="-75.4513430">
        <ele>3278.4</ele>
        <time>2021-04-17T16:53:58Z</time>
      </trkpt>
      <trkpt lat="4.8679890" lon="-75.4512910">
        <ele>3279.2</ele>
        <time>2021-04-17T16:54:01Z</time>
      </trkpt>
      <trkpt lat="4.8680000" lon="-75.4512750">
        <ele>3279.4</ele>
        <time>2021-04-17T16:54:02Z</time>
      </trkpt>
      <trkpt lat="4.8680580" lon="-75.4512100">
        <ele>3280.4</ele>
        <time>2021-04-17T16:54:07Z</time>
      </trkpt>
      <trkpt lat="4.8680800" lon="-75.4511900">
        <ele>3280.6</ele>
        <time>2021-04-17T16:54:09Z</time>
      </trkpt>
      <trkpt lat="4.8681520" lon="-75.4511310">
        <ele>3281.4</ele>
        <time>2021-04-17T16:54:15Z</time>
      </trkpt>
      <trkpt lat="4.8681880" lon="-75.4511040">
        <ele>3282.2</ele>
        <time>2021-04-17T16:54:18Z</time>
      </trkpt>
      <trkpt lat="4.8682130" lon="-75.4510850">
        <ele>3282.4</ele>
        <time>2021-04-17T16:54:20Z</time>
      </trkpt>
      <trkpt lat="4.8682640" lon="-75.4510110">
        <ele>3283.4</ele>
        <time>2021-04-17T16:54:25Z</time>
      </trkpt>
      <trkpt lat="4.8682720" lon="-75.4509940">
        <ele>3283.6</ele>
        <time>2021-04-17T16:54:26Z</time>
      </trkpt>
      <trkpt lat="4.8682820" lon="-75.4509120">
        <ele>3284.4</ele>
        <time>2021-04-17T16:54:30Z</time>
      </trkpt>
      <trkpt lat="4.8682740" lon="-75.4508490">
        <ele>3285.0</ele>
        <time>2021-04-17T16:54:33Z</time>
      </trkpt>
      <trkpt lat="4.8682420" lon="-75.4507740">
        <ele>3285.6</ele>
        <time>2021-04-17T16:54:37Z</time>
      </trkpt>
      <trkpt lat="4.8682100" lon="-75.4507180">
        <ele>3285.8</ele>
        <time>2021-04-17T16:54:40Z</time>
      </trkpt>
      <trkpt lat="4.8681290" lon="-75.4506370">
        <ele>3286.4</ele>
        <time>2021-04-17T16:54:46Z</time>
      </trkpt>
      <trkpt lat="4.8680940" lon="-75.4506180">
        <ele>3286.8</ele>
        <time>2021-04-17T16:54:48Z</time>
      </trkpt>
      <trkpt lat="4.8680540" lon="-75.4506070">
        <ele>3287.4</ele>
        <time>2021-04-17T16:54:50Z</time>
      </trkpt>
      <trkpt lat="4.8679940" lon="-75.4505910">
        <ele>3287.8</ele>
        <time>2021-04-17T16:54:53Z</time>
      </trkpt>
      <trkpt lat="4.8679600" lon="-75.4505880">
        <ele>3288.2</ele>
        <time>2021-04-17T16:54:55Z</time>
      </trkpt>
      <trkpt lat="4.8679080" lon="-75.4505820">
        <ele>3288.6</ele>
        <time>2021-04-17T16:54:58Z</time>
      </trkpt>
      <trkpt lat="4.8678170" lon="-75.4505770">
        <ele>3289.6</ele>
        <time>2021-04-17T16:55:03Z</time>
      </trkpt>
      <trkpt lat="4.8677990" lon="-75.4505760">
        <ele>3289.4</ele>
        <time>2021-04-17T16:55:04Z</time>
      </trkpt>
      <trkpt lat="4.8676760" lon="-75.4505330">
        <ele>3290.8</ele>
        <time>2021-04-17T16:55:11Z</time>
      </trkpt>
      <trkpt lat="4.8675880" lon="-75.4504950">
        <ele>3291.8</ele>
        <time>2021-04-17T16:55:18Z</time>
      </trkpt>
      <trkpt lat="4.8675660" lon="-75.4504790">
        <ele>3292.2</ele>
        <time>2021-04-17T16:55:20Z</time>
      </trkpt>
      <trkpt lat="4.8675290" lon="-75.4504530">
        <ele>3293.0</ele>
        <time>2021-04-17T16:55:23Z</time>
      </trkpt>
      <trkpt lat="4.8674600" lon="-75.4504160">
        <ele>3293.8</ele>
        <time>2021-04-17T16:55:29Z</time>
      </trkpt>
      <trkpt lat="4.8674500" lon="-75.4504100">
        <ele>3294.0</ele>
        <time>2021-04-17T16:55:30Z</time>
      </trkpt>
      <trkpt lat="4.8673770" lon="-75.4503630">
        <ele>3295.2</ele>
        <time>2021-04-17T16:55:36Z</time>
      </trkpt>
      <trkpt lat="4.8673560" lon="-75.4503440">
        <ele>3295.8</ele>
        <time>2021-04-17T16:55:38Z</time>
      </trkpt>
      <trkpt lat="4.8673140" lon="-75.4503140">
        <ele>3296.2</ele>
        <time>2021-04-17T16:55:41Z</time>
      </trkpt>
      <trkpt lat="4.8672490" lon="-75.4502740">
        <ele>3297.2</ele>
        <time>2021-04-17T16:55:45Z</time>
      </trkpt>
      <trkpt lat="4.8672190" lon="-75.4502560">
        <ele>3297.8</ele>
        <time>2021-04-17T16:55:47Z</time>
      </trkpt>
      <trkpt lat="4.8671660" lon="-75.4502310">
        <ele>3298.2</ele>
        <time>2021-04-17T16:55:50Z</time>
      </trkpt>
      <trkpt lat="4.8670660" lon="-75.4502110">
        <ele>3299.2</ele>
        <time>2021-04-17T16:55:55Z</time>
      </trkpt>
      <trkpt lat="4.8670300" lon="-75.4502120">
        <ele>3299.6</ele>
        <time>2021-04-17T16:55:57Z</time>
      </trkpt>
      <trkpt lat="4.8669070" lon="-75.4502370">
        <ele>3300.2</ele>
        <time>2021-04-17T16:56:04Z</time>
      </trkpt>
      <trkpt lat="4.8668710" lon="-75.4502540">
        <ele>3300.4</ele>
        <time>2021-04-17T16:56:06Z</time>
      </trkpt>
      <trkpt lat="4.8667830" lon="-75.4502850">
        <ele>3301.0</ele>
        <time>2021-04-17T16:56:12Z</time>
      </trkpt>
      <trkpt lat="4.8667230" lon="-75.4502870">
        <ele>3301.4</ele>
        <time>2021-04-17T16:56:16Z</time>
      </trkpt>
      <trkpt lat="4.8666740" lon="-75.4502790">
        <ele>3302.2</ele>
        <time>2021-04-17T16:56:19Z</time>
      </trkpt>
      <trkpt lat="4.8666420" lon="-75.4502710">
        <ele>3302.6</ele>
        <time>2021-04-17T16:56:21Z</time>
      </trkpt>
      <trkpt lat="4.8665470" lon="-75.4502250">
        <ele>3303.4</ele>
        <time>2021-04-17T16:56:27Z</time>
      </trkpt>
      <trkpt lat="4.8665320" lon="-75.4502180">
        <ele>3303.6</ele>
        <time>2021-04-17T16:56:28Z</time>
      </trkpt>
      <trkpt lat="4.8664550" lon="-75.4501710">
        <ele>3304.6</ele>
        <time>2021-04-17T16:56:33Z</time>
      </trkpt>
      <trkpt lat="4.8664240" lon="-75.4501550">
        <ele>3305.4</ele>
        <time>2021-04-17T16:56:35Z</time>
      </trkpt>
      <trkpt lat="4.8663930" lon="-75.4501400">
        <ele>3305.8</ele>
        <time>2021-04-17T16:56:37Z</time>
      </trkpt>
      <trkpt lat="4.8662930" lon="-75.4500760">
        <ele>3307.0</ele>
        <time>2021-04-17T16:56:44Z</time>
      </trkpt>
      <trkpt lat="4.8661540" lon="-75.4500080">
        <ele>3307.2</ele>
        <time>2021-04-17T16:56:52Z</time>
      </trkpt>
      <trkpt lat="4.8660710" lon="-75.4499430">
        <ele>3307.8</ele>
        <time>2021-04-17T16:56:59Z</time>
      </trkpt>
      <trkpt lat="4.8660620" lon="-75.4499300">
        <ele>3308.0</ele>
        <time>2021-04-17T16:57:00Z</time>
      </trkpt>
      <trkpt lat="4.8660500" lon="-75.4498790">
        <ele>3308.6</ele>
        <time>2021-04-17T16:57:04Z</time>
      </trkpt>
      <trkpt lat="4.8660470" lon="-75.4498650">
        <ele>3308.8</ele>
        <time>2021-04-17T16:57:05Z</time>
      </trkpt>
      <trkpt lat="4.8660600" lon="-75.4497700">
        <ele>3309.8</ele>
        <time>2021-04-17T16:57:11Z</time>
      </trkpt>
      <trkpt lat="4.8660700" lon="-75.4497440">
        <ele>3310.2</ele>
        <time>2021-04-17T16:57:13Z</time>
      </trkpt>
      <trkpt lat="4.8661110" lon="-75.4496980">
        <ele>3311.0</ele>
        <time>2021-04-17T16:57:17Z</time>
      </trkpt>
      <trkpt lat="4.8661680" lon="-75.4496750">
        <ele>3311.6</ele>
        <time>2021-04-17T16:57:21Z</time>
      </trkpt>
      <trkpt lat="4.8661830" lon="-75.4496710">
        <ele>3311.8</ele>
        <time>2021-04-17T16:57:22Z</time>
      </trkpt>
      <trkpt lat="4.8662630" lon="-75.4496590">
        <ele>3313.0</ele>
        <time>2021-04-17T16:57:27Z</time>
      </trkpt>
      <trkpt lat="4.8663910" lon="-75.4496230">
        <ele>3313.8</ele>
        <time>2021-04-17T16:57:35Z</time>
      </trkpt>
      <trkpt lat="4.8664810" lon="-75.4495620">
        <ele>3315.0</ele>
        <time>2021-04-17T16:57:41Z</time>
      </trkpt>
      <trkpt lat="4.8664930" lon="-75.4495480">
        <ele>3315.2</ele>
        <time>2021-04-17T16:57:42Z</time>
      </trkpt>
      <trkpt lat="4.8665180" lon="-75.4494260">
        <ele>3315.8</ele>
        <time>2021-04-17T16:57:48Z</time>
      </trkpt>
      <trkpt lat="4.8664780" lon="-75.4492960">
        <ele>3316.6</ele>
        <time>2021-04-17T16:57:53Z</time>
      </trkpt>
      <trkpt lat="4.8664380" lon="-75.4492560">
        <ele>3316.6</ele>
        <time>2021-04-17T16:57:55Z</time>
      </trkpt>
      <trkpt lat="4.8663700" lon="-75.4492200">
        <ele>3316.6</ele>
        <time>2021-04-17T16:57:58Z</time>
      </trkpt>
      <trkpt lat="4.8662960" lon="-75.4492060">
        <ele>3317.0</ele>
        <time>2021-04-17T16:58:01Z</time>
      </trkpt>
      <trkpt lat="4.8662310" lon="-75.4491890">
        <ele>3317.6</ele>
        <time>2021-04-17T16:58:04Z</time>
      </trkpt>
      <trkpt lat="4.8661530" lon="-75.4491680">
        <ele>3318.6</ele>
        <time>2021-04-17T16:58:08Z</time>
      </trkpt>
      <trkpt lat="4.8661330" lon="-75.4491630">
        <ele>3318.8</ele>
        <time>2021-04-17T16:58:09Z</time>
      </trkpt>
      <trkpt lat="4.8659960" lon="-75.4491350">
        <ele>3319.6</ele>
        <time>2021-04-17T16:58:16Z</time>
      </trkpt>
      <trkpt lat="4.8658960" lon="-75.4491150">
        <ele>3320.8</ele>
        <time>2021-04-17T16:58:21Z</time>
      </trkpt>
      <trkpt lat="4.8658600" lon="-75.4490900">
        <ele>3321.2</ele>
        <time>2021-04-17T16:58:23Z</time>
      </trkpt>
      <trkpt lat="4.8658160" lon="-75.4490400">
        <ele>3321.8</ele>
        <time>2021-04-17T16:58:26Z</time>
      </trkpt>
      <trkpt lat="4.8657910" lon="-75.4489670">
        <ele>3322.2</ele>
        <time>2021-04-17T16:58:29Z</time>
      </trkpt>
      <trkpt lat="4.8658040" lon="-75.4488070">
        <ele>3322.6</ele>
        <time>2021-04-17T16:58:35Z</time>
      </trkpt>
      <trkpt lat="4.8658160" lon="-75.4487640">
        <ele>3322.8</ele>
        <time>2021-04-17T16:58:37Z</time>
      </trkpt>
      <trkpt lat="4.8658590" lon="-75.4486570">
        <ele>3323.6</ele>
        <time>2021-04-17T16:58:44Z</time>
      </trkpt>
      <trkpt lat="4.8658600" lon="-75.4486430">
        <ele>3323.8</ele>
        <time>2021-04-17T16:58:45Z</time>
      </trkpt>
      <trkpt lat="4.8658390" lon="-75.4485790">
        <ele>3324.8</ele>
        <time>2021-04-17T16:58:49Z</time>
      </trkpt>
      <trkpt lat="4.8658300" lon="-75.4485650">
        <ele>3325.2</ele>
        <time>2021-04-17T16:58:50Z</time>
      </trkpt>
      <trkpt lat="4.8657920" lon="-75.4485270">
        <ele>3326.0</ele>
        <time>2021-04-17T16:58:54Z</time>
      </trkpt>
      <trkpt lat="4.8657510" lon="-75.4485120">
        <ele>3326.4</ele>
        <time>2021-04-17T16:58:57Z</time>
      </trkpt>
      <trkpt lat="4.8656900" lon="-75.4485130">
        <ele>3327.2</ele>
        <time>2021-04-17T16:59:01Z</time>
      </trkpt>
      <trkpt lat="4.8656400" lon="-75.4485170">
        <ele>3327.6</ele>
        <time>2021-04-17T16:59:04Z</time>
      </trkpt>
      <trkpt lat="4.8655580" lon="-75.4485050">
        <ele>3328.2</ele>
        <time>2021-04-17T16:59:09Z</time>
      </trkpt>
      <trkpt lat="4.8654920" lon="-75.4484900">
        <ele>3329.0</ele>
        <time>2021-04-17T16:59:13Z</time>
      </trkpt>
      <trkpt lat="4.8654740" lon="-75.4484870">
        <ele>3329.2</ele>
        <time>2021-04-17T16:59:14Z</time>
      </trkpt>
      <trkpt lat="4.8653640" lon="-75.4484640">
        <ele>3329.8</ele>
        <time>2021-04-17T16:59:21Z</time>
      </trkpt>
      <trkpt lat="4.8653100" lon="-75.4484560">
        <ele>3330.2</ele>
        <time>2021-04-17T16:59:25Z</time>
      </trkpt>
      <trkpt lat="4.8652430" lon="-75.4484610">
        <ele>3331.4</ele>
        <time>2021-04-17T16:59:30Z</time>
      </trkpt>
      <trkpt lat="4.8651500" lon="-75.4484560">
        <ele>3332.2</ele>
        <time>2021-04-17T16:59:36Z</time>
      </trkpt>
      <trkpt lat="4.8651350" lon="-75.4484580">
        <ele>3332.2</ele>
        <time>2021-04-17T16:59:37Z</time>
      </trkpt>
      <trkpt lat="4.8650930" lon="-75.4484570">
        <ele>3332.6</ele>
        <time>2021-04-17T16:59:40Z</time>
      </trkpt>
      <trkpt lat="4.8650500" lon="-75.4484460">
        <ele>3333.2</ele>
        <time>2021-04-17T16:59:43Z</time>
      </trkpt>
      <trkpt lat="4.8650350" lon="-75.4484460">
        <ele>3333.4</ele>
        <time>2021-04-17T16:59:44Z</time>
      </trkpt>
      <trkpt lat="4.8649660" lon="-75.4484670">
        <ele>3334.0</ele>
        <time>2021-04-17T16:59:49Z</time>
      </trkpt>
      <trkpt lat="4.8649360" lon="-75.4484750">
        <ele>3334.8</ele>
        <time>2021-04-17T16:59:51Z</time>
      </trkpt>
      <trkpt lat="4.8648930" lon="-75.4484730">
        <ele>3335.4</ele>
        <time>2021-04-17T16:59:54Z</time>
      </trkpt>
      <trkpt lat="4.8648420" lon="-75.4484240">
        <ele>3336.4</ele>
        <time>2021-04-17T16:59:59Z</time>
      </trkpt>
      <trkpt lat="4.8648320" lon="-75.4483650">
        <ele>3337.4</ele>
        <time>2021-04-17T17:00:03Z</time>
      </trkpt>
      <trkpt lat="4.8648340" lon="-75.4483000">
        <ele>3338.2</ele>
        <time>2021-04-17T17:00:07Z</time>
      </trkpt>
      <trkpt lat="4.8648410" lon="-75.4482650">
        <ele>3338.6</ele>
        <time>2021-04-17T17:00:09Z</time>
      </trkpt>
      <trkpt lat="4.8648500" lon="-75.4481630">
        <ele>3339.8</ele>
        <time>2021-04-17T17:00:15Z</time>
      </trkpt>
      <trkpt lat="4.8648570" lon="-75.4481300">
        <ele>3339.8</ele>
        <time>2021-04-17T17:00:17Z</time>
      </trkpt>
      <trkpt lat="4.8648630" lon="-75.4480400">
        <ele>3340.6</ele>
        <time>2021-04-17T17:00:22Z</time>
      </trkpt>
      <trkpt lat="4.8648610" lon="-75.4480080">
        <ele>3340.8</ele>
        <time>2021-04-17T17:00:24Z</time>
      </trkpt>
      <trkpt lat="4.8648450" lon="-75.4479410">
        <ele>3341.6</ele>
        <time>2021-04-17T17:00:28Z</time>
      </trkpt>
      <trkpt lat="4.8648180" lon="-75.4478940">
        <ele>3342.0</ele>
        <time>2021-04-17T17:00:31Z</time>
      </trkpt>
      <trkpt lat="4.8647890" lon="-75.4478180">
        <ele>3342.8</ele>
        <time>2021-04-17T17:00:35Z</time>
      </trkpt>
      <trkpt lat="4.8647490" lon="-75.4477460">
        <ele>3343.4</ele>
        <time>2021-04-17T17:00:39Z</time>
      </trkpt>
      <trkpt lat="4.8647040" lon="-75.4476720">
        <ele>3343.8</ele>
        <time>2021-04-17T17:00:43Z</time>
      </trkpt>
      <trkpt lat="4.8646430" lon="-75.4475690">
        <ele>3344.6</ele>
        <time>2021-04-17T17:00:48Z</time>
      </trkpt>
      <trkpt lat="4.8645630" lon="-75.4474490">
        <ele>3345.6</ele>
        <time>2021-04-17T17:00:54Z</time>
      </trkpt>
      <trkpt lat="4.8645190" lon="-75.4473920">
        <ele>3346.2</ele>
        <time>2021-04-17T17:00:57Z</time>
      </trkpt>
      <trkpt lat="4.8644910" lon="-75.4473520">
        <ele>3346.8</ele>
        <time>2021-04-17T17:00:59Z</time>
      </trkpt>
      <trkpt lat="4.8644410" lon="-75.4472790">
        <ele>3347.4</ele>
        <time>2021-04-17T17:01:03Z</time>
      </trkpt>
      <trkpt lat="4.8644190" lon="-75.4472330">
        <ele>3348.0</ele>
        <time>2021-04-17T17:01:06Z</time>
      </trkpt>
      <trkpt lat="4.8643770" lon="-75.4471290">
        <ele>3348.8</ele>
        <time>2021-04-17T17:01:12Z</time>
      </trkpt>
      <trkpt lat="4.8643690" lon="-75.4471080">
        <ele>3349.0</ele>
        <time>2021-04-17T17:01:13Z</time>
      </trkpt>
      <trkpt lat="4.8642810" lon="-75.4469220">
        <ele>3349.4</ele>
        <time>2021-04-17T17:01:21Z</time>
      </trkpt>
      <trkpt lat="4.8642100" lon="-75.4467500">
        <ele>3349.8</ele>
        <time>2021-04-17T17:01:27Z</time>
      </trkpt>
      <trkpt lat="4.8641850" lon="-75.4466910">
        <ele>3350.0</ele>
        <time>2021-04-17T17:01:29Z</time>
      </trkpt>
      <trkpt lat="4.8640980" lon="-75.4464600">
        <ele>3350.4</ele>
        <time>2021-04-17T17:01:37Z</time>
      </trkpt>
      <trkpt lat="4.8640120" lon="-75.4462630">
        <ele>3351.0</ele>
        <time>2021-04-17T17:01:44Z</time>
      </trkpt>
      <trkpt lat="4.8639420" lon="-75.4460690">
        <ele>3351.6</ele>
        <time>2021-04-17T17:01:52Z</time>
      </trkpt>
      <trkpt lat="4.8639320" lon="-75.4460480">
        <ele>3351.8</ele>
        <time>2021-04-17T17:01:53Z</time>
      </trkpt>
      <trkpt lat="4.8638840" lon="-75.4459490">
        <ele>3352.8</ele>
        <time>2021-04-17T17:01:58Z</time>
      </trkpt>
      <trkpt lat="4.8638470" lon="-75.4458890">
        <ele>3353.6</ele>
        <time>2021-04-17T17:02:01Z</time>
      </trkpt>
      <trkpt lat="4.8638230" lon="-75.4458490">
        <ele>3354.0</ele>
        <time>2021-04-17T17:02:03Z</time>
      </trkpt>
      <trkpt lat="4.8637450" lon="-75.4457640">
        <ele>3355.2</ele>
        <time>2021-04-17T17:02:08Z</time>
      </trkpt>
      <trkpt lat="4.8637270" lon="-75.4457480">
        <ele>3355.2</ele>
        <time>2021-04-17T17:02:09Z</time>
      </trkpt>
      <trkpt lat="4.8636450" lon="-75.4456530">
        <ele>3356.0</ele>
        <time>2021-04-17T17:02:14Z</time>
      </trkpt>
      <trkpt lat="4.8635810" lon="-75.4455800">
        <ele>3356.6</ele>
        <time>2021-04-17T17:02:18Z</time>
      </trkpt>
      <trkpt lat="4.8635060" lon="-75.4454950">
        <ele>3357.0</ele>
        <time>2021-04-17T17:02:22Z</time>
      </trkpt>
      <trkpt lat="4.8634340" lon="-75.4454380">
        <ele>3357.6</ele>
        <time>2021-04-17T17:02:25Z</time>
      </trkpt>
      <trkpt lat="4.8632430" lon="-75.4453100">
        <ele>3357.8</ele>
        <time>2021-04-17T17:02:32Z</time>
      </trkpt>
      <trkpt lat="4.8630380" lon="-75.4451960">
        <ele>3358.0</ele>
        <time>2021-04-17T17:02:39Z</time>
      </trkpt>
      <trkpt lat="4.8628590" lon="-75.4451030">
        <ele>3357.8</ele>
        <time>2021-04-17T17:02:45Z</time>
      </trkpt>
      <trkpt lat="4.8626820" lon="-75.4449760">
        <ele>3357.8</ele>
        <time>2021-04-17T17:02:52Z</time>
      </trkpt>
      <trkpt lat="4.8625860" lon="-75.4449240">
        <ele>3358.0</ele>
        <time>2021-04-17T17:02:56Z</time>
      </trkpt>
      <trkpt lat="4.8624820" lon="-75.4448490">
        <ele>3358.8</ele>
        <time>2021-04-17T17:03:01Z</time>
      </trkpt>
      <trkpt lat="4.8624650" lon="-75.4448390">
        <ele>3359.0</ele>
        <time>2021-04-17T17:03:02Z</time>
      </trkpt>
      <trkpt lat="4.8623820" lon="-75.4447920">
        <ele>3360.0</ele>
        <time>2021-04-17T17:03:07Z</time>
      </trkpt>
      <trkpt lat="4.8623440" lon="-75.4447740">
        <ele>3360.4</ele>
        <time>2021-04-17T17:03:09Z</time>
      </trkpt>
      <trkpt lat="4.8623070" lon="-75.4447540">
        <ele>3361.4</ele>
        <time>2021-04-17T17:03:11Z</time>
      </trkpt>
      <trkpt lat="4.8622320" lon="-75.4447170">
        <ele>3362.4</ele>
        <time>2021-04-17T17:03:15Z</time>
      </trkpt>
      <trkpt lat="4.8621980" lon="-75.4447020">
        <ele>3362.8</ele>
        <time>2021-04-17T17:03:17Z</time>
      </trkpt>
      <trkpt lat="4.8621350" lon="-75.4446600">
        <ele>3363.6</ele>
        <time>2021-04-17T17:03:21Z</time>
      </trkpt>
      <trkpt lat="4.8620600" lon="-75.4446020">
        <ele>3364.6</ele>
        <time>2021-04-17T17:03:26Z</time>
      </trkpt>
      <trkpt lat="4.8619870" lon="-75.4444940">
        <ele>3365.6</ele>
        <time>2021-04-17T17:03:33Z</time>
      </trkpt>
      <trkpt lat="4.8619870" lon="-75.4444730">
        <ele>3365.6</ele>
        <time>2021-04-17T17:03:34Z</time>
      </trkpt>
      <trkpt lat="4.8620190" lon="-75.4444110">
        <ele>3365.8</ele>
        <time>2021-04-17T17:03:38Z</time>
      </trkpt>
      <trkpt lat="4.8620860" lon="-75.4443380">
        <ele>3366.6</ele>
        <time>2021-04-17T17:03:44Z</time>
      </trkpt>
      <trkpt lat="4.8621040" lon="-75.4443210">
        <ele>3367.0</ele>
        <time>2021-04-17T17:03:46Z</time>
      </trkpt>
      <trkpt lat="4.8621220" lon="-75.4443070">
        <ele>3367.6</ele>
        <time>2021-04-17T17:03:48Z</time>
      </trkpt>
      <trkpt lat="4.8621590" lon="-75.4442610">
        <ele>3368.6</ele>
        <time>2021-04-17T17:03:53Z</time>
      </trkpt>
      <trkpt lat="4.8621720" lon="-75.4442430">
        <ele>3369.0</ele>
        <time>2021-04-17T17:03:55Z</time>
      </trkpt>
      <trkpt lat="4.8621870" lon="-75.4442140">
        <ele>3369.6</ele>
        <time>2021-04-17T17:03:58Z</time>
      </trkpt>
      <trkpt lat="4.8621890" lon="-75.4441620">
        <ele>3370.6</ele>
        <time>2021-04-17T17:04:02Z</time>
      </trkpt>
      <trkpt lat="4.8621860" lon="-75.4441480">
        <ele>3370.8</ele>
        <time>2021-04-17T17:04:03Z</time>
      </trkpt>
      <trkpt lat="4.8621390" lon="-75.4440610">
        <ele>3371.8</ele>
        <time>2021-04-17T17:04:09Z</time>
      </trkpt>
      <trkpt lat="4.8620590" lon="-75.4439740">
        <ele>3372.8</ele>
        <time>2021-04-17T17:04:17Z</time>
      </trkpt>
      <trkpt lat="4.8620490" lon="-75.4439650">
        <ele>3372.8</ele>
        <time>2021-04-17T17:04:18Z</time>
      </trkpt>
      <trkpt lat="4.8619850" lon="-75.4439250">
        <ele>3373.8</ele>
        <time>2021-04-17T17:04:23Z</time>
      </trkpt>
      <trkpt lat="4.8619410" lon="-75.4438980">
        <ele>3374.0</ele>
        <time>2021-04-17T17:04:26Z</time>
      </trkpt>
      <trkpt lat="4.8618580" lon="-75.4438630">
        <ele>3374.8</ele>
        <time>2021-04-17T17:04:31Z</time>
      </trkpt>
      <trkpt lat="4.8617920" lon="-75.4438340">
        <ele>3375.2</ele>
        <time>2021-04-17T17:04:35Z</time>
      </trkpt>
      <trkpt lat="4.8616960" lon="-75.4437970">
        <ele>3376.0</ele>
        <time>2021-04-17T17:04:40Z</time>
      </trkpt>
      <trkpt lat="4.8616180" lon="-75.4437800">
        <ele>3376.0</ele>
        <time>2021-04-17T17:04:44Z</time>
      </trkpt>
      <trkpt lat="4.8615150" lon="-75.4437770">
        <ele>3376.8</ele>
        <time>2021-04-17T17:04:49Z</time>
      </trkpt>
      <trkpt lat="4.8613890" lon="-75.4437830">
        <ele>3377.8</ele>
        <time>2021-04-17T17:04:55Z</time>
      </trkpt>
      <trkpt lat="4.8612840" lon="-75.4437830">
        <ele>3379.0</ele>
        <time>2021-04-17T17:05:00Z</time>
      </trkpt>
      <trkpt lat="4.8611990" lon="-75.4437790">
        <ele>3380.2</ele>
        <time>2021-04-17T17:05:04Z</time>
      </trkpt>
      <trkpt lat="4.8611800" lon="-75.4437850">
        <ele>3380.6</ele>
        <time>2021-04-17T17:05:05Z</time>
      </trkpt>
      <trkpt lat="4.8611010" lon="-75.4438170">
        <ele>3381.2</ele>
        <time>2021-04-17T17:05:09Z</time>
      </trkpt>
      <trkpt lat="4.8610160" lon="-75.4438700">
        <ele>3382.0</ele>
        <time>2021-04-17T17:05:14Z</time>
      </trkpt>
      <trkpt lat="4.8610010" lon="-75.4438830">
        <ele>3382.2</ele>
        <time>2021-04-17T17:05:15Z</time>
      </trkpt>
      <trkpt lat="4.8609240" lon="-75.4439270">
        <ele>3383.2</ele>
        <time>2021-04-17T17:05:20Z</time>
      </trkpt>
      <trkpt lat="4.8608750" lon="-75.4439500">
        <ele>3383.8</ele>
        <time>2021-04-17T17:05:23Z</time>
      </trkpt>
      <trkpt lat="4.8608230" lon="-75.4439660">
        <ele>3384.2</ele>
        <time>2021-04-17T17:05:26Z</time>
      </trkpt>
      <trkpt lat="4.8607790" lon="-75.4439840">
        <ele>3385.2</ele>
        <time>2021-04-17T17:05:29Z</time>
      </trkpt>
      <trkpt lat="4.8607350" lon="-75.4440000">
        <ele>3385.6</ele>
        <time>2021-04-17T17:05:32Z</time>
      </trkpt>
      <trkpt lat="4.8606640" lon="-75.4440120">
        <ele>3386.2</ele>
        <time>2021-04-17T17:05:36Z</time>
      </trkpt>
      <trkpt lat="4.8606160" lon="-75.4440190">
        <ele>3386.6</ele>
        <time>2021-04-17T17:05:39Z</time>
      </trkpt>
      <trkpt lat="4.8605370" lon="-75.4440230">
        <ele>3387.4</ele>
        <time>2021-04-17T17:05:43Z</time>
      </trkpt>
      <trkpt lat="4.8604590" lon="-75.4440150">
        <ele>3387.8</ele>
        <time>2021-04-17T17:05:47Z</time>
      </trkpt>
      <trkpt lat="4.8603350" lon="-75.4440150">
        <ele>3388.4</ele>
        <time>2021-04-17T17:05:53Z</time>
      </trkpt>
      <trkpt lat="4.8602680" lon="-75.4440140">
        <ele>3388.6</ele>
        <time>2021-04-17T17:05:56Z</time>
      </trkpt>
      <trkpt lat="4.8600660" lon="-75.4440020">
        <ele>3389.0</ele>
        <time>2021-04-17T17:06:05Z</time>
      </trkpt>
      <trkpt lat="4.8600420" lon="-75.4440030">
        <ele>3389.2</ele>
        <time>2021-04-17T17:06:06Z</time>
      </trkpt>
      <trkpt lat="4.8598580" lon="-75.4440020">
        <ele>3390.2</ele>
        <time>2021-04-17T17:06:13Z</time>
      </trkpt>
      <trkpt lat="4.8598050" lon="-75.4440010">
        <ele>3390.4</ele>
        <time>2021-04-17T17:06:15Z</time>
      </trkpt>
      <trkpt lat="4.8595440" lon="-75.4439960">
        <ele>3390.6</ele>
        <time>2021-04-17T17:06:25Z</time>
      </trkpt>
      <trkpt lat="4.8594900" lon="-75.4439940">
        <ele>3391.0</ele>
        <time>2021-04-17T17:06:28Z</time>
      </trkpt>
      <trkpt lat="4.8594400" lon="-75.4439780">
        <ele>3391.4</ele>
        <time>2021-04-17T17:06:31Z</time>
      </trkpt>
      <trkpt lat="4.8593950" lon="-75.4439500">
        <ele>3392.0</ele>
        <time>2021-04-17T17:06:34Z</time>
      </trkpt>
      <trkpt lat="4.8593400" lon="-75.4439010">
        <ele>3393.0</ele>
        <time>2021-04-17T17:06:38Z</time>
      </trkpt>
      <trkpt lat="4.8593290" lon="-75.4438890">
        <ele>3393.2</ele>
        <time>2021-04-17T17:06:39Z</time>
      </trkpt>
      <trkpt lat="4.8592950" lon="-75.4438280">
        <ele>3394.4</ele>
        <time>2021-04-17T17:06:43Z</time>
      </trkpt>
      <trkpt lat="4.8592890" lon="-75.4437970">
        <ele>3394.8</ele>
        <time>2021-04-17T17:06:45Z</time>
      </trkpt>
      <trkpt lat="4.8592890" lon="-75.4437840">
        <ele>3395.2</ele>
        <time>2021-04-17T17:06:46Z</time>
      </trkpt>
      <trkpt lat="4.8592890" lon="-75.4437390">
        <ele>3396.4</ele>
        <time>2021-04-17T17:06:50Z</time>
      </trkpt>
      <trkpt lat="4.8592910" lon="-75.4436950">
        <ele>3397.2</ele>
        <time>2021-04-17T17:06:53Z</time>
      </trkpt>
      <trkpt lat="4.8592930" lon="-75.4436790">
        <ele>3397.6</ele>
        <time>2021-04-17T17:06:54Z</time>
      </trkpt>
      <trkpt lat="4.8593000" lon="-75.4436170">
        <ele>3398.2</ele>
        <time>2021-04-17T17:06:59Z</time>
      </trkpt>
      <trkpt lat="4.8593020" lon="-75.4435960">
        <ele>3398.6</ele>
        <time>2021-04-17T17:07:01Z</time>
      </trkpt>
      <trkpt lat="4.8593050" lon="-75.4435380">
        <ele>3399.0</ele>
        <time>2021-04-17T17:07:05Z</time>
      </trkpt>
      <trkpt lat="4.8593030" lon="-75.4435100">
        <ele>3399.6</ele>
        <time>2021-04-17T17:07:07Z</time>
      </trkpt>
      <trkpt lat="4.8592870" lon="-75.4434290">
        <ele>3400.6</ele>
        <time>2021-04-17T17:07:13Z</time>
      </trkpt>
      <trkpt lat="4.8592410" lon="-75.4433250">
        <ele>3401.6</ele>
        <time>2021-04-17T17:07:20Z</time>
      </trkpt>
      <trkpt lat="4.8592330" lon="-75.4433090">
        <ele>3401.8</ele>
        <time>2021-04-17T17:07:21Z</time>
      </trkpt>
      <trkpt lat="4.8591690" lon="-75.4432080">
        <ele>3402.4</ele>
        <time>2021-04-17T17:07:28Z</time>
      </trkpt>
      <trkpt lat="4.8591350" lon="-75.4431660">
        <ele>3402.6</ele>
        <time>2021-04-17T17:07:31Z</time>
      </trkpt>
      <trkpt lat="4.8590370" lon="-75.4430580">
        <ele>3403.2</ele>
        <time>2021-04-17T17:07:38Z</time>
      </trkpt>
      <trkpt lat="4.8589840" lon="-75.4429930">
        <ele>3403.8</ele>
        <time>2021-04-17T17:07:42Z</time>
      </trkpt>
      <trkpt lat="4.8588950" lon="-75.4429060">
        <ele>3404.6</ele>
        <time>2021-04-17T17:07:48Z</time>
      </trkpt>
      <trkpt lat="4.8588660" lon="-75.4428830">
        <ele>3404.8</ele>
        <time>2021-04-17T17:07:50Z</time>
      </trkpt>
      <trkpt lat="4.8587810" lon="-75.4428090">
        <ele>3405.6</ele>
        <time>2021-04-17T17:07:57Z</time>
      </trkpt>
      <trkpt lat="4.8587680" lon="-75.4427950">
        <ele>3405.6</ele>
        <time>2021-04-17T17:07:58Z</time>
      </trkpt>
      <trkpt lat="4.8587550" lon="-75.4427820">
        <ele>3405.8</ele>
        <time>2021-04-17T17:07:59Z</time>
      </trkpt>
      <trkpt lat="4.8586860" lon="-75.4427140">
        <ele>3406.8</ele>
        <time>2021-04-17T17:08:04Z</time>
      </trkpt>
      <trkpt lat="4.8586590" lon="-75.4426890">
        <ele>3407.0</ele>
        <time>2021-04-17T17:08:06Z</time>
      </trkpt>
      <trkpt lat="4.8586120" lon="-75.4426320">
        <ele>3407.8</ele>
        <time>2021-04-17T17:08:10Z</time>
      </trkpt>
      <trkpt lat="4.8585760" lon="-75.4425900">
        <ele>3408.8</ele>
        <time>2021-04-17T17:08:13Z</time>
      </trkpt>
      <trkpt lat="4.8585550" lon="-75.4425600">
        <ele>3409.0</ele>
        <time>2021-04-17T17:08:15Z</time>
      </trkpt>
      <trkpt lat="4.8585210" lon="-75.4425050">
        <ele>3409.8</ele>
        <time>2021-04-17T17:08:19Z</time>
      </trkpt>
      <trkpt lat="4.8584870" lon="-75.4424530">
        <ele>3410.8</ele>
        <time>2021-04-17T17:08:23Z</time>
      </trkpt>
      <trkpt lat="4.8584700" lon="-75.4424270">
        <ele>3411.0</ele>
        <time>2021-04-17T17:08:25Z</time>
      </trkpt>
      <trkpt lat="4.8584310" lon="-75.4423350">
        <ele>3412.0</ele>
        <time>2021-04-17T17:08:31Z</time>
      </trkpt>
      <trkpt lat="4.8584240" lon="-75.4423200">
        <ele>3412.2</ele>
        <time>2021-04-17T17:08:32Z</time>
      </trkpt>
      <trkpt lat="4.8583800" lon="-75.4422390">
        <ele>3413.4</ele>
        <time>2021-04-17T17:08:38Z</time>
      </trkpt>
      <trkpt lat="4.8583730" lon="-75.4422260">
        <ele>3413.6</ele>
        <time>2021-04-17T17:08:39Z</time>
      </trkpt>
      <trkpt lat="4.8583190" lon="-75.4421250">
        <ele>3414.4</ele>
        <time>2021-04-17T17:08:47Z</time>
      </trkpt>
      <trkpt lat="4.8582800" lon="-75.4420490">
        <ele>3415.4</ele>
        <time>2021-04-17T17:08:53Z</time>
      </trkpt>
      <trkpt lat="4.8582710" lon="-75.4420360">
        <ele>3415.8</ele>
        <time>2021-04-17T17:08:54Z</time>
      </trkpt>
      <trkpt lat="4.8582260" lon="-75.4419540">
        <ele>3416.6</ele>
        <time>2021-04-17T17:09:00Z</time>
      </trkpt>
      <trkpt lat="4.8582000" lon="-75.4419170">
        <ele>3417.0</ele>
        <time>2021-04-17T17:09:03Z</time>
      </trkpt>
      <trkpt lat="4.8581790" lon="-75.4418740">
        <ele>3417.6</ele>
        <time>2021-04-17T17:09:06Z</time>
      </trkpt>
      <trkpt lat="4.8581410" lon="-75.4418110">
        <ele>3418.2</ele>
        <time>2021-04-17T17:09:11Z</time>
      </trkpt>
      <trkpt lat="4.8581340" lon="-75.4417970">
        <ele>3418.4</ele>
        <time>2021-04-17T17:09:12Z</time>
      </trkpt>
      <trkpt lat="4.8580910" lon="-75.4416910">
        <ele>3419.4</ele>
        <time>2021-04-17T17:09:18Z</time>
      </trkpt>
      <trkpt lat="4.8580900" lon="-75.4416710">
        <ele>3419.6</ele>
        <time>2021-04-17T17:09:19Z</time>
      </trkpt>
      <trkpt lat="4.8580720" lon="-75.4415460">
        <ele>3420.6</ele>
        <time>2021-04-17T17:09:25Z</time>
      </trkpt>
      <trkpt lat="4.8580670" lon="-75.4415060">
        <ele>3420.8</ele>
        <time>2021-04-17T17:09:27Z</time>
      </trkpt>
      <trkpt lat="4.8580540" lon="-75.4414000">
        <ele>3421.6</ele>
        <time>2021-04-17T17:09:32Z</time>
      </trkpt>
      <trkpt lat="4.8580330" lon="-75.4413160">
        <ele>3422.4</ele>
        <time>2021-04-17T17:09:36Z</time>
      </trkpt>
      <trkpt lat="4.8580180" lon="-75.4412760">
        <ele>3422.6</ele>
        <time>2021-04-17T17:09:38Z</time>
      </trkpt>
      <trkpt lat="4.8579800" lon="-75.4411180">
        <ele>3423.6</ele>
        <time>2021-04-17T17:09:45Z</time>
      </trkpt>
      <trkpt lat="4.8579480" lon="-75.4409310">
        <ele>3424.6</ele>
        <time>2021-04-17T17:09:53Z</time>
      </trkpt>
      <trkpt lat="4.8579410" lon="-75.4409060">
        <ele>3424.6</ele>
        <time>2021-04-17T17:09:54Z</time>
      </trkpt>
      <trkpt lat="4.8578940" lon="-75.4407610">
        <ele>3425.4</ele>
        <time>2021-04-17T17:10:00Z</time>
      </trkpt>
      <trkpt lat="4.8578780" lon="-75.4407210">
        <ele>3426.0</ele>
        <time>2021-04-17T17:10:02Z</time>
      </trkpt>
      <trkpt lat="4.8578250" lon="-75.4405940">
        <ele>3426.8</ele>
        <time>2021-04-17T17:10:09Z</time>
      </trkpt>
      <trkpt lat="4.8578070" lon="-75.4405590">
        <ele>3427.2</ele>
        <time>2021-04-17T17:10:11Z</time>
      </trkpt>
      <trkpt lat="4.8577900" lon="-75.4405240">
        <ele>3427.4</ele>
        <time>2021-04-17T17:10:13Z</time>
      </trkpt>
      <trkpt lat="4.8577620" lon="-75.4404730">
        <ele>3427.8</ele>
        <time>2021-04-17T17:10:16Z</time>
      </trkpt>
      <trkpt lat="4.8576980" lon="-75.4403670">
        <ele>3429.2</ele>
        <time>2021-04-17T17:10:22Z</time>
      </trkpt>
      <trkpt lat="4.8576240" lon="-75.4402670">
        <ele>3430.2</ele>
        <time>2021-04-17T17:10:28Z</time>
      </trkpt>
      <trkpt lat="4.8575670" lon="-75.4402090">
        <ele>3431.0</ele>
        <time>2021-04-17T17:10:32Z</time>
      </trkpt>
      <trkpt lat="4.8575360" lon="-75.4401860">
        <ele>3431.2</ele>
        <time>2021-04-17T17:10:34Z</time>
      </trkpt>
      <trkpt lat="4.8574720" lon="-75.4401480">
        <ele>3432.4</ele>
        <time>2021-04-17T17:10:38Z</time>
      </trkpt>
      <trkpt lat="4.8574260" lon="-75.4401220">
        <ele>3433.0</ele>
        <time>2021-04-17T17:10:41Z</time>
      </trkpt>
      <trkpt lat="4.8574110" lon="-75.4401160">
        <ele>3433.2</ele>
        <time>2021-04-17T17:10:42Z</time>
      </trkpt>
      <trkpt lat="4.8573250" lon="-75.4400650">
        <ele>3434.0</ele>
        <time>2021-04-17T17:10:48Z</time>
      </trkpt>
      <trkpt lat="4.8572950" lon="-75.4400420">
        <ele>3434.4</ele>
        <time>2021-04-17T17:10:50Z</time>
      </trkpt>
      <trkpt lat="4.8572320" lon="-75.4400030">
        <ele>3435.6</ele>
        <time>2021-04-17T17:10:54Z</time>
      </trkpt>
      <trkpt lat="4.8572200" lon="-75.4399950">
        <ele>3435.8</ele>
        <time>2021-04-17T17:10:55Z</time>
      </trkpt>
      <trkpt lat="4.8571720" lon="-75.4399550">
        <ele>3436.6</ele>
        <time>2021-04-17T17:10:59Z</time>
      </trkpt>
      <trkpt lat="4.8571190" lon="-75.4398870">
        <ele>3437.4</ele>
        <time>2021-04-17T17:11:04Z</time>
      </trkpt>
      <trkpt lat="4.8570610" lon="-75.4397730">
        <ele>3438.2</ele>
        <time>2021-04-17T17:11:10Z</time>
      </trkpt>
      <trkpt lat="4.8570260" lon="-75.4395950">
        <ele>3438.2</ele>
        <time>2021-04-17T17:11:17Z</time>
      </trkpt>
      <trkpt lat="4.8569550" lon="-75.4393860">
        <ele>3438.2</ele>
        <time>2021-04-17T17:11:24Z</time>
      </trkpt>
      <trkpt lat="4.8568180" lon="-75.4392000">
        <ele>3438.2</ele>
        <time>2021-04-17T17:11:31Z</time>
      </trkpt>
      <trkpt lat="4.8566640" lon="-75.4391430">
        <ele>3438.4</ele>
        <time>2021-04-17T17:11:36Z</time>
      </trkpt>
      <trkpt lat="4.8566320" lon="-75.4391350">
        <ele>3438.4</ele>
        <time>2021-04-17T17:11:37Z</time>
      </trkpt>
      <trkpt lat="4.8564530" lon="-75.4390840">
        <ele>3439.6</ele>
        <time>2021-04-17T17:11:43Z</time>
      </trkpt>
      <trkpt lat="4.8563930" lon="-75.4390710">
        <ele>3440.4</ele>
        <time>2021-04-17T17:11:45Z</time>
      </trkpt>
      <trkpt lat="4.8563600" lon="-75.4390650">
        <ele>3440.8</ele>
        <time>2021-04-17T17:11:46Z</time>
      </trkpt>
      <trkpt lat="4.8561400" lon="-75.4390190">
        <ele>3441.4</ele>
        <time>2021-04-17T17:11:52Z</time>
      </trkpt>
      <trkpt lat="4.8560210" lon="-75.4389820">
        <ele>3441.6</ele>
        <time>2021-04-17T17:11:55Z</time>
      </trkpt>
      <trkpt lat="4.8558770" lon="-75.4389080">
        <ele>3442.0</ele>
        <time>2021-04-17T17:11:59Z</time>
      </trkpt>
      <trkpt lat="4.8557300" lon="-75.4388210">
        <ele>3442.6</ele>
        <time>2021-04-17T17:12:05Z</time>
      </trkpt>
      <trkpt lat="4.8556770" lon="-75.4387890">
        <ele>3442.8</ele>
        <time>2021-04-17T17:12:09Z</time>
      </trkpt>
      <trkpt lat="4.8556320" lon="-75.4387530">
        <ele>3442.8</ele>
        <time>2021-04-17T17:12:13Z</time>
      </trkpt>
      <trkpt lat="4.8556120" lon="-75.4387320">
        <ele>3442.6</ele>
        <time>2021-04-17T17:12:16Z</time>
      </trkpt>
      <trkpt lat="4.8556240" lon="-75.4387150">
        <ele>3442.8</ele>
        <time>2021-04-17T17:12:18Z</time>
      </trkpt>
      <trkpt lat="4.8556500" lon="-75.4387080">
        <ele>3443.0</ele>
        <time>2021-04-17T17:12:20Z</time>
      </trkpt>
      <trkpt lat="4.8557180" lon="-75.4386870">
        <ele>3443.0</ele>
        <time>2021-04-17T17:12:25Z</time>
      </trkpt>
      <trkpt lat="4.8557410" lon="-75.4386790">
        <ele>3443.6</ele>
        <time>2021-04-17T17:12:28Z</time>
      </trkpt>
      <trkpt lat="4.8557440" lon="-75.4386910">
        <ele>3443.8</ele>
        <time>2021-04-17T17:12:29Z</time>
      </trkpt>
      <trkpt lat="4.8557360" lon="-75.4387910">
        <ele>3444.2</ele>
        <time>2021-04-17T17:12:33Z</time>
      </trkpt>
      <trkpt lat="4.8556920" lon="-75.4388170">
        <ele>3444.4</ele>
        <time>2021-04-17T17:12:35Z</time>
      </trkpt>
      <trkpt lat="4.8556690" lon="-75.4388060">
        <ele>3444.4</ele>
        <time>2021-04-17T17:12:36Z</time>
      </trkpt>
      <trkpt lat="4.8555680" lon="-75.4387140">
        <ele>3444.4</ele>
        <time>2021-04-17T17:12:41Z</time>
      </trkpt>
      <trkpt lat="4.8553350" lon="-75.4385530">
        <ele>3443.4</ele>
        <time>2021-04-17T17:12:49Z</time>
      </trkpt>
      <trkpt lat="4.8552070" lon="-75.4384520">
        <ele>3443.4</ele>
        <time>2021-04-17T17:12:53Z</time>
      </trkpt>
      <trkpt lat="4.8551520" lon="-75.4383870">
        <ele>3442.8</ele>
        <time>2021-04-17T17:12:55Z</time>
      </trkpt>
      <trkpt lat="4.8551220" lon="-75.4383550">
        <ele>3443.0</ele>
        <time>2021-04-17T17:12:56Z</time>
      </trkpt>
      <trkpt lat="4.8549870" lon="-75.4381980">
        <ele>3442.4</ele>
        <time>2021-04-17T17:13:01Z</time>
      </trkpt>
      <trkpt lat="4.8549190" lon="-75.4381090">
        <ele>3442.2</ele>
        <time>2021-04-17T17:13:05Z</time>
      </trkpt>
      <trkpt lat="4.8549060" lon="-75.4380970">
        <ele>3442.0</ele>
        <time>2021-04-17T17:13:08Z</time>
      </trkpt>
      <trkpt lat="4.8549340" lon="-75.4381410">
        <ele>3442.2</ele>
        <time>2021-04-17T17:19:19Z</time>
      </trkpt>
      <trkpt lat="4.8550120" lon="-75.4382500">
        <ele>3442.4</ele>
        <time>2021-04-17T17:19:27Z</time>
      </trkpt>
      <trkpt lat="4.8551490" lon="-75.4383950">
        <ele>3442.4</ele>
        <time>2021-04-17T17:19:35Z</time>
      </trkpt>
      <trkpt lat="4.8551680" lon="-75.4384970">
        <ele>3442.4</ele>
        <time>2021-04-17T17:19:40Z</time>
      </trkpt>
      <trkpt lat="4.8551440" lon="-75.4385270">
        <ele>3442.4</ele>
        <time>2021-04-17T17:19:42Z</time>
      </trkpt>
      <trkpt lat="4.8550810" lon="-75.4385830">
        <ele>3443.2</ele>
        <time>2021-04-17T17:19:46Z</time>
      </trkpt>
      <trkpt lat="4.8550660" lon="-75.4385990">
        <ele>3443.2</ele>
        <time>2021-04-17T17:19:47Z</time>
      </trkpt>
      <trkpt lat="4.8549340" lon="-75.4387680">
        <ele>3444.0</ele>
        <time>2021-04-17T17:19:57Z</time>
      </trkpt>
      <trkpt lat="4.8549270" lon="-75.4387860">
        <ele>3444.2</ele>
        <time>2021-04-17T17:19:58Z</time>
      </trkpt>
      <trkpt lat="4.8548770" lon="-75.4388990">
        <ele>3444.6</ele>
        <time>2021-04-17T17:20:04Z</time>
      </trkpt>
      <trkpt lat="4.8548280" lon="-75.4390060">
        <ele>3445.2</ele>
        <time>2021-04-17T17:20:10Z</time>
      </trkpt>
      <trkpt lat="4.8548180" lon="-75.4390370">
        <ele>3445.4</ele>
        <time>2021-04-17T17:20:12Z</time>
      </trkpt>
      <trkpt lat="4.8547920" lon="-75.4390930">
        <ele>3446.2</ele>
        <time>2021-04-17T17:20:16Z</time>
      </trkpt>
      <trkpt lat="4.8547790" lon="-75.4391370">
        <ele>3446.6</ele>
        <time>2021-04-17T17:20:19Z</time>
      </trkpt>
      <trkpt lat="4.8547670" lon="-75.4391740">
        <ele>3447.2</ele>
        <time>2021-04-17T17:20:22Z</time>
      </trkpt>
      <trkpt lat="4.8547630" lon="-75.4392150">
        <ele>3448.2</ele>
        <time>2021-04-17T17:20:25Z</time>
      </trkpt>
      <trkpt lat="4.8547590" lon="-75.4392290">
        <ele>3448.6</ele>
        <time>2021-04-17T17:20:26Z</time>
      </trkpt>
      <trkpt lat="4.8547450" lon="-75.4392660">
        <ele>3449.8</ele>
        <time>2021-04-17T17:20:29Z</time>
      </trkpt>
      <trkpt lat="4.8547330" lon="-75.4393140">
        <ele>3450.2</ele>
        <time>2021-04-17T17:20:32Z</time>
      </trkpt>
      <trkpt lat="4.8547130" lon="-75.4393620">
        <ele>3450.8</ele>
        <time>2021-04-17T17:20:35Z</time>
      </trkpt>
      <trkpt lat="4.8546820" lon="-75.4394340">
        <ele>3451.2</ele>
        <time>2021-04-17T17:20:40Z</time>
      </trkpt>
      <trkpt lat="4.8546340" lon="-75.4395210">
        <ele>3451.8</ele>
        <time>2021-04-17T17:20:46Z</time>
      </trkpt>
      <trkpt lat="4.8546250" lon="-75.4395340">
        <ele>3452.0</ele>
        <time>2021-04-17T17:20:47Z</time>
      </trkpt>
      <trkpt lat="4.8545380" lon="-75.4396080">
        <ele>3453.0</ele>
        <time>2021-04-17T17:20:54Z</time>
      </trkpt>
      <trkpt lat="4.8545080" lon="-75.4396130">
        <ele>3453.4</ele>
        <time>2021-04-17T17:20:56Z</time>
      </trkpt>
      <trkpt lat="4.8544330" lon="-75.4395830">
        <ele>3453.8</ele>
        <time>2021-04-17T17:21:01Z</time>
      </trkpt>
      <trkpt lat="4.8544220" lon="-75.4395700">
        <ele>3453.8</ele>
        <time>2021-04-17T17:21:02Z</time>
      </trkpt>
      <trkpt lat="4.8543570" lon="-75.4394910">
        <ele>3454.4</ele>
        <time>2021-04-17T17:21:09Z</time>
      </trkpt>
      <trkpt lat="4.8543240" lon="-75.4394330">
        <ele>3454.8</ele>
        <time>2021-04-17T17:21:14Z</time>
      </trkpt>
      <trkpt lat="4.8543030" lon="-75.4393810">
        <ele>3455.0</ele>
        <time>2021-04-17T17:21:18Z</time>
      </trkpt>
      <trkpt lat="4.8542920" lon="-75.4392930">
        <ele>3456.0</ele>
        <time>2021-04-17T17:21:25Z</time>
      </trkpt>
      <trkpt lat="4.8542990" lon="-75.4391820">
        <ele>3457.0</ele>
        <time>2021-04-17T17:21:34Z</time>
      </trkpt>
      <trkpt lat="4.8542990" lon="-75.4391160">
        <ele>3458.2</ele>
        <time>2021-04-17T17:21:39Z</time>
      </trkpt>
      <trkpt lat="4.8542870" lon="-75.4390530">
        <ele>3459.2</ele>
        <time>2021-04-17T17:21:44Z</time>
      </trkpt>
      <trkpt lat="4.8542700" lon="-75.4389650">
        <ele>3460.0</ele>
        <time>2021-04-17T17:21:50Z</time>
      </trkpt>
      <trkpt lat="4.8542470" lon="-75.4389270">
        <ele>3460.8</ele>
        <time>2021-04-17T17:21:53Z</time>
      </trkpt>
      <trkpt lat="4.8542310" lon="-75.4389010">
        <ele>3461.2</ele>
        <time>2021-04-17T17:21:55Z</time>
      </trkpt>
      <trkpt lat="4.8541850" lon="-75.4388490">
        <ele>3462.0</ele>
        <time>2021-04-17T17:22:00Z</time>
      </trkpt>
      <trkpt lat="4.8541460" lon="-75.4388030">
        <ele>3462.2</ele>
        <time>2021-04-17T17:22:04Z</time>
      </trkpt>
      <trkpt lat="4.8540840" lon="-75.4387410">
        <ele>3463.0</ele>
        <time>2021-04-17T17:22:10Z</time>
      </trkpt>
      <trkpt lat="4.8540640" lon="-75.4387190">
        <ele>3463.2</ele>
        <time>2021-04-17T17:22:12Z</time>
      </trkpt>
      <trkpt lat="4.8539720" lon="-75.4386260">
        <ele>3463.8</ele>
        <time>2021-04-17T17:22:20Z</time>
      </trkpt>
      <trkpt lat="4.8539460" lon="-75.4386040">
        <ele>3464.2</ele>
        <time>2021-04-17T17:22:22Z</time>
      </trkpt>
      <trkpt lat="4.8538780" lon="-75.4385440">
        <ele>3465.4</ele>
        <time>2021-04-17T17:22:27Z</time>
      </trkpt>
      <trkpt lat="4.8538640" lon="-75.4385350">
        <ele>3465.6</ele>
        <time>2021-04-17T17:22:28Z</time>
      </trkpt>
      <trkpt lat="4.8537370" lon="-75.4384730">
        <ele>3466.4</ele>
        <time>2021-04-17T17:22:36Z</time>
      </trkpt>
      <trkpt lat="4.8537190" lon="-75.4384670">
        <ele>3466.6</ele>
        <time>2021-04-17T17:22:37Z</time>
      </trkpt>
      <trkpt lat="4.8536490" lon="-75.4384280">
        <ele>3467.6</ele>
        <time>2021-04-17T17:22:42Z</time>
      </trkpt>
      <trkpt lat="4.8536240" lon="-75.4384150">
        <ele>3467.8</ele>
        <time>2021-04-17T17:22:44Z</time>
      </trkpt>
      <trkpt lat="4.8535770" lon="-75.4383860">
        <ele>3468.6</ele>
        <time>2021-04-17T17:22:48Z</time>
      </trkpt>
      <trkpt lat="4.8535200" lon="-75.4383550">
        <ele>3469.4</ele>
        <time>2021-04-17T17:22:53Z</time>
      </trkpt>
      <trkpt lat="4.8534730" lon="-75.4383370">
        <ele>3470.6</ele>
        <time>2021-04-17T17:22:57Z</time>
      </trkpt>
      <trkpt lat="4.8534460" lon="-75.4383320">
        <ele>3471.0</ele>
        <time>2021-04-17T17:22:59Z</time>
      </trkpt>
      <trkpt lat="4.8534190" lon="-75.4383240">
        <ele>3471.4</ele>
        <time>2021-04-17T17:23:01Z</time>
      </trkpt>
      <trkpt lat="4.8533920" lon="-75.4383140">
        <ele>3471.8</ele>
        <time>2021-04-17T17:23:03Z</time>
      </trkpt>
      <trkpt lat="4.8533620" lon="-75.4383070">
        <ele>3472.2</ele>
        <time>2021-04-17T17:23:05Z</time>
      </trkpt>
      <trkpt lat="4.8533340" lon="-75.4382980">
        <ele>3472.8</ele>
        <time>2021-04-17T17:23:07Z</time>
      </trkpt>
      <trkpt lat="4.8533180" lon="-75.4382950">
        <ele>3473.2</ele>
        <time>2021-04-17T17:23:08Z</time>
      </trkpt>
      <trkpt lat="4.8532720" lon="-75.4382940">
        <ele>3473.8</ele>
        <time>2021-04-17T17:23:11Z</time>
      </trkpt>
      <trkpt lat="4.8532580" lon="-75.4382980">
        <ele>3474.2</ele>
        <time>2021-04-17T17:23:12Z</time>
      </trkpt>
      <trkpt lat="4.8531920" lon="-75.4383310">
        <ele>3474.8</ele>
        <time>2021-04-17T17:23:17Z</time>
      </trkpt>
      <trkpt lat="4.8531800" lon="-75.4383380">
        <ele>3475.0</ele>
        <time>2021-04-17T17:23:18Z</time>
      </trkpt>
      <trkpt lat="4.8531310" lon="-75.4383630">
        <ele>3476.0</ele>
        <time>2021-04-17T17:23:22Z</time>
      </trkpt>
      <trkpt lat="4.8530730" lon="-75.4383840">
        <ele>3476.6</ele>
        <time>2021-04-17T17:23:26Z</time>
      </trkpt>
      <trkpt lat="4.8530400" lon="-75.4383910">
        <ele>3477.0</ele>
        <time>2021-04-17T17:23:28Z</time>
      </trkpt>
      <trkpt lat="4.8529580" lon="-75.4384160">
        <ele>3478.0</ele>
        <time>2021-04-17T17:23:33Z</time>
      </trkpt>
      <trkpt lat="4.8527540" lon="-75.4384790">
        <ele>3478.8</ele>
        <time>2021-04-17T17:23:46Z</time>
      </trkpt>
      <trkpt lat="4.8526810" lon="-75.4385080">
        <ele>3479.2</ele>
        <time>2021-04-17T17:23:51Z</time>
      </trkpt>
      <trkpt lat="4.8526280" lon="-75.4385200">
        <ele>3479.6</ele>
        <time>2021-04-17T17:23:55Z</time>
      </trkpt>
      <trkpt lat="4.8526020" lon="-75.4385230">
        <ele>3480.2</ele>
        <time>2021-04-17T17:23:57Z</time>
      </trkpt>
      <trkpt lat="4.8525310" lon="-75.4385390">
        <ele>3481.0</ele>
        <time>2021-04-17T17:24:02Z</time>
      </trkpt>
      <trkpt lat="4.8525170" lon="-75.4385420">
        <ele>3481.2</ele>
        <time>2021-04-17T17:24:03Z</time>
      </trkpt>
      <trkpt lat="4.8524040" lon="-75.4385650">
        <ele>3482.4</ele>
        <time>2021-04-17T17:24:11Z</time>
      </trkpt>
      <trkpt lat="4.8523910" lon="-75.4385700">
        <ele>3482.6</ele>
        <time>2021-04-17T17:24:12Z</time>
      </trkpt>
      <trkpt lat="4.8522970" lon="-75.4385950">
        <ele>3483.4</ele>
        <time>2021-04-17T17:24:18Z</time>
      </trkpt>
      <trkpt lat="4.8522650" lon="-75.4386020">
        <ele>3483.6</ele>
        <time>2021-04-17T17:24:20Z</time>
      </trkpt>
      <trkpt lat="4.8521460" lon="-75.4386380">
        <ele>3484.2</ele>
        <time>2021-04-17T17:24:28Z</time>
      </trkpt>
      <trkpt lat="4.8520430" lon="-75.4386830">
        <ele>3485.2</ele>
        <time>2021-04-17T17:24:35Z</time>
      </trkpt>
      <trkpt lat="4.8520300" lon="-75.4386890">
        <ele>3485.4</ele>
        <time>2021-04-17T17:24:36Z</time>
      </trkpt>
      <trkpt lat="4.8519460" lon="-75.4387150">
        <ele>3486.4</ele>
        <time>2021-04-17T17:24:42Z</time>
      </trkpt>
      <trkpt lat="4.8518860" lon="-75.4387160">
        <ele>3487.6</ele>
        <time>2021-04-17T17:24:46Z</time>
      </trkpt>
      <trkpt lat="4.8518390" lon="-75.4387100">
        <ele>3488.2</ele>
        <time>2021-04-17T17:24:49Z</time>
      </trkpt>
      <trkpt lat="4.8518080" lon="-75.4387080">
        <ele>3488.6</ele>
        <time>2021-04-17T17:24:51Z</time>
      </trkpt>
      <trkpt lat="4.8516970" lon="-75.4386960">
        <ele>3489.8</ele>
        <time>2021-04-17T17:24:58Z</time>
      </trkpt>
      <trkpt lat="4.8516810" lon="-75.4386940">
        <ele>3490.0</ele>
        <time>2021-04-17T17:24:59Z</time>
      </trkpt>
      <trkpt lat="4.8515610" lon="-75.4386790">
        <ele>3491.0</ele>
        <time>2021-04-17T17:25:06Z</time>
      </trkpt>
      <trkpt lat="4.8514610" lon="-75.4387250">
        <ele>3491.8</ele>
        <time>2021-04-17T17:25:13Z</time>
      </trkpt>
      <trkpt lat="4.8514380" lon="-75.4387450">
        <ele>3492.0</ele>
        <time>2021-04-17T17:25:15Z</time>
      </trkpt>
      <trkpt lat="4.8513830" lon="-75.4387990">
        <ele>3492.8</ele>
        <time>2021-04-17T17:25:20Z</time>
      </trkpt>
      <trkpt lat="4.8513720" lon="-75.4388110">
        <ele>3493.0</ele>
        <time>2021-04-17T17:25:21Z</time>
      </trkpt>
      <trkpt lat="4.8513080" lon="-75.4388830">
        <ele>3493.8</ele>
        <time>2021-04-17T17:25:27Z</time>
      </trkpt>
      <trkpt lat="4.8512860" lon="-75.4389040">
        <ele>3494.4</ele>
        <time>2021-04-17T17:25:29Z</time>
      </trkpt>
      <trkpt lat="4.8512490" lon="-75.4389270">
        <ele>3495.0</ele>
        <time>2021-04-17T17:25:32Z</time>
      </trkpt>
      <trkpt lat="4.8511770" lon="-75.4389350">
        <ele>3496.2</ele>
        <time>2021-04-17T17:25:37Z</time>
      </trkpt>
      <trkpt lat="4.8510300" lon="-75.4389250">
        <ele>3497.2</ele>
        <time>2021-04-17T17:25:47Z</time>
      </trkpt>
      <trkpt lat="4.8509770" lon="-75.4389160">
        <ele>3497.8</ele>
        <time>2021-04-17T17:25:51Z</time>
      </trkpt>
      <trkpt lat="4.8509250" lon="-75.4389050">
        <ele>3498.0</ele>
        <time>2021-04-17T17:25:55Z</time>
      </trkpt>
      <trkpt lat="4.8509100" lon="-75.4389020">
        <ele>3498.2</ele>
        <time>2021-04-17T17:25:56Z</time>
      </trkpt>
      <trkpt lat="4.8508120" lon="-75.4388960">
        <ele>3499.2</ele>
        <time>2021-04-17T17:26:03Z</time>
      </trkpt>
      <trkpt lat="4.8507980" lon="-75.4388930">
        <ele>3499.2</ele>
        <time>2021-04-17T17:26:04Z</time>
      </trkpt>
      <trkpt lat="4.8507020" lon="-75.4388610">
        <ele>3500.6</ele>
        <time>2021-04-17T17:26:11Z</time>
      </trkpt>
      <trkpt lat="4.8506620" lon="-75.4388480">
        <ele>3501.0</ele>
        <time>2021-04-17T17:26:14Z</time>
      </trkpt>
      <trkpt lat="4.8506190" lon="-75.4388370">
        <ele>3501.6</ele>
        <time>2021-04-17T17:26:17Z</time>
      </trkpt>
      <trkpt lat="4.8505080" lon="-75.4388120">
        <ele>3502.6</ele>
        <time>2021-04-17T17:26:24Z</time>
      </trkpt>
      <trkpt lat="4.8504440" lon="-75.4388010">
        <ele>3503.2</ele>
        <time>2021-04-17T17:26:28Z</time>
      </trkpt>
      <trkpt lat="4.8503680" lon="-75.4387840">
        <ele>3503.8</ele>
        <time>2021-04-17T17:26:33Z</time>
      </trkpt>
      <trkpt lat="4.8503050" lon="-75.4387680">
        <ele>3504.0</ele>
        <time>2021-04-17T17:26:37Z</time>
      </trkpt>
      <trkpt lat="4.8502440" lon="-75.4387480">
        <ele>3504.8</ele>
        <time>2021-04-17T17:26:41Z</time>
      </trkpt>
      <trkpt lat="4.8501940" lon="-75.4387160">
        <ele>3506.2</ele>
        <time>2021-04-17T17:26:45Z</time>
      </trkpt>
      <trkpt lat="4.8501130" lon="-75.4386750">
        <ele>3507.2</ele>
        <time>2021-04-17T17:26:51Z</time>
      </trkpt>
      <trkpt lat="4.8500870" lon="-75.4386620">
        <ele>3507.6</ele>
        <time>2021-04-17T17:26:53Z</time>
      </trkpt>
      <trkpt lat="4.8500330" lon="-75.4386310">
        <ele>3508.4</ele>
        <time>2021-04-17T17:26:57Z</time>
      </trkpt>
      <trkpt lat="4.8499520" lon="-75.4385840">
        <ele>3509.4</ele>
        <time>2021-04-17T17:27:03Z</time>
      </trkpt>
      <trkpt lat="4.8499390" lon="-75.4385760">
        <ele>3509.4</ele>
        <time>2021-04-17T17:27:04Z</time>
      </trkpt>
      <trkpt lat="4.8498150" lon="-75.4385110">
        <ele>3510.2</ele>
        <time>2021-04-17T17:27:13Z</time>
      </trkpt>
      <trkpt lat="4.8498030" lon="-75.4385040">
        <ele>3510.4</ele>
        <time>2021-04-17T17:27:14Z</time>
      </trkpt>
      <trkpt lat="4.8497020" lon="-75.4384470">
        <ele>3511.4</ele>
        <time>2021-04-17T17:27:21Z</time>
      </trkpt>
      <trkpt lat="4.8495730" lon="-75.4383860">
        <ele>3511.8</ele>
        <time>2021-04-17T17:27:29Z</time>
      </trkpt>
      <trkpt lat="4.8494990" lon="-75.4383520">
        <ele>3512.2</ele>
        <time>2021-04-17T17:27:34Z</time>
      </trkpt>
      <trkpt lat="4.8494580" lon="-75.4383300">
        <ele>3512.4</ele>
        <time>2021-04-17T17:27:37Z</time>
      </trkpt>
      <trkpt lat="4.8494040" lon="-75.4383080">
        <ele>3513.2</ele>
        <time>2021-04-17T17:27:41Z</time>
      </trkpt>
      <trkpt lat="4.8493910" lon="-75.4383010">
        <ele>3513.4</ele>
        <time>2021-04-17T17:27:42Z</time>
      </trkpt>
      <trkpt lat="4.8493240" lon="-75.4382730">
        <ele>3514.6</ele>
        <time>2021-04-17T17:27:47Z</time>
      </trkpt>
      <trkpt lat="4.8492380" lon="-75.4382370">
        <ele>3515.8</ele>
        <time>2021-04-17T17:27:53Z</time>
      </trkpt>
      <trkpt lat="4.8491960" lon="-75.4382140">
        <ele>3516.2</ele>
        <time>2021-04-17T17:27:56Z</time>
      </trkpt>
      <trkpt lat="4.8491540" lon="-75.4381890">
        <ele>3516.6</ele>
        <time>2021-04-17T17:27:59Z</time>
      </trkpt>
      <trkpt lat="4.8490740" lon="-75.4381350">
        <ele>3517.6</ele>
        <time>2021-04-17T17:28:05Z</time>
      </trkpt>
      <trkpt lat="4.8490610" lon="-75.4381250">
        <ele>3517.8</ele>
        <time>2021-04-17T17:28:06Z</time>
      </trkpt>
      <trkpt lat="4.8490090" lon="-75.4380800">
        <ele>3518.6</ele>
        <time>2021-04-17T17:28:10Z</time>
      </trkpt>
      <trkpt lat="4.8489540" lon="-75.4380310">
        <ele>3519.2</ele>
        <time>2021-04-17T17:28:14Z</time>
      </trkpt>
      <trkpt lat="4.8489000" lon="-75.4379780">
        <ele>3519.6</ele>
        <time>2021-04-17T17:28:18Z</time>
      </trkpt>
      <trkpt lat="4.8488480" lon="-75.4379230">
        <ele>3520.0</ele>
        <time>2021-04-17T17:28:22Z</time>
      </trkpt>
      <trkpt lat="4.8487660" lon="-75.4378440">
        <ele>3520.8</ele>
        <time>2021-04-17T17:28:28Z</time>
      </trkpt>
      <trkpt lat="4.8487370" lon="-75.4378160">
        <ele>3521.0</ele>
        <time>2021-04-17T17:28:30Z</time>
      </trkpt>
      <trkpt lat="4.8486180" lon="-75.4377090">
        <ele>3521.8</ele>
        <time>2021-04-17T17:28:38Z</time>
      </trkpt>
      <trkpt lat="4.8485880" lon="-75.4376850">
        <ele>3522.2</ele>
        <time>2021-04-17T17:28:40Z</time>
      </trkpt>
      <trkpt lat="4.8485080" lon="-75.4376140">
        <ele>3523.0</ele>
        <time>2021-04-17T17:28:46Z</time>
      </trkpt>
      <trkpt lat="4.8484770" lon="-75.4375750">
        <ele>3523.4</ele>
        <time>2021-04-17T17:28:49Z</time>
      </trkpt>
      <trkpt lat="4.8484210" lon="-75.4375070">
        <ele>3524.0</ele>
        <time>2021-04-17T17:28:54Z</time>
      </trkpt>
      <trkpt lat="4.8484150" lon="-75.4374900">
        <ele>3524.2</ele>
        <time>2021-04-17T17:28:55Z</time>
      </trkpt>
      <trkpt lat="4.8483640" lon="-75.4373950">
        <ele>3525.0</ele>
        <time>2021-04-17T17:29:02Z</time>
      </trkpt>
      <trkpt lat="4.8483570" lon="-75.4373830">
        <ele>3525.0</ele>
        <time>2021-04-17T17:29:03Z</time>
      </trkpt>
      <trkpt lat="4.8483410" lon="-75.4373600">
        <ele>3525.0</ele>
        <time>2021-04-17T17:29:05Z</time>
      </trkpt>
      <trkpt lat="4.8483100" lon="-75.4373130">
        <ele>3525.4</ele>
        <time>2021-04-17T17:29:09Z</time>
      </trkpt>
      <trkpt lat="4.8482890" lon="-75.4372570">
        <ele>3526.0</ele>
        <time>2021-04-17T17:29:13Z</time>
      </trkpt>
      <trkpt lat="4.8482410" lon="-75.4371600">
        <ele>3527.0</ele>
        <time>2021-04-17T17:29:20Z</time>
      </trkpt>
      <trkpt lat="4.8482340" lon="-75.4371470">
        <ele>3527.0</ele>
        <time>2021-04-17T17:29:21Z</time>
      </trkpt>
      <trkpt lat="4.8481900" lon="-75.4370710">
        <ele>3528.2</ele>
        <time>2021-04-17T17:29:28Z</time>
      </trkpt>
      <trkpt lat="4.8481830" lon="-75.4370600">
        <ele>3528.4</ele>
        <time>2021-04-17T17:29:29Z</time>
      </trkpt>
      <trkpt lat="4.8481470" lon="-75.4369910">
        <ele>3529.2</ele>
        <time>2021-04-17T17:29:35Z</time>
      </trkpt>
      <trkpt lat="4.8481290" lon="-75.4369690">
        <ele>3529.6</ele>
        <time>2021-04-17T17:29:37Z</time>
      </trkpt>
      <trkpt lat="4.8481030" lon="-75.4369080">
        <ele>3530.4</ele>
        <time>2021-04-17T17:29:42Z</time>
      </trkpt>
      <trkpt lat="4.8480890" lon="-75.4368710">
        <ele>3531.0</ele>
        <time>2021-04-17T17:29:45Z</time>
      </trkpt>
      <trkpt lat="4.8480830" lon="-75.4368480">
        <ele>3531.4</ele>
        <time>2021-04-17T17:29:47Z</time>
      </trkpt>
      <trkpt lat="4.8480710" lon="-75.4368030">
        <ele>3532.2</ele>
        <time>2021-04-17T17:29:51Z</time>
      </trkpt>
      <trkpt lat="4.8480660" lon="-75.4367930">
        <ele>3532.4</ele>
        <time>2021-04-17T17:29:52Z</time>
      </trkpt>
      <trkpt lat="4.8480240" lon="-75.4367570">
        <ele>3533.4</ele>
        <time>2021-04-17T17:29:57Z</time>
      </trkpt>
      <trkpt lat="4.8480140" lon="-75.4367530">
        <ele>3533.4</ele>
        <time>2021-04-17T17:29:58Z</time>
      </trkpt>
      <trkpt lat="4.8479590" lon="-75.4367170">
        <ele>3534.4</ele>
        <time>2021-04-17T17:30:04Z</time>
      </trkpt>
      <trkpt lat="4.8479520" lon="-75.4367090">
        <ele>3534.6</ele>
        <time>2021-04-17T17:30:05Z</time>
      </trkpt>
      <trkpt lat="4.8479480" lon="-75.4367010">
        <ele>3534.6</ele>
        <time>2021-04-17T17:30:06Z</time>
      </trkpt>
      <trkpt lat="4.8479360" lon="-75.4366630">
        <ele>3535.4</ele>
        <time>2021-04-17T17:30:10Z</time>
      </trkpt>
      <trkpt lat="4.8479360" lon="-75.4366510">
        <ele>3535.6</ele>
        <time>2021-04-17T17:30:11Z</time>
      </trkpt>
      <trkpt lat="4.8479350" lon="-75.4365940">
        <ele>3536.4</ele>
        <time>2021-04-17T17:30:16Z</time>
      </trkpt>
      <trkpt lat="4.8479250" lon="-75.4365660">
        <ele>3536.8</ele>
        <time>2021-04-17T17:30:19Z</time>
      </trkpt>
      <trkpt lat="4.8479100" lon="-75.4365220">
        <ele>3537.4</ele>
        <time>2021-04-17T17:30:23Z</time>
      </trkpt>
      <trkpt lat="4.8478960" lon="-75.4364890">
        <ele>3538.0</ele>
        <time>2021-04-17T17:30:26Z</time>
      </trkpt>
      <trkpt lat="4.8478760" lon="-75.4364580">
        <ele>3538.6</ele>
        <time>2021-04-17T17:30:29Z</time>
      </trkpt>
      <trkpt lat="4.8478490" lon="-75.4364120">
        <ele>3538.6</ele>
        <time>2021-04-17T17:30:33Z</time>
      </trkpt>
      <trkpt lat="4.8478270" lon="-75.4363830">
        <ele>3538.8</ele>
        <time>2021-04-17T17:30:36Z</time>
      </trkpt>
      <trkpt lat="4.8478070" lon="-75.4363650">
        <ele>3539.2</ele>
        <time>2021-04-17T17:30:39Z</time>
      </trkpt>
      <trkpt lat="4.8477990" lon="-75.4363590">
        <ele>3539.4</ele>
        <time>2021-04-17T17:30:40Z</time>
      </trkpt>
      <trkpt lat="4.8477700" lon="-75.4363340">
        <ele>3539.8</ele>
        <time>2021-04-17T17:30:43Z</time>
      </trkpt>
      <trkpt lat="4.8477460" lon="-75.4363170">
        <ele>3540.4</ele>
        <time>2021-04-17T17:30:45Z</time>
      </trkpt>
      <trkpt lat="4.8477240" lon="-75.4362990">
        <ele>3540.8</ele>
        <time>2021-04-17T17:30:47Z</time>
      </trkpt>
      <trkpt lat="4.8476610" lon="-75.4362420">
        <ele>3541.4</ele>
        <time>2021-04-17T17:30:53Z</time>
      </trkpt>
      <trkpt lat="4.8476000" lon="-75.4362180">
        <ele>3542.6</ele>
        <time>2021-04-17T17:30:58Z</time>
      </trkpt>
      <trkpt lat="4.8475740" lon="-75.4362160">
        <ele>3542.6</ele>
        <time>2021-04-17T17:31:00Z</time>
      </trkpt>
      <trkpt lat="4.8474950" lon="-75.4361950">
        <ele>3543.4</ele>
        <time>2021-04-17T17:31:06Z</time>
      </trkpt>
      <trkpt lat="4.8474840" lon="-75.4361910">
        <ele>3543.6</ele>
        <time>2021-04-17T17:31:07Z</time>
      </trkpt>
      <trkpt lat="4.8474150" lon="-75.4361590">
        <ele>3544.6</ele>
        <time>2021-04-17T17:31:13Z</time>
      </trkpt>
      <trkpt lat="4.8473810" lon="-75.4361400">
        <ele>3545.0</ele>
        <time>2021-04-17T17:31:16Z</time>
      </trkpt>
      <trkpt lat="4.8473300" lon="-75.4361210">
        <ele>3545.6</ele>
        <time>2021-04-17T17:31:20Z</time>
      </trkpt>
      <trkpt lat="4.8472950" lon="-75.4360950">
        <ele>3546.4</ele>
        <time>2021-04-17T17:31:24Z</time>
      </trkpt>
      <trkpt lat="4.8472710" lon="-75.4360840">
        <ele>3546.6</ele>
        <time>2021-04-17T17:31:26Z</time>
      </trkpt>
      <trkpt lat="4.8471990" lon="-75.4360460">
        <ele>3547.4</ele>
        <time>2021-04-17T17:31:32Z</time>
      </trkpt>
      <trkpt lat="4.8471850" lon="-75.4360370">
        <ele>3547.6</ele>
        <time>2021-04-17T17:31:33Z</time>
      </trkpt>
      <trkpt lat="4.8470980" lon="-75.4359780">
        <ele>3548.4</ele>
        <time>2021-04-17T17:31:40Z</time>
      </trkpt>
      <trkpt lat="4.8470720" lon="-75.4359620">
        <ele>3548.8</ele>
        <time>2021-04-17T17:31:42Z</time>
      </trkpt>
      <trkpt lat="4.8469680" lon="-75.4358990">
        <ele>3549.6</ele>
        <time>2021-04-17T17:31:49Z</time>
      </trkpt>
      <trkpt lat="4.8469220" lon="-75.4358660">
        <ele>3550.0</ele>
        <time>2021-04-17T17:31:52Z</time>
      </trkpt>
      <trkpt lat="4.8467940" lon="-75.4357850">
        <ele>3550.6</ele>
        <time>2021-04-17T17:32:00Z</time>
      </trkpt>
      <trkpt lat="4.8467680" lon="-75.4357630">
        <ele>3550.8</ele>
        <time>2021-04-17T17:32:02Z</time>
      </trkpt>
      <trkpt lat="4.8466630" lon="-75.4356990">
        <ele>3551.2</ele>
        <time>2021-04-17T17:32:09Z</time>
      </trkpt>
      <trkpt lat="4.8465800" lon="-75.4356410">
        <ele>3551.6</ele>
        <time>2021-04-17T17:32:14Z</time>
      </trkpt>
      <trkpt lat="4.8465070" lon="-75.4355800">
        <ele>3551.8</ele>
        <time>2021-04-17T17:32:18Z</time>
      </trkpt>
      <trkpt lat="4.8463830" lon="-75.4354730">
        <ele>3552.6</ele>
        <time>2021-04-17T17:32:25Z</time>
      </trkpt>
      <trkpt lat="4.8463640" lon="-75.4354560">
        <ele>3552.6</ele>
        <time>2021-04-17T17:32:26Z</time>
      </trkpt>
      <trkpt lat="4.8462090" lon="-75.4353010">
        <ele>3553.2</ele>
        <time>2021-04-17T17:32:34Z</time>
      </trkpt>
      <trkpt lat="4.8460520" lon="-75.4351340">
        <ele>3553.6</ele>
        <time>2021-04-17T17:32:42Z</time>
      </trkpt>
      <trkpt lat="4.8460090" lon="-75.4350900">
        <ele>3553.8</ele>
        <time>2021-04-17T17:32:44Z</time>
      </trkpt>
      <trkpt lat="4.8458430" lon="-75.4348990">
        <ele>3554.2</ele>
        <time>2021-04-17T17:32:52Z</time>
      </trkpt>
      <trkpt lat="4.8457490" lon="-75.4347860">
        <ele>3554.6</ele>
        <time>2021-04-17T17:32:57Z</time>
      </trkpt>
      <trkpt lat="4.8457160" lon="-75.4347430">
        <ele>3554.8</ele>
        <time>2021-04-17T17:32:59Z</time>
      </trkpt>
      <trkpt lat="4.8455950" lon="-75.4345790">
        <ele>3555.2</ele>
        <time>2021-04-17T17:33:06Z</time>
      </trkpt>
      <trkpt lat="4.8454950" lon="-75.4344610">
        <ele>3555.6</ele>
        <time>2021-04-17T17:33:12Z</time>
      </trkpt>
      <trkpt lat="4.8454560" lon="-75.4344210">
        <ele>3556.0</ele>
        <time>2021-04-17T17:33:14Z</time>
      </trkpt>
      <trkpt lat="4.8452920" lon="-75.4342210">
        <ele>3556.4</ele>
        <time>2021-04-17T17:33:23Z</time>
      </trkpt>
      <trkpt lat="4.8452180" lon="-75.4341250">
        <ele>3556.4</ele>
        <time>2021-04-17T17:33:27Z</time>
      </trkpt>
      <trkpt lat="4.8451070" lon="-75.4339720">
        <ele>3556.6</ele>
        <time>2021-04-17T17:33:33Z</time>
      </trkpt>
      <trkpt lat="4.8449230" lon="-75.4337390">
        <ele>3557.2</ele>
        <time>2021-04-17T17:33:43Z</time>
      </trkpt>
      <trkpt lat="4.8448910" lon="-75.4336970">
        <ele>3557.4</ele>
        <time>2021-04-17T17:33:45Z</time>
      </trkpt>
      <trkpt lat="4.8448210" lon="-75.4336060">
        <ele>3558.0</ele>
        <time>2021-04-17T17:33:50Z</time>
      </trkpt>
      <trkpt lat="4.8447490" lon="-75.4335150">
        <ele>3558.2</ele>
        <time>2021-04-17T17:33:55Z</time>
      </trkpt>
      <trkpt lat="4.8446980" lon="-75.4334580">
        <ele>3558.8</ele>
        <time>2021-04-17T17:33:59Z</time>
      </trkpt>
      <trkpt lat="4.8446650" lon="-75.4334150">
        <ele>3559.4</ele>
        <time>2021-04-17T17:34:02Z</time>
      </trkpt>
      <trkpt lat="4.8445970" lon="-75.4333150">
        <ele>3560.0</ele>
        <time>2021-04-17T17:34:09Z</time>
      </trkpt>
      <trkpt lat="4.8445800" lon="-75.4332930">
        <ele>3560.4</ele>
        <time>2021-04-17T17:34:11Z</time>
      </trkpt>
      <trkpt lat="4.8445250" lon="-75.4332140">
        <ele>3561.2</ele>
        <time>2021-04-17T17:34:17Z</time>
      </trkpt>
      <trkpt lat="4.8445140" lon="-75.4332020">
        <ele>3561.2</ele>
        <time>2021-04-17T17:34:18Z</time>
      </trkpt>
      <trkpt lat="4.8444620" lon="-75.4331440">
        <ele>3562.6</ele>
        <time>2021-04-17T17:34:23Z</time>
      </trkpt>
      <trkpt lat="4.8444350" lon="-75.4331310">
        <ele>3563.0</ele>
        <time>2021-04-17T17:34:25Z</time>
      </trkpt>
      <trkpt lat="4.8444060" lon="-75.4331230">
        <ele>3563.4</ele>
        <time>2021-04-17T17:34:27Z</time>
      </trkpt>
      <trkpt lat="4.8443410" lon="-75.4331130">
        <ele>3564.4</ele>
        <time>2021-04-17T17:34:31Z</time>
      </trkpt>
      <trkpt lat="4.8443240" lon="-75.4331150">
        <ele>3564.6</ele>
        <time>2021-04-17T17:34:32Z</time>
      </trkpt>
      <trkpt lat="4.8442690" lon="-75.4331340">
        <ele>3565.4</ele>
        <time>2021-04-17T17:34:36Z</time>
      </trkpt>
      <trkpt lat="4.8442230" lon="-75.4331670">
        <ele>3566.2</ele>
        <time>2021-04-17T17:34:40Z</time>
      </trkpt>
      <trkpt lat="4.8442050" lon="-75.4331890">
        <ele>3566.6</ele>
        <time>2021-04-17T17:34:42Z</time>
      </trkpt>
      <trkpt lat="4.8441600" lon="-75.4332530">
        <ele>3566.6</ele>
        <time>2021-04-17T17:34:48Z</time>
      </trkpt>
      <trkpt lat="4.8441240" lon="-75.4333360">
        <ele>3567.4</ele>
        <time>2021-04-17T17:34:55Z</time>
      </trkpt>
      <trkpt lat="4.8441070" lon="-75.4333680">
        <ele>3568.0</ele>
        <time>2021-04-17T17:34:58Z</time>
      </trkpt>
      <trkpt lat="4.8440950" lon="-75.4334400">
        <ele>3568.4</ele>
        <time>2021-04-17T17:35:03Z</time>
      </trkpt>
      <trkpt lat="4.8440930" lon="-75.4334850">
        <ele>3568.8</ele>
        <time>2021-04-17T17:35:06Z</time>
      </trkpt>
      <trkpt lat="4.8440840" lon="-75.4335610">
        <ele>3569.2</ele>
        <time>2021-04-17T17:35:11Z</time>
      </trkpt>
      <trkpt lat="4.8440880" lon="-75.4336120">
        <ele>3569.6</ele>
        <time>2021-04-17T17:35:14Z</time>
      </trkpt>
      <trkpt lat="4.8441060" lon="-75.4337340">
        <ele>3570.2</ele>
        <time>2021-04-17T17:35:21Z</time>
      </trkpt>
      <trkpt lat="4.8441250" lon="-75.4337970">
        <ele>3570.4</ele>
        <time>2021-04-17T17:35:25Z</time>
      </trkpt>
      <trkpt lat="4.8441480" lon="-75.4338370">
        <ele>3570.8</ele>
        <time>2021-04-17T17:35:28Z</time>
      </trkpt>
      <trkpt lat="4.8441800" lon="-75.4339080">
        <ele>3571.4</ele>
        <time>2021-04-17T17:35:33Z</time>
      </trkpt>
      <trkpt lat="4.8442050" lon="-75.4339510">
        <ele>3571.6</ele>
        <time>2021-04-17T17:35:36Z</time>
      </trkpt>
      <trkpt lat="4.8442710" lon="-75.4340240">
        <ele>3572.6</ele>
        <time>2021-04-17T17:35:42Z</time>
      </trkpt>
      <trkpt lat="4.8442810" lon="-75.4340360">
        <ele>3572.8</ele>
        <time>2021-04-17T17:35:43Z</time>
      </trkpt>
      <trkpt lat="4.8443230" lon="-75.4340820">
        <ele>3573.6</ele>
        <time>2021-04-17T17:35:47Z</time>
      </trkpt>
      <trkpt lat="4.8443750" lon="-75.4341350">
        <ele>3574.4</ele>
        <time>2021-04-17T17:35:52Z</time>
      </trkpt>
      <trkpt lat="4.8443910" lon="-75.4341570">
        <ele>3574.6</ele>
        <time>2021-04-17T17:35:54Z</time>
      </trkpt>
      <trkpt lat="4.8444520" lon="-75.4342210">
        <ele>3575.6</ele>
        <time>2021-04-17T17:36:00Z</time>
      </trkpt>
      <trkpt lat="4.8444730" lon="-75.4342440">
        <ele>3576.0</ele>
        <time>2021-04-17T17:36:02Z</time>
      </trkpt>
      <trkpt lat="4.8445050" lon="-75.4342840">
        <ele>3576.6</ele>
        <time>2021-04-17T17:36:05Z</time>
      </trkpt>
      <trkpt lat="4.8445110" lon="-75.4343010">
        <ele>3576.8</ele>
        <time>2021-04-17T17:36:06Z</time>
      </trkpt>
      <trkpt lat="4.8445170" lon="-75.4343190">
        <ele>3577.0</ele>
        <time>2021-04-17T17:36:07Z</time>
      </trkpt>
      <trkpt lat="4.8445360" lon="-75.4343880">
        <ele>3578.0</ele>
        <time>2021-04-17T17:36:11Z</time>
      </trkpt>
      <trkpt lat="4.8445390" lon="-75.4344240">
        <ele>3578.4</ele>
        <time>2021-04-17T17:36:13Z</time>
      </trkpt>
      <trkpt lat="4.8445140" lon="-75.4345040">
        <ele>3579.2</ele>
        <time>2021-04-17T17:36:18Z</time>
      </trkpt>
      <trkpt lat="4.8444900" lon="-75.4345310">
        <ele>3579.4</ele>
        <time>2021-04-17T17:36:20Z</time>
      </trkpt>
      <trkpt lat="4.8443930" lon="-75.4345480">
        <ele>3579.8</ele>
        <time>2021-04-17T17:36:25Z</time>
      </trkpt>
      <trkpt lat="4.8442040" lon="-75.4344910">
        <ele>3579.8</ele>
        <time>2021-04-17T17:36:34Z</time>
      </trkpt>
      <trkpt lat="4.8441080" lon="-75.4344440">
        <ele>3580.0</ele>
        <time>2021-04-17T17:36:39Z</time>
      </trkpt>
      <trkpt lat="4.8440720" lon="-75.4344310">
        <ele>3580.2</ele>
        <time>2021-04-17T17:36:41Z</time>
      </trkpt>
      <trkpt lat="4.8439370" lon="-75.4343750">
        <ele>3581.0</ele>
        <time>2021-04-17T17:36:49Z</time>
      </trkpt>
      <trkpt lat="4.8438720" lon="-75.4343510">
        <ele>3581.4</ele>
        <time>2021-04-17T17:36:53Z</time>
      </trkpt>
      <trkpt lat="4.8438420" lon="-75.4343320">
        <ele>3581.8</ele>
        <time>2021-04-17T17:36:55Z</time>
      </trkpt>
      <trkpt lat="4.8438100" lon="-75.4343130">
        <ele>3581.8</ele>
        <time>2021-04-17T17:36:57Z</time>
      </trkpt>
      <trkpt lat="4.8436770" lon="-75.4342380">
        <ele>3582.8</ele>
        <time>2021-04-17T17:37:05Z</time>
      </trkpt>
      <trkpt lat="4.8436470" lon="-75.4342150">
        <ele>3583.0</ele>
        <time>2021-04-17T17:37:07Z</time>
      </trkpt>
      <trkpt lat="4.8435580" lon="-75.4341400">
        <ele>3584.2</ele>
        <time>2021-04-17T17:37:13Z</time>
      </trkpt>
      <trkpt lat="4.8434800" lon="-75.4340870">
        <ele>3585.2</ele>
        <time>2021-04-17T17:37:18Z</time>
      </trkpt>
      <trkpt lat="4.8434220" lon="-75.4340490">
        <ele>3585.8</ele>
        <time>2021-04-17T17:37:22Z</time>
      </trkpt>
      <trkpt lat="4.8433660" lon="-75.4340120">
        <ele>3586.2</ele>
        <time>2021-04-17T17:37:26Z</time>
      </trkpt>
      <trkpt lat="4.8432760" lon="-75.4339680">
        <ele>3587.4</ele>
        <time>2021-04-17T17:37:32Z</time>
      </trkpt>
      <trkpt lat="4.8431840" lon="-75.4339280">
        <ele>3588.4</ele>
        <time>2021-04-17T17:37:38Z</time>
      </trkpt>
      <trkpt lat="4.8431550" lon="-75.4339100">
        <ele>3588.8</ele>
        <time>2021-04-17T17:37:40Z</time>
      </trkpt>
      <trkpt lat="4.8430360" lon="-75.4338340">
        <ele>3589.4</ele>
        <time>2021-04-17T17:37:48Z</time>
      </trkpt>
      <trkpt lat="4.8429450" lon="-75.4337670">
        <ele>3590.4</ele>
        <time>2021-04-17T17:37:55Z</time>
      </trkpt>
      <trkpt lat="4.8429090" lon="-75.4337270">
        <ele>3590.8</ele>
        <time>2021-04-17T17:37:58Z</time>
      </trkpt>
      <trkpt lat="4.8428580" lon="-75.4336480">
        <ele>3591.6</ele>
        <time>2021-04-17T17:38:03Z</time>
      </trkpt>
      <trkpt lat="4.8428270" lon="-75.4335820">
        <ele>3592.6</ele>
        <time>2021-04-17T17:38:07Z</time>
      </trkpt>
      <trkpt lat="4.8428110" lon="-75.4334720">
        <ele>3594.0</ele>
        <time>2021-04-17T17:38:13Z</time>
      </trkpt>
      <trkpt lat="4.8428130" lon="-75.4334530">
        <ele>3594.0</ele>
        <time>2021-04-17T17:38:14Z</time>
      </trkpt>
      <trkpt lat="4.8428150" lon="-75.4334340">
        <ele>3594.2</ele>
        <time>2021-04-17T17:38:15Z</time>
      </trkpt>
      <trkpt lat="4.8428710" lon="-75.4333260">
        <ele>3594.8</ele>
        <time>2021-04-17T17:38:22Z</time>
      </trkpt>
      <trkpt lat="4.8429750" lon="-75.4332400">
        <ele>3595.8</ele>
        <time>2021-04-17T17:38:30Z</time>
      </trkpt>
      <trkpt lat="4.8429890" lon="-75.4332290">
        <ele>3595.8</ele>
        <time>2021-04-17T17:38:31Z</time>
      </trkpt>
      <trkpt lat="4.8430790" lon="-75.4331260">
        <ele>3596.8</ele>
        <time>2021-04-17T17:38:39Z</time>
      </trkpt>
      <trkpt lat="4.8430670" lon="-75.4330230">
        <ele>3597.6</ele>
        <time>2021-04-17T17:38:45Z</time>
      </trkpt>
      <trkpt lat="4.8430590" lon="-75.4330120">
        <ele>3597.8</ele>
        <time>2021-04-17T17:38:46Z</time>
      </trkpt>
      <trkpt lat="4.8430470" lon="-75.4330040">
        <ele>3597.8</ele>
        <time>2021-04-17T17:38:47Z</time>
      </trkpt>
      <trkpt lat="4.8429900" lon="-75.4329830">
        <ele>3598.4</ele>
        <time>2021-04-17T17:38:51Z</time>
      </trkpt>
      <trkpt lat="4.8429780" lon="-75.4329780">
        <ele>3598.4</ele>
        <time>2021-04-17T17:38:52Z</time>
      </trkpt>
      <trkpt lat="4.8429540" lon="-75.4329670">
        <ele>3599.0</ele>
        <time>2021-04-17T17:38:54Z</time>
      </trkpt>
      <trkpt lat="4.8428970" lon="-75.4329440">
        <ele>3599.8</ele>
        <time>2021-04-17T17:38:59Z</time>
      </trkpt>
      <trkpt lat="4.8428730" lon="-75.4329280">
        <ele>3600.2</ele>
        <time>2021-04-17T17:39:01Z</time>
      </trkpt>
      <trkpt lat="4.8428060" lon="-75.4328990">
        <ele>3601.2</ele>
        <time>2021-04-17T17:39:06Z</time>
      </trkpt>
      <trkpt lat="4.8427920" lon="-75.4328950">
        <ele>3601.4</ele>
        <time>2021-04-17T17:39:07Z</time>
      </trkpt>
      <trkpt lat="4.8426750" lon="-75.4328610">
        <ele>3602.4</ele>
        <time>2021-04-17T17:39:15Z</time>
      </trkpt>
      <trkpt lat="4.8426440" lon="-75.4328560">
        <ele>3602.6</ele>
        <time>2021-04-17T17:39:17Z</time>
      </trkpt>
      <trkpt lat="4.8425900" lon="-75.4328490">
        <ele>3603.2</ele>
        <time>2021-04-17T17:39:21Z</time>
      </trkpt>
      <trkpt lat="4.8425370" lon="-75.4328440">
        <ele>3603.8</ele>
        <time>2021-04-17T17:39:25Z</time>
      </trkpt>
      <trkpt lat="4.8424950" lon="-75.4328380">
        <ele>3604.4</ele>
        <time>2021-04-17T17:39:28Z</time>
      </trkpt>
      <trkpt lat="4.8424300" lon="-75.4328470">
        <ele>3605.4</ele>
        <time>2021-04-17T17:39:33Z</time>
      </trkpt>
      <trkpt lat="4.8423340" lon="-75.4328330">
        <ele>3606.2</ele>
        <time>2021-04-17T17:39:40Z</time>
      </trkpt>
      <trkpt lat="4.8423100" lon="-75.4328260">
        <ele>3606.4</ele>
        <time>2021-04-17T17:39:42Z</time>
      </trkpt>
      <trkpt lat="4.8422300" lon="-75.4328100">
        <ele>3607.4</ele>
        <time>2021-04-17T17:39:48Z</time>
      </trkpt>
      <trkpt lat="4.8421900" lon="-75.4328000">
        <ele>3608.0</ele>
        <time>2021-04-17T17:39:51Z</time>
      </trkpt>
      <trkpt lat="4.8421630" lon="-75.4327970">
        <ele>3608.6</ele>
        <time>2021-04-17T17:39:53Z</time>
      </trkpt>
      <trkpt lat="4.8420940" lon="-75.4327850">
        <ele>3609.4</ele>
        <time>2021-04-17T17:39:58Z</time>
      </trkpt>
      <trkpt lat="4.8420640" lon="-75.4327790">
        <ele>3609.4</ele>
        <time>2021-04-17T17:40:00Z</time>
      </trkpt>
      <trkpt lat="4.8419440" lon="-75.4327710">
        <ele>3610.6</ele>
        <time>2021-04-17T17:40:07Z</time>
      </trkpt>
      <trkpt lat="4.8418040" lon="-75.4327810">
        <ele>3611.8</ele>
        <time>2021-04-17T17:40:15Z</time>
      </trkpt>
      <trkpt lat="4.8416900" lon="-75.4327760">
        <ele>3612.8</ele>
        <time>2021-04-17T17:40:21Z</time>
      </trkpt>
      <trkpt lat="4.8415820" lon="-75.4327830">
        <ele>3613.8</ele>
        <time>2021-04-17T17:40:27Z</time>
      </trkpt>
      <trkpt lat="4.8415350" lon="-75.4327800">
        <ele>3614.2</ele>
        <time>2021-04-17T17:40:30Z</time>
      </trkpt>
      <trkpt lat="4.8414690" lon="-75.4327710">
        <ele>3614.8</ele>
        <time>2021-04-17T17:40:34Z</time>
      </trkpt>
      <trkpt lat="4.8414220" lon="-75.4327640">
        <ele>3615.6</ele>
        <time>2021-04-17T17:40:37Z</time>
      </trkpt>
      <trkpt lat="4.8414060" lon="-75.4327600">
        <ele>3615.8</ele>
        <time>2021-04-17T17:40:38Z</time>
      </trkpt>
      <trkpt lat="4.8413730" lon="-75.4327540">
        <ele>3616.6</ele>
        <time>2021-04-17T17:40:40Z</time>
      </trkpt>
      <trkpt lat="4.8413360" lon="-75.4327520">
        <ele>3617.0</ele>
        <time>2021-04-17T17:40:42Z</time>
      </trkpt>
      <trkpt lat="4.8412600" lon="-75.4327660">
        <ele>3617.6</ele>
        <time>2021-04-17T17:40:47Z</time>
      </trkpt>
      <trkpt lat="4.8411890" lon="-75.4328070">
        <ele>3618.2</ele>
        <time>2021-04-17T17:40:53Z</time>
      </trkpt>
      <trkpt lat="4.8411650" lon="-75.4328240">
        <ele>3618.2</ele>
        <time>2021-04-17T17:40:55Z</time>
      </trkpt>
      <trkpt lat="4.8410740" lon="-75.4328800">
        <ele>3619.0</ele>
        <time>2021-04-17T17:41:02Z</time>
      </trkpt>
      <trkpt lat="4.8410590" lon="-75.4328850">
        <ele>3619.2</ele>
        <time>2021-04-17T17:41:03Z</time>
      </trkpt>
      <trkpt lat="4.8409760" lon="-75.4329280">
        <ele>3619.8</ele>
        <time>2021-04-17T17:41:09Z</time>
      </trkpt>
      <trkpt lat="4.8409610" lon="-75.4329350">
        <ele>3620.0</ele>
        <time>2021-04-17T17:41:10Z</time>
      </trkpt>
      <trkpt lat="4.8408570" lon="-75.4329760">
        <ele>3621.2</ele>
        <time>2021-04-17T17:41:17Z</time>
      </trkpt>
      <trkpt lat="4.8408400" lon="-75.4329800">
        <ele>3621.2</ele>
        <time>2021-04-17T17:41:18Z</time>
      </trkpt>
      <trkpt lat="4.8407250" lon="-75.4330190">
        <ele>3621.8</ele>
        <time>2021-04-17T17:41:25Z</time>
      </trkpt>
      <trkpt lat="4.8407080" lon="-75.4330220">
        <ele>3622.0</ele>
        <time>2021-04-17T17:41:26Z</time>
      </trkpt>
      <trkpt lat="4.8406260" lon="-75.4330330">
        <ele>3623.0</ele>
        <time>2021-04-17T17:41:31Z</time>
      </trkpt>
      <trkpt lat="4.8405580" lon="-75.4330390">
        <ele>3623.6</ele>
        <time>2021-04-17T17:41:35Z</time>
      </trkpt>
      <trkpt lat="4.8405110" lon="-75.4330520">
        <ele>3624.2</ele>
        <time>2021-04-17T17:41:38Z</time>
      </trkpt>
      <trkpt lat="4.8404210" lon="-75.4330750">
        <ele>3625.2</ele>
        <time>2021-04-17T17:41:44Z</time>
      </trkpt>
      <trkpt lat="4.8403450" lon="-75.4330970">
        <ele>3626.6</ele>
        <time>2021-04-17T17:41:49Z</time>
      </trkpt>
      <trkpt lat="4.8403010" lon="-75.4331020">
        <ele>3627.2</ele>
        <time>2021-04-17T17:41:52Z</time>
      </trkpt>
      <trkpt lat="4.8402620" lon="-75.4330990">
        <ele>3627.6</ele>
        <time>2021-04-17T17:41:55Z</time>
      </trkpt>
      <trkpt lat="4.8401820" lon="-75.4330790">
        <ele>3628.4</ele>
        <time>2021-04-17T17:42:01Z</time>
      </trkpt>
      <trkpt lat="4.8401530" lon="-75.4330700">
        <ele>3628.8</ele>
        <time>2021-04-17T17:42:03Z</time>
      </trkpt>
      <trkpt lat="4.8400490" lon="-75.4330220">
        <ele>3629.2</ele>
        <time>2021-04-17T17:42:10Z</time>
      </trkpt>
      <trkpt lat="4.8400090" lon="-75.4329950">
        <ele>3629.6</ele>
        <time>2021-04-17T17:42:13Z</time>
      </trkpt>
      <trkpt lat="4.8399510" lon="-75.4329340">
        <ele>3630.4</ele>
        <time>2021-04-17T17:42:19Z</time>
      </trkpt>
      <trkpt lat="4.8399310" lon="-75.4329090">
        <ele>3630.6</ele>
        <time>2021-04-17T17:42:21Z</time>
      </trkpt>
      <trkpt lat="4.8398750" lon="-75.4328130">
        <ele>3631.6</ele>
        <time>2021-04-17T17:42:28Z</time>
      </trkpt>
      <trkpt lat="4.8398520" lon="-75.4327240">
        <ele>3632.8</ele>
        <time>2021-04-17T17:42:34Z</time>
      </trkpt>
      <trkpt lat="4.8398510" lon="-75.4326750">
        <ele>3633.4</ele>
        <time>2021-04-17T17:42:37Z</time>
      </trkpt>
      <trkpt lat="4.8398520" lon="-75.4326080">
        <ele>3633.8</ele>
        <time>2021-04-17T17:42:41Z</time>
      </trkpt>
      <trkpt lat="4.8398490" lon="-75.4325100">
        <ele>3634.6</ele>
        <time>2021-04-17T17:42:47Z</time>
      </trkpt>
      <trkpt lat="4.8398450" lon="-75.4324810">
        <ele>3635.0</ele>
        <time>2021-04-17T17:42:49Z</time>
      </trkpt>
      <trkpt lat="4.8398420" lon="-75.4324670">
        <ele>3635.2</ele>
        <time>2021-04-17T17:42:50Z</time>
      </trkpt>
      <trkpt lat="4.8398320" lon="-75.4323750">
        <ele>3635.8</ele>
        <time>2021-04-17T17:42:56Z</time>
      </trkpt>
      <trkpt lat="4.8398310" lon="-75.4323360">
        <ele>3636.2</ele>
        <time>2021-04-17T17:42:58Z</time>
      </trkpt>
      <trkpt lat="4.8398440" lon="-75.4321840">
        <ele>3636.6</ele>
        <time>2021-04-17T17:43:06Z</time>
      </trkpt>
      <trkpt lat="4.8398460" lon="-75.4320930">
        <ele>3637.0</ele>
        <time>2021-04-17T17:43:12Z</time>
      </trkpt>
      <trkpt lat="4.8398490" lon="-75.4320590">
        <ele>3637.4</ele>
        <time>2021-04-17T17:43:14Z</time>
      </trkpt>
      <trkpt lat="4.8398500" lon="-75.4319680">
        <ele>3638.2</ele>
        <time>2021-04-17T17:43:19Z</time>
      </trkpt>
      <trkpt lat="4.8398480" lon="-75.4318740">
        <ele>3639.2</ele>
        <time>2021-04-17T17:43:24Z</time>
      </trkpt>
      <trkpt lat="4.8398210" lon="-75.4317750">
        <ele>3640.2</ele>
        <time>2021-04-17T17:43:30Z</time>
      </trkpt>
      <trkpt lat="4.8398050" lon="-75.4317630">
        <ele>3640.4</ele>
        <time>2021-04-17T17:43:31Z</time>
      </trkpt>
      <trkpt lat="4.8397270" lon="-75.4317420">
        <ele>3641.2</ele>
        <time>2021-04-17T17:43:35Z</time>
      </trkpt>
      <trkpt lat="4.8396900" lon="-75.4317470">
        <ele>3641.6</ele>
        <time>2021-04-17T17:43:37Z</time>
      </trkpt>
      <trkpt lat="4.8396240" lon="-75.4317730">
        <ele>3642.0</ele>
        <time>2021-04-17T17:43:41Z</time>
      </trkpt>
      <trkpt lat="4.8395630" lon="-75.4318230">
        <ele>3642.4</ele>
        <time>2021-04-17T17:43:45Z</time>
      </trkpt>
      <trkpt lat="4.8394960" lon="-75.4318740">
        <ele>3643.2</ele>
        <time>2021-04-17T17:43:50Z</time>
      </trkpt>
      <trkpt lat="4.8394470" lon="-75.4319010">
        <ele>3643.8</ele>
        <time>2021-04-17T17:43:53Z</time>
      </trkpt>
      <trkpt lat="4.8393490" lon="-75.4319270">
        <ele>3644.4</ele>
        <time>2021-04-17T17:43:58Z</time>
      </trkpt>
      <trkpt lat="4.8393270" lon="-75.4319260">
        <ele>3644.6</ele>
        <time>2021-04-17T17:43:59Z</time>
      </trkpt>
      <trkpt lat="4.8392480" lon="-75.4319030">
        <ele>3645.4</ele>
        <time>2021-04-17T17:44:03Z</time>
      </trkpt>
      <trkpt lat="4.8391930" lon="-75.4318620">
        <ele>3646.0</ele>
        <time>2021-04-17T17:44:06Z</time>
      </trkpt>
      <trkpt lat="4.8391570" lon="-75.4318300">
        <ele>3646.4</ele>
        <time>2021-04-17T17:44:08Z</time>
      </trkpt>
      <trkpt lat="4.8390940" lon="-75.4317540">
        <ele>3647.2</ele>
        <time>2021-04-17T17:44:13Z</time>
      </trkpt>
      <trkpt lat="4.8390710" lon="-75.4317210">
        <ele>3647.6</ele>
        <time>2021-04-17T17:44:15Z</time>
      </trkpt>
      <trkpt lat="4.8390220" lon="-75.4316330">
        <ele>3648.4</ele>
        <time>2021-04-17T17:44:20Z</time>
      </trkpt>
      <trkpt lat="4.8390110" lon="-75.4316150">
        <ele>3648.6</ele>
        <time>2021-04-17T17:44:21Z</time>
      </trkpt>
      <trkpt lat="4.8389370" lon="-75.4314750">
        <ele>3649.6</ele>
        <time>2021-04-17T17:44:28Z</time>
      </trkpt>
      <trkpt lat="4.8388590" lon="-75.4313260">
        <ele>3650.6</ele>
        <time>2021-04-17T17:44:35Z</time>
      </trkpt>
      <trkpt lat="4.8388480" lon="-75.4313050">
        <ele>3650.6</ele>
        <time>2021-04-17T17:44:36Z</time>
      </trkpt>
      <trkpt lat="4.8387740" lon="-75.4311520">
        <ele>3651.2</ele>
        <time>2021-04-17T17:44:43Z</time>
      </trkpt>
      <trkpt lat="4.8387090" lon="-75.4310220">
        <ele>3651.6</ele>
        <time>2021-04-17T17:44:49Z</time>
      </trkpt>
      <trkpt lat="4.8386980" lon="-75.4310030">
        <ele>3651.8</ele>
        <time>2021-04-17T17:44:50Z</time>
      </trkpt>
      <trkpt lat="4.8386450" lon="-75.4308850">
        <ele>3652.4</ele>
        <time>2021-04-17T17:44:56Z</time>
      </trkpt>
      <trkpt lat="4.8386220" lon="-75.4308470">
        <ele>3652.8</ele>
        <time>2021-04-17T17:44:58Z</time>
      </trkpt>
      <trkpt lat="4.8385580" lon="-75.4307320">
        <ele>3653.2</ele>
        <time>2021-04-17T17:45:04Z</time>
      </trkpt>
      <trkpt lat="4.8385210" lon="-75.4306760">
        <ele>3653.6</ele>
        <time>2021-04-17T17:45:07Z</time>
      </trkpt>
      <trkpt lat="4.8384800" lon="-75.4305890">
        <ele>3654.4</ele>
        <time>2021-04-17T17:45:11Z</time>
      </trkpt>
      <trkpt lat="4.8384460" lon="-75.4305210">
        <ele>3654.6</ele>
        <time>2021-04-17T17:45:14Z</time>
      </trkpt>
      <trkpt lat="4.8383740" lon="-75.4303860">
        <ele>3655.6</ele>
        <time>2021-04-17T17:45:20Z</time>
      </trkpt>
      <trkpt lat="4.8383650" lon="-75.4303650">
        <ele>3655.6</ele>
        <time>2021-04-17T17:45:21Z</time>
      </trkpt>
      <trkpt lat="4.8382870" lon="-75.4302120">
        <ele>3656.6</ele>
        <time>2021-04-17T17:45:28Z</time>
      </trkpt>
      <trkpt lat="4.8382780" lon="-75.4301880">
        <ele>3656.8</ele>
        <time>2021-04-17T17:45:29Z</time>
      </trkpt>
      <trkpt lat="4.8382240" lon="-75.4300800">
        <ele>3657.8</ele>
        <time>2021-04-17T17:45:34Z</time>
      </trkpt>
      <trkpt lat="4.8382030" lon="-75.4300380">
        <ele>3658.0</ele>
        <time>2021-04-17T17:45:36Z</time>
      </trkpt>
      <trkpt lat="4.8381400" lon="-75.4299210">
        <ele>3659.0</ele>
        <time>2021-04-17T17:45:42Z</time>
      </trkpt>
      <trkpt lat="4.8381270" lon="-75.4298880">
        <ele>3659.4</ele>
        <time>2021-04-17T17:45:44Z</time>
      </trkpt>
      <trkpt lat="4.8380860" lon="-75.4298070">
        <ele>3659.8</ele>
        <time>2021-04-17T17:45:49Z</time>
      </trkpt>
      <trkpt lat="4.8380690" lon="-75.4297710">
        <ele>3660.2</ele>
        <time>2021-04-17T17:45:51Z</time>
      </trkpt>
      <trkpt lat="4.8380160" lon="-75.4296740">
        <ele>3661.0</ele>
        <time>2021-04-17T17:45:57Z</time>
      </trkpt>
      <trkpt lat="4.8380000" lon="-75.4296390">
        <ele>3661.4</ele>
        <time>2021-04-17T17:45:59Z</time>
      </trkpt>
      <trkpt lat="4.8379820" lon="-75.4296070">
        <ele>3662.0</ele>
        <time>2021-04-17T17:46:01Z</time>
      </trkpt>
      <trkpt lat="4.8379410" lon="-75.4295270">
        <ele>3662.6</ele>
        <time>2021-04-17T17:46:06Z</time>
      </trkpt>
      <trkpt lat="4.8379050" lon="-75.4294500">
        <ele>3662.8</ele>
        <time>2021-04-17T17:46:10Z</time>
      </trkpt>
      <trkpt lat="4.8378630" lon="-75.4293650">
        <ele>3663.8</ele>
        <time>2021-04-17T17:46:14Z</time>
      </trkpt>
      <trkpt lat="4.8378410" lon="-75.4293180">
        <ele>3663.8</ele>
        <time>2021-04-17T17:46:16Z</time>
      </trkpt>
      <trkpt lat="4.8377880" lon="-75.4292070">
        <ele>3664.0</ele>
        <time>2021-04-17T17:46:21Z</time>
      </trkpt>
      <trkpt lat="4.8376710" lon="-75.4289810">
        <ele>3664.6</ele>
        <time>2021-04-17T17:46:31Z</time>
      </trkpt>
      <trkpt lat="4.8376600" lon="-75.4289580">
        <ele>3664.6</ele>
        <time>2021-04-17T17:46:32Z</time>
      </trkpt>
      <trkpt lat="4.8376490" lon="-75.4289360">
        <ele>3664.6</ele>
        <time>2021-04-17T17:46:33Z</time>
      </trkpt>
      <trkpt lat="4.8375630" lon="-75.4287960">
        <ele>3665.2</ele>
        <time>2021-04-17T17:46:40Z</time>
      </trkpt>
      <trkpt lat="4.8375110" lon="-75.4286940">
        <ele>3665.8</ele>
        <time>2021-04-17T17:46:45Z</time>
      </trkpt>
      <trkpt lat="4.8374710" lon="-75.4286200">
        <ele>3666.6</ele>
        <time>2021-04-17T17:46:49Z</time>
      </trkpt>
      <trkpt lat="4.8374560" lon="-75.4285830">
        <ele>3667.0</ele>
        <time>2021-04-17T17:46:51Z</time>
      </trkpt>
      <trkpt lat="4.8374170" lon="-75.4284860">
        <ele>3667.8</ele>
        <time>2021-04-17T17:46:56Z</time>
      </trkpt>
      <trkpt lat="4.8373950" lon="-75.4284470">
        <ele>3667.8</ele>
        <time>2021-04-17T17:46:58Z</time>
      </trkpt>
      <trkpt lat="4.8373530" lon="-75.4283580">
        <ele>3668.6</ele>
        <time>2021-04-17T17:47:02Z</time>
      </trkpt>
      <trkpt lat="4.8372930" lon="-75.4282240">
        <ele>3669.0</ele>
        <time>2021-04-17T17:47:08Z</time>
      </trkpt>
      <trkpt lat="4.8372710" lon="-75.4281820">
        <ele>3669.0</ele>
        <time>2021-04-17T17:47:10Z</time>
      </trkpt>
      <trkpt lat="4.8372030" lon="-75.4280450">
        <ele>3669.6</ele>
        <time>2021-04-17T17:47:17Z</time>
      </trkpt>
      <trkpt lat="4.8371710" lon="-75.4279840">
        <ele>3670.0</ele>
        <time>2021-04-17T17:47:20Z</time>
      </trkpt>
      <trkpt lat="4.8371080" lon="-75.4278640">
        <ele>3671.2</ele>
        <time>2021-04-17T17:47:27Z</time>
      </trkpt>
      <trkpt lat="4.8369850" lon="-75.4277280">
        <ele>3672.0</ele>
        <time>2021-04-17T17:47:35Z</time>
      </trkpt>
      <trkpt lat="4.8369660" lon="-75.4277130">
        <ele>3672.2</ele>
        <time>2021-04-17T17:47:36Z</time>
      </trkpt>
      <trkpt lat="4.8368250" lon="-75.4276160">
        <ele>3673.0</ele>
        <time>2021-04-17T17:47:43Z</time>
      </trkpt>
      <trkpt lat="4.8367810" lon="-75.4275950">
        <ele>3673.4</ele>
        <time>2021-04-17T17:47:45Z</time>
      </trkpt>
      <trkpt lat="4.8366500" lon="-75.4275310">
        <ele>3674.2</ele>
        <time>2021-04-17T17:47:51Z</time>
      </trkpt>
      <trkpt lat="4.8366310" lon="-75.4275200">
        <ele>3674.2</ele>
        <time>2021-04-17T17:47:52Z</time>
      </trkpt>
      <trkpt lat="4.8366130" lon="-75.4275080">
        <ele>3674.6</ele>
        <time>2021-04-17T17:47:53Z</time>
      </trkpt>
      <trkpt lat="4.8365310" lon="-75.4274440">
        <ele>3675.4</ele>
        <time>2021-04-17T17:47:58Z</time>
      </trkpt>
      <trkpt lat="4.8364480" lon="-75.4273530">
        <ele>3676.6</ele>
        <time>2021-04-17T17:48:04Z</time>
      </trkpt>
      <trkpt lat="4.8364130" lon="-75.4273050">
        <ele>3677.0</ele>
        <time>2021-04-17T17:48:07Z</time>
      </trkpt>
      <trkpt lat="4.8363830" lon="-75.4272580">
        <ele>3677.6</ele>
        <time>2021-04-17T17:48:10Z</time>
      </trkpt>
      <trkpt lat="4.8363540" lon="-75.4271650">
        <ele>3678.2</ele>
        <time>2021-04-17T17:48:15Z</time>
      </trkpt>
      <trkpt lat="4.8363540" lon="-75.4271290">
        <ele>3678.4</ele>
        <time>2021-04-17T17:48:17Z</time>
      </trkpt>
      <trkpt lat="4.8363680" lon="-75.4270600">
        <ele>3679.2</ele>
        <time>2021-04-17T17:48:21Z</time>
      </trkpt>
      <trkpt lat="4.8364010" lon="-75.4270160">
        <ele>3679.6</ele>
        <time>2021-04-17T17:48:24Z</time>
      </trkpt>
      <trkpt lat="4.8364390" lon="-75.4269620">
        <ele>3680.4</ele>
        <time>2021-04-17T17:48:28Z</time>
      </trkpt>
      <trkpt lat="4.8364610" lon="-75.4269430">
        <ele>3680.8</ele>
        <time>2021-04-17T17:48:30Z</time>
      </trkpt>
      <trkpt lat="4.8365200" lon="-75.4268880">
        <ele>3681.4</ele>
        <time>2021-04-17T17:48:35Z</time>
      </trkpt>
      <trkpt lat="4.8365440" lon="-75.4268720">
        <ele>3682.0</ele>
        <time>2021-04-17T17:48:37Z</time>
      </trkpt>
      <trkpt lat="4.8365990" lon="-75.4268240">
        <ele>3683.2</ele>
        <time>2021-04-17T17:48:42Z</time>
      </trkpt>
      <trkpt lat="4.8366360" lon="-75.4267930">
        <ele>3683.6</ele>
        <time>2021-04-17T17:48:45Z</time>
      </trkpt>
      <trkpt lat="4.8366720" lon="-75.4267640">
        <ele>3684.2</ele>
        <time>2021-04-17T17:48:48Z</time>
      </trkpt>
      <trkpt lat="4.8367200" lon="-75.4267160">
        <ele>3685.0</ele>
        <time>2021-04-17T17:48:52Z</time>
      </trkpt>
      <trkpt lat="4.8367580" lon="-75.4266820">
        <ele>3685.4</ele>
        <time>2021-04-17T17:48:55Z</time>
      </trkpt>
      <trkpt lat="4.8368420" lon="-75.4266210">
        <ele>3686.4</ele>
        <time>2021-04-17T17:49:01Z</time>
      </trkpt>
      <trkpt lat="4.8368560" lon="-75.4266090">
        <ele>3686.4</ele>
        <time>2021-04-17T17:49:02Z</time>
      </trkpt>
      <trkpt lat="4.8369420" lon="-75.4265500">
        <ele>3687.6</ele>
        <time>2021-04-17T17:49:08Z</time>
      </trkpt>
      <trkpt lat="4.8369740" lon="-75.4265360">
        <ele>3687.8</ele>
        <time>2021-04-17T17:49:10Z</time>
      </trkpt>
      <trkpt lat="4.8370430" lon="-75.4265120">
        <ele>3688.6</ele>
        <time>2021-04-17T17:49:14Z</time>
      </trkpt>
      <trkpt lat="4.8370920" lon="-75.4264930">
        <ele>3689.2</ele>
        <time>2021-04-17T17:49:17Z</time>
      </trkpt>
      <trkpt lat="4.8371400" lon="-75.4264820">
        <ele>3689.6</ele>
        <time>2021-04-17T17:49:20Z</time>
      </trkpt>
      <trkpt lat="4.8372390" lon="-75.4264640">
        <ele>3690.4</ele>
        <time>2021-04-17T17:49:26Z</time>
      </trkpt>
      <trkpt lat="4.8372920" lon="-75.4264620">
        <ele>3690.6</ele>
        <time>2021-04-17T17:49:29Z</time>
      </trkpt>
      <trkpt lat="4.8373080" lon="-75.4264620">
        <ele>3690.6</ele>
        <time>2021-04-17T17:49:30Z</time>
      </trkpt>
      <trkpt lat="4.8374060" lon="-75.4264550">
        <ele>3691.4</ele>
        <time>2021-04-17T17:49:36Z</time>
      </trkpt>
      <trkpt lat="4.8374370" lon="-75.4264530">
        <ele>3691.6</ele>
        <time>2021-04-17T17:49:38Z</time>
      </trkpt>
      <trkpt lat="4.8375170" lon="-75.4264370">
        <ele>3692.6</ele>
        <time>2021-04-17T17:49:43Z</time>
      </trkpt>
      <trkpt lat="4.8375330" lon="-75.4264340">
        <ele>3692.8</ele>
        <time>2021-04-17T17:49:44Z</time>
      </trkpt>
      <trkpt lat="4.8376680" lon="-75.4264010">
        <ele>3693.8</ele>
        <time>2021-04-17T17:49:52Z</time>
      </trkpt>
      <trkpt lat="4.8378250" lon="-75.4263430">
        <ele>3694.8</ele>
        <time>2021-04-17T17:50:01Z</time>
      </trkpt>
      <trkpt lat="4.8378440" lon="-75.4263390">
        <ele>3695.0</ele>
        <time>2021-04-17T17:50:02Z</time>
      </trkpt>
      <trkpt lat="4.8379350" lon="-75.4263130">
        <ele>3696.0</ele>
        <time>2021-04-17T17:50:07Z</time>
      </trkpt>
      <trkpt lat="4.8380030" lon="-75.4262830">
        <ele>3697.0</ele>
        <time>2021-04-17T17:50:11Z</time>
      </trkpt>
      <trkpt lat="4.8380220" lon="-75.4262760">
        <ele>3697.0</ele>
        <time>2021-04-17T17:50:12Z</time>
      </trkpt>
      <trkpt lat="4.8381710" lon="-75.4262200">
        <ele>3698.2</ele>
        <time>2021-04-17T17:50:20Z</time>
      </trkpt>
      <trkpt lat="4.8381880" lon="-75.4262130">
        <ele>3698.2</ele>
        <time>2021-04-17T17:50:21Z</time>
      </trkpt>
      <trkpt lat="4.8382990" lon="-75.4261810">
        <ele>3699.0</ele>
        <time>2021-04-17T17:50:27Z</time>
      </trkpt>
      <trkpt lat="4.8383520" lon="-75.4261600">
        <ele>3699.6</ele>
        <time>2021-04-17T17:50:30Z</time>
      </trkpt>
      <trkpt lat="4.8384230" lon="-75.4261320">
        <ele>3700.2</ele>
        <time>2021-04-17T17:50:34Z</time>
      </trkpt>
      <trkpt lat="4.8385170" lon="-75.4260960">
        <ele>3701.2</ele>
        <time>2021-04-17T17:50:39Z</time>
      </trkpt>
      <trkpt lat="4.8385540" lon="-75.4260830">
        <ele>3701.6</ele>
        <time>2021-04-17T17:50:41Z</time>
      </trkpt>
      <trkpt lat="4.8386090" lon="-75.4260670">
        <ele>3702.2</ele>
        <time>2021-04-17T17:50:44Z</time>
      </trkpt>
      <trkpt lat="4.8386920" lon="-75.4260490">
        <ele>3703.4</ele>
        <time>2021-04-17T17:50:49Z</time>
      </trkpt>
      <trkpt lat="4.8388220" lon="-75.4260080">
        <ele>3704.2</ele>
        <time>2021-04-17T17:50:56Z</time>
      </trkpt>
      <trkpt lat="4.8388390" lon="-75.4260020">
        <ele>3704.4</ele>
        <time>2021-04-17T17:50:57Z</time>
      </trkpt>
      <trkpt lat="4.8389700" lon="-75.4259530">
        <ele>3705.4</ele>
        <time>2021-04-17T17:51:04Z</time>
      </trkpt>
      <trkpt lat="4.8391110" lon="-75.4258740">
        <ele>3706.4</ele>
        <time>2021-04-17T17:51:12Z</time>
      </trkpt>
      <trkpt lat="4.8391230" lon="-75.4258580">
        <ele>3706.4</ele>
        <time>2021-04-17T17:51:13Z</time>
      </trkpt>
      <trkpt lat="4.8391340" lon="-75.4258420">
        <ele>3706.8</ele>
        <time>2021-04-17T17:51:14Z</time>
      </trkpt>
      <trkpt lat="4.8391710" lon="-75.4257570">
        <ele>3707.6</ele>
        <time>2021-04-17T17:51:19Z</time>
      </trkpt>
      <trkpt lat="4.8391780" lon="-75.4257190">
        <ele>3708.0</ele>
        <time>2021-04-17T17:51:21Z</time>
      </trkpt>
      <trkpt lat="4.8391780" lon="-75.4256630">
        <ele>3708.6</ele>
        <time>2021-04-17T17:51:24Z</time>
      </trkpt>
      <trkpt lat="4.8391520" lon="-75.4255670">
        <ele>3709.2</ele>
        <time>2021-04-17T17:51:29Z</time>
      </trkpt>
      <trkpt lat="4.8391220" lon="-75.4255120">
        <ele>3709.6</ele>
        <time>2021-04-17T17:51:32Z</time>
      </trkpt>
      <trkpt lat="4.8390570" lon="-75.4254270">
        <ele>3710.8</ele>
        <time>2021-04-17T17:51:37Z</time>
      </trkpt>
      <trkpt lat="4.8390420" lon="-75.4254120">
        <ele>3711.0</ele>
        <time>2021-04-17T17:51:38Z</time>
      </trkpt>
      <trkpt lat="4.8389530" lon="-75.4253240">
        <ele>3711.6</ele>
        <time>2021-04-17T17:51:44Z</time>
      </trkpt>
      <trkpt lat="4.8389220" lon="-75.4252970">
        <ele>3712.0</ele>
        <time>2021-04-17T17:51:46Z</time>
      </trkpt>
      <trkpt lat="4.8388400" lon="-75.4252340">
        <ele>3712.8</ele>
        <time>2021-04-17T17:51:51Z</time>
      </trkpt>
      <trkpt lat="4.8387700" lon="-75.4251870">
        <ele>3713.6</ele>
        <time>2021-04-17T17:51:55Z</time>
      </trkpt>
      <trkpt lat="4.8387360" lon="-75.4251650">
        <ele>3713.8</ele>
        <time>2021-04-17T17:51:57Z</time>
      </trkpt>
      <trkpt lat="4.8386130" lon="-75.4250660">
        <ele>3715.0</ele>
        <time>2021-04-17T17:52:04Z</time>
      </trkpt>
      <trkpt lat="4.8385930" lon="-75.4250530">
        <ele>3715.0</ele>
        <time>2021-04-17T17:52:05Z</time>
      </trkpt>
      <trkpt lat="4.8383980" lon="-75.4249320">
        <ele>3716.0</ele>
        <time>2021-04-17T17:52:15Z</time>
      </trkpt>
      <trkpt lat="4.8383790" lon="-75.4249190">
        <ele>3716.0</ele>
        <time>2021-04-17T17:52:16Z</time>
      </trkpt>
      <trkpt lat="4.8382780" lon="-75.4248480">
        <ele>3717.0</ele>
        <time>2021-04-17T17:52:22Z</time>
      </trkpt>
      <trkpt lat="4.8382430" lon="-75.4248210">
        <ele>3717.2</ele>
        <time>2021-04-17T17:52:24Z</time>
      </trkpt>
      <trkpt lat="4.8381910" lon="-75.4247800">
        <ele>3718.2</ele>
        <time>2021-04-17T17:52:27Z</time>
      </trkpt>
      <trkpt lat="4.8380900" lon="-75.4247240">
        <ele>3719.0</ele>
        <time>2021-04-17T17:52:32Z</time>
      </trkpt>
      <trkpt lat="4.8380490" lon="-75.4247010">
        <ele>3719.2</ele>
        <time>2021-04-17T17:52:34Z</time>
      </trkpt>
      <trkpt lat="4.8379030" lon="-75.4246320">
        <ele>3720.0</ele>
        <time>2021-04-17T17:52:41Z</time>
      </trkpt>
      <trkpt lat="4.8378820" lon="-75.4246210">
        <ele>3720.2</ele>
        <time>2021-04-17T17:52:42Z</time>
      </trkpt>
      <trkpt lat="4.8377710" lon="-75.4245620">
        <ele>3721.2</ele>
        <time>2021-04-17T17:52:48Z</time>
      </trkpt>
      <trkpt lat="4.8377400" lon="-75.4245440">
        <ele>3721.4</ele>
        <time>2021-04-17T17:52:50Z</time>
      </trkpt>
      <trkpt lat="4.8375980" lon="-75.4244690">
        <ele>3722.4</ele>
        <time>2021-04-17T17:52:58Z</time>
      </trkpt>
      <trkpt lat="4.8375360" lon="-75.4244310">
        <ele>3723.4</ele>
        <time>2021-04-17T17:53:02Z</time>
      </trkpt>
      <trkpt lat="4.8375080" lon="-75.4244120">
        <ele>3723.6</ele>
        <time>2021-04-17T17:53:04Z</time>
      </trkpt>
      <trkpt lat="4.8374130" lon="-75.4243700">
        <ele>3724.2</ele>
        <time>2021-04-17T17:53:10Z</time>
      </trkpt>
      <trkpt lat="4.8373990" lon="-75.4243620">
        <ele>3724.4</ele>
        <time>2021-04-17T17:53:11Z</time>
      </trkpt>
      <trkpt lat="4.8373120" lon="-75.4243150">
        <ele>3725.4</ele>
        <time>2021-04-17T17:53:17Z</time>
      </trkpt>
      <trkpt lat="4.8372840" lon="-75.4242990">
        <ele>3725.4</ele>
        <time>2021-04-17T17:53:19Z</time>
      </trkpt>
      <trkpt lat="4.8372700" lon="-75.4242910">
        <ele>3725.6</ele>
        <time>2021-04-17T17:53:20Z</time>
      </trkpt>
      <trkpt lat="4.8371820" lon="-75.4242250">
        <ele>3726.4</ele>
        <time>2021-04-17T17:53:26Z</time>
      </trkpt>
      <trkpt lat="4.8371670" lon="-75.4242140">
        <ele>3726.6</ele>
        <time>2021-04-17T17:53:27Z</time>
      </trkpt>
      <trkpt lat="4.8370790" lon="-75.4241250">
        <ele>3726.8</ele>
        <time>2021-04-17T17:53:34Z</time>
      </trkpt>
      <trkpt lat="4.8370250" lon="-75.4240340">
        <ele>3727.6</ele>
        <time>2021-04-17T17:53:39Z</time>
      </trkpt>
      <trkpt lat="4.8370060" lon="-75.4240030">
        <ele>3727.8</ele>
        <time>2021-04-17T17:53:41Z</time>
      </trkpt>
      <trkpt lat="4.8369600" lon="-75.4239070">
        <ele>3728.6</ele>
        <time>2021-04-17T17:53:47Z</time>
      </trkpt>
      <trkpt lat="4.8369450" lon="-75.4238380">
        <ele>3729.2</ele>
        <time>2021-04-17T17:53:51Z</time>
      </trkpt>
      <trkpt lat="4.8369400" lon="-75.4238020">
        <ele>3729.4</ele>
        <time>2021-04-17T17:53:53Z</time>
      </trkpt>
      <trkpt lat="4.8369330" lon="-75.4236600">
        <ele>3730.2</ele>
        <time>2021-04-17T17:54:00Z</time>
      </trkpt>
      <trkpt lat="4.8369390" lon="-75.4236220">
        <ele>3730.4</ele>
        <time>2021-04-17T17:54:02Z</time>
      </trkpt>
      <trkpt lat="4.8369550" lon="-75.4235290">
        <ele>3731.0</ele>
        <time>2021-04-17T17:54:07Z</time>
      </trkpt>
      <trkpt lat="4.8369670" lon="-75.4234010">
        <ele>3731.4</ele>
        <time>2021-04-17T17:54:14Z</time>
      </trkpt>
      <trkpt lat="4.8369890" lon="-75.4232560">
        <ele>3732.2</ele>
        <time>2021-04-17T17:54:23Z</time>
      </trkpt>
      <trkpt lat="4.8369910" lon="-75.4232230">
        <ele>3732.4</ele>
        <time>2021-04-17T17:54:25Z</time>
      </trkpt>
      <trkpt lat="4.8369950" lon="-75.4230770">
        <ele>3733.2</ele>
        <time>2021-04-17T17:54:33Z</time>
      </trkpt>
      <trkpt lat="4.8369970" lon="-75.4230570">
        <ele>3733.6</ele>
        <time>2021-04-17T17:54:34Z</time>
      </trkpt>
      <trkpt lat="4.8370060" lon="-75.4229440">
        <ele>3734.6</ele>
        <time>2021-04-17T17:54:40Z</time>
      </trkpt>
      <trkpt lat="4.8370030" lon="-75.4229250">
        <ele>3734.8</ele>
        <time>2021-04-17T17:54:41Z</time>
      </trkpt>
      <trkpt lat="4.8369840" lon="-75.4227920">
        <ele>3735.6</ele>
        <time>2021-04-17T17:54:48Z</time>
      </trkpt>
      <trkpt lat="4.8369690" lon="-75.4227580">
        <ele>3736.0</ele>
        <time>2021-04-17T17:54:50Z</time>
      </trkpt>
      <trkpt lat="4.8369330" lon="-75.4227090">
        <ele>3736.6</ele>
        <time>2021-04-17T17:54:53Z</time>
      </trkpt>
      <trkpt lat="4.8368730" lon="-75.4226460">
        <ele>3737.8</ele>
        <time>2021-04-17T17:54:58Z</time>
      </trkpt>
      <trkpt lat="4.8367830" lon="-75.4225740">
        <ele>3738.8</ele>
        <time>2021-04-17T17:55:05Z</time>
      </trkpt>
      <trkpt lat="4.8367370" lon="-75.4225470">
        <ele>3739.4</ele>
        <time>2021-04-17T17:55:08Z</time>
      </trkpt>
      <trkpt lat="4.8366910" lon="-75.4225260">
        <ele>3740.0</ele>
        <time>2021-04-17T17:55:11Z</time>
      </trkpt>
      <trkpt lat="4.8366210" lon="-75.4224920">
        <ele>3740.4</ele>
        <time>2021-04-17T17:55:15Z</time>
      </trkpt>
      <trkpt lat="4.8365480" lon="-75.4224610">
        <ele>3740.8</ele>
        <time>2021-04-17T17:55:19Z</time>
      </trkpt>
      <trkpt lat="4.8364720" lon="-75.4224160">
        <ele>3741.0</ele>
        <time>2021-04-17T17:55:23Z</time>
      </trkpt>
      <trkpt lat="4.8363620" lon="-75.4223470">
        <ele>3741.8</ele>
        <time>2021-04-17T17:55:30Z</time>
      </trkpt>
      <trkpt lat="4.8363460" lon="-75.4223380">
        <ele>3741.8</ele>
        <time>2021-04-17T17:55:31Z</time>
      </trkpt>
      <trkpt lat="4.8362310" lon="-75.4222800">
        <ele>3742.8</ele>
        <time>2021-04-17T17:55:38Z</time>
      </trkpt>
      <trkpt lat="4.8361960" lon="-75.4222630">
        <ele>3742.8</ele>
        <time>2021-04-17T17:55:40Z</time>
      </trkpt>
      <trkpt lat="4.8360900" lon="-75.4222010">
        <ele>3743.4</ele>
        <time>2021-04-17T17:55:46Z</time>
      </trkpt>
      <trkpt lat="4.8360430" lon="-75.4221700">
        <ele>3744.0</ele>
        <time>2021-04-17T17:55:49Z</time>
      </trkpt>
      <trkpt lat="4.8360280" lon="-75.4221590">
        <ele>3744.2</ele>
        <time>2021-04-17T17:55:50Z</time>
      </trkpt>
      <trkpt lat="4.8359310" lon="-75.4221010">
        <ele>3744.6</ele>
        <time>2021-04-17T17:55:56Z</time>
      </trkpt>
      <trkpt lat="4.8359130" lon="-75.4220940">
        <ele>3745.0</ele>
        <time>2021-04-17T17:55:57Z</time>
      </trkpt>
      <trkpt lat="4.8358240" lon="-75.4220450">
        <ele>3746.0</ele>
        <time>2021-04-17T17:56:02Z</time>
      </trkpt>
      <trkpt lat="4.8357890" lon="-75.4220220">
        <ele>3746.4</ele>
        <time>2021-04-17T17:56:04Z</time>
      </trkpt>
      <trkpt lat="4.8357010" lon="-75.4219720">
        <ele>3747.2</ele>
        <time>2021-04-17T17:56:09Z</time>
      </trkpt>
      <trkpt lat="4.8356340" lon="-75.4219240">
        <ele>3748.0</ele>
        <time>2021-04-17T17:56:13Z</time>
      </trkpt>
      <trkpt lat="4.8355990" lon="-75.4218990">
        <ele>3748.2</ele>
        <time>2021-04-17T17:56:15Z</time>
      </trkpt>
      <trkpt lat="4.8355050" lon="-75.4218070">
        <ele>3749.0</ele>
        <time>2021-04-17T17:56:21Z</time>
      </trkpt>
      <trkpt lat="4.8354740" lon="-75.4217770">
        <ele>3749.2</ele>
        <time>2021-04-17T17:56:23Z</time>
      </trkpt>
      <trkpt lat="4.8354130" lon="-75.4216940">
        <ele>3749.8</ele>
        <time>2021-04-17T17:56:28Z</time>
      </trkpt>
      <trkpt lat="4.8353780" lon="-75.4216400">
        <ele>3750.4</ele>
        <time>2021-04-17T17:56:31Z</time>
      </trkpt>
      <trkpt lat="4.8353150" lon="-75.4215480">
        <ele>3751.2</ele>
        <time>2021-04-17T17:56:36Z</time>
      </trkpt>
      <trkpt lat="4.8352890" lon="-75.4215150">
        <ele>3751.6</ele>
        <time>2021-04-17T17:56:38Z</time>
      </trkpt>
      <trkpt lat="4.8352170" lon="-75.4214180">
        <ele>3752.4</ele>
        <time>2021-04-17T17:56:44Z</time>
      </trkpt>
      <trkpt lat="4.8352070" lon="-75.4214030">
        <ele>3752.6</ele>
        <time>2021-04-17T17:56:45Z</time>
      </trkpt>
      <trkpt lat="4.8351400" lon="-75.4213120">
        <ele>3753.6</ele>
        <time>2021-04-17T17:56:51Z</time>
      </trkpt>
      <trkpt lat="4.8350820" lon="-75.4212370">
        <ele>3754.6</ele>
        <time>2021-04-17T17:56:57Z</time>
      </trkpt>
      <trkpt lat="4.8350700" lon="-75.4212080">
        <ele>3754.6</ele>
        <time>2021-04-17T17:56:59Z</time>
      </trkpt>
      <trkpt lat="4.8350330" lon="-75.4211190">
        <ele>3756.0</ele>
        <time>2021-04-17T17:57:05Z</time>
      </trkpt>
      <trkpt lat="4.8350100" lon="-75.4210690">
        <ele>3756.4</ele>
        <time>2021-04-17T17:57:08Z</time>
      </trkpt>
      <trkpt lat="4.8349730" lon="-75.4209620">
        <ele>3757.0</ele>
        <time>2021-04-17T17:57:14Z</time>
      </trkpt>
      <trkpt lat="4.8349620" lon="-75.4209290">
        <ele>3757.2</ele>
        <time>2021-04-17T17:57:16Z</time>
      </trkpt>
      <trkpt lat="4.8349240" lon="-75.4208080">
        <ele>3757.8</ele>
        <time>2021-04-17T17:57:24Z</time>
      </trkpt>
      <trkpt lat="4.8349140" lon="-75.4207780">
        <ele>3758.2</ele>
        <time>2021-04-17T17:57:26Z</time>
      </trkpt>
      <trkpt lat="4.8348890" lon="-75.4206990">
        <ele>3759.0</ele>
        <time>2021-04-17T17:57:31Z</time>
      </trkpt>
      <trkpt lat="4.8348430" lon="-75.4205670">
        <ele>3760.2</ele>
        <time>2021-04-17T17:57:39Z</time>
      </trkpt>
      <trkpt lat="4.8348230" lon="-75.4205170">
        <ele>3760.8</ele>
        <time>2021-04-17T17:57:42Z</time>
      </trkpt>
      <trkpt lat="4.8348100" lon="-75.4204840">
        <ele>3761.2</ele>
        <time>2021-04-17T17:57:44Z</time>
      </trkpt>
      <trkpt lat="4.8347850" lon="-75.4204000">
        <ele>3761.8</ele>
        <time>2021-04-17T17:57:50Z</time>
      </trkpt>
      <trkpt lat="4.8347810" lon="-75.4203850">
        <ele>3762.0</ele>
        <time>2021-04-17T17:57:51Z</time>
      </trkpt>
      <trkpt lat="4.8347460" lon="-75.4203290">
        <ele>3763.2</ele>
        <time>2021-04-17T17:57:55Z</time>
      </trkpt>
      <trkpt lat="4.8347270" lon="-75.4203040">
        <ele>3763.6</ele>
        <time>2021-04-17T17:57:57Z</time>
      </trkpt>
      <trkpt lat="4.8346570" lon="-75.4202130">
        <ele>3764.2</ele>
        <time>2021-04-17T17:58:04Z</time>
      </trkpt>
      <trkpt lat="4.8346460" lon="-75.4202000">
        <ele>3764.4</ele>
        <time>2021-04-17T17:58:05Z</time>
      </trkpt>
      <trkpt lat="4.8346360" lon="-75.4201860">
        <ele>3764.6</ele>
        <time>2021-04-17T17:58:06Z</time>
      </trkpt>
      <trkpt lat="4.8345690" lon="-75.4200850">
        <ele>3765.4</ele>
        <time>2021-04-17T17:58:13Z</time>
      </trkpt>
      <trkpt lat="4.8345270" lon="-75.4200340">
        <ele>3766.2</ele>
        <time>2021-04-17T17:58:17Z</time>
      </trkpt>
      <trkpt lat="4.8345030" lon="-75.4200090">
        <ele>3766.4</ele>
        <time>2021-04-17T17:58:19Z</time>
      </trkpt>
      <trkpt lat="4.8343990" lon="-75.4199200">
        <ele>3767.2</ele>
        <time>2021-04-17T17:58:26Z</time>
      </trkpt>
      <trkpt lat="4.8343830" lon="-75.4199070">
        <ele>3767.4</ele>
        <time>2021-04-17T17:58:27Z</time>
      </trkpt>
      <trkpt lat="4.8342790" lon="-75.4198250">
        <ele>3767.8</ele>
        <time>2021-04-17T17:58:33Z</time>
      </trkpt>
      <trkpt lat="4.8341550" lon="-75.4197600">
        <ele>3768.0</ele>
        <time>2021-04-17T17:58:40Z</time>
      </trkpt>
      <trkpt lat="4.8341230" lon="-75.4197370">
        <ele>3768.4</ele>
        <time>2021-04-17T17:58:42Z</time>
      </trkpt>
      <trkpt lat="4.8340300" lon="-75.4196760">
        <ele>3769.4</ele>
        <time>2021-04-17T17:58:48Z</time>
      </trkpt>
      <trkpt lat="4.8340160" lon="-75.4196660">
        <ele>3769.4</ele>
        <time>2021-04-17T17:58:49Z</time>
      </trkpt>
      <trkpt lat="4.8339100" lon="-75.4195910">
        <ele>3770.2</ele>
        <time>2021-04-17T17:58:56Z</time>
      </trkpt>
      <trkpt lat="4.8338780" lon="-75.4195670">
        <ele>3770.6</ele>
        <time>2021-04-17T17:58:58Z</time>
      </trkpt>
      <trkpt lat="4.8337670" lon="-75.4194960">
        <ele>3771.4</ele>
        <time>2021-04-17T17:59:04Z</time>
      </trkpt>
      <trkpt lat="4.8337320" lon="-75.4194720">
        <ele>3771.6</ele>
        <time>2021-04-17T17:59:06Z</time>
      </trkpt>
      <trkpt lat="4.8336350" lon="-75.4193970">
        <ele>3772.4</ele>
        <time>2021-04-17T17:59:12Z</time>
      </trkpt>
      <trkpt lat="4.8335860" lon="-75.4193600">
        <ele>3772.8</ele>
        <time>2021-04-17T17:59:15Z</time>
      </trkpt>
      <trkpt lat="4.8335190" lon="-75.4193070">
        <ele>3773.6</ele>
        <time>2021-04-17T17:59:19Z</time>
      </trkpt>
      <trkpt lat="4.8334380" lon="-75.4192310">
        <ele>3774.2</ele>
        <time>2021-04-17T17:59:24Z</time>
      </trkpt>
      <trkpt lat="4.8333890" lon="-75.4191860">
        <ele>3774.4</ele>
        <time>2021-04-17T17:59:27Z</time>
      </trkpt>
      <trkpt lat="4.8333050" lon="-75.4190950">
        <ele>3775.4</ele>
        <time>2021-04-17T17:59:33Z</time>
      </trkpt>
      <trkpt lat="4.8332920" lon="-75.4190810">
        <ele>3775.6</ele>
        <time>2021-04-17T17:59:34Z</time>
      </trkpt>
      <trkpt lat="4.8332410" lon="-75.4190250">
        <ele>3776.8</ele>
        <time>2021-04-17T17:59:38Z</time>
      </trkpt>
      <trkpt lat="4.8331730" lon="-75.4189540">
        <ele>3777.8</ele>
        <time>2021-04-17T17:59:43Z</time>
      </trkpt>
      <trkpt lat="4.8331590" lon="-75.4189390">
        <ele>3778.0</ele>
        <time>2021-04-17T17:59:44Z</time>
      </trkpt>
      <trkpt lat="4.8331050" lon="-75.4188590">
        <ele>3779.0</ele>
        <time>2021-04-17T17:59:49Z</time>
      </trkpt>
      <trkpt lat="4.8330770" lon="-75.4188100">
        <ele>3779.4</ele>
        <time>2021-04-17T17:59:52Z</time>
      </trkpt>
      <trkpt lat="4.8330640" lon="-75.4187020">
        <ele>3779.8</ele>
        <time>2021-04-17T17:59:59Z</time>
      </trkpt>
      <trkpt lat="4.8330640" lon="-75.4186860">
        <ele>3780.0</ele>
        <time>2021-04-17T18:00:00Z</time>
      </trkpt>
      <trkpt lat="4.8330630" lon="-75.4185710">
        <ele>3781.0</ele>
        <time>2021-04-17T18:00:07Z</time>
      </trkpt>
      <trkpt lat="4.8330610" lon="-75.4185550">
        <ele>3781.2</ele>
        <time>2021-04-17T18:00:08Z</time>
      </trkpt>
      <trkpt lat="4.8330470" lon="-75.4184660">
        <ele>3782.0</ele>
        <time>2021-04-17T18:00:13Z</time>
      </trkpt>
      <trkpt lat="4.8330220" lon="-75.4183720">
        <ele>3782.8</ele>
        <time>2021-04-17T18:00:18Z</time>
      </trkpt>
      <trkpt lat="4.8330030" lon="-75.4183390">
        <ele>3783.2</ele>
        <time>2021-04-17T18:00:20Z</time>
      </trkpt>
      <trkpt lat="4.8329470" lon="-75.4182640">
        <ele>3784.2</ele>
        <time>2021-04-17T18:00:25Z</time>
      </trkpt>
      <trkpt lat="4.8329350" lon="-75.4182470">
        <ele>3784.4</ele>
        <time>2021-04-17T18:00:26Z</time>
      </trkpt>
      <trkpt lat="4.8328820" lon="-75.4181850">
        <ele>3785.2</ele>
        <time>2021-04-17T18:00:30Z</time>
      </trkpt>
      <trkpt lat="4.8328320" lon="-75.4181240">
        <ele>3786.0</ele>
        <time>2021-04-17T18:00:34Z</time>
      </trkpt>
      <trkpt lat="4.8328200" lon="-75.4181080">
        <ele>3786.2</ele>
        <time>2021-04-17T18:00:35Z</time>
      </trkpt>
      <trkpt lat="4.8327620" lon="-75.4180370">
        <ele>3787.2</ele>
        <time>2021-04-17T18:00:40Z</time>
      </trkpt>
      <trkpt lat="4.8327400" lon="-75.4180050">
        <ele>3787.6</ele>
        <time>2021-04-17T18:00:42Z</time>
      </trkpt>
      <trkpt lat="4.8326800" lon="-75.4179240">
        <ele>3788.4</ele>
        <time>2021-04-17T18:00:47Z</time>
      </trkpt>
      <trkpt lat="4.8326540" lon="-75.4178940">
        <ele>3788.8</ele>
        <time>2021-04-17T18:00:49Z</time>
      </trkpt>
      <trkpt lat="4.8325590" lon="-75.4177580">
        <ele>3789.4</ele>
        <time>2021-04-17T18:00:57Z</time>
      </trkpt>
      <trkpt lat="4.8324440" lon="-75.4176190">
        <ele>3790.0</ele>
        <time>2021-04-17T18:01:05Z</time>
      </trkpt>
      <trkpt lat="4.8323960" lon="-75.4175330">
        <ele>3790.2</ele>
        <time>2021-04-17T18:01:10Z</time>
      </trkpt>
      <trkpt lat="4.8323750" lon="-75.4175030">
        <ele>3790.6</ele>
        <time>2021-04-17T18:01:12Z</time>
      </trkpt>
      <trkpt lat="4.8323070" lon="-75.4174060">
        <ele>3791.0</ele>
        <time>2021-04-17T18:01:20Z</time>
      </trkpt>
      <trkpt lat="4.8322830" lon="-75.4173840">
        <ele>3791.2</ele>
        <time>2021-04-17T18:01:22Z</time>
      </trkpt>
      <trkpt lat="4.8322380" lon="-75.4173270">
        <ele>3791.6</ele>
        <time>2021-04-17T18:01:27Z</time>
      </trkpt>
      <trkpt lat="4.8322010" lon="-75.4172890">
        <ele>3792.2</ele>
        <time>2021-04-17T18:01:30Z</time>
      </trkpt>
      <trkpt lat="4.8321430" lon="-75.4172060">
        <ele>3792.6</ele>
        <time>2021-04-17T18:01:35Z</time>
      </trkpt>
      <trkpt lat="4.8320560" lon="-75.4170960">
        <ele>3793.2</ele>
        <time>2021-04-17T18:01:41Z</time>
      </trkpt>
      <trkpt lat="4.8319300" lon="-75.4169330">
        <ele>3794.2</ele>
        <time>2021-04-17T18:01:49Z</time>
      </trkpt>
      <trkpt lat="4.8319150" lon="-75.4169130">
        <ele>3794.2</ele>
        <time>2021-04-17T18:01:50Z</time>
      </trkpt>
      <trkpt lat="4.8318070" lon="-75.4167750">
        <ele>3794.8</ele>
        <time>2021-04-17T18:01:57Z</time>
      </trkpt>
      <trkpt lat="4.8317110" lon="-75.4166570">
        <ele>3795.2</ele>
        <time>2021-04-17T18:02:03Z</time>
      </trkpt>
      <trkpt lat="4.8316370" lon="-75.4165490">
        <ele>3795.6</ele>
        <time>2021-04-17T18:02:08Z</time>
      </trkpt>
      <trkpt lat="4.8315610" lon="-75.4164400">
        <ele>3796.2</ele>
        <time>2021-04-17T18:02:14Z</time>
      </trkpt>
      <trkpt lat="4.8315510" lon="-75.4164230">
        <ele>3796.4</ele>
        <time>2021-04-17T18:02:15Z</time>
      </trkpt>
      <trkpt lat="4.8315000" lon="-75.4163490">
        <ele>3796.8</ele>
        <time>2021-04-17T18:02:20Z</time>
      </trkpt>
      <trkpt lat="4.8314720" lon="-75.4163050">
        <ele>3797.2</ele>
        <time>2021-04-17T18:02:23Z</time>
      </trkpt>
      <trkpt lat="4.8314250" lon="-75.4162600">
        <ele>3797.8</ele>
        <time>2021-04-17T18:02:27Z</time>
      </trkpt>
      <trkpt lat="4.8313910" lon="-75.4162320">
        <ele>3798.2</ele>
        <time>2021-04-17T18:02:30Z</time>
      </trkpt>
      <trkpt lat="4.8313380" lon="-75.4162170">
        <ele>3798.8</ele>
        <time>2021-04-17T18:02:34Z</time>
      </trkpt>
      <trkpt lat="4.8313120" lon="-75.4161590">
        <ele>3799.0</ele>
        <time>2021-04-17T18:02:39Z</time>
      </trkpt>
      <trkpt lat="4.8313070" lon="-75.4161510">
        <ele>3799.2</ele>
        <time>2021-04-17T18:02:40Z</time>
      </trkpt>
      <trkpt lat="4.8313070" lon="-75.4161470">
        <ele>3799.4</ele>
        <time>2021-04-17T18:02:42Z</time>
      </trkpt>
      <trkpt lat="4.8313240" lon="-75.4160900">
        <ele>3801.4</ele>
        <time>2021-04-17T18:17:54Z</time>
      </trkpt>
      <trkpt lat="4.8313230" lon="-75.4160900">
        <ele>3801.4</ele>
        <time>2021-04-17T18:17:55Z</time>
      </trkpt>
      <trkpt lat="4.8313150" lon="-75.4160540">
        <ele>3801.6</ele>
        <time>2021-04-17T18:18:01Z</time>
      </trkpt>
      <trkpt lat="4.8313060" lon="-75.4159190">
        <ele>3801.6</ele>
        <time>2021-04-17T18:18:07Z</time>
      </trkpt>
      <trkpt lat="4.8313010" lon="-75.4158140">
        <ele>3801.8</ele>
        <time>2021-04-17T18:18:13Z</time>
      </trkpt>
      <trkpt lat="4.8313020" lon="-75.4157710">
        <ele>3801.8</ele>
        <time>2021-04-17T18:18:18Z</time>
      </trkpt>
      <trkpt lat="4.8313190" lon="-75.4157680">
        <ele>3801.6</ele>
        <time>2021-04-17T18:18:20Z</time>
      </trkpt>
      <trkpt lat="4.8313200" lon="-75.4158150">
        <ele>3801.6</ele>
        <time>2021-04-17T18:18:24Z</time>
      </trkpt>
      <trkpt lat="4.8313190" lon="-75.4158290">
        <ele>3801.6</ele>
        <time>2021-04-17T18:18:25Z</time>
      </trkpt>
      <trkpt lat="4.8313160" lon="-75.4159820">
        <ele>3801.6</ele>
        <time>2021-04-17T18:18:35Z</time>
      </trkpt>
      <trkpt lat="4.8313230" lon="-75.4160800">
        <ele>3801.8</ele>
        <time>2021-04-17T18:18:43Z</time>
      </trkpt>
      <trkpt lat="4.8313310" lon="-75.4161170">
        <ele>3801.8</ele>
        <time>2021-04-17T18:18:49Z</time>
      </trkpt>
      <trkpt lat="4.8313180" lon="-75.4160660">
        <ele>3803.6</ele>
        <time>2021-04-17T18:29:26Z</time>
      </trkpt>
      <trkpt lat="4.8313250" lon="-75.4160180">
        <ele>3803.6</ele>
        <time>2021-04-17T18:29:28Z</time>
      </trkpt>
      <trkpt lat="4.8313200" lon="-75.4158540">
        <ele>3803.6</ele>
        <time>2021-04-17T18:29:32Z</time>
      </trkpt>
      <trkpt lat="4.8313190" lon="-75.4158040">
        <ele>3803.6</ele>
        <time>2021-04-17T18:29:33Z</time>
      </trkpt>
      <trkpt lat="4.8312960" lon="-75.4154590">
        <ele>3803.6</ele>
        <time>2021-04-17T18:29:40Z</time>
      </trkpt>
      <trkpt lat="4.8312690" lon="-75.4150950">
        <ele>3803.4</ele>
        <time>2021-04-17T18:29:47Z</time>
      </trkpt>
      <trkpt lat="4.8312710" lon="-75.4148730">
        <ele>3803.4</ele>
        <time>2021-04-17T18:29:51Z</time>
      </trkpt>
      <trkpt lat="4.8312770" lon="-75.4148340">
        <ele>3803.2</ele>
        <time>2021-04-17T18:29:52Z</time>
      </trkpt>
      <trkpt lat="4.8312950" lon="-75.4147050">
        <ele>3803.0</ele>
        <time>2021-04-17T18:29:57Z</time>
      </trkpt>
      <trkpt lat="4.8313020" lon="-75.4144930">
        <ele>3803.6</ele>
        <time>2021-04-17T18:30:06Z</time>
      </trkpt>
      <trkpt lat="4.8312940" lon="-75.4143470">
        <ele>3804.6</ele>
        <time>2021-04-17T18:30:12Z</time>
      </trkpt>
      <trkpt lat="4.8312870" lon="-75.4142720">
        <ele>3805.0</ele>
        <time>2021-04-17T18:30:15Z</time>
      </trkpt>
      <trkpt lat="4.8312790" lon="-75.4141490">
        <ele>3805.8</ele>
        <time>2021-04-17T18:30:20Z</time>
      </trkpt>
      <trkpt lat="4.8312770" lon="-75.4140990">
        <ele>3806.2</ele>
        <time>2021-04-17T18:30:22Z</time>
      </trkpt>
      <trkpt lat="4.8312930" lon="-75.4139300">
        <ele>3806.8</ele>
        <time>2021-04-17T18:30:29Z</time>
      </trkpt>
      <trkpt lat="4.8313210" lon="-75.4138270">
        <ele>3807.0</ele>
        <time>2021-04-17T18:30:34Z</time>
      </trkpt>
      <trkpt lat="4.8313840" lon="-75.4137640">
        <ele>3807.8</ele>
        <time>2021-04-17T18:30:39Z</time>
      </trkpt>
      <trkpt lat="4.8314180" lon="-75.4137480">
        <ele>3808.2</ele>
        <time>2021-04-17T18:30:41Z</time>
      </trkpt>
      <trkpt lat="4.8314880" lon="-75.4137350">
        <ele>3808.8</ele>
        <time>2021-04-17T18:30:45Z</time>
      </trkpt>
      <trkpt lat="4.8315610" lon="-75.4137390">
        <ele>3809.4</ele>
        <time>2021-04-17T18:30:49Z</time>
      </trkpt>
      <trkpt lat="4.8316170" lon="-75.4137440">
        <ele>3810.0</ele>
        <time>2021-04-17T18:30:52Z</time>
      </trkpt>
      <trkpt lat="4.8316880" lon="-75.4137380">
        <ele>3811.0</ele>
        <time>2021-04-17T18:30:56Z</time>
      </trkpt>
      <trkpt lat="4.8317220" lon="-75.4137340">
        <ele>3811.2</ele>
        <time>2021-04-17T18:30:58Z</time>
      </trkpt>
      <trkpt lat="4.8317950" lon="-75.4137060">
        <ele>3812.0</ele>
        <time>2021-04-17T18:31:03Z</time>
      </trkpt>
      <trkpt lat="4.8318250" lon="-75.4136890">
        <ele>3812.2</ele>
        <time>2021-04-17T18:31:05Z</time>
      </trkpt>
      <trkpt lat="4.8319010" lon="-75.4136290">
        <ele>3813.2</ele>
        <time>2021-04-17T18:31:11Z</time>
      </trkpt>
      <trkpt lat="4.8319130" lon="-75.4136190">
        <ele>3813.4</ele>
        <time>2021-04-17T18:31:12Z</time>
      </trkpt>
      <trkpt lat="4.8319900" lon="-75.4135580">
        <ele>3814.2</ele>
        <time>2021-04-17T18:31:19Z</time>
      </trkpt>
      <trkpt lat="4.8320100" lon="-75.4135420">
        <ele>3814.4</ele>
        <time>2021-04-17T18:31:21Z</time>
      </trkpt>
      <trkpt lat="4.8320730" lon="-75.4134910">
        <ele>3815.2</ele>
        <time>2021-04-17T18:31:27Z</time>
      </trkpt>
      <trkpt lat="4.8321050" lon="-75.4134680">
        <ele>3815.6</ele>
        <time>2021-04-17T18:31:30Z</time>
      </trkpt>
      <trkpt lat="4.8321450" lon="-75.4134380">
        <ele>3816.2</ele>
        <time>2021-04-17T18:31:34Z</time>
      </trkpt>
      <trkpt lat="4.8321700" lon="-75.4134030">
        <ele>3816.6</ele>
        <time>2021-04-17T18:31:37Z</time>
      </trkpt>
      <trkpt lat="4.8322150" lon="-75.4133210">
        <ele>3817.4</ele>
        <time>2021-04-17T18:31:43Z</time>
      </trkpt>
      <trkpt lat="4.8322290" lon="-75.4132760">
        <ele>3817.8</ele>
        <time>2021-04-17T18:31:46Z</time>
      </trkpt>
      <trkpt lat="4.8322340" lon="-75.4132120">
        <ele>3818.2</ele>
        <time>2021-04-17T18:31:50Z</time>
      </trkpt>
      <trkpt lat="4.8322620" lon="-75.4131190">
        <ele>3819.0</ele>
        <time>2021-04-17T18:31:57Z</time>
      </trkpt>
      <trkpt lat="4.8323010" lon="-75.4130100">
        <ele>3819.8</ele>
        <time>2021-04-17T18:32:04Z</time>
      </trkpt>
      <trkpt lat="4.8323080" lon="-75.4129780">
        <ele>3820.0</ele>
        <time>2021-04-17T18:32:06Z</time>
      </trkpt>
      <trkpt lat="4.8323220" lon="-75.4129060">
        <ele>3820.6</ele>
        <time>2021-04-17T18:32:11Z</time>
      </trkpt>
      <trkpt lat="4.8323350" lon="-75.4128450">
        <ele>3821.0</ele>
        <time>2021-04-17T18:32:15Z</time>
      </trkpt>
      <trkpt lat="4.8323530" lon="-75.4127620">
        <ele>3821.8</ele>
        <time>2021-04-17T18:32:21Z</time>
      </trkpt>
      <trkpt lat="4.8323570" lon="-75.4127500">
        <ele>3822.2</ele>
        <time>2021-04-17T18:32:22Z</time>
      </trkpt>
      <trkpt lat="4.8323840" lon="-75.4126740">
        <ele>3823.0</ele>
        <time>2021-04-17T18:32:28Z</time>
      </trkpt>
      <trkpt lat="4.8323930" lon="-75.4126510">
        <ele>3823.6</ele>
        <time>2021-04-17T18:32:30Z</time>
      </trkpt>
      <trkpt lat="4.8324200" lon="-75.4125920">
        <ele>3824.2</ele>
        <time>2021-04-17T18:32:35Z</time>
      </trkpt>
      <trkpt lat="4.8324360" lon="-75.4125640">
        <ele>3824.6</ele>
        <time>2021-04-17T18:32:37Z</time>
      </trkpt>
      <trkpt lat="4.8324770" lon="-75.4124720">
        <ele>3825.0</ele>
        <time>2021-04-17T18:32:43Z</time>
      </trkpt>
      <trkpt lat="4.8325080" lon="-75.4123970">
        <ele>3825.8</ele>
        <time>2021-04-17T18:32:49Z</time>
      </trkpt>
      <trkpt lat="4.8325120" lon="-75.4123850">
        <ele>3825.8</ele>
        <time>2021-04-17T18:32:50Z</time>
      </trkpt>
      <trkpt lat="4.8325150" lon="-75.4123710">
        <ele>3825.8</ele>
        <time>2021-04-17T18:32:51Z</time>
      </trkpt>
      <trkpt lat="4.8325460" lon="-75.4122860">
        <ele>3826.8</ele>
        <time>2021-04-17T18:32:57Z</time>
      </trkpt>
      <trkpt lat="4.8325520" lon="-75.4122720">
        <ele>3826.8</ele>
        <time>2021-04-17T18:32:58Z</time>
      </trkpt>
      <trkpt lat="4.8325590" lon="-75.4122580">
        <ele>3827.2</ele>
        <time>2021-04-17T18:32:59Z</time>
      </trkpt>
      <trkpt lat="4.8326080" lon="-75.4121450">
        <ele>3827.8</ele>
        <time>2021-04-17T18:33:06Z</time>
      </trkpt>
      <trkpt lat="4.8326840" lon="-75.4120210">
        <ele>3828.6</ele>
        <time>2021-04-17T18:33:14Z</time>
      </trkpt>
      <trkpt lat="4.8327150" lon="-75.4119790">
        <ele>3829.0</ele>
        <time>2021-04-17T18:33:17Z</time>
      </trkpt>
      <trkpt lat="4.8327540" lon="-75.4119270">
        <ele>3829.6</ele>
        <time>2021-04-17T18:33:21Z</time>
      </trkpt>
      <trkpt lat="4.8328100" lon="-75.4118630">
        <ele>3830.2</ele>
        <time>2021-04-17T18:33:26Z</time>
      </trkpt>
      <trkpt lat="4.8328320" lon="-75.4118350">
        <ele>3830.2</ele>
        <time>2021-04-17T18:33:28Z</time>
      </trkpt>
      <trkpt lat="4.8329070" lon="-75.4117660">
        <ele>3831.2</ele>
        <time>2021-04-17T18:33:33Z</time>
      </trkpt>
      <trkpt lat="4.8329480" lon="-75.4117370">
        <ele>3831.4</ele>
        <time>2021-04-17T18:33:35Z</time>
      </trkpt>
      <trkpt lat="4.8331460" lon="-75.4116380">
        <ele>3831.8</ele>
        <time>2021-04-17T18:33:43Z</time>
      </trkpt>
      <trkpt lat="4.8333390" lon="-75.4115990">
        <ele>3832.2</ele>
        <time>2021-04-17T18:33:50Z</time>
      </trkpt>
      <trkpt lat="4.8333850" lon="-75.4116070">
        <ele>3832.2</ele>
        <time>2021-04-17T18:33:52Z</time>
      </trkpt>
      <trkpt lat="4.8335070" lon="-75.4116120">
        <ele>3833.0</ele>
        <time>2021-04-17T18:33:57Z</time>
      </trkpt>
      <trkpt lat="4.8335860" lon="-75.4116170">
        <ele>3833.2</ele>
        <time>2021-04-17T18:34:01Z</time>
      </trkpt>
      <trkpt lat="4.8336450" lon="-75.4116110">
        <ele>3833.6</ele>
        <time>2021-04-17T18:34:04Z</time>
      </trkpt>
      <trkpt lat="4.8337770" lon="-75.4116050">
        <ele>3834.4</ele>
        <time>2021-04-17T18:34:10Z</time>
      </trkpt>
      <trkpt lat="4.8338000" lon="-75.4116020">
        <ele>3834.4</ele>
        <time>2021-04-17T18:34:12Z</time>
      </trkpt>
      <trkpt lat="4.8356060" lon="-75.4112180">
        <ele>3941.5</ele>
        <time>2021-04-17T18:35:06Z</time>
      </trkpt>
      <trkpt lat="4.8356060" lon="-75.4112180">
        <ele>3941.5</ele>
        <time>2021-04-17T18:35:07Z</time>
      </trkpt>
      <trkpt lat="4.8356060" lon="-75.4112180">
        <ele>3941.5</ele>
        <time>2021-04-17T18:35:09Z</time>
      </trkpt>
      <trkpt lat="4.8356330" lon="-75.4111560">
        <ele>3941.7</ele>
        <time>2021-04-17T18:35:10Z</time>
      </trkpt>
      <trkpt lat="4.8356710" lon="-75.4111890">
        <ele>3941.8</ele>
        <time>2021-04-17T18:35:11Z</time>
      </trkpt>
      <trkpt lat="4.8357040" lon="-75.4112260">
        <ele>3942.0</ele>
        <time>2021-04-17T18:35:12Z</time>
      </trkpt>
      <trkpt lat="4.8357560" lon="-75.4112050">
        <ele>3942.1</ele>
        <time>2021-04-17T18:35:13Z</time>
      </trkpt>
      <trkpt lat="4.8357770" lon="-75.4112230">
        <ele>3942.2</ele>
        <time>2021-04-17T18:35:14Z</time>
      </trkpt>
      <trkpt lat="4.8358020" lon="-75.4112310">
        <ele>3942.3</ele>
        <time>2021-04-17T18:35:15Z</time>
      </trkpt>
      <trkpt lat="4.8358270" lon="-75.4112400">
        <ele>3942.3</ele>
        <time>2021-04-17T18:35:16Z</time>
      </trkpt>
      <trkpt lat="4.8358620" lon="-75.4112680">
        <ele>3942.5</ele>
        <time>2021-04-17T18:35:17Z</time>
      </trkpt>
      <trkpt lat="4.8358820" lon="-75.4112860">
        <ele>3942.5</ele>
        <time>2021-04-17T18:35:18Z</time>
      </trkpt>
      <trkpt lat="4.8359050" lon="-75.4113170">
        <ele>3942.6</ele>
        <time>2021-04-17T18:35:19Z</time>
      </trkpt>
      <trkpt lat="4.8359190" lon="-75.4113450">
        <ele>3942.7</ele>
        <time>2021-04-17T18:35:20Z</time>
      </trkpt>
      <trkpt lat="4.8359520" lon="-75.4113930">
        <ele>3942.9</ele>
        <time>2021-04-17T18:35:22Z</time>
      </trkpt>
      <trkpt lat="4.8359590" lon="-75.4114140">
        <ele>3943.0</ele>
        <time>2021-04-17T18:35:23Z</time>
      </trkpt>
      <trkpt lat="4.8359810" lon="-75.4114260">
        <ele>3943.0</ele>
        <time>2021-04-17T18:35:24Z</time>
      </trkpt>
      <trkpt lat="4.8359930" lon="-75.4114540">
        <ele>3943.1</ele>
        <time>2021-04-17T18:35:25Z</time>
      </trkpt>
      <trkpt lat="4.8360160" lon="-75.4114790">
        <ele>3943.2</ele>
        <time>2021-04-17T18:35:26Z</time>
      </trkpt>
      <trkpt lat="4.8360170" lon="-75.4115060">
        <ele>3943.3</ele>
        <time>2021-04-17T18:35:27Z</time>
      </trkpt>
      <trkpt lat="4.8360350" lon="-75.4115280">
        <ele>3943.4</ele>
        <time>2021-04-17T18:35:28Z</time>
      </trkpt>
      <trkpt lat="4.8360490" lon="-75.4115470">
        <ele>3943.4</ele>
        <time>2021-04-17T18:35:29Z</time>
      </trkpt>
      <trkpt lat="4.8360750" lon="-75.4115750">
        <ele>3943.5</ele>
        <time>2021-04-17T18:35:30Z</time>
      </trkpt>
      <trkpt lat="4.8360750" lon="-75.4115890">
        <ele>3943.6</ele>
        <time>2021-04-17T18:35:31Z</time>
      </trkpt>
      <trkpt lat="4.8360980" lon="-75.4115840">
        <ele>3943.6</ele>
        <time>2021-04-17T18:35:32Z</time>
      </trkpt>
      <trkpt lat="4.8361230" lon="-75.4116050">
        <ele>3943.7</ele>
        <time>2021-04-17T18:35:33Z</time>
      </trkpt>
      <trkpt lat="4.8361270" lon="-75.4116190">
        <ele>3943.8</ele>
        <time>2021-04-17T18:35:34Z</time>
      </trkpt>
      <trkpt lat="4.8361400" lon="-75.4116440">
        <ele>3943.8</ele>
        <time>2021-04-17T18:35:35Z</time>
      </trkpt>
      <trkpt lat="4.8361550" lon="-75.4116670">
        <ele>3943.9</ele>
        <time>2021-04-17T18:35:36Z</time>
      </trkpt>
      <trkpt lat="4.8361750" lon="-75.4116860">
        <ele>3944.0</ele>
        <time>2021-04-17T18:35:37Z</time>
      </trkpt>
      <trkpt lat="4.8361830" lon="-75.4116910">
        <ele>3944.0</ele>
        <time>2021-04-17T18:35:38Z</time>
      </trkpt>
      <trkpt lat="4.8362040" lon="-75.4117120">
        <ele>3944.1</ele>
        <time>2021-04-17T18:35:39Z</time>
      </trkpt>
      <trkpt lat="4.8362200" lon="-75.4117340">
        <ele>3944.2</ele>
        <time>2021-04-17T18:35:40Z</time>
      </trkpt>
      <trkpt lat="4.8362370" lon="-75.4117560">
        <ele>3944.3</ele>
        <time>2021-04-17T18:35:41Z</time>
      </trkpt>
      <trkpt lat="4.8362540" lon="-75.4117780">
        <ele>3944.3</ele>
        <time>2021-04-17T18:35:42Z</time>
      </trkpt>
      <trkpt lat="4.8362720" lon="-75.4118010">
        <ele>3944.4</ele>
        <time>2021-04-17T18:35:43Z</time>
      </trkpt>
      <trkpt lat="4.8362910" lon="-75.4118240">
        <ele>3944.5</ele>
        <time>2021-04-17T18:35:44Z</time>
      </trkpt>
      <trkpt lat="4.8363070" lon="-75.4118460">
        <ele>3944.6</ele>
        <time>2021-04-17T18:35:45Z</time>
      </trkpt>
      <trkpt lat="4.8363240" lon="-75.4118680">
        <ele>3944.7</ele>
        <time>2021-04-17T18:35:46Z</time>
      </trkpt>
      <trkpt lat="4.8363430" lon="-75.4118900">
        <ele>3944.7</ele>
        <time>2021-04-17T18:35:47Z</time>
      </trkpt>
      <trkpt lat="4.8363590" lon="-75.4119130">
        <ele>3944.8</ele>
        <time>2021-04-17T18:35:48Z</time>
      </trkpt>
      <trkpt lat="4.8363740" lon="-75.4119400">
        <ele>3944.9</ele>
        <time>2021-04-17T18:35:49Z</time>
      </trkpt>
      <trkpt lat="4.8363920" lon="-75.4119690">
        <ele>3945.0</ele>
        <time>2021-04-17T18:35:50Z</time>
      </trkpt>
      <trkpt lat="4.8364140" lon="-75.4119990">
        <ele>3945.1</ele>
        <time>2021-04-17T18:35:51Z</time>
      </trkpt>
      <trkpt lat="4.8364360" lon="-75.4120290">
        <ele>3945.2</ele>
        <time>2021-04-17T18:35:52Z</time>
      </trkpt>
      <trkpt lat="4.8364580" lon="-75.4120580">
        <ele>3945.3</ele>
        <time>2021-04-17T18:35:53Z</time>
      </trkpt>
      <trkpt lat="4.8364810" lon="-75.4120880">
        <ele>3945.4</ele>
        <time>2021-04-17T18:35:54Z</time>
      </trkpt>
      <trkpt lat="4.8365030" lon="-75.4121180">
        <ele>3945.5</ele>
        <time>2021-04-17T18:35:55Z</time>
      </trkpt>
      <trkpt lat="4.8365240" lon="-75.4121450">
        <ele>3945.6</ele>
        <time>2021-04-17T18:35:56Z</time>
      </trkpt>
      <trkpt lat="4.8365440" lon="-75.4121710">
        <ele>3945.7</ele>
        <time>2021-04-17T18:35:57Z</time>
      </trkpt>
      <trkpt lat="4.8365660" lon="-75.4121970">
        <ele>3945.8</ele>
        <time>2021-04-17T18:35:58Z</time>
      </trkpt>
      <trkpt lat="4.8365870" lon="-75.4122220">
        <ele>3945.9</ele>
        <time>2021-04-17T18:35:59Z</time>
      </trkpt>
      <trkpt lat="4.8366070" lon="-75.4122470">
        <ele>3946.0</ele>
        <time>2021-04-17T18:36:00Z</time>
      </trkpt>
      <trkpt lat="4.8366300" lon="-75.4122720">
        <ele>3946.1</ele>
        <time>2021-04-17T18:36:01Z</time>
      </trkpt>
      <trkpt lat="4.8366520" lon="-75.4122960">
        <ele>3946.2</ele>
        <time>2021-04-17T18:36:02Z</time>
      </trkpt>
      <trkpt lat="4.8366730" lon="-75.4123200">
        <ele>3946.2</ele>
        <time>2021-04-17T18:36:03Z</time>
      </trkpt>
      <trkpt lat="4.8366940" lon="-75.4123450">
        <ele>3946.3</ele>
        <time>2021-04-17T18:36:04Z</time>
      </trkpt>
      <trkpt lat="4.8367160" lon="-75.4123710">
        <ele>3946.4</ele>
        <time>2021-04-17T18:36:05Z</time>
      </trkpt>
      <trkpt lat="4.8367390" lon="-75.4123970">
        <ele>3946.5</ele>
        <time>2021-04-17T18:36:06Z</time>
      </trkpt>
      <trkpt lat="4.8367600" lon="-75.4124240">
        <ele>3946.6</ele>
        <time>2021-04-17T18:36:07Z</time>
      </trkpt>
      <trkpt lat="4.8367790" lon="-75.4124540">
        <ele>3946.7</ele>
        <time>2021-04-17T18:36:08Z</time>
      </trkpt>
      <trkpt lat="4.8368010" lon="-75.4124830">
        <ele>3946.8</ele>
        <time>2021-04-17T18:36:09Z</time>
      </trkpt>
      <trkpt lat="4.8368240" lon="-75.4125110">
        <ele>3946.9</ele>
        <time>2021-04-17T18:36:10Z</time>
      </trkpt>
      <trkpt lat="4.8368480" lon="-75.4125370">
        <ele>3947.0</ele>
        <time>2021-04-17T18:36:11Z</time>
      </trkpt>
      <trkpt lat="4.8368710" lon="-75.4125610">
        <ele>3947.1</ele>
        <time>2021-04-17T18:36:12Z</time>
      </trkpt>
      <trkpt lat="4.8368960" lon="-75.4125840">
        <ele>3947.2</ele>
        <time>2021-04-17T18:36:13Z</time>
      </trkpt>
      <trkpt lat="4.8369220" lon="-75.4126050">
        <ele>3947.3</ele>
        <time>2021-04-17T18:36:14Z</time>
      </trkpt>
      <trkpt lat="4.8369490" lon="-75.4126270">
        <ele>3947.4</ele>
        <time>2021-04-17T18:36:15Z</time>
      </trkpt>
      <trkpt lat="4.8369770" lon="-75.4126480">
        <ele>3947.5</ele>
        <time>2021-04-17T18:36:16Z</time>
      </trkpt>
      <trkpt lat="4.8370080" lon="-75.4126690">
        <ele>3947.6</ele>
        <time>2021-04-17T18:36:17Z</time>
      </trkpt>
      <trkpt lat="4.8370430" lon="-75.4126890">
        <ele>3947.7</ele>
        <time>2021-04-17T18:36:18Z</time>
      </trkpt>
      <trkpt lat="4.8370800" lon="-75.4127060">
        <ele>3947.8</ele>
        <time>2021-04-17T18:36:19Z</time>
      </trkpt>
      <trkpt lat="4.8371190" lon="-75.4127220">
        <ele>3947.9</ele>
        <time>2021-04-17T18:36:20Z</time>
      </trkpt>
      <trkpt lat="4.8371590" lon="-75.4127370">
        <ele>3948.1</ele>
        <time>2021-04-17T18:36:21Z</time>
      </trkpt>
      <trkpt lat="4.8371970" lon="-75.4127530">
        <ele>3948.2</ele>
        <time>2021-04-17T18:36:22Z</time>
      </trkpt>
      <trkpt lat="4.8372340" lon="-75.4127700">
        <ele>3948.3</ele>
        <time>2021-04-17T18:36:23Z</time>
      </trkpt>
      <trkpt lat="4.8372700" lon="-75.4127850">
        <ele>3948.4</ele>
        <time>2021-04-17T18:36:24Z</time>
      </trkpt>
      <trkpt lat="4.8373080" lon="-75.4128000">
        <ele>3948.5</ele>
        <time>2021-04-17T18:36:25Z</time>
      </trkpt>
      <trkpt lat="4.8373470" lon="-75.4128120">
        <ele>3948.6</ele>
        <time>2021-04-17T18:36:26Z</time>
      </trkpt>
      <trkpt lat="4.8373860" lon="-75.4128250">
        <ele>3948.7</ele>
        <time>2021-04-17T18:36:27Z</time>
      </trkpt>
      <trkpt lat="4.8374230" lon="-75.4128370">
        <ele>3948.8</ele>
        <time>2021-04-17T18:36:28Z</time>
      </trkpt>
      <trkpt lat="4.8374580" lon="-75.4128460">
        <ele>3948.9</ele>
        <time>2021-04-17T18:36:29Z</time>
      </trkpt>
      <trkpt lat="4.8374910" lon="-75.4128510">
        <ele>3949.0</ele>
        <time>2021-04-17T18:36:30Z</time>
      </trkpt>
      <trkpt lat="4.8375240" lon="-75.4128510">
        <ele>3949.1</ele>
        <time>2021-04-17T18:36:31Z</time>
      </trkpt>
      <trkpt lat="4.8375580" lon="-75.4128470">
        <ele>3949.2</ele>
        <time>2021-04-17T18:36:32Z</time>
      </trkpt>
      <trkpt lat="4.8375920" lon="-75.4128390">
        <ele>3949.3</ele>
        <time>2021-04-17T18:36:33Z</time>
      </trkpt>
      <trkpt lat="4.8376280" lon="-75.4128340">
        <ele>3949.4</ele>
        <time>2021-04-17T18:36:34Z</time>
      </trkpt>
      <trkpt lat="4.8376650" lon="-75.4128350">
        <ele>3949.5</ele>
        <time>2021-04-17T18:36:35Z</time>
      </trkpt>
      <trkpt lat="4.8377050" lon="-75.4128330">
        <ele>3949.6</ele>
        <time>2021-04-17T18:36:36Z</time>
      </trkpt>
      <trkpt lat="4.8377460" lon="-75.4128260">
        <ele>3949.8</ele>
        <time>2021-04-17T18:36:37Z</time>
      </trkpt>
      <trkpt lat="4.8377870" lon="-75.4128200">
        <ele>3949.9</ele>
        <time>2021-04-17T18:36:38Z</time>
      </trkpt>
      <trkpt lat="4.8378290" lon="-75.4128140">
        <ele>3950.0</ele>
        <time>2021-04-17T18:36:39Z</time>
      </trkpt>
      <trkpt lat="4.8378720" lon="-75.4128080">
        <ele>3950.1</ele>
        <time>2021-04-17T18:36:40Z</time>
      </trkpt>
      <trkpt lat="4.8379150" lon="-75.4127980">
        <ele>3950.2</ele>
        <time>2021-04-17T18:36:41Z</time>
      </trkpt>
      <trkpt lat="4.8379570" lon="-75.4127850">
        <ele>3950.4</ele>
        <time>2021-04-17T18:36:42Z</time>
      </trkpt>
      <trkpt lat="4.8379990" lon="-75.4127700">
        <ele>3950.5</ele>
        <time>2021-04-17T18:36:43Z</time>
      </trkpt>
      <trkpt lat="4.8380420" lon="-75.4127520">
        <ele>3950.6</ele>
        <time>2021-04-17T18:36:44Z</time>
      </trkpt>
      <trkpt lat="4.8380850" lon="-75.4127300">
        <ele>3950.7</ele>
        <time>2021-04-17T18:36:45Z</time>
      </trkpt>
      <trkpt lat="4.8381260" lon="-75.4127050">
        <ele>3950.9</ele>
        <time>2021-04-17T18:36:46Z</time>
      </trkpt>
      <trkpt lat="4.8381640" lon="-75.4126760">
        <ele>3951.0</ele>
        <time>2021-04-17T18:36:47Z</time>
      </trkpt>
      <trkpt lat="4.8382000" lon="-75.4126430">
        <ele>3951.0</ele>
        <time>2021-04-17T18:36:48Z</time>
      </trkpt>
      <trkpt lat="4.8382340" lon="-75.4126090">
        <ele>3951.0</ele>
        <time>2021-04-17T18:36:49Z</time>
      </trkpt>
      <trkpt lat="4.8382660" lon="-75.4125700">
        <ele>3951.0</ele>
        <time>2021-04-17T18:36:50Z</time>
      </trkpt>
      <trkpt lat="4.8382960" lon="-75.4125280">
        <ele>3951.0</ele>
        <time>2021-04-17T18:36:51Z</time>
      </trkpt>
      <trkpt lat="4.8383240" lon="-75.4124830">
        <ele>3951.0</ele>
        <time>2021-04-17T18:36:52Z</time>
      </trkpt>
      <trkpt lat="4.8383480" lon="-75.4124350">
        <ele>3951.0</ele>
        <time>2021-04-17T18:36:53Z</time>
      </trkpt>
      <trkpt lat="4.8383710" lon="-75.4123850">
        <ele>3951.0</ele>
        <time>2021-04-17T18:36:54Z</time>
      </trkpt>
      <trkpt lat="4.8383910" lon="-75.4123340">
        <ele>3951.1</ele>
        <time>2021-04-17T18:36:55Z</time>
      </trkpt>
      <trkpt lat="4.8384050" lon="-75.4122810">
        <ele>3951.1</ele>
        <time>2021-04-17T18:36:56Z</time>
      </trkpt>
      <trkpt lat="4.8384170" lon="-75.4122260">
        <ele>3951.1</ele>
        <time>2021-04-17T18:36:57Z</time>
      </trkpt>
      <trkpt lat="4.8384270" lon="-75.4121720">
        <ele>3951.1</ele>
        <time>2021-04-17T18:36:58Z</time>
      </trkpt>
      <trkpt lat="4.8384340" lon="-75.4121160">
        <ele>3951.1</ele>
        <time>2021-04-17T18:36:59Z</time>
      </trkpt>
      <trkpt lat="4.8384380" lon="-75.4120610">
        <ele>3951.1</ele>
        <time>2021-04-17T18:37:00Z</time>
      </trkpt>
      <trkpt lat="4.8384400" lon="-75.4120080">
        <ele>3951.1</ele>
        <time>2021-04-17T18:37:01Z</time>
      </trkpt>
      <trkpt lat="4.8384420" lon="-75.4119550">
        <ele>3951.1</ele>
        <time>2021-04-17T18:37:02Z</time>
      </trkpt>
      <trkpt lat="4.8384410" lon="-75.4119020">
        <ele>3951.1</ele>
        <time>2021-04-17T18:37:03Z</time>
      </trkpt>
      <trkpt lat="4.8384340" lon="-75.4118500">
        <ele>3951.1</ele>
        <time>2021-04-17T18:37:04Z</time>
      </trkpt>
      <trkpt lat="4.8384240" lon="-75.4117990">
        <ele>3951.1</ele>
        <time>2021-04-17T18:37:05Z</time>
      </trkpt>
      <trkpt lat="4.8384120" lon="-75.4117490">
        <ele>3951.1</ele>
        <time>2021-04-17T18:37:06Z</time>
      </trkpt>
      <trkpt lat="4.8383980" lon="-75.4116990">
        <ele>3951.1</ele>
        <time>2021-04-17T18:37:07Z</time>
      </trkpt>
      <trkpt lat="4.8383810" lon="-75.4116480">
        <ele>3951.1</ele>
        <time>2021-04-17T18:37:08Z</time>
      </trkpt>
      <trkpt lat="4.8383620" lon="-75.4115970">
        <ele>3951.1</ele>
        <time>2021-04-17T18:37:09Z</time>
      </trkpt>
      <trkpt lat="4.8383420" lon="-75.4115460">
        <ele>3951.1</ele>
        <time>2021-04-17T18:37:10Z</time>
      </trkpt>
      <trkpt lat="4.8383220" lon="-75.4114960">
        <ele>3951.1</ele>
        <time>2021-04-17T18:37:11Z</time>
      </trkpt>
      <trkpt lat="4.8383010" lon="-75.4114460">
        <ele>3951.2</ele>
        <time>2021-04-17T18:37:12Z</time>
      </trkpt>
      <trkpt lat="4.8382780" lon="-75.4113940">
        <ele>3951.2</ele>
        <time>2021-04-17T18:37:13Z</time>
      </trkpt>
      <trkpt lat="4.8382520" lon="-75.4113410">
        <ele>3951.2</ele>
        <time>2021-04-17T18:37:14Z</time>
      </trkpt>
      <trkpt lat="4.8382250" lon="-75.4112860">
        <ele>3951.2</ele>
        <time>2021-04-17T18:37:15Z</time>
      </trkpt>
      <trkpt lat="4.8381990" lon="-75.4112300">
        <ele>3951.2</ele>
        <time>2021-04-17T18:37:16Z</time>
      </trkpt>
      <trkpt lat="4.8381700" lon="-75.4111760">
        <ele>3951.2</ele>
        <time>2021-04-17T18:37:17Z</time>
      </trkpt>
      <trkpt lat="4.8381420" lon="-75.4111240">
        <ele>3951.2</ele>
        <time>2021-04-17T18:37:18Z</time>
      </trkpt>
      <trkpt lat="4.8381180" lon="-75.4110710">
        <ele>3951.2</ele>
        <time>2021-04-17T18:37:19Z</time>
      </trkpt>
      <trkpt lat="4.8380990" lon="-75.4110170">
        <ele>3951.2</ele>
        <time>2021-04-17T18:37:20Z</time>
      </trkpt>
      <trkpt lat="4.8380840" lon="-75.4109630">
        <ele>3951.2</ele>
        <time>2021-04-17T18:37:21Z</time>
      </trkpt>
      <trkpt lat="4.8380720" lon="-75.4109080">
        <ele>3951.2</ele>
        <time>2021-04-17T18:37:22Z</time>
      </trkpt>
      <trkpt lat="4.8380580" lon="-75.4108540">
        <ele>3951.2</ele>
        <time>2021-04-17T18:37:23Z</time>
      </trkpt>
      <trkpt lat="4.8380410" lon="-75.4108000">
        <ele>3951.2</ele>
        <time>2021-04-17T18:37:24Z</time>
      </trkpt>
      <trkpt lat="4.8380210" lon="-75.4107460">
        <ele>3951.2</ele>
        <time>2021-04-17T18:37:25Z</time>
      </trkpt>
      <trkpt lat="4.8380040" lon="-75.4106940">
        <ele>3951.2</ele>
        <time>2021-04-17T18:37:26Z</time>
      </trkpt>
      <trkpt lat="4.8379900" lon="-75.4106430">
        <ele>3951.2</ele>
        <time>2021-04-17T18:37:27Z</time>
      </trkpt>
      <trkpt lat="4.8379780" lon="-75.4105920">
        <ele>3951.2</ele>
        <time>2021-04-17T18:37:28Z</time>
      </trkpt>
      <trkpt lat="4.8379690" lon="-75.4105410">
        <ele>3951.3</ele>
        <time>2021-04-17T18:37:29Z</time>
      </trkpt>
      <trkpt lat="4.8379630" lon="-75.4104920">
        <ele>3951.3</ele>
        <time>2021-04-17T18:37:30Z</time>
      </trkpt>
      <trkpt lat="4.8379560" lon="-75.4104450">
        <ele>3951.3</ele>
        <time>2021-04-17T18:37:31Z</time>
      </trkpt>
      <trkpt lat="4.8379480" lon="-75.4104000">
        <ele>3951.3</ele>
        <time>2021-04-17T18:37:32Z</time>
      </trkpt>
      <trkpt lat="4.8379410" lon="-75.4103580">
        <ele>3951.3</ele>
        <time>2021-04-17T18:37:33Z</time>
      </trkpt>
      <trkpt lat="4.8379350" lon="-75.4103190">
        <ele>3951.3</ele>
        <time>2021-04-17T18:37:34Z</time>
      </trkpt>
      <trkpt lat="4.8379290" lon="-75.4102820">
        <ele>3951.3</ele>
        <time>2021-04-17T18:37:35Z</time>
      </trkpt>
      <trkpt lat="4.8379230" lon="-75.4102470">
        <ele>3951.3</ele>
        <time>2021-04-17T18:37:36Z</time>
      </trkpt>
      <trkpt lat="4.8379160" lon="-75.4102120">
        <ele>3951.3</ele>
        <time>2021-04-17T18:37:37Z</time>
      </trkpt>
      <trkpt lat="4.8379100" lon="-75.4101790">
        <ele>3951.3</ele>
        <time>2021-04-17T18:37:38Z</time>
      </trkpt>
      <trkpt lat="4.8379030" lon="-75.4101470">
        <ele>3951.3</ele>
        <time>2021-04-17T18:37:39Z</time>
      </trkpt>
      <trkpt lat="4.8378960" lon="-75.4101160">
        <ele>3951.3</ele>
        <time>2021-04-17T18:37:40Z</time>
      </trkpt>
      <trkpt lat="4.8378930" lon="-75.4100840">
        <ele>3951.3</ele>
        <time>2021-04-17T18:37:41Z</time>
      </trkpt>
      <trkpt lat="4.8378980" lon="-75.4100510">
        <ele>3951.3</ele>
        <time>2021-04-17T18:37:42Z</time>
      </trkpt>
      <trkpt lat="4.8379130" lon="-75.4100200">
        <ele>3951.3</ele>
        <time>2021-04-17T18:37:43Z</time>
      </trkpt>
      <trkpt lat="4.8379360" lon="-75.4099930">
        <ele>3951.3</ele>
        <time>2021-04-17T18:37:44Z</time>
      </trkpt>
      <trkpt lat="4.8379660" lon="-75.4099750">
        <ele>3951.3</ele>
        <time>2021-04-17T18:37:45Z</time>
      </trkpt>
      <trkpt lat="4.8380000" lon="-75.4099640">
        <ele>3951.3</ele>
        <time>2021-04-17T18:37:46Z</time>
      </trkpt>
      <trkpt lat="4.8380360" lon="-75.4099550">
        <ele>3951.3</ele>
        <time>2021-04-17T18:37:47Z</time>
      </trkpt>
      <trkpt lat="4.8380740" lon="-75.4099490">
        <ele>3951.3</ele>
        <time>2021-04-17T18:37:48Z</time>
      </trkpt>
      <trkpt lat="4.8381120" lon="-75.4099470">
        <ele>3951.3</ele>
        <time>2021-04-17T18:37:49Z</time>
      </trkpt>
      <trkpt lat="4.8381530" lon="-75.4099450">
        <ele>3951.3</ele>
        <time>2021-04-17T18:37:50Z</time>
      </trkpt>
      <trkpt lat="4.8381920" lon="-75.4099440">
        <ele>3951.3</ele>
        <time>2021-04-17T18:37:51Z</time>
      </trkpt>
      <trkpt lat="4.8382320" lon="-75.4099460">
        <ele>3951.3</ele>
        <time>2021-04-17T18:37:52Z</time>
      </trkpt>
      <trkpt lat="4.8382730" lon="-75.4099470">
        <ele>3951.4</ele>
        <time>2021-04-17T18:37:53Z</time>
      </trkpt>
      <trkpt lat="4.8383150" lon="-75.4099440">
        <ele>3951.4</ele>
        <time>2021-04-17T18:37:54Z</time>
      </trkpt>
      <trkpt lat="4.8383580" lon="-75.4099380">
        <ele>3951.4</ele>
        <time>2021-04-17T18:37:55Z</time>
      </trkpt>
      <trkpt lat="4.8384010" lon="-75.4099300">
        <ele>3951.4</ele>
        <time>2021-04-17T18:37:56Z</time>
      </trkpt>
      <trkpt lat="4.8384440" lon="-75.4099220">
        <ele>3951.4</ele>
        <time>2021-04-17T18:37:57Z</time>
      </trkpt>
      <trkpt lat="4.8384860" lon="-75.4099160">
        <ele>3951.4</ele>
        <time>2021-04-17T18:37:58Z</time>
      </trkpt>
      <trkpt lat="4.8385300" lon="-75.4099130">
        <ele>3951.4</ele>
        <time>2021-04-17T18:37:59Z</time>
      </trkpt>
      <trkpt lat="4.8385730" lon="-75.4099110">
        <ele>3951.4</ele>
        <time>2021-04-17T18:38:00Z</time>
      </trkpt>
      <trkpt lat="4.8386170" lon="-75.4099090">
        <ele>3951.4</ele>
        <time>2021-04-17T18:38:01Z</time>
      </trkpt>
      <trkpt lat="4.8386610" lon="-75.4099080">
        <ele>3951.4</ele>
        <time>2021-04-17T18:38:02Z</time>
      </trkpt>
      <trkpt lat="4.8387050" lon="-75.4099050">
        <ele>3951.4</ele>
        <time>2021-04-17T18:38:03Z</time>
      </trkpt>
      <trkpt lat="4.8387480" lon="-75.4099010">
        <ele>3951.4</ele>
        <time>2021-04-17T18:38:04Z</time>
      </trkpt>
      <trkpt lat="4.8387920" lon="-75.4098970">
        <ele>3951.4</ele>
        <time>2021-04-17T18:38:05Z</time>
      </trkpt>
      <trkpt lat="4.8388340" lon="-75.4098940">
        <ele>3951.4</ele>
        <time>2021-04-17T18:38:06Z</time>
      </trkpt>
      <trkpt lat="4.8388760" lon="-75.4098920">
        <ele>3951.4</ele>
        <time>2021-04-17T18:38:07Z</time>
      </trkpt>
      <trkpt lat="4.8389140" lon="-75.4098910">
        <ele>3951.4</ele>
        <time>2021-04-17T18:38:08Z</time>
      </trkpt>
      <trkpt lat="4.8389520" lon="-75.4098880">
        <ele>3951.4</ele>
        <time>2021-04-17T18:38:09Z</time>
      </trkpt>
      <trkpt lat="4.8389880" lon="-75.4098860">
        <ele>3951.4</ele>
        <time>2021-04-17T18:38:10Z</time>
      </trkpt>
      <trkpt lat="4.8390240" lon="-75.4098840">
        <ele>3951.4</ele>
        <time>2021-04-17T18:38:11Z</time>
      </trkpt>
      <trkpt lat="4.8390610" lon="-75.4098830">
        <ele>3951.4</ele>
        <time>2021-04-17T18:38:12Z</time>
      </trkpt>
      <trkpt lat="4.8390980" lon="-75.4098810">
        <ele>3951.4</ele>
        <time>2021-04-17T18:38:13Z</time>
      </trkpt>
      <trkpt lat="4.8391370" lon="-75.4098780">
        <ele>3951.4</ele>
        <time>2021-04-17T18:38:14Z</time>
      </trkpt>
      <trkpt lat="4.8391750" lon="-75.4098760">
        <ele>3951.5</ele>
        <time>2021-04-17T18:38:15Z</time>
      </trkpt>
      <trkpt lat="4.8392150" lon="-75.4098750">
        <ele>3951.5</ele>
        <time>2021-04-17T18:38:16Z</time>
      </trkpt>
      <trkpt lat="4.8392550" lon="-75.4098750">
        <ele>3951.5</ele>
        <time>2021-04-17T18:38:17Z</time>
      </trkpt>
      <trkpt lat="4.8392940" lon="-75.4098750">
        <ele>3951.5</ele>
        <time>2021-04-17T18:38:18Z</time>
      </trkpt>
      <trkpt lat="4.8393340" lon="-75.4098760">
        <ele>3951.5</ele>
        <time>2021-04-17T18:38:19Z</time>
      </trkpt>
      <trkpt lat="4.8393730" lon="-75.4098780">
        <ele>3951.5</ele>
        <time>2021-04-17T18:38:20Z</time>
      </trkpt>
      <trkpt lat="4.8394120" lon="-75.4098800">
        <ele>3951.5</ele>
        <time>2021-04-17T18:38:21Z</time>
      </trkpt>
      <trkpt lat="4.8394490" lon="-75.4098830">
        <ele>3951.5</ele>
        <time>2021-04-17T18:38:22Z</time>
      </trkpt>
      <trkpt lat="4.8394850" lon="-75.4098850">
        <ele>3951.5</ele>
        <time>2021-04-17T18:38:23Z</time>
      </trkpt>
      <trkpt lat="4.8395210" lon="-75.4098870">
        <ele>3951.5</ele>
        <time>2021-04-17T18:38:24Z</time>
      </trkpt>
      <trkpt lat="4.8395570" lon="-75.4098880">
        <ele>3951.5</ele>
        <time>2021-04-17T18:38:25Z</time>
      </trkpt>
      <trkpt lat="4.8395920" lon="-75.4098890">
        <ele>3951.5</ele>
        <time>2021-04-17T18:38:26Z</time>
      </trkpt>
      <trkpt lat="4.8396290" lon="-75.4098900">
        <ele>3951.5</ele>
        <time>2021-04-17T18:38:27Z</time>
      </trkpt>
      <trkpt lat="4.8396650" lon="-75.4098920">
        <ele>3951.5</ele>
        <time>2021-04-17T18:38:28Z</time>
      </trkpt>
      <trkpt lat="4.8397020" lon="-75.4098960">
        <ele>3951.5</ele>
        <time>2021-04-17T18:38:29Z</time>
      </trkpt>
      <trkpt lat="4.8397380" lon="-75.4099010">
        <ele>3951.5</ele>
        <time>2021-04-17T18:38:30Z</time>
      </trkpt>
      <trkpt lat="4.8397740" lon="-75.4099070">
        <ele>3951.5</ele>
        <time>2021-04-17T18:38:31Z</time>
      </trkpt>
      <trkpt lat="4.8398100" lon="-75.4099120">
        <ele>3951.5</ele>
        <time>2021-04-17T18:38:32Z</time>
      </trkpt>
      <trkpt lat="4.8398450" lon="-75.4099210">
        <ele>3951.5</ele>
        <time>2021-04-17T18:38:33Z</time>
      </trkpt>
      <trkpt lat="4.8398790" lon="-75.4099310">
        <ele>3951.5</ele>
        <time>2021-04-17T18:38:34Z</time>
      </trkpt>
      <trkpt lat="4.8399150" lon="-75.4099420">
        <ele>3951.5</ele>
        <time>2021-04-17T18:38:35Z</time>
      </trkpt>
      <trkpt lat="4.8399510" lon="-75.4099520">
        <ele>3951.5</ele>
        <time>2021-04-17T18:38:36Z</time>
      </trkpt>
      <trkpt lat="4.8399860" lon="-75.4099620">
        <ele>3951.5</ele>
        <time>2021-04-17T18:38:37Z</time>
      </trkpt>
      <trkpt lat="4.8400210" lon="-75.4099720">
        <ele>3951.5</ele>
        <time>2021-04-17T18:38:38Z</time>
      </trkpt>
      <trkpt lat="4.8400570" lon="-75.4099820">
        <ele>3951.5</ele>
        <time>2021-04-17T18:38:39Z</time>
      </trkpt>
      <trkpt lat="4.8400940" lon="-75.4099920">
        <ele>3951.6</ele>
        <time>2021-04-17T18:38:40Z</time>
      </trkpt>
      <trkpt lat="4.8401300" lon="-75.4099990">
        <ele>3951.6</ele>
        <time>2021-04-17T18:38:41Z</time>
      </trkpt>
      <trkpt lat="4.8401660" lon="-75.4100050">
        <ele>3951.6</ele>
        <time>2021-04-17T18:38:42Z</time>
      </trkpt>
      <trkpt lat="4.8402020" lon="-75.4100110">
        <ele>3951.6</ele>
        <time>2021-04-17T18:38:43Z</time>
      </trkpt>
      <trkpt lat="4.8402380" lon="-75.4100190">
        <ele>3951.6</ele>
        <time>2021-04-17T18:38:44Z</time>
      </trkpt>
      <trkpt lat="4.8402740" lon="-75.4100270">
        <ele>3951.6</ele>
        <time>2021-04-17T18:38:45Z</time>
      </trkpt>
      <trkpt lat="4.8403100" lon="-75.4100350">
        <ele>3951.6</ele>
        <time>2021-04-17T18:38:46Z</time>
      </trkpt>
      <trkpt lat="4.8403460" lon="-75.4100430">
        <ele>3951.6</ele>
        <time>2021-04-17T18:38:47Z</time>
      </trkpt>
      <trkpt lat="4.8403820" lon="-75.4100500">
        <ele>3951.6</ele>
        <time>2021-04-17T18:38:48Z</time>
      </trkpt>
      <trkpt lat="4.8404170" lon="-75.4100550">
        <ele>3951.6</ele>
        <time>2021-04-17T18:38:49Z</time>
      </trkpt>
      <trkpt lat="4.8404510" lon="-75.4100610">
        <ele>3951.6</ele>
        <time>2021-04-17T18:38:50Z</time>
      </trkpt>
      <trkpt lat="4.8404860" lon="-75.4100680">
        <ele>3951.6</ele>
        <time>2021-04-17T18:38:51Z</time>
      </trkpt>
      <trkpt lat="4.8405210" lon="-75.4100760">
        <ele>3951.6</ele>
        <time>2021-04-17T18:38:52Z</time>
      </trkpt>
      <trkpt lat="4.8405550" lon="-75.4100840">
        <ele>3951.6</ele>
        <time>2021-04-17T18:38:53Z</time>
      </trkpt>
      <trkpt lat="4.8405890" lon="-75.4100890">
        <ele>3951.6</ele>
        <time>2021-04-17T18:38:54Z</time>
      </trkpt>
      <trkpt lat="4.8406230" lon="-75.4100940">
        <ele>3951.6</ele>
        <time>2021-04-17T18:38:55Z</time>
      </trkpt>
      <trkpt lat="4.8406570" lon="-75.4101010">
        <ele>3951.6</ele>
        <time>2021-04-17T18:38:56Z</time>
      </trkpt>
      <trkpt lat="4.8406910" lon="-75.4101080">
        <ele>3951.6</ele>
        <time>2021-04-17T18:38:57Z</time>
      </trkpt>
      <trkpt lat="4.8407240" lon="-75.4101150">
        <ele>3951.6</ele>
        <time>2021-04-17T18:38:58Z</time>
      </trkpt>
      <trkpt lat="4.8407580" lon="-75.4101190">
        <ele>3951.6</ele>
        <time>2021-04-17T18:38:59Z</time>
      </trkpt>
      <trkpt lat="4.8407920" lon="-75.4101170">
        <ele>3951.6</ele>
        <time>2021-04-17T18:39:00Z</time>
      </trkpt>
      <trkpt lat="4.8408260" lon="-75.4101150">
        <ele>3951.6</ele>
        <time>2021-04-17T18:39:01Z</time>
      </trkpt>
      <trkpt lat="4.8408590" lon="-75.4101100">
        <ele>3951.6</ele>
        <time>2021-04-17T18:39:02Z</time>
      </trkpt>
      <trkpt lat="4.8408920" lon="-75.4101000">
        <ele>3951.6</ele>
        <time>2021-04-17T18:39:03Z</time>
      </trkpt>
      <trkpt lat="4.8409260" lon="-75.4100890">
        <ele>3951.6</ele>
        <time>2021-04-17T18:39:04Z</time>
      </trkpt>
      <trkpt lat="4.8409600" lon="-75.4100750">
        <ele>3951.6</ele>
        <time>2021-04-17T18:39:05Z</time>
      </trkpt>
      <trkpt lat="4.8409950" lon="-75.4100600">
        <ele>3951.7</ele>
        <time>2021-04-17T18:39:06Z</time>
      </trkpt>
      <trkpt lat="4.8410300" lon="-75.4100440">
        <ele>3951.7</ele>
        <time>2021-04-17T18:39:07Z</time>
      </trkpt>
      <trkpt lat="4.8410650" lon="-75.4100260">
        <ele>3951.7</ele>
        <time>2021-04-17T18:39:08Z</time>
      </trkpt>
      <trkpt lat="4.8410990" lon="-75.4100080">
        <ele>3951.7</ele>
        <time>2021-04-17T18:39:09Z</time>
      </trkpt>
      <trkpt lat="4.8411340" lon="-75.4099890">
        <ele>3951.7</ele>
        <time>2021-04-17T18:39:10Z</time>
      </trkpt>
      <trkpt lat="4.8411680" lon="-75.4099680">
        <ele>3951.7</ele>
        <time>2021-04-17T18:39:11Z</time>
      </trkpt>
      <trkpt lat="4.8412030" lon="-75.4099450">
        <ele>3951.7</ele>
        <time>2021-04-17T18:39:12Z</time>
      </trkpt>
      <trkpt lat="4.8412380" lon="-75.4099190">
        <ele>3951.7</ele>
        <time>2021-04-17T18:39:13Z</time>
      </trkpt>
      <trkpt lat="4.8412750" lon="-75.4098920">
        <ele>3951.7</ele>
        <time>2021-04-17T18:39:14Z</time>
      </trkpt>
      <trkpt lat="4.8413150" lon="-75.4098650">
        <ele>3951.7</ele>
        <time>2021-04-17T18:39:15Z</time>
      </trkpt>
      <trkpt lat="4.8413590" lon="-75.4098370">
        <ele>3951.7</ele>
        <time>2021-04-17T18:39:16Z</time>
      </trkpt>
      <trkpt lat="4.8414030" lon="-75.4098080">
        <ele>3951.7</ele>
        <time>2021-04-17T18:39:17Z</time>
      </trkpt>
      <trkpt lat="4.8414500" lon="-75.4097800">
        <ele>3951.7</ele>
        <time>2021-04-17T18:39:18Z</time>
      </trkpt>
      <trkpt lat="4.8414980" lon="-75.4097520">
        <ele>3951.7</ele>
        <time>2021-04-17T18:39:19Z</time>
      </trkpt>
      <trkpt lat="4.8415460" lon="-75.4097230">
        <ele>3951.7</ele>
        <time>2021-04-17T18:39:20Z</time>
      </trkpt>
      <trkpt lat="4.8415930" lon="-75.4096950">
        <ele>3951.7</ele>
        <time>2021-04-17T18:39:21Z</time>
      </trkpt>
      <trkpt lat="4.8416410" lon="-75.4096690">
        <ele>3951.7</ele>
        <time>2021-04-17T18:39:22Z</time>
      </trkpt>
      <trkpt lat="4.8416900" lon="-75.4096420">
        <ele>3951.7</ele>
        <time>2021-04-17T18:39:23Z</time>
      </trkpt>
      <trkpt lat="4.8417400" lon="-75.4096110">
        <ele>3951.7</ele>
        <time>2021-04-17T18:39:24Z</time>
      </trkpt>
      <trkpt lat="4.8417910" lon="-75.4095780">
        <ele>3951.8</ele>
        <time>2021-04-17T18:39:25Z</time>
      </trkpt>
      <trkpt lat="4.8418440" lon="-75.4095450">
        <ele>3951.8</ele>
        <time>2021-04-17T18:39:26Z</time>
      </trkpt>
      <trkpt lat="4.8418990" lon="-75.4095130">
        <ele>3951.8</ele>
        <time>2021-04-17T18:39:27Z</time>
      </trkpt>
      <trkpt lat="4.8419540" lon="-75.4094820">
        <ele>3951.8</ele>
        <time>2021-04-17T18:39:28Z</time>
      </trkpt>
      <trkpt lat="4.8420100" lon="-75.4094520">
        <ele>3951.8</ele>
        <time>2021-04-17T18:39:29Z</time>
      </trkpt>
      <trkpt lat="4.8420660" lon="-75.4094200">
        <ele>3951.8</ele>
        <time>2021-04-17T18:39:30Z</time>
      </trkpt>
      <trkpt lat="4.8421220" lon="-75.4093820">
        <ele>3951.8</ele>
        <time>2021-04-17T18:39:31Z</time>
      </trkpt>
      <trkpt lat="4.8421770" lon="-75.4093410">
        <ele>3951.8</ele>
        <time>2021-04-17T18:39:32Z</time>
      </trkpt>
      <trkpt lat="4.8422290" lon="-75.4092970">
        <ele>3951.8</ele>
        <time>2021-04-17T18:39:33Z</time>
      </trkpt>
      <trkpt lat="4.8422780" lon="-75.4092490">
        <ele>3951.8</ele>
        <time>2021-04-17T18:39:34Z</time>
      </trkpt>
      <trkpt lat="4.8423240" lon="-75.4092010">
        <ele>3951.8</ele>
        <time>2021-04-17T18:39:35Z</time>
      </trkpt>
      <trkpt lat="4.8423700" lon="-75.4091520">
        <ele>3951.8</ele>
        <time>2021-04-17T18:39:36Z</time>
      </trkpt>
      <trkpt lat="4.8424140" lon="-75.4090990">
        <ele>3951.8</ele>
        <time>2021-04-17T18:39:37Z</time>
      </trkpt>
      <trkpt lat="4.8424570" lon="-75.4090410">
        <ele>3951.8</ele>
        <time>2021-04-17T18:39:38Z</time>
      </trkpt>
      <trkpt lat="4.8425010" lon="-75.4089830">
        <ele>3951.9</ele>
        <time>2021-04-17T18:39:39Z</time>
      </trkpt>
      <trkpt lat="4.8425470" lon="-75.4089260">
        <ele>3951.9</ele>
        <time>2021-04-17T18:39:40Z</time>
      </trkpt>
      <trkpt lat="4.8425940" lon="-75.4088690">
        <ele>3951.9</ele>
        <time>2021-04-17T18:39:41Z</time>
      </trkpt>
      <trkpt lat="4.8426400" lon="-75.4088110">
        <ele>3951.9</ele>
        <time>2021-04-17T18:39:42Z</time>
      </trkpt>
      <trkpt lat="4.8426850" lon="-75.4087530">
        <ele>3951.9</ele>
        <time>2021-04-17T18:39:43Z</time>
      </trkpt>
      <trkpt lat="4.8427320" lon="-75.4086970">
        <ele>3951.9</ele>
        <time>2021-04-17T18:39:44Z</time>
      </trkpt>
      <trkpt lat="4.8427790" lon="-75.4086410">
        <ele>3951.9</ele>
        <time>2021-04-17T18:39:45Z</time>
      </trkpt>
      <trkpt lat="4.8428260" lon="-75.4085810">
        <ele>3951.9</ele>
        <time>2021-04-17T18:39:46Z</time>
      </trkpt>
      <trkpt lat="4.8428730" lon="-75.4085230">
        <ele>3951.9</ele>
        <time>2021-04-17T18:39:47Z</time>
      </trkpt>
      <trkpt lat="4.8429220" lon="-75.4084670">
        <ele>3951.9</ele>
        <time>2021-04-17T18:39:48Z</time>
      </trkpt>
      <trkpt lat="4.8429690" lon="-75.4084090">
        <ele>3951.9</ele>
        <time>2021-04-17T18:39:49Z</time>
      </trkpt>
      <trkpt lat="4.8430140" lon="-75.4083540">
        <ele>3951.9</ele>
        <time>2021-04-17T18:39:50Z</time>
      </trkpt>
      <trkpt lat="4.8430630" lon="-75.4083070">
        <ele>3951.9</ele>
        <time>2021-04-17T18:39:51Z</time>
      </trkpt>
      <trkpt lat="4.8431100" lon="-75.4082590">
        <ele>3952.0</ele>
        <time>2021-04-17T18:39:52Z</time>
      </trkpt>
      <trkpt lat="4.8431510" lon="-75.4082080">
        <ele>3952.0</ele>
        <time>2021-04-17T18:39:53Z</time>
      </trkpt>
      <trkpt lat="4.8431880" lon="-75.4081560">
        <ele>3952.0</ele>
        <time>2021-04-17T18:39:54Z</time>
      </trkpt>
      <trkpt lat="4.8432230" lon="-75.4081050">
        <ele>3952.0</ele>
        <time>2021-04-17T18:39:55Z</time>
      </trkpt>
      <trkpt lat="4.8432570" lon="-75.4080560">
        <ele>3952.0</ele>
        <time>2021-04-17T18:39:56Z</time>
      </trkpt>
      <trkpt lat="4.8432880" lon="-75.4080060">
        <ele>3951.8</ele>
        <time>2021-04-17T18:39:57Z</time>
      </trkpt>
      <trkpt lat="4.8433140" lon="-75.4079530">
        <ele>3951.7</ele>
        <time>2021-04-17T18:39:58Z</time>
      </trkpt>
      <trkpt lat="4.8433320" lon="-75.4078980">
        <ele>3951.5</ele>
        <time>2021-04-17T18:39:59Z</time>
      </trkpt>
      <trkpt lat="4.8433440" lon="-75.4078410">
        <ele>3951.4</ele>
        <time>2021-04-17T18:40:00Z</time>
      </trkpt>
      <trkpt lat="4.8433470" lon="-75.4077820">
        <ele>3951.2</ele>
        <time>2021-04-17T18:40:01Z</time>
      </trkpt>
      <trkpt lat="4.8433480" lon="-75.4077230">
        <ele>3951.1</ele>
        <time>2021-04-17T18:40:02Z</time>
      </trkpt>
      <trkpt lat="4.8433470" lon="-75.4076650">
        <ele>3950.9</ele>
        <time>2021-04-17T18:40:03Z</time>
      </trkpt>
      <trkpt lat="4.8433450" lon="-75.4076070">
        <ele>3950.8</ele>
        <time>2021-04-17T18:40:04Z</time>
      </trkpt>
      <trkpt lat="4.8433410" lon="-75.4075480">
        <ele>3950.6</ele>
        <time>2021-04-17T18:40:05Z</time>
      </trkpt>
      <trkpt lat="4.8433340" lon="-75.4074880">
        <ele>3950.5</ele>
        <time>2021-04-17T18:40:06Z</time>
      </trkpt>
      <trkpt lat="4.8433200" lon="-75.4074310">
        <ele>3950.3</ele>
        <time>2021-04-17T18:40:07Z</time>
      </trkpt>
      <trkpt lat="4.8432920" lon="-75.4073800">
        <ele>3950.2</ele>
        <time>2021-04-17T18:40:08Z</time>
      </trkpt>
      <trkpt lat="4.8432500" lon="-75.4073400">
        <ele>3950.0</ele>
        <time>2021-04-17T18:40:09Z</time>
      </trkpt>
      <trkpt lat="4.8431990" lon="-75.4073100">
        <ele>3949.9</ele>
        <time>2021-04-17T18:40:10Z</time>
      </trkpt>
      <trkpt lat="4.8431490" lon="-75.4072800">
        <ele>3949.7</ele>
        <time>2021-04-17T18:40:11Z</time>
      </trkpt>
      <trkpt lat="4.8431020" lon="-75.4072470">
        <ele>3949.6</ele>
        <time>2021-04-17T18:40:12Z</time>
      </trkpt>
      <trkpt lat="4.8430610" lon="-75.4072080">
        <ele>3949.4</ele>
        <time>2021-04-17T18:40:13Z</time>
      </trkpt>
      <trkpt lat="4.8430260" lon="-75.4071660">
        <ele>3949.3</ele>
        <time>2021-04-17T18:40:14Z</time>
      </trkpt>
      <trkpt lat="4.8429960" lon="-75.4071190">
        <ele>3949.1</ele>
        <time>2021-04-17T18:40:15Z</time>
      </trkpt>
      <trkpt lat="4.8429680" lon="-75.4070700">
        <ele>3949.0</ele>
        <time>2021-04-17T18:40:16Z</time>
      </trkpt>
      <trkpt lat="4.8429370" lon="-75.4070260">
        <ele>3948.9</ele>
        <time>2021-04-17T18:40:17Z</time>
      </trkpt>
      <trkpt lat="4.8429000" lon="-75.4069870">
        <ele>3948.7</ele>
        <time>2021-04-17T18:40:18Z</time>
      </trkpt>
      <trkpt lat="4.8428600" lon="-75.4069520">
        <ele>3948.6</ele>
        <time>2021-04-17T18:40:19Z</time>
      </trkpt>
      <trkpt lat="4.8428210" lon="-75.4069180">
        <ele>3948.4</ele>
        <time>2021-04-17T18:40:20Z</time>
      </trkpt>
      <trkpt lat="4.8427890" lon="-75.4068790">
        <ele>3948.3</ele>
        <time>2021-04-17T18:40:21Z</time>
      </trkpt>
      <trkpt lat="4.8427700" lon="-75.4068340">
        <ele>3948.2</ele>
        <time>2021-04-17T18:40:22Z</time>
      </trkpt>
      <trkpt lat="4.8427720" lon="-75.4067860">
        <ele>3948.1</ele>
        <time>2021-04-17T18:40:23Z</time>
      </trkpt>
      <trkpt lat="4.8427940" lon="-75.4067430">
        <ele>3947.9</ele>
        <time>2021-04-17T18:40:24Z</time>
      </trkpt>
      <trkpt lat="4.8428300" lon="-75.4067100">
        <ele>3947.8</ele>
        <time>2021-04-17T18:40:25Z</time>
      </trkpt>
      <trkpt lat="4.8428730" lon="-75.4066820">
        <ele>3947.7</ele>
        <time>2021-04-17T18:40:26Z</time>
      </trkpt>
      <trkpt lat="4.8429180" lon="-75.4066570">
        <ele>3947.6</ele>
        <time>2021-04-17T18:40:27Z</time>
      </trkpt>
      <trkpt lat="4.8429650" lon="-75.4066340">
        <ele>3947.4</ele>
        <time>2021-04-17T18:40:28Z</time>
      </trkpt>
      <trkpt lat="4.8430150" lon="-75.4066140">
        <ele>3947.3</ele>
        <time>2021-04-17T18:40:29Z</time>
      </trkpt>
      <trkpt lat="4.8430650" lon="-75.4065970">
        <ele>3947.2</ele>
        <time>2021-04-17T18:40:30Z</time>
      </trkpt>
      <trkpt lat="4.8431160" lon="-75.4065860">
        <ele>3947.0</ele>
        <time>2021-04-17T18:40:31Z</time>
      </trkpt>
      <trkpt lat="4.8431670" lon="-75.4065760">
        <ele>3946.9</ele>
        <time>2021-04-17T18:40:32Z</time>
      </trkpt>
      <trkpt lat="4.8432160" lon="-75.4065650">
        <ele>3946.8</ele>
        <time>2021-04-17T18:40:33Z</time>
      </trkpt>
      <trkpt lat="4.8432610" lon="-75.4065510">
        <ele>3946.6</ele>
        <time>2021-04-17T18:40:34Z</time>
      </trkpt>
      <trkpt lat="4.8433030" lon="-75.4065320">
        <ele>3946.5</ele>
        <time>2021-04-17T18:40:35Z</time>
      </trkpt>
      <trkpt lat="4.8433430" lon="-75.4065100">
        <ele>3946.4</ele>
        <time>2021-04-17T18:40:36Z</time>
      </trkpt>
      <trkpt lat="4.8433800" lon="-75.4064860">
        <ele>3946.3</ele>
        <time>2021-04-17T18:40:37Z</time>
      </trkpt>
      <trkpt lat="4.8434130" lon="-75.4064590">
        <ele>3946.2</ele>
        <time>2021-04-17T18:40:38Z</time>
      </trkpt>
      <trkpt lat="4.8434440" lon="-75.4064310">
        <ele>3946.1</ele>
        <time>2021-04-17T18:40:39Z</time>
      </trkpt>
      <trkpt lat="4.8434710" lon="-75.4064010">
        <ele>3946.0</ele>
        <time>2021-04-17T18:40:40Z</time>
      </trkpt>
      <trkpt lat="4.8434970" lon="-75.4063710">
        <ele>3945.9</ele>
        <time>2021-04-17T18:40:41Z</time>
      </trkpt>
      <trkpt lat="4.8435190" lon="-75.4063390">
        <ele>3945.8</ele>
        <time>2021-04-17T18:40:42Z</time>
      </trkpt>
      <trkpt lat="4.8435380" lon="-75.4063050">
        <ele>3945.7</ele>
        <time>2021-04-17T18:40:43Z</time>
      </trkpt>
      <trkpt lat="4.8435550" lon="-75.4062680">
        <ele>3945.6</ele>
        <time>2021-04-17T18:40:44Z</time>
      </trkpt>
      <trkpt lat="4.8435700" lon="-75.4062290">
        <ele>3945.5</ele>
        <time>2021-04-17T18:40:45Z</time>
      </trkpt>
      <trkpt lat="4.8435810" lon="-75.4061870">
        <ele>3945.3</ele>
        <time>2021-04-17T18:40:46Z</time>
      </trkpt>
      <trkpt lat="4.8435930" lon="-75.4061440">
        <ele>3945.2</ele>
        <time>2021-04-17T18:40:47Z</time>
      </trkpt>
      <trkpt lat="4.8436100" lon="-75.4061030">
        <ele>3945.1</ele>
        <time>2021-04-17T18:40:48Z</time>
      </trkpt>
      <trkpt lat="4.8436370" lon="-75.4060690">
        <ele>3945.0</ele>
        <time>2021-04-17T18:40:49Z</time>
      </trkpt>
      <trkpt lat="4.8436720" lon="-75.4060410">
        <ele>3944.9</ele>
        <time>2021-04-17T18:40:50Z</time>
      </trkpt>
      <trkpt lat="4.8437120" lon="-75.4060200">
        <ele>3944.8</ele>
        <time>2021-04-17T18:40:51Z</time>
      </trkpt>
      <trkpt lat="4.8437570" lon="-75.4060100">
        <ele>3944.7</ele>
        <time>2021-04-17T18:40:52Z</time>
      </trkpt>
      <trkpt lat="4.8438040" lon="-75.4060110">
        <ele>3944.5</ele>
        <time>2021-04-17T18:40:53Z</time>
      </trkpt>
      <trkpt lat="4.8438520" lon="-75.4060210">
        <ele>3944.4</ele>
        <time>2021-04-17T18:40:54Z</time>
      </trkpt>
      <trkpt lat="4.8438990" lon="-75.4060410">
        <ele>3944.3</ele>
        <time>2021-04-17T18:40:55Z</time>
      </trkpt>
      <trkpt lat="4.8439430" lon="-75.4060710">
        <ele>3944.1</ele>
        <time>2021-04-17T18:40:56Z</time>
      </trkpt>
      <trkpt lat="4.8439870" lon="-75.4061070">
        <ele>3944.0</ele>
        <time>2021-04-17T18:40:57Z</time>
      </trkpt>
      <trkpt lat="4.8440310" lon="-75.4061450">
        <ele>3943.8</ele>
        <time>2021-04-17T18:40:58Z</time>
      </trkpt>
      <trkpt lat="4.8440780" lon="-75.4061830">
        <ele>3943.7</ele>
        <time>2021-04-17T18:40:59Z</time>
      </trkpt>
      <trkpt lat="4.8441260" lon="-75.4062230">
        <ele>3943.5</ele>
        <time>2021-04-17T18:41:00Z</time>
      </trkpt>
      <trkpt lat="4.8441740" lon="-75.4062650">
        <ele>3943.4</ele>
        <time>2021-04-17T18:41:01Z</time>
      </trkpt>
      <trkpt lat="4.8442240" lon="-75.4063070">
        <ele>3943.2</ele>
        <time>2021-04-17T18:41:02Z</time>
      </trkpt>
      <trkpt lat="4.8442730" lon="-75.4063510">
        <ele>3943.0</ele>
        <time>2021-04-17T18:41:03Z</time>
      </trkpt>
      <trkpt lat="4.8443220" lon="-75.4063950">
        <ele>3942.9</ele>
        <time>2021-04-17T18:41:04Z</time>
      </trkpt>
      <trkpt lat="4.8443720" lon="-75.4064410">
        <ele>3942.7</ele>
        <time>2021-04-17T18:41:05Z</time>
      </trkpt>
      <trkpt lat="4.8444240" lon="-75.4064860">
        <ele>3942.5</ele>
        <time>2021-04-17T18:41:06Z</time>
      </trkpt>
      <trkpt lat="4.8444760" lon="-75.4065310">
        <ele>3942.3</ele>
        <time>2021-04-17T18:41:07Z</time>
      </trkpt>
      <trkpt lat="4.8445280" lon="-75.4065760">
        <ele>3942.2</ele>
        <time>2021-04-17T18:41:08Z</time>
      </trkpt>
      <trkpt lat="4.8445810" lon="-75.4066210">
        <ele>3942.0</ele>
        <time>2021-04-17T18:41:09Z</time>
      </trkpt>
      <trkpt lat="4.8446340" lon="-75.4066680">
        <ele>3941.8</ele>
        <time>2021-04-17T18:41:10Z</time>
      </trkpt>
      <trkpt lat="4.8446890" lon="-75.4067160">
        <ele>3941.6</ele>
        <time>2021-04-17T18:41:11Z</time>
      </trkpt>
      <trkpt lat="4.8447440" lon="-75.4067650">
        <ele>3941.4</ele>
        <time>2021-04-17T18:41:12Z</time>
      </trkpt>
      <trkpt lat="4.8447970" lon="-75.4068170">
        <ele>3941.2</ele>
        <time>2021-04-17T18:41:13Z</time>
      </trkpt>
      <trkpt lat="4.8448480" lon="-75.4068700">
        <ele>3941.0</ele>
        <time>2021-04-17T18:41:14Z</time>
      </trkpt>
      <trkpt lat="4.8448990" lon="-75.4069240">
        <ele>3940.9</ele>
        <time>2021-04-17T18:41:15Z</time>
      </trkpt>
      <trkpt lat="4.8449530" lon="-75.4069760">
        <ele>3940.7</ele>
        <time>2021-04-17T18:41:16Z</time>
      </trkpt>
      <trkpt lat="4.8450090" lon="-75.4070300">
        <ele>3940.5</ele>
        <time>2021-04-17T18:41:17Z</time>
      </trkpt>
      <trkpt lat="4.8450660" lon="-75.4070830">
        <ele>3940.3</ele>
        <time>2021-04-17T18:41:18Z</time>
      </trkpt>
      <trkpt lat="4.8451190" lon="-75.4071370">
        <ele>3940.1</ele>
        <time>2021-04-17T18:41:19Z</time>
      </trkpt>
      <trkpt lat="4.8451700" lon="-75.4071950">
        <ele>3939.9</ele>
        <time>2021-04-17T18:41:20Z</time>
      </trkpt>
      <trkpt lat="4.8452240" lon="-75.4072490">
        <ele>3939.7</ele>
        <time>2021-04-17T18:41:21Z</time>
      </trkpt>
      <trkpt lat="4.8452860" lon="-75.4072870">
        <ele>3939.5</ele>
        <time>2021-04-17T18:41:22Z</time>
      </trkpt>
      <trkpt lat="4.8453470" lon="-75.4073000">
        <ele>3939.3</ele>
        <time>2021-04-17T18:41:23Z</time>
      </trkpt>
      <trkpt lat="4.8453950" lon="-75.4072880">
        <ele>3939.2</ele>
        <time>2021-04-17T18:41:24Z</time>
      </trkpt>
      <trkpt lat="4.8454320" lon="-75.4072610">
        <ele>3939.1</ele>
        <time>2021-04-17T18:41:25Z</time>
      </trkpt>
      <trkpt lat="4.8454520" lon="-75.4072080">
        <ele>3938.9</ele>
        <time>2021-04-17T18:41:26Z</time>
      </trkpt>
      <trkpt lat="4.8454650" lon="-75.4071490">
        <ele>3938.8</ele>
        <time>2021-04-17T18:41:27Z</time>
      </trkpt>
      <trkpt lat="4.8454760" lon="-75.4070880">
        <ele>3938.6</ele>
        <time>2021-04-17T18:41:28Z</time>
      </trkpt>
      <trkpt lat="4.8454870" lon="-75.4070210">
        <ele>3938.5</ele>
        <time>2021-04-17T18:41:29Z</time>
      </trkpt>
      <trkpt lat="4.8454980" lon="-75.4069530">
        <ele>3938.3</ele>
        <time>2021-04-17T18:41:30Z</time>
      </trkpt>
      <trkpt lat="4.8455020" lon="-75.4068830">
        <ele>3938.1</ele>
        <time>2021-04-17T18:41:31Z</time>
      </trkpt>
      <trkpt lat="4.8454960" lon="-75.4068100">
        <ele>3937.9</ele>
        <time>2021-04-17T18:41:32Z</time>
      </trkpt>
      <trkpt lat="4.8454790" lon="-75.4067400">
        <ele>3937.7</ele>
        <time>2021-04-17T18:41:33Z</time>
      </trkpt>
      <trkpt lat="4.8454590" lon="-75.4066720">
        <ele>3937.5</ele>
        <time>2021-04-17T18:41:34Z</time>
      </trkpt>
      <trkpt lat="4.8454380" lon="-75.4066030">
        <ele>3937.4</ele>
        <time>2021-04-17T18:41:35Z</time>
      </trkpt>
      <trkpt lat="4.8454160" lon="-75.4065340">
        <ele>3937.2</ele>
        <time>2021-04-17T18:41:36Z</time>
      </trkpt>
      <trkpt lat="4.8453940" lon="-75.4064640">
        <ele>3937.0</ele>
        <time>2021-04-17T18:41:37Z</time>
      </trkpt>
      <trkpt lat="4.8453710" lon="-75.4063900">
        <ele>3936.8</ele>
        <time>2021-04-17T18:41:38Z</time>
      </trkpt>
      <trkpt lat="4.8453440" lon="-75.4063170">
        <ele>3936.6</ele>
        <time>2021-04-17T18:41:39Z</time>
      </trkpt>
      <trkpt lat="4.8453180" lon="-75.4062410">
        <ele>3936.4</ele>
        <time>2021-04-17T18:41:40Z</time>
      </trkpt>
      <trkpt lat="4.8452880" lon="-75.4061670">
        <ele>3936.2</ele>
        <time>2021-04-17T18:41:41Z</time>
      </trkpt>
      <trkpt lat="4.8452570" lon="-75.4060950">
        <ele>3936.0</ele>
        <time>2021-04-17T18:41:42Z</time>
      </trkpt>
      <trkpt lat="4.8452280" lon="-75.4060250">
        <ele>3935.8</ele>
        <time>2021-04-17T18:41:43Z</time>
      </trkpt>
      <trkpt lat="4.8451980" lon="-75.4059550">
        <ele>3935.6</ele>
        <time>2021-04-17T18:41:44Z</time>
      </trkpt>
      <trkpt lat="4.8451640" lon="-75.4058880">
        <ele>3935.4</ele>
        <time>2021-04-17T18:41:45Z</time>
      </trkpt>
      <trkpt lat="4.8451320" lon="-75.4058170">
        <ele>3935.2</ele>
        <time>2021-04-17T18:41:46Z</time>
      </trkpt>
      <trkpt lat="4.8451070" lon="-75.4057400">
        <ele>3935.0</ele>
        <time>2021-04-17T18:41:47Z</time>
      </trkpt>
      <trkpt lat="4.8450830" lon="-75.4056610">
        <ele>3934.8</ele>
        <time>2021-04-17T18:41:48Z</time>
      </trkpt>
      <trkpt lat="4.8450590" lon="-75.4055800">
        <ele>3934.6</ele>
        <time>2021-04-17T18:41:49Z</time>
      </trkpt>
      <trkpt lat="4.8450360" lon="-75.4054990">
        <ele>3934.3</ele>
        <time>2021-04-17T18:41:50Z</time>
      </trkpt>
      <trkpt lat="4.8450110" lon="-75.4054190">
        <ele>3934.1</ele>
        <time>2021-04-17T18:41:51Z</time>
      </trkpt>
      <trkpt lat="4.8449830" lon="-75.4053400">
        <ele>3933.9</ele>
        <time>2021-04-17T18:41:52Z</time>
      </trkpt>
      <trkpt lat="4.8449540" lon="-75.4052630">
        <ele>3933.7</ele>
        <time>2021-04-17T18:41:53Z</time>
      </trkpt>
      <trkpt lat="4.8449250" lon="-75.4051860">
        <ele>3933.5</ele>
        <time>2021-04-17T18:41:54Z</time>
      </trkpt>
      <trkpt lat="4.8448940" lon="-75.4051120">
        <ele>3933.3</ele>
        <time>2021-04-17T18:41:55Z</time>
      </trkpt>
      <trkpt lat="4.8448590" lon="-75.4050420">
        <ele>3933.1</ele>
        <time>2021-04-17T18:41:56Z</time>
      </trkpt>
      <trkpt lat="4.8448250" lon="-75.4049750">
        <ele>3932.9</ele>
        <time>2021-04-17T18:41:57Z</time>
      </trkpt>
      <trkpt lat="4.8447900" lon="-75.4049080">
        <ele>3932.7</ele>
        <time>2021-04-17T18:41:58Z</time>
      </trkpt>
      <trkpt lat="4.8447540" lon="-75.4048440">
        <ele>3932.5</ele>
        <time>2021-04-17T18:41:59Z</time>
      </trkpt>
      <trkpt lat="4.8447170" lon="-75.4047820">
        <ele>3932.3</ele>
        <time>2021-04-17T18:42:00Z</time>
      </trkpt>
      <trkpt lat="4.8446830" lon="-75.4047190">
        <ele>3932.1</ele>
        <time>2021-04-17T18:42:01Z</time>
      </trkpt>
      <trkpt lat="4.8446500" lon="-75.4046560">
        <ele>3932.0</ele>
        <time>2021-04-17T18:42:02Z</time>
      </trkpt>
      <trkpt lat="4.8446170" lon="-75.4045930">
        <ele>3931.8</ele>
        <time>2021-04-17T18:42:03Z</time>
      </trkpt>
      <trkpt lat="4.8445820" lon="-75.4045300">
        <ele>3931.6</ele>
        <time>2021-04-17T18:42:04Z</time>
      </trkpt>
      <trkpt lat="4.8445450" lon="-75.4044690">
        <ele>3931.4</ele>
        <time>2021-04-17T18:42:05Z</time>
      </trkpt>
      <trkpt lat="4.8445090" lon="-75.4044100">
        <ele>3931.2</ele>
        <time>2021-04-17T18:42:06Z</time>
      </trkpt>
      <trkpt lat="4.8444730" lon="-75.4043470">
        <ele>3931.1</ele>
        <time>2021-04-17T18:42:07Z</time>
      </trkpt>
      <trkpt lat="4.8444370" lon="-75.4042830">
        <ele>3930.9</ele>
        <time>2021-04-17T18:42:08Z</time>
      </trkpt>
      <trkpt lat="4.8443990" lon="-75.4042220">
        <ele>3930.7</ele>
        <time>2021-04-17T18:42:09Z</time>
      </trkpt>
      <trkpt lat="4.8443600" lon="-75.4041610">
        <ele>3930.5</ele>
        <time>2021-04-17T18:42:10Z</time>
      </trkpt>
      <trkpt lat="4.8443230" lon="-75.4041010">
        <ele>3930.3</ele>
        <time>2021-04-17T18:42:11Z</time>
      </trkpt>
      <trkpt lat="4.8442830" lon="-75.4040440">
        <ele>3930.1</ele>
        <time>2021-04-17T18:42:12Z</time>
      </trkpt>
      <trkpt lat="4.8442450" lon="-75.4039860">
        <ele>3930.0</ele>
        <time>2021-04-17T18:42:13Z</time>
      </trkpt>
      <trkpt lat="4.8442030" lon="-75.4039300">
        <ele>3929.8</ele>
        <time>2021-04-17T18:42:14Z</time>
      </trkpt>
      <trkpt lat="4.8441600" lon="-75.4038760">
        <ele>3929.6</ele>
        <time>2021-04-17T18:42:15Z</time>
      </trkpt>
      <trkpt lat="4.8441170" lon="-75.4038230">
        <ele>3929.4</ele>
        <time>2021-04-17T18:42:16Z</time>
      </trkpt>
      <trkpt lat="4.8440760" lon="-75.4037690">
        <ele>3929.3</ele>
        <time>2021-04-17T18:42:17Z</time>
      </trkpt>
      <trkpt lat="4.8440360" lon="-75.4037130">
        <ele>3929.1</ele>
        <time>2021-04-17T18:42:18Z</time>
      </trkpt>
      <trkpt lat="4.8439970" lon="-75.4036550">
        <ele>3928.6</ele>
        <time>2021-04-17T18:42:19Z</time>
      </trkpt>
      <trkpt lat="4.8439580" lon="-75.4035970">
        <ele>3927.8</ele>
        <time>2021-04-17T18:42:20Z</time>
      </trkpt>
      <trkpt lat="4.8439180" lon="-75.4035380">
        <ele>3927.0</ele>
        <time>2021-04-17T18:42:21Z</time>
      </trkpt>
      <trkpt lat="4.8438780" lon="-75.4034780">
        <ele>3926.2</ele>
        <time>2021-04-17T18:42:22Z</time>
      </trkpt>
      <trkpt lat="4.8438410" lon="-75.4034160">
        <ele>3925.4</ele>
        <time>2021-04-17T18:42:23Z</time>
      </trkpt>
      <trkpt lat="4.8438050" lon="-75.4033520">
        <ele>3924.6</ele>
        <time>2021-04-17T18:42:24Z</time>
      </trkpt>
      <trkpt lat="4.8437730" lon="-75.4032870">
        <ele>3923.8</ele>
        <time>2021-04-17T18:42:25Z</time>
      </trkpt>
      <trkpt lat="4.8437350" lon="-75.4032270">
        <ele>3923.0</ele>
        <time>2021-04-17T18:42:26Z</time>
      </trkpt>
      <trkpt lat="4.8436970" lon="-75.4031680">
        <ele>3922.3</ele>
        <time>2021-04-17T18:42:27Z</time>
      </trkpt>
      <trkpt lat="4.8436590" lon="-75.4031090">
        <ele>3921.5</ele>
        <time>2021-04-17T18:42:28Z</time>
      </trkpt>
      <trkpt lat="4.8436210" lon="-75.4030510">
        <ele>3920.7</ele>
        <time>2021-04-17T18:42:29Z</time>
      </trkpt>
      <trkpt lat="4.8435810" lon="-75.4029940">
        <ele>3919.9</ele>
        <time>2021-04-17T18:42:30Z</time>
      </trkpt>
      <trkpt lat="4.8435380" lon="-75.4029400">
        <ele>3919.2</ele>
        <time>2021-04-17T18:42:31Z</time>
      </trkpt>
      <trkpt lat="4.8434950" lon="-75.4028860">
        <ele>3918.4</ele>
        <time>2021-04-17T18:42:32Z</time>
      </trkpt>
      <trkpt lat="4.8434500" lon="-75.4028340">
        <ele>3917.7</ele>
        <time>2021-04-17T18:42:33Z</time>
      </trkpt>
      <trkpt lat="4.8434070" lon="-75.4027820">
        <ele>3916.9</ele>
        <time>2021-04-17T18:42:34Z</time>
      </trkpt>
      <trkpt lat="4.8433610" lon="-75.4027330">
        <ele>3916.2</ele>
        <time>2021-04-17T18:42:35Z</time>
      </trkpt>
      <trkpt lat="4.8433180" lon="-75.4026840">
        <ele>3915.5</ele>
        <time>2021-04-17T18:42:36Z</time>
      </trkpt>
      <trkpt lat="4.8432760" lon="-75.4026310">
        <ele>3914.7</ele>
        <time>2021-04-17T18:42:37Z</time>
      </trkpt>
      <trkpt lat="4.8432290" lon="-75.4025800">
        <ele>3913.9</ele>
        <time>2021-04-17T18:42:38Z</time>
      </trkpt>
      <trkpt lat="4.8431800" lon="-75.4025290">
        <ele>3913.2</ele>
        <time>2021-04-17T18:42:39Z</time>
      </trkpt>
      <trkpt lat="4.8431290" lon="-75.4024770">
        <ele>3912.4</ele>
        <time>2021-04-17T18:42:40Z</time>
      </trkpt>
      <trkpt lat="4.8430790" lon="-75.4024230">
        <ele>3911.5</ele>
        <time>2021-04-17T18:42:41Z</time>
      </trkpt>
      <trkpt lat="4.8430320" lon="-75.4023680">
        <ele>3910.7</ele>
        <time>2021-04-17T18:42:42Z</time>
      </trkpt>
      <trkpt lat="4.8429820" lon="-75.4023110">
        <ele>3909.9</ele>
        <time>2021-04-17T18:42:43Z</time>
      </trkpt>
      <trkpt lat="4.8429310" lon="-75.4022580">
        <ele>3909.1</ele>
        <time>2021-04-17T18:42:44Z</time>
      </trkpt>
      <trkpt lat="4.8428820" lon="-75.4022060">
        <ele>3908.3</ele>
        <time>2021-04-17T18:42:45Z</time>
      </trkpt>
      <trkpt lat="4.8428350" lon="-75.4021540">
        <ele>3907.5</ele>
        <time>2021-04-17T18:42:46Z</time>
      </trkpt>
      <trkpt lat="4.8427920" lon="-75.4021060">
        <ele>3906.8</ele>
        <time>2021-04-17T18:42:47Z</time>
      </trkpt>
      <trkpt lat="4.8427520" lon="-75.4020580">
        <ele>3906.1</ele>
        <time>2021-04-17T18:42:48Z</time>
      </trkpt>
      <trkpt lat="4.8427150" lon="-75.4020120">
        <ele>3905.5</ele>
        <time>2021-04-17T18:42:49Z</time>
      </trkpt>
      <trkpt lat="4.8426830" lon="-75.4019720">
        <ele>3904.9</ele>
        <time>2021-04-17T18:42:50Z</time>
      </trkpt>
      <trkpt lat="4.8426600" lon="-75.4019320">
        <ele>3904.4</ele>
        <time>2021-04-17T18:42:51Z</time>
      </trkpt>
      <trkpt lat="4.8426400" lon="-75.4018960">
        <ele>3904.0</ele>
        <time>2021-04-17T18:42:52Z</time>
      </trkpt>
      <trkpt lat="4.8426210" lon="-75.4018650">
        <ele>3904.0</ele>
        <time>2021-04-17T18:42:53Z</time>
      </trkpt>
      <trkpt lat="4.8425990" lon="-75.4018400">
        <ele>3904.0</ele>
        <time>2021-04-17T18:42:54Z</time>
      </trkpt>
      <trkpt lat="4.8425760" lon="-75.4018200">
        <ele>3904.0</ele>
        <time>2021-04-17T18:42:55Z</time>
      </trkpt>
      <trkpt lat="4.8425560" lon="-75.4017950">
        <ele>3903.9</ele>
        <time>2021-04-17T18:42:56Z</time>
      </trkpt>
      <trkpt lat="4.8425330" lon="-75.4017680">
        <ele>3903.9</ele>
        <time>2021-04-17T18:42:57Z</time>
      </trkpt>
      <trkpt lat="4.8425100" lon="-75.4017400">
        <ele>3903.9</ele>
        <time>2021-04-17T18:42:58Z</time>
      </trkpt>
      <trkpt lat="4.8424840" lon="-75.4017120">
        <ele>3903.9</ele>
        <time>2021-04-17T18:42:59Z</time>
      </trkpt>
      <trkpt lat="4.8424560" lon="-75.4016850">
        <ele>3903.9</ele>
        <time>2021-04-17T18:43:00Z</time>
      </trkpt>
      <trkpt lat="4.8424300" lon="-75.4016560">
        <ele>3903.9</ele>
        <time>2021-04-17T18:43:01Z</time>
      </trkpt>
      <trkpt lat="4.8424080" lon="-75.4016240">
        <ele>3903.9</ele>
        <time>2021-04-17T18:43:02Z</time>
      </trkpt>
      <trkpt lat="4.8423870" lon="-75.4015900">
        <ele>3903.9</ele>
        <time>2021-04-17T18:43:03Z</time>
      </trkpt>
      <trkpt lat="4.8423630" lon="-75.4015600">
        <ele>3903.8</ele>
        <time>2021-04-17T18:43:04Z</time>
      </trkpt>
      <trkpt lat="4.8423370" lon="-75.4015330">
        <ele>3903.8</ele>
        <time>2021-04-17T18:43:05Z</time>
      </trkpt>
      <trkpt lat="4.8423120" lon="-75.4015050">
        <ele>3903.8</ele>
        <time>2021-04-17T18:43:06Z</time>
      </trkpt>
      <trkpt lat="4.8422910" lon="-75.4014750">
        <ele>3903.8</ele>
        <time>2021-04-17T18:43:07Z</time>
      </trkpt>
      <trkpt lat="4.8422720" lon="-75.4014460">
        <ele>3903.8</ele>
        <time>2021-04-17T18:43:08Z</time>
      </trkpt>
      <trkpt lat="4.8422530" lon="-75.4014180">
        <ele>3903.8</ele>
        <time>2021-04-17T18:43:09Z</time>
      </trkpt>
      <trkpt lat="4.8422360" lon="-75.4013910">
        <ele>3903.8</ele>
        <time>2021-04-17T18:43:10Z</time>
      </trkpt>
      <trkpt lat="4.8422160" lon="-75.4013650">
        <ele>3903.8</ele>
        <time>2021-04-17T18:43:11Z</time>
      </trkpt>
      <trkpt lat="4.8421970" lon="-75.4013370">
        <ele>3903.8</ele>
        <time>2021-04-17T18:43:12Z</time>
      </trkpt>
      <trkpt lat="4.8421790" lon="-75.4013080">
        <ele>3903.7</ele>
        <time>2021-04-17T18:43:13Z</time>
      </trkpt>
      <trkpt lat="4.8421620" lon="-75.4012790">
        <ele>3903.7</ele>
        <time>2021-04-17T18:43:14Z</time>
      </trkpt>
      <trkpt lat="4.8421460" lon="-75.4012500">
        <ele>3903.7</ele>
        <time>2021-04-17T18:43:15Z</time>
      </trkpt>
      <trkpt lat="4.8421310" lon="-75.4012210">
        <ele>3903.7</ele>
        <time>2021-04-17T18:43:16Z</time>
      </trkpt>
      <trkpt lat="4.8421170" lon="-75.4011930">
        <ele>3903.7</ele>
        <time>2021-04-17T18:43:17Z</time>
      </trkpt>
      <trkpt lat="4.8421030" lon="-75.4011620">
        <ele>3903.7</ele>
        <time>2021-04-17T18:43:18Z</time>
      </trkpt>
      <trkpt lat="4.8420870" lon="-75.4011300">
        <ele>3903.7</ele>
        <time>2021-04-17T18:43:19Z</time>
      </trkpt>
      <trkpt lat="4.8420670" lon="-75.4010970">
        <ele>3903.7</ele>
        <time>2021-04-17T18:43:20Z</time>
      </trkpt>
      <trkpt lat="4.8420470" lon="-75.4010660">
        <ele>3903.7</ele>
        <time>2021-04-17T18:43:21Z</time>
      </trkpt>
      <trkpt lat="4.8420290" lon="-75.4010320">
        <ele>3903.6</ele>
        <time>2021-04-17T18:43:22Z</time>
      </trkpt>
      <trkpt lat="4.8420130" lon="-75.4009980">
        <ele>3903.6</ele>
        <time>2021-04-17T18:43:23Z</time>
      </trkpt>
      <trkpt lat="4.8419940" lon="-75.4009640">
        <ele>3903.6</ele>
        <time>2021-04-17T18:43:24Z</time>
      </trkpt>
      <trkpt lat="4.8419750" lon="-75.4009320">
        <ele>3903.6</ele>
        <time>2021-04-17T18:43:25Z</time>
      </trkpt>
      <trkpt lat="4.8419520" lon="-75.4009010">
        <ele>3903.6</ele>
        <time>2021-04-17T18:43:26Z</time>
      </trkpt>
      <trkpt lat="4.8419290" lon="-75.4008710">
        <ele>3903.6</ele>
        <time>2021-04-17T18:43:27Z</time>
      </trkpt>
      <trkpt lat="4.8419080" lon="-75.4008380">
        <ele>3903.6</ele>
        <time>2021-04-17T18:43:28Z</time>
      </trkpt>
      <trkpt lat="4.8418880" lon="-75.4008050">
        <ele>3903.6</ele>
        <time>2021-04-17T18:43:29Z</time>
      </trkpt>
      <trkpt lat="4.8418680" lon="-75.4007700">
        <ele>3903.5</ele>
        <time>2021-04-17T18:43:30Z</time>
      </trkpt>
      <trkpt lat="4.8418470" lon="-75.4007360">
        <ele>3903.5</ele>
        <time>2021-04-17T18:43:31Z</time>
      </trkpt>
      <trkpt lat="4.8418240" lon="-75.4007030">
        <ele>3903.5</ele>
        <time>2021-04-17T18:43:32Z</time>
      </trkpt>
      <trkpt lat="4.8418010" lon="-75.4006690">
        <ele>3903.5</ele>
        <time>2021-04-17T18:43:33Z</time>
      </trkpt>
      <trkpt lat="4.8417790" lon="-75.4006340">
        <ele>3903.5</ele>
        <time>2021-04-17T18:43:34Z</time>
      </trkpt>
      <trkpt lat="4.8417600" lon="-75.4005960">
        <ele>3903.5</ele>
        <time>2021-04-17T18:43:35Z</time>
      </trkpt>
      <trkpt lat="4.8417430" lon="-75.4005550">
        <ele>3903.5</ele>
        <time>2021-04-17T18:43:36Z</time>
      </trkpt>
      <trkpt lat="4.8417240" lon="-75.4005160">
        <ele>3903.4</ele>
        <time>2021-04-17T18:43:37Z</time>
      </trkpt>
      <trkpt lat="4.8417060" lon="-75.4004770">
        <ele>3903.4</ele>
        <time>2021-04-17T18:43:38Z</time>
      </trkpt>
      <trkpt lat="4.8416910" lon="-75.4004370">
        <ele>3903.4</ele>
        <time>2021-04-17T18:43:39Z</time>
      </trkpt>
      <trkpt lat="4.8416740" lon="-75.4003980">
        <ele>3903.4</ele>
        <time>2021-04-17T18:43:40Z</time>
      </trkpt>
      <trkpt lat="4.8416590" lon="-75.4003580">
        <ele>3903.4</ele>
        <time>2021-04-17T18:43:41Z</time>
      </trkpt>
      <trkpt lat="4.8416460" lon="-75.4003160">
        <ele>3903.4</ele>
        <time>2021-04-17T18:43:42Z</time>
      </trkpt>
      <trkpt lat="4.8416330" lon="-75.4002730">
        <ele>3903.4</ele>
        <time>2021-04-17T18:43:43Z</time>
      </trkpt>
      <trkpt lat="4.8416180" lon="-75.4002300">
        <ele>3903.3</ele>
        <time>2021-04-17T18:43:44Z</time>
      </trkpt>
      <trkpt lat="4.8416020" lon="-75.4001900">
        <ele>3903.3</ele>
        <time>2021-04-17T18:43:45Z</time>
      </trkpt>
      <trkpt lat="4.8415870" lon="-75.4001490">
        <ele>3903.3</ele>
        <time>2021-04-17T18:43:46Z</time>
      </trkpt>
      <trkpt lat="4.8415740" lon="-75.4001090">
        <ele>3903.3</ele>
        <time>2021-04-17T18:43:47Z</time>
      </trkpt>
      <trkpt lat="4.8415610" lon="-75.4000680">
        <ele>3903.3</ele>
        <time>2021-04-17T18:43:48Z</time>
      </trkpt>
      <trkpt lat="4.8415490" lon="-75.4000290">
        <ele>3903.3</ele>
        <time>2021-04-17T18:43:49Z</time>
      </trkpt>
      <trkpt lat="4.8415390" lon="-75.3999890">
        <ele>3903.3</ele>
        <time>2021-04-17T18:43:50Z</time>
      </trkpt>
      <trkpt lat="4.8415260" lon="-75.3999510">
        <ele>3903.2</ele>
        <time>2021-04-17T18:43:51Z</time>
      </trkpt>
      <trkpt lat="4.8415130" lon="-75.3999140">
        <ele>3903.2</ele>
        <time>2021-04-17T18:43:52Z</time>
      </trkpt>
      <trkpt lat="4.8415040" lon="-75.3998740">
        <ele>3903.2</ele>
        <time>2021-04-17T18:43:53Z</time>
      </trkpt>
      <trkpt lat="4.8414960" lon="-75.3998320">
        <ele>3903.2</ele>
        <time>2021-04-17T18:43:54Z</time>
      </trkpt>
      <trkpt lat="4.8414880" lon="-75.3997930">
        <ele>3903.2</ele>
        <time>2021-04-17T18:43:55Z</time>
      </trkpt>
      <trkpt lat="4.8414850" lon="-75.3997540">
        <ele>3903.2</ele>
        <time>2021-04-17T18:43:56Z</time>
      </trkpt>
      <trkpt lat="4.8414860" lon="-75.3997150">
        <ele>3903.2</ele>
        <time>2021-04-17T18:43:57Z</time>
      </trkpt>
      <trkpt lat="4.8414900" lon="-75.3996740">
        <ele>3903.2</ele>
        <time>2021-04-17T18:43:58Z</time>
      </trkpt>
      <trkpt lat="4.8414920" lon="-75.3996340">
        <ele>3903.1</ele>
        <time>2021-04-17T18:43:59Z</time>
      </trkpt>
      <trkpt lat="4.8414920" lon="-75.3995950">
        <ele>3903.1</ele>
        <time>2021-04-17T18:44:00Z</time>
      </trkpt>
      <trkpt lat="4.8414910" lon="-75.3995580">
        <ele>3903.1</ele>
        <time>2021-04-17T18:44:01Z</time>
      </trkpt>
      <trkpt lat="4.8414920" lon="-75.3995210">
        <ele>3903.1</ele>
        <time>2021-04-17T18:44:02Z</time>
      </trkpt>
      <trkpt lat="4.8414920" lon="-75.3994820">
        <ele>3903.1</ele>
        <time>2021-04-17T18:44:03Z</time>
      </trkpt>
      <trkpt lat="4.8414890" lon="-75.3994430">
        <ele>3903.1</ele>
        <time>2021-04-17T18:44:04Z</time>
      </trkpt>
      <trkpt lat="4.8414840" lon="-75.3994030">
        <ele>3903.1</ele>
        <time>2021-04-17T18:44:05Z</time>
      </trkpt>
      <trkpt lat="4.8414820" lon="-75.3993610">
        <ele>3903.0</ele>
        <time>2021-04-17T18:44:06Z</time>
      </trkpt>
      <trkpt lat="4.8414870" lon="-75.3993180">
        <ele>3903.0</ele>
        <time>2021-04-17T18:44:07Z</time>
      </trkpt>
      <trkpt lat="4.8414980" lon="-75.3992780">
        <ele>3903.0</ele>
        <time>2021-04-17T18:44:08Z</time>
      </trkpt>
      <trkpt lat="4.8415160" lon="-75.3992420">
        <ele>3903.0</ele>
        <time>2021-04-17T18:44:09Z</time>
      </trkpt>
      <trkpt lat="4.8415400" lon="-75.3992100">
        <ele>3903.0</ele>
        <time>2021-04-17T18:44:10Z</time>
      </trkpt>
      <trkpt lat="4.8415680" lon="-75.3991820">
        <ele>3903.0</ele>
        <time>2021-04-17T18:44:11Z</time>
      </trkpt>
      <trkpt lat="4.8415980" lon="-75.3991560">
        <ele>3903.0</ele>
        <time>2021-04-17T18:44:12Z</time>
      </trkpt>
      <trkpt lat="4.8416250" lon="-75.3991300">
        <ele>3903.0</ele>
        <time>2021-04-17T18:44:13Z</time>
      </trkpt>
      <trkpt lat="4.8416510" lon="-75.3991030">
        <ele>3902.9</ele>
        <time>2021-04-17T18:44:14Z</time>
      </trkpt>
      <trkpt lat="4.8416760" lon="-75.3990780">
        <ele>3902.9</ele>
        <time>2021-04-17T18:44:15Z</time>
      </trkpt>
      <trkpt lat="4.8417040" lon="-75.3990560">
        <ele>3902.9</ele>
        <time>2021-04-17T18:44:16Z</time>
      </trkpt>
      <trkpt lat="4.8417360" lon="-75.3990350">
        <ele>3902.9</ele>
        <time>2021-04-17T18:44:17Z</time>
      </trkpt>
      <trkpt lat="4.8417710" lon="-75.3990200">
        <ele>3902.9</ele>
        <time>2021-04-17T18:44:18Z</time>
      </trkpt>
      <trkpt lat="4.8418050" lon="-75.3990130">
        <ele>3902.9</ele>
        <time>2021-04-17T18:44:19Z</time>
      </trkpt>
      <trkpt lat="4.8418450" lon="-75.3990150">
        <ele>3902.9</ele>
        <time>2021-04-17T18:44:20Z</time>
      </trkpt>
      <trkpt lat="4.8418860" lon="-75.3990170">
        <ele>3902.9</ele>
        <time>2021-04-17T18:44:21Z</time>
      </trkpt>
      <trkpt lat="4.8419310" lon="-75.3990170">
        <ele>3902.8</ele>
        <time>2021-04-17T18:44:22Z</time>
      </trkpt>
      <trkpt lat="4.8419790" lon="-75.3990130">
        <ele>3902.8</ele>
        <time>2021-04-17T18:44:23Z</time>
      </trkpt>
      <trkpt lat="4.8420290" lon="-75.3990070">
        <ele>3902.8</ele>
        <time>2021-04-17T18:44:24Z</time>
      </trkpt>
      <trkpt lat="4.8420810" lon="-75.3989980">
        <ele>3902.8</ele>
        <time>2021-04-17T18:44:25Z</time>
      </trkpt>
      <trkpt lat="4.8421320" lon="-75.3989880">
        <ele>3902.8</ele>
        <time>2021-04-17T18:44:26Z</time>
      </trkpt>
      <trkpt lat="4.8421840" lon="-75.3989770">
        <ele>3902.8</ele>
        <time>2021-04-17T18:44:27Z</time>
      </trkpt>
      <trkpt lat="4.8422370" lon="-75.3989680">
        <ele>3902.7</ele>
        <time>2021-04-17T18:44:28Z</time>
      </trkpt>
      <trkpt lat="4.8422920" lon="-75.3989640">
        <ele>3902.7</ele>
        <time>2021-04-17T18:44:29Z</time>
      </trkpt>
      <trkpt lat="4.8423500" lon="-75.3989670">
        <ele>3902.7</ele>
        <time>2021-04-17T18:44:30Z</time>
      </trkpt>
      <trkpt lat="4.8424080" lon="-75.3989750">
        <ele>3902.7</ele>
        <time>2021-04-17T18:44:31Z</time>
      </trkpt>
      <trkpt lat="4.8424650" lon="-75.3989890">
        <ele>3902.7</ele>
        <time>2021-04-17T18:44:32Z</time>
      </trkpt>
      <trkpt lat="4.8425210" lon="-75.3990110">
        <ele>3902.6</ele>
        <time>2021-04-17T18:44:33Z</time>
      </trkpt>
      <trkpt lat="4.8425710" lon="-75.3990440">
        <ele>3902.6</ele>
        <time>2021-04-17T18:44:34Z</time>
      </trkpt>
      <trkpt lat="4.8426170" lon="-75.3990880">
        <ele>3902.6</ele>
        <time>2021-04-17T18:44:35Z</time>
      </trkpt>
      <trkpt lat="4.8426610" lon="-75.3991380">
        <ele>3902.6</ele>
        <time>2021-04-17T18:44:36Z</time>
      </trkpt>
      <trkpt lat="4.8427050" lon="-75.3991870">
        <ele>3902.6</ele>
        <time>2021-04-17T18:44:37Z</time>
      </trkpt>
      <trkpt lat="4.8427490" lon="-75.3992330">
        <ele>3902.5</ele>
        <time>2021-04-17T18:44:38Z</time>
      </trkpt>
      <trkpt lat="4.8427920" lon="-75.3992770">
        <ele>3902.5</ele>
        <time>2021-04-17T18:44:39Z</time>
      </trkpt>
      <trkpt lat="4.8428370" lon="-75.3993210">
        <ele>3902.5</ele>
        <time>2021-04-17T18:44:40Z</time>
      </trkpt>
      <trkpt lat="4.8428800" lon="-75.3993680">
        <ele>3902.5</ele>
        <time>2021-04-17T18:44:41Z</time>
      </trkpt>
      <trkpt lat="4.8429210" lon="-75.3994190">
        <ele>3902.5</ele>
        <time>2021-04-17T18:44:42Z</time>
      </trkpt>
      <trkpt lat="4.8429600" lon="-75.3994690">
        <ele>3902.4</ele>
        <time>2021-04-17T18:44:43Z</time>
      </trkpt>
      <trkpt lat="4.8430020" lon="-75.3995190">
        <ele>3902.4</ele>
        <time>2021-04-17T18:44:44Z</time>
      </trkpt>
      <trkpt lat="4.8430470" lon="-75.3995660">
        <ele>3902.4</ele>
        <time>2021-04-17T18:44:45Z</time>
      </trkpt>
      <trkpt lat="4.8430910" lon="-75.3996140">
        <ele>3902.4</ele>
        <time>2021-04-17T18:44:46Z</time>
      </trkpt>
      <trkpt lat="4.8431350" lon="-75.3996640">
        <ele>3902.4</ele>
        <time>2021-04-17T18:44:47Z</time>
      </trkpt>
      <trkpt lat="4.8431850" lon="-75.3997110">
        <ele>3902.3</ele>
        <time>2021-04-17T18:44:48Z</time>
      </trkpt>
      <trkpt lat="4.8432340" lon="-75.3997540">
        <ele>3902.3</ele>
        <time>2021-04-17T18:44:49Z</time>
      </trkpt>
      <trkpt lat="4.8432840" lon="-75.3997990">
        <ele>3902.3</ele>
        <time>2021-04-17T18:44:50Z</time>
      </trkpt>
      <trkpt lat="4.8433320" lon="-75.3998450">
        <ele>3902.3</ele>
        <time>2021-04-17T18:44:51Z</time>
      </trkpt>
      <trkpt lat="4.8433820" lon="-75.3998900">
        <ele>3902.2</ele>
        <time>2021-04-17T18:44:52Z</time>
      </trkpt>
      <trkpt lat="4.8434380" lon="-75.3999280">
        <ele>3902.2</ele>
        <time>2021-04-17T18:44:53Z</time>
      </trkpt>
      <trkpt lat="4.8435000" lon="-75.3999530">
        <ele>3902.2</ele>
        <time>2021-04-17T18:44:54Z</time>
      </trkpt>
      <trkpt lat="4.8435640" lon="-75.3999650">
        <ele>3902.2</ele>
        <time>2021-04-17T18:44:55Z</time>
      </trkpt>
      <trkpt lat="4.8436300" lon="-75.3999690">
        <ele>3902.2</ele>
        <time>2021-04-17T18:44:56Z</time>
      </trkpt>
      <trkpt lat="4.8436940" lon="-75.3999730">
        <ele>3902.1</ele>
        <time>2021-04-17T18:44:57Z</time>
      </trkpt>
      <trkpt lat="4.8437560" lon="-75.3999790">
        <ele>3902.1</ele>
        <time>2021-04-17T18:44:58Z</time>
      </trkpt>
      <trkpt lat="4.8438160" lon="-75.3999820">
        <ele>3902.1</ele>
        <time>2021-04-17T18:44:59Z</time>
      </trkpt>
      <trkpt lat="4.8438760" lon="-75.3999840">
        <ele>3902.1</ele>
        <time>2021-04-17T18:45:00Z</time>
      </trkpt>
      <trkpt lat="4.8439340" lon="-75.3999890">
        <ele>3902.1</ele>
        <time>2021-04-17T18:45:01Z</time>
      </trkpt>
      <trkpt lat="4.8439900" lon="-75.3999950">
        <ele>3902.0</ele>
        <time>2021-04-17T18:45:02Z</time>
      </trkpt>
      <trkpt lat="4.8440460" lon="-75.4000010">
        <ele>3902.0</ele>
        <time>2021-04-17T18:45:03Z</time>
      </trkpt>
      <trkpt lat="4.8441010" lon="-75.3999990">
        <ele>3902.0</ele>
        <time>2021-04-17T18:45:04Z</time>
      </trkpt>
      <trkpt lat="4.8441530" lon="-75.3999850">
        <ele>3902.0</ele>
        <time>2021-04-17T18:45:05Z</time>
      </trkpt>
      <trkpt lat="4.8442050" lon="-75.3999710">
        <ele>3902.0</ele>
        <time>2021-04-17T18:45:06Z</time>
      </trkpt>
      <trkpt lat="4.8442570" lon="-75.3999660">
        <ele>3901.9</ele>
        <time>2021-04-17T18:45:07Z</time>
      </trkpt>
      <trkpt lat="4.8443110" lon="-75.3999650">
        <ele>3901.9</ele>
        <time>2021-04-17T18:45:08Z</time>
      </trkpt>
      <trkpt lat="4.8443650" lon="-75.3999630">
        <ele>3901.9</ele>
        <time>2021-04-17T18:45:09Z</time>
      </trkpt>
      <trkpt lat="4.8444210" lon="-75.3999540">
        <ele>3901.9</ele>
        <time>2021-04-17T18:45:10Z</time>
      </trkpt>
      <trkpt lat="4.8444800" lon="-75.3999410">
        <ele>3901.9</ele>
        <time>2021-04-17T18:45:11Z</time>
      </trkpt>
      <trkpt lat="4.8445390" lon="-75.3999280">
        <ele>3901.9</ele>
        <time>2021-04-17T18:45:12Z</time>
      </trkpt>
      <trkpt lat="4.8445990" lon="-75.3999170">
        <ele>3901.8</ele>
        <time>2021-04-17T18:45:13Z</time>
      </trkpt>
      <trkpt lat="4.8446580" lon="-75.3999100">
        <ele>3901.8</ele>
        <time>2021-04-17T18:45:14Z</time>
      </trkpt>
      <trkpt lat="4.8447150" lon="-75.3999050">
        <ele>3901.8</ele>
        <time>2021-04-17T18:45:15Z</time>
      </trkpt>
      <trkpt lat="4.8447710" lon="-75.3999020">
        <ele>3901.8</ele>
        <time>2021-04-17T18:45:16Z</time>
      </trkpt>
      <trkpt lat="4.8448250" lon="-75.3998980">
        <ele>3901.8</ele>
        <time>2021-04-17T18:45:17Z</time>
      </trkpt>
      <trkpt lat="4.8448770" lon="-75.3998930">
        <ele>3901.7</ele>
        <time>2021-04-17T18:45:18Z</time>
      </trkpt>
      <trkpt lat="4.8449270" lon="-75.3998870">
        <ele>3901.7</ele>
        <time>2021-04-17T18:45:19Z</time>
      </trkpt>
      <trkpt lat="4.8449740" lon="-75.3998800">
        <ele>3901.7</ele>
        <time>2021-04-17T18:45:20Z</time>
      </trkpt>
      <trkpt lat="4.8450170" lon="-75.3998730">
        <ele>3901.7</ele>
        <time>2021-04-17T18:45:21Z</time>
      </trkpt>
      <trkpt lat="4.8450590" lon="-75.3998660">
        <ele>3901.7</ele>
        <time>2021-04-17T18:45:22Z</time>
      </trkpt>
      <trkpt lat="4.8450980" lon="-75.3998590">
        <ele>3901.7</ele>
        <time>2021-04-17T18:45:23Z</time>
      </trkpt>
      <trkpt lat="4.8451340" lon="-75.3998490">
        <ele>3901.7</ele>
        <time>2021-04-17T18:45:24Z</time>
      </trkpt>
      <trkpt lat="4.8451660" lon="-75.3998330">
        <ele>3901.6</ele>
        <time>2021-04-17T18:45:25Z</time>
      </trkpt>
      <trkpt lat="4.8451970" lon="-75.3998120">
        <ele>3901.6</ele>
        <time>2021-04-17T18:45:26Z</time>
      </trkpt>
      <trkpt lat="4.8452250" lon="-75.3997880">
        <ele>3901.6</ele>
        <time>2021-04-17T18:45:27Z</time>
      </trkpt>
      <trkpt lat="4.8452490" lon="-75.3997580">
        <ele>3901.6</ele>
        <time>2021-04-17T18:45:28Z</time>
      </trkpt>
      <trkpt lat="4.8452660" lon="-75.3997220">
        <ele>3901.6</ele>
        <time>2021-04-17T18:45:29Z</time>
      </trkpt>
      <trkpt lat="4.8452760" lon="-75.3996800">
        <ele>3901.6</ele>
        <time>2021-04-17T18:45:30Z</time>
      </trkpt>
      <trkpt lat="4.8452830" lon="-75.3996360">
        <ele>3901.6</ele>
        <time>2021-04-17T18:45:31Z</time>
      </trkpt>
      <trkpt lat="4.8452910" lon="-75.3995880">
        <ele>3901.5</ele>
        <time>2021-04-17T18:45:32Z</time>
      </trkpt>
      <trkpt lat="4.8452990" lon="-75.3995360">
        <ele>3901.5</ele>
        <time>2021-04-17T18:45:33Z</time>
      </trkpt>
      <trkpt lat="4.8453040" lon="-75.3994810">
        <ele>3901.5</ele>
        <time>2021-04-17T18:45:34Z</time>
      </trkpt>
      <trkpt lat="4.8453070" lon="-75.3994230">
        <ele>3901.5</ele>
        <time>2021-04-17T18:45:35Z</time>
      </trkpt>
      <trkpt lat="4.8453070" lon="-75.3993620">
        <ele>3901.5</ele>
        <time>2021-04-17T18:45:36Z</time>
      </trkpt>
      <trkpt lat="4.8453060" lon="-75.3992970">
        <ele>3901.5</ele>
        <time>2021-04-17T18:45:37Z</time>
      </trkpt>
      <trkpt lat="4.8453060" lon="-75.3992290">
        <ele>3901.4</ele>
        <time>2021-04-17T18:45:38Z</time>
      </trkpt>
      <trkpt lat="4.8453070" lon="-75.3991610">
        <ele>3901.4</ele>
        <time>2021-04-17T18:45:39Z</time>
      </trkpt>
      <trkpt lat="4.8453140" lon="-75.3990950">
        <ele>3901.4</ele>
        <time>2021-04-17T18:45:40Z</time>
      </trkpt>
      <trkpt lat="4.8453250" lon="-75.3990340">
        <ele>3901.4</ele>
        <time>2021-04-17T18:45:41Z</time>
      </trkpt>
      <trkpt lat="4.8453400" lon="-75.3989720">
        <ele>3901.3</ele>
        <time>2021-04-17T18:45:42Z</time>
      </trkpt>
      <trkpt lat="4.8453640" lon="-75.3989100">
        <ele>3901.3</ele>
        <time>2021-04-17T18:45:43Z</time>
      </trkpt>
      <trkpt lat="4.8454020" lon="-75.3988550">
        <ele>3901.3</ele>
        <time>2021-04-17T18:45:44Z</time>
      </trkpt>
      <trkpt lat="4.8454530" lon="-75.3988100">
        <ele>3901.3</ele>
        <time>2021-04-17T18:45:45Z</time>
      </trkpt>
      <trkpt lat="4.8455080" lon="-75.3987750">
        <ele>3901.3</ele>
        <time>2021-04-17T18:45:46Z</time>
      </trkpt>
      <trkpt lat="4.8455650" lon="-75.3987450">
        <ele>3901.2</ele>
        <time>2021-04-17T18:45:47Z</time>
      </trkpt>
      <trkpt lat="4.8456210" lon="-75.3987120">
        <ele>3901.2</ele>
        <time>2021-04-17T18:45:48Z</time>
      </trkpt>
      <trkpt lat="4.8456750" lon="-75.3986750">
        <ele>3901.2</ele>
        <time>2021-04-17T18:45:49Z</time>
      </trkpt>
      <trkpt lat="4.8457210" lon="-75.3986350">
        <ele>3901.2</ele>
        <time>2021-04-17T18:45:50Z</time>
      </trkpt>
      <trkpt lat="4.8457560" lon="-75.3985860">
        <ele>3901.2</ele>
        <time>2021-04-17T18:45:51Z</time>
      </trkpt>
      <trkpt lat="4.8457790" lon="-75.3985270">
        <ele>3901.1</ele>
        <time>2021-04-17T18:45:52Z</time>
      </trkpt>
      <trkpt lat="4.8457910" lon="-75.3984590">
        <ele>3901.1</ele>
        <time>2021-04-17T18:45:53Z</time>
      </trkpt>
      <trkpt lat="4.8457980" lon="-75.3983880">
        <ele>3901.1</ele>
        <time>2021-04-17T18:45:54Z</time>
      </trkpt>
      <trkpt lat="4.8458120" lon="-75.3983190">
        <ele>3901.1</ele>
        <time>2021-04-17T18:45:55Z</time>
      </trkpt>
      <trkpt lat="4.8458440" lon="-75.3982600">
        <ele>3901.0</ele>
        <time>2021-04-17T18:45:56Z</time>
      </trkpt>
      <trkpt lat="4.8458970" lon="-75.3982230">
        <ele>3901.0</ele>
        <time>2021-04-17T18:45:57Z</time>
      </trkpt>
      <trkpt lat="4.8459620" lon="-75.3982060">
        <ele>3901.0</ele>
        <time>2021-04-17T18:45:58Z</time>
      </trkpt>
      <trkpt lat="4.8460290" lon="-75.3982140">
        <ele>3900.0</ele>
        <time>2021-04-17T18:45:59Z</time>
      </trkpt>
      <trkpt lat="4.8460950" lon="-75.3982250">
        <ele>3899.0</ele>
        <time>2021-04-17T18:46:00Z</time>
      </trkpt>
      <trkpt lat="4.8461630" lon="-75.3982250">
        <ele>3898.1</ele>
        <time>2021-04-17T18:46:01Z</time>
      </trkpt>
      <trkpt lat="4.8462290" lon="-75.3982090">
        <ele>3897.1</ele>
        <time>2021-04-17T18:46:02Z</time>
      </trkpt>
      <trkpt lat="4.8462930" lon="-75.3981840">
        <ele>3896.1</ele>
        <time>2021-04-17T18:46:03Z</time>
      </trkpt>
      <trkpt lat="4.8463560" lon="-75.3981550">
        <ele>3895.3</ele>
        <time>2021-04-17T18:46:04Z</time>
      </trkpt>
      <trkpt lat="4.8464240" lon="-75.3981270">
        <ele>3894.6</ele>
        <time>2021-04-17T18:46:05Z</time>
      </trkpt>
      <trkpt lat="4.8464890" lon="-75.3981030">
        <ele>3894.2</ele>
        <time>2021-04-17T18:46:06Z</time>
      </trkpt>
      <trkpt lat="4.8465480" lon="-75.3980780">
        <ele>3893.9</ele>
        <time>2021-04-17T18:46:07Z</time>
      </trkpt>
      <trkpt lat="4.8466030" lon="-75.3980390">
        <ele>3893.6</ele>
        <time>2021-04-17T18:46:08Z</time>
      </trkpt>
      <trkpt lat="4.8466550" lon="-75.3979920">
        <ele>3893.2</ele>
        <time>2021-04-17T18:46:09Z</time>
      </trkpt>
      <trkpt lat="4.8467090" lon="-75.3979450">
        <ele>3892.8</ele>
        <time>2021-04-17T18:46:10Z</time>
      </trkpt>
      <trkpt lat="4.8467680" lon="-75.3978970">
        <ele>3892.4</ele>
        <time>2021-04-17T18:46:11Z</time>
      </trkpt>
      <trkpt lat="4.8468270" lon="-75.3978450">
        <ele>3892.0</ele>
        <time>2021-04-17T18:46:12Z</time>
      </trkpt>
      <trkpt lat="4.8468870" lon="-75.3977890">
        <ele>3891.8</ele>
        <time>2021-04-17T18:46:13Z</time>
      </trkpt>
      <trkpt lat="4.8469500" lon="-75.3977350">
        <ele>3891.9</ele>
        <time>2021-04-17T18:46:14Z</time>
      </trkpt>
      <trkpt lat="4.8470150" lon="-75.3976910">
        <ele>3892.0</ele>
        <time>2021-04-17T18:46:15Z</time>
      </trkpt>
      <trkpt lat="4.8470830" lon="-75.3976590">
        <ele>3891.8</ele>
        <time>2021-04-17T18:46:16Z</time>
      </trkpt>
      <trkpt lat="4.8471560" lon="-75.3976410">
        <ele>3891.7</ele>
        <time>2021-04-17T18:46:17Z</time>
      </trkpt>
      <trkpt lat="4.8472340" lon="-75.3976320">
        <ele>3891.5</ele>
        <time>2021-04-17T18:46:18Z</time>
      </trkpt>
      <trkpt lat="4.8473120" lon="-75.3976230">
        <ele>3891.3</ele>
        <time>2021-04-17T18:46:19Z</time>
      </trkpt>
      <trkpt lat="4.8473850" lon="-75.3976030">
        <ele>3891.2</ele>
        <time>2021-04-17T18:46:20Z</time>
      </trkpt>
      <trkpt lat="4.8474520" lon="-75.3975710">
        <ele>3891.0</ele>
        <time>2021-04-17T18:46:21Z</time>
      </trkpt>
      <trkpt lat="4.8475160" lon="-75.3975310">
        <ele>3890.9</ele>
        <time>2021-04-17T18:46:22Z</time>
      </trkpt>
      <trkpt lat="4.8475810" lon="-75.3974870">
        <ele>3890.7</ele>
        <time>2021-04-17T18:46:23Z</time>
      </trkpt>
      <trkpt lat="4.8476440" lon="-75.3974370">
        <ele>3890.6</ele>
        <time>2021-04-17T18:46:24Z</time>
      </trkpt>
      <trkpt lat="4.8476960" lon="-75.3973780">
        <ele>3890.4</ele>
        <time>2021-04-17T18:46:25Z</time>
      </trkpt>
      <trkpt lat="4.8477360" lon="-75.3973090">
        <ele>3890.2</ele>
        <time>2021-04-17T18:46:26Z</time>
      </trkpt>
      <trkpt lat="4.8477710" lon="-75.3972320">
        <ele>3890.1</ele>
        <time>2021-04-17T18:46:27Z</time>
      </trkpt>
      <trkpt lat="4.8478030" lon="-75.3971520">
        <ele>3889.9</ele>
        <time>2021-04-17T18:46:28Z</time>
      </trkpt>
      <trkpt lat="4.8478330" lon="-75.3970710">
        <ele>3889.7</ele>
        <time>2021-04-17T18:46:29Z</time>
      </trkpt>
      <trkpt lat="4.8478610" lon="-75.3969920">
        <ele>3889.5</ele>
        <time>2021-04-17T18:46:30Z</time>
      </trkpt>
      <trkpt lat="4.8478870" lon="-75.3969220">
        <ele>3889.4</ele>
        <time>2021-04-17T18:46:31Z</time>
      </trkpt>
      <trkpt lat="4.8479090" lon="-75.3968640">
        <ele>3889.3</ele>
        <time>2021-04-17T18:46:32Z</time>
      </trkpt>
      <trkpt lat="4.8479280" lon="-75.3968150">
        <ele>3889.2</ele>
        <time>2021-04-17T18:46:33Z</time>
      </trkpt>
      <trkpt lat="4.8479480" lon="-75.3967760">
        <ele>3889.1</ele>
        <time>2021-04-17T18:46:34Z</time>
      </trkpt>
      <trkpt lat="4.8479750" lon="-75.3967470">
        <ele>3889.0</ele>
        <time>2021-04-17T18:46:35Z</time>
      </trkpt>
      <trkpt lat="4.8480050" lon="-75.3967260">
        <ele>3888.9</ele>
        <time>2021-04-17T18:46:36Z</time>
      </trkpt>
      <trkpt lat="4.8480370" lon="-75.3967110">
        <ele>3888.8</ele>
        <time>2021-04-17T18:46:37Z</time>
      </trkpt>
      <trkpt lat="4.8480720" lon="-75.3966980">
        <ele>3888.8</ele>
        <time>2021-04-17T18:46:38Z</time>
      </trkpt>
      <trkpt lat="4.8481100" lon="-75.3966900">
        <ele>3888.7</ele>
        <time>2021-04-17T18:46:39Z</time>
      </trkpt>
      <trkpt lat="4.8481490" lon="-75.3966870">
        <ele>3888.6</ele>
        <time>2021-04-17T18:46:40Z</time>
      </trkpt>
      <trkpt lat="4.8481900" lon="-75.3966890">
        <ele>3888.5</ele>
        <time>2021-04-17T18:46:41Z</time>
      </trkpt>
      <trkpt lat="4.8482310" lon="-75.3966890">
        <ele>3888.4</ele>
        <time>2021-04-17T18:46:42Z</time>
      </trkpt>
      <trkpt lat="4.8482700" lon="-75.3966850">
        <ele>3888.4</ele>
        <time>2021-04-17T18:46:43Z</time>
      </trkpt>
      <trkpt lat="4.8483090" lon="-75.3966770">
        <ele>3888.3</ele>
        <time>2021-04-17T18:46:44Z</time>
      </trkpt>
      <trkpt lat="4.8483370" lon="-75.3966680">
        <ele>3888.2</ele>
        <time>2021-04-17T18:46:45Z</time>
      </trkpt>
      <trkpt lat="4.8483500" lon="-75.3966630">
        <ele>3888.2</ele>
        <time>2021-04-17T18:46:46Z</time>
      </trkpt>
      <trkpt lat="4.8483530" lon="-75.3966630">
        <ele>3888.2</ele>
        <time>2021-04-17T18:46:47Z</time>
      </trkpt>
      <trkpt lat="4.8483530" lon="-75.3966640">
        <ele>3888.2</ele>
        <time>2021-04-17T18:46:48Z</time>
      </trkpt>
      <trkpt lat="4.8483530" lon="-75.3966640">
        <ele>3888.2</ele>
        <time>2021-04-17T18:46:49Z</time>
      </trkpt>
      <trkpt lat="4.8483520" lon="-75.3966650">
        <ele>3888.2</ele>
        <time>2021-04-17T18:46:50Z</time>
      </trkpt>
      <trkpt lat="4.8483520" lon="-75.3966650">
        <ele>3888.2</ele>
        <time>2021-04-17T18:46:51Z</time>
      </trkpt>
      <trkpt lat="4.8483500" lon="-75.3966660">
        <ele>3888.2</ele>
        <time>2021-04-17T18:46:52Z</time>
      </trkpt>
      <trkpt lat="4.8483490" lon="-75.3966650">
        <ele>3888.2</ele>
        <time>2021-04-17T18:46:53Z</time>
      </trkpt>
      <trkpt lat="4.8483480" lon="-75.3966640">
        <ele>3888.2</ele>
        <time>2021-04-17T18:46:54Z</time>
      </trkpt>
      <trkpt lat="4.8483480" lon="-75.3966650">
        <ele>3888.2</ele>
        <time>2021-04-17T18:46:55Z</time>
      </trkpt>
      <trkpt lat="4.8483490" lon="-75.3966650">
        <ele>3888.2</ele>
        <time>2021-04-17T18:46:56Z</time>
      </trkpt>
      <trkpt lat="4.8483500" lon="-75.3966660">
        <ele>3888.2</ele>
        <time>2021-04-17T18:46:57Z</time>
      </trkpt>
      <trkpt lat="4.8483570" lon="-75.3966850">
        <ele>3888.1</ele>
        <time>2021-04-17T18:57:25Z</time>
      </trkpt>
      <trkpt lat="4.8483590" lon="-75.3966840">
        <ele>3888.1</ele>
        <time>2021-04-17T18:57:26Z</time>
      </trkpt>
      <trkpt lat="4.8483640" lon="-75.3966820">
        <ele>3888.1</ele>
        <time>2021-04-17T18:57:27Z</time>
      </trkpt>
      <trkpt lat="4.8483720" lon="-75.3966770">
        <ele>3888.1</ele>
        <time>2021-04-17T18:57:28Z</time>
      </trkpt>
      <trkpt lat="4.8483860" lon="-75.3966690">
        <ele>3888.1</ele>
        <time>2021-04-17T18:57:29Z</time>
      </trkpt>
      <trkpt lat="4.8484040" lon="-75.3966630">
        <ele>3888.0</ele>
        <time>2021-04-17T18:57:30Z</time>
      </trkpt>
      <trkpt lat="4.8484250" lon="-75.3966570">
        <ele>3888.0</ele>
        <time>2021-04-17T18:57:31Z</time>
      </trkpt>
      <trkpt lat="4.8484480" lon="-75.3966540">
        <ele>3887.9</ele>
        <time>2021-04-17T18:57:32Z</time>
      </trkpt>
      <trkpt lat="4.8484710" lon="-75.3966560">
        <ele>3887.9</ele>
        <time>2021-04-17T18:57:33Z</time>
      </trkpt>
      <trkpt lat="4.8484950" lon="-75.3966630">
        <ele>3887.8</ele>
        <time>2021-04-17T18:57:34Z</time>
      </trkpt>
      <trkpt lat="4.8485190" lon="-75.3966720">
        <ele>3887.8</ele>
        <time>2021-04-17T18:57:35Z</time>
      </trkpt>
      <trkpt lat="4.8485440" lon="-75.3966810">
        <ele>3887.7</ele>
        <time>2021-04-17T18:57:36Z</time>
      </trkpt>
      <trkpt lat="4.8485710" lon="-75.3966910">
        <ele>3887.7</ele>
        <time>2021-04-17T18:57:37Z</time>
      </trkpt>
      <trkpt lat="4.8485990" lon="-75.3967020">
        <ele>3887.6</ele>
        <time>2021-04-17T18:57:38Z</time>
      </trkpt>
      <trkpt lat="4.8486270" lon="-75.3967140">
        <ele>3887.6</ele>
        <time>2021-04-17T18:57:39Z</time>
      </trkpt>
      <trkpt lat="4.8486560" lon="-75.3967250">
        <ele>3887.5</ele>
        <time>2021-04-17T18:57:40Z</time>
      </trkpt>
      <trkpt lat="4.8486880" lon="-75.3967340">
        <ele>3887.4</ele>
        <time>2021-04-17T18:57:41Z</time>
      </trkpt>
      <trkpt lat="4.8487230" lon="-75.3967410">
        <ele>3887.3</ele>
        <time>2021-04-17T18:57:42Z</time>
      </trkpt>
      <trkpt lat="4.8487590" lon="-75.3967470">
        <ele>3887.3</ele>
        <time>2021-04-17T18:57:43Z</time>
      </trkpt>
      <trkpt lat="4.8487950" lon="-75.3967540">
        <ele>3887.2</ele>
        <time>2021-04-17T18:57:44Z</time>
      </trkpt>
      <trkpt lat="4.8488310" lon="-75.3967600">
        <ele>3887.1</ele>
        <time>2021-04-17T18:57:45Z</time>
      </trkpt>
      <trkpt lat="4.8488680" lon="-75.3967660">
        <ele>3887.0</ele>
        <time>2021-04-17T18:57:46Z</time>
      </trkpt>
      <trkpt lat="4.8489020" lon="-75.3967680">
        <ele>3887.0</ele>
        <time>2021-04-17T18:57:47Z</time>
      </trkpt>
      <trkpt lat="4.8489350" lon="-75.3967710">
        <ele>3886.9</ele>
        <time>2021-04-17T18:57:48Z</time>
      </trkpt>
      <trkpt lat="4.8489680" lon="-75.3967760">
        <ele>3886.8</ele>
        <time>2021-04-17T18:57:49Z</time>
      </trkpt>
      <trkpt lat="4.8490000" lon="-75.3967830">
        <ele>3886.8</ele>
        <time>2021-04-17T18:57:50Z</time>
      </trkpt>
      <trkpt lat="4.8490340" lon="-75.3967900">
        <ele>3886.7</ele>
        <time>2021-04-17T18:57:51Z</time>
      </trkpt>
      <trkpt lat="4.8490690" lon="-75.3967970">
        <ele>3886.6</ele>
        <time>2021-04-17T18:57:52Z</time>
      </trkpt>
      <trkpt lat="4.8491030" lon="-75.3968030">
        <ele>3886.6</ele>
        <time>2021-04-17T18:57:53Z</time>
      </trkpt>
      <trkpt lat="4.8491370" lon="-75.3968090">
        <ele>3886.5</ele>
        <time>2021-04-17T18:57:54Z</time>
      </trkpt>
      <trkpt lat="4.8491720" lon="-75.3968180">
        <ele>3886.4</ele>
        <time>2021-04-17T18:57:55Z</time>
      </trkpt>
      <trkpt lat="4.8492100" lon="-75.3968290">
        <ele>3886.3</ele>
        <time>2021-04-17T18:57:56Z</time>
      </trkpt>
      <trkpt lat="4.8492500" lon="-75.3968400">
        <ele>3886.3</ele>
        <time>2021-04-17T18:57:57Z</time>
      </trkpt>
      <trkpt lat="4.8492910" lon="-75.3968520">
        <ele>3886.2</ele>
        <time>2021-04-17T18:57:58Z</time>
      </trkpt>
      <trkpt lat="4.8493330" lon="-75.3968650">
        <ele>3886.1</ele>
        <time>2021-04-17T18:57:59Z</time>
      </trkpt>
      <trkpt lat="4.8493750" lon="-75.3968770">
        <ele>3886.0</ele>
        <time>2021-04-17T18:58:00Z</time>
      </trkpt>
      <trkpt lat="4.8494150" lon="-75.3968880">
        <ele>3885.9</ele>
        <time>2021-04-17T18:58:01Z</time>
      </trkpt>
      <trkpt lat="4.8494540" lon="-75.3968970">
        <ele>3885.8</ele>
        <time>2021-04-17T18:58:02Z</time>
      </trkpt>
      <trkpt lat="4.8494910" lon="-75.3969060">
        <ele>3885.8</ele>
        <time>2021-04-17T18:58:03Z</time>
      </trkpt>
      <trkpt lat="4.8495270" lon="-75.3969140">
        <ele>3885.7</ele>
        <time>2021-04-17T18:58:04Z</time>
      </trkpt>
      <trkpt lat="4.8495640" lon="-75.3969190">
        <ele>3885.6</ele>
        <time>2021-04-17T18:58:05Z</time>
      </trkpt>
      <trkpt lat="4.8496000" lon="-75.3969230">
        <ele>3885.5</ele>
        <time>2021-04-17T18:58:06Z</time>
      </trkpt>
      <trkpt lat="4.8496350" lon="-75.3969280">
        <ele>3885.5</ele>
        <time>2021-04-17T18:58:07Z</time>
      </trkpt>
      <trkpt lat="4.8496710" lon="-75.3969290">
        <ele>3885.4</ele>
        <time>2021-04-17T18:58:08Z</time>
      </trkpt>
      <trkpt lat="4.8497060" lon="-75.3969290">
        <ele>3885.3</ele>
        <time>2021-04-17T18:58:09Z</time>
      </trkpt>
      <trkpt lat="4.8497410" lon="-75.3969320">
        <ele>3885.2</ele>
        <time>2021-04-17T18:58:10Z</time>
      </trkpt>
      <trkpt lat="4.8497740" lon="-75.3969390">
        <ele>3885.2</ele>
        <time>2021-04-17T18:58:11Z</time>
      </trkpt>
      <trkpt lat="4.8498060" lon="-75.3969560">
        <ele>3885.1</ele>
        <time>2021-04-17T18:58:12Z</time>
      </trkpt>
      <trkpt lat="4.8498370" lon="-75.3969800">
        <ele>3885.0</ele>
        <time>2021-04-17T18:58:13Z</time>
      </trkpt>
      <trkpt lat="4.8498630" lon="-75.3970100">
        <ele>3884.9</ele>
        <time>2021-04-17T18:58:14Z</time>
      </trkpt>
      <trkpt lat="4.8498860" lon="-75.3970450">
        <ele>3884.9</ele>
        <time>2021-04-17T18:58:15Z</time>
      </trkpt>
      <trkpt lat="4.8499110" lon="-75.3970780">
        <ele>3884.8</ele>
        <time>2021-04-17T18:58:16Z</time>
      </trkpt>
      <trkpt lat="4.8499380" lon="-75.3971110">
        <ele>3884.7</ele>
        <time>2021-04-17T18:58:17Z</time>
      </trkpt>
      <trkpt lat="4.8499630" lon="-75.3971440">
        <ele>3884.6</ele>
        <time>2021-04-17T18:58:18Z</time>
      </trkpt>
      <trkpt lat="4.8499870" lon="-75.3971800">
        <ele>3884.5</ele>
        <time>2021-04-17T18:58:19Z</time>
      </trkpt>
      <trkpt lat="4.8500160" lon="-75.3972150">
        <ele>3884.4</ele>
        <time>2021-04-17T18:58:20Z</time>
      </trkpt>
      <trkpt lat="4.8500480" lon="-75.3972500">
        <ele>3884.3</ele>
        <time>2021-04-17T18:58:21Z</time>
      </trkpt>
      <trkpt lat="4.8500840" lon="-75.3972840">
        <ele>3884.2</ele>
        <time>2021-04-17T18:58:22Z</time>
      </trkpt>
      <trkpt lat="4.8501190" lon="-75.3973210">
        <ele>3884.1</ele>
        <time>2021-04-17T18:58:23Z</time>
      </trkpt>
      <trkpt lat="4.8501490" lon="-75.3973630">
        <ele>3884.0</ele>
        <time>2021-04-17T18:58:24Z</time>
      </trkpt>
      <trkpt lat="4.8501790" lon="-75.3974070">
        <ele>3883.9</ele>
        <time>2021-04-17T18:58:25Z</time>
      </trkpt>
      <trkpt lat="4.8502100" lon="-75.3974540">
        <ele>3883.8</ele>
        <time>2021-04-17T18:58:26Z</time>
      </trkpt>
      <trkpt lat="4.8502440" lon="-75.3975030">
        <ele>3883.7</ele>
        <time>2021-04-17T18:58:27Z</time>
      </trkpt>
      <trkpt lat="4.8502810" lon="-75.3975530">
        <ele>3883.5</ele>
        <time>2021-04-17T18:58:28Z</time>
      </trkpt>
      <trkpt lat="4.8503220" lon="-75.3976040">
        <ele>3883.4</ele>
        <time>2021-04-17T18:58:29Z</time>
      </trkpt>
      <trkpt lat="4.8503620" lon="-75.3976530">
        <ele>3883.3</ele>
        <time>2021-04-17T18:58:30Z</time>
      </trkpt>
      <trkpt lat="4.8504010" lon="-75.3977020">
        <ele>3883.2</ele>
        <time>2021-04-17T18:58:31Z</time>
      </trkpt>
      <trkpt lat="4.8504360" lon="-75.3977510">
        <ele>3883.0</ele>
        <time>2021-04-17T18:58:32Z</time>
      </trkpt>
      <trkpt lat="4.8504670" lon="-75.3978030">
        <ele>3882.9</ele>
        <time>2021-04-17T18:58:33Z</time>
      </trkpt>
      <trkpt lat="4.8504970" lon="-75.3978570">
        <ele>3882.8</ele>
        <time>2021-04-17T18:58:34Z</time>
      </trkpt>
      <trkpt lat="4.8505230" lon="-75.3979100">
        <ele>3882.7</ele>
        <time>2021-04-17T18:58:35Z</time>
      </trkpt>
      <trkpt lat="4.8505420" lon="-75.3979650">
        <ele>3882.6</ele>
        <time>2021-04-17T18:58:36Z</time>
      </trkpt>
      <trkpt lat="4.8505600" lon="-75.3980240">
        <ele>3882.4</ele>
        <time>2021-04-17T18:58:37Z</time>
      </trkpt>
      <trkpt lat="4.8505820" lon="-75.3980810">
        <ele>3882.3</ele>
        <time>2021-04-17T18:58:38Z</time>
      </trkpt>
      <trkpt lat="4.8506120" lon="-75.3981360">
        <ele>3882.2</ele>
        <time>2021-04-17T18:58:39Z</time>
      </trkpt>
      <trkpt lat="4.8506490" lon="-75.3981900">
        <ele>3882.0</ele>
        <time>2021-04-17T18:58:40Z</time>
      </trkpt>
      <trkpt lat="4.8506840" lon="-75.3982450">
        <ele>3881.9</ele>
        <time>2021-04-17T18:58:41Z</time>
      </trkpt>
      <trkpt lat="4.8507130" lon="-75.3983030">
        <ele>3881.8</ele>
        <time>2021-04-17T18:58:42Z</time>
      </trkpt>
      <trkpt lat="4.8507360" lon="-75.3983650">
        <ele>3881.7</ele>
        <time>2021-04-17T18:58:43Z</time>
      </trkpt>
      <trkpt lat="4.8507590" lon="-75.3984290">
        <ele>3881.5</ele>
        <time>2021-04-17T18:58:44Z</time>
      </trkpt>
      <trkpt lat="4.8507870" lon="-75.3984900">
        <ele>3881.4</ele>
        <time>2021-04-17T18:58:45Z</time>
      </trkpt>
      <trkpt lat="4.8508180" lon="-75.3985490">
        <ele>3881.2</ele>
        <time>2021-04-17T18:58:46Z</time>
      </trkpt>
      <trkpt lat="4.8508520" lon="-75.3986060">
        <ele>3881.1</ele>
        <time>2021-04-17T18:58:47Z</time>
      </trkpt>
      <trkpt lat="4.8508870" lon="-75.3986620">
        <ele>3881.0</ele>
        <time>2021-04-17T18:58:48Z</time>
      </trkpt>
      <trkpt lat="4.8509200" lon="-75.3987200">
        <ele>3880.8</ele>
        <time>2021-04-17T18:58:49Z</time>
      </trkpt>
      <trkpt lat="4.8509510" lon="-75.3987780">
        <ele>3880.7</ele>
        <time>2021-04-17T18:58:50Z</time>
      </trkpt>
      <trkpt lat="4.8509810" lon="-75.3988370">
        <ele>3880.6</ele>
        <time>2021-04-17T18:58:51Z</time>
      </trkpt>
      <trkpt lat="4.8510100" lon="-75.3988960">
        <ele>3880.4</ele>
        <time>2021-04-17T18:58:52Z</time>
      </trkpt>
      <trkpt lat="4.8510400" lon="-75.3989560">
        <ele>3880.3</ele>
        <time>2021-04-17T18:58:53Z</time>
      </trkpt>
      <trkpt lat="4.8510690" lon="-75.3990200">
        <ele>3880.2</ele>
        <time>2021-04-17T18:58:54Z</time>
      </trkpt>
      <trkpt lat="4.8510950" lon="-75.3990850">
        <ele>3880.0</ele>
        <time>2021-04-17T18:58:55Z</time>
      </trkpt>
      <trkpt lat="4.8511210" lon="-75.3991510">
        <ele>3879.9</ele>
        <time>2021-04-17T18:58:56Z</time>
      </trkpt>
      <trkpt lat="4.8511490" lon="-75.3992170">
        <ele>3879.7</ele>
        <time>2021-04-17T18:58:57Z</time>
      </trkpt>
      <trkpt lat="4.8511800" lon="-75.3992830">
        <ele>3879.6</ele>
        <time>2021-04-17T18:58:58Z</time>
      </trkpt>
      <trkpt lat="4.8512160" lon="-75.3993480">
        <ele>3879.4</ele>
        <time>2021-04-17T18:58:59Z</time>
      </trkpt>
      <trkpt lat="4.8512580" lon="-75.3994100">
        <ele>3879.3</ele>
        <time>2021-04-17T18:59:00Z</time>
      </trkpt>
      <trkpt lat="4.8513030" lon="-75.3994730">
        <ele>3879.1</ele>
        <time>2021-04-17T18:59:01Z</time>
      </trkpt>
      <trkpt lat="4.8513460" lon="-75.3995350">
        <ele>3879.0</ele>
        <time>2021-04-17T18:59:02Z</time>
      </trkpt>
      <trkpt lat="4.8513900" lon="-75.3995970">
        <ele>3878.8</ele>
        <time>2021-04-17T18:59:03Z</time>
      </trkpt>
      <trkpt lat="4.8514340" lon="-75.3996590">
        <ele>3878.7</ele>
        <time>2021-04-17T18:59:04Z</time>
      </trkpt>
      <trkpt lat="4.8514730" lon="-75.3997230">
        <ele>3878.5</ele>
        <time>2021-04-17T18:59:05Z</time>
      </trkpt>
      <trkpt lat="4.8515090" lon="-75.3997890">
        <ele>3878.4</ele>
        <time>2021-04-17T18:59:06Z</time>
      </trkpt>
      <trkpt lat="4.8515390" lon="-75.3998570">
        <ele>3878.2</ele>
        <time>2021-04-17T18:59:07Z</time>
      </trkpt>
      <trkpt lat="4.8515600" lon="-75.3999250">
        <ele>3878.1</ele>
        <time>2021-04-17T18:59:08Z</time>
      </trkpt>
      <trkpt lat="4.8515780" lon="-75.3999930">
        <ele>3877.9</ele>
        <time>2021-04-17T18:59:09Z</time>
      </trkpt>
      <trkpt lat="4.8515960" lon="-75.4000570">
        <ele>3877.8</ele>
        <time>2021-04-17T18:59:10Z</time>
      </trkpt>
      <trkpt lat="4.8516140" lon="-75.4001160">
        <ele>3877.7</ele>
        <time>2021-04-17T18:59:11Z</time>
      </trkpt>
      <trkpt lat="4.8516360" lon="-75.4001690">
        <ele>3877.6</ele>
        <time>2021-04-17T18:59:12Z</time>
      </trkpt>
      <trkpt lat="4.8516660" lon="-75.4002180">
        <ele>3877.4</ele>
        <time>2021-04-17T18:59:13Z</time>
      </trkpt>
      <trkpt lat="4.8517000" lon="-75.4002680">
        <ele>3877.3</ele>
        <time>2021-04-17T18:59:14Z</time>
      </trkpt>
      <trkpt lat="4.8517410" lon="-75.4003170">
        <ele>3877.2</ele>
        <time>2021-04-17T18:59:15Z</time>
      </trkpt>
      <trkpt lat="4.8517840" lon="-75.4003640">
        <ele>3877.1</ele>
        <time>2021-04-17T18:59:16Z</time>
      </trkpt>
      <trkpt lat="4.8518270" lon="-75.4004050">
        <ele>3876.9</ele>
        <time>2021-04-17T18:59:17Z</time>
      </trkpt>
      <trkpt lat="4.8518690" lon="-75.4004440">
        <ele>3876.8</ele>
        <time>2021-04-17T18:59:18Z</time>
      </trkpt>
      <trkpt lat="4.8519090" lon="-75.4004810">
        <ele>3876.7</ele>
        <time>2021-04-17T18:59:19Z</time>
      </trkpt>
      <trkpt lat="4.8519480" lon="-75.4005170">
        <ele>3876.6</ele>
        <time>2021-04-17T18:59:20Z</time>
      </trkpt>
      <trkpt lat="4.8519840" lon="-75.4005500">
        <ele>3876.5</ele>
        <time>2021-04-17T18:59:21Z</time>
      </trkpt>
      <trkpt lat="4.8520180" lon="-75.4005790">
        <ele>3876.4</ele>
        <time>2021-04-17T18:59:22Z</time>
      </trkpt>
      <trkpt lat="4.8520470" lon="-75.4006050">
        <ele>3876.3</ele>
        <time>2021-04-17T18:59:23Z</time>
      </trkpt>
      <trkpt lat="4.8520720" lon="-75.4006300">
        <ele>3876.3</ele>
        <time>2021-04-17T18:59:24Z</time>
      </trkpt>
      <trkpt lat="4.8520920" lon="-75.4006530">
        <ele>3876.2</ele>
        <time>2021-04-17T18:59:25Z</time>
      </trkpt>
      <trkpt lat="4.8521070" lon="-75.4006750">
        <ele>3876.1</ele>
        <time>2021-04-17T18:59:26Z</time>
      </trkpt>
      <trkpt lat="4.8521200" lon="-75.4006960">
        <ele>3876.1</ele>
        <time>2021-04-17T18:59:27Z</time>
      </trkpt>
      <trkpt lat="4.8521340" lon="-75.4007160">
        <ele>3876.0</ele>
        <time>2021-04-17T18:59:28Z</time>
      </trkpt>
      <trkpt lat="4.8521490" lon="-75.4007350">
        <ele>3876.0</ele>
        <time>2021-04-17T18:59:29Z</time>
      </trkpt>
      <trkpt lat="4.8521620" lon="-75.4007540">
        <ele>3876.0</ele>
        <time>2021-04-17T18:59:30Z</time>
      </trkpt>
      <trkpt lat="4.8521760" lon="-75.4007730">
        <ele>3875.9</ele>
        <time>2021-04-17T18:59:31Z</time>
      </trkpt>
      <trkpt lat="4.8521910" lon="-75.4007900">
        <ele>3875.9</ele>
        <time>2021-04-17T18:59:32Z</time>
      </trkpt>
      <trkpt lat="4.8522060" lon="-75.4008070">
        <ele>3875.8</ele>
        <time>2021-04-17T18:59:33Z</time>
      </trkpt>
      <trkpt lat="4.8522190" lon="-75.4008240">
        <ele>3875.8</ele>
        <time>2021-04-17T18:59:34Z</time>
      </trkpt>
      <trkpt lat="4.8522310" lon="-75.4008420">
        <ele>3875.7</ele>
        <time>2021-04-17T18:59:35Z</time>
      </trkpt>
      <trkpt lat="4.8522430" lon="-75.4008610">
        <ele>3875.7</ele>
        <time>2021-04-17T18:59:36Z</time>
      </trkpt>
      <trkpt lat="4.8522520" lon="-75.4008800">
        <ele>3875.6</ele>
        <time>2021-04-17T18:59:37Z</time>
      </trkpt>
      <trkpt lat="4.8522610" lon="-75.4009000">
        <ele>3875.6</ele>
        <time>2021-04-17T18:59:38Z</time>
      </trkpt>
      <trkpt lat="4.8522720" lon="-75.4009210">
        <ele>3875.5</ele>
        <time>2021-04-17T18:59:39Z</time>
      </trkpt>
      <trkpt lat="4.8522850" lon="-75.4009390">
        <ele>3875.5</ele>
        <time>2021-04-17T18:59:40Z</time>
      </trkpt>
      <trkpt lat="4.8522980" lon="-75.4009580">
        <ele>3875.5</ele>
        <time>2021-04-17T18:59:41Z</time>
      </trkpt>
      <trkpt lat="4.8523100" lon="-75.4009770">
        <ele>3875.4</ele>
        <time>2021-04-17T18:59:42Z</time>
      </trkpt>
      <trkpt lat="4.8523220" lon="-75.4009940">
        <ele>3875.4</ele>
        <time>2021-04-17T18:59:43Z</time>
      </trkpt>
      <trkpt lat="4.8523340" lon="-75.4010120">
        <ele>3875.3</ele>
        <time>2021-04-17T18:59:44Z</time>
      </trkpt>
      <trkpt lat="4.8523480" lon="-75.4010280">
        <ele>3875.3</ele>
        <time>2021-04-17T18:59:45Z</time>
      </trkpt>
      <trkpt lat="4.8523650" lon="-75.4010410">
        <ele>3875.2</ele>
        <time>2021-04-17T18:59:46Z</time>
      </trkpt>
      <trkpt lat="4.8523810" lon="-75.4010510">
        <ele>3875.2</ele>
        <time>2021-04-17T18:59:47Z</time>
      </trkpt>
      <trkpt lat="4.8523980" lon="-75.4010560">
        <ele>3875.2</ele>
        <time>2021-04-17T18:59:48Z</time>
      </trkpt>
      <trkpt lat="4.8524130" lon="-75.4010540">
        <ele>3875.1</ele>
        <time>2021-04-17T18:59:49Z</time>
      </trkpt>
      <trkpt lat="4.8524270" lon="-75.4010500">
        <ele>3875.1</ele>
        <time>2021-04-17T18:59:50Z</time>
      </trkpt>
      <trkpt lat="4.8524410" lon="-75.4010430">
        <ele>3875.1</ele>
        <time>2021-04-17T18:59:51Z</time>
      </trkpt>
      <trkpt lat="4.8524540" lon="-75.4010340">
        <ele>3875.0</ele>
        <time>2021-04-17T18:59:52Z</time>
      </trkpt>
      <trkpt lat="4.8524650" lon="-75.4010260">
        <ele>3875.0</ele>
        <time>2021-04-17T18:59:53Z</time>
      </trkpt>
      <trkpt lat="4.8524750" lon="-75.4010160">
        <ele>3875.4</ele>
        <time>2021-04-17T18:59:54Z</time>
      </trkpt>
      <trkpt lat="4.8524840" lon="-75.4010040">
        <ele>3875.5</ele>
        <time>2021-04-17T18:59:55Z</time>
      </trkpt>
      <trkpt lat="4.8524910" lon="-75.4009910">
        <ele>3875.6</ele>
        <time>2021-04-17T18:59:56Z</time>
      </trkpt>
      <trkpt lat="4.8524950" lon="-75.4009770">
        <ele>3875.7</ele>
        <time>2021-04-17T18:59:57Z</time>
      </trkpt>
      <trkpt lat="4.8525000" lon="-75.4009620">
        <ele>3875.9</ele>
        <time>2021-04-17T18:59:58Z</time>
      </trkpt>
      <trkpt lat="4.8525030" lon="-75.4009460">
        <ele>3876.0</ele>
        <time>2021-04-17T18:59:59Z</time>
      </trkpt>
      <trkpt lat="4.8525040" lon="-75.4009310">
        <ele>3876.1</ele>
        <time>2021-04-17T19:00:00Z</time>
      </trkpt>
      <trkpt lat="4.8525050" lon="-75.4009170">
        <ele>3876.3</ele>
        <time>2021-04-17T19:00:01Z</time>
      </trkpt>
      <trkpt lat="4.8525030" lon="-75.4009050">
        <ele>3876.4</ele>
        <time>2021-04-17T19:00:02Z</time>
      </trkpt>
      <trkpt lat="4.8525020" lon="-75.4008930">
        <ele>3876.5</ele>
        <time>2021-04-17T19:00:03Z</time>
      </trkpt>
      <trkpt lat="4.8524980" lon="-75.4008790">
        <ele>3876.6</ele>
        <time>2021-04-17T19:00:04Z</time>
      </trkpt>
      <trkpt lat="4.8524920" lon="-75.4008670">
        <ele>3876.7</ele>
        <time>2021-04-17T19:00:05Z</time>
      </trkpt>
      <trkpt lat="4.8524880" lon="-75.4008580">
        <ele>3876.8</ele>
        <time>2021-04-17T19:00:06Z</time>
      </trkpt>
      <trkpt lat="4.8524850" lon="-75.4008470">
        <ele>3876.9</ele>
        <time>2021-04-17T19:00:07Z</time>
      </trkpt>
      <trkpt lat="4.8524840" lon="-75.4008370">
        <ele>3877.0</ele>
        <time>2021-04-17T19:00:08Z</time>
      </trkpt>
      <trkpt lat="4.8524830" lon="-75.4008250">
        <ele>3877.1</ele>
        <time>2021-04-17T19:00:09Z</time>
      </trkpt>
      <trkpt lat="4.8524810" lon="-75.4008110">
        <ele>3877.2</ele>
        <time>2021-04-17T19:00:10Z</time>
      </trkpt>
      <trkpt lat="4.8524770" lon="-75.4008000">
        <ele>3877.3</ele>
        <time>2021-04-17T19:00:11Z</time>
      </trkpt>
      <trkpt lat="4.8524730" lon="-75.4007900">
        <ele>3877.4</ele>
        <time>2021-04-17T19:00:12Z</time>
      </trkpt>
      <trkpt lat="4.8524700" lon="-75.4007770">
        <ele>3877.5</ele>
        <time>2021-04-17T19:00:13Z</time>
      </trkpt>
      <trkpt lat="4.8524670" lon="-75.4007630">
        <ele>3877.6</ele>
        <time>2021-04-17T19:00:14Z</time>
      </trkpt>
      <trkpt lat="4.8524640" lon="-75.4007490">
        <ele>3877.8</ele>
        <time>2021-04-17T19:00:15Z</time>
      </trkpt>
      <trkpt lat="4.8524600" lon="-75.4007340">
        <ele>3877.9</ele>
        <time>2021-04-17T19:00:16Z</time>
      </trkpt>
      <trkpt lat="4.8524560" lon="-75.4007200">
        <ele>3878.0</ele>
        <time>2021-04-17T19:00:17Z</time>
      </trkpt>
      <trkpt lat="4.8524550" lon="-75.4007060">
        <ele>3878.1</ele>
        <time>2021-04-17T19:00:18Z</time>
      </trkpt>
      <trkpt lat="4.8524550" lon="-75.4006900">
        <ele>3878.3</ele>
        <time>2021-04-17T19:00:19Z</time>
      </trkpt>
      <trkpt lat="4.8524560" lon="-75.4006760">
        <ele>3878.4</ele>
        <time>2021-04-17T19:00:20Z</time>
      </trkpt>
      <trkpt lat="4.8524540" lon="-75.4006630">
        <ele>3878.5</ele>
        <time>2021-04-17T19:00:21Z</time>
      </trkpt>
      <trkpt lat="4.8524510" lon="-75.4006510">
        <ele>3878.6</ele>
        <time>2021-04-17T19:00:22Z</time>
      </trkpt>
      <trkpt lat="4.8524460" lon="-75.4006400">
        <ele>3878.7</ele>
        <time>2021-04-17T19:00:23Z</time>
      </trkpt>
      <trkpt lat="4.8524420" lon="-75.4006270">
        <ele>3878.8</ele>
        <time>2021-04-17T19:00:24Z</time>
      </trkpt>
      <trkpt lat="4.8524380" lon="-75.4006160">
        <ele>3878.9</ele>
        <time>2021-04-17T19:00:25Z</time>
      </trkpt>
      <trkpt lat="4.8524350" lon="-75.4006050">
        <ele>3879.0</ele>
        <time>2021-04-17T19:00:26Z</time>
      </trkpt>
      <trkpt lat="4.8524310" lon="-75.4005940">
        <ele>3879.1</ele>
        <time>2021-04-17T19:00:27Z</time>
      </trkpt>
      <trkpt lat="4.8524260" lon="-75.4005850">
        <ele>3879.2</ele>
        <time>2021-04-17T19:00:28Z</time>
      </trkpt>
      <trkpt lat="4.8524230" lon="-75.4005740">
        <ele>3879.3</ele>
        <time>2021-04-17T19:00:29Z</time>
      </trkpt>
      <trkpt lat="4.8524180" lon="-75.4005630">
        <ele>3879.4</ele>
        <time>2021-04-17T19:00:30Z</time>
      </trkpt>
      <trkpt lat="4.8524130" lon="-75.4005520">
        <ele>3879.5</ele>
        <time>2021-04-17T19:00:31Z</time>
      </trkpt>
      <trkpt lat="4.8524080" lon="-75.4005400">
        <ele>3879.6</ele>
        <time>2021-04-17T19:00:32Z</time>
      </trkpt>
      <trkpt lat="4.8524040" lon="-75.4005270">
        <ele>3879.7</ele>
        <time>2021-04-17T19:00:33Z</time>
      </trkpt>
      <trkpt lat="4.8523980" lon="-75.4005150">
        <ele>3879.9</ele>
        <time>2021-04-17T19:00:34Z</time>
      </trkpt>
      <trkpt lat="4.8523930" lon="-75.4005010">
        <ele>3880.0</ele>
        <time>2021-04-17T19:00:35Z</time>
      </trkpt>
      <trkpt lat="4.8523870" lon="-75.4004870">
        <ele>3880.1</ele>
        <time>2021-04-17T19:00:36Z</time>
      </trkpt>
      <trkpt lat="4.8523800" lon="-75.4004760">
        <ele>3880.2</ele>
        <time>2021-04-17T19:00:37Z</time>
      </trkpt>
      <trkpt lat="4.8523740" lon="-75.4004640">
        <ele>3880.3</ele>
        <time>2021-04-17T19:00:38Z</time>
      </trkpt>
      <trkpt lat="4.8523680" lon="-75.4004530">
        <ele>3880.4</ele>
        <time>2021-04-17T19:00:39Z</time>
      </trkpt>
      <trkpt lat="4.8523640" lon="-75.4004440">
        <ele>3880.5</ele>
        <time>2021-04-17T19:00:40Z</time>
      </trkpt>
      <trkpt lat="4.8523590" lon="-75.4004340">
        <ele>3880.6</ele>
        <time>2021-04-17T19:00:41Z</time>
      </trkpt>
      <trkpt lat="4.8523550" lon="-75.4004230">
        <ele>3880.7</ele>
        <time>2021-04-17T19:00:42Z</time>
      </trkpt>
      <trkpt lat="4.8523540" lon="-75.4004110">
        <ele>3880.8</ele>
        <time>2021-04-17T19:00:43Z</time>
      </trkpt>
      <trkpt lat="4.8523510" lon="-75.4004000">
        <ele>3880.9</ele>
        <time>2021-04-17T19:00:44Z</time>
      </trkpt>
      <trkpt lat="4.8523500" lon="-75.4003910">
        <ele>3881.0</ele>
        <time>2021-04-17T19:00:45Z</time>
      </trkpt>
      <trkpt lat="4.8523450" lon="-75.4003840">
        <ele>3881.1</ele>
        <time>2021-04-17T19:00:46Z</time>
      </trkpt>
      <trkpt lat="4.8523370" lon="-75.4003780">
        <ele>3881.2</ele>
        <time>2021-04-17T19:00:47Z</time>
      </trkpt>
      <trkpt lat="4.8523300" lon="-75.4003730">
        <ele>3881.2</ele>
        <time>2021-04-17T19:00:48Z</time>
      </trkpt>
      <trkpt lat="4.8523260" lon="-75.4003720">
        <ele>3881.3</ele>
        <time>2021-04-17T19:00:49Z</time>
      </trkpt>
      <trkpt lat="4.8523280" lon="-75.4003700">
        <ele>3881.3</ele>
        <time>2021-04-17T19:00:50Z</time>
      </trkpt>
      <trkpt lat="4.8523270" lon="-75.4003690">
        <ele>3881.3</ele>
        <time>2021-04-17T19:00:51Z</time>
      </trkpt>
      <trkpt lat="4.8523270" lon="-75.4003700">
        <ele>3881.3</ele>
        <time>2021-04-17T19:00:52Z</time>
      </trkpt>
      <trkpt lat="4.8523250" lon="-75.4003690">
        <ele>3881.3</ele>
        <time>2021-04-17T19:00:53Z</time>
      </trkpt>
      <trkpt lat="4.8523240" lon="-75.4003690">
        <ele>3881.3</ele>
        <time>2021-04-17T19:00:54Z</time>
      </trkpt>
      <trkpt lat="4.8523230" lon="-75.4003680">
        <ele>3881.4</ele>
        <time>2021-04-17T19:00:55Z</time>
      </trkpt>
      <trkpt lat="4.8523230" lon="-75.4003680">
        <ele>3881.4</ele>
        <time>2021-04-17T19:00:56Z</time>
      </trkpt>
      <trkpt lat="4.8523220" lon="-75.4003680">
        <ele>3881.4</ele>
        <time>2021-04-17T19:00:57Z</time>
      </trkpt>
      <trkpt lat="4.8523220" lon="-75.4003690">
        <ele>3881.4</ele>
        <time>2021-04-17T19:00:58Z</time>
      </trkpt>
      <trkpt lat="4.8523210" lon="-75.4003690">
        <ele>3881.4</ele>
        <time>2021-04-17T19:00:59Z</time>
      </trkpt>
      <trkpt lat="4.8523210" lon="-75.4003690">
        <ele>3881.4</ele>
        <time>2021-04-17T19:01:00Z</time>
      </trkpt>
      <trkpt lat="4.8523260" lon="-75.4003710">
        <ele>3881.4</ele>
        <time>2021-04-17T19:01:01Z</time>
      </trkpt>
      <trkpt lat="4.8523270" lon="-75.4003700">
        <ele>3881.4</ele>
        <time>2021-04-17T19:01:02Z</time>
      </trkpt>
      <trkpt lat="4.8523270" lon="-75.4003670">
        <ele>3881.5</ele>
        <time>2021-04-17T19:01:03Z</time>
      </trkpt>
      <trkpt lat="4.8523280" lon="-75.4003690">
        <ele>3881.5</ele>
        <time>2021-04-17T19:01:04Z</time>
      </trkpt>
      <trkpt lat="4.8523280" lon="-75.4003680">
        <ele>3881.5</ele>
        <time>2021-04-17T19:01:05Z</time>
      </trkpt>
      <trkpt lat="4.8523250" lon="-75.4003680">
        <ele>3881.5</ele>
        <time>2021-04-17T19:01:06Z</time>
      </trkpt>
      <trkpt lat="4.8523230" lon="-75.4003680">
        <ele>3881.5</ele>
        <time>2021-04-17T19:01:07Z</time>
      </trkpt>
      <trkpt lat="4.8523210" lon="-75.4003690">
        <ele>3881.5</ele>
        <time>2021-04-17T19:01:08Z</time>
      </trkpt>
      <trkpt lat="4.8523200" lon="-75.4003700">
        <ele>3881.6</ele>
        <time>2021-04-17T19:01:09Z</time>
      </trkpt>
      <trkpt lat="4.8523200" lon="-75.4003700">
        <ele>3881.6</ele>
        <time>2021-04-17T19:01:10Z</time>
      </trkpt>
      <trkpt lat="4.8523200" lon="-75.4003720">
        <ele>3881.6</ele>
        <time>2021-04-17T19:01:11Z</time>
      </trkpt>
      <trkpt lat="4.8523190" lon="-75.4003730">
        <ele>3881.6</ele>
        <time>2021-04-17T19:01:12Z</time>
      </trkpt>
      <trkpt lat="4.8523180" lon="-75.4003740">
        <ele>3881.6</ele>
        <time>2021-04-17T19:01:13Z</time>
      </trkpt>
      <trkpt lat="4.8523180" lon="-75.4003750">
        <ele>3881.6</ele>
        <time>2021-04-17T19:01:14Z</time>
      </trkpt>
      <trkpt lat="4.8523180" lon="-75.4003770">
        <ele>3881.6</ele>
        <time>2021-04-17T19:01:15Z</time>
      </trkpt>
      <trkpt lat="4.8523170" lon="-75.4003780">
        <ele>3881.6</ele>
        <time>2021-04-17T19:01:16Z</time>
      </trkpt>
      <trkpt lat="4.8523140" lon="-75.4003810">
        <ele>3881.7</ele>
        <time>2021-04-17T19:01:17Z</time>
      </trkpt>
      <trkpt lat="4.8523130" lon="-75.4003820">
        <ele>3881.7</ele>
        <time>2021-04-17T19:01:18Z</time>
      </trkpt>
      <trkpt lat="4.8523130" lon="-75.4003830">
        <ele>3881.7</ele>
        <time>2021-04-17T19:01:19Z</time>
      </trkpt>
      <trkpt lat="4.8523150" lon="-75.4003830">
        <ele>3881.7</ele>
        <time>2021-04-17T19:01:20Z</time>
      </trkpt>
      <trkpt lat="4.8523160" lon="-75.4003820">
        <ele>3881.7</ele>
        <time>2021-04-17T19:01:21Z</time>
      </trkpt>
      <trkpt lat="4.8523190" lon="-75.4003810">
        <ele>3881.8</ele>
        <time>2021-04-17T19:01:22Z</time>
      </trkpt>
      <trkpt lat="4.8523180" lon="-75.4003810">
        <ele>3881.8</ele>
        <time>2021-04-17T19:01:23Z</time>
      </trkpt>
      <trkpt lat="4.8523180" lon="-75.4003810">
        <ele>3881.8</ele>
        <time>2021-04-17T19:01:24Z</time>
      </trkpt>
      <trkpt lat="4.8523170" lon="-75.4003830">
        <ele>3881.8</ele>
        <time>2021-04-17T19:01:25Z</time>
      </trkpt>
      <trkpt lat="4.8523160" lon="-75.4003830">
        <ele>3881.8</ele>
        <time>2021-04-17T19:01:26Z</time>
      </trkpt>
      <trkpt lat="4.8523170" lon="-75.4003840">
        <ele>3881.8</ele>
        <time>2021-04-17T19:01:27Z</time>
      </trkpt>
      <trkpt lat="4.8523180" lon="-75.4003850">
        <ele>3881.8</ele>
        <time>2021-04-17T19:01:28Z</time>
      </trkpt>
      <trkpt lat="4.8523190" lon="-75.4003860">
        <ele>3881.8</ele>
        <time>2021-04-17T19:01:29Z</time>
      </trkpt>
      <trkpt lat="4.8523200" lon="-75.4003860">
        <ele>3881.8</ele>
        <time>2021-04-17T19:01:30Z</time>
      </trkpt>
      <trkpt lat="4.8523190" lon="-75.4003870">
        <ele>3881.8</ele>
        <time>2021-04-17T19:01:31Z</time>
      </trkpt>
      <trkpt lat="4.8523200" lon="-75.4003880">
        <ele>3881.9</ele>
        <time>2021-04-17T19:01:32Z</time>
      </trkpt>
      <trkpt lat="4.8523190" lon="-75.4003860">
        <ele>3881.9</ele>
        <time>2021-04-17T19:01:33Z</time>
      </trkpt>
      <trkpt lat="4.8523180" lon="-75.4003850">
        <ele>3881.9</ele>
        <time>2021-04-17T19:01:34Z</time>
      </trkpt>
      <trkpt lat="4.8523080" lon="-75.4003500">
        <ele>3882.2</ele>
        <time>2021-04-17T19:09:35Z</time>
      </trkpt>
      <trkpt lat="4.8523090" lon="-75.4003490">
        <ele>3882.2</ele>
        <time>2021-04-17T19:09:36Z</time>
      </trkpt>
      <trkpt lat="4.8523070" lon="-75.4003450">
        <ele>3882.3</ele>
        <time>2021-04-17T19:09:37Z</time>
      </trkpt>
      <trkpt lat="4.8523020" lon="-75.4003400">
        <ele>3882.3</ele>
        <time>2021-04-17T19:09:38Z</time>
      </trkpt>
      <trkpt lat="4.8522990" lon="-75.4003330">
        <ele>3882.4</ele>
        <time>2021-04-17T19:09:39Z</time>
      </trkpt>
      <trkpt lat="4.8522950" lon="-75.4003210">
        <ele>3882.5</ele>
        <time>2021-04-17T19:09:40Z</time>
      </trkpt>
      <trkpt lat="4.8522900" lon="-75.4003120">
        <ele>3882.6</ele>
        <time>2021-04-17T19:09:41Z</time>
      </trkpt>
      <trkpt lat="4.8522840" lon="-75.4003000">
        <ele>3882.7</ele>
        <time>2021-04-17T19:09:42Z</time>
      </trkpt>
      <trkpt lat="4.8522760" lon="-75.4002880">
        <ele>3882.8</ele>
        <time>2021-04-17T19:09:43Z</time>
      </trkpt>
      <trkpt lat="4.8522680" lon="-75.4002770">
        <ele>3882.9</ele>
        <time>2021-04-17T19:09:44Z</time>
      </trkpt>
      <trkpt lat="4.8522600" lon="-75.4002670">
        <ele>3883.0</ele>
        <time>2021-04-17T19:09:45Z</time>
      </trkpt>
      <trkpt lat="4.8522500" lon="-75.4002560">
        <ele>3883.2</ele>
        <time>2021-04-17T19:09:46Z</time>
      </trkpt>
      <trkpt lat="4.8522410" lon="-75.4002440">
        <ele>3883.3</ele>
        <time>2021-04-17T19:09:47Z</time>
      </trkpt>
      <trkpt lat="4.8522320" lon="-75.4002310">
        <ele>3883.4</ele>
        <time>2021-04-17T19:09:48Z</time>
      </trkpt>
      <trkpt lat="4.8522230" lon="-75.4002160">
        <ele>3883.6</ele>
        <time>2021-04-17T19:09:49Z</time>
      </trkpt>
      <trkpt lat="4.8522130" lon="-75.4002020">
        <ele>3883.7</ele>
        <time>2021-04-17T19:09:50Z</time>
      </trkpt>
      <trkpt lat="4.8522050" lon="-75.4001890">
        <ele>3883.9</ele>
        <time>2021-04-17T19:09:51Z</time>
      </trkpt>
      <trkpt lat="4.8521960" lon="-75.4001750">
        <ele>3884.0</ele>
        <time>2021-04-17T19:09:52Z</time>
      </trkpt>
      <trkpt lat="4.8521870" lon="-75.4001620">
        <ele>3884.1</ele>
        <time>2021-04-17T19:09:53Z</time>
      </trkpt>
      <trkpt lat="4.8521790" lon="-75.4001480">
        <ele>3884.3</ele>
        <time>2021-04-17T19:09:54Z</time>
      </trkpt>
      <trkpt lat="4.8521720" lon="-75.4001350">
        <ele>3884.4</ele>
        <time>2021-04-17T19:09:55Z</time>
      </trkpt>
      <trkpt lat="4.8521660" lon="-75.4001210">
        <ele>3884.5</ele>
        <time>2021-04-17T19:09:56Z</time>
      </trkpt>
      <trkpt lat="4.8521600" lon="-75.4001080">
        <ele>3884.6</ele>
        <time>2021-04-17T19:09:57Z</time>
      </trkpt>
      <trkpt lat="4.8521560" lon="-75.4000950">
        <ele>3884.8</ele>
        <time>2021-04-17T19:09:58Z</time>
      </trkpt>
      <trkpt lat="4.8521510" lon="-75.4000810">
        <ele>3884.9</ele>
        <time>2021-04-17T19:09:59Z</time>
      </trkpt>
      <trkpt lat="4.8521460" lon="-75.4000680">
        <ele>3885.0</ele>
        <time>2021-04-17T19:10:00Z</time>
      </trkpt>
      <trkpt lat="4.8521390" lon="-75.4000560">
        <ele>3885.1</ele>
        <time>2021-04-17T19:10:01Z</time>
      </trkpt>
      <trkpt lat="4.8521320" lon="-75.4000440">
        <ele>3885.2</ele>
        <time>2021-04-17T19:10:02Z</time>
      </trkpt>
      <trkpt lat="4.8521260" lon="-75.4000320">
        <ele>3885.4</ele>
        <time>2021-04-17T19:10:03Z</time>
      </trkpt>
      <trkpt lat="4.8521190" lon="-75.4000200">
        <ele>3885.5</ele>
        <time>2021-04-17T19:10:04Z</time>
      </trkpt>
      <trkpt lat="4.8521100" lon="-75.4000090">
        <ele>3885.6</ele>
        <time>2021-04-17T19:10:05Z</time>
      </trkpt>
      <trkpt lat="4.8521040" lon="-75.3999950">
        <ele>3885.7</ele>
        <time>2021-04-17T19:10:06Z</time>
      </trkpt>
      <trkpt lat="4.8521010" lon="-75.3999800">
        <ele>3885.9</ele>
        <time>2021-04-17T19:10:07Z</time>
      </trkpt>
      <trkpt lat="4.8520960" lon="-75.3999660">
        <ele>3886.0</ele>
        <time>2021-04-17T19:10:08Z</time>
      </trkpt>
      <trkpt lat="4.8520890" lon="-75.3999540">
        <ele>3886.1</ele>
        <time>2021-04-17T19:10:09Z</time>
      </trkpt>
      <trkpt lat="4.8520820" lon="-75.3999420">
        <ele>3886.2</ele>
        <time>2021-04-17T19:10:10Z</time>
      </trkpt>
      <trkpt lat="4.8520750" lon="-75.3999300">
        <ele>3886.3</ele>
        <time>2021-04-17T19:10:11Z</time>
      </trkpt>
      <trkpt lat="4.8520700" lon="-75.3999190">
        <ele>3886.4</ele>
        <time>2021-04-17T19:10:12Z</time>
      </trkpt>
      <trkpt lat="4.8520640" lon="-75.3999100">
        <ele>3886.5</ele>
        <time>2021-04-17T19:10:13Z</time>
      </trkpt>
      <trkpt lat="4.8520580" lon="-75.3998980">
        <ele>3886.7</ele>
        <time>2021-04-17T19:10:14Z</time>
      </trkpt>
      <trkpt lat="4.8520500" lon="-75.3998850">
        <ele>3886.8</ele>
        <time>2021-04-17T19:10:15Z</time>
      </trkpt>
      <trkpt lat="4.8520420" lon="-75.3998720">
        <ele>3886.9</ele>
        <time>2021-04-17T19:10:16Z</time>
      </trkpt>
      <trkpt lat="4.8520340" lon="-75.3998600">
        <ele>3887.0</ele>
        <time>2021-04-17T19:10:17Z</time>
      </trkpt>
      <trkpt lat="4.8520270" lon="-75.3998490">
        <ele>3887.1</ele>
        <time>2021-04-17T19:10:18Z</time>
      </trkpt>
      <trkpt lat="4.8520220" lon="-75.3998370">
        <ele>3887.3</ele>
        <time>2021-04-17T19:10:19Z</time>
      </trkpt>
      <trkpt lat="4.8520180" lon="-75.3998260">
        <ele>3887.4</ele>
        <time>2021-04-17T19:10:20Z</time>
      </trkpt>
      <trkpt lat="4.8520130" lon="-75.3998150">
        <ele>3887.5</ele>
        <time>2021-04-17T19:10:21Z</time>
      </trkpt>
      <trkpt lat="4.8520080" lon="-75.3998030">
        <ele>3887.6</ele>
        <time>2021-04-17T19:10:22Z</time>
      </trkpt>
      <trkpt lat="4.8520030" lon="-75.3997910">
        <ele>3887.7</ele>
        <time>2021-04-17T19:10:23Z</time>
      </trkpt>
      <trkpt lat="4.8519970" lon="-75.3997800">
        <ele>3887.8</ele>
        <time>2021-04-17T19:10:24Z</time>
      </trkpt>
      <trkpt lat="4.8519910" lon="-75.3997690">
        <ele>3887.9</ele>
        <time>2021-04-17T19:10:25Z</time>
      </trkpt>
      <trkpt lat="4.8519850" lon="-75.3997590">
        <ele>3888.0</ele>
        <time>2021-04-17T19:10:26Z</time>
      </trkpt>
      <trkpt lat="4.8519800" lon="-75.3997470">
        <ele>3888.1</ele>
        <time>2021-04-17T19:10:27Z</time>
      </trkpt>
      <trkpt lat="4.8519730" lon="-75.3997360">
        <ele>3888.2</ele>
        <time>2021-04-17T19:10:28Z</time>
      </trkpt>
      <trkpt lat="4.8519650" lon="-75.3997250">
        <ele>3888.3</ele>
        <time>2021-04-17T19:10:29Z</time>
      </trkpt>
      <trkpt lat="4.8519590" lon="-75.3997150">
        <ele>3888.4</ele>
        <time>2021-04-17T19:10:30Z</time>
      </trkpt>
      <trkpt lat="4.8519550" lon="-75.3997040">
        <ele>3888.5</ele>
        <time>2021-04-17T19:10:31Z</time>
      </trkpt>
      <trkpt lat="4.8519480" lon="-75.3996930">
        <ele>3888.6</ele>
        <time>2021-04-17T19:10:32Z</time>
      </trkpt>
      <trkpt lat="4.8519400" lon="-75.3996830">
        <ele>3888.8</ele>
        <time>2021-04-17T19:10:33Z</time>
      </trkpt>
      <trkpt lat="4.8519340" lon="-75.3996740">
        <ele>3888.9</ele>
        <time>2021-04-17T19:10:34Z</time>
      </trkpt>
      <trkpt lat="4.8519280" lon="-75.3996650">
        <ele>3888.9</ele>
        <time>2021-04-17T19:10:35Z</time>
      </trkpt>
      <trkpt lat="4.8519210" lon="-75.3996560">
        <ele>3889.0</ele>
        <time>2021-04-17T19:10:36Z</time>
      </trkpt>
      <trkpt lat="4.8519140" lon="-75.3996490">
        <ele>3889.1</ele>
        <time>2021-04-17T19:10:37Z</time>
      </trkpt>
      <trkpt lat="4.8519080" lon="-75.3996410">
        <ele>3889.2</ele>
        <time>2021-04-17T19:10:38Z</time>
      </trkpt>
      <trkpt lat="4.8519010" lon="-75.3996330">
        <ele>3889.3</ele>
        <time>2021-04-17T19:10:39Z</time>
      </trkpt>
      <trkpt lat="4.8518940" lon="-75.3996240">
        <ele>3889.4</ele>
        <time>2021-04-17T19:10:40Z</time>
      </trkpt>
      <trkpt lat="4.8518870" lon="-75.3996150">
        <ele>3889.5</ele>
        <time>2021-04-17T19:10:41Z</time>
      </trkpt>
      <trkpt lat="4.8518800" lon="-75.3996030">
        <ele>3889.6</ele>
        <time>2021-04-17T19:10:42Z</time>
      </trkpt>
      <trkpt lat="4.8518710" lon="-75.3995930">
        <ele>3889.7</ele>
        <time>2021-04-17T19:10:43Z</time>
      </trkpt>
      <trkpt lat="4.8518620" lon="-75.3995820">
        <ele>3889.9</ele>
        <time>2021-04-17T19:10:44Z</time>
      </trkpt>
      <trkpt lat="4.8518530" lon="-75.3995740">
        <ele>3890.0</ele>
        <time>2021-04-17T19:10:45Z</time>
      </trkpt>
      <trkpt lat="4.8518450" lon="-75.3995660">
        <ele>3890.1</ele>
        <time>2021-04-17T19:10:46Z</time>
      </trkpt>
      <trkpt lat="4.8518370" lon="-75.3995590">
        <ele>3890.1</ele>
        <time>2021-04-17T19:10:47Z</time>
      </trkpt>
      <trkpt lat="4.8518320" lon="-75.3995510">
        <ele>3890.2</ele>
        <time>2021-04-17T19:10:48Z</time>
      </trkpt>
      <trkpt lat="4.8518270" lon="-75.3995420">
        <ele>3890.3</ele>
        <time>2021-04-17T19:10:49Z</time>
      </trkpt>
      <trkpt lat="4.8518200" lon="-75.3995310">
        <ele>3890.4</ele>
        <time>2021-04-17T19:10:50Z</time>
      </trkpt>
      <trkpt lat="4.8518140" lon="-75.3995210">
        <ele>3890.5</ele>
        <time>2021-04-17T19:10:51Z</time>
      </trkpt>
      <trkpt lat="4.8518090" lon="-75.3995120">
        <ele>3890.6</ele>
        <time>2021-04-17T19:10:52Z</time>
      </trkpt>
      <trkpt lat="4.8518020" lon="-75.3995030">
        <ele>3890.7</ele>
        <time>2021-04-17T19:10:53Z</time>
      </trkpt>
      <trkpt lat="4.8517940" lon="-75.3994960">
        <ele>3890.8</ele>
        <time>2021-04-17T19:10:54Z</time>
      </trkpt>
      <trkpt lat="4.8517880" lon="-75.3994880">
        <ele>3890.9</ele>
        <time>2021-04-17T19:10:55Z</time>
      </trkpt>
      <trkpt lat="4.8517820" lon="-75.3994800">
        <ele>3891.0</ele>
        <time>2021-04-17T19:10:56Z</time>
      </trkpt>
      <trkpt lat="4.8517770" lon="-75.3994720">
        <ele>3891.0</ele>
        <time>2021-04-17T19:10:57Z</time>
      </trkpt>
      <trkpt lat="4.8517710" lon="-75.3994630">
        <ele>3891.1</ele>
        <time>2021-04-17T19:10:58Z</time>
      </trkpt>
      <trkpt lat="4.8517660" lon="-75.3994530">
        <ele>3891.2</ele>
        <time>2021-04-17T19:10:59Z</time>
      </trkpt>
      <trkpt lat="4.8517620" lon="-75.3994420">
        <ele>3891.3</ele>
        <time>2021-04-17T19:11:00Z</time>
      </trkpt>
      <trkpt lat="4.8517560" lon="-75.3994300">
        <ele>3891.5</ele>
        <time>2021-04-17T19:11:01Z</time>
      </trkpt>
      <trkpt lat="4.8517500" lon="-75.3994190">
        <ele>3891.6</ele>
        <time>2021-04-17T19:11:02Z</time>
      </trkpt>
      <trkpt lat="4.8517420" lon="-75.3994110">
        <ele>3891.7</ele>
        <time>2021-04-17T19:11:03Z</time>
      </trkpt>
      <trkpt lat="4.8517340" lon="-75.3994010">
        <ele>3891.8</ele>
        <time>2021-04-17T19:11:04Z</time>
      </trkpt>
      <trkpt lat="4.8517270" lon="-75.3993920">
        <ele>3891.9</ele>
        <time>2021-04-17T19:11:05Z</time>
      </trkpt>
      <trkpt lat="4.8517220" lon="-75.3993830">
        <ele>3892.0</ele>
        <time>2021-04-17T19:11:06Z</time>
      </trkpt>
      <trkpt lat="4.8517180" lon="-75.3993730">
        <ele>3892.0</ele>
        <time>2021-04-17T19:11:07Z</time>
      </trkpt>
      <trkpt lat="4.8517120" lon="-75.3993630">
        <ele>3892.1</ele>
        <time>2021-04-17T19:11:08Z</time>
      </trkpt>
      <trkpt lat="4.8517060" lon="-75.3993520">
        <ele>3892.2</ele>
        <time>2021-04-17T19:11:09Z</time>
      </trkpt>
      <trkpt lat="4.8517020" lon="-75.3993390">
        <ele>3892.4</ele>
        <time>2021-04-17T19:11:10Z</time>
      </trkpt>
      <trkpt lat="4.8516960" lon="-75.3993270">
        <ele>3892.5</ele>
        <time>2021-04-17T19:11:11Z</time>
      </trkpt>
      <trkpt lat="4.8516910" lon="-75.3993140">
        <ele>3892.6</ele>
        <time>2021-04-17T19:11:12Z</time>
      </trkpt>
      <trkpt lat="4.8516870" lon="-75.3993030">
        <ele>3892.7</ele>
        <time>2021-04-17T19:11:13Z</time>
      </trkpt>
      <trkpt lat="4.8516820" lon="-75.3992930">
        <ele>3892.8</ele>
        <time>2021-04-17T19:11:14Z</time>
      </trkpt>
      <trkpt lat="4.8516790" lon="-75.3992790">
        <ele>3892.9</ele>
        <time>2021-04-17T19:11:15Z</time>
      </trkpt>
      <trkpt lat="4.8516760" lon="-75.3992670">
        <ele>3893.0</ele>
        <time>2021-04-17T19:11:16Z</time>
      </trkpt>
      <trkpt lat="4.8516720" lon="-75.3992540">
        <ele>3893.1</ele>
        <time>2021-04-17T19:11:17Z</time>
      </trkpt>
      <trkpt lat="4.8516670" lon="-75.3992420">
        <ele>3893.2</ele>
        <time>2021-04-17T19:11:18Z</time>
      </trkpt>
      <trkpt lat="4.8516610" lon="-75.3992290">
        <ele>3893.4</ele>
        <time>2021-04-17T19:11:19Z</time>
      </trkpt>
      <trkpt lat="4.8516570" lon="-75.3992160">
        <ele>3893.5</ele>
        <time>2021-04-17T19:11:20Z</time>
      </trkpt>
      <trkpt lat="4.8516540" lon="-75.3992030">
        <ele>3893.6</ele>
        <time>2021-04-17T19:11:21Z</time>
      </trkpt>
      <trkpt lat="4.8516510" lon="-75.3991910">
        <ele>3893.7</ele>
        <time>2021-04-17T19:11:22Z</time>
      </trkpt>
      <trkpt lat="4.8516500" lon="-75.3991770">
        <ele>3893.8</ele>
        <time>2021-04-17T19:11:23Z</time>
      </trkpt>
      <trkpt lat="4.8516480" lon="-75.3991640">
        <ele>3893.9</ele>
        <time>2021-04-17T19:11:24Z</time>
      </trkpt>
      <trkpt lat="4.8516450" lon="-75.3991520">
        <ele>3894.0</ele>
        <time>2021-04-17T19:11:25Z</time>
      </trkpt>
      <trkpt lat="4.8516440" lon="-75.3991370">
        <ele>3894.2</ele>
        <time>2021-04-17T19:11:26Z</time>
      </trkpt>
      <trkpt lat="4.8516420" lon="-75.3991220">
        <ele>3894.3</ele>
        <time>2021-04-17T19:11:27Z</time>
      </trkpt>
      <trkpt lat="4.8516370" lon="-75.3991090">
        <ele>3894.4</ele>
        <time>2021-04-17T19:11:28Z</time>
      </trkpt>
      <trkpt lat="4.8516340" lon="-75.3990940">
        <ele>3894.6</ele>
        <time>2021-04-17T19:11:29Z</time>
      </trkpt>
      <trkpt lat="4.8516320" lon="-75.3990770">
        <ele>3894.7</ele>
        <time>2021-04-17T19:11:30Z</time>
      </trkpt>
      <trkpt lat="4.8516280" lon="-75.3990620">
        <ele>3894.8</ele>
        <time>2021-04-17T19:11:31Z</time>
      </trkpt>
      <trkpt lat="4.8516230" lon="-75.3990470">
        <ele>3895.0</ele>
        <time>2021-04-17T19:11:32Z</time>
      </trkpt>
      <trkpt lat="4.8516160" lon="-75.3990330">
        <ele>3895.1</ele>
        <time>2021-04-17T19:11:33Z</time>
      </trkpt>
      <trkpt lat="4.8516100" lon="-75.3990190">
        <ele>3895.2</ele>
        <time>2021-04-17T19:11:34Z</time>
      </trkpt>
      <trkpt lat="4.8516050" lon="-75.3990040">
        <ele>3895.4</ele>
        <time>2021-04-17T19:11:35Z</time>
      </trkpt>
      <trkpt lat="4.8515980" lon="-75.3989910">
        <ele>3895.5</ele>
        <time>2021-04-17T19:11:36Z</time>
      </trkpt>
      <trkpt lat="4.8515890" lon="-75.3989760">
        <ele>3895.6</ele>
        <time>2021-04-17T19:11:37Z</time>
      </trkpt>
      <trkpt lat="4.8515810" lon="-75.3989610">
        <ele>3895.8</ele>
        <time>2021-04-17T19:11:38Z</time>
      </trkpt>
      <trkpt lat="4.8515730" lon="-75.3989470">
        <ele>3895.9</ele>
        <time>2021-04-17T19:11:39Z</time>
      </trkpt>
      <trkpt lat="4.8515660" lon="-75.3989330">
        <ele>3896.1</ele>
        <time>2021-04-17T19:11:40Z</time>
      </trkpt>
      <trkpt lat="4.8515580" lon="-75.3989190">
        <ele>3896.2</ele>
        <time>2021-04-17T19:11:41Z</time>
      </trkpt>
      <trkpt lat="4.8515500" lon="-75.3989050">
        <ele>3896.3</ele>
        <time>2021-04-17T19:11:42Z</time>
      </trkpt>
      <trkpt lat="4.8515430" lon="-75.3988900">
        <ele>3896.5</ele>
        <time>2021-04-17T19:11:43Z</time>
      </trkpt>
      <trkpt lat="4.8515330" lon="-75.3988770">
        <ele>3896.6</ele>
        <time>2021-04-17T19:11:44Z</time>
      </trkpt>
      <trkpt lat="4.8515220" lon="-75.3988650">
        <ele>3896.8</ele>
        <time>2021-04-17T19:11:45Z</time>
      </trkpt>
      <trkpt lat="4.8515160" lon="-75.3988520">
        <ele>3896.9</ele>
        <time>2021-04-17T19:11:46Z</time>
      </trkpt>
      <trkpt lat="4.8515100" lon="-75.3988390">
        <ele>3897.0</ele>
        <time>2021-04-17T19:11:47Z</time>
      </trkpt>
      <trkpt lat="4.8515010" lon="-75.3988250">
        <ele>3897.1</ele>
        <time>2021-04-17T19:11:48Z</time>
      </trkpt>
      <trkpt lat="4.8514940" lon="-75.3988120">
        <ele>3897.3</ele>
        <time>2021-04-17T19:11:49Z</time>
      </trkpt>
      <trkpt lat="4.8514850" lon="-75.3988020">
        <ele>3897.4</ele>
        <time>2021-04-17T19:11:50Z</time>
      </trkpt>
      <trkpt lat="4.8514780" lon="-75.3987920">
        <ele>3897.5</ele>
        <time>2021-04-17T19:11:51Z</time>
      </trkpt>
      <trkpt lat="4.8514750" lon="-75.3987810">
        <ele>3897.6</ele>
        <time>2021-04-17T19:11:52Z</time>
      </trkpt>
      <trkpt lat="4.8514710" lon="-75.3987690">
        <ele>3897.7</ele>
        <time>2021-04-17T19:11:53Z</time>
      </trkpt>
      <trkpt lat="4.8514680" lon="-75.3987540">
        <ele>3897.8</ele>
        <time>2021-04-17T19:11:54Z</time>
      </trkpt>
      <trkpt lat="4.8514640" lon="-75.3987400">
        <ele>3897.9</ele>
        <time>2021-04-17T19:11:55Z</time>
      </trkpt>
      <trkpt lat="4.8514600" lon="-75.3987290">
        <ele>3898.0</ele>
        <time>2021-04-17T19:11:56Z</time>
      </trkpt>
      <trkpt lat="4.8514550" lon="-75.3987150">
        <ele>3898.2</ele>
        <time>2021-04-17T19:11:57Z</time>
      </trkpt>
      <trkpt lat="4.8514490" lon="-75.3987030">
        <ele>3898.3</ele>
        <time>2021-04-17T19:11:58Z</time>
      </trkpt>
      <trkpt lat="4.8514440" lon="-75.3986910">
        <ele>3898.4</ele>
        <time>2021-04-17T19:11:59Z</time>
      </trkpt>
      <trkpt lat="4.8514380" lon="-75.3986760">
        <ele>3898.5</ele>
        <time>2021-04-17T19:12:00Z</time>
      </trkpt>
      <trkpt lat="4.8514330" lon="-75.3986630">
        <ele>3898.7</ele>
        <time>2021-04-17T19:12:01Z</time>
      </trkpt>
      <trkpt lat="4.8514270" lon="-75.3986480">
        <ele>3898.8</ele>
        <time>2021-04-17T19:12:02Z</time>
      </trkpt>
      <trkpt lat="4.8514200" lon="-75.3986330">
        <ele>3898.9</ele>
        <time>2021-04-17T19:12:03Z</time>
      </trkpt>
      <trkpt lat="4.8514140" lon="-75.3986180">
        <ele>3899.1</ele>
        <time>2021-04-17T19:12:04Z</time>
      </trkpt>
      <trkpt lat="4.8514100" lon="-75.3986050">
        <ele>3899.2</ele>
        <time>2021-04-17T19:12:05Z</time>
      </trkpt>
      <trkpt lat="4.8514030" lon="-75.3985920">
        <ele>3899.3</ele>
        <time>2021-04-17T19:12:06Z</time>
      </trkpt>
      <trkpt lat="4.8513950" lon="-75.3985800">
        <ele>3899.4</ele>
        <time>2021-04-17T19:12:07Z</time>
      </trkpt>
      <trkpt lat="4.8513870" lon="-75.3985670">
        <ele>3899.6</ele>
        <time>2021-04-17T19:12:08Z</time>
      </trkpt>
      <trkpt lat="4.8513790" lon="-75.3985490">
        <ele>3899.7</ele>
        <time>2021-04-17T19:12:09Z</time>
      </trkpt>
      <trkpt lat="4.8513690" lon="-75.3985310">
        <ele>3899.9</ele>
        <time>2021-04-17T19:12:10Z</time>
      </trkpt>
      <trkpt lat="4.8513590" lon="-75.3985150">
        <ele>3900.1</ele>
        <time>2021-04-17T19:12:11Z</time>
      </trkpt>
      <trkpt lat="4.8513520" lon="-75.3984980">
        <ele>3900.2</ele>
        <time>2021-04-17T19:12:12Z</time>
      </trkpt>
      <trkpt lat="4.8513460" lon="-75.3984820">
        <ele>3900.4</ele>
        <time>2021-04-17T19:12:13Z</time>
      </trkpt>
      <trkpt lat="4.8513390" lon="-75.3984670">
        <ele>3900.5</ele>
        <time>2021-04-17T19:12:14Z</time>
      </trkpt>
      <trkpt lat="4.8513310" lon="-75.3984530">
        <ele>3900.7</ele>
        <time>2021-04-17T19:12:15Z</time>
      </trkpt>
      <trkpt lat="4.8513240" lon="-75.3984380">
        <ele>3900.8</ele>
        <time>2021-04-17T19:12:16Z</time>
      </trkpt>
      <trkpt lat="4.8513160" lon="-75.3984230">
        <ele>3900.9</ele>
        <time>2021-04-17T19:12:17Z</time>
      </trkpt>
      <trkpt lat="4.8513080" lon="-75.3984080">
        <ele>3901.1</ele>
        <time>2021-04-17T19:12:18Z</time>
      </trkpt>
      <trkpt lat="4.8513000" lon="-75.3983960">
        <ele>3901.2</ele>
        <time>2021-04-17T19:12:19Z</time>
      </trkpt>
      <trkpt lat="4.8512930" lon="-75.3983820">
        <ele>3901.3</ele>
        <time>2021-04-17T19:12:20Z</time>
      </trkpt>
      <trkpt lat="4.8512850" lon="-75.3983700">
        <ele>3901.5</ele>
        <time>2021-04-17T19:12:21Z</time>
      </trkpt>
      <trkpt lat="4.8512780" lon="-75.3983570">
        <ele>3901.6</ele>
        <time>2021-04-17T19:12:22Z</time>
      </trkpt>
      <trkpt lat="4.8512720" lon="-75.3983440">
        <ele>3901.7</ele>
        <time>2021-04-17T19:12:23Z</time>
      </trkpt>
      <trkpt lat="4.8512650" lon="-75.3983300">
        <ele>3901.8</ele>
        <time>2021-04-17T19:12:24Z</time>
      </trkpt>
      <trkpt lat="4.8512580" lon="-75.3983160">
        <ele>3902.0</ele>
        <time>2021-04-17T19:12:25Z</time>
      </trkpt>
      <trkpt lat="4.8512510" lon="-75.3983030">
        <ele>3902.1</ele>
        <time>2021-04-17T19:12:26Z</time>
      </trkpt>
      <trkpt lat="4.8512450" lon="-75.3982890">
        <ele>3902.2</ele>
        <time>2021-04-17T19:12:27Z</time>
      </trkpt>
      <trkpt lat="4.8512400" lon="-75.3982780">
        <ele>3902.3</ele>
        <time>2021-04-17T19:12:28Z</time>
      </trkpt>
      <trkpt lat="4.8512360" lon="-75.3982670">
        <ele>3902.4</ele>
        <time>2021-04-17T19:12:29Z</time>
      </trkpt>
      <trkpt lat="4.8512320" lon="-75.3982590">
        <ele>3902.5</ele>
        <time>2021-04-17T19:12:30Z</time>
      </trkpt>
      <trkpt lat="4.8512300" lon="-75.3982520">
        <ele>3902.6</ele>
        <time>2021-04-17T19:12:31Z</time>
      </trkpt>
      <trkpt lat="4.8512290" lon="-75.3982440">
        <ele>3902.6</ele>
        <time>2021-04-17T19:12:32Z</time>
      </trkpt>
      <trkpt lat="4.8512270" lon="-75.3982360">
        <ele>3902.7</ele>
        <time>2021-04-17T19:12:33Z</time>
      </trkpt>
      <trkpt lat="4.8512240" lon="-75.3982280">
        <ele>3902.8</ele>
        <time>2021-04-17T19:12:34Z</time>
      </trkpt>
      <trkpt lat="4.8512240" lon="-75.3982190">
        <ele>3902.9</ele>
        <time>2021-04-17T19:12:35Z</time>
      </trkpt>
      <trkpt lat="4.8512240" lon="-75.3982080">
        <ele>3903.0</ele>
        <time>2021-04-17T19:12:36Z</time>
      </trkpt>
      <trkpt lat="4.8512250" lon="-75.3981990">
        <ele>3903.0</ele>
        <time>2021-04-17T19:12:37Z</time>
      </trkpt>
      <trkpt lat="4.8512270" lon="-75.3981880">
        <ele>3903.1</ele>
        <time>2021-04-17T19:12:38Z</time>
      </trkpt>
      <trkpt lat="4.8512300" lon="-75.3981750">
        <ele>3903.2</ele>
        <time>2021-04-17T19:12:39Z</time>
      </trkpt>
      <trkpt lat="4.8512340" lon="-75.3981630">
        <ele>3903.4</ele>
        <time>2021-04-17T19:12:40Z</time>
      </trkpt>
      <trkpt lat="4.8512370" lon="-75.3981510">
        <ele>3903.5</ele>
        <time>2021-04-17T19:12:41Z</time>
      </trkpt>
      <trkpt lat="4.8512400" lon="-75.3981380">
        <ele>3903.6</ele>
        <time>2021-04-17T19:12:42Z</time>
      </trkpt>
      <trkpt lat="4.8512410" lon="-75.3981240">
        <ele>3903.7</ele>
        <time>2021-04-17T19:12:43Z</time>
      </trkpt>
      <trkpt lat="4.8512440" lon="-75.3981100">
        <ele>3903.8</ele>
        <time>2021-04-17T19:12:44Z</time>
      </trkpt>
      <trkpt lat="4.8512460" lon="-75.3980980">
        <ele>3903.9</ele>
        <time>2021-04-17T19:12:45Z</time>
      </trkpt>
      <trkpt lat="4.8512490" lon="-75.3980870">
        <ele>3904.0</ele>
        <time>2021-04-17T19:12:46Z</time>
      </trkpt>
      <trkpt lat="4.8512520" lon="-75.3980750">
        <ele>3904.1</ele>
        <time>2021-04-17T19:12:47Z</time>
      </trkpt>
      <trkpt lat="4.8512570" lon="-75.3980640">
        <ele>3904.2</ele>
        <time>2021-04-17T19:12:48Z</time>
      </trkpt>
      <trkpt lat="4.8512620" lon="-75.3980520">
        <ele>3904.3</ele>
        <time>2021-04-17T19:12:49Z</time>
      </trkpt>
      <trkpt lat="4.8512640" lon="-75.3980400">
        <ele>3904.4</ele>
        <time>2021-04-17T19:12:50Z</time>
      </trkpt>
      <trkpt lat="4.8512660" lon="-75.3980290">
        <ele>3904.5</ele>
        <time>2021-04-17T19:12:51Z</time>
      </trkpt>
      <trkpt lat="4.8512690" lon="-75.3980170">
        <ele>3904.6</ele>
        <time>2021-04-17T19:12:52Z</time>
      </trkpt>
      <trkpt lat="4.8512720" lon="-75.3980050">
        <ele>3904.8</ele>
        <time>2021-04-17T19:12:53Z</time>
      </trkpt>
      <trkpt lat="4.8512730" lon="-75.3979960">
        <ele>3904.8</ele>
        <time>2021-04-17T19:12:54Z</time>
      </trkpt>
      <trkpt lat="4.8512740" lon="-75.3979850">
        <ele>3904.9</ele>
        <time>2021-04-17T19:12:55Z</time>
      </trkpt>
      <trkpt lat="4.8512750" lon="-75.3979750">
        <ele>3905.0</ele>
        <time>2021-04-17T19:12:56Z</time>
      </trkpt>
      <trkpt lat="4.8512750" lon="-75.3979640">
        <ele>3905.1</ele>
        <time>2021-04-17T19:12:57Z</time>
      </trkpt>
      <trkpt lat="4.8512760" lon="-75.3979530">
        <ele>3905.2</ele>
        <time>2021-04-17T19:12:58Z</time>
      </trkpt>
      <trkpt lat="4.8512770" lon="-75.3979420">
        <ele>3905.3</ele>
        <time>2021-04-17T19:12:59Z</time>
      </trkpt>
      <trkpt lat="4.8512790" lon="-75.3979320">
        <ele>3905.4</ele>
        <time>2021-04-17T19:13:00Z</time>
      </trkpt>
      <trkpt lat="4.8512820" lon="-75.3979220">
        <ele>3905.5</ele>
        <time>2021-04-17T19:13:01Z</time>
      </trkpt>
      <trkpt lat="4.8512840" lon="-75.3979110">
        <ele>3905.6</ele>
        <time>2021-04-17T19:13:02Z</time>
      </trkpt>
      <trkpt lat="4.8512860" lon="-75.3978980">
        <ele>3905.7</ele>
        <time>2021-04-17T19:13:03Z</time>
      </trkpt>
      <trkpt lat="4.8512890" lon="-75.3978870">
        <ele>3905.8</ele>
        <time>2021-04-17T19:13:04Z</time>
      </trkpt>
      <trkpt lat="4.8512920" lon="-75.3978760">
        <ele>3905.9</ele>
        <time>2021-04-17T19:13:05Z</time>
      </trkpt>
      <trkpt lat="4.8512940" lon="-75.3978650">
        <ele>3906.0</ele>
        <time>2021-04-17T19:13:06Z</time>
      </trkpt>
      <trkpt lat="4.8512960" lon="-75.3978540">
        <ele>3906.1</ele>
        <time>2021-04-17T19:13:07Z</time>
      </trkpt>
      <trkpt lat="4.8512950" lon="-75.3978420">
        <ele>3906.2</ele>
        <time>2021-04-17T19:13:08Z</time>
      </trkpt>
      <trkpt lat="4.8512900" lon="-75.3978310">
        <ele>3906.3</ele>
        <time>2021-04-17T19:13:09Z</time>
      </trkpt>
      <trkpt lat="4.8512820" lon="-75.3978210">
        <ele>3906.4</ele>
        <time>2021-04-17T19:13:10Z</time>
      </trkpt>
      <trkpt lat="4.8512740" lon="-75.3978120">
        <ele>3906.5</ele>
        <time>2021-04-17T19:13:11Z</time>
      </trkpt>
      <trkpt lat="4.8512670" lon="-75.3977990">
        <ele>3906.6</ele>
        <time>2021-04-17T19:13:12Z</time>
      </trkpt>
      <trkpt lat="4.8512600" lon="-75.3977840">
        <ele>3906.7</ele>
        <time>2021-04-17T19:13:13Z</time>
      </trkpt>
      <trkpt lat="4.8512550" lon="-75.3977710">
        <ele>3906.9</ele>
        <time>2021-04-17T19:13:14Z</time>
      </trkpt>
      <trkpt lat="4.8512480" lon="-75.3977570">
        <ele>3907.0</ele>
        <time>2021-04-17T19:13:15Z</time>
      </trkpt>
      <trkpt lat="4.8512400" lon="-75.3977440">
        <ele>3907.1</ele>
        <time>2021-04-17T19:13:16Z</time>
      </trkpt>
      <trkpt lat="4.8512330" lon="-75.3977320">
        <ele>3907.2</ele>
        <time>2021-04-17T19:13:17Z</time>
      </trkpt>
      <trkpt lat="4.8512270" lon="-75.3977200">
        <ele>3907.4</ele>
        <time>2021-04-17T19:13:18Z</time>
      </trkpt>
      <trkpt lat="4.8512190" lon="-75.3977060">
        <ele>3907.5</ele>
        <time>2021-04-17T19:13:19Z</time>
      </trkpt>
      <trkpt lat="4.8512080" lon="-75.3976950">
        <ele>3907.6</ele>
        <time>2021-04-17T19:13:20Z</time>
      </trkpt>
      <trkpt lat="4.8511970" lon="-75.3976830">
        <ele>3907.8</ele>
        <time>2021-04-17T19:13:21Z</time>
      </trkpt>
      <trkpt lat="4.8511870" lon="-75.3976720">
        <ele>3907.9</ele>
        <time>2021-04-17T19:13:22Z</time>
      </trkpt>
      <trkpt lat="4.8511770" lon="-75.3976610">
        <ele>3908.0</ele>
        <time>2021-04-17T19:13:23Z</time>
      </trkpt>
      <trkpt lat="4.8511680" lon="-75.3976490">
        <ele>3908.2</ele>
        <time>2021-04-17T19:13:24Z</time>
      </trkpt>
      <trkpt lat="4.8511570" lon="-75.3976350">
        <ele>3908.3</ele>
        <time>2021-04-17T19:13:25Z</time>
      </trkpt>
      <trkpt lat="4.8511450" lon="-75.3976210">
        <ele>3908.5</ele>
        <time>2021-04-17T19:13:26Z</time>
      </trkpt>
      <trkpt lat="4.8511330" lon="-75.3976090">
        <ele>3908.6</ele>
        <time>2021-04-17T19:13:27Z</time>
      </trkpt>
      <trkpt lat="4.8511210" lon="-75.3975960">
        <ele>3908.8</ele>
        <time>2021-04-17T19:13:28Z</time>
      </trkpt>
      <trkpt lat="4.8511080" lon="-75.3975850">
        <ele>3908.9</ele>
        <time>2021-04-17T19:13:29Z</time>
      </trkpt>
      <trkpt lat="4.8510950" lon="-75.3975730">
        <ele>3909.1</ele>
        <time>2021-04-17T19:13:30Z</time>
      </trkpt>
      <trkpt lat="4.8510840" lon="-75.3975590">
        <ele>3909.2</ele>
        <time>2021-04-17T19:13:31Z</time>
      </trkpt>
      <trkpt lat="4.8510720" lon="-75.3975440">
        <ele>3909.4</ele>
        <time>2021-04-17T19:13:32Z</time>
      </trkpt>
      <trkpt lat="4.8510610" lon="-75.3975290">
        <ele>3909.5</ele>
        <time>2021-04-17T19:13:33Z</time>
      </trkpt>
      <trkpt lat="4.8510500" lon="-75.3975140">
        <ele>3909.7</ele>
        <time>2021-04-17T19:13:34Z</time>
      </trkpt>
      <trkpt lat="4.8510380" lon="-75.3975020">
        <ele>3909.8</ele>
        <time>2021-04-17T19:13:35Z</time>
      </trkpt>
      <trkpt lat="4.8510260" lon="-75.3974900">
        <ele>3910.0</ele>
        <time>2021-04-17T19:13:36Z</time>
      </trkpt>
      <trkpt lat="4.8510160" lon="-75.3974760">
        <ele>3910.1</ele>
        <time>2021-04-17T19:13:37Z</time>
      </trkpt>
      <trkpt lat="4.8510050" lon="-75.3974620">
        <ele>3910.3</ele>
        <time>2021-04-17T19:13:38Z</time>
      </trkpt>
      <trkpt lat="4.8509940" lon="-75.3974500">
        <ele>3910.4</ele>
        <time>2021-04-17T19:13:39Z</time>
      </trkpt>
      <trkpt lat="4.8509830" lon="-75.3974360">
        <ele>3910.6</ele>
        <time>2021-04-17T19:13:40Z</time>
      </trkpt>
      <trkpt lat="4.8509690" lon="-75.3974220">
        <ele>3910.7</ele>
        <time>2021-04-17T19:13:41Z</time>
      </trkpt>
      <trkpt lat="4.8509550" lon="-75.3974090">
        <ele>3910.9</ele>
        <time>2021-04-17T19:13:42Z</time>
      </trkpt>
      <trkpt lat="4.8509420" lon="-75.3973970">
        <ele>3911.1</ele>
        <time>2021-04-17T19:13:43Z</time>
      </trkpt>
      <trkpt lat="4.8509280" lon="-75.3973890">
        <ele>3911.2</ele>
        <time>2021-04-17T19:13:44Z</time>
      </trkpt>
      <trkpt lat="4.8509170" lon="-75.3973790">
        <ele>3911.3</ele>
        <time>2021-04-17T19:13:45Z</time>
      </trkpt>
      <trkpt lat="4.8509070" lon="-75.3973660">
        <ele>3911.5</ele>
        <time>2021-04-17T19:13:46Z</time>
      </trkpt>
      <trkpt lat="4.8508980" lon="-75.3973510">
        <ele>3911.6</ele>
        <time>2021-04-17T19:13:47Z</time>
      </trkpt>
      <trkpt lat="4.8508870" lon="-75.3973380">
        <ele>3911.8</ele>
        <time>2021-04-17T19:13:48Z</time>
      </trkpt>
      <trkpt lat="4.8508780" lon="-75.3973250">
        <ele>3911.9</ele>
        <time>2021-04-17T19:13:49Z</time>
      </trkpt>
      <trkpt lat="4.8508690" lon="-75.3973130">
        <ele>3912.0</ele>
        <time>2021-04-17T19:13:50Z</time>
      </trkpt>
      <trkpt lat="4.8508610" lon="-75.3973010">
        <ele>3912.1</ele>
        <time>2021-04-17T19:13:51Z</time>
      </trkpt>
      <trkpt lat="4.8508540" lon="-75.3972880">
        <ele>3912.3</ele>
        <time>2021-04-17T19:13:52Z</time>
      </trkpt>
      <trkpt lat="4.8508460" lon="-75.3972770">
        <ele>3912.4</ele>
        <time>2021-04-17T19:13:53Z</time>
      </trkpt>
      <trkpt lat="4.8508380" lon="-75.3972630">
        <ele>3912.5</ele>
        <time>2021-04-17T19:13:54Z</time>
      </trkpt>
      <trkpt lat="4.8508300" lon="-75.3972500">
        <ele>3912.7</ele>
        <time>2021-04-17T19:13:55Z</time>
      </trkpt>
      <trkpt lat="4.8508240" lon="-75.3972360">
        <ele>3912.8</ele>
        <time>2021-04-17T19:13:56Z</time>
      </trkpt>
      <trkpt lat="4.8508170" lon="-75.3972210">
        <ele>3912.9</ele>
        <time>2021-04-17T19:13:57Z</time>
      </trkpt>
      <trkpt lat="4.8508110" lon="-75.3972070">
        <ele>3913.1</ele>
        <time>2021-04-17T19:13:58Z</time>
      </trkpt>
      <trkpt lat="4.8508050" lon="-75.3971910">
        <ele>3913.2</ele>
        <time>2021-04-17T19:13:59Z</time>
      </trkpt>
      <trkpt lat="4.8507980" lon="-75.3971760">
        <ele>3913.3</ele>
        <time>2021-04-17T19:14:00Z</time>
      </trkpt>
      <trkpt lat="4.8507910" lon="-75.3971600">
        <ele>3913.5</ele>
        <time>2021-04-17T19:14:01Z</time>
      </trkpt>
      <trkpt lat="4.8507870" lon="-75.3971430">
        <ele>3913.6</ele>
        <time>2021-04-17T19:14:02Z</time>
      </trkpt>
      <trkpt lat="4.8507820" lon="-75.3971250">
        <ele>3913.8</ele>
        <time>2021-04-17T19:14:03Z</time>
      </trkpt>
      <trkpt lat="4.8507760" lon="-75.3971070">
        <ele>3914.0</ele>
        <time>2021-04-17T19:14:04Z</time>
      </trkpt>
      <trkpt lat="4.8507690" lon="-75.3970920">
        <ele>3914.1</ele>
        <time>2021-04-17T19:14:05Z</time>
      </trkpt>
      <trkpt lat="4.8507620" lon="-75.3970790">
        <ele>3914.2</ele>
        <time>2021-04-17T19:14:06Z</time>
      </trkpt>
      <trkpt lat="4.8507540" lon="-75.3970670">
        <ele>3914.4</ele>
        <time>2021-04-17T19:14:07Z</time>
      </trkpt>
      <trkpt lat="4.8507460" lon="-75.3970570">
        <ele>3914.5</ele>
        <time>2021-04-17T19:14:08Z</time>
      </trkpt>
      <trkpt lat="4.8507430" lon="-75.3970500">
        <ele>3914.5</ele>
        <time>2021-04-17T19:14:09Z</time>
      </trkpt>
      <trkpt lat="4.8507450" lon="-75.3970440">
        <ele>3914.6</ele>
        <time>2021-04-17T19:14:10Z</time>
      </trkpt>
      <trkpt lat="4.8507510" lon="-75.3970410">
        <ele>3914.6</ele>
        <time>2021-04-17T19:14:11Z</time>
      </trkpt>
      <trkpt lat="4.8507590" lon="-75.3970470">
        <ele>3914.7</ele>
        <time>2021-04-17T19:14:12Z</time>
      </trkpt>
      <trkpt lat="4.8507660" lon="-75.3970550">
        <ele>3914.8</ele>
        <time>2021-04-17T19:14:13Z</time>
      </trkpt>
      <trkpt lat="4.8507670" lon="-75.3970800">
        <ele>3915.0</ele>
        <time>2021-04-17T19:14:14Z</time>
      </trkpt>
      <trkpt lat="4.8507740" lon="-75.3971020">
        <ele>3915.2</ele>
        <time>2021-04-17T19:14:15Z</time>
      </trkpt>
      <trkpt lat="4.8507840" lon="-75.3971320">
        <ele>3915.5</ele>
        <time>2021-04-17T19:14:16Z</time>
      </trkpt>
      <trkpt lat="4.8507960" lon="-75.3971670">
        <ele>3915.3</ele>
        <time>2021-04-17T19:14:17Z</time>
      </trkpt>
      <trkpt lat="4.8508110" lon="-75.3972030">
        <ele>3915.0</ele>
        <time>2021-04-17T19:14:18Z</time>
      </trkpt>
      <trkpt lat="4.8508320" lon="-75.3972400">
        <ele>3914.6</ele>
        <time>2021-04-17T19:14:19Z</time>
      </trkpt>
      <trkpt lat="4.8508590" lon="-75.3972790">
        <ele>3914.1</ele>
        <time>2021-04-17T19:14:20Z</time>
      </trkpt>
      <trkpt lat="4.8508880" lon="-75.3973200">
        <ele>3913.7</ele>
        <time>2021-04-17T19:14:21Z</time>
      </trkpt>
      <trkpt lat="4.8509140" lon="-75.3973600">
        <ele>3913.2</ele>
        <time>2021-04-17T19:14:22Z</time>
      </trkpt>
      <trkpt lat="4.8509400" lon="-75.3973960">
        <ele>3912.8</ele>
        <time>2021-04-17T19:14:23Z</time>
      </trkpt>
      <trkpt lat="4.8509660" lon="-75.3974290">
        <ele>3912.4</ele>
        <time>2021-04-17T19:14:24Z</time>
      </trkpt>
      <trkpt lat="4.8509900" lon="-75.3974600">
        <ele>3912.1</ele>
        <time>2021-04-17T19:14:25Z</time>
      </trkpt>
      <trkpt lat="4.8510130" lon="-75.3974900">
        <ele>3911.7</ele>
        <time>2021-04-17T19:14:26Z</time>
      </trkpt>
      <trkpt lat="4.8510350" lon="-75.3975190">
        <ele>3911.4</ele>
        <time>2021-04-17T19:14:27Z</time>
      </trkpt>
      <trkpt lat="4.8510570" lon="-75.3975480">
        <ele>3911.0</ele>
        <time>2021-04-17T19:14:28Z</time>
      </trkpt>
      <trkpt lat="4.8510760" lon="-75.3975730">
        <ele>3910.8</ele>
        <time>2021-04-17T19:14:29Z</time>
      </trkpt>
      <trkpt lat="4.8510970" lon="-75.3975960">
        <ele>3910.5</ele>
        <time>2021-04-17T19:14:30Z</time>
      </trkpt>
      <trkpt lat="4.8511210" lon="-75.3976200">
        <ele>3910.2</ele>
        <time>2021-04-17T19:14:31Z</time>
      </trkpt>
      <trkpt lat="4.8511460" lon="-75.3976430">
        <ele>3909.8</ele>
        <time>2021-04-17T19:14:32Z</time>
      </trkpt>
      <trkpt lat="4.8511700" lon="-75.3976680">
        <ele>3909.5</ele>
        <time>2021-04-17T19:14:33Z</time>
      </trkpt>
      <trkpt lat="4.8511920" lon="-75.3976950">
        <ele>3909.2</ele>
        <time>2021-04-17T19:14:34Z</time>
      </trkpt>
      <trkpt lat="4.8512160" lon="-75.3977280">
        <ele>3908.8</ele>
        <time>2021-04-17T19:14:35Z</time>
      </trkpt>
      <trkpt lat="4.8512430" lon="-75.3977650">
        <ele>3908.4</ele>
        <time>2021-04-17T19:14:36Z</time>
      </trkpt>
      <trkpt lat="4.8512660" lon="-75.3978070">
        <ele>3908.0</ele>
        <time>2021-04-17T19:14:37Z</time>
      </trkpt>
      <trkpt lat="4.8512820" lon="-75.3978520">
        <ele>3907.5</ele>
        <time>2021-04-17T19:14:38Z</time>
      </trkpt>
      <trkpt lat="4.8512890" lon="-75.3978980">
        <ele>3907.1</ele>
        <time>2021-04-17T19:14:39Z</time>
      </trkpt>
      <trkpt lat="4.8512900" lon="-75.3979430">
        <ele>3906.7</ele>
        <time>2021-04-17T19:14:40Z</time>
      </trkpt>
      <trkpt lat="4.8512790" lon="-75.3979880">
        <ele>3906.3</ele>
        <time>2021-04-17T19:14:41Z</time>
      </trkpt>
      <trkpt lat="4.8512620" lon="-75.3980340">
        <ele>3905.8</ele>
        <time>2021-04-17T19:14:42Z</time>
      </trkpt>
      <trkpt lat="4.8512480" lon="-75.3980840">
        <ele>3905.3</ele>
        <time>2021-04-17T19:14:43Z</time>
      </trkpt>
      <trkpt lat="4.8512390" lon="-75.3981400">
        <ele>3904.8</ele>
        <time>2021-04-17T19:14:44Z</time>
      </trkpt>
      <trkpt lat="4.8512360" lon="-75.3981940">
        <ele>3904.3</ele>
        <time>2021-04-17T19:14:45Z</time>
      </trkpt>
      <trkpt lat="4.8512390" lon="-75.3982450">
        <ele>3903.8</ele>
        <time>2021-04-17T19:14:46Z</time>
      </trkpt>
      <trkpt lat="4.8512500" lon="-75.3982970">
        <ele>3903.3</ele>
        <time>2021-04-17T19:14:47Z</time>
      </trkpt>
      <trkpt lat="4.8512660" lon="-75.3983500">
        <ele>3902.8</ele>
        <time>2021-04-17T19:14:48Z</time>
      </trkpt>
      <trkpt lat="4.8512910" lon="-75.3984000">
        <ele>3902.3</ele>
        <time>2021-04-17T19:14:49Z</time>
      </trkpt>
      <trkpt lat="4.8513210" lon="-75.3984480">
        <ele>3901.8</ele>
        <time>2021-04-17T19:14:50Z</time>
      </trkpt>
      <trkpt lat="4.8513510" lon="-75.3985000">
        <ele>3901.2</ele>
        <time>2021-04-17T19:14:51Z</time>
      </trkpt>
      <trkpt lat="4.8513810" lon="-75.3985560">
        <ele>3900.7</ele>
        <time>2021-04-17T19:14:52Z</time>
      </trkpt>
      <trkpt lat="4.8514130" lon="-75.3986160">
        <ele>3900.0</ele>
        <time>2021-04-17T19:14:53Z</time>
      </trkpt>
      <trkpt lat="4.8514440" lon="-75.3986780">
        <ele>3899.4</ele>
        <time>2021-04-17T19:14:54Z</time>
      </trkpt>
      <trkpt lat="4.8514740" lon="-75.3987440">
        <ele>3898.7</ele>
        <time>2021-04-17T19:14:55Z</time>
      </trkpt>
      <trkpt lat="4.8515050" lon="-75.3988140">
        <ele>3898.0</ele>
        <time>2021-04-17T19:14:56Z</time>
      </trkpt>
      <trkpt lat="4.8515390" lon="-75.3988820">
        <ele>3897.3</ele>
        <time>2021-04-17T19:14:57Z</time>
      </trkpt>
      <trkpt lat="4.8515740" lon="-75.3989480">
        <ele>3896.6</ele>
        <time>2021-04-17T19:14:58Z</time>
      </trkpt>
      <trkpt lat="4.8516050" lon="-75.3990170">
        <ele>3895.9</ele>
        <time>2021-04-17T19:14:59Z</time>
      </trkpt>
      <trkpt lat="4.8516320" lon="-75.3990870">
        <ele>3895.2</ele>
        <time>2021-04-17T19:15:00Z</time>
      </trkpt>
      <trkpt lat="4.8516510" lon="-75.3991550">
        <ele>3894.6</ele>
        <time>2021-04-17T19:15:01Z</time>
      </trkpt>
      <trkpt lat="4.8516660" lon="-75.3992210">
        <ele>3894.0</ele>
        <time>2021-04-17T19:15:02Z</time>
      </trkpt>
      <trkpt lat="4.8516860" lon="-75.3992870">
        <ele>3893.3</ele>
        <time>2021-04-17T19:15:03Z</time>
      </trkpt>
      <trkpt lat="4.8517100" lon="-75.3993530">
        <ele>3892.7</ele>
        <time>2021-04-17T19:15:04Z</time>
      </trkpt>
      <trkpt lat="4.8517390" lon="-75.3994180">
        <ele>3892.0</ele>
        <time>2021-04-17T19:15:05Z</time>
      </trkpt>
      <trkpt lat="4.8517700" lon="-75.3994840">
        <ele>3891.4</ele>
        <time>2021-04-17T19:15:06Z</time>
      </trkpt>
      <trkpt lat="4.8518090" lon="-75.3995480">
        <ele>3890.7</ele>
        <time>2021-04-17T19:15:07Z</time>
      </trkpt>
      <trkpt lat="4.8518510" lon="-75.3996080">
        <ele>3890.0</ele>
        <time>2021-04-17T19:15:08Z</time>
      </trkpt>
      <trkpt lat="4.8518970" lon="-75.3996670">
        <ele>3889.3</ele>
        <time>2021-04-17T19:15:09Z</time>
      </trkpt>
      <trkpt lat="4.8519420" lon="-75.3997290">
        <ele>3888.6</ele>
        <time>2021-04-17T19:15:10Z</time>
      </trkpt>
      <trkpt lat="4.8519820" lon="-75.3997890">
        <ele>3887.9</ele>
        <time>2021-04-17T19:15:11Z</time>
      </trkpt>
      <trkpt lat="4.8520150" lon="-75.3998470">
        <ele>3887.3</ele>
        <time>2021-04-17T19:15:12Z</time>
      </trkpt>
      <trkpt lat="4.8520460" lon="-75.3999030">
        <ele>3886.7</ele>
        <time>2021-04-17T19:15:13Z</time>
      </trkpt>
      <trkpt lat="4.8520780" lon="-75.3999610">
        <ele>3886.1</ele>
        <time>2021-04-17T19:15:14Z</time>
      </trkpt>
      <trkpt lat="4.8521090" lon="-75.4000220">
        <ele>3885.5</ele>
        <time>2021-04-17T19:15:15Z</time>
      </trkpt>
      <trkpt lat="4.8521400" lon="-75.4000870">
        <ele>3884.8</ele>
        <time>2021-04-17T19:15:16Z</time>
      </trkpt>
      <trkpt lat="4.8521710" lon="-75.4001520">
        <ele>3884.2</ele>
        <time>2021-04-17T19:15:17Z</time>
      </trkpt>
      <trkpt lat="4.8522020" lon="-75.4002150">
        <ele>3883.5</ele>
        <time>2021-04-17T19:15:18Z</time>
      </trkpt>
      <trkpt lat="4.8522400" lon="-75.4002750">
        <ele>3882.9</ele>
        <time>2021-04-17T19:15:19Z</time>
      </trkpt>
      <trkpt lat="4.8522850" lon="-75.4003350">
        <ele>3882.2</ele>
        <time>2021-04-17T19:15:20Z</time>
      </trkpt>
      <trkpt lat="4.8523270" lon="-75.4003980">
        <ele>3881.5</ele>
        <time>2021-04-17T19:15:21Z</time>
      </trkpt>
      <trkpt lat="4.8523600" lon="-75.4004600">
        <ele>3880.8</ele>
        <time>2021-04-17T19:15:22Z</time>
      </trkpt>
      <trkpt lat="4.8523860" lon="-75.4005190">
        <ele>3880.2</ele>
        <time>2021-04-17T19:15:23Z</time>
      </trkpt>
      <trkpt lat="4.8524120" lon="-75.4005690">
        <ele>3879.7</ele>
        <time>2021-04-17T19:15:24Z</time>
      </trkpt>
      <trkpt lat="4.8524350" lon="-75.4006220">
        <ele>3879.2</ele>
        <time>2021-04-17T19:15:25Z</time>
      </trkpt>
      <trkpt lat="4.8524510" lon="-75.4006820">
        <ele>3878.6</ele>
        <time>2021-04-17T19:15:26Z</time>
      </trkpt>
      <trkpt lat="4.8524620" lon="-75.4007440">
        <ele>3878.0</ele>
        <time>2021-04-17T19:15:27Z</time>
      </trkpt>
      <trkpt lat="4.8524710" lon="-75.4008060">
        <ele>3877.5</ele>
        <time>2021-04-17T19:15:28Z</time>
      </trkpt>
      <trkpt lat="4.8524800" lon="-75.4008660">
        <ele>3876.9</ele>
        <time>2021-04-17T19:15:29Z</time>
      </trkpt>
      <trkpt lat="4.8524860" lon="-75.4009200">
        <ele>3876.4</ele>
        <time>2021-04-17T19:15:30Z</time>
      </trkpt>
      <trkpt lat="4.8524840" lon="-75.4009660">
        <ele>3876.0</ele>
        <time>2021-04-17T19:15:31Z</time>
      </trkpt>
      <trkpt lat="4.8524680" lon="-75.4010040">
        <ele>3875.6</ele>
        <time>2021-04-17T19:15:32Z</time>
      </trkpt>
      <trkpt lat="4.8524330" lon="-75.4010310">
        <ele>3875.2</ele>
        <time>2021-04-17T19:15:33Z</time>
      </trkpt>
      <trkpt lat="4.8523920" lon="-75.4010440">
        <ele>3875.1</ele>
        <time>2021-04-17T19:15:34Z</time>
      </trkpt>
      <trkpt lat="4.8523540" lon="-75.4010370">
        <ele>3875.2</ele>
        <time>2021-04-17T19:15:35Z</time>
      </trkpt>
      <trkpt lat="4.8523190" lon="-75.4010140">
        <ele>3875.2</ele>
        <time>2021-04-17T19:15:36Z</time>
      </trkpt>
      <trkpt lat="4.8522870" lon="-75.4009810">
        <ele>3875.3</ele>
        <time>2021-04-17T19:15:37Z</time>
      </trkpt>
      <trkpt lat="4.8522600" lon="-75.4009430">
        <ele>3875.4</ele>
        <time>2021-04-17T19:15:38Z</time>
      </trkpt>
      <trkpt lat="4.8522410" lon="-75.4009060">
        <ele>3875.5</ele>
        <time>2021-04-17T19:15:39Z</time>
      </trkpt>
      <trkpt lat="4.8522270" lon="-75.4008690">
        <ele>3875.6</ele>
        <time>2021-04-17T19:15:40Z</time>
      </trkpt>
      <trkpt lat="4.8522110" lon="-75.4008310">
        <ele>3875.7</ele>
        <time>2021-04-17T19:15:41Z</time>
      </trkpt>
      <trkpt lat="4.8521930" lon="-75.4007940">
        <ele>3875.8</ele>
        <time>2021-04-17T19:15:42Z</time>
      </trkpt>
      <trkpt lat="4.8521740" lon="-75.4007590">
        <ele>3875.8</ele>
        <time>2021-04-17T19:15:43Z</time>
      </trkpt>
      <trkpt lat="4.8521510" lon="-75.4007230">
        <ele>3875.9</ele>
        <time>2021-04-17T19:15:44Z</time>
      </trkpt>
      <trkpt lat="4.8521270" lon="-75.4006850">
        <ele>3876.0</ele>
        <time>2021-04-17T19:15:45Z</time>
      </trkpt>
      <trkpt lat="4.8521000" lon="-75.4006490">
        <ele>3876.1</ele>
        <time>2021-04-17T19:15:46Z</time>
      </trkpt>
      <trkpt lat="4.8520690" lon="-75.4006140">
        <ele>3876.2</ele>
        <time>2021-04-17T19:15:47Z</time>
      </trkpt>
      <trkpt lat="4.8520340" lon="-75.4005810">
        <ele>3876.3</ele>
        <time>2021-04-17T19:15:48Z</time>
      </trkpt>
      <trkpt lat="4.8519970" lon="-75.4005440">
        <ele>3876.4</ele>
        <time>2021-04-17T19:15:49Z</time>
      </trkpt>
      <trkpt lat="4.8519600" lon="-75.4005050">
        <ele>3876.5</ele>
        <time>2021-04-17T19:15:50Z</time>
      </trkpt>
      <trkpt lat="4.8519230" lon="-75.4004670">
        <ele>3876.6</ele>
        <time>2021-04-17T19:15:51Z</time>
      </trkpt>
      <trkpt lat="4.8518880" lon="-75.4004280">
        <ele>3876.7</ele>
        <time>2021-04-17T19:15:52Z</time>
      </trkpt>
      <trkpt lat="4.8518530" lon="-75.4003900">
        <ele>3876.8</ele>
        <time>2021-04-17T19:15:53Z</time>
      </trkpt>
      <trkpt lat="4.8518170" lon="-75.4003540">
        <ele>3876.9</ele>
        <time>2021-04-17T19:15:54Z</time>
      </trkpt>
      <trkpt lat="4.8517810" lon="-75.4003250">
        <ele>3877.0</ele>
        <time>2021-04-17T19:15:55Z</time>
      </trkpt>
      <trkpt lat="4.8517460" lon="-75.4002970">
        <ele>3877.1</ele>
        <time>2021-04-17T19:15:56Z</time>
      </trkpt>
      <trkpt lat="4.8517150" lon="-75.4002710">
        <ele>3877.2</ele>
        <time>2021-04-17T19:15:57Z</time>
      </trkpt>
      <trkpt lat="4.8516900" lon="-75.4002470">
        <ele>3877.3</ele>
        <time>2021-04-17T19:15:58Z</time>
      </trkpt>
      <trkpt lat="4.8516710" lon="-75.4002260">
        <ele>3877.3</ele>
        <time>2021-04-17T19:15:59Z</time>
      </trkpt>
      <trkpt lat="4.8516580" lon="-75.4002080">
        <ele>3877.4</ele>
        <time>2021-04-17T19:16:00Z</time>
      </trkpt>
      <trkpt lat="4.8516470" lon="-75.4001920">
        <ele>3877.4</ele>
        <time>2021-04-17T19:16:01Z</time>
      </trkpt>
      <trkpt lat="4.8516380" lon="-75.4001770">
        <ele>3877.5</ele>
        <time>2021-04-17T19:16:02Z</time>
      </trkpt>
      <trkpt lat="4.8516290" lon="-75.4001630">
        <ele>3877.5</ele>
        <time>2021-04-17T19:16:03Z</time>
      </trkpt>
      <trkpt lat="4.8516200" lon="-75.4001510">
        <ele>3877.5</ele>
        <time>2021-04-17T19:16:04Z</time>
      </trkpt>
      <trkpt lat="4.8516120" lon="-75.4001390">
        <ele>3877.6</ele>
        <time>2021-04-17T19:16:05Z</time>
      </trkpt>
      <trkpt lat="4.8516050" lon="-75.4001260">
        <ele>3877.6</ele>
        <time>2021-04-17T19:16:06Z</time>
      </trkpt>
      <trkpt lat="4.8515970" lon="-75.4001140">
        <ele>3877.6</ele>
        <time>2021-04-17T19:16:07Z</time>
      </trkpt>
      <trkpt lat="4.8515920" lon="-75.4001010">
        <ele>3877.6</ele>
        <time>2021-04-17T19:16:08Z</time>
      </trkpt>
      <trkpt lat="4.8515870" lon="-75.4000860">
        <ele>3877.7</ele>
        <time>2021-04-17T19:16:09Z</time>
      </trkpt>
      <trkpt lat="4.8515810" lon="-75.4000720">
        <ele>3877.7</ele>
        <time>2021-04-17T19:16:10Z</time>
      </trkpt>
      <trkpt lat="4.8515760" lon="-75.4000560">
        <ele>3877.7</ele>
        <time>2021-04-17T19:16:11Z</time>
      </trkpt>
      <trkpt lat="4.8515720" lon="-75.4000380">
        <ele>3877.8</ele>
        <time>2021-04-17T19:16:12Z</time>
      </trkpt>
      <trkpt lat="4.8515660" lon="-75.4000190">
        <ele>3877.8</ele>
        <time>2021-04-17T19:16:13Z</time>
      </trkpt>
      <trkpt lat="4.8515620" lon="-75.3999960">
        <ele>3877.9</ele>
        <time>2021-04-17T19:16:14Z</time>
      </trkpt>
      <trkpt lat="4.8515580" lon="-75.3999710">
        <ele>3877.9</ele>
        <time>2021-04-17T19:16:15Z</time>
      </trkpt>
      <trkpt lat="4.8515540" lon="-75.3999450">
        <ele>3878.0</ele>
        <time>2021-04-17T19:16:16Z</time>
      </trkpt>
      <trkpt lat="4.8515500" lon="-75.3999200">
        <ele>3878.0</ele>
        <time>2021-04-17T19:16:17Z</time>
      </trkpt>
      <trkpt lat="4.8515430" lon="-75.3998970">
        <ele>3878.1</ele>
        <time>2021-04-17T19:16:18Z</time>
      </trkpt>
      <trkpt lat="4.8515340" lon="-75.3998760">
        <ele>3878.1</ele>
        <time>2021-04-17T19:16:19Z</time>
      </trkpt>
      <trkpt lat="4.8515270" lon="-75.3998570">
        <ele>3878.2</ele>
        <time>2021-04-17T19:16:20Z</time>
      </trkpt>
      <trkpt lat="4.8515210" lon="-75.3998390">
        <ele>3878.2</ele>
        <time>2021-04-17T19:16:21Z</time>
      </trkpt>
      <trkpt lat="4.8515150" lon="-75.3998210">
        <ele>3878.2</ele>
        <time>2021-04-17T19:16:22Z</time>
      </trkpt>
      <trkpt lat="4.8515080" lon="-75.3998040">
        <ele>3878.3</ele>
        <time>2021-04-17T19:16:23Z</time>
      </trkpt>
      <trkpt lat="4.8515000" lon="-75.3997880">
        <ele>3878.3</ele>
        <time>2021-04-17T19:16:24Z</time>
      </trkpt>
      <trkpt lat="4.8514920" lon="-75.3997730">
        <ele>3878.3</ele>
        <time>2021-04-17T19:16:25Z</time>
      </trkpt>
      <trkpt lat="4.8514820" lon="-75.3997600">
        <ele>3878.4</ele>
        <time>2021-04-17T19:16:26Z</time>
      </trkpt>
      <trkpt lat="4.8514720" lon="-75.3997490">
        <ele>3878.4</ele>
        <time>2021-04-17T19:16:27Z</time>
      </trkpt>
      <trkpt lat="4.8514640" lon="-75.3997390">
        <ele>3878.4</ele>
        <time>2021-04-17T19:16:28Z</time>
      </trkpt>
      <trkpt lat="4.8514560" lon="-75.3997270">
        <ele>3878.5</ele>
        <time>2021-04-17T19:16:29Z</time>
      </trkpt>
      <trkpt lat="4.8514480" lon="-75.3997150">
        <ele>3878.5</ele>
        <time>2021-04-17T19:16:30Z</time>
      </trkpt>
      <trkpt lat="4.8514420" lon="-75.3997030">
        <ele>3878.5</ele>
        <time>2021-04-17T19:16:31Z</time>
      </trkpt>
      <trkpt lat="4.8514370" lon="-75.3996890">
        <ele>3878.5</ele>
        <time>2021-04-17T19:16:32Z</time>
      </trkpt>
      <trkpt lat="4.8514300" lon="-75.3996740">
        <ele>3878.6</ele>
        <time>2021-04-17T19:16:33Z</time>
      </trkpt>
      <trkpt lat="4.8514210" lon="-75.3996590">
        <ele>3878.6</ele>
        <time>2021-04-17T19:16:34Z</time>
      </trkpt>
      <trkpt lat="4.8514110" lon="-75.3996430">
        <ele>3878.7</ele>
        <time>2021-04-17T19:16:35Z</time>
      </trkpt>
      <trkpt lat="4.8514010" lon="-75.3996270">
        <ele>3878.7</ele>
        <time>2021-04-17T19:16:36Z</time>
      </trkpt>
      <trkpt lat="4.8513900" lon="-75.3996110">
        <ele>3878.7</ele>
        <time>2021-04-17T19:16:37Z</time>
      </trkpt>
      <trkpt lat="4.8513800" lon="-75.3995940">
        <ele>3878.8</ele>
        <time>2021-04-17T19:16:38Z</time>
      </trkpt>
      <trkpt lat="4.8513690" lon="-75.3995760">
        <ele>3878.8</ele>
        <time>2021-04-17T19:16:39Z</time>
      </trkpt>
      <trkpt lat="4.8513580" lon="-75.3995590">
        <ele>3878.9</ele>
        <time>2021-04-17T19:16:40Z</time>
      </trkpt>
      <trkpt lat="4.8513460" lon="-75.3995410">
        <ele>3878.9</ele>
        <time>2021-04-17T19:16:41Z</time>
      </trkpt>
      <trkpt lat="4.8513330" lon="-75.3995260">
        <ele>3878.9</ele>
        <time>2021-04-17T19:16:42Z</time>
      </trkpt>
      <trkpt lat="4.8513200" lon="-75.3995100">
        <ele>3879.0</ele>
        <time>2021-04-17T19:16:43Z</time>
      </trkpt>
      <trkpt lat="4.8513060" lon="-75.3994940">
        <ele>3879.0</ele>
        <time>2021-04-17T19:16:44Z</time>
      </trkpt>
      <trkpt lat="4.8512920" lon="-75.3994770">
        <ele>3879.1</ele>
        <time>2021-04-17T19:16:45Z</time>
      </trkpt>
      <trkpt lat="4.8512790" lon="-75.3994580">
        <ele>3879.1</ele>
        <time>2021-04-17T19:16:46Z</time>
      </trkpt>
      <trkpt lat="4.8512640" lon="-75.3994400">
        <ele>3879.2</ele>
        <time>2021-04-17T19:16:47Z</time>
      </trkpt>
      <trkpt lat="4.8512490" lon="-75.3994220">
        <ele>3879.2</ele>
        <time>2021-04-17T19:16:48Z</time>
      </trkpt>
      <trkpt lat="4.8512350" lon="-75.3994030">
        <ele>3879.3</ele>
        <time>2021-04-17T19:16:49Z</time>
      </trkpt>
      <trkpt lat="4.8512210" lon="-75.3993830">
        <ele>3879.3</ele>
        <time>2021-04-17T19:16:50Z</time>
      </trkpt>
      <trkpt lat="4.8512080" lon="-75.3993630">
        <ele>3879.4</ele>
        <time>2021-04-17T19:16:51Z</time>
      </trkpt>
      <trkpt lat="4.8511950" lon="-75.3993430">
        <ele>3879.4</ele>
        <time>2021-04-17T19:16:52Z</time>
      </trkpt>
      <trkpt lat="4.8511820" lon="-75.3993220">
        <ele>3879.5</ele>
        <time>2021-04-17T19:16:53Z</time>
      </trkpt>
      <trkpt lat="4.8511690" lon="-75.3993020">
        <ele>3879.5</ele>
        <time>2021-04-17T19:16:54Z</time>
      </trkpt>
      <trkpt lat="4.8511570" lon="-75.3992800">
        <ele>3879.6</ele>
        <time>2021-04-17T19:16:55Z</time>
      </trkpt>
      <trkpt lat="4.8511460" lon="-75.3992570">
        <ele>3879.6</ele>
        <time>2021-04-17T19:16:56Z</time>
      </trkpt>
      <trkpt lat="4.8511350" lon="-75.3992320">
        <ele>3879.7</ele>
        <time>2021-04-17T19:16:57Z</time>
      </trkpt>
      <trkpt lat="4.8511240" lon="-75.3992080">
        <ele>3879.7</ele>
        <time>2021-04-17T19:16:58Z</time>
      </trkpt>
      <trkpt lat="4.8511130" lon="-75.3991850">
        <ele>3879.8</ele>
        <time>2021-04-17T19:16:59Z</time>
      </trkpt>
      <trkpt lat="4.8511030" lon="-75.3991610">
        <ele>3879.8</ele>
        <time>2021-04-17T19:17:00Z</time>
      </trkpt>
      <trkpt lat="4.8510930" lon="-75.3991380">
        <ele>3879.9</ele>
        <time>2021-04-17T19:17:01Z</time>
      </trkpt>
      <trkpt lat="4.8510840" lon="-75.3991150">
        <ele>3879.9</ele>
        <time>2021-04-17T19:17:02Z</time>
      </trkpt>
      <trkpt lat="4.8510740" lon="-75.3990910">
        <ele>3880.0</ele>
        <time>2021-04-17T19:17:03Z</time>
      </trkpt>
      <trkpt lat="4.8510640" lon="-75.3990670">
        <ele>3880.0</ele>
        <time>2021-04-17T19:17:04Z</time>
      </trkpt>
      <trkpt lat="4.8510530" lon="-75.3990440">
        <ele>3880.1</ele>
        <time>2021-04-17T19:17:05Z</time>
      </trkpt>
      <trkpt lat="4.8510420" lon="-75.3990210">
        <ele>3880.1</ele>
        <time>2021-04-17T19:17:06Z</time>
      </trkpt>
      <trkpt lat="4.8510300" lon="-75.3989980">
        <ele>3880.2</ele>
        <time>2021-04-17T19:17:07Z</time>
      </trkpt>
      <trkpt lat="4.8510180" lon="-75.3989750">
        <ele>3880.2</ele>
        <time>2021-04-17T19:17:08Z</time>
      </trkpt>
      <trkpt lat="4.8510060" lon="-75.3989510">
        <ele>3880.3</ele>
        <time>2021-04-17T19:17:09Z</time>
      </trkpt>
      <trkpt lat="4.8509940" lon="-75.3989280">
        <ele>3880.3</ele>
        <time>2021-04-17T19:17:10Z</time>
      </trkpt>
      <trkpt lat="4.8509850" lon="-75.3989040">
        <ele>3880.4</ele>
        <time>2021-04-17T19:17:11Z</time>
      </trkpt>
      <trkpt lat="4.8509750" lon="-75.3988790">
        <ele>3880.4</ele>
        <time>2021-04-17T19:17:12Z</time>
      </trkpt>
      <trkpt lat="4.8509640" lon="-75.3988540">
        <ele>3880.5</ele>
        <time>2021-04-17T19:17:13Z</time>
      </trkpt>
      <trkpt lat="4.8509530" lon="-75.3988300">
        <ele>3880.6</ele>
        <time>2021-04-17T19:17:14Z</time>
      </trkpt>
      <trkpt lat="4.8509400" lon="-75.3988070">
        <ele>3880.6</ele>
        <time>2021-04-17T19:17:15Z</time>
      </trkpt>
      <trkpt lat="4.8509270" lon="-75.3987850">
        <ele>3880.7</ele>
        <time>2021-04-17T19:17:16Z</time>
      </trkpt>
      <trkpt lat="4.8509130" lon="-75.3987620">
        <ele>3880.7</ele>
        <time>2021-04-17T19:17:17Z</time>
      </trkpt>
      <trkpt lat="4.8508980" lon="-75.3987390">
        <ele>3880.8</ele>
        <time>2021-04-17T19:17:18Z</time>
      </trkpt>
      <trkpt lat="4.8508840" lon="-75.3987170">
        <ele>3880.8</ele>
        <time>2021-04-17T19:17:19Z</time>
      </trkpt>
      <trkpt lat="4.8508710" lon="-75.3986940">
        <ele>3880.9</ele>
        <time>2021-04-17T19:17:20Z</time>
      </trkpt>
      <trkpt lat="4.8508580" lon="-75.3986710">
        <ele>3880.9</ele>
        <time>2021-04-17T19:17:21Z</time>
      </trkpt>
      <trkpt lat="4.8508490" lon="-75.3986470">
        <ele>3881.0</ele>
        <time>2021-04-17T19:17:22Z</time>
      </trkpt>
      <trkpt lat="4.8508390" lon="-75.3986220">
        <ele>3881.0</ele>
        <time>2021-04-17T19:17:23Z</time>
      </trkpt>
      <trkpt lat="4.8508270" lon="-75.3985990">
        <ele>3881.1</ele>
        <time>2021-04-17T19:17:24Z</time>
      </trkpt>
      <trkpt lat="4.8508130" lon="-75.3985760">
        <ele>3881.1</ele>
        <time>2021-04-17T19:17:25Z</time>
      </trkpt>
      <trkpt lat="4.8507990" lon="-75.3985530">
        <ele>3881.2</ele>
        <time>2021-04-17T19:17:26Z</time>
      </trkpt>
      <trkpt lat="4.8507860" lon="-75.3985310">
        <ele>3881.3</ele>
        <time>2021-04-17T19:17:27Z</time>
      </trkpt>
      <trkpt lat="4.8507730" lon="-75.3985080">
        <ele>3881.3</ele>
        <time>2021-04-17T19:17:28Z</time>
      </trkpt>
      <trkpt lat="4.8507610" lon="-75.3984830">
        <ele>3881.4</ele>
        <time>2021-04-17T19:17:29Z</time>
      </trkpt>
      <trkpt lat="4.8507490" lon="-75.3984590">
        <ele>3881.4</ele>
        <time>2021-04-17T19:17:30Z</time>
      </trkpt>
      <trkpt lat="4.8507370" lon="-75.3984330">
        <ele>3881.5</ele>
        <time>2021-04-17T19:17:31Z</time>
      </trkpt>
      <trkpt lat="4.8507250" lon="-75.3984070">
        <ele>3881.5</ele>
        <time>2021-04-17T19:17:32Z</time>
      </trkpt>
      <trkpt lat="4.8507150" lon="-75.3983800">
        <ele>3881.6</ele>
        <time>2021-04-17T19:17:33Z</time>
      </trkpt>
      <trkpt lat="4.8507060" lon="-75.3983530">
        <ele>3881.7</ele>
        <time>2021-04-17T19:17:34Z</time>
      </trkpt>
      <trkpt lat="4.8506970" lon="-75.3983250">
        <ele>3881.7</ele>
        <time>2021-04-17T19:17:35Z</time>
      </trkpt>
      <trkpt lat="4.8506870" lon="-75.3982980">
        <ele>3881.8</ele>
        <time>2021-04-17T19:17:36Z</time>
      </trkpt>
      <trkpt lat="4.8506760" lon="-75.3982710">
        <ele>3881.8</ele>
        <time>2021-04-17T19:17:37Z</time>
      </trkpt>
      <trkpt lat="4.8506630" lon="-75.3982450">
        <ele>3881.9</ele>
        <time>2021-04-17T19:17:38Z</time>
      </trkpt>
      <trkpt lat="4.8506490" lon="-75.3982190">
        <ele>3881.9</ele>
        <time>2021-04-17T19:17:39Z</time>
      </trkpt>
      <trkpt lat="4.8506360" lon="-75.3981940">
        <ele>3882.0</ele>
        <time>2021-04-17T19:17:40Z</time>
      </trkpt>
      <trkpt lat="4.8506220" lon="-75.3981680">
        <ele>3882.1</ele>
        <time>2021-04-17T19:17:41Z</time>
      </trkpt>
      <trkpt lat="4.8506060" lon="-75.3981450">
        <ele>3882.1</ele>
        <time>2021-04-17T19:17:42Z</time>
      </trkpt>
      <trkpt lat="4.8505900" lon="-75.3981240">
        <ele>3882.2</ele>
        <time>2021-04-17T19:17:43Z</time>
      </trkpt>
      <trkpt lat="4.8505740" lon="-75.3981030">
        <ele>3882.2</ele>
        <time>2021-04-17T19:17:44Z</time>
      </trkpt>
      <trkpt lat="4.8505600" lon="-75.3980830">
        <ele>3882.3</ele>
        <time>2021-04-17T19:17:45Z</time>
      </trkpt>
      <trkpt lat="4.8505480" lon="-75.3980630">
        <ele>3882.3</ele>
        <time>2021-04-17T19:17:46Z</time>
      </trkpt>
      <trkpt lat="4.8505360" lon="-75.3980410">
        <ele>3882.4</ele>
        <time>2021-04-17T19:17:47Z</time>
      </trkpt>
      <trkpt lat="4.8505280" lon="-75.3980180">
        <ele>3882.4</ele>
        <time>2021-04-17T19:17:48Z</time>
      </trkpt>
      <trkpt lat="4.8505210" lon="-75.3979930">
        <ele>3882.5</ele>
        <time>2021-04-17T19:17:49Z</time>
      </trkpt>
      <trkpt lat="4.8505150" lon="-75.3979670">
        <ele>3882.5</ele>
        <time>2021-04-17T19:17:50Z</time>
      </trkpt>
      <trkpt lat="4.8505090" lon="-75.3979400">
        <ele>3882.6</ele>
        <time>2021-04-17T19:17:51Z</time>
      </trkpt>
      <trkpt lat="4.8505010" lon="-75.3979140">
        <ele>3882.6</ele>
        <time>2021-04-17T19:17:52Z</time>
      </trkpt>
      <trkpt lat="4.8504940" lon="-75.3978880">
        <ele>3882.7</ele>
        <time>2021-04-17T19:17:53Z</time>
      </trkpt>
      <trkpt lat="4.8504850" lon="-75.3978610">
        <ele>3882.8</ele>
        <time>2021-04-17T19:17:54Z</time>
      </trkpt>
      <trkpt lat="4.8504750" lon="-75.3978340">
        <ele>3882.8</ele>
        <time>2021-04-17T19:17:55Z</time>
      </trkpt>
      <trkpt lat="4.8504620" lon="-75.3978090">
        <ele>3882.9</ele>
        <time>2021-04-17T19:17:56Z</time>
      </trkpt>
      <trkpt lat="4.8504470" lon="-75.3977860">
        <ele>3882.9</ele>
        <time>2021-04-17T19:17:57Z</time>
      </trkpt>
      <trkpt lat="4.8504320" lon="-75.3977610">
        <ele>3883.0</ele>
        <time>2021-04-17T19:17:58Z</time>
      </trkpt>
      <trkpt lat="4.8504160" lon="-75.3977380">
        <ele>3883.0</ele>
        <time>2021-04-17T19:17:59Z</time>
      </trkpt>
      <trkpt lat="4.8504000" lon="-75.3977130">
        <ele>3883.1</ele>
        <time>2021-04-17T19:18:00Z</time>
      </trkpt>
      <trkpt lat="4.8503840" lon="-75.3976890">
        <ele>3883.2</ele>
        <time>2021-04-17T19:18:01Z</time>
      </trkpt>
      <trkpt lat="4.8503680" lon="-75.3976640">
        <ele>3883.2</ele>
        <time>2021-04-17T19:18:02Z</time>
      </trkpt>
      <trkpt lat="4.8503510" lon="-75.3976400">
        <ele>3883.3</ele>
        <time>2021-04-17T19:18:03Z</time>
      </trkpt>
      <trkpt lat="4.8503350" lon="-75.3976160">
        <ele>3883.3</ele>
        <time>2021-04-17T19:18:04Z</time>
      </trkpt>
      <trkpt lat="4.8503170" lon="-75.3975930">
        <ele>3883.4</ele>
        <time>2021-04-17T19:18:05Z</time>
      </trkpt>
      <trkpt lat="4.8503000" lon="-75.3975700">
        <ele>3883.5</ele>
        <time>2021-04-17T19:18:06Z</time>
      </trkpt>
      <trkpt lat="4.8502830" lon="-75.3975450">
        <ele>3883.5</ele>
        <time>2021-04-17T19:18:07Z</time>
      </trkpt>
      <trkpt lat="4.8502640" lon="-75.3975240">
        <ele>3883.6</ele>
        <time>2021-04-17T19:18:08Z</time>
      </trkpt>
      <trkpt lat="4.8502460" lon="-75.3975050">
        <ele>3883.6</ele>
        <time>2021-04-17T19:18:09Z</time>
      </trkpt>
      <trkpt lat="4.8502280" lon="-75.3974870">
        <ele>3883.7</ele>
        <time>2021-04-17T19:18:10Z</time>
      </trkpt>
      <trkpt lat="4.8502110" lon="-75.3974710">
        <ele>3883.7</ele>
        <time>2021-04-17T19:18:11Z</time>
      </trkpt>
      <trkpt lat="4.8501960" lon="-75.3974530">
        <ele>3883.8</ele>
        <time>2021-04-17T19:18:12Z</time>
      </trkpt>
      <trkpt lat="4.8501820" lon="-75.3974340">
        <ele>3883.8</ele>
        <time>2021-04-17T19:18:13Z</time>
      </trkpt>
      <trkpt lat="4.8501700" lon="-75.3974140">
        <ele>3883.9</ele>
        <time>2021-04-17T19:18:14Z</time>
      </trkpt>
      <trkpt lat="4.8501580" lon="-75.3973940">
        <ele>3883.9</ele>
        <time>2021-04-17T19:18:15Z</time>
      </trkpt>
      <trkpt lat="4.8501460" lon="-75.3973750">
        <ele>3884.0</ele>
        <time>2021-04-17T19:18:16Z</time>
      </trkpt>
      <trkpt lat="4.8501330" lon="-75.3973550">
        <ele>3884.0</ele>
        <time>2021-04-17T19:18:17Z</time>
      </trkpt>
      <trkpt lat="4.8501200" lon="-75.3973350">
        <ele>3884.1</ele>
        <time>2021-04-17T19:18:18Z</time>
      </trkpt>
      <trkpt lat="4.8501070" lon="-75.3973150">
        <ele>3884.1</ele>
        <time>2021-04-17T19:18:19Z</time>
      </trkpt>
      <trkpt lat="4.8500920" lon="-75.3972930">
        <ele>3884.2</ele>
        <time>2021-04-17T19:18:20Z</time>
      </trkpt>
      <trkpt lat="4.8500760" lon="-75.3972720">
        <ele>3884.2</ele>
        <time>2021-04-17T19:18:21Z</time>
      </trkpt>
      <trkpt lat="4.8500570" lon="-75.3972530">
        <ele>3884.3</ele>
        <time>2021-04-17T19:18:22Z</time>
      </trkpt>
      <trkpt lat="4.8500360" lon="-75.3972340">
        <ele>3884.3</ele>
        <time>2021-04-17T19:18:23Z</time>
      </trkpt>
      <trkpt lat="4.8500160" lon="-75.3972140">
        <ele>3884.4</ele>
        <time>2021-04-17T19:18:24Z</time>
      </trkpt>
      <trkpt lat="4.8499990" lon="-75.3971910">
        <ele>3884.4</ele>
        <time>2021-04-17T19:18:25Z</time>
      </trkpt>
      <trkpt lat="4.8499810" lon="-75.3971710">
        <ele>3884.5</ele>
        <time>2021-04-17T19:18:26Z</time>
      </trkpt>
      <trkpt lat="4.8499640" lon="-75.3971510">
        <ele>3884.6</ele>
        <time>2021-04-17T19:18:27Z</time>
      </trkpt>
      <trkpt lat="4.8499480" lon="-75.3971300">
        <ele>3884.6</ele>
        <time>2021-04-17T19:18:28Z</time>
      </trkpt>
      <trkpt lat="4.8499320" lon="-75.3971080">
        <ele>3884.7</ele>
        <time>2021-04-17T19:18:29Z</time>
      </trkpt>
      <trkpt lat="4.8499160" lon="-75.3970860">
        <ele>3884.7</ele>
        <time>2021-04-17T19:18:30Z</time>
      </trkpt>
      <trkpt lat="4.8498990" lon="-75.3970630">
        <ele>3884.8</ele>
        <time>2021-04-17T19:18:31Z</time>
      </trkpt>
      <trkpt lat="4.8498830" lon="-75.3970380">
        <ele>3884.8</ele>
        <time>2021-04-17T19:18:32Z</time>
      </trkpt>
      <trkpt lat="4.8498660" lon="-75.3970140">
        <ele>3884.9</ele>
        <time>2021-04-17T19:18:33Z</time>
      </trkpt>
      <trkpt lat="4.8498480" lon="-75.3969900">
        <ele>3885.0</ele>
        <time>2021-04-17T19:18:34Z</time>
      </trkpt>
      <trkpt lat="4.8498280" lon="-75.3969660">
        <ele>3885.0</ele>
        <time>2021-04-17T19:18:35Z</time>
      </trkpt>
      <trkpt lat="4.8498020" lon="-75.3969440">
        <ele>3885.1</ele>
        <time>2021-04-17T19:18:36Z</time>
      </trkpt>
      <trkpt lat="4.8497750" lon="-75.3969270">
        <ele>3885.2</ele>
        <time>2021-04-17T19:18:37Z</time>
      </trkpt>
      <trkpt lat="4.8497460" lon="-75.3969150">
        <ele>3885.2</ele>
        <time>2021-04-17T19:18:38Z</time>
      </trkpt>
      <trkpt lat="4.8497160" lon="-75.3969070">
        <ele>3885.3</ele>
        <time>2021-04-17T19:18:39Z</time>
      </trkpt>
      <trkpt lat="4.8496830" lon="-75.3969030">
        <ele>3885.4</ele>
        <time>2021-04-17T19:18:40Z</time>
      </trkpt>
      <trkpt lat="4.8496480" lon="-75.3969000">
        <ele>3885.4</ele>
        <time>2021-04-17T19:18:41Z</time>
      </trkpt>
      <trkpt lat="4.8496120" lon="-75.3968950">
        <ele>3885.5</ele>
        <time>2021-04-17T19:18:42Z</time>
      </trkpt>
      <trkpt lat="4.8495750" lon="-75.3968890">
        <ele>3885.6</ele>
        <time>2021-04-17T19:18:43Z</time>
      </trkpt>
      <trkpt lat="4.8495380" lon="-75.3968850">
        <ele>3885.6</ele>
        <time>2021-04-17T19:18:44Z</time>
      </trkpt>
      <trkpt lat="4.8494990" lon="-75.3968810">
        <ele>3885.7</ele>
        <time>2021-04-17T19:18:45Z</time>
      </trkpt>
      <trkpt lat="4.8494620" lon="-75.3968730">
        <ele>3885.8</ele>
        <time>2021-04-17T19:18:46Z</time>
      </trkpt>
      <trkpt lat="4.8494260" lon="-75.3968650">
        <ele>3885.9</ele>
        <time>2021-04-17T19:18:47Z</time>
      </trkpt>
      <trkpt lat="4.8493910" lon="-75.3968570">
        <ele>3886.0</ele>
        <time>2021-04-17T19:18:48Z</time>
      </trkpt>
      <trkpt lat="4.8493570" lon="-75.3968490">
        <ele>3886.0</ele>
        <time>2021-04-17T19:18:49Z</time>
      </trkpt>
      <trkpt lat="4.8493230" lon="-75.3968380">
        <ele>3886.1</ele>
        <time>2021-04-17T19:18:50Z</time>
      </trkpt>
      <trkpt lat="4.8492900" lon="-75.3968270">
        <ele>3886.2</ele>
        <time>2021-04-17T19:18:51Z</time>
      </trkpt>
      <trkpt lat="4.8492560" lon="-75.3968190">
        <ele>3886.2</ele>
        <time>2021-04-17T19:18:52Z</time>
      </trkpt>
      <trkpt lat="4.8492220" lon="-75.3968140">
        <ele>3886.3</ele>
        <time>2021-04-17T19:18:53Z</time>
      </trkpt>
      <trkpt lat="4.8491890" lon="-75.3968090">
        <ele>3886.4</ele>
        <time>2021-04-17T19:18:54Z</time>
      </trkpt>
      <trkpt lat="4.8491580" lon="-75.3968020">
        <ele>3886.4</ele>
        <time>2021-04-17T19:18:55Z</time>
      </trkpt>
      <trkpt lat="4.8491280" lon="-75.3967920">
        <ele>3886.5</ele>
        <time>2021-04-17T19:18:56Z</time>
      </trkpt>
      <trkpt lat="4.8490990" lon="-75.3967810">
        <ele>3886.6</ele>
        <time>2021-04-17T19:18:57Z</time>
      </trkpt>
      <trkpt lat="4.8490680" lon="-75.3967730">
        <ele>3886.6</ele>
        <time>2021-04-17T19:18:58Z</time>
      </trkpt>
      <trkpt lat="4.8490360" lon="-75.3967650">
        <ele>3886.7</ele>
        <time>2021-04-17T19:18:59Z</time>
      </trkpt>
      <trkpt lat="4.8490030" lon="-75.3967600">
        <ele>3886.8</ele>
        <time>2021-04-17T19:19:00Z</time>
      </trkpt>
      <trkpt lat="4.8489690" lon="-75.3967570">
        <ele>3886.8</ele>
        <time>2021-04-17T19:19:01Z</time>
      </trkpt>
      <trkpt lat="4.8489360" lon="-75.3967520">
        <ele>3886.9</ele>
        <time>2021-04-17T19:19:02Z</time>
      </trkpt>
      <trkpt lat="4.8489020" lon="-75.3967440">
        <ele>3887.0</ele>
        <time>2021-04-17T19:19:03Z</time>
      </trkpt>
      <trkpt lat="4.8488690" lon="-75.3967370">
        <ele>3887.0</ele>
        <time>2021-04-17T19:19:04Z</time>
      </trkpt>
      <trkpt lat="4.8488350" lon="-75.3967320">
        <ele>3887.1</ele>
        <time>2021-04-17T19:19:05Z</time>
      </trkpt>
      <trkpt lat="4.8488000" lon="-75.3967290">
        <ele>3887.2</ele>
        <time>2021-04-17T19:19:06Z</time>
      </trkpt>
      <trkpt lat="4.8487640" lon="-75.3967270">
        <ele>3887.3</ele>
        <time>2021-04-17T19:19:07Z</time>
      </trkpt>
      <trkpt lat="4.8487290" lon="-75.3967220">
        <ele>3887.3</ele>
        <time>2021-04-17T19:19:08Z</time>
      </trkpt>
      <trkpt lat="4.8486950" lon="-75.3967140">
        <ele>3887.4</ele>
        <time>2021-04-17T19:19:09Z</time>
      </trkpt>
      <trkpt lat="4.8486620" lon="-75.3967060">
        <ele>3887.5</ele>
        <time>2021-04-17T19:19:10Z</time>
      </trkpt>
      <trkpt lat="4.8486300" lon="-75.3966990">
        <ele>3887.5</ele>
        <time>2021-04-17T19:19:11Z</time>
      </trkpt>
      <trkpt lat="4.8486000" lon="-75.3966910">
        <ele>3887.6</ele>
        <time>2021-04-17T19:19:12Z</time>
      </trkpt>
      <trkpt lat="4.8485700" lon="-75.3966800">
        <ele>3887.7</ele>
        <time>2021-04-17T19:19:13Z</time>
      </trkpt>
      <trkpt lat="4.8485390" lon="-75.3966690">
        <ele>3887.7</ele>
        <time>2021-04-17T19:19:14Z</time>
      </trkpt>
      <trkpt lat="4.8485090" lon="-75.3966580">
        <ele>3887.8</ele>
        <time>2021-04-17T19:19:15Z</time>
      </trkpt>
      <trkpt lat="4.8484770" lon="-75.3966470">
        <ele>3887.9</ele>
        <time>2021-04-17T19:19:16Z</time>
      </trkpt>
      <trkpt lat="4.8484420" lon="-75.3966420">
        <ele>3887.9</ele>
        <time>2021-04-17T19:19:17Z</time>
      </trkpt>
      <trkpt lat="4.8484060" lon="-75.3966440">
        <ele>3888.0</ele>
        <time>2021-04-17T19:19:18Z</time>
      </trkpt>
      <trkpt lat="4.8483720" lon="-75.3966510">
        <ele>3888.1</ele>
        <time>2021-04-17T19:19:19Z</time>
      </trkpt>
      <trkpt lat="4.8483410" lon="-75.3966620">
        <ele>3888.2</ele>
        <time>2021-04-17T19:19:20Z</time>
      </trkpt>
      <trkpt lat="4.8483120" lon="-75.3966730">
        <ele>3888.2</ele>
        <time>2021-04-17T19:19:21Z</time>
      </trkpt>
      <trkpt lat="4.8482830" lon="-75.3966840">
        <ele>3888.3</ele>
        <time>2021-04-17T19:19:22Z</time>
      </trkpt>
      <trkpt lat="4.8482530" lon="-75.3966920">
        <ele>3888.3</ele>
        <time>2021-04-17T19:19:23Z</time>
      </trkpt>
      <trkpt lat="4.8482220" lon="-75.3966970">
        <ele>3888.4</ele>
        <time>2021-04-17T19:19:24Z</time>
      </trkpt>
      <trkpt lat="4.8481900" lon="-75.3967000">
        <ele>3888.5</ele>
        <time>2021-04-17T19:19:25Z</time>
      </trkpt>
      <trkpt lat="4.8481560" lon="-75.3967010">
        <ele>3888.5</ele>
        <time>2021-04-17T19:19:26Z</time>
      </trkpt>
      <trkpt lat="4.8481220" lon="-75.3967020">
        <ele>3888.6</ele>
        <time>2021-04-17T19:19:27Z</time>
      </trkpt>
      <trkpt lat="4.8480880" lon="-75.3967050">
        <ele>3888.7</ele>
        <time>2021-04-17T19:19:28Z</time>
      </trkpt>
      <trkpt lat="4.8480530" lon="-75.3967120">
        <ele>3888.8</ele>
        <time>2021-04-17T19:19:29Z</time>
      </trkpt>
      <trkpt lat="4.8480200" lon="-75.3967190">
        <ele>3888.8</ele>
        <time>2021-04-17T19:19:30Z</time>
      </trkpt>
      <trkpt lat="4.8479880" lon="-75.3967310">
        <ele>3888.9</ele>
        <time>2021-04-17T19:19:31Z</time>
      </trkpt>
      <trkpt lat="4.8479610" lon="-75.3967490">
        <ele>3889.0</ele>
        <time>2021-04-17T19:19:32Z</time>
      </trkpt>
      <trkpt lat="4.8479350" lon="-75.3967690">
        <ele>3889.0</ele>
        <time>2021-04-17T19:19:33Z</time>
      </trkpt>
      <trkpt lat="4.8479120" lon="-75.3967890">
        <ele>3889.1</ele>
        <time>2021-04-17T19:19:34Z</time>
      </trkpt>
      <trkpt lat="4.8478960" lon="-75.3968130">
        <ele>3889.1</ele>
        <time>2021-04-17T19:19:35Z</time>
      </trkpt>
      <trkpt lat="4.8478870" lon="-75.3968400">
        <ele>3889.2</ele>
        <time>2021-04-17T19:19:36Z</time>
      </trkpt>
      <trkpt lat="4.8478820" lon="-75.3968660">
        <ele>3889.3</ele>
        <time>2021-04-17T19:19:37Z</time>
      </trkpt>
      <trkpt lat="4.8478750" lon="-75.3968910">
        <ele>3889.3</ele>
        <time>2021-04-17T19:19:38Z</time>
      </trkpt>
      <trkpt lat="4.8478680" lon="-75.3969170">
        <ele>3889.4</ele>
        <time>2021-04-17T19:19:39Z</time>
      </trkpt>
      <trkpt lat="4.8478600" lon="-75.3969440">
        <ele>3889.4</ele>
        <time>2021-04-17T19:19:40Z</time>
      </trkpt>
      <trkpt lat="4.8478520" lon="-75.3969710">
        <ele>3889.5</ele>
        <time>2021-04-17T19:19:41Z</time>
      </trkpt>
      <trkpt lat="4.8478430" lon="-75.3969990">
        <ele>3889.5</ele>
        <time>2021-04-17T19:19:42Z</time>
      </trkpt>
      <trkpt lat="4.8478330" lon="-75.3970280">
        <ele>3889.6</ele>
        <time>2021-04-17T19:19:43Z</time>
      </trkpt>
      <trkpt lat="4.8478220" lon="-75.3970570">
        <ele>3889.7</ele>
        <time>2021-04-17T19:19:44Z</time>
      </trkpt>
      <trkpt lat="4.8478120" lon="-75.3970870">
        <ele>3889.7</ele>
        <time>2021-04-17T19:19:45Z</time>
      </trkpt>
      <trkpt lat="4.8478030" lon="-75.3971160">
        <ele>3889.8</ele>
        <time>2021-04-17T19:19:46Z</time>
      </trkpt>
      <trkpt lat="4.8477940" lon="-75.3971440">
        <ele>3889.8</ele>
        <time>2021-04-17T19:19:47Z</time>
      </trkpt>
      <trkpt lat="4.8477850" lon="-75.3971720">
        <ele>3889.9</ele>
        <time>2021-04-17T19:19:48Z</time>
      </trkpt>
      <trkpt lat="4.8477760" lon="-75.3971980">
        <ele>3890.0</ele>
        <time>2021-04-17T19:19:49Z</time>
      </trkpt>
      <trkpt lat="4.8477660" lon="-75.3972220">
        <ele>3890.0</ele>
        <time>2021-04-17T19:19:50Z</time>
      </trkpt>
      <trkpt lat="4.8477550" lon="-75.3972460">
        <ele>3890.1</ele>
        <time>2021-04-17T19:19:51Z</time>
      </trkpt>
      <trkpt lat="4.8477460" lon="-75.3972690">
        <ele>3890.1</ele>
        <time>2021-04-17T19:19:52Z</time>
      </trkpt>
      <trkpt lat="4.8477370" lon="-75.3972910">
        <ele>3890.2</ele>
        <time>2021-04-17T19:19:53Z</time>
      </trkpt>
      <trkpt lat="4.8477280" lon="-75.3973120">
        <ele>3890.2</ele>
        <time>2021-04-17T19:19:54Z</time>
      </trkpt>
      <trkpt lat="4.8477190" lon="-75.3973320">
        <ele>3890.3</ele>
        <time>2021-04-17T19:19:55Z</time>
      </trkpt>
      <trkpt lat="4.8477080" lon="-75.3973500">
        <ele>3890.3</ele>
        <time>2021-04-17T19:19:56Z</time>
      </trkpt>
      <trkpt lat="4.8476980" lon="-75.3973670">
        <ele>3890.3</ele>
        <time>2021-04-17T19:19:57Z</time>
      </trkpt>
      <trkpt lat="4.8476860" lon="-75.3973850">
        <ele>3890.4</ele>
        <time>2021-04-17T19:19:58Z</time>
      </trkpt>
      <trkpt lat="4.8476720" lon="-75.3974030">
        <ele>3890.4</ele>
        <time>2021-04-17T19:19:59Z</time>
      </trkpt>
      <trkpt lat="4.8476570" lon="-75.3974210">
        <ele>3890.5</ele>
        <time>2021-04-17T19:20:00Z</time>
      </trkpt>
      <trkpt lat="4.8476420" lon="-75.3974380">
        <ele>3890.5</ele>
        <time>2021-04-17T19:20:01Z</time>
      </trkpt>
      <trkpt lat="4.8476240" lon="-75.3974530">
        <ele>3890.6</ele>
        <time>2021-04-17T19:20:02Z</time>
      </trkpt>
      <trkpt lat="4.8476050" lon="-75.3974670">
        <ele>3890.6</ele>
        <time>2021-04-17T19:20:03Z</time>
      </trkpt>
      <trkpt lat="4.8475850" lon="-75.3974800">
        <ele>3890.7</ele>
        <time>2021-04-17T19:20:04Z</time>
      </trkpt>
      <trkpt lat="4.8475650" lon="-75.3974940">
        <ele>3890.7</ele>
        <time>2021-04-17T19:20:05Z</time>
      </trkpt>
      <trkpt lat="4.8475460" lon="-75.3975080">
        <ele>3890.8</ele>
        <time>2021-04-17T19:20:06Z</time>
      </trkpt>
      <trkpt lat="4.8475270" lon="-75.3975220">
        <ele>3890.8</ele>
        <time>2021-04-17T19:20:07Z</time>
      </trkpt>
      <trkpt lat="4.8475070" lon="-75.3975360">
        <ele>3890.9</ele>
        <time>2021-04-17T19:20:08Z</time>
      </trkpt>
      <trkpt lat="4.8474880" lon="-75.3975500">
        <ele>3890.9</ele>
        <time>2021-04-17T19:20:09Z</time>
      </trkpt>
      <trkpt lat="4.8474710" lon="-75.3975650">
        <ele>3891.0</ele>
        <time>2021-04-17T19:20:10Z</time>
      </trkpt>
      <trkpt lat="4.8474520" lon="-75.3975760">
        <ele>3891.0</ele>
        <time>2021-04-17T19:20:11Z</time>
      </trkpt>
      <trkpt lat="4.8474340" lon="-75.3975860">
        <ele>3891.0</ele>
        <time>2021-04-17T19:20:12Z</time>
      </trkpt>
      <trkpt lat="4.8474160" lon="-75.3975950">
        <ele>3891.1</ele>
        <time>2021-04-17T19:20:13Z</time>
      </trkpt>
      <trkpt lat="4.8474000" lon="-75.3976050">
        <ele>3891.1</ele>
        <time>2021-04-17T19:20:14Z</time>
      </trkpt>
      <trkpt lat="4.8473820" lon="-75.3976140">
        <ele>3891.2</ele>
        <time>2021-04-17T19:20:15Z</time>
      </trkpt>
      <trkpt lat="4.8473660" lon="-75.3976230">
        <ele>3891.2</ele>
        <time>2021-04-17T19:20:16Z</time>
      </trkpt>
      <trkpt lat="4.8473500" lon="-75.3976320">
        <ele>3891.2</ele>
        <time>2021-04-17T19:20:17Z</time>
      </trkpt>
      <trkpt lat="4.8473320" lon="-75.3976410">
        <ele>3891.3</ele>
        <time>2021-04-17T19:20:18Z</time>
      </trkpt>
      <trkpt lat="4.8473120" lon="-75.3976490">
        <ele>3891.3</ele>
        <time>2021-04-17T19:20:19Z</time>
      </trkpt>
      <trkpt lat="4.8472910" lon="-75.3976510">
        <ele>3891.4</ele>
        <time>2021-04-17T19:20:20Z</time>
      </trkpt>
      <trkpt lat="4.8472680" lon="-75.3976490">
        <ele>3891.4</ele>
        <time>2021-04-17T19:20:21Z</time>
      </trkpt>
      <trkpt lat="4.8472440" lon="-75.3976470">
        <ele>3891.5</ele>
        <time>2021-04-17T19:20:22Z</time>
      </trkpt>
      <trkpt lat="4.8472210" lon="-75.3976480">
        <ele>3891.5</ele>
        <time>2021-04-17T19:20:23Z</time>
      </trkpt>
      <trkpt lat="4.8471980" lon="-75.3976500">
        <ele>3891.6</ele>
        <time>2021-04-17T19:20:24Z</time>
      </trkpt>
      <trkpt lat="4.8471760" lon="-75.3976530">
        <ele>3891.6</ele>
        <time>2021-04-17T19:20:25Z</time>
      </trkpt>
      <trkpt lat="4.8471550" lon="-75.3976540">
        <ele>3891.6</ele>
        <time>2021-04-17T19:20:26Z</time>
      </trkpt>
      <trkpt lat="4.8471360" lon="-75.3976560">
        <ele>3891.7</ele>
        <time>2021-04-17T19:20:27Z</time>
      </trkpt>
      <trkpt lat="4.8471180" lon="-75.3976610">
        <ele>3891.7</ele>
        <time>2021-04-17T19:20:28Z</time>
      </trkpt>
      <trkpt lat="4.8471020" lon="-75.3976660">
        <ele>3891.8</ele>
        <time>2021-04-17T19:20:29Z</time>
      </trkpt>
      <trkpt lat="4.8470860" lon="-75.3976700">
        <ele>3891.8</ele>
        <time>2021-04-17T19:20:30Z</time>
      </trkpt>
      <trkpt lat="4.8470700" lon="-75.3976730">
        <ele>3891.8</ele>
        <time>2021-04-17T19:20:31Z</time>
      </trkpt>
      <trkpt lat="4.8470550" lon="-75.3976790">
        <ele>3891.9</ele>
        <time>2021-04-17T19:20:32Z</time>
      </trkpt>
      <trkpt lat="4.8470400" lon="-75.3976850">
        <ele>3891.9</ele>
        <time>2021-04-17T19:20:33Z</time>
      </trkpt>
      <trkpt lat="4.8470250" lon="-75.3976940">
        <ele>3891.9</ele>
        <time>2021-04-17T19:20:34Z</time>
      </trkpt>
      <trkpt lat="4.8470100" lon="-75.3977040">
        <ele>3892.0</ele>
        <time>2021-04-17T19:20:35Z</time>
      </trkpt>
      <trkpt lat="4.8469960" lon="-75.3977120">
        <ele>3892.0</ele>
        <time>2021-04-17T19:20:36Z</time>
      </trkpt>
      <trkpt lat="4.8469800" lon="-75.3977190">
        <ele>3892.0</ele>
        <time>2021-04-17T19:20:37Z</time>
      </trkpt>
      <trkpt lat="4.8469630" lon="-75.3977280">
        <ele>3891.9</ele>
        <time>2021-04-17T19:20:38Z</time>
      </trkpt>
      <trkpt lat="4.8469460" lon="-75.3977390">
        <ele>3891.9</ele>
        <time>2021-04-17T19:20:39Z</time>
      </trkpt>
      <trkpt lat="4.8469300" lon="-75.3977500">
        <ele>3891.8</ele>
        <time>2021-04-17T19:20:40Z</time>
      </trkpt>
      <trkpt lat="4.8469150" lon="-75.3977620">
        <ele>3891.8</ele>
        <time>2021-04-17T19:20:41Z</time>
      </trkpt>
      <trkpt lat="4.8468990" lon="-75.3977730">
        <ele>3891.8</ele>
        <time>2021-04-17T19:20:42Z</time>
      </trkpt>
      <trkpt lat="4.8468830" lon="-75.3977840">
        <ele>3891.8</ele>
        <time>2021-04-17T19:20:43Z</time>
      </trkpt>
      <trkpt lat="4.8468670" lon="-75.3977960">
        <ele>3891.9</ele>
        <time>2021-04-17T19:20:44Z</time>
      </trkpt>
      <trkpt lat="4.8468510" lon="-75.3978080">
        <ele>3891.9</ele>
        <time>2021-04-17T19:20:45Z</time>
      </trkpt>
      <trkpt lat="4.8468370" lon="-75.3978200">
        <ele>3892.0</ele>
        <time>2021-04-17T19:20:46Z</time>
      </trkpt>
      <trkpt lat="4.8468220" lon="-75.3978330">
        <ele>3892.1</ele>
        <time>2021-04-17T19:20:47Z</time>
      </trkpt>
      <trkpt lat="4.8468090" lon="-75.3978460">
        <ele>3892.1</ele>
        <time>2021-04-17T19:20:48Z</time>
      </trkpt>
      <trkpt lat="4.8467940" lon="-75.3978590">
        <ele>3892.2</ele>
        <time>2021-04-17T19:20:49Z</time>
      </trkpt>
      <trkpt lat="4.8467800" lon="-75.3978710">
        <ele>3892.3</ele>
        <time>2021-04-17T19:20:50Z</time>
      </trkpt>
      <trkpt lat="4.8467660" lon="-75.3978840">
        <ele>3892.4</ele>
        <time>2021-04-17T19:20:51Z</time>
      </trkpt>
      <trkpt lat="4.8467530" lon="-75.3978970">
        <ele>3892.5</ele>
        <time>2021-04-17T19:20:52Z</time>
      </trkpt>
      <trkpt lat="4.8467390" lon="-75.3979090">
        <ele>3892.6</ele>
        <time>2021-04-17T19:20:53Z</time>
      </trkpt>
      <trkpt lat="4.8467230" lon="-75.3979210">
        <ele>3892.7</ele>
        <time>2021-04-17T19:20:54Z</time>
      </trkpt>
      <trkpt lat="4.8467060" lon="-75.3979330">
        <ele>3892.8</ele>
        <time>2021-04-17T19:20:55Z</time>
      </trkpt>
      <trkpt lat="4.8466900" lon="-75.3979440">
        <ele>3892.9</ele>
        <time>2021-04-17T19:20:56Z</time>
      </trkpt>
      <trkpt lat="4.8466740" lon="-75.3979540">
        <ele>3893.0</ele>
        <time>2021-04-17T19:20:57Z</time>
      </trkpt>
      <trkpt lat="4.8466570" lon="-75.3979650">
        <ele>3893.2</ele>
        <time>2021-04-17T19:20:58Z</time>
      </trkpt>
      <trkpt lat="4.8466400" lon="-75.3979770">
        <ele>3893.3</ele>
        <time>2021-04-17T19:20:59Z</time>
      </trkpt>
      <trkpt lat="4.8466250" lon="-75.3979890">
        <ele>3893.4</ele>
        <time>2021-04-17T19:21:00Z</time>
      </trkpt>
      <trkpt lat="4.8466120" lon="-75.3980030">
        <ele>3893.5</ele>
        <time>2021-04-17T19:21:01Z</time>
      </trkpt>
      <trkpt lat="4.8465990" lon="-75.3980170">
        <ele>3893.6</ele>
        <time>2021-04-17T19:21:02Z</time>
      </trkpt>
      <trkpt lat="4.8465850" lon="-75.3980310">
        <ele>3893.7</ele>
        <time>2021-04-17T19:21:03Z</time>
      </trkpt>
      <trkpt lat="4.8465700" lon="-75.3980450">
        <ele>3893.8</ele>
        <time>2021-04-17T19:21:04Z</time>
      </trkpt>
      <trkpt lat="4.8465550" lon="-75.3980590">
        <ele>3893.8</ele>
        <time>2021-04-17T19:21:05Z</time>
      </trkpt>
      <trkpt lat="4.8465390" lon="-75.3980710">
        <ele>3893.9</ele>
        <time>2021-04-17T19:21:06Z</time>
      </trkpt>
      <trkpt lat="4.8465230" lon="-75.3980820">
        <ele>3894.0</ele>
        <time>2021-04-17T19:21:07Z</time>
      </trkpt>
      <trkpt lat="4.8465060" lon="-75.3980910">
        <ele>3894.1</ele>
        <time>2021-04-17T19:21:08Z</time>
      </trkpt>
      <trkpt lat="4.8464900" lon="-75.3980960">
        <ele>3894.2</ele>
        <time>2021-04-17T19:21:09Z</time>
      </trkpt>
      <trkpt lat="4.8464720" lon="-75.3981020">
        <ele>3894.3</ele>
        <time>2021-04-17T19:21:10Z</time>
      </trkpt>
      <trkpt lat="4.8464520" lon="-75.3981060">
        <ele>3894.4</ele>
        <time>2021-04-17T19:21:11Z</time>
      </trkpt>
      <trkpt lat="4.8464340" lon="-75.3981120">
        <ele>3894.5</ele>
        <time>2021-04-17T19:21:12Z</time>
      </trkpt>
      <trkpt lat="4.8464170" lon="-75.3981180">
        <ele>3894.7</ele>
        <time>2021-04-17T19:21:13Z</time>
      </trkpt>
      <trkpt lat="4.8463990" lon="-75.3981230">
        <ele>3894.8</ele>
        <time>2021-04-17T19:21:14Z</time>
      </trkpt>
      <trkpt lat="4.8463810" lon="-75.3981300">
        <ele>3895.0</ele>
        <time>2021-04-17T19:21:15Z</time>
      </trkpt>
      <trkpt lat="4.8463630" lon="-75.3981370">
        <ele>3895.2</ele>
        <time>2021-04-17T19:21:16Z</time>
      </trkpt>
      <trkpt lat="4.8463430" lon="-75.3981460">
        <ele>3895.4</ele>
        <time>2021-04-17T19:21:17Z</time>
      </trkpt>
      <trkpt lat="4.8463240" lon="-75.3981560">
        <ele>3895.7</ele>
        <time>2021-04-17T19:21:18Z</time>
      </trkpt>
      <trkpt lat="4.8463050" lon="-75.3981670">
        <ele>3896.0</ele>
        <time>2021-04-17T19:21:19Z</time>
      </trkpt>
      <trkpt lat="4.8462860" lon="-75.3981780">
        <ele>3896.2</ele>
        <time>2021-04-17T19:21:20Z</time>
      </trkpt>
      <trkpt lat="4.8462690" lon="-75.3981900">
        <ele>3896.5</ele>
        <time>2021-04-17T19:21:21Z</time>
      </trkpt>
      <trkpt lat="4.8462530" lon="-75.3982020">
        <ele>3896.8</ele>
        <time>2021-04-17T19:21:22Z</time>
      </trkpt>
      <trkpt lat="4.8462360" lon="-75.3982110">
        <ele>3897.1</ele>
        <time>2021-04-17T19:21:23Z</time>
      </trkpt>
      <trkpt lat="4.8462160" lon="-75.3982180">
        <ele>3897.4</ele>
        <time>2021-04-17T19:21:24Z</time>
      </trkpt>
      <trkpt lat="4.8461960" lon="-75.3982260">
        <ele>3897.7</ele>
        <time>2021-04-17T19:21:25Z</time>
      </trkpt>
      <trkpt lat="4.8461760" lon="-75.3982320">
        <ele>3898.0</ele>
        <time>2021-04-17T19:21:26Z</time>
      </trkpt>
      <trkpt lat="4.8461560" lon="-75.3982360">
        <ele>3898.2</ele>
        <time>2021-04-17T19:21:27Z</time>
      </trkpt>
      <trkpt lat="4.8461350" lon="-75.3982390">
        <ele>3898.5</ele>
        <time>2021-04-17T19:21:28Z</time>
      </trkpt>
      <trkpt lat="4.8461150" lon="-75.3982420">
        <ele>3898.8</ele>
        <time>2021-04-17T19:21:29Z</time>
      </trkpt>
      <trkpt lat="4.8460940" lon="-75.3982450">
        <ele>3899.1</ele>
        <time>2021-04-17T19:21:30Z</time>
      </trkpt>
      <trkpt lat="4.8460730" lon="-75.3982460">
        <ele>3899.5</ele>
        <time>2021-04-17T19:21:31Z</time>
      </trkpt>
      <trkpt lat="4.8460530" lon="-75.3982430">
        <ele>3899.7</ele>
        <time>2021-04-17T19:21:32Z</time>
      </trkpt>
      <trkpt lat="4.8460320" lon="-75.3982390">
        <ele>3900.1</ele>
        <time>2021-04-17T19:21:33Z</time>
      </trkpt>
      <trkpt lat="4.8460110" lon="-75.3982340">
        <ele>3900.4</ele>
        <time>2021-04-17T19:21:34Z</time>
      </trkpt>
      <trkpt lat="4.8459900" lon="-75.3982280">
        <ele>3900.7</ele>
        <time>2021-04-17T19:21:35Z</time>
      </trkpt>
      <trkpt lat="4.8459680" lon="-75.3982240">
        <ele>3901.0</ele>
        <time>2021-04-17T19:21:36Z</time>
      </trkpt>
      <trkpt lat="4.8459460" lon="-75.3982210">
        <ele>3901.0</ele>
        <time>2021-04-17T19:21:37Z</time>
      </trkpt>
      <trkpt lat="4.8459230" lon="-75.3982190">
        <ele>3901.0</ele>
        <time>2021-04-17T19:21:38Z</time>
      </trkpt>
      <trkpt lat="4.8459000" lon="-75.3982190">
        <ele>3901.0</ele>
        <time>2021-04-17T19:21:39Z</time>
      </trkpt>
      <trkpt lat="4.8458790" lon="-75.3982220">
        <ele>3901.0</ele>
        <time>2021-04-17T19:21:40Z</time>
      </trkpt>
      <trkpt lat="4.8458600" lon="-75.3982280">
        <ele>3901.0</ele>
        <time>2021-04-17T19:21:41Z</time>
      </trkpt>
      <trkpt lat="4.8458410" lon="-75.3982380">
        <ele>3901.0</ele>
        <time>2021-04-17T19:21:42Z</time>
      </trkpt>
      <trkpt lat="4.8458270" lon="-75.3982510">
        <ele>3901.0</ele>
        <time>2021-04-17T19:21:43Z</time>
      </trkpt>
      <trkpt lat="4.8458140" lon="-75.3982650">
        <ele>3901.1</ele>
        <time>2021-04-17T19:21:44Z</time>
      </trkpt>
      <trkpt lat="4.8458050" lon="-75.3982810">
        <ele>3901.1</ele>
        <time>2021-04-17T19:21:45Z</time>
      </trkpt>
      <trkpt lat="4.8457990" lon="-75.3983000">
        <ele>3901.1</ele>
        <time>2021-04-17T19:21:46Z</time>
      </trkpt>
      <trkpt lat="4.8457960" lon="-75.3983130">
        <ele>3901.1</ele>
        <time>2021-04-17T19:21:47Z</time>
      </trkpt>
      <trkpt lat="4.8457930" lon="-75.3983260">
        <ele>3901.1</ele>
        <time>2021-04-17T19:21:48Z</time>
      </trkpt>
      <trkpt lat="4.8457890" lon="-75.3983440">
        <ele>3901.1</ele>
        <time>2021-04-17T19:21:49Z</time>
      </trkpt>
      <trkpt lat="4.8457860" lon="-75.3983620">
        <ele>3901.1</ele>
        <time>2021-04-17T19:21:50Z</time>
      </trkpt>
      <trkpt lat="4.8457820" lon="-75.3983810">
        <ele>3901.1</ele>
        <time>2021-04-17T19:21:51Z</time>
      </trkpt>
      <trkpt lat="4.8457790" lon="-75.3984000">
        <ele>3901.1</ele>
        <time>2021-04-17T19:21:52Z</time>
      </trkpt>
      <trkpt lat="4.8457760" lon="-75.3984170">
        <ele>3901.1</ele>
        <time>2021-04-17T19:21:53Z</time>
      </trkpt>
      <trkpt lat="4.8457730" lon="-75.3984340">
        <ele>3901.1</ele>
        <time>2021-04-17T19:21:54Z</time>
      </trkpt>
      <trkpt lat="4.8457700" lon="-75.3984530">
        <ele>3901.1</ele>
        <time>2021-04-17T19:21:55Z</time>
      </trkpt>
      <trkpt lat="4.8457690" lon="-75.3984720">
        <ele>3901.1</ele>
        <time>2021-04-17T19:21:56Z</time>
      </trkpt>
      <trkpt lat="4.8457690" lon="-75.3984930">
        <ele>3901.1</ele>
        <time>2021-04-17T19:21:57Z</time>
      </trkpt>
      <trkpt lat="4.8457670" lon="-75.3985110">
        <ele>3901.1</ele>
        <time>2021-04-17T19:21:58Z</time>
      </trkpt>
      <trkpt lat="4.8457620" lon="-75.3985280">
        <ele>3901.1</ele>
        <time>2021-04-17T19:21:59Z</time>
      </trkpt>
      <trkpt lat="4.8457570" lon="-75.3985450">
        <ele>3901.1</ele>
        <time>2021-04-17T19:22:00Z</time>
      </trkpt>
      <trkpt lat="4.8457510" lon="-75.3985610">
        <ele>3901.2</ele>
        <time>2021-04-17T19:22:01Z</time>
      </trkpt>
      <trkpt lat="4.8457440" lon="-75.3985760">
        <ele>3901.2</ele>
        <time>2021-04-17T19:22:02Z</time>
      </trkpt>
      <trkpt lat="4.8457380" lon="-75.3985920">
        <ele>3901.2</ele>
        <time>2021-04-17T19:22:03Z</time>
      </trkpt>
      <trkpt lat="4.8457310" lon="-75.3986060">
        <ele>3901.2</ele>
        <time>2021-04-17T19:22:04Z</time>
      </trkpt>
      <trkpt lat="4.8457220" lon="-75.3986200">
        <ele>3901.2</ele>
        <time>2021-04-17T19:22:05Z</time>
      </trkpt>
      <trkpt lat="4.8457110" lon="-75.3986340">
        <ele>3901.2</ele>
        <time>2021-04-17T19:22:06Z</time>
      </trkpt>
      <trkpt lat="4.8456990" lon="-75.3986480">
        <ele>3901.2</ele>
        <time>2021-04-17T19:22:07Z</time>
      </trkpt>
      <trkpt lat="4.8456840" lon="-75.3986620">
        <ele>3901.2</ele>
        <time>2021-04-17T19:22:08Z</time>
      </trkpt>
      <trkpt lat="4.8456680" lon="-75.3986760">
        <ele>3901.2</ele>
        <time>2021-04-17T19:22:09Z</time>
      </trkpt>
      <trkpt lat="4.8456480" lon="-75.3986890">
        <ele>3901.2</ele>
        <time>2021-04-17T19:22:10Z</time>
      </trkpt>
      <trkpt lat="4.8456290" lon="-75.3987020">
        <ele>3901.2</ele>
        <time>2021-04-17T19:22:11Z</time>
      </trkpt>
      <trkpt lat="4.8456100" lon="-75.3987140">
        <ele>3901.2</ele>
        <time>2021-04-17T19:22:12Z</time>
      </trkpt>
      <trkpt lat="4.8455920" lon="-75.3987270">
        <ele>3901.2</ele>
        <time>2021-04-17T19:22:13Z</time>
      </trkpt>
      <trkpt lat="4.8455740" lon="-75.3987400">
        <ele>3901.2</ele>
        <time>2021-04-17T19:22:14Z</time>
      </trkpt>
      <trkpt lat="4.8455540" lon="-75.3987510">
        <ele>3901.2</ele>
        <time>2021-04-17T19:22:15Z</time>
      </trkpt>
      <trkpt lat="4.8455330" lon="-75.3987610">
        <ele>3901.3</ele>
        <time>2021-04-17T19:22:16Z</time>
      </trkpt>
      <trkpt lat="4.8455120" lon="-75.3987690">
        <ele>3901.3</ele>
        <time>2021-04-17T19:22:17Z</time>
      </trkpt>
      <trkpt lat="4.8454900" lon="-75.3987770">
        <ele>3901.3</ele>
        <time>2021-04-17T19:22:18Z</time>
      </trkpt>
      <trkpt lat="4.8454690" lon="-75.3987890">
        <ele>3901.3</ele>
        <time>2021-04-17T19:22:19Z</time>
      </trkpt>
      <trkpt lat="4.8454490" lon="-75.3988040">
        <ele>3901.3</ele>
        <time>2021-04-17T19:22:20Z</time>
      </trkpt>
      <trkpt lat="4.8454300" lon="-75.3988210">
        <ele>3901.3</ele>
        <time>2021-04-17T19:22:21Z</time>
      </trkpt>
      <trkpt lat="4.8454110" lon="-75.3988390">
        <ele>3901.3</ele>
        <time>2021-04-17T19:22:22Z</time>
      </trkpt>
      <trkpt lat="4.8453920" lon="-75.3988570">
        <ele>3901.3</ele>
        <time>2021-04-17T19:22:23Z</time>
      </trkpt>
      <trkpt lat="4.8453720" lon="-75.3988750">
        <ele>3901.3</ele>
        <time>2021-04-17T19:22:24Z</time>
      </trkpt>
      <trkpt lat="4.8453540" lon="-75.3988950">
        <ele>3901.3</ele>
        <time>2021-04-17T19:22:25Z</time>
      </trkpt>
      <trkpt lat="4.8453390" lon="-75.3989160">
        <ele>3901.3</ele>
        <time>2021-04-17T19:22:26Z</time>
      </trkpt>
      <trkpt lat="4.8453280" lon="-75.3989380">
        <ele>3901.3</ele>
        <time>2021-04-17T19:22:27Z</time>
      </trkpt>
      <trkpt lat="4.8453200" lon="-75.3989610">
        <ele>3901.4</ele>
        <time>2021-04-17T19:22:28Z</time>
      </trkpt>
      <trkpt lat="4.8453170" lon="-75.3989840">
        <ele>3901.4</ele>
        <time>2021-04-17T19:22:29Z</time>
      </trkpt>
      <trkpt lat="4.8453140" lon="-75.3990050">
        <ele>3901.4</ele>
        <time>2021-04-17T19:22:30Z</time>
      </trkpt>
      <trkpt lat="4.8453100" lon="-75.3990220">
        <ele>3901.4</ele>
        <time>2021-04-17T19:22:31Z</time>
      </trkpt>
      <trkpt lat="4.8453030" lon="-75.3990400">
        <ele>3901.4</ele>
        <time>2021-04-17T19:22:32Z</time>
      </trkpt>
      <trkpt lat="4.8452980" lon="-75.3990590">
        <ele>3901.4</ele>
        <time>2021-04-17T19:22:33Z</time>
      </trkpt>
      <trkpt lat="4.8452930" lon="-75.3990780">
        <ele>3901.4</ele>
        <time>2021-04-17T19:22:34Z</time>
      </trkpt>
      <trkpt lat="4.8452880" lon="-75.3990990">
        <ele>3901.4</ele>
        <time>2021-04-17T19:22:35Z</time>
      </trkpt>
      <trkpt lat="4.8452830" lon="-75.3991210">
        <ele>3901.4</ele>
        <time>2021-04-17T19:22:36Z</time>
      </trkpt>
      <trkpt lat="4.8452810" lon="-75.3991450">
        <ele>3901.4</ele>
        <time>2021-04-17T19:22:37Z</time>
      </trkpt>
      <trkpt lat="4.8452840" lon="-75.3991690">
        <ele>3901.4</ele>
        <time>2021-04-17T19:22:38Z</time>
      </trkpt>
      <trkpt lat="4.8452860" lon="-75.3991920">
        <ele>3901.4</ele>
        <time>2021-04-17T19:22:39Z</time>
      </trkpt>
      <trkpt lat="4.8452860" lon="-75.3992170">
        <ele>3901.4</ele>
        <time>2021-04-17T19:22:40Z</time>
      </trkpt>
      <trkpt lat="4.8452860" lon="-75.3992410">
        <ele>3901.4</ele>
        <time>2021-04-17T19:22:41Z</time>
      </trkpt>
      <trkpt lat="4.8452850" lon="-75.3992650">
        <ele>3901.5</ele>
        <time>2021-04-17T19:22:42Z</time>
      </trkpt>
      <trkpt lat="4.8452850" lon="-75.3992890">
        <ele>3901.5</ele>
        <time>2021-04-17T19:22:43Z</time>
      </trkpt>
      <trkpt lat="4.8452850" lon="-75.3993110">
        <ele>3901.5</ele>
        <time>2021-04-17T19:22:44Z</time>
      </trkpt>
      <trkpt lat="4.8452850" lon="-75.3993340">
        <ele>3901.5</ele>
        <time>2021-04-17T19:22:45Z</time>
      </trkpt>
      <trkpt lat="4.8452860" lon="-75.3993560">
        <ele>3901.5</ele>
        <time>2021-04-17T19:22:46Z</time>
      </trkpt>
      <trkpt lat="4.8452850" lon="-75.3993780">
        <ele>3901.5</ele>
        <time>2021-04-17T19:22:47Z</time>
      </trkpt>
      <trkpt lat="4.8452850" lon="-75.3994010">
        <ele>3901.5</ele>
        <time>2021-04-17T19:22:48Z</time>
      </trkpt>
      <trkpt lat="4.8452840" lon="-75.3994230">
        <ele>3901.5</ele>
        <time>2021-04-17T19:22:49Z</time>
      </trkpt>
      <trkpt lat="4.8452840" lon="-75.3994450">
        <ele>3901.5</ele>
        <time>2021-04-17T19:22:50Z</time>
      </trkpt>
      <trkpt lat="4.8452840" lon="-75.3994660">
        <ele>3901.5</ele>
        <time>2021-04-17T19:22:51Z</time>
      </trkpt>
      <trkpt lat="4.8452830" lon="-75.3994880">
        <ele>3901.5</ele>
        <time>2021-04-17T19:22:52Z</time>
      </trkpt>
      <trkpt lat="4.8452820" lon="-75.3995100">
        <ele>3901.5</ele>
        <time>2021-04-17T19:22:53Z</time>
      </trkpt>
      <trkpt lat="4.8452800" lon="-75.3995330">
        <ele>3901.5</ele>
        <time>2021-04-17T19:22:54Z</time>
      </trkpt>
      <trkpt lat="4.8452770" lon="-75.3995560">
        <ele>3901.5</ele>
        <time>2021-04-17T19:22:55Z</time>
      </trkpt>
      <trkpt lat="4.8452740" lon="-75.3995790">
        <ele>3901.6</ele>
        <time>2021-04-17T19:22:56Z</time>
      </trkpt>
      <trkpt lat="4.8452690" lon="-75.3996020">
        <ele>3901.6</ele>
        <time>2021-04-17T19:22:57Z</time>
      </trkpt>
      <trkpt lat="4.8452650" lon="-75.3996240">
        <ele>3901.6</ele>
        <time>2021-04-17T19:22:58Z</time>
      </trkpt>
      <trkpt lat="4.8452610" lon="-75.3996450">
        <ele>3901.6</ele>
        <time>2021-04-17T19:22:59Z</time>
      </trkpt>
      <trkpt lat="4.8452560" lon="-75.3996660">
        <ele>3901.6</ele>
        <time>2021-04-17T19:23:00Z</time>
      </trkpt>
      <trkpt lat="4.8452490" lon="-75.3996880">
        <ele>3901.6</ele>
        <time>2021-04-17T19:23:01Z</time>
      </trkpt>
      <trkpt lat="4.8452410" lon="-75.3997100">
        <ele>3901.6</ele>
        <time>2021-04-17T19:23:02Z</time>
      </trkpt>
      <trkpt lat="4.8452320" lon="-75.3997330">
        <ele>3901.6</ele>
        <time>2021-04-17T19:23:03Z</time>
      </trkpt>
      <trkpt lat="4.8452210" lon="-75.3997540">
        <ele>3901.6</ele>
        <time>2021-04-17T19:23:04Z</time>
      </trkpt>
      <trkpt lat="4.8452090" lon="-75.3997750">
        <ele>3901.6</ele>
        <time>2021-04-17T19:23:05Z</time>
      </trkpt>
      <trkpt lat="4.8451950" lon="-75.3997940">
        <ele>3901.6</ele>
        <time>2021-04-17T19:23:06Z</time>
      </trkpt>
      <trkpt lat="4.8451780" lon="-75.3998110">
        <ele>3901.6</ele>
        <time>2021-04-17T19:23:07Z</time>
      </trkpt>
      <trkpt lat="4.8451590" lon="-75.3998260">
        <ele>3901.6</ele>
        <time>2021-04-17T19:23:08Z</time>
      </trkpt>
      <trkpt lat="4.8451380" lon="-75.3998410">
        <ele>3901.7</ele>
        <time>2021-04-17T19:23:09Z</time>
      </trkpt>
      <trkpt lat="4.8451140" lon="-75.3998560">
        <ele>3901.7</ele>
        <time>2021-04-17T19:23:10Z</time>
      </trkpt>
      <trkpt lat="4.8450870" lon="-75.3998690">
        <ele>3901.7</ele>
        <time>2021-04-17T19:23:11Z</time>
      </trkpt>
      <trkpt lat="4.8450540" lon="-75.3998800">
        <ele>3901.7</ele>
        <time>2021-04-17T19:23:12Z</time>
      </trkpt>
      <trkpt lat="4.8450160" lon="-75.3998860">
        <ele>3901.7</ele>
        <time>2021-04-17T19:23:13Z</time>
      </trkpt>
      <trkpt lat="4.8449730" lon="-75.3998900">
        <ele>3901.7</ele>
        <time>2021-04-17T19:23:14Z</time>
      </trkpt>
      <trkpt lat="4.8449250" lon="-75.3998960">
        <ele>3901.7</ele>
        <time>2021-04-17T19:23:15Z</time>
      </trkpt>
      <trkpt lat="4.8448750" lon="-75.3999020">
        <ele>3901.7</ele>
        <time>2021-04-17T19:23:16Z</time>
      </trkpt>
      <trkpt lat="4.8448230" lon="-75.3999090">
        <ele>3901.8</ele>
        <time>2021-04-17T19:23:17Z</time>
      </trkpt>
      <trkpt lat="4.8447700" lon="-75.3999140">
        <ele>3901.8</ele>
        <time>2021-04-17T19:23:18Z</time>
      </trkpt>
      <trkpt lat="4.8447160" lon="-75.3999200">
        <ele>3901.8</ele>
        <time>2021-04-17T19:23:19Z</time>
      </trkpt>
      <trkpt lat="4.8446620" lon="-75.3999240">
        <ele>3901.8</ele>
        <time>2021-04-17T19:23:20Z</time>
      </trkpt>
      <trkpt lat="4.8446080" lon="-75.3999270">
        <ele>3901.8</ele>
        <time>2021-04-17T19:23:21Z</time>
      </trkpt>
      <trkpt lat="4.8445560" lon="-75.3999300">
        <ele>3901.8</ele>
        <time>2021-04-17T19:23:22Z</time>
      </trkpt>
      <trkpt lat="4.8445080" lon="-75.3999350">
        <ele>3901.9</ele>
        <time>2021-04-17T19:23:23Z</time>
      </trkpt>
      <trkpt lat="4.8444630" lon="-75.3999410">
        <ele>3901.9</ele>
        <time>2021-04-17T19:23:24Z</time>
      </trkpt>
      <trkpt lat="4.8444200" lon="-75.3999470">
        <ele>3901.9</ele>
        <time>2021-04-17T19:23:25Z</time>
      </trkpt>
      <trkpt lat="4.8443790" lon="-75.3999530">
        <ele>3901.9</ele>
        <time>2021-04-17T19:23:26Z</time>
      </trkpt>
      <trkpt lat="4.8443380" lon="-75.3999560">
        <ele>3901.9</ele>
        <time>2021-04-17T19:23:27Z</time>
      </trkpt>
      <trkpt lat="4.8442990" lon="-75.3999580">
        <ele>3901.9</ele>
        <time>2021-04-17T19:23:28Z</time>
      </trkpt>
      <trkpt lat="4.8442610" lon="-75.3999590">
        <ele>3901.9</ele>
        <time>2021-04-17T19:23:29Z</time>
      </trkpt>
      <trkpt lat="4.8442240" lon="-75.3999600">
        <ele>3902.0</ele>
        <time>2021-04-17T19:23:30Z</time>
      </trkpt>
      <trkpt lat="4.8441870" lon="-75.3999630">
        <ele>3902.0</ele>
        <time>2021-04-17T19:23:31Z</time>
      </trkpt>
      <trkpt lat="4.8441500" lon="-75.3999640">
        <ele>3902.0</ele>
        <time>2021-04-17T19:23:32Z</time>
      </trkpt>
      <trkpt lat="4.8441120" lon="-75.3999630">
        <ele>3902.0</ele>
        <time>2021-04-17T19:23:33Z</time>
      </trkpt>
      <trkpt lat="4.8440740" lon="-75.3999620">
        <ele>3902.0</ele>
        <time>2021-04-17T19:23:34Z</time>
      </trkpt>
      <trkpt lat="4.8440350" lon="-75.3999610">
        <ele>3902.0</ele>
        <time>2021-04-17T19:23:35Z</time>
      </trkpt>
      <trkpt lat="4.8439950" lon="-75.3999620">
        <ele>3902.0</ele>
        <time>2021-04-17T19:23:36Z</time>
      </trkpt>
      <trkpt lat="4.8439570" lon="-75.3999670">
        <ele>3902.0</ele>
        <time>2021-04-17T19:23:37Z</time>
      </trkpt>
      <trkpt lat="4.8439190" lon="-75.3999700">
        <ele>3902.1</ele>
        <time>2021-04-17T19:23:38Z</time>
      </trkpt>
      <trkpt lat="4.8438800" lon="-75.3999700">
        <ele>3902.1</ele>
        <time>2021-04-17T19:23:39Z</time>
      </trkpt>
      <trkpt lat="4.8438390" lon="-75.3999680">
        <ele>3902.1</ele>
        <time>2021-04-17T19:23:40Z</time>
      </trkpt>
      <trkpt lat="4.8437970" lon="-75.3999660">
        <ele>3902.1</ele>
        <time>2021-04-17T19:23:41Z</time>
      </trkpt>
      <trkpt lat="4.8437550" lon="-75.3999660">
        <ele>3902.1</ele>
        <time>2021-04-17T19:23:42Z</time>
      </trkpt>
      <trkpt lat="4.8437140" lon="-75.3999660">
        <ele>3902.1</ele>
        <time>2021-04-17T19:23:43Z</time>
      </trkpt>
      <trkpt lat="4.8436740" lon="-75.3999650">
        <ele>3902.1</ele>
        <time>2021-04-17T19:23:44Z</time>
      </trkpt>
      <trkpt lat="4.8436320" lon="-75.3999640">
        <ele>3902.2</ele>
        <time>2021-04-17T19:23:45Z</time>
      </trkpt>
      <trkpt lat="4.8435920" lon="-75.3999680">
        <ele>3902.2</ele>
        <time>2021-04-17T19:23:46Z</time>
      </trkpt>
      <trkpt lat="4.8435560" lon="-75.3999700">
        <ele>3902.2</ele>
        <time>2021-04-17T19:23:47Z</time>
      </trkpt>
      <trkpt lat="4.8435220" lon="-75.3999690">
        <ele>3902.2</ele>
        <time>2021-04-17T19:23:48Z</time>
      </trkpt>
      <trkpt lat="4.8434900" lon="-75.3999640">
        <ele>3902.2</ele>
        <time>2021-04-17T19:23:49Z</time>
      </trkpt>
      <trkpt lat="4.8434610" lon="-75.3999550">
        <ele>3902.2</ele>
        <time>2021-04-17T19:23:50Z</time>
      </trkpt>
      <trkpt lat="4.8434340" lon="-75.3999420">
        <ele>3902.2</ele>
        <time>2021-04-17T19:23:51Z</time>
      </trkpt>
      <trkpt lat="4.8434090" lon="-75.3999240">
        <ele>3902.2</ele>
        <time>2021-04-17T19:23:52Z</time>
      </trkpt>
      <trkpt lat="4.8433860" lon="-75.3999030">
        <ele>3902.2</ele>
        <time>2021-04-17T19:23:53Z</time>
      </trkpt>
      <trkpt lat="4.8433620" lon="-75.3998820">
        <ele>3902.3</ele>
        <time>2021-04-17T19:23:54Z</time>
      </trkpt>
      <trkpt lat="4.8433370" lon="-75.3998610">
        <ele>3902.3</ele>
        <time>2021-04-17T19:23:55Z</time>
      </trkpt>
      <trkpt lat="4.8433130" lon="-75.3998400">
        <ele>3902.3</ele>
        <time>2021-04-17T19:23:56Z</time>
      </trkpt>
      <trkpt lat="4.8432860" lon="-75.3998180">
        <ele>3902.3</ele>
        <time>2021-04-17T19:23:57Z</time>
      </trkpt>
      <trkpt lat="4.8432600" lon="-75.3997960">
        <ele>3902.3</ele>
        <time>2021-04-17T19:23:58Z</time>
      </trkpt>
      <trkpt lat="4.8432340" lon="-75.3997730">
        <ele>3902.3</ele>
        <time>2021-04-17T19:23:59Z</time>
      </trkpt>
      <trkpt lat="4.8432100" lon="-75.3997460">
        <ele>3902.3</ele>
        <time>2021-04-17T19:24:00Z</time>
      </trkpt>
      <trkpt lat="4.8431860" lon="-75.3997190">
        <ele>3902.3</ele>
        <time>2021-04-17T19:24:01Z</time>
      </trkpt>
      <trkpt lat="4.8431630" lon="-75.3996920">
        <ele>3902.3</ele>
        <time>2021-04-17T19:24:02Z</time>
      </trkpt>
      <trkpt lat="4.8431420" lon="-75.3996640">
        <ele>3902.4</ele>
        <time>2021-04-17T19:24:03Z</time>
      </trkpt>
      <trkpt lat="4.8431170" lon="-75.3996390">
        <ele>3902.4</ele>
        <time>2021-04-17T19:24:04Z</time>
      </trkpt>
      <trkpt lat="4.8430900" lon="-75.3996170">
        <ele>3902.4</ele>
        <time>2021-04-17T19:24:05Z</time>
      </trkpt>
      <trkpt lat="4.8430630" lon="-75.3995960">
        <ele>3902.4</ele>
        <time>2021-04-17T19:24:06Z</time>
      </trkpt>
      <trkpt lat="4.8430380" lon="-75.3995720">
        <ele>3902.4</ele>
        <time>2021-04-17T19:24:07Z</time>
      </trkpt>
      <trkpt lat="4.8430140" lon="-75.3995460">
        <ele>3902.4</ele>
        <time>2021-04-17T19:24:08Z</time>
      </trkpt>
      <trkpt lat="4.8429930" lon="-75.3995220">
        <ele>3902.4</ele>
        <time>2021-04-17T19:24:09Z</time>
      </trkpt>
      <trkpt lat="4.8429720" lon="-75.3994970">
        <ele>3902.4</ele>
        <time>2021-04-17T19:24:10Z</time>
      </trkpt>
      <trkpt lat="4.8429530" lon="-75.3994730">
        <ele>3902.4</ele>
        <time>2021-04-17T19:24:11Z</time>
      </trkpt>
      <trkpt lat="4.8429360" lon="-75.3994480">
        <ele>3902.5</ele>
        <time>2021-04-17T19:24:12Z</time>
      </trkpt>
      <trkpt lat="4.8429200" lon="-75.3994220">
        <ele>3902.5</ele>
        <time>2021-04-17T19:24:13Z</time>
      </trkpt>
      <trkpt lat="4.8429050" lon="-75.3993980">
        <ele>3902.5</ele>
        <time>2021-04-17T19:24:14Z</time>
      </trkpt>
      <trkpt lat="4.8428910" lon="-75.3993710">
        <ele>3902.5</ele>
        <time>2021-04-17T19:24:15Z</time>
      </trkpt>
      <trkpt lat="4.8428740" lon="-75.3993440">
        <ele>3902.5</ele>
        <time>2021-04-17T19:24:16Z</time>
      </trkpt>
      <trkpt lat="4.8428550" lon="-75.3993200">
        <ele>3902.5</ele>
        <time>2021-04-17T19:24:17Z</time>
      </trkpt>
      <trkpt lat="4.8428320" lon="-75.3992980">
        <ele>3902.5</ele>
        <time>2021-04-17T19:24:18Z</time>
      </trkpt>
      <trkpt lat="4.8428110" lon="-75.3992770">
        <ele>3902.5</ele>
        <time>2021-04-17T19:24:19Z</time>
      </trkpt>
      <trkpt lat="4.8427900" lon="-75.3992580">
        <ele>3902.5</ele>
        <time>2021-04-17T19:24:20Z</time>
      </trkpt>
      <trkpt lat="4.8427690" lon="-75.3992360">
        <ele>3902.5</ele>
        <time>2021-04-17T19:24:21Z</time>
      </trkpt>
      <trkpt lat="4.8427500" lon="-75.3992130">
        <ele>3902.6</ele>
        <time>2021-04-17T19:24:22Z</time>
      </trkpt>
      <trkpt lat="4.8427300" lon="-75.3991890">
        <ele>3902.6</ele>
        <time>2021-04-17T19:24:23Z</time>
      </trkpt>
      <trkpt lat="4.8427090" lon="-75.3991660">
        <ele>3902.6</ele>
        <time>2021-04-17T19:24:24Z</time>
      </trkpt>
      <trkpt lat="4.8426860" lon="-75.3991450">
        <ele>3902.6</ele>
        <time>2021-04-17T19:24:25Z</time>
      </trkpt>
      <trkpt lat="4.8426650" lon="-75.3991240">
        <ele>3902.6</ele>
        <time>2021-04-17T19:24:26Z</time>
      </trkpt>
      <trkpt lat="4.8426460" lon="-75.3991030">
        <ele>3902.6</ele>
        <time>2021-04-17T19:24:27Z</time>
      </trkpt>
      <trkpt lat="4.8426270" lon="-75.3990840">
        <ele>3902.6</ele>
        <time>2021-04-17T19:24:28Z</time>
      </trkpt>
      <trkpt lat="4.8426080" lon="-75.3990660">
        <ele>3902.6</ele>
        <time>2021-04-17T19:24:29Z</time>
      </trkpt>
      <trkpt lat="4.8425910" lon="-75.3990500">
        <ele>3902.6</ele>
        <time>2021-04-17T19:24:30Z</time>
      </trkpt>
      <trkpt lat="4.8425730" lon="-75.3990330">
        <ele>3902.6</ele>
        <time>2021-04-17T19:24:31Z</time>
      </trkpt>
      <trkpt lat="4.8425540" lon="-75.3990170">
        <ele>3902.6</ele>
        <time>2021-04-17T19:24:32Z</time>
      </trkpt>
      <trkpt lat="4.8425330" lon="-75.3990020">
        <ele>3902.7</ele>
        <time>2021-04-17T19:24:33Z</time>
      </trkpt>
      <trkpt lat="4.8425110" lon="-75.3989880">
        <ele>3902.7</ele>
        <time>2021-04-17T19:24:34Z</time>
      </trkpt>
      <trkpt lat="4.8424860" lon="-75.3989770">
        <ele>3902.7</ele>
        <time>2021-04-17T19:24:35Z</time>
      </trkpt>
      <trkpt lat="4.8424590" lon="-75.3989680">
        <ele>3902.7</ele>
        <time>2021-04-17T19:24:36Z</time>
      </trkpt>
      <trkpt lat="4.8424310" lon="-75.3989620">
        <ele>3902.7</ele>
        <time>2021-04-17T19:24:37Z</time>
      </trkpt>
      <trkpt lat="4.8424030" lon="-75.3989570">
        <ele>3902.7</ele>
        <time>2021-04-17T19:24:38Z</time>
      </trkpt>
      <trkpt lat="4.8423740" lon="-75.3989530">
        <ele>3902.7</ele>
        <time>2021-04-17T19:24:39Z</time>
      </trkpt>
      <trkpt lat="4.8423440" lon="-75.3989500">
        <ele>3902.7</ele>
        <time>2021-04-17T19:24:40Z</time>
      </trkpt>
      <trkpt lat="4.8423150" lon="-75.3989480">
        <ele>3902.7</ele>
        <time>2021-04-17T19:24:41Z</time>
      </trkpt>
      <trkpt lat="4.8422870" lon="-75.3989480">
        <ele>3902.7</ele>
        <time>2021-04-17T19:24:42Z</time>
      </trkpt>
      <trkpt lat="4.8422580" lon="-75.3989520">
        <ele>3902.7</ele>
        <time>2021-04-17T19:24:43Z</time>
      </trkpt>
      <trkpt lat="4.8422300" lon="-75.3989550">
        <ele>3902.8</ele>
        <time>2021-04-17T19:24:44Z</time>
      </trkpt>
      <trkpt lat="4.8422030" lon="-75.3989570">
        <ele>3902.8</ele>
        <time>2021-04-17T19:24:45Z</time>
      </trkpt>
      <trkpt lat="4.8421740" lon="-75.3989610">
        <ele>3902.8</ele>
        <time>2021-04-17T19:24:46Z</time>
      </trkpt>
      <trkpt lat="4.8421450" lon="-75.3989670">
        <ele>3902.8</ele>
        <time>2021-04-17T19:24:47Z</time>
      </trkpt>
      <trkpt lat="4.8421180" lon="-75.3989740">
        <ele>3902.8</ele>
        <time>2021-04-17T19:24:48Z</time>
      </trkpt>
      <trkpt lat="4.8420910" lon="-75.3989790">
        <ele>3902.8</ele>
        <time>2021-04-17T19:24:49Z</time>
      </trkpt>
      <trkpt lat="4.8420630" lon="-75.3989850">
        <ele>3902.8</ele>
        <time>2021-04-17T19:24:50Z</time>
      </trkpt>
      <trkpt lat="4.8420350" lon="-75.3989900">
        <ele>3902.8</ele>
        <time>2021-04-17T19:24:51Z</time>
      </trkpt>
      <trkpt lat="4.8420070" lon="-75.3989940">
        <ele>3902.8</ele>
        <time>2021-04-17T19:24:52Z</time>
      </trkpt>
      <trkpt lat="4.8419790" lon="-75.3989980">
        <ele>3902.8</ele>
        <time>2021-04-17T19:24:53Z</time>
      </trkpt>
      <trkpt lat="4.8419530" lon="-75.3990000">
        <ele>3902.8</ele>
        <time>2021-04-17T19:24:54Z</time>
      </trkpt>
      <trkpt lat="4.8419270" lon="-75.3990020">
        <ele>3902.9</ele>
        <time>2021-04-17T19:24:55Z</time>
      </trkpt>
      <trkpt lat="4.8419030" lon="-75.3990040">
        <ele>3902.9</ele>
        <time>2021-04-17T19:24:56Z</time>
      </trkpt>
      <trkpt lat="4.8418800" lon="-75.3990030">
        <ele>3902.9</ele>
        <time>2021-04-17T19:24:57Z</time>
      </trkpt>
      <trkpt lat="4.8418560" lon="-75.3990020">
        <ele>3902.9</ele>
        <time>2021-04-17T19:24:58Z</time>
      </trkpt>
      <trkpt lat="4.8418310" lon="-75.3990030">
        <ele>3902.9</ele>
        <time>2021-04-17T19:24:59Z</time>
      </trkpt>
      <trkpt lat="4.8418050" lon="-75.3990100">
        <ele>3902.9</ele>
        <time>2021-04-17T19:25:00Z</time>
      </trkpt>
      <trkpt lat="4.8417770" lon="-75.3990190">
        <ele>3902.9</ele>
        <time>2021-04-17T19:25:01Z</time>
      </trkpt>
      <trkpt lat="4.8417490" lon="-75.3990310">
        <ele>3902.9</ele>
        <time>2021-04-17T19:25:02Z</time>
      </trkpt>
      <trkpt lat="4.8417220" lon="-75.3990460">
        <ele>3902.9</ele>
        <time>2021-04-17T19:25:03Z</time>
      </trkpt>
      <trkpt lat="4.8416960" lon="-75.3990640">
        <ele>3902.9</ele>
        <time>2021-04-17T19:25:04Z</time>
      </trkpt>
      <trkpt lat="4.8416710" lon="-75.3990830">
        <ele>3902.9</ele>
        <time>2021-04-17T19:25:05Z</time>
      </trkpt>
      <trkpt lat="4.8416490" lon="-75.3991070">
        <ele>3903.0</ele>
        <time>2021-04-17T19:25:06Z</time>
      </trkpt>
      <trkpt lat="4.8416250" lon="-75.3991320">
        <ele>3903.0</ele>
        <time>2021-04-17T19:25:07Z</time>
      </trkpt>
      <trkpt lat="4.8416000" lon="-75.3991580">
        <ele>3903.0</ele>
        <time>2021-04-17T19:25:08Z</time>
      </trkpt>
      <trkpt lat="4.8415740" lon="-75.3991840">
        <ele>3903.0</ele>
        <time>2021-04-17T19:25:09Z</time>
      </trkpt>
      <trkpt lat="4.8415470" lon="-75.3992120">
        <ele>3903.0</ele>
        <time>2021-04-17T19:25:10Z</time>
      </trkpt>
      <trkpt lat="4.8415240" lon="-75.3992430">
        <ele>3903.0</ele>
        <time>2021-04-17T19:25:11Z</time>
      </trkpt>
      <trkpt lat="4.8415070" lon="-75.3992810">
        <ele>3903.0</ele>
        <time>2021-04-17T19:25:12Z</time>
      </trkpt>
      <trkpt lat="4.8414990" lon="-75.3993210">
        <ele>3903.0</ele>
        <time>2021-04-17T19:25:13Z</time>
      </trkpt>
      <trkpt lat="4.8414950" lon="-75.3993620">
        <ele>3903.1</ele>
        <time>2021-04-17T19:25:14Z</time>
      </trkpt>
      <trkpt lat="4.8414960" lon="-75.3994030">
        <ele>3903.1</ele>
        <time>2021-04-17T19:25:15Z</time>
      </trkpt>
      <trkpt lat="4.8415020" lon="-75.3994410">
        <ele>3903.1</ele>
        <time>2021-04-17T19:25:16Z</time>
      </trkpt>
      <trkpt lat="4.8415080" lon="-75.3994780">
        <ele>3903.1</ele>
        <time>2021-04-17T19:25:17Z</time>
      </trkpt>
      <trkpt lat="4.8415120" lon="-75.3995140">
        <ele>3903.1</ele>
        <time>2021-04-17T19:25:18Z</time>
      </trkpt>
      <trkpt lat="4.8415120" lon="-75.3995520">
        <ele>3903.1</ele>
        <time>2021-04-17T19:25:19Z</time>
      </trkpt>
      <trkpt lat="4.8415120" lon="-75.3995920">
        <ele>3903.1</ele>
        <time>2021-04-17T19:25:20Z</time>
      </trkpt>
      <trkpt lat="4.8415120" lon="-75.3996330">
        <ele>3903.1</ele>
        <time>2021-04-17T19:25:21Z</time>
      </trkpt>
      <trkpt lat="4.8415110" lon="-75.3996740">
        <ele>3903.2</ele>
        <time>2021-04-17T19:25:22Z</time>
      </trkpt>
      <trkpt lat="4.8415090" lon="-75.3997170">
        <ele>3903.2</ele>
        <time>2021-04-17T19:25:23Z</time>
      </trkpt>
      <trkpt lat="4.8415100" lon="-75.3997590">
        <ele>3903.2</ele>
        <time>2021-04-17T19:25:24Z</time>
      </trkpt>
      <trkpt lat="4.8415150" lon="-75.3998000">
        <ele>3903.2</ele>
        <time>2021-04-17T19:25:25Z</time>
      </trkpt>
      <trkpt lat="4.8415220" lon="-75.3998390">
        <ele>3903.2</ele>
        <time>2021-04-17T19:25:26Z</time>
      </trkpt>
      <trkpt lat="4.8415300" lon="-75.3998770">
        <ele>3903.2</ele>
        <time>2021-04-17T19:25:27Z</time>
      </trkpt>
      <trkpt lat="4.8415410" lon="-75.3999120">
        <ele>3903.2</ele>
        <time>2021-04-17T19:25:28Z</time>
      </trkpt>
      <trkpt lat="4.8415530" lon="-75.3999460">
        <ele>3903.3</ele>
        <time>2021-04-17T19:25:29Z</time>
      </trkpt>
      <trkpt lat="4.8415660" lon="-75.3999810">
        <ele>3903.3</ele>
        <time>2021-04-17T19:25:30Z</time>
      </trkpt>
      <trkpt lat="4.8415790" lon="-75.4000180">
        <ele>3903.3</ele>
        <time>2021-04-17T19:25:31Z</time>
      </trkpt>
      <trkpt lat="4.8415930" lon="-75.4000550">
        <ele>3903.3</ele>
        <time>2021-04-17T19:25:32Z</time>
      </trkpt>
      <trkpt lat="4.8416070" lon="-75.4000930">
        <ele>3903.3</ele>
        <time>2021-04-17T19:25:33Z</time>
      </trkpt>
      <trkpt lat="4.8416200" lon="-75.4001330">
        <ele>3903.3</ele>
        <time>2021-04-17T19:25:34Z</time>
      </trkpt>
      <trkpt lat="4.8416330" lon="-75.4001740">
        <ele>3903.3</ele>
        <time>2021-04-17T19:25:35Z</time>
      </trkpt>
      <trkpt lat="4.8416460" lon="-75.4002160">
        <ele>3903.3</ele>
        <time>2021-04-17T19:25:36Z</time>
      </trkpt>
      <trkpt lat="4.8416610" lon="-75.4002590">
        <ele>3903.4</ele>
        <time>2021-04-17T19:25:37Z</time>
      </trkpt>
      <trkpt lat="4.8416770" lon="-75.4003020">
        <ele>3903.4</ele>
        <time>2021-04-17T19:25:38Z</time>
      </trkpt>
      <trkpt lat="4.8416950" lon="-75.4003430">
        <ele>3903.4</ele>
        <time>2021-04-17T19:25:39Z</time>
      </trkpt>
      <trkpt lat="4.8417140" lon="-75.4003840">
        <ele>3903.4</ele>
        <time>2021-04-17T19:25:40Z</time>
      </trkpt>
      <trkpt lat="4.8417320" lon="-75.4004260">
        <ele>3903.4</ele>
        <time>2021-04-17T19:25:41Z</time>
      </trkpt>
      <trkpt lat="4.8417500" lon="-75.4004690">
        <ele>3903.4</ele>
        <time>2021-04-17T19:25:42Z</time>
      </trkpt>
      <trkpt lat="4.8417680" lon="-75.4005110">
        <ele>3903.4</ele>
        <time>2021-04-17T19:25:43Z</time>
      </trkpt>
      <trkpt lat="4.8417890" lon="-75.4005540">
        <ele>3903.5</ele>
        <time>2021-04-17T19:25:44Z</time>
      </trkpt>
      <trkpt lat="4.8418130" lon="-75.4005940">
        <ele>3903.5</ele>
        <time>2021-04-17T19:25:45Z</time>
      </trkpt>
      <trkpt lat="4.8418380" lon="-75.4006340">
        <ele>3903.5</ele>
        <time>2021-04-17T19:25:46Z</time>
      </trkpt>
      <trkpt lat="4.8418590" lon="-75.4006750">
        <ele>3903.5</ele>
        <time>2021-04-17T19:25:47Z</time>
      </trkpt>
      <trkpt lat="4.8418810" lon="-75.4007120">
        <ele>3903.5</ele>
        <time>2021-04-17T19:25:48Z</time>
      </trkpt>
      <trkpt lat="4.8419050" lon="-75.4007470">
        <ele>3903.5</ele>
        <time>2021-04-17T19:25:49Z</time>
      </trkpt>
      <trkpt lat="4.8419280" lon="-75.4007850">
        <ele>3903.6</ele>
        <time>2021-04-17T19:25:50Z</time>
      </trkpt>
      <trkpt lat="4.8419510" lon="-75.4008250">
        <ele>3903.6</ele>
        <time>2021-04-17T19:25:51Z</time>
      </trkpt>
      <trkpt lat="4.8419760" lon="-75.4008670">
        <ele>3903.6</ele>
        <time>2021-04-17T19:25:52Z</time>
      </trkpt>
      <trkpt lat="4.8420050" lon="-75.4009080">
        <ele>3903.6</ele>
        <time>2021-04-17T19:25:53Z</time>
      </trkpt>
      <trkpt lat="4.8420340" lon="-75.4009490">
        <ele>3903.6</ele>
        <time>2021-04-17T19:25:54Z</time>
      </trkpt>
      <trkpt lat="4.8420620" lon="-75.4009930">
        <ele>3903.6</ele>
        <time>2021-04-17T19:25:55Z</time>
      </trkpt>
      <trkpt lat="4.8420850" lon="-75.4010410">
        <ele>3903.7</ele>
        <time>2021-04-17T19:25:56Z</time>
      </trkpt>
      <trkpt lat="4.8421080" lon="-75.4010880">
        <ele>3903.7</ele>
        <time>2021-04-17T19:25:57Z</time>
      </trkpt>
      <trkpt lat="4.8421330" lon="-75.4011340">
        <ele>3903.7</ele>
        <time>2021-04-17T19:25:58Z</time>
      </trkpt>
      <trkpt lat="4.8421570" lon="-75.4011790">
        <ele>3903.7</ele>
        <time>2021-04-17T19:25:59Z</time>
      </trkpt>
      <trkpt lat="4.8421780" lon="-75.4012250">
        <ele>3903.7</ele>
        <time>2021-04-17T19:26:00Z</time>
      </trkpt>
      <trkpt lat="4.8421990" lon="-75.4012700">
        <ele>3903.7</ele>
        <time>2021-04-17T19:26:01Z</time>
      </trkpt>
      <trkpt lat="4.8422210" lon="-75.4013170">
        <ele>3903.8</ele>
        <time>2021-04-17T19:26:02Z</time>
      </trkpt>
      <trkpt lat="4.8422470" lon="-75.4013660">
        <ele>3903.8</ele>
        <time>2021-04-17T19:26:03Z</time>
      </trkpt>
      <trkpt lat="4.8422780" lon="-75.4014140">
        <ele>3903.8</ele>
        <time>2021-04-17T19:26:04Z</time>
      </trkpt>
      <trkpt lat="4.8423130" lon="-75.4014640">
        <ele>3903.8</ele>
        <time>2021-04-17T19:26:05Z</time>
      </trkpt>
      <trkpt lat="4.8423500" lon="-75.4015140">
        <ele>3903.8</ele>
        <time>2021-04-17T19:26:06Z</time>
      </trkpt>
      <trkpt lat="4.8423900" lon="-75.4015650">
        <ele>3903.9</ele>
        <time>2021-04-17T19:26:07Z</time>
      </trkpt>
      <trkpt lat="4.8424300" lon="-75.4016160">
        <ele>3903.9</ele>
        <time>2021-04-17T19:26:08Z</time>
      </trkpt>
      <trkpt lat="4.8424690" lon="-75.4016670">
        <ele>3903.9</ele>
        <time>2021-04-17T19:26:09Z</time>
      </trkpt>
      <trkpt lat="4.8425110" lon="-75.4017150">
        <ele>3903.9</ele>
        <time>2021-04-17T19:26:10Z</time>
      </trkpt>
      <trkpt lat="4.8425540" lon="-75.4017590">
        <ele>3903.9</ele>
        <time>2021-04-17T19:26:11Z</time>
      </trkpt>
      <trkpt lat="4.8425910" lon="-75.4018030">
        <ele>3904.0</ele>
        <time>2021-04-17T19:26:12Z</time>
      </trkpt>
      <trkpt lat="4.8426250" lon="-75.4018470">
        <ele>3904.0</ele>
        <time>2021-04-17T19:26:13Z</time>
      </trkpt>
      <trkpt lat="4.8426560" lon="-75.4018890">
        <ele>3904.0</ele>
        <time>2021-04-17T19:26:14Z</time>
      </trkpt>
      <trkpt lat="4.8426810" lon="-75.4019230">
        <ele>3904.5</ele>
        <time>2021-04-17T19:26:15Z</time>
      </trkpt>
      <trkpt lat="4.8427010" lon="-75.4019560">
        <ele>3904.9</ele>
        <time>2021-04-17T19:26:16Z</time>
      </trkpt>
      <trkpt lat="4.8427170" lon="-75.4019880">
        <ele>3905.3</ele>
        <time>2021-04-17T19:26:17Z</time>
      </trkpt>
      <trkpt lat="4.8427340" lon="-75.4020170">
        <ele>3905.7</ele>
        <time>2021-04-17T19:26:18Z</time>
      </trkpt>
      <trkpt lat="4.8427530" lon="-75.4020420">
        <ele>3906.0</ele>
        <time>2021-04-17T19:26:19Z</time>
      </trkpt>
      <trkpt lat="4.8427750" lon="-75.4020660">
        <ele>3906.4</ele>
        <time>2021-04-17T19:26:20Z</time>
      </trkpt>
      <trkpt lat="4.8427950" lon="-75.4020910">
        <ele>3906.7</ele>
        <time>2021-04-17T19:26:21Z</time>
      </trkpt>
      <trkpt lat="4.8428130" lon="-75.4021160">
        <ele>3907.1</ele>
        <time>2021-04-17T19:26:22Z</time>
      </trkpt>
      <trkpt lat="4.8428340" lon="-75.4021420">
        <ele>3907.4</ele>
        <time>2021-04-17T19:26:23Z</time>
      </trkpt>
      <trkpt lat="4.8428550" lon="-75.4021670">
        <ele>3907.8</ele>
        <time>2021-04-17T19:26:24Z</time>
      </trkpt>
      <trkpt lat="4.8428760" lon="-75.4021920">
        <ele>3908.2</ele>
        <time>2021-04-17T19:26:25Z</time>
      </trkpt>
      <trkpt lat="4.8428960" lon="-75.4022140">
        <ele>3908.5</ele>
        <time>2021-04-17T19:26:26Z</time>
      </trkpt>
      <trkpt lat="4.8429160" lon="-75.4022360">
        <ele>3908.8</ele>
        <time>2021-04-17T19:26:27Z</time>
      </trkpt>
      <trkpt lat="4.8429360" lon="-75.4022580">
        <ele>3909.1</ele>
        <time>2021-04-17T19:26:28Z</time>
      </trkpt>
      <trkpt lat="4.8429550" lon="-75.4022790">
        <ele>3909.5</ele>
        <time>2021-04-17T19:26:29Z</time>
      </trkpt>
      <trkpt lat="4.8429730" lon="-75.4022990">
        <ele>3909.7</ele>
        <time>2021-04-17T19:26:30Z</time>
      </trkpt>
      <trkpt lat="4.8429910" lon="-75.4023200">
        <ele>3910.1</ele>
        <time>2021-04-17T19:26:31Z</time>
      </trkpt>
      <trkpt lat="4.8430080" lon="-75.4023410">
        <ele>3910.4</ele>
        <time>2021-04-17T19:26:32Z</time>
      </trkpt>
      <trkpt lat="4.8430250" lon="-75.4023610">
        <ele>3910.6</ele>
        <time>2021-04-17T19:26:33Z</time>
      </trkpt>
      <trkpt lat="4.8430420" lon="-75.4023790">
        <ele>3910.9</ele>
        <time>2021-04-17T19:26:34Z</time>
      </trkpt>
      <trkpt lat="4.8430570" lon="-75.4023970">
        <ele>3911.2</ele>
        <time>2021-04-17T19:26:35Z</time>
      </trkpt>
      <trkpt lat="4.8430720" lon="-75.4024140">
        <ele>3911.4</ele>
        <time>2021-04-17T19:26:36Z</time>
      </trkpt>
      <trkpt lat="4.8430860" lon="-75.4024310">
        <ele>3911.7</ele>
        <time>2021-04-17T19:26:37Z</time>
      </trkpt>
      <trkpt lat="4.8430990" lon="-75.4024490">
        <ele>3911.9</ele>
        <time>2021-04-17T19:26:38Z</time>
      </trkpt>
      <trkpt lat="4.8431120" lon="-75.4024670">
        <ele>3912.2</ele>
        <time>2021-04-17T19:26:39Z</time>
      </trkpt>
      <trkpt lat="4.8431240" lon="-75.4024840">
        <ele>3912.4</ele>
        <time>2021-04-17T19:26:40Z</time>
      </trkpt>
      <trkpt lat="4.8431370" lon="-75.4025000">
        <ele>3912.6</ele>
        <time>2021-04-17T19:26:41Z</time>
      </trkpt>
      <trkpt lat="4.8431520" lon="-75.4025150">
        <ele>3912.8</ele>
        <time>2021-04-17T19:26:42Z</time>
      </trkpt>
      <trkpt lat="4.8431660" lon="-75.4025290">
        <ele>3913.1</ele>
        <time>2021-04-17T19:26:43Z</time>
      </trkpt>
      <trkpt lat="4.8431800" lon="-75.4025450">
        <ele>3913.3</ele>
        <time>2021-04-17T19:26:44Z</time>
      </trkpt>
      <trkpt lat="4.8431940" lon="-75.4025620">
        <ele>3913.5</ele>
        <time>2021-04-17T19:26:45Z</time>
      </trkpt>
      <trkpt lat="4.8432100" lon="-75.4025780">
        <ele>3913.8</ele>
        <time>2021-04-17T19:26:46Z</time>
      </trkpt>
      <trkpt lat="4.8432260" lon="-75.4025940">
        <ele>3914.0</ele>
        <time>2021-04-17T19:26:47Z</time>
      </trkpt>
      <trkpt lat="4.8432410" lon="-75.4026100">
        <ele>3914.3</ele>
        <time>2021-04-17T19:26:48Z</time>
      </trkpt>
      <trkpt lat="4.8432550" lon="-75.4026280">
        <ele>3914.5</ele>
        <time>2021-04-17T19:26:49Z</time>
      </trkpt>
      <trkpt lat="4.8432690" lon="-75.4026460">
        <ele>3914.8</ele>
        <time>2021-04-17T19:26:50Z</time>
      </trkpt>
      <trkpt lat="4.8432830" lon="-75.4026630">
        <ele>3915.0</ele>
        <time>2021-04-17T19:26:51Z</time>
      </trkpt>
      <trkpt lat="4.8432960" lon="-75.4026810">
        <ele>3915.3</ele>
        <time>2021-04-17T19:26:52Z</time>
      </trkpt>
      <trkpt lat="4.8433080" lon="-75.4026980">
        <ele>3915.5</ele>
        <time>2021-04-17T19:26:53Z</time>
      </trkpt>
      <trkpt lat="4.8433210" lon="-75.4027150">
        <ele>3915.7</ele>
        <time>2021-04-17T19:26:54Z</time>
      </trkpt>
      <trkpt lat="4.8433350" lon="-75.4027330">
        <ele>3916.0</ele>
        <time>2021-04-17T19:26:55Z</time>
      </trkpt>
      <trkpt lat="4.8433480" lon="-75.4027490">
        <ele>3916.2</ele>
        <time>2021-04-17T19:26:56Z</time>
      </trkpt>
      <trkpt lat="4.8433610" lon="-75.4027630">
        <ele>3916.4</ele>
        <time>2021-04-17T19:26:57Z</time>
      </trkpt>
      <trkpt lat="4.8433760" lon="-75.4027760">
        <ele>3916.7</ele>
        <time>2021-04-17T19:26:58Z</time>
      </trkpt>
      <trkpt lat="4.8433920" lon="-75.4027900">
        <ele>3916.9</ele>
        <time>2021-04-17T19:26:59Z</time>
      </trkpt>
      <trkpt lat="4.8434080" lon="-75.4028040">
        <ele>3917.1</ele>
        <time>2021-04-17T19:27:00Z</time>
      </trkpt>
      <trkpt lat="4.8434230" lon="-75.4028200">
        <ele>3917.4</ele>
        <time>2021-04-17T19:27:01Z</time>
      </trkpt>
      <trkpt lat="4.8434360" lon="-75.4028360">
        <ele>3917.6</ele>
        <time>2021-04-17T19:27:02Z</time>
      </trkpt>
      <trkpt lat="4.8434510" lon="-75.4028530">
        <ele>3917.8</ele>
        <time>2021-04-17T19:27:03Z</time>
      </trkpt>
      <trkpt lat="4.8434660" lon="-75.4028690">
        <ele>3918.1</ele>
        <time>2021-04-17T19:27:04Z</time>
      </trkpt>
      <trkpt lat="4.8434810" lon="-75.4028860">
        <ele>3918.3</ele>
        <time>2021-04-17T19:27:05Z</time>
      </trkpt>
      <trkpt lat="4.8434960" lon="-75.4029020">
        <ele>3918.6</ele>
        <time>2021-04-17T19:27:06Z</time>
      </trkpt>
      <trkpt lat="4.8435100" lon="-75.4029190">
        <ele>3918.8</ele>
        <time>2021-04-17T19:27:07Z</time>
      </trkpt>
      <trkpt lat="4.8435210" lon="-75.4029360">
        <ele>3919.0</ele>
        <time>2021-04-17T19:27:08Z</time>
      </trkpt>
      <trkpt lat="4.8435330" lon="-75.4029510">
        <ele>3919.3</ele>
        <time>2021-04-17T19:27:09Z</time>
      </trkpt>
      <trkpt lat="4.8435450" lon="-75.4029640">
        <ele>3919.4</ele>
        <time>2021-04-17T19:27:10Z</time>
      </trkpt>
      <trkpt lat="4.8435580" lon="-75.4029800">
        <ele>3919.7</ele>
        <time>2021-04-17T19:27:11Z</time>
      </trkpt>
      <trkpt lat="4.8435700" lon="-75.4029950">
        <ele>3919.9</ele>
        <time>2021-04-17T19:27:12Z</time>
      </trkpt>
      <trkpt lat="4.8435830" lon="-75.4030120">
        <ele>3920.1</ele>
        <time>2021-04-17T19:27:13Z</time>
      </trkpt>
      <trkpt lat="4.8435980" lon="-75.4030270">
        <ele>3920.4</ele>
        <time>2021-04-17T19:27:14Z</time>
      </trkpt>
      <trkpt lat="4.8436110" lon="-75.4030430">
        <ele>3920.6</ele>
        <time>2021-04-17T19:27:15Z</time>
      </trkpt>
      <trkpt lat="4.8436230" lon="-75.4030600">
        <ele>3920.8</ele>
        <time>2021-04-17T19:27:16Z</time>
      </trkpt>
      <trkpt lat="4.8436330" lon="-75.4030780">
        <ele>3921.0</ele>
        <time>2021-04-17T19:27:17Z</time>
      </trkpt>
      <trkpt lat="4.8436450" lon="-75.4030940">
        <ele>3921.3</ele>
        <time>2021-04-17T19:27:18Z</time>
      </trkpt>
      <trkpt lat="4.8436580" lon="-75.4031100">
        <ele>3921.5</ele>
        <time>2021-04-17T19:27:19Z</time>
      </trkpt>
      <trkpt lat="4.8436700" lon="-75.4031270">
        <ele>3921.7</ele>
        <time>2021-04-17T19:27:20Z</time>
      </trkpt>
      <trkpt lat="4.8436810" lon="-75.4031460">
        <ele>3922.0</ele>
        <time>2021-04-17T19:27:21Z</time>
      </trkpt>
      <trkpt lat="4.8436920" lon="-75.4031640">
        <ele>3922.2</ele>
        <time>2021-04-17T19:27:22Z</time>
      </trkpt>
      <trkpt lat="4.8437040" lon="-75.4031820">
        <ele>3922.4</ele>
        <time>2021-04-17T19:27:23Z</time>
      </trkpt>
      <trkpt lat="4.8437160" lon="-75.4032020">
        <ele>3922.7</ele>
        <time>2021-04-17T19:27:24Z</time>
      </trkpt>
      <trkpt lat="4.8437290" lon="-75.4032210">
        <ele>3922.9</ele>
        <time>2021-04-17T19:27:25Z</time>
      </trkpt>
      <trkpt lat="4.8437400" lon="-75.4032410">
        <ele>3923.2</ele>
        <time>2021-04-17T19:27:26Z</time>
      </trkpt>
      <trkpt lat="4.8437500" lon="-75.4032580">
        <ele>3923.4</ele>
        <time>2021-04-17T19:27:27Z</time>
      </trkpt>
      <trkpt lat="4.8437580" lon="-75.4032750">
        <ele>3923.6</ele>
        <time>2021-04-17T19:27:28Z</time>
      </trkpt>
      <trkpt lat="4.8437680" lon="-75.4032900">
        <ele>3923.8</ele>
        <time>2021-04-17T19:27:29Z</time>
      </trkpt>
      <trkpt lat="4.8437790" lon="-75.4033050">
        <ele>3924.0</ele>
        <time>2021-04-17T19:27:30Z</time>
      </trkpt>
      <trkpt lat="4.8437880" lon="-75.4033210">
        <ele>3924.2</ele>
        <time>2021-04-17T19:27:31Z</time>
      </trkpt>
      <trkpt lat="4.8437980" lon="-75.4033380">
        <ele>3924.4</ele>
        <time>2021-04-17T19:27:32Z</time>
      </trkpt>
      <trkpt lat="4.8438070" lon="-75.4033560">
        <ele>3924.7</ele>
        <time>2021-04-17T19:27:33Z</time>
      </trkpt>
      <trkpt lat="4.8438160" lon="-75.4033740">
        <ele>3924.9</ele>
        <time>2021-04-17T19:27:34Z</time>
      </trkpt>
      <trkpt lat="4.8438250" lon="-75.4033940">
        <ele>3925.1</ele>
        <time>2021-04-17T19:27:35Z</time>
      </trkpt>
      <trkpt lat="4.8438350" lon="-75.4034140">
        <ele>3925.4</ele>
        <time>2021-04-17T19:27:36Z</time>
      </trkpt>
      <trkpt lat="4.8438430" lon="-75.4034330">
        <ele>3925.6</ele>
        <time>2021-04-17T19:27:37Z</time>
      </trkpt>
      <trkpt lat="4.8438500" lon="-75.4034520">
        <ele>3925.8</ele>
        <time>2021-04-17T19:27:38Z</time>
      </trkpt>
      <trkpt lat="4.8438590" lon="-75.4034690">
        <ele>3926.0</ele>
        <time>2021-04-17T19:27:39Z</time>
      </trkpt>
      <trkpt lat="4.8438680" lon="-75.4034870">
        <ele>3926.3</ele>
        <time>2021-04-17T19:27:40Z</time>
      </trkpt>
      <trkpt lat="4.8438780" lon="-75.4035040">
        <ele>3926.5</ele>
        <time>2021-04-17T19:27:41Z</time>
      </trkpt>
      <trkpt lat="4.8438880" lon="-75.4035210">
        <ele>3926.7</ele>
        <time>2021-04-17T19:27:42Z</time>
      </trkpt>
      <trkpt lat="4.8438990" lon="-75.4035390">
        <ele>3926.9</ele>
        <time>2021-04-17T19:27:43Z</time>
      </trkpt>
      <trkpt lat="4.8439100" lon="-75.4035570">
        <ele>3927.2</ele>
        <time>2021-04-17T19:27:44Z</time>
      </trkpt>
      <trkpt lat="4.8439200" lon="-75.4035750">
        <ele>3927.4</ele>
        <time>2021-04-17T19:27:45Z</time>
      </trkpt>
      <trkpt lat="4.8439310" lon="-75.4035930">
        <ele>3927.6</ele>
        <time>2021-04-17T19:27:46Z</time>
      </trkpt>
      <trkpt lat="4.8439420" lon="-75.4036120">
        <ele>3927.9</ele>
        <time>2021-04-17T19:27:47Z</time>
      </trkpt>
      <trkpt lat="4.8439540" lon="-75.4036310">
        <ele>3928.1</ele>
        <time>2021-04-17T19:27:48Z</time>
      </trkpt>
      <trkpt lat="4.8439690" lon="-75.4036470">
        <ele>3928.4</ele>
        <time>2021-04-17T19:27:49Z</time>
      </trkpt>
      <trkpt lat="4.8439820" lon="-75.4036650">
        <ele>3928.6</ele>
        <time>2021-04-17T19:27:50Z</time>
      </trkpt>
      <trkpt lat="4.8439940" lon="-75.4036850">
        <ele>3928.9</ele>
        <time>2021-04-17T19:27:51Z</time>
      </trkpt>
      <trkpt lat="4.8440060" lon="-75.4037050">
        <ele>3929.0</ele>
        <time>2021-04-17T19:27:52Z</time>
      </trkpt>
      <trkpt lat="4.8440170" lon="-75.4037240">
        <ele>3929.1</ele>
        <time>2021-04-17T19:27:53Z</time>
      </trkpt>
      <trkpt lat="4.8440270" lon="-75.4037430">
        <ele>3929.1</ele>
        <time>2021-04-17T19:27:54Z</time>
      </trkpt>
      <trkpt lat="4.8440390" lon="-75.4037620">
        <ele>3929.2</ele>
        <time>2021-04-17T19:27:55Z</time>
      </trkpt>
      <trkpt lat="4.8440520" lon="-75.4037810">
        <ele>3929.3</ele>
        <time>2021-04-17T19:27:56Z</time>
      </trkpt>
      <trkpt lat="4.8440630" lon="-75.4038010">
        <ele>3929.3</ele>
        <time>2021-04-17T19:27:57Z</time>
      </trkpt>
      <trkpt lat="4.8440760" lon="-75.4038180">
        <ele>3929.4</ele>
        <time>2021-04-17T19:27:58Z</time>
      </trkpt>
      <trkpt lat="4.8440900" lon="-75.4038350">
        <ele>3929.4</ele>
        <time>2021-04-17T19:27:59Z</time>
      </trkpt>
      <trkpt lat="4.8441050" lon="-75.4038510">
        <ele>3929.5</ele>
        <time>2021-04-17T19:28:00Z</time>
      </trkpt>
      <trkpt lat="4.8441190" lon="-75.4038670">
        <ele>3929.5</ele>
        <time>2021-04-17T19:28:01Z</time>
      </trkpt>
      <trkpt lat="4.8441320" lon="-75.4038840">
        <ele>3929.6</ele>
        <time>2021-04-17T19:28:02Z</time>
      </trkpt>
      <trkpt lat="4.8441440" lon="-75.4039030">
        <ele>3929.7</ele>
        <time>2021-04-17T19:28:03Z</time>
      </trkpt>
      <trkpt lat="4.8441590" lon="-75.4039210">
        <ele>3929.7</ele>
        <time>2021-04-17T19:28:04Z</time>
      </trkpt>
      <trkpt lat="4.8441750" lon="-75.4039380">
        <ele>3929.8</ele>
        <time>2021-04-17T19:28:05Z</time>
      </trkpt>
      <trkpt lat="4.8441900" lon="-75.4039570">
        <ele>3929.8</ele>
        <time>2021-04-17T19:28:06Z</time>
      </trkpt>
      <trkpt lat="4.8442040" lon="-75.4039760">
        <ele>3929.9</ele>
        <time>2021-04-17T19:28:07Z</time>
      </trkpt>
      <trkpt lat="4.8442180" lon="-75.4039960">
        <ele>3930.0</ele>
        <time>2021-04-17T19:28:08Z</time>
      </trkpt>
      <trkpt lat="4.8442330" lon="-75.4040150">
        <ele>3930.0</ele>
        <time>2021-04-17T19:28:09Z</time>
      </trkpt>
      <trkpt lat="4.8442470" lon="-75.4040340">
        <ele>3930.1</ele>
        <time>2021-04-17T19:28:10Z</time>
      </trkpt>
      <trkpt lat="4.8442610" lon="-75.4040530">
        <ele>3930.1</ele>
        <time>2021-04-17T19:28:11Z</time>
      </trkpt>
      <trkpt lat="4.8442750" lon="-75.4040700">
        <ele>3930.2</ele>
        <time>2021-04-17T19:28:12Z</time>
      </trkpt>
      <trkpt lat="4.8442890" lon="-75.4040890">
        <ele>3930.3</ele>
        <time>2021-04-17T19:28:13Z</time>
      </trkpt>
      <trkpt lat="4.8443020" lon="-75.4041070">
        <ele>3930.3</ele>
        <time>2021-04-17T19:28:14Z</time>
      </trkpt>
      <trkpt lat="4.8443160" lon="-75.4041250">
        <ele>3930.4</ele>
        <time>2021-04-17T19:28:15Z</time>
      </trkpt>
      <trkpt lat="4.8443270" lon="-75.4041430">
        <ele>3930.4</ele>
        <time>2021-04-17T19:28:16Z</time>
      </trkpt>
      <trkpt lat="4.8443370" lon="-75.4041610">
        <ele>3930.5</ele>
        <time>2021-04-17T19:28:17Z</time>
      </trkpt>
      <trkpt lat="4.8443480" lon="-75.4041800">
        <ele>3930.5</ele>
        <time>2021-04-17T19:28:18Z</time>
      </trkpt>
      <trkpt lat="4.8443600" lon="-75.4042000">
        <ele>3930.6</ele>
        <time>2021-04-17T19:28:19Z</time>
      </trkpt>
      <trkpt lat="4.8443720" lon="-75.4042200">
        <ele>3930.7</ele>
        <time>2021-04-17T19:28:20Z</time>
      </trkpt>
      <trkpt lat="4.8443840" lon="-75.4042400">
        <ele>3930.7</ele>
        <time>2021-04-17T19:28:21Z</time>
      </trkpt>
      <trkpt lat="4.8443970" lon="-75.4042600">
        <ele>3930.8</ele>
        <time>2021-04-17T19:28:22Z</time>
      </trkpt>
      <trkpt lat="4.8444090" lon="-75.4042810">
        <ele>3930.8</ele>
        <time>2021-04-17T19:28:23Z</time>
      </trkpt>
      <trkpt lat="4.8444200" lon="-75.4043010">
        <ele>3930.9</ele>
        <time>2021-04-17T19:28:24Z</time>
      </trkpt>
      <trkpt lat="4.8444310" lon="-75.4043210">
        <ele>3931.0</ele>
        <time>2021-04-17T19:28:25Z</time>
      </trkpt>
      <trkpt lat="4.8444420" lon="-75.4043390">
        <ele>3931.0</ele>
        <time>2021-04-17T19:28:26Z</time>
      </trkpt>
      <trkpt lat="4.8444520" lon="-75.4043590">
        <ele>3931.1</ele>
        <time>2021-04-17T19:28:27Z</time>
      </trkpt>
      <trkpt lat="4.8444600" lon="-75.4043800">
        <ele>3931.1</ele>
        <time>2021-04-17T19:28:28Z</time>
      </trkpt>
      <trkpt lat="4.8444700" lon="-75.4043990">
        <ele>3931.2</ele>
        <time>2021-04-17T19:28:29Z</time>
      </trkpt>
      <trkpt lat="4.8444810" lon="-75.4044160">
        <ele>3931.2</ele>
        <time>2021-04-17T19:28:30Z</time>
      </trkpt>
      <trkpt lat="4.8444910" lon="-75.4044340">
        <ele>3931.3</ele>
        <time>2021-04-17T19:28:31Z</time>
      </trkpt>
      <trkpt lat="4.8445000" lon="-75.4044530">
        <ele>3931.3</ele>
        <time>2021-04-17T19:28:32Z</time>
      </trkpt>
      <trkpt lat="4.8445100" lon="-75.4044720">
        <ele>3931.4</ele>
        <time>2021-04-17T19:28:33Z</time>
      </trkpt>
      <trkpt lat="4.8445240" lon="-75.4044890">
        <ele>3931.5</ele>
        <time>2021-04-17T19:28:34Z</time>
      </trkpt>
      <trkpt lat="4.8445380" lon="-75.4045050">
        <ele>3931.5</ele>
        <time>2021-04-17T19:28:35Z</time>
      </trkpt>
      <trkpt lat="4.8445480" lon="-75.4045220">
        <ele>3931.6</ele>
        <time>2021-04-17T19:28:36Z</time>
      </trkpt>
      <trkpt lat="4.8445580" lon="-75.4045380">
        <ele>3931.6</ele>
        <time>2021-04-17T19:28:37Z</time>
      </trkpt>
      <trkpt lat="4.8445660" lon="-75.4045540">
        <ele>3931.7</ele>
        <time>2021-04-17T19:28:38Z</time>
      </trkpt>
      <trkpt lat="4.8445750" lon="-75.4045700">
        <ele>3931.7</ele>
        <time>2021-04-17T19:28:39Z</time>
      </trkpt>
      <trkpt lat="4.8445840" lon="-75.4045880">
        <ele>3931.8</ele>
        <time>2021-04-17T19:28:40Z</time>
      </trkpt>
      <trkpt lat="4.8445920" lon="-75.4046050">
        <ele>3931.8</ele>
        <time>2021-04-17T19:28:41Z</time>
      </trkpt>
      <trkpt lat="4.8446000" lon="-75.4046230">
        <ele>3931.9</ele>
        <time>2021-04-17T19:28:42Z</time>
      </trkpt>
      <trkpt lat="4.8446090" lon="-75.4046410">
        <ele>3931.9</ele>
        <time>2021-04-17T19:28:43Z</time>
      </trkpt>
      <trkpt lat="4.8446170" lon="-75.4046590">
        <ele>3932.0</ele>
        <time>2021-04-17T19:28:44Z</time>
      </trkpt>
      <trkpt lat="4.8446260" lon="-75.4046770">
        <ele>3932.0</ele>
        <time>2021-04-17T19:28:45Z</time>
      </trkpt>
      <trkpt lat="4.8446340" lon="-75.4046950">
        <ele>3932.1</ele>
        <time>2021-04-17T19:28:46Z</time>
      </trkpt>
      <trkpt lat="4.8446430" lon="-75.4047110">
        <ele>3932.1</ele>
        <time>2021-04-17T19:28:47Z</time>
      </trkpt>
      <trkpt lat="4.8446550" lon="-75.4047280">
        <ele>3932.2</ele>
        <time>2021-04-17T19:28:48Z</time>
      </trkpt>
      <trkpt lat="4.8446660" lon="-75.4047440">
        <ele>3932.2</ele>
        <time>2021-04-17T19:28:49Z</time>
      </trkpt>
      <trkpt lat="4.8446750" lon="-75.4047610">
        <ele>3932.3</ele>
        <time>2021-04-17T19:28:50Z</time>
      </trkpt>
      <trkpt lat="4.8446820" lon="-75.4047780">
        <ele>3932.3</ele>
        <time>2021-04-17T19:28:51Z</time>
      </trkpt>
      <trkpt lat="4.8446900" lon="-75.4047960">
        <ele>3932.4</ele>
        <time>2021-04-17T19:28:52Z</time>
      </trkpt>
      <trkpt lat="4.8447000" lon="-75.4048130">
        <ele>3932.4</ele>
        <time>2021-04-17T19:28:53Z</time>
      </trkpt>
      <trkpt lat="4.8447110" lon="-75.4048290">
        <ele>3932.5</ele>
        <time>2021-04-17T19:28:54Z</time>
      </trkpt>
      <trkpt lat="4.8447220" lon="-75.4048460">
        <ele>3932.5</ele>
        <time>2021-04-17T19:28:55Z</time>
      </trkpt>
      <trkpt lat="4.8447320" lon="-75.4048640">
        <ele>3932.6</ele>
        <time>2021-04-17T19:28:56Z</time>
      </trkpt>
      <trkpt lat="4.8447410" lon="-75.4048830">
        <ele>3932.6</ele>
        <time>2021-04-17T19:28:57Z</time>
      </trkpt>
      <trkpt lat="4.8447520" lon="-75.4049030">
        <ele>3932.7</ele>
        <time>2021-04-17T19:28:58Z</time>
      </trkpt>
      <trkpt lat="4.8447620" lon="-75.4049210">
        <ele>3932.7</ele>
        <time>2021-04-17T19:28:59Z</time>
      </trkpt>
      <trkpt lat="4.8447740" lon="-75.4049380">
        <ele>3932.8</ele>
        <time>2021-04-17T19:29:00Z</time>
      </trkpt>
      <trkpt lat="4.8447850" lon="-75.4049560">
        <ele>3932.8</ele>
        <time>2021-04-17T19:29:01Z</time>
      </trkpt>
      <trkpt lat="4.8447950" lon="-75.4049750">
        <ele>3932.9</ele>
        <time>2021-04-17T19:29:02Z</time>
      </trkpt>
      <trkpt lat="4.8448030" lon="-75.4049940">
        <ele>3932.9</ele>
        <time>2021-04-17T19:29:03Z</time>
      </trkpt>
      <trkpt lat="4.8448100" lon="-75.4050140">
        <ele>3933.0</ele>
        <time>2021-04-17T19:29:04Z</time>
      </trkpt>
      <trkpt lat="4.8448170" lon="-75.4050330">
        <ele>3933.1</ele>
        <time>2021-04-17T19:29:05Z</time>
      </trkpt>
      <trkpt lat="4.8448270" lon="-75.4050510">
        <ele>3933.1</ele>
        <time>2021-04-17T19:29:06Z</time>
      </trkpt>
      <trkpt lat="4.8448380" lon="-75.4050700">
        <ele>3933.2</ele>
        <time>2021-04-17T19:29:07Z</time>
      </trkpt>
      <trkpt lat="4.8448480" lon="-75.4050880">
        <ele>3933.2</ele>
        <time>2021-04-17T19:29:08Z</time>
      </trkpt>
      <trkpt lat="4.8448570" lon="-75.4051060">
        <ele>3933.3</ele>
        <time>2021-04-17T19:29:09Z</time>
      </trkpt>
      <trkpt lat="4.8448670" lon="-75.4051230">
        <ele>3933.3</ele>
        <time>2021-04-17T19:29:10Z</time>
      </trkpt>
      <trkpt lat="4.8448770" lon="-75.4051400">
        <ele>3933.4</ele>
        <time>2021-04-17T19:29:11Z</time>
      </trkpt>
      <trkpt lat="4.8448860" lon="-75.4051570">
        <ele>3933.4</ele>
        <time>2021-04-17T19:29:12Z</time>
      </trkpt>
      <trkpt lat="4.8448940" lon="-75.4051750">
        <ele>3933.5</ele>
        <time>2021-04-17T19:29:13Z</time>
      </trkpt>
      <trkpt lat="4.8449020" lon="-75.4051950">
        <ele>3933.5</ele>
        <time>2021-04-17T19:29:14Z</time>
      </trkpt>
      <trkpt lat="4.8449100" lon="-75.4052150">
        <ele>3933.6</ele>
        <time>2021-04-17T19:29:15Z</time>
      </trkpt>
      <trkpt lat="4.8449170" lon="-75.4052370">
        <ele>3933.6</ele>
        <time>2021-04-17T19:29:16Z</time>
      </trkpt>
      <trkpt lat="4.8449250" lon="-75.4052580">
        <ele>3933.7</ele>
        <time>2021-04-17T19:29:17Z</time>
      </trkpt>
      <trkpt lat="4.8449310" lon="-75.4052790">
        <ele>3933.8</ele>
        <time>2021-04-17T19:29:18Z</time>
      </trkpt>
      <trkpt lat="4.8449390" lon="-75.4053000">
        <ele>3933.8</ele>
        <time>2021-04-17T19:29:19Z</time>
      </trkpt>
      <trkpt lat="4.8449470" lon="-75.4053200">
        <ele>3933.9</ele>
        <time>2021-04-17T19:29:20Z</time>
      </trkpt>
      <trkpt lat="4.8449560" lon="-75.4053400">
        <ele>3933.9</ele>
        <time>2021-04-17T19:29:21Z</time>
      </trkpt>
      <trkpt lat="4.8449650" lon="-75.4053600">
        <ele>3934.0</ele>
        <time>2021-04-17T19:29:22Z</time>
      </trkpt>
      <trkpt lat="4.8449740" lon="-75.4053820">
        <ele>3934.0</ele>
        <time>2021-04-17T19:29:23Z</time>
      </trkpt>
      <trkpt lat="4.8449800" lon="-75.4054030">
        <ele>3934.1</ele>
        <time>2021-04-17T19:29:24Z</time>
      </trkpt>
      <trkpt lat="4.8449860" lon="-75.4054230">
        <ele>3934.2</ele>
        <time>2021-04-17T19:29:25Z</time>
      </trkpt>
      <trkpt lat="4.8449880" lon="-75.4054440">
        <ele>3934.2</ele>
        <time>2021-04-17T19:29:26Z</time>
      </trkpt>
      <trkpt lat="4.8449910" lon="-75.4054660">
        <ele>3934.3</ele>
        <time>2021-04-17T19:29:27Z</time>
      </trkpt>
      <trkpt lat="4.8449950" lon="-75.4054870">
        <ele>3934.3</ele>
        <time>2021-04-17T19:29:28Z</time>
      </trkpt>
      <trkpt lat="4.8449990" lon="-75.4055080">
        <ele>3934.4</ele>
        <time>2021-04-17T19:29:29Z</time>
      </trkpt>
      <trkpt lat="4.8450040" lon="-75.4055290">
        <ele>3934.4</ele>
        <time>2021-04-17T19:29:30Z</time>
      </trkpt>
      <trkpt lat="4.8450090" lon="-75.4055500">
        <ele>3934.5</ele>
        <time>2021-04-17T19:29:31Z</time>
      </trkpt>
      <trkpt lat="4.8450140" lon="-75.4055730">
        <ele>3934.5</ele>
        <time>2021-04-17T19:29:32Z</time>
      </trkpt>
      <trkpt lat="4.8450200" lon="-75.4055950">
        <ele>3934.6</ele>
        <time>2021-04-17T19:29:33Z</time>
      </trkpt>
      <trkpt lat="4.8450280" lon="-75.4056170">
        <ele>3934.7</ele>
        <time>2021-04-17T19:29:34Z</time>
      </trkpt>
      <trkpt lat="4.8450360" lon="-75.4056380">
        <ele>3934.7</ele>
        <time>2021-04-17T19:29:35Z</time>
      </trkpt>
      <trkpt lat="4.8450440" lon="-75.4056590">
        <ele>3934.8</ele>
        <time>2021-04-17T19:29:36Z</time>
      </trkpt>
      <trkpt lat="4.8450510" lon="-75.4056800">
        <ele>3934.8</ele>
        <time>2021-04-17T19:29:37Z</time>
      </trkpt>
      <trkpt lat="4.8450580" lon="-75.4057010">
        <ele>3934.9</ele>
        <time>2021-04-17T19:29:38Z</time>
      </trkpt>
      <trkpt lat="4.8450640" lon="-75.4057200">
        <ele>3934.9</ele>
        <time>2021-04-17T19:29:39Z</time>
      </trkpt>
      <trkpt lat="4.8450720" lon="-75.4057390">
        <ele>3935.0</ele>
        <time>2021-04-17T19:29:40Z</time>
      </trkpt>
      <trkpt lat="4.8450810" lon="-75.4057590">
        <ele>3935.1</ele>
        <time>2021-04-17T19:29:41Z</time>
      </trkpt>
      <trkpt lat="4.8450900" lon="-75.4057780">
        <ele>3935.1</ele>
        <time>2021-04-17T19:29:42Z</time>
      </trkpt>
      <trkpt lat="4.8450970" lon="-75.4057980">
        <ele>3935.2</ele>
        <time>2021-04-17T19:29:43Z</time>
      </trkpt>
      <trkpt lat="4.8451050" lon="-75.4058190">
        <ele>3935.2</ele>
        <time>2021-04-17T19:29:44Z</time>
      </trkpt>
      <trkpt lat="4.8451140" lon="-75.4058400">
        <ele>3935.3</ele>
        <time>2021-04-17T19:29:45Z</time>
      </trkpt>
      <trkpt lat="4.8451240" lon="-75.4058600">
        <ele>3935.3</ele>
        <time>2021-04-17T19:29:46Z</time>
      </trkpt>
      <trkpt lat="4.8451330" lon="-75.4058800">
        <ele>3935.4</ele>
        <time>2021-04-17T19:29:47Z</time>
      </trkpt>
      <trkpt lat="4.8451420" lon="-75.4059000">
        <ele>3935.5</ele>
        <time>2021-04-17T19:29:48Z</time>
      </trkpt>
      <trkpt lat="4.8451510" lon="-75.4059190">
        <ele>3935.5</ele>
        <time>2021-04-17T19:29:49Z</time>
      </trkpt>
      <trkpt lat="4.8451580" lon="-75.4059370">
        <ele>3935.6</ele>
        <time>2021-04-17T19:29:50Z</time>
      </trkpt>
      <trkpt lat="4.8451650" lon="-75.4059570">
        <ele>3935.6</ele>
        <time>2021-04-17T19:29:51Z</time>
      </trkpt>
      <trkpt lat="4.8451740" lon="-75.4059760">
        <ele>3935.7</ele>
        <time>2021-04-17T19:29:52Z</time>
      </trkpt>
      <trkpt lat="4.8451830" lon="-75.4059970">
        <ele>3935.7</ele>
        <time>2021-04-17T19:29:53Z</time>
      </trkpt>
      <trkpt lat="4.8451910" lon="-75.4060180">
        <ele>3935.8</ele>
        <time>2021-04-17T19:29:54Z</time>
      </trkpt>
      <trkpt lat="4.8452010" lon="-75.4060390">
        <ele>3935.8</ele>
        <time>2021-04-17T19:29:55Z</time>
      </trkpt>
      <trkpt lat="4.8452100" lon="-75.4060600">
        <ele>3935.9</ele>
        <time>2021-04-17T19:29:56Z</time>
      </trkpt>
      <trkpt lat="4.8452190" lon="-75.4060820">
        <ele>3936.0</ele>
        <time>2021-04-17T19:29:57Z</time>
      </trkpt>
      <trkpt lat="4.8452280" lon="-75.4061020">
        <ele>3936.0</ele>
        <time>2021-04-17T19:29:58Z</time>
      </trkpt>
      <trkpt lat="4.8452380" lon="-75.4061230">
        <ele>3936.1</ele>
        <time>2021-04-17T19:29:59Z</time>
      </trkpt>
      <trkpt lat="4.8452480" lon="-75.4061450">
        <ele>3936.1</ele>
        <time>2021-04-17T19:30:00Z</time>
      </trkpt>
      <trkpt lat="4.8452580" lon="-75.4061660">
        <ele>3936.2</ele>
        <time>2021-04-17T19:30:01Z</time>
      </trkpt>
      <trkpt lat="4.8452680" lon="-75.4061880">
        <ele>3936.3</ele>
        <time>2021-04-17T19:30:02Z</time>
      </trkpt>
      <trkpt lat="4.8452770" lon="-75.4062100">
        <ele>3936.3</ele>
        <time>2021-04-17T19:30:03Z</time>
      </trkpt>
      <trkpt lat="4.8452860" lon="-75.4062320">
        <ele>3936.4</ele>
        <time>2021-04-17T19:30:04Z</time>
      </trkpt>
      <trkpt lat="4.8452950" lon="-75.4062540">
        <ele>3936.4</ele>
        <time>2021-04-17T19:30:05Z</time>
      </trkpt>
      <trkpt lat="4.8453030" lon="-75.4062750">
        <ele>3936.5</ele>
        <time>2021-04-17T19:30:06Z</time>
      </trkpt>
      <trkpt lat="4.8453100" lon="-75.4062970">
        <ele>3936.6</ele>
        <time>2021-04-17T19:30:07Z</time>
      </trkpt>
      <trkpt lat="4.8453180" lon="-75.4063160">
        <ele>3936.6</ele>
        <time>2021-04-17T19:30:08Z</time>
      </trkpt>
      <trkpt lat="4.8453260" lon="-75.4063350">
        <ele>3936.7</ele>
        <time>2021-04-17T19:30:09Z</time>
      </trkpt>
      <trkpt lat="4.8453330" lon="-75.4063520">
        <ele>3936.7</ele>
        <time>2021-04-17T19:30:10Z</time>
      </trkpt>
      <trkpt lat="4.8453380" lon="-75.4063690">
        <ele>3936.8</ele>
        <time>2021-04-17T19:30:11Z</time>
      </trkpt>
      <trkpt lat="4.8453430" lon="-75.4063860">
        <ele>3936.8</ele>
        <time>2021-04-17T19:30:12Z</time>
      </trkpt>
      <trkpt lat="4.8453490" lon="-75.4064030">
        <ele>3936.9</ele>
        <time>2021-04-17T19:30:13Z</time>
      </trkpt>
      <trkpt lat="4.8453550" lon="-75.4064200">
        <ele>3936.9</ele>
        <time>2021-04-17T19:30:14Z</time>
      </trkpt>
      <trkpt lat="4.8453620" lon="-75.4064380">
        <ele>3937.0</ele>
        <time>2021-04-17T19:30:15Z</time>
      </trkpt>
      <trkpt lat="4.8453680" lon="-75.4064560">
        <ele>3937.0</ele>
        <time>2021-04-17T19:30:16Z</time>
      </trkpt>
      <trkpt lat="4.8453740" lon="-75.4064740">
        <ele>3937.0</ele>
        <time>2021-04-17T19:30:17Z</time>
      </trkpt>
      <trkpt lat="4.8453800" lon="-75.4064930">
        <ele>3937.1</ele>
        <time>2021-04-17T19:30:18Z</time>
      </trkpt>
      <trkpt lat="4.8453870" lon="-75.4065110">
        <ele>3937.2</ele>
        <time>2021-04-17T19:30:19Z</time>
      </trkpt>
      <trkpt lat="4.8453930" lon="-75.4065300">
        <ele>3937.2</ele>
        <time>2021-04-17T19:30:20Z</time>
      </trkpt>
      <trkpt lat="4.8454000" lon="-75.4065490">
        <ele>3937.3</ele>
        <time>2021-04-17T19:30:21Z</time>
      </trkpt>
      <trkpt lat="4.8454040" lon="-75.4065670">
        <ele>3937.3</ele>
        <time>2021-04-17T19:30:22Z</time>
      </trkpt>
      <trkpt lat="4.8454090" lon="-75.4065870">
        <ele>3937.4</ele>
        <time>2021-04-17T19:30:23Z</time>
      </trkpt>
      <trkpt lat="4.8454140" lon="-75.4066060">
        <ele>3937.4</ele>
        <time>2021-04-17T19:30:24Z</time>
      </trkpt>
      <trkpt lat="4.8454190" lon="-75.4066250">
        <ele>3937.5</ele>
        <time>2021-04-17T19:30:25Z</time>
      </trkpt>
      <trkpt lat="4.8454240" lon="-75.4066450">
        <ele>3937.5</ele>
        <time>2021-04-17T19:30:26Z</time>
      </trkpt>
      <trkpt lat="4.8454280" lon="-75.4066640">
        <ele>3937.6</ele>
        <time>2021-04-17T19:30:27Z</time>
      </trkpt>
      <trkpt lat="4.8454340" lon="-75.4066830">
        <ele>3937.6</ele>
        <time>2021-04-17T19:30:28Z</time>
      </trkpt>
      <trkpt lat="4.8454400" lon="-75.4067020">
        <ele>3937.7</ele>
        <time>2021-04-17T19:30:29Z</time>
      </trkpt>
      <trkpt lat="4.8454450" lon="-75.4067220">
        <ele>3937.7</ele>
        <time>2021-04-17T19:30:30Z</time>
      </trkpt>
      <trkpt lat="4.8454500" lon="-75.4067410">
        <ele>3937.8</ele>
        <time>2021-04-17T19:30:31Z</time>
      </trkpt>
      <trkpt lat="4.8454550" lon="-75.4067610">
        <ele>3937.8</ele>
        <time>2021-04-17T19:30:32Z</time>
      </trkpt>
      <trkpt lat="4.8454580" lon="-75.4067820">
        <ele>3937.9</ele>
        <time>2021-04-17T19:30:33Z</time>
      </trkpt>
      <trkpt lat="4.8454610" lon="-75.4068020">
        <ele>3937.9</ele>
        <time>2021-04-17T19:30:34Z</time>
      </trkpt>
      <trkpt lat="4.8454640" lon="-75.4068210">
        <ele>3938.0</ele>
        <time>2021-04-17T19:30:35Z</time>
      </trkpt>
      <trkpt lat="4.8454660" lon="-75.4068410">
        <ele>3938.0</ele>
        <time>2021-04-17T19:30:36Z</time>
      </trkpt>
      <trkpt lat="4.8454670" lon="-75.4068590">
        <ele>3938.1</ele>
        <time>2021-04-17T19:30:37Z</time>
      </trkpt>
      <trkpt lat="4.8454670" lon="-75.4068780">
        <ele>3938.1</ele>
        <time>2021-04-17T19:30:38Z</time>
      </trkpt>
      <trkpt lat="4.8454670" lon="-75.4068970">
        <ele>3938.2</ele>
        <time>2021-04-17T19:30:39Z</time>
      </trkpt>
      <trkpt lat="4.8454670" lon="-75.4069150">
        <ele>3938.2</ele>
        <time>2021-04-17T19:30:40Z</time>
      </trkpt>
      <trkpt lat="4.8454640" lon="-75.4069330">
        <ele>3938.3</ele>
        <time>2021-04-17T19:30:41Z</time>
      </trkpt>
      <trkpt lat="4.8454600" lon="-75.4069510">
        <ele>3938.3</ele>
        <time>2021-04-17T19:30:42Z</time>
      </trkpt>
      <trkpt lat="4.8454560" lon="-75.4069710">
        <ele>3938.4</ele>
        <time>2021-04-17T19:30:43Z</time>
      </trkpt>
      <trkpt lat="4.8454530" lon="-75.4069890">
        <ele>3938.4</ele>
        <time>2021-04-17T19:30:44Z</time>
      </trkpt>
      <trkpt lat="4.8454490" lon="-75.4070070">
        <ele>3938.5</ele>
        <time>2021-04-17T19:30:45Z</time>
      </trkpt>
      <trkpt lat="4.8454430" lon="-75.4070260">
        <ele>3938.5</ele>
        <time>2021-04-17T19:30:46Z</time>
      </trkpt>
      <trkpt lat="4.8454370" lon="-75.4070450">
        <ele>3938.6</ele>
        <time>2021-04-17T19:30:47Z</time>
      </trkpt>
      <trkpt lat="4.8454320" lon="-75.4070640">
        <ele>3938.6</ele>
        <time>2021-04-17T19:30:48Z</time>
      </trkpt>
      <trkpt lat="4.8454270" lon="-75.4070830">
        <ele>3938.7</ele>
        <time>2021-04-17T19:30:49Z</time>
      </trkpt>
      <trkpt lat="4.8454240" lon="-75.4071040">
        <ele>3938.7</ele>
        <time>2021-04-17T19:30:50Z</time>
      </trkpt>
      <trkpt lat="4.8454220" lon="-75.4071240">
        <ele>3938.8</ele>
        <time>2021-04-17T19:30:51Z</time>
      </trkpt>
      <trkpt lat="4.8454180" lon="-75.4071440">
        <ele>3938.8</ele>
        <time>2021-04-17T19:30:52Z</time>
      </trkpt>
      <trkpt lat="4.8454130" lon="-75.4071620">
        <ele>3938.9</ele>
        <time>2021-04-17T19:30:53Z</time>
      </trkpt>
      <trkpt lat="4.8454090" lon="-75.4071800">
        <ele>3938.9</ele>
        <time>2021-04-17T19:30:54Z</time>
      </trkpt>
      <trkpt lat="4.8454020" lon="-75.4071980">
        <ele>3939.0</ele>
        <time>2021-04-17T19:30:55Z</time>
      </trkpt>
      <trkpt lat="4.8453950" lon="-75.4072140">
        <ele>3939.0</ele>
        <time>2021-04-17T19:30:56Z</time>
      </trkpt>
      <trkpt lat="4.8453870" lon="-75.4072300">
        <ele>3939.1</ele>
        <time>2021-04-17T19:30:57Z</time>
      </trkpt>
      <trkpt lat="4.8453750" lon="-75.4072440">
        <ele>3939.1</ele>
        <time>2021-04-17T19:30:58Z</time>
      </trkpt>
      <trkpt lat="4.8453620" lon="-75.4072560">
        <ele>3939.2</ele>
        <time>2021-04-17T19:30:59Z</time>
      </trkpt>
      <trkpt lat="4.8453460" lon="-75.4072650">
        <ele>3939.2</ele>
        <time>2021-04-17T19:31:00Z</time>
      </trkpt>
      <trkpt lat="4.8453270" lon="-75.4072720">
        <ele>3939.3</ele>
        <time>2021-04-17T19:31:01Z</time>
      </trkpt>
      <trkpt lat="4.8453070" lon="-75.4072760">
        <ele>3939.3</ele>
        <time>2021-04-17T19:31:02Z</time>
      </trkpt>
      <trkpt lat="4.8452890" lon="-75.4072770">
        <ele>3939.3</ele>
        <time>2021-04-17T19:31:03Z</time>
      </trkpt>
      <trkpt lat="4.8452710" lon="-75.4072720">
        <ele>3939.4</ele>
        <time>2021-04-17T19:31:04Z</time>
      </trkpt>
      <trkpt lat="4.8452550" lon="-75.4072640">
        <ele>3939.4</ele>
        <time>2021-04-17T19:31:05Z</time>
      </trkpt>
      <trkpt lat="4.8452400" lon="-75.4072550">
        <ele>3939.5</ele>
        <time>2021-04-17T19:31:06Z</time>
      </trkpt>
      <trkpt lat="4.8452260" lon="-75.4072450">
        <ele>3939.5</ele>
        <time>2021-04-17T19:31:07Z</time>
      </trkpt>
      <trkpt lat="4.8452130" lon="-75.4072330">
        <ele>3939.6</ele>
        <time>2021-04-17T19:31:08Z</time>
      </trkpt>
      <trkpt lat="4.8451990" lon="-75.4072190">
        <ele>3939.6</ele>
        <time>2021-04-17T19:31:09Z</time>
      </trkpt>
      <trkpt lat="4.8451840" lon="-75.4072050">
        <ele>3939.7</ele>
        <time>2021-04-17T19:31:10Z</time>
      </trkpt>
      <trkpt lat="4.8451690" lon="-75.4071920">
        <ele>3939.7</ele>
        <time>2021-04-17T19:31:11Z</time>
      </trkpt>
      <trkpt lat="4.8451550" lon="-75.4071770">
        <ele>3939.8</ele>
        <time>2021-04-17T19:31:12Z</time>
      </trkpt>
      <trkpt lat="4.8451420" lon="-75.4071640">
        <ele>3939.8</ele>
        <time>2021-04-17T19:31:13Z</time>
      </trkpt>
      <trkpt lat="4.8451280" lon="-75.4071510">
        <ele>3939.9</ele>
        <time>2021-04-17T19:31:14Z</time>
      </trkpt>
      <trkpt lat="4.8451150" lon="-75.4071370">
        <ele>3939.9</ele>
        <time>2021-04-17T19:31:15Z</time>
      </trkpt>
      <trkpt lat="4.8450990" lon="-75.4071200">
        <ele>3940.0</ele>
        <time>2021-04-17T19:31:16Z</time>
      </trkpt>
      <trkpt lat="4.8450830" lon="-75.4071020">
        <ele>3940.1</ele>
        <time>2021-04-17T19:31:17Z</time>
      </trkpt>
      <trkpt lat="4.8450660" lon="-75.4070840">
        <ele>3940.1</ele>
        <time>2021-04-17T19:31:18Z</time>
      </trkpt>
      <trkpt lat="4.8450480" lon="-75.4070670">
        <ele>3940.2</ele>
        <time>2021-04-17T19:31:19Z</time>
      </trkpt>
      <trkpt lat="4.8450300" lon="-75.4070490">
        <ele>3940.2</ele>
        <time>2021-04-17T19:31:20Z</time>
      </trkpt>
      <trkpt lat="4.8450120" lon="-75.4070310">
        <ele>3940.3</ele>
        <time>2021-04-17T19:31:21Z</time>
      </trkpt>
      <trkpt lat="4.8449940" lon="-75.4070140">
        <ele>3940.4</ele>
        <time>2021-04-17T19:31:22Z</time>
      </trkpt>
      <trkpt lat="4.8449760" lon="-75.4069970">
        <ele>3940.4</ele>
        <time>2021-04-17T19:31:23Z</time>
      </trkpt>
      <trkpt lat="4.8449590" lon="-75.4069800">
        <ele>3940.5</ele>
        <time>2021-04-17T19:31:24Z</time>
      </trkpt>
      <trkpt lat="4.8449420" lon="-75.4069640">
        <ele>3940.6</ele>
        <time>2021-04-17T19:31:25Z</time>
      </trkpt>
      <trkpt lat="4.8449250" lon="-75.4069490">
        <ele>3940.6</ele>
        <time>2021-04-17T19:31:26Z</time>
      </trkpt>
      <trkpt lat="4.8449090" lon="-75.4069340">
        <ele>3940.7</ele>
        <time>2021-04-17T19:31:27Z</time>
      </trkpt>
      <trkpt lat="4.8448930" lon="-75.4069210">
        <ele>3940.7</ele>
        <time>2021-04-17T19:31:28Z</time>
      </trkpt>
      <trkpt lat="4.8448770" lon="-75.4069070">
        <ele>3940.8</ele>
        <time>2021-04-17T19:31:29Z</time>
      </trkpt>
      <trkpt lat="4.8448600" lon="-75.4068900">
        <ele>3940.9</ele>
        <time>2021-04-17T19:31:30Z</time>
      </trkpt>
      <trkpt lat="4.8448420" lon="-75.4068760">
        <ele>3940.9</ele>
        <time>2021-04-17T19:31:31Z</time>
      </trkpt>
      <trkpt lat="4.8448260" lon="-75.4068640">
        <ele>3941.0</ele>
        <time>2021-04-17T19:31:32Z</time>
      </trkpt>
      <trkpt lat="4.8448120" lon="-75.4068500">
        <ele>3941.0</ele>
        <time>2021-04-17T19:31:33Z</time>
      </trkpt>
      <trkpt lat="4.8448000" lon="-75.4068340">
        <ele>3941.1</ele>
        <time>2021-04-17T19:31:34Z</time>
      </trkpt>
      <trkpt lat="4.8447870" lon="-75.4068170">
        <ele>3941.1</ele>
        <time>2021-04-17T19:31:35Z</time>
      </trkpt>
      <trkpt lat="4.8447730" lon="-75.4068020">
        <ele>3941.2</ele>
        <time>2021-04-17T19:31:36Z</time>
      </trkpt>
      <trkpt lat="4.8447570" lon="-75.4067870">
        <ele>3941.2</ele>
        <time>2021-04-17T19:31:37Z</time>
      </trkpt>
      <trkpt lat="4.8447400" lon="-75.4067730">
        <ele>3941.3</ele>
        <time>2021-04-17T19:31:38Z</time>
      </trkpt>
      <trkpt lat="4.8447230" lon="-75.4067590">
        <ele>3941.3</ele>
        <time>2021-04-17T19:31:39Z</time>
      </trkpt>
      <trkpt lat="4.8447060" lon="-75.4067440">
        <ele>3941.4</ele>
        <time>2021-04-17T19:31:40Z</time>
      </trkpt>
      <trkpt lat="4.8446890" lon="-75.4067270">
        <ele>3941.5</ele>
        <time>2021-04-17T19:31:41Z</time>
      </trkpt>
      <trkpt lat="4.8446710" lon="-75.4067110">
        <ele>3941.5</ele>
        <time>2021-04-17T19:31:42Z</time>
      </trkpt>
      <trkpt lat="4.8446540" lon="-75.4066950">
        <ele>3941.6</ele>
        <time>2021-04-17T19:31:43Z</time>
      </trkpt>
      <trkpt lat="4.8446370" lon="-75.4066790">
        <ele>3941.6</ele>
        <time>2021-04-17T19:31:44Z</time>
      </trkpt>
      <trkpt lat="4.8446200" lon="-75.4066640">
        <ele>3941.7</ele>
        <time>2021-04-17T19:31:45Z</time>
      </trkpt>
      <trkpt lat="4.8446030" lon="-75.4066510">
        <ele>3941.8</ele>
        <time>2021-04-17T19:31:46Z</time>
      </trkpt>
      <trkpt lat="4.8445860" lon="-75.4066370">
        <ele>3941.8</ele>
        <time>2021-04-17T19:31:47Z</time>
      </trkpt>
      <trkpt lat="4.8445680" lon="-75.4066250">
        <ele>3941.9</ele>
        <time>2021-04-17T19:31:48Z</time>
      </trkpt>
      <trkpt lat="4.8445500" lon="-75.4066120">
        <ele>3941.9</ele>
        <time>2021-04-17T19:31:49Z</time>
      </trkpt>
      <trkpt lat="4.8445330" lon="-75.4065970">
        <ele>3942.0</ele>
        <time>2021-04-17T19:31:50Z</time>
      </trkpt>
      <trkpt lat="4.8445170" lon="-75.4065800">
        <ele>3942.0</ele>
        <time>2021-04-17T19:31:51Z</time>
      </trkpt>
      <trkpt lat="4.8444990" lon="-75.4065630">
        <ele>3942.1</ele>
        <time>2021-04-17T19:31:52Z</time>
      </trkpt>
      <trkpt lat="4.8444790" lon="-75.4065470">
        <ele>3942.2</ele>
        <time>2021-04-17T19:31:53Z</time>
      </trkpt>
      <trkpt lat="4.8444590" lon="-75.4065310">
        <ele>3942.2</ele>
        <time>2021-04-17T19:31:54Z</time>
      </trkpt>
      <trkpt lat="4.8444400" lon="-75.4065140">
        <ele>3942.3</ele>
        <time>2021-04-17T19:31:55Z</time>
      </trkpt>
      <trkpt lat="4.8444210" lon="-75.4064970">
        <ele>3942.4</ele>
        <time>2021-04-17T19:31:56Z</time>
      </trkpt>
      <trkpt lat="4.8444020" lon="-75.4064790">
        <ele>3942.4</ele>
        <time>2021-04-17T19:31:57Z</time>
      </trkpt>
      <trkpt lat="4.8443830" lon="-75.4064620">
        <ele>3942.5</ele>
        <time>2021-04-17T19:31:58Z</time>
      </trkpt>
      <trkpt lat="4.8443640" lon="-75.4064440">
        <ele>3942.6</ele>
        <time>2021-04-17T19:31:59Z</time>
      </trkpt>
      <trkpt lat="4.8443440" lon="-75.4064260">
        <ele>3942.6</ele>
        <time>2021-04-17T19:32:00Z</time>
      </trkpt>
      <trkpt lat="4.8443250" lon="-75.4064080">
        <ele>3942.7</ele>
        <time>2021-04-17T19:32:01Z</time>
      </trkpt>
      <trkpt lat="4.8443060" lon="-75.4063880">
        <ele>3942.8</ele>
        <time>2021-04-17T19:32:02Z</time>
      </trkpt>
      <trkpt lat="4.8442860" lon="-75.4063690">
        <ele>3942.9</ele>
        <time>2021-04-17T19:32:03Z</time>
      </trkpt>
      <trkpt lat="4.8442650" lon="-75.4063520">
        <ele>3942.9</ele>
        <time>2021-04-17T19:32:04Z</time>
      </trkpt>
      <trkpt lat="4.8442430" lon="-75.4063350">
        <ele>3943.0</ele>
        <time>2021-04-17T19:32:05Z</time>
      </trkpt>
      <trkpt lat="4.8442230" lon="-75.4063180">
        <ele>3943.1</ele>
        <time>2021-04-17T19:32:06Z</time>
      </trkpt>
      <trkpt lat="4.8442030" lon="-75.4063020">
        <ele>3943.1</ele>
        <time>2021-04-17T19:32:07Z</time>
      </trkpt>
      <trkpt lat="4.8441830" lon="-75.4062850">
        <ele>3943.2</ele>
        <time>2021-04-17T19:32:08Z</time>
      </trkpt>
      <trkpt lat="4.8441630" lon="-75.4062670">
        <ele>3943.3</ele>
        <time>2021-04-17T19:32:09Z</time>
      </trkpt>
      <trkpt lat="4.8441430" lon="-75.4062500">
        <ele>3943.3</ele>
        <time>2021-04-17T19:32:10Z</time>
      </trkpt>
      <trkpt lat="4.8441230" lon="-75.4062320">
        <ele>3943.4</ele>
        <time>2021-04-17T19:32:11Z</time>
      </trkpt>
      <trkpt lat="4.8441040" lon="-75.4062150">
        <ele>3943.5</ele>
        <time>2021-04-17T19:32:12Z</time>
      </trkpt>
      <trkpt lat="4.8440860" lon="-75.4061980">
        <ele>3943.5</ele>
        <time>2021-04-17T19:32:13Z</time>
      </trkpt>
      <trkpt lat="4.8440660" lon="-75.4061820">
        <ele>3943.6</ele>
        <time>2021-04-17T19:32:14Z</time>
      </trkpt>
      <trkpt lat="4.8440440" lon="-75.4061680">
        <ele>3943.7</ele>
        <time>2021-04-17T19:32:15Z</time>
      </trkpt>
      <trkpt lat="4.8440220" lon="-75.4061560">
        <ele>3943.7</ele>
        <time>2021-04-17T19:32:16Z</time>
      </trkpt>
      <trkpt lat="4.8440010" lon="-75.4061410">
        <ele>3943.8</ele>
        <time>2021-04-17T19:32:17Z</time>
      </trkpt>
      <trkpt lat="4.8439810" lon="-75.4061250">
        <ele>3943.9</ele>
        <time>2021-04-17T19:32:18Z</time>
      </trkpt>
      <trkpt lat="4.8439600" lon="-75.4061100">
        <ele>3943.9</ele>
        <time>2021-04-17T19:32:19Z</time>
      </trkpt>
      <trkpt lat="4.8439400" lon="-75.4060950">
        <ele>3944.0</ele>
        <time>2021-04-17T19:32:20Z</time>
      </trkpt>
      <trkpt lat="4.8439200" lon="-75.4060800">
        <ele>3944.1</ele>
        <time>2021-04-17T19:32:21Z</time>
      </trkpt>
      <trkpt lat="4.8439000" lon="-75.4060660">
        <ele>3944.1</ele>
        <time>2021-04-17T19:32:22Z</time>
      </trkpt>
      <trkpt lat="4.8438800" lon="-75.4060520">
        <ele>3944.2</ele>
        <time>2021-04-17T19:32:23Z</time>
      </trkpt>
      <trkpt lat="4.8438590" lon="-75.4060390">
        <ele>3944.2</ele>
        <time>2021-04-17T19:32:24Z</time>
      </trkpt>
      <trkpt lat="4.8438370" lon="-75.4060300">
        <ele>3944.3</ele>
        <time>2021-04-17T19:32:25Z</time>
      </trkpt>
      <trkpt lat="4.8438130" lon="-75.4060260">
        <ele>3944.4</ele>
        <time>2021-04-17T19:32:26Z</time>
      </trkpt>
      <trkpt lat="4.8437870" lon="-75.4060240">
        <ele>3944.4</ele>
        <time>2021-04-17T19:32:27Z</time>
      </trkpt>
      <trkpt lat="4.8437590" lon="-75.4060230">
        <ele>3944.5</ele>
        <time>2021-04-17T19:32:28Z</time>
      </trkpt>
      <trkpt lat="4.8437320" lon="-75.4060250">
        <ele>3944.6</ele>
        <time>2021-04-17T19:32:29Z</time>
      </trkpt>
      <trkpt lat="4.8437050" lon="-75.4060310">
        <ele>3944.7</ele>
        <time>2021-04-17T19:32:30Z</time>
      </trkpt>
      <trkpt lat="4.8436780" lon="-75.4060420">
        <ele>3944.7</ele>
        <time>2021-04-17T19:32:31Z</time>
      </trkpt>
      <trkpt lat="4.8436510" lon="-75.4060560">
        <ele>3944.8</ele>
        <time>2021-04-17T19:32:32Z</time>
      </trkpt>
      <trkpt lat="4.8436270" lon="-75.4060760">
        <ele>3944.9</ele>
        <time>2021-04-17T19:32:33Z</time>
      </trkpt>
      <trkpt lat="4.8436030" lon="-75.4061000">
        <ele>3945.0</ele>
        <time>2021-04-17T19:32:34Z</time>
      </trkpt>
      <trkpt lat="4.8435840" lon="-75.4061280">
        <ele>3945.1</ele>
        <time>2021-04-17T19:32:35Z</time>
      </trkpt>
      <trkpt lat="4.8435670" lon="-75.4061590">
        <ele>3945.2</ele>
        <time>2021-04-17T19:32:36Z</time>
      </trkpt>
      <trkpt lat="4.8435530" lon="-75.4061910">
        <ele>3945.2</ele>
        <time>2021-04-17T19:32:37Z</time>
      </trkpt>
      <trkpt lat="4.8435430" lon="-75.4062240">
        <ele>3945.3</ele>
        <time>2021-04-17T19:32:38Z</time>
      </trkpt>
      <trkpt lat="4.8435360" lon="-75.4062570">
        <ele>3945.4</ele>
        <time>2021-04-17T19:32:39Z</time>
      </trkpt>
      <trkpt lat="4.8435280" lon="-75.4062900">
        <ele>3945.5</ele>
        <time>2021-04-17T19:32:40Z</time>
      </trkpt>
      <trkpt lat="4.8435170" lon="-75.4063210">
        <ele>3945.6</ele>
        <time>2021-04-17T19:32:41Z</time>
      </trkpt>
      <trkpt lat="4.8435040" lon="-75.4063520">
        <ele>3945.7</ele>
        <time>2021-04-17T19:32:42Z</time>
      </trkpt>
      <trkpt lat="4.8434870" lon="-75.4063830">
        <ele>3945.8</ele>
        <time>2021-04-17T19:32:43Z</time>
      </trkpt>
      <trkpt lat="4.8434670" lon="-75.4064150">
        <ele>3945.9</ele>
        <time>2021-04-17T19:32:44Z</time>
      </trkpt>
      <trkpt lat="4.8434430" lon="-75.4064470">
        <ele>3946.0</ele>
        <time>2021-04-17T19:32:45Z</time>
      </trkpt>
      <trkpt lat="4.8434150" lon="-75.4064780">
        <ele>3946.1</ele>
        <time>2021-04-17T19:32:46Z</time>
      </trkpt>
      <trkpt lat="4.8433820" lon="-75.4065070">
        <ele>3946.2</ele>
        <time>2021-04-17T19:32:47Z</time>
      </trkpt>
      <trkpt lat="4.8433460" lon="-75.4065340">
        <ele>3946.3</ele>
        <time>2021-04-17T19:32:48Z</time>
      </trkpt>
      <trkpt lat="4.8433050" lon="-75.4065570">
        <ele>3946.4</ele>
        <time>2021-04-17T19:32:49Z</time>
      </trkpt>
      <trkpt lat="4.8432650" lon="-75.4065780">
        <ele>3946.5</ele>
        <time>2021-04-17T19:32:50Z</time>
      </trkpt>
      <trkpt lat="4.8432230" lon="-75.4065960">
        <ele>3946.7</ele>
        <time>2021-04-17T19:32:51Z</time>
      </trkpt>
      <trkpt lat="4.8431790" lon="-75.4066070">
        <ele>3946.8</ele>
        <time>2021-04-17T19:32:52Z</time>
      </trkpt>
      <trkpt lat="4.8431330" lon="-75.4066150">
        <ele>3946.9</ele>
        <time>2021-04-17T19:32:53Z</time>
      </trkpt>
      <trkpt lat="4.8430850" lon="-75.4066210">
        <ele>3947.0</ele>
        <time>2021-04-17T19:32:54Z</time>
      </trkpt>
      <trkpt lat="4.8430370" lon="-75.4066290">
        <ele>3947.2</ele>
        <time>2021-04-17T19:32:55Z</time>
      </trkpt>
      <trkpt lat="4.8429900" lon="-75.4066400">
        <ele>3947.3</ele>
        <time>2021-04-17T19:32:56Z</time>
      </trkpt>
      <trkpt lat="4.8429460" lon="-75.4066550">
        <ele>3947.4</ele>
        <time>2021-04-17T19:32:57Z</time>
      </trkpt>
      <trkpt lat="4.8429040" lon="-75.4066730">
        <ele>3947.5</ele>
        <time>2021-04-17T19:32:58Z</time>
      </trkpt>
      <trkpt lat="4.8428650" lon="-75.4066950">
        <ele>3947.6</ele>
        <time>2021-04-17T19:32:59Z</time>
      </trkpt>
      <trkpt lat="4.8428300" lon="-75.4067200">
        <ele>3947.7</ele>
        <time>2021-04-17T19:33:00Z</time>
      </trkpt>
      <trkpt lat="4.8427940" lon="-75.4067460">
        <ele>3947.9</ele>
        <time>2021-04-17T19:33:01Z</time>
      </trkpt>
      <trkpt lat="4.8427630" lon="-75.4067750">
        <ele>3948.0</ele>
        <time>2021-04-17T19:33:02Z</time>
      </trkpt>
      <trkpt lat="4.8427420" lon="-75.4068130">
        <ele>3948.1</ele>
        <time>2021-04-17T19:33:03Z</time>
      </trkpt>
      <trkpt lat="4.8427400" lon="-75.4068560">
        <ele>3948.2</ele>
        <time>2021-04-17T19:33:04Z</time>
      </trkpt>
      <trkpt lat="4.8427520" lon="-75.4068990">
        <ele>3948.3</ele>
        <time>2021-04-17T19:33:05Z</time>
      </trkpt>
      <trkpt lat="4.8427740" lon="-75.4069340">
        <ele>3948.4</ele>
        <time>2021-04-17T19:33:06Z</time>
      </trkpt>
      <trkpt lat="4.8428040" lon="-75.4069630">
        <ele>3948.5</ele>
        <time>2021-04-17T19:33:07Z</time>
      </trkpt>
      <trkpt lat="4.8428360" lon="-75.4069900">
        <ele>3948.6</ele>
        <time>2021-04-17T19:33:08Z</time>
      </trkpt>
      <trkpt lat="4.8428670" lon="-75.4070160">
        <ele>3948.7</ele>
        <time>2021-04-17T19:33:09Z</time>
      </trkpt>
      <trkpt lat="4.8429000" lon="-75.4070460">
        <ele>3948.8</ele>
        <time>2021-04-17T19:33:10Z</time>
      </trkpt>
      <trkpt lat="4.8429300" lon="-75.4070790">
        <ele>3949.0</ele>
        <time>2021-04-17T19:33:11Z</time>
      </trkpt>
      <trkpt lat="4.8429580" lon="-75.4071180">
        <ele>3949.1</ele>
        <time>2021-04-17T19:33:12Z</time>
      </trkpt>
      <trkpt lat="4.8429860" lon="-75.4071590">
        <ele>3949.2</ele>
        <time>2021-04-17T19:33:13Z</time>
      </trkpt>
      <trkpt lat="4.8430160" lon="-75.4072000">
        <ele>3949.3</ele>
        <time>2021-04-17T19:33:14Z</time>
      </trkpt>
      <trkpt lat="4.8430510" lon="-75.4072370">
        <ele>3949.5</ele>
        <time>2021-04-17T19:33:15Z</time>
      </trkpt>
      <trkpt lat="4.8430900" lon="-75.4072700">
        <ele>3949.6</ele>
        <time>2021-04-17T19:33:16Z</time>
      </trkpt>
      <trkpt lat="4.8431340" lon="-75.4072980">
        <ele>3949.7</ele>
        <time>2021-04-17T19:33:17Z</time>
      </trkpt>
      <trkpt lat="4.8431770" lon="-75.4073230">
        <ele>3949.9</ele>
        <time>2021-04-17T19:33:18Z</time>
      </trkpt>
      <trkpt lat="4.8432170" lon="-75.4073490">
        <ele>3950.0</ele>
        <time>2021-04-17T19:33:19Z</time>
      </trkpt>
      <trkpt lat="4.8432530" lon="-75.4073770">
        <ele>3950.1</ele>
        <time>2021-04-17T19:33:20Z</time>
      </trkpt>
      <trkpt lat="4.8432830" lon="-75.4074100">
        <ele>3950.2</ele>
        <time>2021-04-17T19:33:21Z</time>
      </trkpt>
      <trkpt lat="4.8433060" lon="-75.4074480">
        <ele>3950.3</ele>
        <time>2021-04-17T19:33:22Z</time>
      </trkpt>
      <trkpt lat="4.8433210" lon="-75.4074910">
        <ele>3950.5</ele>
        <time>2021-04-17T19:33:23Z</time>
      </trkpt>
      <trkpt lat="4.8433320" lon="-75.4075380">
        <ele>3950.6</ele>
        <time>2021-04-17T19:33:24Z</time>
      </trkpt>
      <trkpt lat="4.8433360" lon="-75.4075860">
        <ele>3950.7</ele>
        <time>2021-04-17T19:33:25Z</time>
      </trkpt>
      <trkpt lat="4.8433340" lon="-75.4076340">
        <ele>3950.8</ele>
        <time>2021-04-17T19:33:26Z</time>
      </trkpt>
      <trkpt lat="4.8433320" lon="-75.4076830">
        <ele>3951.0</ele>
        <time>2021-04-17T19:33:27Z</time>
      </trkpt>
      <trkpt lat="4.8433310" lon="-75.4077310">
        <ele>3951.1</ele>
        <time>2021-04-17T19:33:28Z</time>
      </trkpt>
      <trkpt lat="4.8433360" lon="-75.4077780">
        <ele>3951.2</ele>
        <time>2021-04-17T19:33:29Z</time>
      </trkpt>
      <trkpt lat="4.8433420" lon="-75.4078270">
        <ele>3951.3</ele>
        <time>2021-04-17T19:33:30Z</time>
      </trkpt>
      <trkpt lat="4.8433430" lon="-75.4078750">
        <ele>3951.5</ele>
        <time>2021-04-17T19:33:31Z</time>
      </trkpt>
      <trkpt lat="4.8433390" lon="-75.4079220">
        <ele>3951.6</ele>
        <time>2021-04-17T19:33:32Z</time>
      </trkpt>
      <trkpt lat="4.8433300" lon="-75.4079670">
        <ele>3951.7</ele>
        <time>2021-04-17T19:33:33Z</time>
      </trkpt>
      <trkpt lat="4.8433150" lon="-75.4080100">
        <ele>3951.8</ele>
        <time>2021-04-17T19:33:34Z</time>
      </trkpt>
      <trkpt lat="4.8432930" lon="-75.4080520">
        <ele>3951.9</ele>
        <time>2021-04-17T19:33:35Z</time>
      </trkpt>
      <trkpt lat="4.8432680" lon="-75.4080910">
        <ele>3952.0</ele>
        <time>2021-04-17T19:33:36Z</time>
      </trkpt>
      <trkpt lat="4.8432380" lon="-75.4081300">
        <ele>3952.0</ele>
        <time>2021-04-17T19:33:37Z</time>
      </trkpt>
      <trkpt lat="4.8432080" lon="-75.4081700">
        <ele>3952.0</ele>
        <time>2021-04-17T19:33:38Z</time>
      </trkpt>
      <trkpt lat="4.8431780" lon="-75.4082100">
        <ele>3952.0</ele>
        <time>2021-04-17T19:33:39Z</time>
      </trkpt>
      <trkpt lat="4.8431440" lon="-75.4082480">
        <ele>3952.0</ele>
        <time>2021-04-17T19:33:40Z</time>
      </trkpt>
      <trkpt lat="4.8431070" lon="-75.4082860">
        <ele>3952.0</ele>
        <time>2021-04-17T19:33:41Z</time>
      </trkpt>
      <trkpt lat="4.8430670" lon="-75.4083240">
        <ele>3951.9</ele>
        <time>2021-04-17T19:33:42Z</time>
      </trkpt>
      <trkpt lat="4.8430260" lon="-75.4083620">
        <ele>3951.9</ele>
        <time>2021-04-17T19:33:43Z</time>
      </trkpt>
      <trkpt lat="4.8429860" lon="-75.4084000">
        <ele>3951.9</ele>
        <time>2021-04-17T19:33:44Z</time>
      </trkpt>
      <trkpt lat="4.8429490" lon="-75.4084410">
        <ele>3951.9</ele>
        <time>2021-04-17T19:33:45Z</time>
      </trkpt>
      <trkpt lat="4.8429140" lon="-75.4084820">
        <ele>3951.9</ele>
        <time>2021-04-17T19:33:46Z</time>
      </trkpt>
      <trkpt lat="4.8428810" lon="-75.4085230">
        <ele>3951.9</ele>
        <time>2021-04-17T19:33:47Z</time>
      </trkpt>
      <trkpt lat="4.8428470" lon="-75.4085630">
        <ele>3951.9</ele>
        <time>2021-04-17T19:33:48Z</time>
      </trkpt>
      <trkpt lat="4.8428150" lon="-75.4086020">
        <ele>3951.9</ele>
        <time>2021-04-17T19:33:49Z</time>
      </trkpt>
      <trkpt lat="4.8427840" lon="-75.4086400">
        <ele>3951.9</ele>
        <time>2021-04-17T19:33:50Z</time>
      </trkpt>
      <trkpt lat="4.8427550" lon="-75.4086770">
        <ele>3951.9</ele>
        <time>2021-04-17T19:33:51Z</time>
      </trkpt>
      <trkpt lat="4.8427260" lon="-75.4087120">
        <ele>3951.9</ele>
        <time>2021-04-17T19:33:52Z</time>
      </trkpt>
      <trkpt lat="4.8426990" lon="-75.4087460">
        <ele>3951.9</ele>
        <time>2021-04-17T19:33:53Z</time>
      </trkpt>
      <trkpt lat="4.8426730" lon="-75.4087810">
        <ele>3951.9</ele>
        <time>2021-04-17T19:33:54Z</time>
      </trkpt>
      <trkpt lat="4.8426480" lon="-75.4088150">
        <ele>3951.9</ele>
        <time>2021-04-17T19:33:55Z</time>
      </trkpt>
      <trkpt lat="4.8426210" lon="-75.4088480">
        <ele>3951.9</ele>
        <time>2021-04-17T19:33:56Z</time>
      </trkpt>
      <trkpt lat="4.8425910" lon="-75.4088800">
        <ele>3951.9</ele>
        <time>2021-04-17T19:33:57Z</time>
      </trkpt>
      <trkpt lat="4.8425600" lon="-75.4089110">
        <ele>3951.9</ele>
        <time>2021-04-17T19:33:58Z</time>
      </trkpt>
      <trkpt lat="4.8425300" lon="-75.4089420">
        <ele>3951.9</ele>
        <time>2021-04-17T19:33:59Z</time>
      </trkpt>
      <trkpt lat="4.8425000" lon="-75.4089730">
        <ele>3951.9</ele>
        <time>2021-04-17T19:34:00Z</time>
      </trkpt>
      <trkpt lat="4.8424720" lon="-75.4090060">
        <ele>3951.8</ele>
        <time>2021-04-17T19:34:01Z</time>
      </trkpt>
      <trkpt lat="4.8424450" lon="-75.4090400">
        <ele>3951.8</ele>
        <time>2021-04-17T19:34:02Z</time>
      </trkpt>
      <trkpt lat="4.8424190" lon="-75.4090770">
        <ele>3951.8</ele>
        <time>2021-04-17T19:34:03Z</time>
      </trkpt>
      <trkpt lat="4.8423930" lon="-75.4091120">
        <ele>3951.8</ele>
        <time>2021-04-17T19:34:04Z</time>
      </trkpt>
      <trkpt lat="4.8423670" lon="-75.4091450">
        <ele>3951.8</ele>
        <time>2021-04-17T19:34:05Z</time>
      </trkpt>
      <trkpt lat="4.8423400" lon="-75.4091760">
        <ele>3951.8</ele>
        <time>2021-04-17T19:34:06Z</time>
      </trkpt>
      <trkpt lat="4.8423110" lon="-75.4092050">
        <ele>3951.8</ele>
        <time>2021-04-17T19:34:07Z</time>
      </trkpt>
      <trkpt lat="4.8422790" lon="-75.4092350">
        <ele>3951.8</ele>
        <time>2021-04-17T19:34:08Z</time>
      </trkpt>
      <trkpt lat="4.8422480" lon="-75.4092660">
        <ele>3951.8</ele>
        <time>2021-04-17T19:34:09Z</time>
      </trkpt>
      <trkpt lat="4.8422160" lon="-75.4092990">
        <ele>3951.8</ele>
        <time>2021-04-17T19:34:10Z</time>
      </trkpt>
      <trkpt lat="4.8421850" lon="-75.4093320">
        <ele>3951.8</ele>
        <time>2021-04-17T19:34:11Z</time>
      </trkpt>
      <trkpt lat="4.8421530" lon="-75.4093650">
        <ele>3951.8</ele>
        <time>2021-04-17T19:34:12Z</time>
      </trkpt>
      <trkpt lat="4.8421190" lon="-75.4093950">
        <ele>3951.8</ele>
        <time>2021-04-17T19:34:13Z</time>
      </trkpt>
      <trkpt lat="4.8420830" lon="-75.4094230">
        <ele>3951.8</ele>
        <time>2021-04-17T19:34:14Z</time>
      </trkpt>
      <trkpt lat="4.8420460" lon="-75.4094490">
        <ele>3951.8</ele>
        <time>2021-04-17T19:34:15Z</time>
      </trkpt>
      <trkpt lat="4.8420100" lon="-75.4094720">
        <ele>3951.8</ele>
        <time>2021-04-17T19:34:16Z</time>
      </trkpt>
      <trkpt lat="4.8419740" lon="-75.4094930">
        <ele>3951.8</ele>
        <time>2021-04-17T19:34:17Z</time>
      </trkpt>
      <trkpt lat="4.8419390" lon="-75.4095140">
        <ele>3951.8</ele>
        <time>2021-04-17T19:34:18Z</time>
      </trkpt>
      <trkpt lat="4.8419030" lon="-75.4095340">
        <ele>3951.8</ele>
        <time>2021-04-17T19:34:19Z</time>
      </trkpt>
      <trkpt lat="4.8418650" lon="-75.4095510">
        <ele>3951.8</ele>
        <time>2021-04-17T19:34:20Z</time>
      </trkpt>
      <trkpt lat="4.8418270" lon="-75.4095690">
        <ele>3951.8</ele>
        <time>2021-04-17T19:34:21Z</time>
      </trkpt>
      <trkpt lat="4.8417880" lon="-75.4095870">
        <ele>3951.8</ele>
        <time>2021-04-17T19:34:22Z</time>
      </trkpt>
      <trkpt lat="4.8417520" lon="-75.4096090">
        <ele>3951.7</ele>
        <time>2021-04-17T19:34:23Z</time>
      </trkpt>
      <trkpt lat="4.8417190" lon="-75.4096330">
        <ele>3951.7</ele>
        <time>2021-04-17T19:34:24Z</time>
      </trkpt>
      <trkpt lat="4.8416870" lon="-75.4096530">
        <ele>3951.7</ele>
        <time>2021-04-17T19:34:25Z</time>
      </trkpt>
      <trkpt lat="4.8416550" lon="-75.4096700">
        <ele>3951.7</ele>
        <time>2021-04-17T19:34:26Z</time>
      </trkpt>
      <trkpt lat="4.8416210" lon="-75.4096840">
        <ele>3951.7</ele>
        <time>2021-04-17T19:34:27Z</time>
      </trkpt>
      <trkpt lat="4.8415860" lon="-75.4096960">
        <ele>3951.7</ele>
        <time>2021-04-17T19:34:28Z</time>
      </trkpt>
      <trkpt lat="4.8415490" lon="-75.4097090">
        <ele>3951.7</ele>
        <time>2021-04-17T19:34:29Z</time>
      </trkpt>
      <trkpt lat="4.8415110" lon="-75.4097240">
        <ele>3951.7</ele>
        <time>2021-04-17T19:34:30Z</time>
      </trkpt>
      <trkpt lat="4.8414720" lon="-75.4097410">
        <ele>3951.7</ele>
        <time>2021-04-17T19:34:31Z</time>
      </trkpt>
      <trkpt lat="4.8414350" lon="-75.4097610">
        <ele>3951.7</ele>
        <time>2021-04-17T19:34:32Z</time>
      </trkpt>
      <trkpt lat="4.8414010" lon="-75.4097840">
        <ele>3951.7</ele>
        <time>2021-04-17T19:34:33Z</time>
      </trkpt>
      <trkpt lat="4.8413690" lon="-75.4098080">
        <ele>3951.7</ele>
        <time>2021-04-17T19:34:34Z</time>
      </trkpt>
      <trkpt lat="4.8413370" lon="-75.4098330">
        <ele>3951.7</ele>
        <time>2021-04-17T19:34:35Z</time>
      </trkpt>
      <trkpt lat="4.8413040" lon="-75.4098560">
        <ele>3951.7</ele>
        <time>2021-04-17T19:34:36Z</time>
      </trkpt>
      <trkpt lat="4.8412710" lon="-75.4098790">
        <ele>3951.7</ele>
        <time>2021-04-17T19:34:37Z</time>
      </trkpt>
      <trkpt lat="4.8412370" lon="-75.4099000">
        <ele>3951.7</ele>
        <time>2021-04-17T19:34:38Z</time>
      </trkpt>
      <trkpt lat="4.8412050" lon="-75.4099220">
        <ele>3951.7</ele>
        <time>2021-04-17T19:34:39Z</time>
      </trkpt>
      <trkpt lat="4.8411730" lon="-75.4099450">
        <ele>3951.7</ele>
        <time>2021-04-17T19:34:40Z</time>
      </trkpt>
      <trkpt lat="4.8411410" lon="-75.4099660">
        <ele>3951.7</ele>
        <time>2021-04-17T19:34:41Z</time>
      </trkpt>
      <trkpt lat="4.8411060" lon="-75.4099870">
        <ele>3951.7</ele>
        <time>2021-04-17T19:34:42Z</time>
      </trkpt>
      <trkpt lat="4.8410690" lon="-75.4100070">
        <ele>3951.7</ele>
        <time>2021-04-17T19:34:43Z</time>
      </trkpt>
      <trkpt lat="4.8410300" lon="-75.4100270">
        <ele>3951.7</ele>
        <time>2021-04-17T19:34:44Z</time>
      </trkpt>
      <trkpt lat="4.8409880" lon="-75.4100480">
        <ele>3951.7</ele>
        <time>2021-04-17T19:34:45Z</time>
      </trkpt>
      <trkpt lat="4.8409440" lon="-75.4100690">
        <ele>3951.6</ele>
        <time>2021-04-17T19:34:46Z</time>
      </trkpt>
      <trkpt lat="4.8408990" lon="-75.4100870">
        <ele>3951.6</ele>
        <time>2021-04-17T19:34:47Z</time>
      </trkpt>
      <trkpt lat="4.8408520" lon="-75.4101010">
        <ele>3951.6</ele>
        <time>2021-04-17T19:34:48Z</time>
      </trkpt>
      <trkpt lat="4.8408000" lon="-75.4101070">
        <ele>3951.6</ele>
        <time>2021-04-17T19:34:49Z</time>
      </trkpt>
      <trkpt lat="4.8407460" lon="-75.4101080">
        <ele>3951.6</ele>
        <time>2021-04-17T19:34:50Z</time>
      </trkpt>
      <trkpt lat="4.8406900" lon="-75.4101040">
        <ele>3951.6</ele>
        <time>2021-04-17T19:34:51Z</time>
      </trkpt>
      <trkpt lat="4.8406310" lon="-75.4100960">
        <ele>3951.6</ele>
        <time>2021-04-17T19:34:52Z</time>
      </trkpt>
      <trkpt lat="4.8405710" lon="-75.4100860">
        <ele>3951.6</ele>
        <time>2021-04-17T19:34:53Z</time>
      </trkpt>
      <trkpt lat="4.8405110" lon="-75.4100730">
        <ele>3951.6</ele>
        <time>2021-04-17T19:34:54Z</time>
      </trkpt>
      <trkpt lat="4.8404490" lon="-75.4100600">
        <ele>3951.6</ele>
        <time>2021-04-17T19:34:55Z</time>
      </trkpt>
      <trkpt lat="4.8403870" lon="-75.4100470">
        <ele>3951.6</ele>
        <time>2021-04-17T19:34:56Z</time>
      </trkpt>
      <trkpt lat="4.8403260" lon="-75.4100330">
        <ele>3951.6</ele>
        <time>2021-04-17T19:34:57Z</time>
      </trkpt>
      <trkpt lat="4.8402640" lon="-75.4100180">
        <ele>3951.6</ele>
        <time>2021-04-17T19:34:58Z</time>
      </trkpt>
      <trkpt lat="4.8402000" lon="-75.4100070">
        <ele>3951.6</ele>
        <time>2021-04-17T19:34:59Z</time>
      </trkpt>
      <trkpt lat="4.8401360" lon="-75.4099990">
        <ele>3951.6</ele>
        <time>2021-04-17T19:35:00Z</time>
      </trkpt>
      <trkpt lat="4.8400720" lon="-75.4099890">
        <ele>3951.6</ele>
        <time>2021-04-17T19:35:01Z</time>
      </trkpt>
      <trkpt lat="4.8400070" lon="-75.4099750">
        <ele>3951.5</ele>
        <time>2021-04-17T19:35:02Z</time>
      </trkpt>
      <trkpt lat="4.8399430" lon="-75.4099570">
        <ele>3951.5</ele>
        <time>2021-04-17T19:35:03Z</time>
      </trkpt>
      <trkpt lat="4.8398780" lon="-75.4099400">
        <ele>3951.5</ele>
        <time>2021-04-17T19:35:04Z</time>
      </trkpt>
      <trkpt lat="4.8398130" lon="-75.4099240">
        <ele>3951.5</ele>
        <time>2021-04-17T19:35:05Z</time>
      </trkpt>
      <trkpt lat="4.8397480" lon="-75.4099100">
        <ele>3951.5</ele>
        <time>2021-04-17T19:35:06Z</time>
      </trkpt>
      <trkpt lat="4.8396820" lon="-75.4098980">
        <ele>3951.5</ele>
        <time>2021-04-17T19:35:07Z</time>
      </trkpt>
      <trkpt lat="4.8396160" lon="-75.4098870">
        <ele>3951.5</ele>
        <time>2021-04-17T19:35:08Z</time>
      </trkpt>
      <trkpt lat="4.8395490" lon="-75.4098790">
        <ele>3951.5</ele>
        <time>2021-04-17T19:35:09Z</time>
      </trkpt>
      <trkpt lat="4.8394810" lon="-75.4098730">
        <ele>3951.5</ele>
        <time>2021-04-17T19:35:10Z</time>
      </trkpt>
      <trkpt lat="4.8394130" lon="-75.4098710">
        <ele>3951.5</ele>
        <time>2021-04-17T19:35:11Z</time>
      </trkpt>
      <trkpt lat="4.8393470" lon="-75.4098720">
        <ele>3951.5</ele>
        <time>2021-04-17T19:35:12Z</time>
      </trkpt>
      <trkpt lat="4.8392800" lon="-75.4098740">
        <ele>3951.5</ele>
        <time>2021-04-17T19:35:13Z</time>
      </trkpt>
      <trkpt lat="4.8392120" lon="-75.4098740">
        <ele>3951.5</ele>
        <time>2021-04-17T19:35:14Z</time>
      </trkpt>
      <trkpt lat="4.8391430" lon="-75.4098750">
        <ele>3951.4</ele>
        <time>2021-04-17T19:35:15Z</time>
      </trkpt>
      <trkpt lat="4.8390740" lon="-75.4098780">
        <ele>3951.4</ele>
        <time>2021-04-17T19:35:16Z</time>
      </trkpt>
      <trkpt lat="4.8390070" lon="-75.4098820">
        <ele>3951.4</ele>
        <time>2021-04-17T19:35:17Z</time>
      </trkpt>
      <trkpt lat="4.8389390" lon="-75.4098880">
        <ele>3951.4</ele>
        <time>2021-04-17T19:35:18Z</time>
      </trkpt>
      <trkpt lat="4.8388700" lon="-75.4098930">
        <ele>3951.4</ele>
        <time>2021-04-17T19:35:19Z</time>
      </trkpt>
      <trkpt lat="4.8387980" lon="-75.4098970">
        <ele>3951.4</ele>
        <time>2021-04-17T19:35:20Z</time>
      </trkpt>
      <trkpt lat="4.8387250" lon="-75.4099010">
        <ele>3951.4</ele>
        <time>2021-04-17T19:35:21Z</time>
      </trkpt>
      <trkpt lat="4.8386510" lon="-75.4099060">
        <ele>3951.4</ele>
        <time>2021-04-17T19:35:22Z</time>
      </trkpt>
      <trkpt lat="4.8385780" lon="-75.4099110">
        <ele>3951.4</ele>
        <time>2021-04-17T19:35:23Z</time>
      </trkpt>
      <trkpt lat="4.8385040" lon="-75.4099170">
        <ele>3951.4</ele>
        <time>2021-04-17T19:35:24Z</time>
      </trkpt>
      <trkpt lat="4.8384310" lon="-75.4099230">
        <ele>3951.4</ele>
        <time>2021-04-17T19:35:25Z</time>
      </trkpt>
      <trkpt lat="4.8383600" lon="-75.4099320">
        <ele>3951.4</ele>
        <time>2021-04-17T19:35:26Z</time>
      </trkpt>
      <trkpt lat="4.8382920" lon="-75.4099470">
        <ele>3951.4</ele>
        <time>2021-04-17T19:35:27Z</time>
      </trkpt>
      <trkpt lat="4.8382230" lon="-75.4099560">
        <ele>3951.4</ele>
        <time>2021-04-17T19:35:28Z</time>
      </trkpt>
      <trkpt lat="4.8381560" lon="-75.4099590">
        <ele>3951.3</ele>
        <time>2021-04-17T19:35:29Z</time>
      </trkpt>
      <trkpt lat="4.8380900" lon="-75.4099590">
        <ele>3951.3</ele>
        <time>2021-04-17T19:35:30Z</time>
      </trkpt>
      <trkpt lat="4.8380250" lon="-75.4099610">
        <ele>3951.3</ele>
        <time>2021-04-17T19:35:31Z</time>
      </trkpt>
      <trkpt lat="4.8379630" lon="-75.4099690">
        <ele>3951.3</ele>
        <time>2021-04-17T19:35:32Z</time>
      </trkpt>
      <trkpt lat="4.8379050" lon="-75.4099880">
        <ele>3951.3</ele>
        <time>2021-04-17T19:35:33Z</time>
      </trkpt>
      <trkpt lat="4.8378630" lon="-75.4100300">
        <ele>3951.3</ele>
        <time>2021-04-17T19:35:34Z</time>
      </trkpt>
      <trkpt lat="4.8378470" lon="-75.4100860">
        <ele>3951.3</ele>
        <time>2021-04-17T19:35:35Z</time>
      </trkpt>
      <trkpt lat="4.8378550" lon="-75.4101460">
        <ele>3951.3</ele>
        <time>2021-04-17T19:35:36Z</time>
      </trkpt>
      <trkpt lat="4.8378700" lon="-75.4102070">
        <ele>3951.3</ele>
        <time>2021-04-17T19:35:37Z</time>
      </trkpt>
      <trkpt lat="4.8378840" lon="-75.4102710">
        <ele>3951.3</ele>
        <time>2021-04-17T19:35:38Z</time>
      </trkpt>
      <trkpt lat="4.8378970" lon="-75.4103380">
        <ele>3951.3</ele>
        <time>2021-04-17T19:35:39Z</time>
      </trkpt>
      <trkpt lat="4.8379120" lon="-75.4104060">
        <ele>3951.3</ele>
        <time>2021-04-17T19:35:40Z</time>
      </trkpt>
      <trkpt lat="4.8379280" lon="-75.4104760">
        <ele>3951.3</ele>
        <time>2021-04-17T19:35:41Z</time>
      </trkpt>
      <trkpt lat="4.8379430" lon="-75.4105470">
        <ele>3951.3</ele>
        <time>2021-04-17T19:35:42Z</time>
      </trkpt>
      <trkpt lat="4.8379570" lon="-75.4106170">
        <ele>3951.2</ele>
        <time>2021-04-17T19:35:43Z</time>
      </trkpt>
      <trkpt lat="4.8379710" lon="-75.4106860">
        <ele>3951.2</ele>
        <time>2021-04-17T19:35:44Z</time>
      </trkpt>
      <trkpt lat="4.8379870" lon="-75.4107510">
        <ele>3951.2</ele>
        <time>2021-04-17T19:35:45Z</time>
      </trkpt>
      <trkpt lat="4.8380080" lon="-75.4108120">
        <ele>3951.2</ele>
        <time>2021-04-17T19:35:46Z</time>
      </trkpt>
      <trkpt lat="4.8380300" lon="-75.4108680">
        <ele>3951.2</ele>
        <time>2021-04-17T19:35:47Z</time>
      </trkpt>
      <trkpt lat="4.8380490" lon="-75.4109210">
        <ele>3951.2</ele>
        <time>2021-04-17T19:35:48Z</time>
      </trkpt>
      <trkpt lat="4.8380660" lon="-75.4109720">
        <ele>3951.2</ele>
        <time>2021-04-17T19:35:49Z</time>
      </trkpt>
      <trkpt lat="4.8380800" lon="-75.4110200">
        <ele>3951.2</ele>
        <time>2021-04-17T19:35:50Z</time>
      </trkpt>
      <trkpt lat="4.8380900" lon="-75.4110660">
        <ele>3951.2</ele>
        <time>2021-04-17T19:35:51Z</time>
      </trkpt>
      <trkpt lat="4.8381020" lon="-75.4111120">
        <ele>3951.2</ele>
        <time>2021-04-17T19:35:52Z</time>
      </trkpt>
      <trkpt lat="4.8381160" lon="-75.4111570">
        <ele>3951.2</ele>
        <time>2021-04-17T19:35:53Z</time>
      </trkpt>
      <trkpt lat="4.8381350" lon="-75.4112010">
        <ele>3951.2</ele>
        <time>2021-04-17T19:35:54Z</time>
      </trkpt>
      <trkpt lat="4.8381580" lon="-75.4112420">
        <ele>3951.2</ele>
        <time>2021-04-17T19:35:55Z</time>
      </trkpt>
      <trkpt lat="4.8381820" lon="-75.4112830">
        <ele>3951.2</ele>
        <time>2021-04-17T19:35:56Z</time>
      </trkpt>
      <trkpt lat="4.8382050" lon="-75.4113250">
        <ele>3951.2</ele>
        <time>2021-04-17T19:35:57Z</time>
      </trkpt>
      <trkpt lat="4.8382260" lon="-75.4113670">
        <ele>3951.2</ele>
        <time>2021-04-17T19:35:58Z</time>
      </trkpt>
      <trkpt lat="4.8382460" lon="-75.4114070">
        <ele>3951.2</ele>
        <time>2021-04-17T19:35:59Z</time>
      </trkpt>
      <trkpt lat="4.8382660" lon="-75.4114460">
        <ele>3951.1</ele>
        <time>2021-04-17T19:36:00Z</time>
      </trkpt>
      <trkpt lat="4.8382830" lon="-75.4114850">
        <ele>3951.1</ele>
        <time>2021-04-17T19:36:01Z</time>
      </trkpt>
      <trkpt lat="4.8382980" lon="-75.4115250">
        <ele>3951.1</ele>
        <time>2021-04-17T19:36:02Z</time>
      </trkpt>
      <trkpt lat="4.8383110" lon="-75.4115630">
        <ele>3951.1</ele>
        <time>2021-04-17T19:36:03Z</time>
      </trkpt>
      <trkpt lat="4.8383270" lon="-75.4116010">
        <ele>3951.1</ele>
        <time>2021-04-17T19:36:04Z</time>
      </trkpt>
      <trkpt lat="4.8383430" lon="-75.4116380">
        <ele>3951.1</ele>
        <time>2021-04-17T19:36:05Z</time>
      </trkpt>
      <trkpt lat="4.8383590" lon="-75.4116750">
        <ele>3951.1</ele>
        <time>2021-04-17T19:36:06Z</time>
      </trkpt>
      <trkpt lat="4.8383720" lon="-75.4117120">
        <ele>3951.1</ele>
        <time>2021-04-17T19:36:07Z</time>
      </trkpt>
      <trkpt lat="4.8383830" lon="-75.4117490">
        <ele>3951.1</ele>
        <time>2021-04-17T19:36:08Z</time>
      </trkpt>
      <trkpt lat="4.8383930" lon="-75.4117860">
        <ele>3951.1</ele>
        <time>2021-04-17T19:36:09Z</time>
      </trkpt>
      <trkpt lat="4.8384010" lon="-75.4118220">
        <ele>3951.1</ele>
        <time>2021-04-17T19:36:10Z</time>
      </trkpt>
      <trkpt lat="4.8384100" lon="-75.4118580">
        <ele>3951.1</ele>
        <time>2021-04-17T19:36:11Z</time>
      </trkpt>
      <trkpt lat="4.8384170" lon="-75.4118940">
        <ele>3951.1</ele>
        <time>2021-04-17T19:36:12Z</time>
      </trkpt>
      <trkpt lat="4.8384200" lon="-75.4119310">
        <ele>3951.1</ele>
        <time>2021-04-17T19:36:13Z</time>
      </trkpt>
      <trkpt lat="4.8384210" lon="-75.4119680">
        <ele>3951.1</ele>
        <time>2021-04-17T19:36:14Z</time>
      </trkpt>
      <trkpt lat="4.8384190" lon="-75.4120050">
        <ele>3951.1</ele>
        <time>2021-04-17T19:36:15Z</time>
      </trkpt>
      <trkpt lat="4.8384170" lon="-75.4120430">
        <ele>3951.1</ele>
        <time>2021-04-17T19:36:16Z</time>
      </trkpt>
      <trkpt lat="4.8384130" lon="-75.4120790">
        <ele>3951.1</ele>
        <time>2021-04-17T19:36:17Z</time>
      </trkpt>
      <trkpt lat="4.8384100" lon="-75.4121140">
        <ele>3951.1</ele>
        <time>2021-04-17T19:36:18Z</time>
      </trkpt>
      <trkpt lat="4.8384070" lon="-75.4121490">
        <ele>3951.1</ele>
        <time>2021-04-17T19:36:19Z</time>
      </trkpt>
      <trkpt lat="4.8384020" lon="-75.4121860">
        <ele>3951.1</ele>
        <time>2021-04-17T19:36:20Z</time>
      </trkpt>
      <trkpt lat="4.8383960" lon="-75.4122220">
        <ele>3951.1</ele>
        <time>2021-04-17T19:36:21Z</time>
      </trkpt>
      <trkpt lat="4.8383880" lon="-75.4122580">
        <ele>3951.1</ele>
        <time>2021-04-17T19:36:22Z</time>
      </trkpt>
      <trkpt lat="4.8383800" lon="-75.4122940">
        <ele>3951.1</ele>
        <time>2021-04-17T19:36:23Z</time>
      </trkpt>
      <trkpt lat="4.8383720" lon="-75.4123300">
        <ele>3951.1</ele>
        <time>2021-04-17T19:36:24Z</time>
      </trkpt>
      <trkpt lat="4.8383620" lon="-75.4123650">
        <ele>3951.0</ele>
        <time>2021-04-17T19:36:25Z</time>
      </trkpt>
      <trkpt lat="4.8383480" lon="-75.4123980">
        <ele>3951.0</ele>
        <time>2021-04-17T19:36:26Z</time>
      </trkpt>
      <trkpt lat="4.8383320" lon="-75.4124300">
        <ele>3951.0</ele>
        <time>2021-04-17T19:36:27Z</time>
      </trkpt>
      <trkpt lat="4.8383160" lon="-75.4124630">
        <ele>3951.0</ele>
        <time>2021-04-17T19:36:28Z</time>
      </trkpt>
      <trkpt lat="4.8382980" lon="-75.4124970">
        <ele>3951.0</ele>
        <time>2021-04-17T19:36:29Z</time>
      </trkpt>
      <trkpt lat="4.8382780" lon="-75.4125290">
        <ele>3951.0</ele>
        <time>2021-04-17T19:36:30Z</time>
      </trkpt>
      <trkpt lat="4.8382590" lon="-75.4125600">
        <ele>3951.0</ele>
        <time>2021-04-17T19:36:31Z</time>
      </trkpt>
      <trkpt lat="4.8382390" lon="-75.4125870">
        <ele>3951.0</ele>
        <time>2021-04-17T19:36:32Z</time>
      </trkpt>
      <trkpt lat="4.8382180" lon="-75.4126120">
        <ele>3951.0</ele>
        <time>2021-04-17T19:36:33Z</time>
      </trkpt>
      <trkpt lat="4.8381970" lon="-75.4126350">
        <ele>3951.0</ele>
        <time>2021-04-17T19:36:34Z</time>
      </trkpt>
      <trkpt lat="4.8381760" lon="-75.4126580">
        <ele>3951.0</ele>
        <time>2021-04-17T19:36:35Z</time>
      </trkpt>
      <trkpt lat="4.8381540" lon="-75.4126800">
        <ele>3950.9</ele>
        <time>2021-04-17T19:36:36Z</time>
      </trkpt>
      <trkpt lat="4.8381280" lon="-75.4127000">
        <ele>3950.8</ele>
        <time>2021-04-17T19:36:37Z</time>
      </trkpt>
      <trkpt lat="4.8381020" lon="-75.4127190">
        <ele>3950.7</ele>
        <time>2021-04-17T19:36:38Z</time>
      </trkpt>
      <trkpt lat="4.8380750" lon="-75.4127360">
        <ele>3950.7</ele>
        <time>2021-04-17T19:36:39Z</time>
      </trkpt>
      <trkpt lat="4.8380460" lon="-75.4127520">
        <ele>3950.6</ele>
        <time>2021-04-17T19:36:40Z</time>
      </trkpt>
      <trkpt lat="4.8380160" lon="-75.4127660">
        <ele>3950.5</ele>
        <time>2021-04-17T19:36:41Z</time>
      </trkpt>
      <trkpt lat="4.8379850" lon="-75.4127780">
        <ele>3950.4</ele>
        <time>2021-04-17T19:36:42Z</time>
      </trkpt>
      <trkpt lat="4.8379530" lon="-75.4127870">
        <ele>3950.3</ele>
        <time>2021-04-17T19:36:43Z</time>
      </trkpt>
      <trkpt lat="4.8379210" lon="-75.4127930">
        <ele>3950.2</ele>
        <time>2021-04-17T19:36:44Z</time>
      </trkpt>
      <trkpt lat="4.8378870" lon="-75.4127950">
        <ele>3950.1</ele>
        <time>2021-04-17T19:36:45Z</time>
      </trkpt>
      <trkpt lat="4.8378530" lon="-75.4127980">
        <ele>3950.0</ele>
        <time>2021-04-17T19:36:46Z</time>
      </trkpt>
      <trkpt lat="4.8378180" lon="-75.4128060">
        <ele>3949.9</ele>
        <time>2021-04-17T19:36:47Z</time>
      </trkpt>
      <trkpt lat="4.8377850" lon="-75.4128150">
        <ele>3949.8</ele>
        <time>2021-04-17T19:36:48Z</time>
      </trkpt>
      <trkpt lat="4.8377510" lon="-75.4128250">
        <ele>3949.7</ele>
        <time>2021-04-17T19:36:49Z</time>
      </trkpt>
      <trkpt lat="4.8377160" lon="-75.4128320">
        <ele>3949.6</ele>
        <time>2021-04-17T19:36:50Z</time>
      </trkpt>
      <trkpt lat="4.8376800" lon="-75.4128380">
        <ele>3949.5</ele>
        <time>2021-04-17T19:36:51Z</time>
      </trkpt>
      <trkpt lat="4.8376440" lon="-75.4128410">
        <ele>3949.4</ele>
        <time>2021-04-17T19:36:52Z</time>
      </trkpt>
      <trkpt lat="4.8376080" lon="-75.4128420">
        <ele>3949.3</ele>
        <time>2021-04-17T19:36:53Z</time>
      </trkpt>
      <trkpt lat="4.8375720" lon="-75.4128410">
        <ele>3949.1</ele>
        <time>2021-04-17T19:36:54Z</time>
      </trkpt>
      <trkpt lat="4.8375370" lon="-75.4128440">
        <ele>3949.0</ele>
        <time>2021-04-17T19:36:55Z</time>
      </trkpt>
      <trkpt lat="4.8375030" lon="-75.4128490">
        <ele>3948.9</ele>
        <time>2021-04-17T19:36:56Z</time>
      </trkpt>
      <trkpt lat="4.8374690" lon="-75.4128480">
        <ele>3948.8</ele>
        <time>2021-04-17T19:36:57Z</time>
      </trkpt>
      <trkpt lat="4.8374340" lon="-75.4128410">
        <ele>3948.7</ele>
        <time>2021-04-17T19:36:58Z</time>
      </trkpt>
      <trkpt lat="4.8373970" lon="-75.4128290">
        <ele>3948.6</ele>
        <time>2021-04-17T19:36:59Z</time>
      </trkpt>
      <trkpt lat="4.8373590" lon="-75.4128130">
        <ele>3948.5</ele>
        <time>2021-04-17T19:37:00Z</time>
      </trkpt>
      <trkpt lat="4.8373180" lon="-75.4127950">
        <ele>3948.4</ele>
        <time>2021-04-17T19:37:01Z</time>
      </trkpt>
      <trkpt lat="4.8372760" lon="-75.4127790">
        <ele>3948.2</ele>
        <time>2021-04-17T19:37:02Z</time>
      </trkpt>
      <trkpt lat="4.8372360" lon="-75.4127620">
        <ele>3948.1</ele>
        <time>2021-04-17T19:37:03Z</time>
      </trkpt>
      <trkpt lat="4.8371980" lon="-75.4127410">
        <ele>3948.0</ele>
        <time>2021-04-17T19:37:04Z</time>
      </trkpt>
      <trkpt lat="4.8371600" lon="-75.4127180">
        <ele>3947.9</ele>
        <time>2021-04-17T19:37:05Z</time>
      </trkpt>
      <trkpt lat="4.8371190" lon="-75.4127000">
        <ele>3947.7</ele>
        <time>2021-04-17T19:37:06Z</time>
      </trkpt>
      <trkpt lat="4.8370770" lon="-75.4126890">
        <ele>3947.6</ele>
        <time>2021-04-17T19:37:07Z</time>
      </trkpt>
      <trkpt lat="4.8370370" lon="-75.4126750">
        <ele>3947.5</ele>
        <time>2021-04-17T19:37:08Z</time>
      </trkpt>
      <trkpt lat="4.8370040" lon="-75.4126520">
        <ele>3947.4</ele>
        <time>2021-04-17T19:37:09Z</time>
      </trkpt>
      <trkpt lat="4.8369740" lon="-75.4126260">
        <ele>3947.3</ele>
        <time>2021-04-17T19:37:10Z</time>
      </trkpt>
      <trkpt lat="4.8369440" lon="-75.4126010">
        <ele>3947.1</ele>
        <time>2021-04-17T19:37:11Z</time>
      </trkpt>
      <trkpt lat="4.8369120" lon="-75.4125750">
        <ele>3947.0</ele>
        <time>2021-04-17T19:37:12Z</time>
      </trkpt>
      <trkpt lat="4.8368800" lon="-75.4125490">
        <ele>3946.9</ele>
        <time>2021-04-17T19:37:13Z</time>
      </trkpt>
      <trkpt lat="4.8368460" lon="-75.4125220">
        <ele>3946.8</ele>
        <time>2021-04-17T19:37:14Z</time>
      </trkpt>
      <trkpt lat="4.8368130" lon="-75.4124910">
        <ele>3946.6</ele>
        <time>2021-04-17T19:37:15Z</time>
      </trkpt>
      <trkpt lat="4.8367810" lon="-75.4124570">
        <ele>3946.5</ele>
        <time>2021-04-17T19:37:16Z</time>
      </trkpt>
      <trkpt lat="4.8367490" lon="-75.4124200">
        <ele>3946.4</ele>
        <time>2021-04-17T19:37:17Z</time>
      </trkpt>
      <trkpt lat="4.8367190" lon="-75.4123820">
        <ele>3946.2</ele>
        <time>2021-04-17T19:37:18Z</time>
      </trkpt>
      <trkpt lat="4.8366910" lon="-75.4123420">
        <ele>3946.1</ele>
        <time>2021-04-17T19:37:19Z</time>
      </trkpt>
      <trkpt lat="4.8366620" lon="-75.4123050">
        <ele>3946.0</ele>
        <time>2021-04-17T19:37:20Z</time>
      </trkpt>
      <trkpt lat="4.8366320" lon="-75.4122680">
        <ele>3945.8</ele>
        <time>2021-04-17T19:37:21Z</time>
      </trkpt>
      <trkpt lat="4.8366010" lon="-75.4122330">
        <ele>3945.7</ele>
        <time>2021-04-17T19:37:22Z</time>
      </trkpt>
      <trkpt lat="4.8365700" lon="-75.4121970">
        <ele>3945.5</ele>
        <time>2021-04-17T19:37:23Z</time>
      </trkpt>
      <trkpt lat="4.8365390" lon="-75.4121600">
        <ele>3945.4</ele>
        <time>2021-04-17T19:37:24Z</time>
      </trkpt>
      <trkpt lat="4.8365120" lon="-75.4121230">
        <ele>3945.3</ele>
        <time>2021-04-17T19:37:25Z</time>
      </trkpt>
      <trkpt lat="4.8364880" lon="-75.4120860">
        <ele>3945.1</ele>
        <time>2021-04-17T19:37:26Z</time>
      </trkpt>
      <trkpt lat="4.8364670" lon="-75.4120470">
        <ele>3945.0</ele>
        <time>2021-04-17T19:37:27Z</time>
      </trkpt>
      <trkpt lat="4.8364410" lon="-75.4120100">
        <ele>3944.9</ele>
        <time>2021-04-17T19:37:28Z</time>
      </trkpt>
      <trkpt lat="4.8364130" lon="-75.4119760">
        <ele>3944.8</ele>
        <time>2021-04-17T19:37:29Z</time>
      </trkpt>
      <trkpt lat="4.8363840" lon="-75.4119430">
        <ele>3944.6</ele>
        <time>2021-04-17T19:37:30Z</time>
      </trkpt>
      <trkpt lat="4.8363560" lon="-75.4119130">
        <ele>3944.5</ele>
        <time>2021-04-17T19:37:31Z</time>
      </trkpt>
      <trkpt lat="4.8363290" lon="-75.4118830">
        <ele>3944.4</ele>
        <time>2021-04-17T19:37:32Z</time>
      </trkpt>
      <trkpt lat="4.8363030" lon="-75.4118530">
        <ele>3944.3</ele>
        <time>2021-04-17T19:37:33Z</time>
      </trkpt>
      <trkpt lat="4.8362790" lon="-75.4118210">
        <ele>3944.2</ele>
        <time>2021-04-17T19:37:34Z</time>
      </trkpt>
      <trkpt lat="4.8362550" lon="-75.4117860">
        <ele>3944.0</ele>
        <time>2021-04-17T19:37:35Z</time>
      </trkpt>
      <trkpt lat="4.8362280" lon="-75.4117500">
        <ele>3943.9</ele>
        <time>2021-04-17T19:37:36Z</time>
      </trkpt>
      <trkpt lat="4.8361970" lon="-75.4117120">
        <ele>3943.8</ele>
        <time>2021-04-17T19:37:37Z</time>
      </trkpt>
      <trkpt lat="4.8361620" lon="-75.4116700">
        <ele>3943.6</ele>
        <time>2021-04-17T19:37:38Z</time>
      </trkpt>
      <trkpt lat="4.8361250" lon="-75.4116250">
        <ele>3943.4</ele>
        <time>2021-04-17T19:37:39Z</time>
      </trkpt>
      <trkpt lat="4.8360860" lon="-75.4115760">
        <ele>3943.3</ele>
        <time>2021-04-17T19:37:40Z</time>
      </trkpt>
      <trkpt lat="4.8360440" lon="-75.4115220">
        <ele>3943.1</ele>
        <time>2021-04-17T19:37:41Z</time>
      </trkpt>
      <trkpt lat="4.8360000" lon="-75.4114640">
        <ele>3942.8</ele>
        <time>2021-04-17T19:37:42Z</time>
      </trkpt>
      <trkpt lat="4.8359520" lon="-75.4114030">
        <ele>3942.6</ele>
        <time>2021-04-17T19:37:43Z</time>
      </trkpt>
      <trkpt lat="4.8358980" lon="-75.4113460">
        <ele>3942.4</ele>
        <time>2021-04-17T19:37:44Z</time>
      </trkpt>
      <trkpt lat="4.8358380" lon="-75.4112960">
        <ele>3942.2</ele>
        <time>2021-04-17T19:37:45Z</time>
      </trkpt>
      <trkpt lat="4.8357730" lon="-75.4112540">
        <ele>3941.9</ele>
        <time>2021-04-17T19:37:46Z</time>
      </trkpt>
      <trkpt lat="4.8357050" lon="-75.4112180">
        <ele>3941.7</ele>
        <time>2021-04-17T19:37:47Z</time>
      </trkpt>
      <trkpt lat="4.8356360" lon="-75.4111860">
        <ele>3941.5</ele>
        <time>2021-04-17T19:37:48Z</time>
      </trkpt>
      <trkpt lat="4.8355640" lon="-75.4111610">
        <ele>3941.3</ele>
        <time>2021-04-17T19:37:49Z</time>
      </trkpt>
      <trkpt lat="4.8354880" lon="-75.4111420">
        <ele>3941.0</ele>
        <time>2021-04-17T19:37:50Z</time>
      </trkpt>
      <trkpt lat="4.8354120" lon="-75.4111310">
        <ele>3940.8</ele>
        <time>2021-04-17T19:37:51Z</time>
      </trkpt>
      <trkpt lat="4.8353380" lon="-75.4111290">
        <ele>3940.6</ele>
        <time>2021-04-17T19:37:52Z</time>
      </trkpt>
      <trkpt lat="4.8352680" lon="-75.4111370">
        <ele>3940.4</ele>
        <time>2021-04-17T19:37:53Z</time>
      </trkpt>
      <trkpt lat="4.8352030" lon="-75.4111530">
        <ele>3940.2</ele>
        <time>2021-04-17T19:37:54Z</time>
      </trkpt>
      <trkpt lat="4.8351410" lon="-75.4111700">
        <ele>3940.0</ele>
        <time>2021-04-17T19:37:55Z</time>
      </trkpt>
      <trkpt lat="4.8350830" lon="-75.4111840">
        <ele>3939.8</ele>
        <time>2021-04-17T19:37:56Z</time>
      </trkpt>
      <trkpt lat="4.8350290" lon="-75.4111940">
        <ele>3939.7</ele>
        <time>2021-04-17T19:37:57Z</time>
      </trkpt>
      <trkpt lat="4.8349770" lon="-75.4112000">
        <ele>3939.5</ele>
        <time>2021-04-17T19:37:58Z</time>
      </trkpt>
      <trkpt lat="4.8349270" lon="-75.4112090">
        <ele>3939.4</ele>
        <time>2021-04-17T19:37:59Z</time>
      </trkpt>
      <trkpt lat="4.8348780" lon="-75.4112240">
        <ele>3939.2</ele>
        <time>2021-04-17T19:38:00Z</time>
      </trkpt>
      <trkpt lat="4.8348310" lon="-75.4112420">
        <ele>3939.1</ele>
        <time>2021-04-17T19:38:01Z</time>
      </trkpt>
      <trkpt lat="4.8347860" lon="-75.4112620">
        <ele>3939.0</ele>
        <time>2021-04-17T19:38:02Z</time>
      </trkpt>
      <trkpt lat="4.8347420" lon="-75.4112840">
        <ele>3938.8</ele>
        <time>2021-04-17T19:38:03Z</time>
      </trkpt>
      <trkpt lat="4.8347010" lon="-75.4113060">
        <ele>3938.7</ele>
        <time>2021-04-17T19:38:04Z</time>
      </trkpt>
      <trkpt lat="4.8346590" lon="-75.4113270">
        <ele>3938.5</ele>
        <time>2021-04-17T19:38:05Z</time>
      </trkpt>
      <trkpt lat="4.8346160" lon="-75.4113470">
        <ele>3938.4</ele>
        <time>2021-04-17T19:38:06Z</time>
      </trkpt>
      <trkpt lat="4.8345740" lon="-75.4113680">
        <ele>3938.3</ele>
        <time>2021-04-17T19:38:07Z</time>
      </trkpt>
      <trkpt lat="4.8345340" lon="-75.4113870">
        <ele>3938.1</ele>
        <time>2021-04-17T19:38:08Z</time>
      </trkpt>
      <trkpt lat="4.8344910" lon="-75.4114050">
        <ele>3938.0</ele>
        <time>2021-04-17T19:38:09Z</time>
      </trkpt>
      <trkpt lat="4.8344500" lon="-75.4114230">
        <ele>3937.9</ele>
        <time>2021-04-17T19:38:10Z</time>
      </trkpt>
      <trkpt lat="4.8344090" lon="-75.4114400">
        <ele>3937.7</ele>
        <time>2021-04-17T19:38:11Z</time>
      </trkpt>
      <trkpt lat="4.8343660" lon="-75.4114580">
        <ele>3937.6</ele>
        <time>2021-04-17T19:38:12Z</time>
      </trkpt>
      <trkpt lat="4.8343220" lon="-75.4114760">
        <ele>3937.5</ele>
        <time>2021-04-17T19:38:13Z</time>
      </trkpt>
      <trkpt lat="4.8342780" lon="-75.4114960">
        <ele>3937.3</ele>
        <time>2021-04-17T19:38:14Z</time>
      </trkpt>
      <trkpt lat="4.8342360" lon="-75.4115180">
        <ele>3937.2</ele>
        <time>2021-04-17T19:38:15Z</time>
      </trkpt>
      <trkpt lat="4.8341920" lon="-75.4115340">
        <ele>3937.1</ele>
        <time>2021-04-17T19:38:16Z</time>
      </trkpt>
      <trkpt lat="4.8341460" lon="-75.4115410">
        <ele>3936.9</ele>
        <time>2021-04-17T19:38:17Z</time>
      </trkpt>
      <trkpt lat="4.8340970" lon="-75.4115450">
        <ele>3936.8</ele>
        <time>2021-04-17T19:38:18Z</time>
      </trkpt>
      <trkpt lat="4.8340470" lon="-75.4115540">
        <ele>3936.6</ele>
        <time>2021-04-17T19:38:19Z</time>
      </trkpt>
      <trkpt lat="4.8339980" lon="-75.4115650">
        <ele>3936.5</ele>
        <time>2021-04-17T19:38:20Z</time>
      </trkpt>
      <trkpt lat="4.8339490" lon="-75.4115760">
        <ele>3936.3</ele>
        <time>2021-04-17T19:38:21Z</time>
      </trkpt>
      <trkpt lat="4.8338980" lon="-75.4115850">
        <ele>3936.2</ele>
        <time>2021-04-17T19:38:22Z</time>
      </trkpt>
      <trkpt lat="4.8338470" lon="-75.4115950">
        <ele>3936.0</ele>
        <time>2021-04-17T19:38:23Z</time>
      </trkpt>
      <trkpt lat="4.8337940" lon="-75.4116040">
        <ele>3935.9</ele>
        <time>2021-04-17T19:38:24Z</time>
      </trkpt>
      <trkpt lat="4.8337390" lon="-75.4116130">
        <ele>3935.7</ele>
        <time>2021-04-17T19:38:25Z</time>
      </trkpt>
      <trkpt lat="4.8336830" lon="-75.4116200">
        <ele>3935.6</ele>
        <time>2021-04-17T19:38:26Z</time>
      </trkpt>
      <trkpt lat="4.8336260" lon="-75.4116230">
        <ele>3935.4</ele>
        <time>2021-04-17T19:38:27Z</time>
      </trkpt>
      <trkpt lat="4.8335680" lon="-75.4116240">
        <ele>3935.2</ele>
        <time>2021-04-17T19:38:28Z</time>
      </trkpt>
      <trkpt lat="4.8335090" lon="-75.4116220">
        <ele>3935.0</ele>
        <time>2021-04-17T19:38:29Z</time>
      </trkpt>
      <trkpt lat="4.8334460" lon="-75.4116210">
        <ele>3934.9</ele>
        <time>2021-04-17T19:38:30Z</time>
      </trkpt>
      <trkpt lat="4.8333810" lon="-75.4116160">
        <ele>3934.7</ele>
        <time>2021-04-17T19:38:31Z</time>
      </trkpt>
      <trkpt lat="4.8333110" lon="-75.4116140">
        <ele>3934.5</ele>
        <time>2021-04-17T19:38:32Z</time>
      </trkpt>
      <trkpt lat="4.8332400" lon="-75.4116210">
        <ele>3934.3</ele>
        <time>2021-04-17T19:38:33Z</time>
      </trkpt>
      <trkpt lat="4.8331710" lon="-75.4116390">
        <ele>3934.1</ele>
        <time>2021-04-17T19:38:34Z</time>
      </trkpt>
      <trkpt lat="4.8331040" lon="-75.4116620">
        <ele>3933.9</ele>
        <time>2021-04-17T19:38:35Z</time>
      </trkpt>
      <trkpt lat="4.8330390" lon="-75.4116890">
        <ele>3933.6</ele>
        <time>2021-04-17T19:38:36Z</time>
      </trkpt>
      <trkpt lat="4.8329760" lon="-75.4117210">
        <ele>3933.4</ele>
        <time>2021-04-17T19:38:37Z</time>
      </trkpt>
      <trkpt lat="4.8329170" lon="-75.4117600">
        <ele>3933.2</ele>
        <time>2021-04-17T19:38:38Z</time>
      </trkpt>
      <trkpt lat="4.8328640" lon="-75.4118050">
        <ele>3933.0</ele>
        <time>2021-04-17T19:38:39Z</time>
      </trkpt>
      <trkpt lat="4.8328150" lon="-75.4118530">
        <ele>3932.8</ele>
        <time>2021-04-17T19:38:40Z</time>
      </trkpt>
      <trkpt lat="4.8327670" lon="-75.4119040">
        <ele>3932.6</ele>
        <time>2021-04-17T19:38:41Z</time>
      </trkpt>
      <trkpt lat="4.8327190" lon="-75.4119570">
        <ele>3932.4</ele>
        <time>2021-04-17T19:38:42Z</time>
      </trkpt>
      <trkpt lat="4.8326710" lon="-75.4120150">
        <ele>3932.2</ele>
        <time>2021-04-17T19:38:43Z</time>
      </trkpt>
      <trkpt lat="4.8326260" lon="-75.4120800">
        <ele>3932.0</ele>
        <time>2021-04-17T19:38:44Z</time>
      </trkpt>
      <trkpt lat="4.8325870" lon="-75.4121520">
        <ele>3931.7</ele>
        <time>2021-04-17T19:38:45Z</time>
      </trkpt>
      <trkpt lat="4.8325530" lon="-75.4122290">
        <ele>3931.5</ele>
        <time>2021-04-17T19:38:46Z</time>
      </trkpt>
      <trkpt lat="4.8325230" lon="-75.4123100">
        <ele>3931.2</ele>
        <time>2021-04-17T19:38:47Z</time>
      </trkpt>
      <trkpt lat="4.8324930" lon="-75.4123950">
        <ele>3931.0</ele>
        <time>2021-04-17T19:38:48Z</time>
      </trkpt>
      <trkpt lat="4.8324590" lon="-75.4124820">
        <ele>3930.7</ele>
        <time>2021-04-17T19:38:49Z</time>
      </trkpt>
      <trkpt lat="4.8324210" lon="-75.4125700">
        <ele>3930.4</ele>
        <time>2021-04-17T19:38:50Z</time>
      </trkpt>
      <trkpt lat="4.8323840" lon="-75.4126610">
        <ele>3930.2</ele>
        <time>2021-04-17T19:38:51Z</time>
      </trkpt>
      <trkpt lat="4.8323520" lon="-75.4127580">
        <ele>3929.9</ele>
        <time>2021-04-17T19:38:52Z</time>
      </trkpt>
      <trkpt lat="4.8323250" lon="-75.4128610">
        <ele>3929.5</ele>
        <time>2021-04-17T19:38:53Z</time>
      </trkpt>
      <trkpt lat="4.8323000" lon="-75.4129650">
        <ele>3929.2</ele>
        <time>2021-04-17T19:38:54Z</time>
      </trkpt>
      <trkpt lat="4.8322710" lon="-75.4130680">
        <ele>3928.9</ele>
        <time>2021-04-17T19:38:55Z</time>
      </trkpt>
      <trkpt lat="4.8322390" lon="-75.4131670">
        <ele>3928.6</ele>
        <time>2021-04-17T19:38:56Z</time>
      </trkpt>
      <trkpt lat="4.8322110" lon="-75.4132580">
        <ele>3928.4</ele>
        <time>2021-04-17T19:38:57Z</time>
      </trkpt>
      <trkpt lat="4.8321840" lon="-75.4133440">
        <ele>3928.1</ele>
        <time>2021-04-17T19:38:58Z</time>
      </trkpt>
      <trkpt lat="4.8321530" lon="-75.4134170">
        <ele>3927.9</ele>
        <time>2021-04-17T19:38:59Z</time>
      </trkpt>
      <trkpt lat="4.8321040" lon="-75.4134760">
        <ele>3927.6</ele>
        <time>2021-04-17T19:39:00Z</time>
      </trkpt>
      <trkpt lat="4.8320410" lon="-75.4135280">
        <ele>3927.4</ele>
        <time>2021-04-17T19:39:01Z</time>
      </trkpt>
      <trkpt lat="4.8319740" lon="-75.4135810">
        <ele>3927.2</ele>
        <time>2021-04-17T19:39:02Z</time>
      </trkpt>
      <trkpt lat="4.8319040" lon="-75.4136360">
        <ele>3926.9</ele>
        <time>2021-04-17T19:39:03Z</time>
      </trkpt>
      <trkpt lat="4.8318330" lon="-75.4136890">
        <ele>3926.6</ele>
        <time>2021-04-17T19:39:04Z</time>
      </trkpt>
      <trkpt lat="4.8317560" lon="-75.4137310">
        <ele>3926.4</ele>
        <time>2021-04-17T19:39:05Z</time>
      </trkpt>
      <trkpt lat="4.8316750" lon="-75.4137560">
        <ele>3926.1</ele>
        <time>2021-04-17T19:39:06Z</time>
      </trkpt>
      <trkpt lat="4.8315920" lon="-75.4137650">
        <ele>3925.9</ele>
        <time>2021-04-17T19:39:07Z</time>
      </trkpt>
      <trkpt lat="4.8315090" lon="-75.4137690">
        <ele>3925.7</ele>
        <time>2021-04-17T19:39:08Z</time>
      </trkpt>
      <trkpt lat="4.8314320" lon="-75.4137790">
        <ele>3925.4</ele>
        <time>2021-04-17T19:39:09Z</time>
      </trkpt>
      <trkpt lat="4.8313630" lon="-75.4138070">
        <ele>3925.2</ele>
        <time>2021-04-17T19:39:10Z</time>
      </trkpt>
      <trkpt lat="4.8313100" lon="-75.4138570">
        <ele>3925.0</ele>
        <time>2021-04-17T19:39:11Z</time>
      </trkpt>
      <trkpt lat="4.8312760" lon="-75.4139230">
        <ele>3924.1</ele>
        <time>2021-04-17T19:39:12Z</time>
      </trkpt>
      <trkpt lat="4.8312580" lon="-75.4140010">
        <ele>3923.5</ele>
        <time>2021-04-17T19:39:13Z</time>
      </trkpt>
      <trkpt lat="4.8312500" lon="-75.4140800">
        <ele>3922.9</ele>
        <time>2021-04-17T19:39:14Z</time>
      </trkpt>
      <trkpt lat="4.8312490" lon="-75.4141590">
        <ele>3922.3</ele>
        <time>2021-04-17T19:39:15Z</time>
      </trkpt>
      <trkpt lat="4.8312510" lon="-75.4142380">
        <ele>3921.8</ele>
        <time>2021-04-17T19:39:16Z</time>
      </trkpt>
      <trkpt lat="4.8312570" lon="-75.4143170">
        <ele>3921.2</ele>
        <time>2021-04-17T19:39:17Z</time>
      </trkpt>
      <trkpt lat="4.8312660" lon="-75.4143940">
        <ele>3920.7</ele>
        <time>2021-04-17T19:39:18Z</time>
      </trkpt>
      <trkpt lat="4.8312750" lon="-75.4144710">
        <ele>3920.1</ele>
        <time>2021-04-17T19:39:19Z</time>
      </trkpt>
      <trkpt lat="4.8312810" lon="-75.4145490">
        <ele>3919.5</ele>
        <time>2021-04-17T19:39:20Z</time>
      </trkpt>
      <trkpt lat="4.8312840" lon="-75.4146280">
        <ele>3919.0</ele>
        <time>2021-04-17T19:39:21Z</time>
      </trkpt>
      <trkpt lat="4.8312790" lon="-75.4147080">
        <ele>3918.4</ele>
        <time>2021-04-17T19:39:22Z</time>
      </trkpt>
      <trkpt lat="4.8312700" lon="-75.4147900">
        <ele>3917.8</ele>
        <time>2021-04-17T19:39:23Z</time>
      </trkpt>
      <trkpt lat="4.8312600" lon="-75.4148730">
        <ele>3917.2</ele>
        <time>2021-04-17T19:39:24Z</time>
      </trkpt>
      <trkpt lat="4.8312550" lon="-75.4149620">
        <ele>3916.6</ele>
        <time>2021-04-17T19:39:25Z</time>
      </trkpt>
      <trkpt lat="4.8312550" lon="-75.4150520">
        <ele>3915.9</ele>
        <time>2021-04-17T19:39:26Z</time>
      </trkpt>
      <trkpt lat="4.8312570" lon="-75.4151400">
        <ele>3915.3</ele>
        <time>2021-04-17T19:39:27Z</time>
      </trkpt>
      <trkpt lat="4.8312590" lon="-75.4152210">
        <ele>3914.7</ele>
        <time>2021-04-17T19:39:28Z</time>
      </trkpt>
      <trkpt lat="4.8312630" lon="-75.4152940">
        <ele>3914.2</ele>
        <time>2021-04-17T19:39:29Z</time>
      </trkpt>
      <trkpt lat="4.8312690" lon="-75.4153580">
        <ele>3913.7</ele>
        <time>2021-04-17T19:39:30Z</time>
      </trkpt>
      <trkpt lat="4.8312770" lon="-75.4154170">
        <ele>3913.3</ele>
        <time>2021-04-17T19:39:31Z</time>
      </trkpt>
      <trkpt lat="4.8312850" lon="-75.4154720">
        <ele>3912.9</ele>
        <time>2021-04-17T19:39:32Z</time>
      </trkpt>
      <trkpt lat="4.8312940" lon="-75.4155250">
        <ele>3912.5</ele>
        <time>2021-04-17T19:39:33Z</time>
      </trkpt>
      <trkpt lat="4.8313030" lon="-75.4155750">
        <ele>3912.1</ele>
        <time>2021-04-17T19:39:34Z</time>
      </trkpt>
      <trkpt lat="4.8313100" lon="-75.4156240">
        <ele>3911.8</ele>
        <time>2021-04-17T19:39:35Z</time>
      </trkpt>
      <trkpt lat="4.8313150" lon="-75.4156740">
        <ele>3911.4</ele>
        <time>2021-04-17T19:39:36Z</time>
      </trkpt>
      <trkpt lat="4.8313170" lon="-75.4157230">
        <ele>3911.1</ele>
        <time>2021-04-17T19:39:37Z</time>
      </trkpt>
      <trkpt lat="4.8313170" lon="-75.4157700">
        <ele>3910.7</ele>
        <time>2021-04-17T19:39:38Z</time>
      </trkpt>
      <trkpt lat="4.8313170" lon="-75.4158160">
        <ele>3910.4</ele>
        <time>2021-04-17T19:39:39Z</time>
      </trkpt>
      <trkpt lat="4.8313160" lon="-75.4158590">
        <ele>3910.1</ele>
        <time>2021-04-17T19:39:40Z</time>
      </trkpt>
      <trkpt lat="4.8313150" lon="-75.4158990">
        <ele>3909.8</ele>
        <time>2021-04-17T19:39:41Z</time>
      </trkpt>
      <trkpt lat="4.8313150" lon="-75.4159360">
        <ele>3909.5</ele>
        <time>2021-04-17T19:39:42Z</time>
      </trkpt>
      <trkpt lat="4.8313160" lon="-75.4159710">
        <ele>3909.3</ele>
        <time>2021-04-17T19:39:43Z</time>
      </trkpt>
      <trkpt lat="4.8313200" lon="-75.4160030">
        <ele>3909.0</ele>
        <time>2021-04-17T19:39:44Z</time>
      </trkpt>
      <trkpt lat="4.8313220" lon="-75.4160340">
        <ele>3908.8</ele>
        <time>2021-04-17T19:39:45Z</time>
      </trkpt>
      <trkpt lat="4.8313240" lon="-75.4160630">
        <ele>3908.6</ele>
        <time>2021-04-17T19:39:46Z</time>
      </trkpt>
      <trkpt lat="4.8313270" lon="-75.4160890">
        <ele>3908.4</ele>
        <time>2021-04-17T19:39:47Z</time>
      </trkpt>
      <trkpt lat="4.8313290" lon="-75.4161100">
        <ele>3908.3</ele>
        <time>2021-04-17T19:39:48Z</time>
      </trkpt>
      <trkpt lat="4.8313330" lon="-75.4161290">
        <ele>3908.1</ele>
        <time>2021-04-17T19:39:49Z</time>
      </trkpt>
      <trkpt lat="4.8313350" lon="-75.4161400">
        <ele>3908.1</ele>
        <time>2021-04-17T19:39:50Z</time>
      </trkpt>
      <trkpt lat="4.8313360" lon="-75.4161400">
        <ele>3908.0</ele>
        <time>2021-04-17T19:39:51Z</time>
      </trkpt>
      <trkpt lat="4.8313360" lon="-75.4161400">
        <ele>3908.0</ele>
        <time>2021-04-17T19:39:52Z</time>
      </trkpt>
      <trkpt lat="4.8313370" lon="-75.4161390">
        <ele>3908.0</ele>
        <time>2021-04-17T19:39:53Z</time>
      </trkpt>
      <trkpt lat="4.8313370" lon="-75.4161390">
        <ele>3908.0</ele>
        <time>2021-04-17T19:39:54Z</time>
      </trkpt>
      <trkpt lat="4.8313360" lon="-75.4161400">
        <ele>3908.0</ele>
        <time>2021-04-17T19:39:55Z</time>
      </trkpt>
      <trkpt lat="4.8313360" lon="-75.4161420">
        <ele>3908.0</ele>
        <time>2021-04-17T19:39:56Z</time>
      </trkpt>
      <trkpt lat="4.8313340" lon="-75.4161430">
        <ele>3908.0</ele>
        <time>2021-04-17T19:39:57Z</time>
      </trkpt>
      <trkpt lat="4.8313310" lon="-75.4161420">
        <ele>3908.0</ele>
        <time>2021-04-17T19:39:58Z</time>
      </trkpt>
      <trkpt lat="4.8313280" lon="-75.4161370">
        <ele>3907.9</ele>
        <time>2021-04-17T19:39:59Z</time>
      </trkpt>
      <trkpt lat="4.8313270" lon="-75.4161360">
        <ele>3907.9</ele>
        <time>2021-04-17T19:40:00Z</time>
      </trkpt>
      <trkpt lat="4.8313270" lon="-75.4161350">
        <ele>3907.9</ele>
        <time>2021-04-17T19:40:01Z</time>
      </trkpt>
      <trkpt lat="4.8313270" lon="-75.4161350">
        <ele>3907.9</ele>
        <time>2021-04-17T19:40:02Z</time>
      </trkpt>
      <trkpt lat="4.8313270" lon="-75.4161350">
        <ele>3907.9</ele>
        <time>2021-04-17T19:40:03Z</time>
      </trkpt>
      <trkpt lat="4.8313270" lon="-75.4161360">
        <ele>3907.9</ele>
        <time>2021-04-17T19:40:04Z</time>
      </trkpt>
      <trkpt lat="4.8313270" lon="-75.4161360">
        <ele>3907.9</ele>
        <time>2021-04-17T19:40:05Z</time>
      </trkpt>
      <trkpt lat="4.8313280" lon="-75.4161350">
        <ele>3907.9</ele>
        <time>2021-04-17T19:40:06Z</time>
      </trkpt>
      <trkpt lat="4.8313280" lon="-75.4161340">
        <ele>3907.9</ele>
        <time>2021-04-17T19:40:07Z</time>
      </trkpt>
      <trkpt lat="4.8313230" lon="-75.4161330">
        <ele>3907.9</ele>
        <time>2021-04-17T19:40:08Z</time>
      </trkpt>
      <trkpt lat="4.8313240" lon="-75.4161400">
        <ele>3907.8</ele>
        <time>2021-04-17T19:40:09Z</time>
      </trkpt>
      <trkpt lat="4.8313230" lon="-75.4161410">
        <ele>3907.8</ele>
        <time>2021-04-17T19:40:10Z</time>
      </trkpt>
      <trkpt lat="4.8313260" lon="-75.4161390">
        <ele>3907.8</ele>
        <time>2021-04-17T19:40:11Z</time>
      </trkpt>
      <trkpt lat="4.8313260" lon="-75.4161370">
        <ele>3907.8</ele>
        <time>2021-04-17T19:40:12Z</time>
      </trkpt>
      <trkpt lat="4.8313250" lon="-75.4161360">
        <ele>3907.7</ele>
        <time>2021-04-17T19:40:13Z</time>
      </trkpt>
      <trkpt lat="4.8313260" lon="-75.4161350">
        <ele>3907.7</ele>
        <time>2021-04-17T19:40:14Z</time>
      </trkpt>
      <trkpt lat="4.8313260" lon="-75.4161350">
        <ele>3907.7</ele>
        <time>2021-04-17T19:40:15Z</time>
      </trkpt>
      <trkpt lat="4.8313260" lon="-75.4161340">
        <ele>3907.7</ele>
        <time>2021-04-17T19:40:16Z</time>
      </trkpt>
      <trkpt lat="4.8313270" lon="-75.4161340">
        <ele>3907.7</ele>
        <time>2021-04-17T19:40:17Z</time>
      </trkpt>
      <trkpt lat="4.8313260" lon="-75.4161330">
        <ele>3907.7</ele>
        <time>2021-04-17T19:40:18Z</time>
      </trkpt>
      <trkpt lat="4.8313270" lon="-75.4161310">
        <ele>3907.7</ele>
        <time>2021-04-17T19:40:19Z</time>
      </trkpt>
      <trkpt lat="4.8313270" lon="-75.4161300">
        <ele>3907.7</ele>
        <time>2021-04-17T19:40:20Z</time>
      </trkpt>
      <trkpt lat="4.8313270" lon="-75.4161290">
        <ele>3907.7</ele>
        <time>2021-04-17T19:40:21Z</time>
      </trkpt>
      <trkpt lat="4.8313270" lon="-75.4161290">
        <ele>3907.7</ele>
        <time>2021-04-17T19:40:22Z</time>
      </trkpt>
      <trkpt lat="4.8313280" lon="-75.4161290">
        <ele>3907.7</ele>
        <time>2021-04-17T19:40:23Z</time>
      </trkpt>
      <trkpt lat="4.8313280" lon="-75.4161280">
        <ele>3907.7</ele>
        <time>2021-04-17T19:40:24Z</time>
      </trkpt>
      <trkpt lat="4.8313280" lon="-75.4161270">
        <ele>3907.7</ele>
        <time>2021-04-17T19:40:25Z</time>
      </trkpt>
      <trkpt lat="4.8313290" lon="-75.4161270">
        <ele>3907.6</ele>
        <time>2021-04-17T19:40:26Z</time>
      </trkpt>
      <trkpt lat="4.8313290" lon="-75.4161290">
        <ele>3907.6</ele>
        <time>2021-04-17T19:40:27Z</time>
      </trkpt>
      <trkpt lat="4.8313310" lon="-75.4161320">
        <ele>3907.6</ele>
        <time>2021-04-17T19:40:28Z</time>
      </trkpt>
      <trkpt lat="4.8313370" lon="-75.4161370">
        <ele>3907.6</ele>
        <time>2021-04-17T19:40:29Z</time>
      </trkpt>
      <trkpt lat="4.8313440" lon="-75.4161440">
        <ele>3907.5</ele>
        <time>2021-04-17T19:40:30Z</time>
      </trkpt>
      <trkpt lat="4.8313530" lon="-75.4161570">
        <ele>3907.4</ele>
        <time>2021-04-17T19:40:31Z</time>
      </trkpt>
      <trkpt lat="4.8313640" lon="-75.4161710">
        <ele>3907.2</ele>
        <time>2021-04-17T19:40:32Z</time>
      </trkpt>
      <trkpt lat="4.8313790" lon="-75.4161900">
        <ele>3907.1</ele>
        <time>2021-04-17T19:40:33Z</time>
      </trkpt>
      <trkpt lat="4.8313970" lon="-75.4162080">
        <ele>3906.9</ele>
        <time>2021-04-17T19:40:34Z</time>
      </trkpt>
      <trkpt lat="4.8314110" lon="-75.4162230">
        <ele>3906.7</ele>
        <time>2021-04-17T19:40:35Z</time>
      </trkpt>
      <trkpt lat="4.8314170" lon="-75.4162300">
        <ele>3906.7</ele>
        <time>2021-04-17T19:40:36Z</time>
      </trkpt>
      <trkpt lat="4.8314160" lon="-75.4162290">
        <ele>3906.7</ele>
        <time>2021-04-17T19:40:37Z</time>
      </trkpt>
      <trkpt lat="4.8314140" lon="-75.4162280">
        <ele>3906.6</ele>
        <time>2021-04-17T19:40:38Z</time>
      </trkpt>
      <trkpt lat="4.8314140" lon="-75.4162280">
        <ele>3906.6</ele>
        <time>2021-04-17T19:40:39Z</time>
      </trkpt>
      <trkpt lat="4.8314170" lon="-75.4162290">
        <ele>3906.6</ele>
        <time>2021-04-17T19:40:40Z</time>
      </trkpt>
      <trkpt lat="4.8314150" lon="-75.4162280">
        <ele>3906.6</ele>
        <time>2021-04-17T19:40:41Z</time>
      </trkpt>
      <trkpt lat="4.8314150" lon="-75.4162280">
        <ele>3906.6</ele>
        <time>2021-04-17T19:40:42Z</time>
      </trkpt>
      <trkpt lat="4.8314140" lon="-75.4162290">
        <ele>3906.6</ele>
        <time>2021-04-17T19:40:43Z</time>
      </trkpt>
      <trkpt lat="4.8314140" lon="-75.4162280">
        <ele>3906.6</ele>
        <time>2021-04-17T19:40:44Z</time>
      </trkpt>
      <trkpt lat="4.8314140" lon="-75.4162270">
        <ele>3906.6</ele>
        <time>2021-04-17T19:40:45Z</time>
      </trkpt>
      <trkpt lat="4.8314140" lon="-75.4162270">
        <ele>3906.6</ele>
        <time>2021-04-17T19:40:46Z</time>
      </trkpt>
      <trkpt lat="4.8314140" lon="-75.4162280">
        <ele>3906.6</ele>
        <time>2021-04-17T19:40:47Z</time>
      </trkpt>
      <trkpt lat="4.8314160" lon="-75.4162270">
        <ele>3906.6</ele>
        <time>2021-04-17T19:40:48Z</time>
      </trkpt>
      <trkpt lat="4.8314180" lon="-75.4162270">
        <ele>3906.5</ele>
        <time>2021-04-17T19:40:49Z</time>
      </trkpt>
      <trkpt lat="4.8314190" lon="-75.4162260">
        <ele>3906.5</ele>
        <time>2021-04-17T19:40:50Z</time>
      </trkpt>
      <trkpt lat="4.8314200" lon="-75.4162270">
        <ele>3906.5</ele>
        <time>2021-04-17T19:40:51Z</time>
      </trkpt>
      <trkpt lat="4.8314210" lon="-75.4162280">
        <ele>3906.5</ele>
        <time>2021-04-17T19:40:52Z</time>
      </trkpt>
      <trkpt lat="4.8314220" lon="-75.4162290">
        <ele>3906.5</ele>
        <time>2021-04-17T19:40:53Z</time>
      </trkpt>
      <trkpt lat="4.8314230" lon="-75.4162300">
        <ele>3906.5</ele>
        <time>2021-04-17T19:40:54Z</time>
      </trkpt>
      <trkpt lat="4.8314230" lon="-75.4162310">
        <ele>3906.5</ele>
        <time>2021-04-17T19:40:55Z</time>
      </trkpt>
      <trkpt lat="4.8314230" lon="-75.4162310">
        <ele>3906.5</ele>
        <time>2021-04-17T19:40:56Z</time>
      </trkpt>
      <trkpt lat="4.8314220" lon="-75.4162300">
        <ele>3906.5</ele>
        <time>2021-04-17T19:40:57Z</time>
      </trkpt>
      <trkpt lat="4.8314230" lon="-75.4162310">
        <ele>3906.5</ele>
        <time>2021-04-17T19:40:58Z</time>
      </trkpt>
      <trkpt lat="4.8314210" lon="-75.4162320">
        <ele>3906.4</ele>
        <time>2021-04-17T19:40:59Z</time>
      </trkpt>
      <trkpt lat="4.8314200" lon="-75.4162320">
        <ele>3906.4</ele>
        <time>2021-04-17T19:41:00Z</time>
      </trkpt>
      <trkpt lat="4.8314190" lon="-75.4162330">
        <ele>3906.4</ele>
        <time>2021-04-17T19:41:01Z</time>
      </trkpt>
      <trkpt lat="4.8314180" lon="-75.4162340">
        <ele>3906.4</ele>
        <time>2021-04-17T19:41:02Z</time>
      </trkpt>
      <trkpt lat="4.8314200" lon="-75.4162400">
        <ele>3906.4</ele>
        <time>2021-04-17T19:41:03Z</time>
      </trkpt>
      <trkpt lat="4.8314200" lon="-75.4162420">
        <ele>3906.4</ele>
        <time>2021-04-17T19:41:04Z</time>
      </trkpt>
      <trkpt lat="4.8314250" lon="-75.4162470">
        <ele>3906.3</ele>
        <time>2021-04-17T19:41:05Z</time>
      </trkpt>
      <trkpt lat="4.8314300" lon="-75.4162590">
        <ele>3906.2</ele>
        <time>2021-04-17T19:41:06Z</time>
      </trkpt>
      <trkpt lat="4.8314400" lon="-75.4162730">
        <ele>3906.1</ele>
        <time>2021-04-17T19:41:07Z</time>
      </trkpt>
      <trkpt lat="4.8314540" lon="-75.4162960">
        <ele>3905.9</ele>
        <time>2021-04-17T19:41:08Z</time>
      </trkpt>
      <trkpt lat="4.8314710" lon="-75.4163250">
        <ele>3905.9</ele>
        <time>2021-04-17T19:41:09Z</time>
      </trkpt>
      <trkpt lat="4.8314900" lon="-75.4163590">
        <ele>3905.8</ele>
        <time>2021-04-17T19:41:10Z</time>
      </trkpt>
      <trkpt lat="4.8315130" lon="-75.4163960">
        <ele>3905.7</ele>
        <time>2021-04-17T19:41:11Z</time>
      </trkpt>
      <trkpt lat="4.8315390" lon="-75.4164360">
        <ele>3905.6</ele>
        <time>2021-04-17T19:41:12Z</time>
      </trkpt>
      <trkpt lat="4.8315680" lon="-75.4164780">
        <ele>3905.4</ele>
        <time>2021-04-17T19:41:13Z</time>
      </trkpt>
      <trkpt lat="4.8316010" lon="-75.4165220">
        <ele>3905.2</ele>
        <time>2021-04-17T19:41:14Z</time>
      </trkpt>
      <trkpt lat="4.8316390" lon="-75.4165670">
        <ele>3905.1</ele>
        <time>2021-04-17T19:41:15Z</time>
      </trkpt>
      <trkpt lat="4.8316800" lon="-75.4166160">
        <ele>3904.9</ele>
        <time>2021-04-17T19:41:16Z</time>
      </trkpt>
      <trkpt lat="4.8317180" lon="-75.4166660">
        <ele>3904.8</ele>
        <time>2021-04-17T19:41:17Z</time>
      </trkpt>
      <trkpt lat="4.8317590" lon="-75.4167190">
        <ele>3904.8</ele>
        <time>2021-04-17T19:41:18Z</time>
      </trkpt>
      <trkpt lat="4.8318010" lon="-75.4167720">
        <ele>3904.8</ele>
        <time>2021-04-17T19:41:19Z</time>
      </trkpt>
      <trkpt lat="4.8318430" lon="-75.4168270">
        <ele>3905.0</ele>
        <time>2021-04-17T19:41:20Z</time>
      </trkpt>
      <trkpt lat="4.8318900" lon="-75.4168810">
        <ele>3905.0</ele>
        <time>2021-04-17T19:41:21Z</time>
      </trkpt>
      <trkpt lat="4.8319390" lon="-75.4169340">
        <ele>3904.5</ele>
        <time>2021-04-17T19:41:22Z</time>
      </trkpt>
      <trkpt lat="4.8319850" lon="-75.4169910">
        <ele>3904.4</ele>
        <time>2021-04-17T19:41:23Z</time>
      </trkpt>
      <trkpt lat="4.8320300" lon="-75.4170500">
        <ele>3904.3</ele>
        <time>2021-04-17T19:41:24Z</time>
      </trkpt>
      <trkpt lat="4.8320740" lon="-75.4171100">
        <ele>3904.2</ele>
        <time>2021-04-17T19:41:25Z</time>
      </trkpt>
      <trkpt lat="4.8321190" lon="-75.4171700">
        <ele>3904.0</ele>
        <time>2021-04-17T19:41:26Z</time>
      </trkpt>
      <trkpt lat="4.8321650" lon="-75.4172300">
        <ele>3903.8</ele>
        <time>2021-04-17T19:41:27Z</time>
      </trkpt>
      <trkpt lat="4.8322130" lon="-75.4172900">
        <ele>3903.4</ele>
        <time>2021-04-17T19:41:28Z</time>
      </trkpt>
      <trkpt lat="4.8322640" lon="-75.4173510">
        <ele>3902.9</ele>
        <time>2021-04-17T19:41:29Z</time>
      </trkpt>
      <trkpt lat="4.8323180" lon="-75.4174160">
        <ele>3902.4</ele>
        <time>2021-04-17T19:41:30Z</time>
      </trkpt>
      <trkpt lat="4.8323720" lon="-75.4174840">
        <ele>3902.0</ele>
        <time>2021-04-17T19:41:31Z</time>
      </trkpt>
      <trkpt lat="4.8324260" lon="-75.4175560">
        <ele>3901.3</ele>
        <time>2021-04-17T19:41:32Z</time>
      </trkpt>
      <trkpt lat="4.8324810" lon="-75.4176300">
        <ele>3900.5</ele>
        <time>2021-04-17T19:41:33Z</time>
      </trkpt>
      <trkpt lat="4.8325340" lon="-75.4177040">
        <ele>3899.7</ele>
        <time>2021-04-17T19:41:34Z</time>
      </trkpt>
      <trkpt lat="4.8325870" lon="-75.4177750">
        <ele>3899.0</ele>
        <time>2021-04-17T19:41:35Z</time>
      </trkpt>
      <trkpt lat="4.8326420" lon="-75.4178440">
        <ele>3898.3</ele>
        <time>2021-04-17T19:41:36Z</time>
      </trkpt>
      <trkpt lat="4.8326970" lon="-75.4179130">
        <ele>3897.5</ele>
        <time>2021-04-17T19:41:37Z</time>
      </trkpt>
      <trkpt lat="4.8327520" lon="-75.4179840">
        <ele>3896.8</ele>
        <time>2021-04-17T19:41:38Z</time>
      </trkpt>
      <trkpt lat="4.8328070" lon="-75.4180550">
        <ele>3896.0</ele>
        <time>2021-04-17T19:41:39Z</time>
      </trkpt>
      <trkpt lat="4.8328650" lon="-75.4181270">
        <ele>3895.3</ele>
        <time>2021-04-17T19:41:40Z</time>
      </trkpt>
      <trkpt lat="4.8329270" lon="-75.4182010">
        <ele>3894.5</ele>
        <time>2021-04-17T19:41:41Z</time>
      </trkpt>
      <trkpt lat="4.8329870" lon="-75.4182790">
        <ele>3893.6</ele>
        <time>2021-04-17T19:41:42Z</time>
      </trkpt>
      <trkpt lat="4.8330370" lon="-75.4183630">
        <ele>3892.8</ele>
        <time>2021-04-17T19:41:43Z</time>
      </trkpt>
      <trkpt lat="4.8330700" lon="-75.4184510">
        <ele>3892.0</ele>
        <time>2021-04-17T19:41:44Z</time>
      </trkpt>
      <trkpt lat="4.8330870" lon="-75.4185450">
        <ele>3891.2</ele>
        <time>2021-04-17T19:41:45Z</time>
      </trkpt>
      <trkpt lat="4.8330950" lon="-75.4186390">
        <ele>3890.4</ele>
        <time>2021-04-17T19:41:46Z</time>
      </trkpt>
      <trkpt lat="4.8331050" lon="-75.4187350">
        <ele>3889.6</ele>
        <time>2021-04-17T19:41:47Z</time>
      </trkpt>
      <trkpt lat="4.8331290" lon="-75.4188270">
        <ele>3888.8</ele>
        <time>2021-04-17T19:41:48Z</time>
      </trkpt>
      <trkpt lat="4.8331720" lon="-75.4189140">
        <ele>3888.0</ele>
        <time>2021-04-17T19:41:49Z</time>
      </trkpt>
      <trkpt lat="4.8332280" lon="-75.4189920">
        <ele>3887.2</ele>
        <time>2021-04-17T19:41:50Z</time>
      </trkpt>
      <trkpt lat="4.8332930" lon="-75.4190670">
        <ele>3886.4</ele>
        <time>2021-04-17T19:41:51Z</time>
      </trkpt>
      <trkpt lat="4.8333620" lon="-75.4191410">
        <ele>3885.6</ele>
        <time>2021-04-17T19:41:52Z</time>
      </trkpt>
      <trkpt lat="4.8334340" lon="-75.4192160">
        <ele>3884.7</ele>
        <time>2021-04-17T19:41:53Z</time>
      </trkpt>
      <trkpt lat="4.8335130" lon="-75.4192900">
        <ele>3883.8</ele>
        <time>2021-04-17T19:41:54Z</time>
      </trkpt>
      <trkpt lat="4.8335980" lon="-75.4193620">
        <ele>3882.9</ele>
        <time>2021-04-17T19:41:55Z</time>
      </trkpt>
      <trkpt lat="4.8336870" lon="-75.4194300">
        <ele>3881.9</ele>
        <time>2021-04-17T19:41:56Z</time>
      </trkpt>
      <trkpt lat="4.8337800" lon="-75.4194960">
        <ele>3881.0</ele>
        <time>2021-04-17T19:41:57Z</time>
      </trkpt>
      <trkpt lat="4.8338750" lon="-75.4195610">
        <ele>3880.0</ele>
        <time>2021-04-17T19:41:58Z</time>
      </trkpt>
      <trkpt lat="4.8339720" lon="-75.4196260">
        <ele>3879.0</ele>
        <time>2021-04-17T19:41:59Z</time>
      </trkpt>
      <trkpt lat="4.8340700" lon="-75.4196900">
        <ele>3878.0</ele>
        <time>2021-04-17T19:42:00Z</time>
      </trkpt>
      <trkpt lat="4.8341680" lon="-75.4197560">
        <ele>3877.1</ele>
        <time>2021-04-17T19:42:01Z</time>
      </trkpt>
      <trkpt lat="4.8342670" lon="-75.4198220">
        <ele>3876.1</ele>
        <time>2021-04-17T19:42:02Z</time>
      </trkpt>
      <trkpt lat="4.8343640" lon="-75.4198900">
        <ele>3875.1</ele>
        <time>2021-04-17T19:42:03Z</time>
      </trkpt>
      <trkpt lat="4.8344580" lon="-75.4199600">
        <ele>3874.1</ele>
        <time>2021-04-17T19:42:04Z</time>
      </trkpt>
      <trkpt lat="4.8345440" lon="-75.4200350">
        <ele>3873.1</ele>
        <time>2021-04-17T19:42:05Z</time>
      </trkpt>
      <trkpt lat="4.8346200" lon="-75.4201200">
        <ele>3872.2</ele>
        <time>2021-04-17T19:42:06Z</time>
      </trkpt>
      <trkpt lat="4.8346870" lon="-75.4202150">
        <ele>3871.2</ele>
        <time>2021-04-17T19:42:07Z</time>
      </trkpt>
      <trkpt lat="4.8347530" lon="-75.4203170">
        <ele>3870.2</ele>
        <time>2021-04-17T19:42:08Z</time>
      </trkpt>
      <trkpt lat="4.8348130" lon="-75.4204240">
        <ele>3869.2</ele>
        <time>2021-04-17T19:42:09Z</time>
      </trkpt>
      <trkpt lat="4.8348630" lon="-75.4205400">
        <ele>3868.1</ele>
        <time>2021-04-17T19:42:10Z</time>
      </trkpt>
      <trkpt lat="4.8349050" lon="-75.4206640">
        <ele>3867.0</ele>
        <time>2021-04-17T19:42:11Z</time>
      </trkpt>
      <trkpt lat="4.8349470" lon="-75.4207930">
        <ele>3865.9</ele>
        <time>2021-04-17T19:42:12Z</time>
      </trkpt>
      <trkpt lat="4.8349930" lon="-75.4209230">
        <ele>3864.7</ele>
        <time>2021-04-17T19:42:13Z</time>
      </trkpt>
      <trkpt lat="4.8350440" lon="-75.4210520">
        <ele>3863.6</ele>
        <time>2021-04-17T19:42:14Z</time>
      </trkpt>
      <trkpt lat="4.8351050" lon="-75.4211800">
        <ele>3862.4</ele>
        <time>2021-04-17T19:42:15Z</time>
      </trkpt>
      <trkpt lat="4.8351730" lon="-75.4213010">
        <ele>3861.2</ele>
        <time>2021-04-17T19:42:16Z</time>
      </trkpt>
      <trkpt lat="4.8352480" lon="-75.4214180">
        <ele>3860.1</ele>
        <time>2021-04-17T19:42:17Z</time>
      </trkpt>
      <trkpt lat="4.8353260" lon="-75.4215320">
        <ele>3858.9</ele>
        <time>2021-04-17T19:42:18Z</time>
      </trkpt>
      <trkpt lat="4.8354060" lon="-75.4216440">
        <ele>3857.8</ele>
        <time>2021-04-17T19:42:19Z</time>
      </trkpt>
      <trkpt lat="4.8354870" lon="-75.4217520">
        <ele>3856.6</ele>
        <time>2021-04-17T19:42:20Z</time>
      </trkpt>
      <trkpt lat="4.8355710" lon="-75.4218490">
        <ele>3855.6</ele>
        <time>2021-04-17T19:42:21Z</time>
      </trkpt>
      <trkpt lat="4.8356660" lon="-75.4219330">
        <ele>3854.5</ele>
        <time>2021-04-17T19:42:22Z</time>
      </trkpt>
      <trkpt lat="4.8357690" lon="-75.4220020">
        <ele>3853.5</ele>
        <time>2021-04-17T19:42:23Z</time>
      </trkpt>
      <trkpt lat="4.8358770" lon="-75.4220680">
        <ele>3852.4</ele>
        <time>2021-04-17T19:42:24Z</time>
      </trkpt>
      <trkpt lat="4.8359850" lon="-75.4221340">
        <ele>3851.4</ele>
        <time>2021-04-17T19:42:25Z</time>
      </trkpt>
      <trkpt lat="4.8360950" lon="-75.4222020">
        <ele>3850.3</ele>
        <time>2021-04-17T19:42:26Z</time>
      </trkpt>
      <trkpt lat="4.8362070" lon="-75.4222680">
        <ele>3849.2</ele>
        <time>2021-04-17T19:42:27Z</time>
      </trkpt>
      <trkpt lat="4.8363210" lon="-75.4223350">
        <ele>3848.1</ele>
        <time>2021-04-17T19:42:28Z</time>
      </trkpt>
      <trkpt lat="4.8364340" lon="-75.4224000">
        <ele>3847.0</ele>
        <time>2021-04-17T19:42:29Z</time>
      </trkpt>
      <trkpt lat="4.8365490" lon="-75.4224640">
        <ele>3846.0</ele>
        <time>2021-04-17T19:42:30Z</time>
      </trkpt>
      <trkpt lat="4.8366640" lon="-75.4225260">
        <ele>3845.0</ele>
        <time>2021-04-17T19:42:31Z</time>
      </trkpt>
      <trkpt lat="4.8367710" lon="-75.4225880">
        <ele>3844.0</ele>
        <time>2021-04-17T19:42:32Z</time>
      </trkpt>
      <trkpt lat="4.8368640" lon="-75.4226530">
        <ele>3843.1</ele>
        <time>2021-04-17T19:42:33Z</time>
      </trkpt>
      <trkpt lat="4.8369400" lon="-75.4227250">
        <ele>3842.3</ele>
        <time>2021-04-17T19:42:34Z</time>
      </trkpt>
      <trkpt lat="4.8369960" lon="-75.4228030">
        <ele>3841.5</ele>
        <time>2021-04-17T19:42:35Z</time>
      </trkpt>
      <trkpt lat="4.8370310" lon="-75.4228880">
        <ele>3840.8</ele>
        <time>2021-04-17T19:42:36Z</time>
      </trkpt>
      <trkpt lat="4.8370440" lon="-75.4229800">
        <ele>3840.1</ele>
        <time>2021-04-17T19:42:37Z</time>
      </trkpt>
      <trkpt lat="4.8370440" lon="-75.4230800">
        <ele>3839.3</ele>
        <time>2021-04-17T19:42:38Z</time>
      </trkpt>
      <trkpt lat="4.8370370" lon="-75.4231830">
        <ele>3838.5</ele>
        <time>2021-04-17T19:42:39Z</time>
      </trkpt>
      <trkpt lat="4.8370270" lon="-75.4232850">
        <ele>3837.7</ele>
        <time>2021-04-17T19:42:40Z</time>
      </trkpt>
      <trkpt lat="4.8370150" lon="-75.4233880">
        <ele>3836.8</ele>
        <time>2021-04-17T19:42:41Z</time>
      </trkpt>
      <trkpt lat="4.8369990" lon="-75.4234920">
        <ele>3836.0</ele>
        <time>2021-04-17T19:42:42Z</time>
      </trkpt>
      <trkpt lat="4.8369870" lon="-75.4235950">
        <ele>3835.2</ele>
        <time>2021-04-17T19:42:43Z</time>
      </trkpt>
      <trkpt lat="4.8369830" lon="-75.4236970">
        <ele>3834.4</ele>
        <time>2021-04-17T19:42:44Z</time>
      </trkpt>
      <trkpt lat="4.8369850" lon="-75.4237990">
        <ele>3833.6</ele>
        <time>2021-04-17T19:42:45Z</time>
      </trkpt>
      <trkpt lat="4.8369990" lon="-75.4238990">
        <ele>3832.8</ele>
        <time>2021-04-17T19:42:46Z</time>
      </trkpt>
      <trkpt lat="4.8370260" lon="-75.4239960">
        <ele>3832.0</ele>
        <time>2021-04-17T19:42:47Z</time>
      </trkpt>
      <trkpt lat="4.8370690" lon="-75.4240860">
        <ele>3831.2</ele>
        <time>2021-04-17T19:42:48Z</time>
      </trkpt>
      <trkpt lat="4.8371260" lon="-75.4241690">
        <ele>3830.4</ele>
        <time>2021-04-17T19:42:49Z</time>
      </trkpt>
      <trkpt lat="4.8371940" lon="-75.4242420">
        <ele>3829.6</ele>
        <time>2021-04-17T19:42:50Z</time>
      </trkpt>
      <trkpt lat="4.8372700" lon="-75.4243060">
        <ele>3828.9</ele>
        <time>2021-04-17T19:42:51Z</time>
      </trkpt>
      <trkpt lat="4.8373540" lon="-75.4243590">
        <ele>3828.1</ele>
        <time>2021-04-17T19:42:52Z</time>
      </trkpt>
      <trkpt lat="4.8374450" lon="-75.4244040">
        <ele>3827.3</ele>
        <time>2021-04-17T19:42:53Z</time>
      </trkpt>
      <trkpt lat="4.8375370" lon="-75.4244480">
        <ele>3826.5</ele>
        <time>2021-04-17T19:42:54Z</time>
      </trkpt>
      <trkpt lat="4.8376290" lon="-75.4244970">
        <ele>3825.6</ele>
        <time>2021-04-17T19:42:55Z</time>
      </trkpt>
      <trkpt lat="4.8377200" lon="-75.4245470">
        <ele>3824.8</ele>
        <time>2021-04-17T19:42:56Z</time>
      </trkpt>
      <trkpt lat="4.8378140" lon="-75.4245950">
        <ele>3824.0</ele>
        <time>2021-04-17T19:42:57Z</time>
      </trkpt>
      <trkpt lat="4.8379080" lon="-75.4246430">
        <ele>3823.2</ele>
        <time>2021-04-17T19:42:58Z</time>
      </trkpt>
      <trkpt lat="4.8380030" lon="-75.4246890">
        <ele>3822.3</ele>
        <time>2021-04-17T19:42:59Z</time>
      </trkpt>
      <trkpt lat="4.8380990" lon="-75.4247390">
        <ele>3821.5</ele>
        <time>2021-04-17T19:43:00Z</time>
      </trkpt>
      <trkpt lat="4.8381940" lon="-75.4247940">
        <ele>3820.6</ele>
        <time>2021-04-17T19:43:01Z</time>
      </trkpt>
      <trkpt lat="4.8382850" lon="-75.4248540">
        <ele>3819.7</ele>
        <time>2021-04-17T19:43:02Z</time>
      </trkpt>
      <trkpt lat="4.8383740" lon="-75.4249160">
        <ele>3818.9</ele>
        <time>2021-04-17T19:43:03Z</time>
      </trkpt>
      <trkpt lat="4.8384660" lon="-75.4249780">
        <ele>3818.0</ele>
        <time>2021-04-17T19:43:04Z</time>
      </trkpt>
      <trkpt lat="4.8385600" lon="-75.4250380">
        <ele>3817.1</ele>
        <time>2021-04-17T19:43:05Z</time>
      </trkpt>
      <trkpt lat="4.8386540" lon="-75.4251000">
        <ele>3816.2</ele>
        <time>2021-04-17T19:43:06Z</time>
      </trkpt>
      <trkpt lat="4.8387470" lon="-75.4251650">
        <ele>3815.4</ele>
        <time>2021-04-17T19:43:07Z</time>
      </trkpt>
      <trkpt lat="4.8388360" lon="-75.4252310">
        <ele>3814.5</ele>
        <time>2021-04-17T19:43:08Z</time>
      </trkpt>
      <trkpt lat="4.8389240" lon="-75.4252980">
        <ele>3813.6</ele>
        <time>2021-04-17T19:43:09Z</time>
      </trkpt>
      <trkpt lat="4.8390090" lon="-75.4253680">
        <ele>3812.7</ele>
        <time>2021-04-17T19:43:10Z</time>
      </trkpt>
      <trkpt lat="4.8390860" lon="-75.4254440">
        <ele>3811.9</ele>
        <time>2021-04-17T19:43:11Z</time>
      </trkpt>
      <trkpt lat="4.8391510" lon="-75.4255230">
        <ele>3811.1</ele>
        <time>2021-04-17T19:43:12Z</time>
      </trkpt>
      <trkpt lat="4.8392020" lon="-75.4256030">
        <ele>3810.3</ele>
        <time>2021-04-17T19:43:13Z</time>
      </trkpt>
      <trkpt lat="4.8392390" lon="-75.4256810">
        <ele>3809.7</ele>
        <time>2021-04-17T19:43:14Z</time>
      </trkpt>
      <trkpt lat="4.8392270" lon="-75.4257460">
        <ele>3809.1</ele>
        <time>2021-04-17T19:43:15Z</time>
      </trkpt>
      <trkpt lat="4.8392060" lon="-75.4258190">
        <ele>3808.5</ele>
        <time>2021-04-17T19:43:16Z</time>
      </trkpt>
      <trkpt lat="4.8391660" lon="-75.4258870">
        <ele>3807.9</ele>
        <time>2021-04-17T19:43:17Z</time>
      </trkpt>
      <trkpt lat="4.8391060" lon="-75.4259430">
        <ele>3807.3</ele>
        <time>2021-04-17T19:43:18Z</time>
      </trkpt>
      <trkpt lat="4.8390220" lon="-75.4259780">
        <ele>3806.5</ele>
        <time>2021-04-17T19:43:19Z</time>
      </trkpt>
      <trkpt lat="4.8389300" lon="-75.4260020">
        <ele>3805.8</ele>
        <time>2021-04-17T19:43:20Z</time>
      </trkpt>
      <trkpt lat="4.8388380" lon="-75.4260270">
        <ele>3805.0</ele>
        <time>2021-04-17T19:43:21Z</time>
      </trkpt>
      <trkpt lat="4.8387440" lon="-75.4260560">
        <ele>3804.3</ele>
        <time>2021-04-17T19:43:22Z</time>
      </trkpt>
      <trkpt lat="4.8386460" lon="-75.4260850">
        <ele>3803.5</ele>
        <time>2021-04-17T19:43:23Z</time>
      </trkpt>
      <trkpt lat="4.8385470" lon="-75.4261130">
        <ele>3802.6</ele>
        <time>2021-04-17T19:43:24Z</time>
      </trkpt>
      <trkpt lat="4.8384480" lon="-75.4261450">
        <ele>3801.8</ele>
        <time>2021-04-17T19:43:25Z</time>
      </trkpt>
      <trkpt lat="4.8383460" lon="-75.4261790">
        <ele>3801.0</ele>
        <time>2021-04-17T19:43:26Z</time>
      </trkpt>
      <trkpt lat="4.8382430" lon="-75.4262140">
        <ele>3800.1</ele>
        <time>2021-04-17T19:43:27Z</time>
      </trkpt>
      <trkpt lat="4.8381390" lon="-75.4262490">
        <ele>3799.3</ele>
        <time>2021-04-17T19:43:28Z</time>
      </trkpt>
      <trkpt lat="4.8380330" lon="-75.4262850">
        <ele>3798.4</ele>
        <time>2021-04-17T19:43:29Z</time>
      </trkpt>
      <trkpt lat="4.8379300" lon="-75.4263200">
        <ele>3797.5</ele>
        <time>2021-04-17T19:43:30Z</time>
      </trkpt>
      <trkpt lat="4.8378290" lon="-75.4263520">
        <ele>3796.7</ele>
        <time>2021-04-17T19:43:31Z</time>
      </trkpt>
      <trkpt lat="4.8377290" lon="-75.4263820">
        <ele>3795.8</ele>
        <time>2021-04-17T19:43:32Z</time>
      </trkpt>
      <trkpt lat="4.8376310" lon="-75.4264090">
        <ele>3795.0</ele>
        <time>2021-04-17T19:43:33Z</time>
      </trkpt>
      <trkpt lat="4.8375360" lon="-75.4264340">
        <ele>3794.3</ele>
        <time>2021-04-17T19:43:34Z</time>
      </trkpt>
      <trkpt lat="4.8374410" lon="-75.4264550">
        <ele>3793.5</ele>
        <time>2021-04-17T19:43:35Z</time>
      </trkpt>
      <trkpt lat="4.8373400" lon="-75.4264670">
        <ele>3792.7</ele>
        <time>2021-04-17T19:43:36Z</time>
      </trkpt>
      <trkpt lat="4.8372360" lon="-75.4264780">
        <ele>3791.9</ele>
        <time>2021-04-17T19:43:37Z</time>
      </trkpt>
      <trkpt lat="4.8371320" lon="-75.4264950">
        <ele>3791.0</ele>
        <time>2021-04-17T19:43:38Z</time>
      </trkpt>
      <trkpt lat="4.8370300" lon="-75.4265220">
        <ele>3790.2</ele>
        <time>2021-04-17T19:43:39Z</time>
      </trkpt>
      <trkpt lat="4.8369350" lon="-75.4265600">
        <ele>3789.4</ele>
        <time>2021-04-17T19:43:40Z</time>
      </trkpt>
      <trkpt lat="4.8368460" lon="-75.4266100">
        <ele>3788.6</ele>
        <time>2021-04-17T19:43:41Z</time>
      </trkpt>
      <trkpt lat="4.8367610" lon="-75.4266710">
        <ele>3787.8</ele>
        <time>2021-04-17T19:43:42Z</time>
      </trkpt>
      <trkpt lat="4.8366810" lon="-75.4267400">
        <ele>3786.9</ele>
        <time>2021-04-17T19:43:43Z</time>
      </trkpt>
      <trkpt lat="4.8366040" lon="-75.4268090">
        <ele>3786.1</ele>
        <time>2021-04-17T19:43:44Z</time>
      </trkpt>
      <trkpt lat="4.8365280" lon="-75.4268770">
        <ele>3785.3</ele>
        <time>2021-04-17T19:43:45Z</time>
      </trkpt>
      <trkpt lat="4.8364570" lon="-75.4269440">
        <ele>3784.5</ele>
        <time>2021-04-17T19:43:46Z</time>
      </trkpt>
      <trkpt lat="4.8363960" lon="-75.4270140">
        <ele>3783.8</ele>
        <time>2021-04-17T19:43:47Z</time>
      </trkpt>
      <trkpt lat="4.8363530" lon="-75.4270830">
        <ele>3783.2</ele>
        <time>2021-04-17T19:43:48Z</time>
      </trkpt>
      <trkpt lat="4.8363330" lon="-75.4271580">
        <ele>3782.6</ele>
        <time>2021-04-17T19:43:49Z</time>
      </trkpt>
      <trkpt lat="4.8363380" lon="-75.4272340">
        <ele>3782.0</ele>
        <time>2021-04-17T19:43:50Z</time>
      </trkpt>
      <trkpt lat="4.8363670" lon="-75.4273040">
        <ele>3781.4</ele>
        <time>2021-04-17T19:43:51Z</time>
      </trkpt>
      <trkpt lat="4.8364140" lon="-75.4273700">
        <ele>3780.7</ele>
        <time>2021-04-17T19:43:52Z</time>
      </trkpt>
      <trkpt lat="4.8364710" lon="-75.4274330">
        <ele>3780.0</ele>
        <time>2021-04-17T19:43:53Z</time>
      </trkpt>
      <trkpt lat="4.8365360" lon="-75.4274910">
        <ele>3779.4</ele>
        <time>2021-04-17T19:43:54Z</time>
      </trkpt>
      <trkpt lat="4.8366090" lon="-75.4275390">
        <ele>3778.9</ele>
        <time>2021-04-17T19:43:55Z</time>
      </trkpt>
      <trkpt lat="4.8366910" lon="-75.4275810">
        <ele>3778.4</ele>
        <time>2021-04-17T19:43:56Z</time>
      </trkpt>
      <trkpt lat="4.8367730" lon="-75.4276230">
        <ele>3777.8</ele>
        <time>2021-04-17T19:43:57Z</time>
      </trkpt>
      <trkpt lat="4.8368540" lon="-75.4276700">
        <ele>3777.3</ele>
        <time>2021-04-17T19:43:58Z</time>
      </trkpt>
      <trkpt lat="4.8369310" lon="-75.4277210">
        <ele>3776.7</ele>
        <time>2021-04-17T19:43:59Z</time>
      </trkpt>
      <trkpt lat="4.8370020" lon="-75.4277780">
        <ele>3776.2</ele>
        <time>2021-04-17T19:44:00Z</time>
      </trkpt>
      <trkpt lat="4.8370660" lon="-75.4278410">
        <ele>3775.6</ele>
        <time>2021-04-17T19:44:01Z</time>
      </trkpt>
      <trkpt lat="4.8371180" lon="-75.4279110">
        <ele>3775.1</ele>
        <time>2021-04-17T19:44:02Z</time>
      </trkpt>
      <trkpt lat="4.8371610" lon="-75.4279860">
        <ele>3774.6</ele>
        <time>2021-04-17T19:44:03Z</time>
      </trkpt>
      <trkpt lat="4.8372010" lon="-75.4280650">
        <ele>3774.1</ele>
        <time>2021-04-17T19:44:04Z</time>
      </trkpt>
      <trkpt lat="4.8372450" lon="-75.4281460">
        <ele>3773.5</ele>
        <time>2021-04-17T19:44:05Z</time>
      </trkpt>
      <trkpt lat="4.8372880" lon="-75.4282270">
        <ele>3773.0</ele>
        <time>2021-04-17T19:44:06Z</time>
      </trkpt>
      <trkpt lat="4.8373290" lon="-75.4283090">
        <ele>3772.4</ele>
        <time>2021-04-17T19:44:07Z</time>
      </trkpt>
      <trkpt lat="4.8373700" lon="-75.4283900">
        <ele>3771.9</ele>
        <time>2021-04-17T19:44:08Z</time>
      </trkpt>
      <trkpt lat="4.8374080" lon="-75.4284710">
        <ele>3771.4</ele>
        <time>2021-04-17T19:44:09Z</time>
      </trkpt>
      <trkpt lat="4.8374460" lon="-75.4285510">
        <ele>3770.8</ele>
        <time>2021-04-17T19:44:10Z</time>
      </trkpt>
      <trkpt lat="4.8374840" lon="-75.4286310">
        <ele>3770.3</ele>
        <time>2021-04-17T19:44:11Z</time>
      </trkpt>
      <trkpt lat="4.8375280" lon="-75.4287070">
        <ele>3769.8</ele>
        <time>2021-04-17T19:44:12Z</time>
      </trkpt>
      <trkpt lat="4.8375690" lon="-75.4287860">
        <ele>3769.3</ele>
        <time>2021-04-17T19:44:13Z</time>
      </trkpt>
      <trkpt lat="4.8376150" lon="-75.4288660">
        <ele>3768.7</ele>
        <time>2021-04-17T19:44:14Z</time>
      </trkpt>
      <trkpt lat="4.8376620" lon="-75.4289430">
        <ele>3768.2</ele>
        <time>2021-04-17T19:44:15Z</time>
      </trkpt>
      <trkpt lat="4.8377040" lon="-75.4290210">
        <ele>3767.7</ele>
        <time>2021-04-17T19:44:16Z</time>
      </trkpt>
      <trkpt lat="4.8377430" lon="-75.4291000">
        <ele>3767.1</ele>
        <time>2021-04-17T19:44:17Z</time>
      </trkpt>
      <trkpt lat="4.8377810" lon="-75.4291780">
        <ele>3766.6</ele>
        <time>2021-04-17T19:44:18Z</time>
      </trkpt>
      <trkpt lat="4.8378190" lon="-75.4292520">
        <ele>3766.1</ele>
        <time>2021-04-17T19:44:19Z</time>
      </trkpt>
      <trkpt lat="4.8378600" lon="-75.4293230">
        <ele>3765.6</ele>
        <time>2021-04-17T19:44:20Z</time>
      </trkpt>
      <trkpt lat="4.8379000" lon="-75.4293940">
        <ele>3765.1</ele>
        <time>2021-04-17T19:44:21Z</time>
      </trkpt>
      <trkpt lat="4.8379390" lon="-75.4294660">
        <ele>3764.7</ele>
        <time>2021-04-17T19:44:22Z</time>
      </trkpt>
      <trkpt lat="4.8379720" lon="-75.4295370">
        <ele>3764.2</ele>
        <time>2021-04-17T19:44:23Z</time>
      </trkpt>
      <trkpt lat="4.8380030" lon="-75.4296080">
        <ele>3763.7</ele>
        <time>2021-04-17T19:44:24Z</time>
      </trkpt>
      <trkpt lat="4.8380380" lon="-75.4296810">
        <ele>3763.3</ele>
        <time>2021-04-17T19:44:25Z</time>
      </trkpt>
      <trkpt lat="4.8380780" lon="-75.4297520">
        <ele>3762.8</ele>
        <time>2021-04-17T19:44:26Z</time>
      </trkpt>
      <trkpt lat="4.8381160" lon="-75.4298240">
        <ele>3762.3</ele>
        <time>2021-04-17T19:44:27Z</time>
      </trkpt>
      <trkpt lat="4.8381550" lon="-75.4299010">
        <ele>3761.8</ele>
        <time>2021-04-17T19:44:28Z</time>
      </trkpt>
      <trkpt lat="4.8381960" lon="-75.4299820">
        <ele>3761.2</ele>
        <time>2021-04-17T19:44:29Z</time>
      </trkpt>
      <trkpt lat="4.8382370" lon="-75.4300680">
        <ele>3760.7</ele>
        <time>2021-04-17T19:44:30Z</time>
      </trkpt>
      <trkpt lat="4.8382790" lon="-75.4301520">
        <ele>3760.1</ele>
        <time>2021-04-17T19:44:31Z</time>
      </trkpt>
      <trkpt lat="4.8383250" lon="-75.4302340">
        <ele>3759.5</ele>
        <time>2021-04-17T19:44:32Z</time>
      </trkpt>
      <trkpt lat="4.8383710" lon="-75.4303130">
        <ele>3759.0</ele>
        <time>2021-04-17T19:44:33Z</time>
      </trkpt>
      <trkpt lat="4.8384160" lon="-75.4303940">
        <ele>3758.5</ele>
        <time>2021-04-17T19:44:34Z</time>
      </trkpt>
      <trkpt lat="4.8384600" lon="-75.4304780">
        <ele>3757.9</ele>
        <time>2021-04-17T19:44:35Z</time>
      </trkpt>
      <trkpt lat="4.8385030" lon="-75.4305630">
        <ele>3757.3</ele>
        <time>2021-04-17T19:44:36Z</time>
      </trkpt>
      <trkpt lat="4.8385470" lon="-75.4306490">
        <ele>3756.7</ele>
        <time>2021-04-17T19:44:37Z</time>
      </trkpt>
      <trkpt lat="4.8385910" lon="-75.4307340">
        <ele>3756.2</ele>
        <time>2021-04-17T19:44:38Z</time>
      </trkpt>
      <trkpt lat="4.8386350" lon="-75.4308150">
        <ele>3755.6</ele>
        <time>2021-04-17T19:44:39Z</time>
      </trkpt>
      <trkpt lat="4.8386780" lon="-75.4308970">
        <ele>3755.1</ele>
        <time>2021-04-17T19:44:40Z</time>
      </trkpt>
      <trkpt lat="4.8387210" lon="-75.4309750">
        <ele>3754.6</ele>
        <time>2021-04-17T19:44:41Z</time>
      </trkpt>
      <trkpt lat="4.8387610" lon="-75.4310540">
        <ele>3754.0</ele>
        <time>2021-04-17T19:44:42Z</time>
      </trkpt>
      <trkpt lat="4.8387980" lon="-75.4311300">
        <ele>3753.5</ele>
        <time>2021-04-17T19:44:43Z</time>
      </trkpt>
      <trkpt lat="4.8388330" lon="-75.4312100">
        <ele>3753.0</ele>
        <time>2021-04-17T19:44:44Z</time>
      </trkpt>
      <trkpt lat="4.8388670" lon="-75.4312880">
        <ele>3752.5</ele>
        <time>2021-04-17T19:44:45Z</time>
      </trkpt>
      <trkpt lat="4.8389060" lon="-75.4313630">
        <ele>3752.0</ele>
        <time>2021-04-17T19:44:46Z</time>
      </trkpt>
      <trkpt lat="4.8389440" lon="-75.4314390">
        <ele>3751.5</ele>
        <time>2021-04-17T19:44:47Z</time>
      </trkpt>
      <trkpt lat="4.8389820" lon="-75.4315150">
        <ele>3751.0</ele>
        <time>2021-04-17T19:44:48Z</time>
      </trkpt>
      <trkpt lat="4.8390220" lon="-75.4315890">
        <ele>3750.5</ele>
        <time>2021-04-17T19:44:49Z</time>
      </trkpt>
      <trkpt lat="4.8390630" lon="-75.4316590">
        <ele>3750.0</ele>
        <time>2021-04-17T19:44:50Z</time>
      </trkpt>
      <trkpt lat="4.8391060" lon="-75.4317310">
        <ele>3749.5</ele>
        <time>2021-04-17T19:44:51Z</time>
      </trkpt>
      <trkpt lat="4.8391530" lon="-75.4318020">
        <ele>3749.0</ele>
        <time>2021-04-17T19:44:52Z</time>
      </trkpt>
      <trkpt lat="4.8392140" lon="-75.4318640">
        <ele>3748.5</ele>
        <time>2021-04-17T19:44:53Z</time>
      </trkpt>
      <trkpt lat="4.8392880" lon="-75.4319150">
        <ele>3747.9</ele>
        <time>2021-04-17T19:44:54Z</time>
      </trkpt>
      <trkpt lat="4.8393680" lon="-75.4319420">
        <ele>3747.4</ele>
        <time>2021-04-17T19:44:55Z</time>
      </trkpt>
      <trkpt lat="4.8394420" lon="-75.4319470">
        <ele>3747.0</ele>
        <time>2021-04-17T19:44:56Z</time>
      </trkpt>
      <trkpt lat="4.8395110" lon="-75.4319340">
        <ele>3746.6</ele>
        <time>2021-04-17T19:44:57Z</time>
      </trkpt>
      <trkpt lat="4.8395760" lon="-75.4319060">
        <ele>3746.2</ele>
        <time>2021-04-17T19:44:58Z</time>
      </trkpt>
      <trkpt lat="4.8396380" lon="-75.4318690">
        <ele>3745.7</ele>
        <time>2021-04-17T19:44:59Z</time>
      </trkpt>
      <trkpt lat="4.8397020" lon="-75.4318350">
        <ele>3745.3</ele>
        <time>2021-04-17T19:45:00Z</time>
      </trkpt>
      <trkpt lat="4.8397650" lon="-75.4318100">
        <ele>3744.9</ele>
        <time>2021-04-17T19:45:01Z</time>
      </trkpt>
      <trkpt lat="4.8398170" lon="-75.4317970">
        <ele>3744.6</ele>
        <time>2021-04-17T19:45:02Z</time>
      </trkpt>
      <trkpt lat="4.8398580" lon="-75.4318110">
        <ele>3744.3</ele>
        <time>2021-04-17T19:45:03Z</time>
      </trkpt>
      <trkpt lat="4.8398780" lon="-75.4318490">
        <ele>3744.1</ele>
        <time>2021-04-17T19:45:04Z</time>
      </trkpt>
      <trkpt lat="4.8398830" lon="-75.4318930">
        <ele>3743.8</ele>
        <time>2021-04-17T19:45:05Z</time>
      </trkpt>
      <trkpt lat="4.8398820" lon="-75.4319410">
        <ele>3743.5</ele>
        <time>2021-04-17T19:45:06Z</time>
      </trkpt>
      <trkpt lat="4.8398770" lon="-75.4319930">
        <ele>3743.2</ele>
        <time>2021-04-17T19:45:07Z</time>
      </trkpt>
      <trkpt lat="4.8398750" lon="-75.4320520">
        <ele>3742.8</ele>
        <time>2021-04-17T19:45:08Z</time>
      </trkpt>
      <trkpt lat="4.8398720" lon="-75.4321130">
        <ele>3742.5</ele>
        <time>2021-04-17T19:45:09Z</time>
      </trkpt>
      <trkpt lat="4.8398680" lon="-75.4321770">
        <ele>3742.1</ele>
        <time>2021-04-17T19:45:10Z</time>
      </trkpt>
      <trkpt lat="4.8398630" lon="-75.4322470">
        <ele>3741.7</ele>
        <time>2021-04-17T19:45:11Z</time>
      </trkpt>
      <trkpt lat="4.8398590" lon="-75.4323210">
        <ele>3741.2</ele>
        <time>2021-04-17T19:45:12Z</time>
      </trkpt>
      <trkpt lat="4.8398580" lon="-75.4323960">
        <ele>3740.8</ele>
        <time>2021-04-17T19:45:13Z</time>
      </trkpt>
      <trkpt lat="4.8398610" lon="-75.4324720">
        <ele>3740.3</ele>
        <time>2021-04-17T19:45:14Z</time>
      </trkpt>
      <trkpt lat="4.8398670" lon="-75.4325510">
        <ele>3739.9</ele>
        <time>2021-04-17T19:45:15Z</time>
      </trkpt>
      <trkpt lat="4.8398690" lon="-75.4326320">
        <ele>3739.4</ele>
        <time>2021-04-17T19:45:16Z</time>
      </trkpt>
      <trkpt lat="4.8398720" lon="-75.4327110">
        <ele>3738.9</ele>
        <time>2021-04-17T19:45:17Z</time>
      </trkpt>
      <trkpt lat="4.8398840" lon="-75.4327870">
        <ele>3738.5</ele>
        <time>2021-04-17T19:45:18Z</time>
      </trkpt>
      <trkpt lat="4.8399130" lon="-75.4328590">
        <ele>3738.0</ele>
        <time>2021-04-17T19:45:19Z</time>
      </trkpt>
      <trkpt lat="4.8399620" lon="-75.4329250">
        <ele>3737.5</ele>
        <time>2021-04-17T19:45:20Z</time>
      </trkpt>
      <trkpt lat="4.8400240" lon="-75.4329870">
        <ele>3737.0</ele>
        <time>2021-04-17T19:45:21Z</time>
      </trkpt>
      <trkpt lat="4.8400990" lon="-75.4330380">
        <ele>3736.5</ele>
        <time>2021-04-17T19:45:22Z</time>
      </trkpt>
      <trkpt lat="4.8401840" lon="-75.4330750">
        <ele>3735.9</ele>
        <time>2021-04-17T19:45:23Z</time>
      </trkpt>
      <trkpt lat="4.8402740" lon="-75.4330980">
        <ele>3735.3</ele>
        <time>2021-04-17T19:45:24Z</time>
      </trkpt>
      <trkpt lat="4.8403640" lon="-75.4331030">
        <ele>3734.8</ele>
        <time>2021-04-17T19:45:25Z</time>
      </trkpt>
      <trkpt lat="4.8404530" lon="-75.4330890">
        <ele>3734.3</ele>
        <time>2021-04-17T19:45:26Z</time>
      </trkpt>
      <trkpt lat="4.8405420" lon="-75.4330630">
        <ele>3733.7</ele>
        <time>2021-04-17T19:45:27Z</time>
      </trkpt>
      <trkpt lat="4.8406340" lon="-75.4330400">
        <ele>3733.2</ele>
        <time>2021-04-17T19:45:28Z</time>
      </trkpt>
      <trkpt lat="4.8407310" lon="-75.4330170">
        <ele>3732.6</ele>
        <time>2021-04-17T19:45:29Z</time>
      </trkpt>
      <trkpt lat="4.8408300" lon="-75.4329910">
        <ele>3731.9</ele>
        <time>2021-04-17T19:45:30Z</time>
      </trkpt>
      <trkpt lat="4.8409300" lon="-75.4329580">
        <ele>3731.3</ele>
        <time>2021-04-17T19:45:31Z</time>
      </trkpt>
      <trkpt lat="4.8410300" lon="-75.4329170">
        <ele>3730.7</ele>
        <time>2021-04-17T19:45:32Z</time>
      </trkpt>
      <trkpt lat="4.8411280" lon="-75.4328710">
        <ele>3730.0</ele>
        <time>2021-04-17T19:45:33Z</time>
      </trkpt>
      <trkpt lat="4.8412210" lon="-75.4328230">
        <ele>3729.4</ele>
        <time>2021-04-17T19:45:34Z</time>
      </trkpt>
      <trkpt lat="4.8413140" lon="-75.4327860">
        <ele>3728.7</ele>
        <time>2021-04-17T19:45:35Z</time>
      </trkpt>
      <trkpt lat="4.8414080" lon="-75.4327690">
        <ele>3727.8</ele>
        <time>2021-04-17T19:45:36Z</time>
      </trkpt>
      <trkpt lat="4.8415020" lon="-75.4327690">
        <ele>3726.9</ele>
        <time>2021-04-17T19:45:37Z</time>
      </trkpt>
      <trkpt lat="4.8416000" lon="-75.4327730">
        <ele>3725.9</ele>
        <time>2021-04-17T19:45:38Z</time>
      </trkpt>
      <trkpt lat="4.8417030" lon="-75.4327740">
        <ele>3725.0</ele>
        <time>2021-04-17T19:45:39Z</time>
      </trkpt>
      <trkpt lat="4.8418080" lon="-75.4327720">
        <ele>3724.0</ele>
        <time>2021-04-17T19:45:40Z</time>
      </trkpt>
      <trkpt lat="4.8419150" lon="-75.4327680">
        <ele>3723.0</ele>
        <time>2021-04-17T19:45:41Z</time>
      </trkpt>
      <trkpt lat="4.8420240" lon="-75.4327680">
        <ele>3721.9</ele>
        <time>2021-04-17T19:45:42Z</time>
      </trkpt>
      <trkpt lat="4.8421340" lon="-75.4327760">
        <ele>3720.9</ele>
        <time>2021-04-17T19:45:43Z</time>
      </trkpt>
      <trkpt lat="4.8422450" lon="-75.4327920">
        <ele>3719.8</ele>
        <time>2021-04-17T19:45:44Z</time>
      </trkpt>
      <trkpt lat="4.8423510" lon="-75.4328110">
        <ele>3718.8</ele>
        <time>2021-04-17T19:45:45Z</time>
      </trkpt>
      <trkpt lat="4.8424510" lon="-75.4328290">
        <ele>3717.8</ele>
        <time>2021-04-17T19:45:46Z</time>
      </trkpt>
      <trkpt lat="4.8425500" lon="-75.4328430">
        <ele>3716.9</ele>
        <time>2021-04-17T19:45:47Z</time>
      </trkpt>
      <trkpt lat="4.8426490" lon="-75.4328550">
        <ele>3715.9</ele>
        <time>2021-04-17T19:45:48Z</time>
      </trkpt>
      <trkpt lat="4.8427460" lon="-75.4328740">
        <ele>3715.0</ele>
        <time>2021-04-17T19:45:49Z</time>
      </trkpt>
      <trkpt lat="4.8428380" lon="-75.4329020">
        <ele>3714.1</ele>
        <time>2021-04-17T19:45:50Z</time>
      </trkpt>
      <trkpt lat="4.8429240" lon="-75.4329340">
        <ele>3713.2</ele>
        <time>2021-04-17T19:45:51Z</time>
      </trkpt>
      <trkpt lat="4.8430020" lon="-75.4329690">
        <ele>3712.4</ele>
        <time>2021-04-17T19:45:52Z</time>
      </trkpt>
      <trkpt lat="4.8430700" lon="-75.4330030">
        <ele>3711.7</ele>
        <time>2021-04-17T19:45:53Z</time>
      </trkpt>
      <trkpt lat="4.8431160" lon="-75.4330380">
        <ele>3711.1</ele>
        <time>2021-04-17T19:45:54Z</time>
      </trkpt>
      <trkpt lat="4.8431340" lon="-75.4330750">
        <ele>3710.7</ele>
        <time>2021-04-17T19:45:55Z</time>
      </trkpt>
      <trkpt lat="4.8431290" lon="-75.4331130">
        <ele>3710.4</ele>
        <time>2021-04-17T19:45:56Z</time>
      </trkpt>
      <trkpt lat="4.8431020" lon="-75.4331470">
        <ele>3710.0</ele>
        <time>2021-04-17T19:45:57Z</time>
      </trkpt>
      <trkpt lat="4.8430640" lon="-75.4331860">
        <ele>3709.4</ele>
        <time>2021-04-17T19:45:58Z</time>
      </trkpt>
      <trkpt lat="4.8430190" lon="-75.4332270">
        <ele>3708.9</ele>
        <time>2021-04-17T19:45:59Z</time>
      </trkpt>
      <trkpt lat="4.8429680" lon="-75.4332690">
        <ele>3708.2</ele>
        <time>2021-04-17T19:46:00Z</time>
      </trkpt>
      <trkpt lat="4.8429150" lon="-75.4333140">
        <ele>3707.6</ele>
        <time>2021-04-17T19:46:01Z</time>
      </trkpt>
      <trkpt lat="4.8428720" lon="-75.4333630">
        <ele>3707.0</ele>
        <time>2021-04-17T19:46:02Z</time>
      </trkpt>
      <trkpt lat="4.8428430" lon="-75.4334170">
        <ele>3706.4</ele>
        <time>2021-04-17T19:46:03Z</time>
      </trkpt>
      <trkpt lat="4.8428320" lon="-75.4334770">
        <ele>3705.8</ele>
        <time>2021-04-17T19:46:04Z</time>
      </trkpt>
      <trkpt lat="4.8428390" lon="-75.4335400">
        <ele>3705.2</ele>
        <time>2021-04-17T19:46:05Z</time>
      </trkpt>
      <trkpt lat="4.8428580" lon="-75.4336020">
        <ele>3704.6</ele>
        <time>2021-04-17T19:46:06Z</time>
      </trkpt>
      <trkpt lat="4.8428910" lon="-75.4336650">
        <ele>3703.9</ele>
        <time>2021-04-17T19:46:07Z</time>
      </trkpt>
      <trkpt lat="4.8429360" lon="-75.4337280">
        <ele>3703.2</ele>
        <time>2021-04-17T19:46:08Z</time>
      </trkpt>
      <trkpt lat="4.8429900" lon="-75.4337850">
        <ele>3702.4</ele>
        <time>2021-04-17T19:46:09Z</time>
      </trkpt>
      <trkpt lat="4.8430460" lon="-75.4338360">
        <ele>3701.7</ele>
        <time>2021-04-17T19:46:10Z</time>
      </trkpt>
      <trkpt lat="4.8431040" lon="-75.4338800">
        <ele>3701.0</ele>
        <time>2021-04-17T19:46:11Z</time>
      </trkpt>
      <trkpt lat="4.8431640" lon="-75.4339200">
        <ele>3700.4</ele>
        <time>2021-04-17T19:46:12Z</time>
      </trkpt>
      <trkpt lat="4.8432290" lon="-75.4339580">
        <ele>3699.6</ele>
        <time>2021-04-17T19:46:13Z</time>
      </trkpt>
      <trkpt lat="4.8432960" lon="-75.4339970">
        <ele>3698.9</ele>
        <time>2021-04-17T19:46:14Z</time>
      </trkpt>
      <trkpt lat="4.8433640" lon="-75.4340360">
        <ele>3698.2</ele>
        <time>2021-04-17T19:46:15Z</time>
      </trkpt>
      <trkpt lat="4.8434330" lon="-75.4340760">
        <ele>3697.4</ele>
        <time>2021-04-17T19:46:16Z</time>
      </trkpt>
      <trkpt lat="4.8435020" lon="-75.4341160">
        <ele>3696.7</ele>
        <time>2021-04-17T19:46:17Z</time>
      </trkpt>
      <trkpt lat="4.8435690" lon="-75.4341560">
        <ele>3695.9</ele>
        <time>2021-04-17T19:46:18Z</time>
      </trkpt>
      <trkpt lat="4.8436400" lon="-75.4342000">
        <ele>3695.1</ele>
        <time>2021-04-17T19:46:19Z</time>
      </trkpt>
      <trkpt lat="4.8437120" lon="-75.4342430">
        <ele>3694.3</ele>
        <time>2021-04-17T19:46:20Z</time>
      </trkpt>
      <trkpt lat="4.8437860" lon="-75.4342840">
        <ele>3693.5</ele>
        <time>2021-04-17T19:46:21Z</time>
      </trkpt>
      <trkpt lat="4.8438570" lon="-75.4343220">
        <ele>3692.8</ele>
        <time>2021-04-17T19:46:22Z</time>
      </trkpt>
      <trkpt lat="4.8439180" lon="-75.4343550">
        <ele>3692.1</ele>
        <time>2021-04-17T19:46:23Z</time>
      </trkpt>
      <trkpt lat="4.8439720" lon="-75.4343840">
        <ele>3691.5</ele>
        <time>2021-04-17T19:46:24Z</time>
      </trkpt>
      <trkpt lat="4.8440280" lon="-75.4344130">
        <ele>3690.9</ele>
        <time>2021-04-17T19:46:25Z</time>
      </trkpt>
      <trkpt lat="4.8440860" lon="-75.4344410">
        <ele>3690.3</ele>
        <time>2021-04-17T19:46:26Z</time>
      </trkpt>
      <trkpt lat="4.8441450" lon="-75.4344690">
        <ele>3689.7</ele>
        <time>2021-04-17T19:46:27Z</time>
      </trkpt>
      <trkpt lat="4.8442080" lon="-75.4344950">
        <ele>3689.0</ele>
        <time>2021-04-17T19:46:28Z</time>
      </trkpt>
      <trkpt lat="4.8442730" lon="-75.4345200">
        <ele>3688.4</ele>
        <time>2021-04-17T19:46:29Z</time>
      </trkpt>
      <trkpt lat="4.8443400" lon="-75.4345420">
        <ele>3687.7</ele>
        <time>2021-04-17T19:46:30Z</time>
      </trkpt>
      <trkpt lat="4.8444070" lon="-75.4345540">
        <ele>3687.1</ele>
        <time>2021-04-17T19:46:31Z</time>
      </trkpt>
      <trkpt lat="4.8444740" lon="-75.4345510">
        <ele>3686.4</ele>
        <time>2021-04-17T19:46:32Z</time>
      </trkpt>
      <trkpt lat="4.8445270" lon="-75.4345220">
        <ele>3685.9</ele>
        <time>2021-04-17T19:46:33Z</time>
      </trkpt>
      <trkpt lat="4.8445660" lon="-75.4344800">
        <ele>3685.3</ele>
        <time>2021-04-17T19:46:34Z</time>
      </trkpt>
      <trkpt lat="4.8445840" lon="-75.4344290">
        <ele>3684.8</ele>
        <time>2021-04-17T19:46:35Z</time>
      </trkpt>
      <trkpt lat="4.8445820" lon="-75.4343730">
        <ele>3684.3</ele>
        <time>2021-04-17T19:46:36Z</time>
      </trkpt>
      <trkpt lat="4.8445510" lon="-75.4343110">
        <ele>3683.6</ele>
        <time>2021-04-17T19:46:37Z</time>
      </trkpt>
      <trkpt lat="4.8445110" lon="-75.4342520">
        <ele>3682.9</ele>
        <time>2021-04-17T19:46:38Z</time>
      </trkpt>
      <trkpt lat="4.8444660" lon="-75.4341940">
        <ele>3682.2</ele>
        <time>2021-04-17T19:46:39Z</time>
      </trkpt>
      <trkpt lat="4.8444130" lon="-75.4341320">
        <ele>3681.5</ele>
        <time>2021-04-17T19:46:40Z</time>
      </trkpt>
      <trkpt lat="4.8443550" lon="-75.4340670">
        <ele>3680.7</ele>
        <time>2021-04-17T19:46:41Z</time>
      </trkpt>
      <trkpt lat="4.8442940" lon="-75.4340000">
        <ele>3679.8</ele>
        <time>2021-04-17T19:46:42Z</time>
      </trkpt>
      <trkpt lat="4.8442410" lon="-75.4339310">
        <ele>3679.0</ele>
        <time>2021-04-17T19:46:43Z</time>
      </trkpt>
      <trkpt lat="4.8442010" lon="-75.4338590">
        <ele>3678.2</ele>
        <time>2021-04-17T19:46:44Z</time>
      </trkpt>
      <trkpt lat="4.8441710" lon="-75.4337870">
        <ele>3677.5</ele>
        <time>2021-04-17T19:46:45Z</time>
      </trkpt>
      <trkpt lat="4.8441500" lon="-75.4337260">
        <ele>3676.8</ele>
        <time>2021-04-17T19:46:46Z</time>
      </trkpt>
      <trkpt lat="4.8441360" lon="-75.4336700">
        <ele>3676.3</ele>
        <time>2021-04-17T19:46:47Z</time>
      </trkpt>
      <trkpt lat="4.8441260" lon="-75.4336140">
        <ele>3675.8</ele>
        <time>2021-04-17T19:46:48Z</time>
      </trkpt>
      <trkpt lat="4.8441220" lon="-75.4335560">
        <ele>3675.2</ele>
        <time>2021-04-17T19:46:49Z</time>
      </trkpt>
      <trkpt lat="4.8441230" lon="-75.4334980">
        <ele>3674.7</ele>
        <time>2021-04-17T19:46:50Z</time>
      </trkpt>
      <trkpt lat="4.8441290" lon="-75.4334350">
        <ele>3674.1</ele>
        <time>2021-04-17T19:46:51Z</time>
      </trkpt>
      <trkpt lat="4.8441390" lon="-75.4333730">
        <ele>3673.5</ele>
        <time>2021-04-17T19:46:52Z</time>
      </trkpt>
      <trkpt lat="4.8441530" lon="-75.4333110">
        <ele>3672.9</ele>
        <time>2021-04-17T19:46:53Z</time>
      </trkpt>
      <trkpt lat="4.8441750" lon="-75.4332520">
        <ele>3672.3</ele>
        <time>2021-04-17T19:46:54Z</time>
      </trkpt>
      <trkpt lat="4.8442080" lon="-75.4332000">
        <ele>3671.7</ele>
        <time>2021-04-17T19:46:55Z</time>
      </trkpt>
      <trkpt lat="4.8442490" lon="-75.4331600">
        <ele>3671.1</ele>
        <time>2021-04-17T19:46:56Z</time>
      </trkpt>
      <trkpt lat="4.8442960" lon="-75.4331320">
        <ele>3670.6</ele>
        <time>2021-04-17T19:46:57Z</time>
      </trkpt>
      <trkpt lat="4.8443440" lon="-75.4331190">
        <ele>3670.2</ele>
        <time>2021-04-17T19:46:58Z</time>
      </trkpt>
      <trkpt lat="4.8443960" lon="-75.4331210">
        <ele>3669.7</ele>
        <time>2021-04-17T19:46:59Z</time>
      </trkpt>
      <trkpt lat="4.8444480" lon="-75.4331380">
        <ele>3669.1</ele>
        <time>2021-04-17T19:47:00Z</time>
      </trkpt>
      <trkpt lat="4.8444960" lon="-75.4331640">
        <ele>3668.6</ele>
        <time>2021-04-17T19:47:01Z</time>
      </trkpt>
      <trkpt lat="4.8445420" lon="-75.4332040">
        <ele>3668.0</ele>
        <time>2021-04-17T19:47:02Z</time>
      </trkpt>
      <trkpt lat="4.8445860" lon="-75.4332540">
        <ele>3667.4</ele>
        <time>2021-04-17T19:47:03Z</time>
      </trkpt>
      <trkpt lat="4.8446270" lon="-75.4333120">
        <ele>3666.7</ele>
        <time>2021-04-17T19:47:04Z</time>
      </trkpt>
      <trkpt lat="4.8446710" lon="-75.4333750">
        <ele>3666.0</ele>
        <time>2021-04-17T19:47:05Z</time>
      </trkpt>
      <trkpt lat="4.8447210" lon="-75.4334410">
        <ele>3665.2</ele>
        <time>2021-04-17T19:47:06Z</time>
      </trkpt>
      <trkpt lat="4.8447740" lon="-75.4335050">
        <ele>3664.4</ele>
        <time>2021-04-17T19:47:07Z</time>
      </trkpt>
      <trkpt lat="4.8448300" lon="-75.4335720">
        <ele>3663.6</ele>
        <time>2021-04-17T19:47:08Z</time>
      </trkpt>
      <trkpt lat="4.8448830" lon="-75.4336410">
        <ele>3662.8</ele>
        <time>2021-04-17T19:47:09Z</time>
      </trkpt>
      <trkpt lat="4.8449370" lon="-75.4337110">
        <ele>3662.0</ele>
        <time>2021-04-17T19:47:10Z</time>
      </trkpt>
      <trkpt lat="4.8449940" lon="-75.4337830">
        <ele>3661.1</ele>
        <time>2021-04-17T19:47:11Z</time>
      </trkpt>
      <trkpt lat="4.8450480" lon="-75.4338540">
        <ele>3660.2</ele>
        <time>2021-04-17T19:47:12Z</time>
      </trkpt>
      <trkpt lat="4.8451010" lon="-75.4339240">
        <ele>3659.4</ele>
        <time>2021-04-17T19:47:13Z</time>
      </trkpt>
      <trkpt lat="4.8451520" lon="-75.4339950">
        <ele>3658.6</ele>
        <time>2021-04-17T19:47:14Z</time>
      </trkpt>
      <trkpt lat="4.8452020" lon="-75.4340670">
        <ele>3657.8</ele>
        <time>2021-04-17T19:47:15Z</time>
      </trkpt>
      <trkpt lat="4.8452510" lon="-75.4341360">
        <ele>3657.0</ele>
        <time>2021-04-17T19:47:16Z</time>
      </trkpt>
      <trkpt lat="4.8453020" lon="-75.4342050">
        <ele>3656.1</ele>
        <time>2021-04-17T19:47:17Z</time>
      </trkpt>
      <trkpt lat="4.8453540" lon="-75.4342720">
        <ele>3655.3</ele>
        <time>2021-04-17T19:47:18Z</time>
      </trkpt>
      <trkpt lat="4.8454060" lon="-75.4343380">
        <ele>3654.5</ele>
        <time>2021-04-17T19:47:19Z</time>
      </trkpt>
      <trkpt lat="4.8454550" lon="-75.4344040">
        <ele>3653.8</ele>
        <time>2021-04-17T19:47:20Z</time>
      </trkpt>
      <trkpt lat="4.8455060" lon="-75.4344680">
        <ele>3653.0</ele>
        <time>2021-04-17T19:47:21Z</time>
      </trkpt>
      <trkpt lat="4.8455590" lon="-75.4345270">
        <ele>3652.2</ele>
        <time>2021-04-17T19:47:22Z</time>
      </trkpt>
      <trkpt lat="4.8456080" lon="-75.4345860">
        <ele>3651.5</ele>
        <time>2021-04-17T19:47:23Z</time>
      </trkpt>
      <trkpt lat="4.8456560" lon="-75.4346480">
        <ele>3650.8</ele>
        <time>2021-04-17T19:47:24Z</time>
      </trkpt>
      <trkpt lat="4.8457040" lon="-75.4347140">
        <ele>3650.0</ele>
        <time>2021-04-17T19:47:25Z</time>
      </trkpt>
      <trkpt lat="4.8457530" lon="-75.4347790">
        <ele>3649.2</ele>
        <time>2021-04-17T19:47:26Z</time>
      </trkpt>
      <trkpt lat="4.8458030" lon="-75.4348430">
        <ele>3648.9</ele>
        <time>2021-04-17T19:47:27Z</time>
      </trkpt>
      <trkpt lat="4.8458550" lon="-75.4349060">
        <ele>3648.8</ele>
        <time>2021-04-17T19:47:28Z</time>
      </trkpt>
      <trkpt lat="4.8459110" lon="-75.4349670">
        <ele>3648.8</ele>
        <time>2021-04-17T19:47:29Z</time>
      </trkpt>
      <trkpt lat="4.8459700" lon="-75.4350250">
        <ele>3648.7</ele>
        <time>2021-04-17T19:47:30Z</time>
      </trkpt>
      <trkpt lat="4.8460300" lon="-75.4350830">
        <ele>3648.5</ele>
        <time>2021-04-17T19:47:31Z</time>
      </trkpt>
      <trkpt lat="4.8460890" lon="-75.4351410">
        <ele>3648.3</ele>
        <time>2021-04-17T19:47:32Z</time>
      </trkpt>
      <trkpt lat="4.8461460" lon="-75.4352010">
        <ele>3648.2</ele>
        <time>2021-04-17T19:47:33Z</time>
      </trkpt>
      <trkpt lat="4.8462010" lon="-75.4352600">
        <ele>3648.2</ele>
        <time>2021-04-17T19:47:34Z</time>
      </trkpt>
      <trkpt lat="4.8462560" lon="-75.4353180">
        <ele>3648.2</ele>
        <time>2021-04-17T19:47:35Z</time>
      </trkpt>
      <trkpt lat="4.8463110" lon="-75.4353780">
        <ele>3648.0</ele>
        <time>2021-04-17T19:47:36Z</time>
      </trkpt>
      <trkpt lat="4.8463670" lon="-75.4354370">
        <ele>3647.6</ele>
        <time>2021-04-17T19:47:37Z</time>
      </trkpt>
      <trkpt lat="4.8464250" lon="-75.4354910">
        <ele>3647.0</ele>
        <time>2021-04-17T19:47:38Z</time>
      </trkpt>
      <trkpt lat="4.8464850" lon="-75.4355420">
        <ele>3646.7</ele>
        <time>2021-04-17T19:47:39Z</time>
      </trkpt>
      <trkpt lat="4.8465450" lon="-75.4355880">
        <ele>3646.6</ele>
        <time>2021-04-17T19:47:40Z</time>
      </trkpt>
      <trkpt lat="4.8466060" lon="-75.4356380">
        <ele>3646.5</ele>
        <time>2021-04-17T19:47:41Z</time>
      </trkpt>
      <trkpt lat="4.8466680" lon="-75.4356860">
        <ele>3646.5</ele>
        <time>2021-04-17T19:47:42Z</time>
      </trkpt>
      <trkpt lat="4.8467320" lon="-75.4357300">
        <ele>3646.6</ele>
        <time>2021-04-17T19:47:43Z</time>
      </trkpt>
      <trkpt lat="4.8468000" lon="-75.4357730">
        <ele>3646.6</ele>
        <time>2021-04-17T19:47:44Z</time>
      </trkpt>
      <trkpt lat="4.8468700" lon="-75.4358170">
        <ele>3646.6</ele>
        <time>2021-04-17T19:47:45Z</time>
      </trkpt>
      <trkpt lat="4.8469400" lon="-75.4358620">
        <ele>3646.6</ele>
        <time>2021-04-17T19:47:46Z</time>
      </trkpt>
      <trkpt lat="4.8470130" lon="-75.4359090">
        <ele>3646.5</ele>
        <time>2021-04-17T19:47:47Z</time>
      </trkpt>
      <trkpt lat="4.8470830" lon="-75.4359530">
        <ele>3646.5</ele>
        <time>2021-04-17T19:47:48Z</time>
      </trkpt>
      <trkpt lat="4.8471570" lon="-75.4360020">
        <ele>3646.3</ele>
        <time>2021-04-17T19:47:49Z</time>
      </trkpt>
      <trkpt lat="4.8472340" lon="-75.4360500">
        <ele>3646.0</ele>
        <time>2021-04-17T19:47:50Z</time>
      </trkpt>
      <trkpt lat="4.8473110" lon="-75.4360930">
        <ele>3645.6</ele>
        <time>2021-04-17T19:47:51Z</time>
      </trkpt>
      <trkpt lat="4.8473810" lon="-75.4361300">
        <ele>3645.0</ele>
        <time>2021-04-17T19:47:52Z</time>
      </trkpt>
      <trkpt lat="4.8474440" lon="-75.4361620">
        <ele>3644.4</ele>
        <time>2021-04-17T19:47:53Z</time>
      </trkpt>
      <trkpt lat="4.8475040" lon="-75.4361920">
        <ele>3643.7</ele>
        <time>2021-04-17T19:47:54Z</time>
      </trkpt>
      <trkpt lat="4.8475640" lon="-75.4362140">
        <ele>3643.1</ele>
        <time>2021-04-17T19:47:55Z</time>
      </trkpt>
      <trkpt lat="4.8476230" lon="-75.4362310">
        <ele>3642.6</ele>
        <time>2021-04-17T19:47:56Z</time>
      </trkpt>
      <trkpt lat="4.8476820" lon="-75.4362510">
        <ele>3642.0</ele>
        <time>2021-04-17T19:47:57Z</time>
      </trkpt>
      <trkpt lat="4.8477370" lon="-75.4362800">
        <ele>3641.5</ele>
        <time>2021-04-17T19:47:58Z</time>
      </trkpt>
      <trkpt lat="4.8477880" lon="-75.4363160">
        <ele>3640.9</ele>
        <time>2021-04-17T19:47:59Z</time>
      </trkpt>
      <trkpt lat="4.8478310" lon="-75.4363510">
        <ele>3640.4</ele>
        <time>2021-04-17T19:48:00Z</time>
      </trkpt>
      <trkpt lat="4.8478620" lon="-75.4363850">
        <ele>3640.0</ele>
        <time>2021-04-17T19:48:01Z</time>
      </trkpt>
      <trkpt lat="4.8478930" lon="-75.4364200">
        <ele>3639.6</ele>
        <time>2021-04-17T19:48:02Z</time>
      </trkpt>
      <trkpt lat="4.8479230" lon="-75.4364600">
        <ele>3639.3</ele>
        <time>2021-04-17T19:48:03Z</time>
      </trkpt>
      <trkpt lat="4.8479490" lon="-75.4365060">
        <ele>3638.9</ele>
        <time>2021-04-17T19:48:04Z</time>
      </trkpt>
      <trkpt lat="4.8479700" lon="-75.4365580">
        <ele>3638.6</ele>
        <time>2021-04-17T19:48:05Z</time>
      </trkpt>
      <trkpt lat="4.8479920" lon="-75.4366130">
        <ele>3638.3</ele>
        <time>2021-04-17T19:48:06Z</time>
      </trkpt>
      <trkpt lat="4.8480180" lon="-75.4366670">
        <ele>3637.8</ele>
        <time>2021-04-17T19:48:07Z</time>
      </trkpt>
      <trkpt lat="4.8480540" lon="-75.4367180">
        <ele>3637.1</ele>
        <time>2021-04-17T19:48:08Z</time>
      </trkpt>
      <trkpt lat="4.8480930" lon="-75.4367720">
        <ele>3636.4</ele>
        <time>2021-04-17T19:48:09Z</time>
      </trkpt>
      <trkpt lat="4.8481260" lon="-75.4368350">
        <ele>3635.3</ele>
        <time>2021-04-17T19:48:10Z</time>
      </trkpt>
      <trkpt lat="4.8481600" lon="-75.4369060">
        <ele>3634.0</ele>
        <time>2021-04-17T19:48:11Z</time>
      </trkpt>
      <trkpt lat="4.8482000" lon="-75.4369850">
        <ele>3632.6</ele>
        <time>2021-04-17T19:48:12Z</time>
      </trkpt>
      <trkpt lat="4.8482430" lon="-75.4370690">
        <ele>3631.1</ele>
        <time>2021-04-17T19:48:13Z</time>
      </trkpt>
      <trkpt lat="4.8482810" lon="-75.4371630">
        <ele>3629.7</ele>
        <time>2021-04-17T19:48:14Z</time>
      </trkpt>
      <trkpt lat="4.8483200" lon="-75.4372620">
        <ele>3628.3</ele>
        <time>2021-04-17T19:48:15Z</time>
      </trkpt>
      <trkpt lat="4.8483660" lon="-75.4373590">
        <ele>3627.1</ele>
        <time>2021-04-17T19:48:16Z</time>
      </trkpt>
      <trkpt lat="4.8484150" lon="-75.4374500">
        <ele>3626.1</ele>
        <time>2021-04-17T19:48:17Z</time>
      </trkpt>
      <trkpt lat="4.8484650" lon="-75.4375370">
        <ele>3625.3</ele>
        <time>2021-04-17T19:48:18Z</time>
      </trkpt>
      <trkpt lat="4.8485250" lon="-75.4376150">
        <ele>3624.4</ele>
        <time>2021-04-17T19:48:19Z</time>
      </trkpt>
      <trkpt lat="4.8485970" lon="-75.4376870">
        <ele>3623.3</ele>
        <time>2021-04-17T19:48:20Z</time>
      </trkpt>
      <trkpt lat="4.8486730" lon="-75.4377570">
        <ele>3622.2</ele>
        <time>2021-04-17T19:48:21Z</time>
      </trkpt>
      <trkpt lat="4.8487500" lon="-75.4378280">
        <ele>3621.1</ele>
        <time>2021-04-17T19:48:22Z</time>
      </trkpt>
      <trkpt lat="4.8488290" lon="-75.4379020">
        <ele>3619.9</ele>
        <time>2021-04-17T19:48:23Z</time>
      </trkpt>
      <trkpt lat="4.8489110" lon="-75.4379770">
        <ele>3618.7</ele>
        <time>2021-04-17T19:48:24Z</time>
      </trkpt>
      <trkpt lat="4.8489970" lon="-75.4380510">
        <ele>3617.5</ele>
        <time>2021-04-17T19:48:25Z</time>
      </trkpt>
      <trkpt lat="4.8490870" lon="-75.4381210">
        <ele>3616.2</ele>
        <time>2021-04-17T19:48:26Z</time>
      </trkpt>
      <trkpt lat="4.8491790" lon="-75.4381810">
        <ele>3615.0</ele>
        <time>2021-04-17T19:48:27Z</time>
      </trkpt>
      <trkpt lat="4.8492740" lon="-75.4382330">
        <ele>3613.9</ele>
        <time>2021-04-17T19:48:28Z</time>
      </trkpt>
      <trkpt lat="4.8493720" lon="-75.4382770">
        <ele>3612.7</ele>
        <time>2021-04-17T19:48:29Z</time>
      </trkpt>
      <trkpt lat="4.8494740" lon="-75.4383210">
        <ele>3611.5</ele>
        <time>2021-04-17T19:48:30Z</time>
      </trkpt>
      <trkpt lat="4.8495810" lon="-75.4383680">
        <ele>3610.3</ele>
        <time>2021-04-17T19:48:31Z</time>
      </trkpt>
      <trkpt lat="4.8496900" lon="-75.4384200">
        <ele>3609.0</ele>
        <time>2021-04-17T19:48:32Z</time>
      </trkpt>
      <trkpt lat="4.8498000" lon="-75.4384750">
        <ele>3607.6</ele>
        <time>2021-04-17T19:48:33Z</time>
      </trkpt>
      <trkpt lat="4.8499090" lon="-75.4385330">
        <ele>3606.3</ele>
        <time>2021-04-17T19:48:34Z</time>
      </trkpt>
      <trkpt lat="4.8500130" lon="-75.4385940">
        <ele>3605.0</ele>
        <time>2021-04-17T19:48:35Z</time>
      </trkpt>
      <trkpt lat="4.8501040" lon="-75.4386480">
        <ele>3603.8</ele>
        <time>2021-04-17T19:48:36Z</time>
      </trkpt>
      <trkpt lat="4.8501830" lon="-75.4386890">
        <ele>3602.9</ele>
        <time>2021-04-17T19:48:37Z</time>
      </trkpt>
      <trkpt lat="4.8502590" lon="-75.4387220">
        <ele>3602.0</ele>
        <time>2021-04-17T19:48:38Z</time>
      </trkpt>
      <trkpt lat="4.8503400" lon="-75.4387530">
        <ele>3601.1</ele>
        <time>2021-04-17T19:48:39Z</time>
      </trkpt>
      <trkpt lat="4.8504310" lon="-75.4387760">
        <ele>3600.0</ele>
        <time>2021-04-17T19:48:40Z</time>
      </trkpt>
      <trkpt lat="4.8505290" lon="-75.4387960">
        <ele>3599.0</ele>
        <time>2021-04-17T19:48:41Z</time>
      </trkpt>
      <trkpt lat="4.8506300" lon="-75.4388170">
        <ele>3597.8</ele>
        <time>2021-04-17T19:48:42Z</time>
      </trkpt>
      <trkpt lat="4.8507280" lon="-75.4388410">
        <ele>3596.8</ele>
        <time>2021-04-17T19:48:43Z</time>
      </trkpt>
      <trkpt lat="4.8508260" lon="-75.4388680">
        <ele>3595.7</ele>
        <time>2021-04-17T19:48:44Z</time>
      </trkpt>
      <trkpt lat="4.8509250" lon="-75.4388890">
        <ele>3594.6</ele>
        <time>2021-04-17T19:48:45Z</time>
      </trkpt>
      <trkpt lat="4.8510190" lon="-75.4389050">
        <ele>3593.5</ele>
        <time>2021-04-17T19:48:46Z</time>
      </trkpt>
      <trkpt lat="4.8511090" lon="-75.4389160">
        <ele>3592.6</ele>
        <time>2021-04-17T19:48:47Z</time>
      </trkpt>
      <trkpt lat="4.8511910" lon="-75.4389230">
        <ele>3591.7</ele>
        <time>2021-04-17T19:48:48Z</time>
      </trkpt>
      <trkpt lat="4.8512600" lon="-75.4389170">
        <ele>3590.9</ele>
        <time>2021-04-17T19:48:49Z</time>
      </trkpt>
      <trkpt lat="4.8513200" lon="-75.4388940">
        <ele>3590.2</ele>
        <time>2021-04-17T19:48:50Z</time>
      </trkpt>
      <trkpt lat="4.8513710" lon="-75.4388570">
        <ele>3589.5</ele>
        <time>2021-04-17T19:48:51Z</time>
      </trkpt>
      <trkpt lat="4.8514160" lon="-75.4388110">
        <ele>3588.8</ele>
        <time>2021-04-17T19:48:52Z</time>
      </trkpt>
      <trkpt lat="4.8514630" lon="-75.4387620">
        <ele>3588.1</ele>
        <time>2021-04-17T19:48:53Z</time>
      </trkpt>
      <trkpt lat="4.8515150" lon="-75.4387190">
        <ele>3587.4</ele>
        <time>2021-04-17T19:48:54Z</time>
      </trkpt>
      <trkpt lat="4.8515740" lon="-75.4386890">
        <ele>3586.7</ele>
        <time>2021-04-17T19:48:55Z</time>
      </trkpt>
      <trkpt lat="4.8516440" lon="-75.4386710">
        <ele>3585.9</ele>
        <time>2021-04-17T19:48:56Z</time>
      </trkpt>
      <trkpt lat="4.8517190" lon="-75.4386690">
        <ele>3585.1</ele>
        <time>2021-04-17T19:48:57Z</time>
      </trkpt>
      <trkpt lat="4.8517960" lon="-75.4386770">
        <ele>3584.2</ele>
        <time>2021-04-17T19:48:58Z</time>
      </trkpt>
      <trkpt lat="4.8518760" lon="-75.4386860">
        <ele>3583.4</ele>
        <time>2021-04-17T19:48:59Z</time>
      </trkpt>
      <trkpt lat="4.8519570" lon="-75.4386850">
        <ele>3582.5</ele>
        <time>2021-04-17T19:49:00Z</time>
      </trkpt>
      <trkpt lat="4.8520390" lon="-75.4386690">
        <ele>3581.6</ele>
        <time>2021-04-17T19:49:01Z</time>
      </trkpt>
      <trkpt lat="4.8521250" lon="-75.4386410">
        <ele>3580.6</ele>
        <time>2021-04-17T19:49:02Z</time>
      </trkpt>
      <trkpt lat="4.8522100" lon="-75.4386130">
        <ele>3579.6</ele>
        <time>2021-04-17T19:49:03Z</time>
      </trkpt>
      <trkpt lat="4.8522900" lon="-75.4385930">
        <ele>3578.8</ele>
        <time>2021-04-17T19:49:04Z</time>
      </trkpt>
      <trkpt lat="4.8523660" lon="-75.4385750">
        <ele>3577.9</ele>
        <time>2021-04-17T19:49:05Z</time>
      </trkpt>
      <trkpt lat="4.8524420" lon="-75.4385590">
        <ele>3577.1</ele>
        <time>2021-04-17T19:49:06Z</time>
      </trkpt>
      <trkpt lat="4.8525200" lon="-75.4385420">
        <ele>3576.2</ele>
        <time>2021-04-17T19:49:07Z</time>
      </trkpt>
      <trkpt lat="4.8525930" lon="-75.4385240">
        <ele>3575.4</ele>
        <time>2021-04-17T19:49:08Z</time>
      </trkpt>
      <trkpt lat="4.8526530" lon="-75.4385100">
        <ele>3574.7</ele>
        <time>2021-04-17T19:49:09Z</time>
      </trkpt>
      <trkpt lat="4.8527080" lon="-75.4384960">
        <ele>3574.1</ele>
        <time>2021-04-17T19:49:10Z</time>
      </trkpt>
      <trkpt lat="4.8527660" lon="-75.4384770">
        <ele>3573.5</ele>
        <time>2021-04-17T19:49:11Z</time>
      </trkpt>
      <trkpt lat="4.8528280" lon="-75.4384530">
        <ele>3572.7</ele>
        <time>2021-04-17T19:49:12Z</time>
      </trkpt>
      <trkpt lat="4.8528960" lon="-75.4384240">
        <ele>3571.9</ele>
        <time>2021-04-17T19:49:13Z</time>
      </trkpt>
      <trkpt lat="4.8529680" lon="-75.4383950">
        <ele>3571.1</ele>
        <time>2021-04-17T19:49:14Z</time>
      </trkpt>
      <trkpt lat="4.8530420" lon="-75.4383680">
        <ele>3570.3</ele>
        <time>2021-04-17T19:49:15Z</time>
      </trkpt>
      <trkpt lat="4.8531210" lon="-75.4383420">
        <ele>3569.4</ele>
        <time>2021-04-17T19:49:16Z</time>
      </trkpt>
      <trkpt lat="4.8532040" lon="-75.4383140">
        <ele>3568.4</ele>
        <time>2021-04-17T19:49:17Z</time>
      </trkpt>
      <trkpt lat="4.8532840" lon="-75.4382890">
        <ele>3567.5</ele>
        <time>2021-04-17T19:49:18Z</time>
      </trkpt>
      <trkpt lat="4.8533580" lon="-75.4382710">
        <ele>3566.7</ele>
        <time>2021-04-17T19:49:19Z</time>
      </trkpt>
      <trkpt lat="4.8534300" lon="-75.4382750">
        <ele>3565.9</ele>
        <time>2021-04-17T19:49:20Z</time>
      </trkpt>
      <trkpt lat="4.8534990" lon="-75.4382990">
        <ele>3565.1</ele>
        <time>2021-04-17T19:49:21Z</time>
      </trkpt>
      <trkpt lat="4.8535690" lon="-75.4383320">
        <ele>3564.3</ele>
        <time>2021-04-17T19:49:22Z</time>
      </trkpt>
      <trkpt lat="4.8536430" lon="-75.4383740">
        <ele>3563.4</ele>
        <time>2021-04-17T19:49:23Z</time>
      </trkpt>
      <trkpt lat="4.8537200" lon="-75.4384170">
        <ele>3562.4</ele>
        <time>2021-04-17T19:49:24Z</time>
      </trkpt>
      <trkpt lat="4.8537960" lon="-75.4384550">
        <ele>3561.5</ele>
        <time>2021-04-17T19:49:25Z</time>
      </trkpt>
      <trkpt lat="4.8538700" lon="-75.4384910">
        <ele>3560.6</ele>
        <time>2021-04-17T19:49:26Z</time>
      </trkpt>
      <trkpt lat="4.8539380" lon="-75.4385330">
        <ele>3559.7</ele>
        <time>2021-04-17T19:49:27Z</time>
      </trkpt>
      <trkpt lat="4.8539980" lon="-75.4385840">
        <ele>3558.9</ele>
        <time>2021-04-17T19:49:28Z</time>
      </trkpt>
      <trkpt lat="4.8540580" lon="-75.4386440">
        <ele>3558.0</ele>
        <time>2021-04-17T19:49:29Z</time>
      </trkpt>
      <trkpt lat="4.8541200" lon="-75.4387070">
        <ele>3557.0</ele>
        <time>2021-04-17T19:49:30Z</time>
      </trkpt>
      <trkpt lat="4.8541850" lon="-75.4387760">
        <ele>3556.0</ele>
        <time>2021-04-17T19:49:31Z</time>
      </trkpt>
      <trkpt lat="4.8542460" lon="-75.4388440">
        <ele>3555.0</ele>
        <time>2021-04-17T19:49:32Z</time>
      </trkpt>
      <trkpt lat="4.8542980" lon="-75.4389080">
        <ele>3554.1</ele>
        <time>2021-04-17T19:49:33Z</time>
      </trkpt>
      <trkpt lat="4.8543360" lon="-75.4389730">
        <ele>3553.3</ele>
        <time>2021-04-17T19:49:34Z</time>
      </trkpt>
      <trkpt lat="4.8543590" lon="-75.4390420">
        <ele>3552.5</ele>
        <time>2021-04-17T19:49:35Z</time>
      </trkpt>
      <trkpt lat="4.8543700" lon="-75.4391180">
        <ele>3551.7</ele>
        <time>2021-04-17T19:49:36Z</time>
      </trkpt>
      <trkpt lat="4.8543740" lon="-75.4392030">
        <ele>3550.8</ele>
        <time>2021-04-17T19:49:37Z</time>
      </trkpt>
      <trkpt lat="4.8543800" lon="-75.4392890">
        <ele>3549.9</ele>
        <time>2021-04-17T19:49:38Z</time>
      </trkpt>
      <trkpt lat="4.8543990" lon="-75.4393750">
        <ele>3548.9</ele>
        <time>2021-04-17T19:49:39Z</time>
      </trkpt>
      <trkpt lat="4.8544320" lon="-75.4394530">
        <ele>3548.0</ele>
        <time>2021-04-17T19:49:40Z</time>
      </trkpt>
      <trkpt lat="4.8544760" lon="-75.4395210">
        <ele>3547.1</ele>
        <time>2021-04-17T19:49:41Z</time>
      </trkpt>
      <trkpt lat="4.8545290" lon="-75.4395680">
        <ele>3546.4</ele>
        <time>2021-04-17T19:49:42Z</time>
      </trkpt>
      <trkpt lat="4.8545920" lon="-75.4395820">
        <ele>3545.7</ele>
        <time>2021-04-17T19:49:43Z</time>
      </trkpt>
      <trkpt lat="4.8546510" lon="-75.4395650">
        <ele>3545.0</ele>
        <time>2021-04-17T19:49:44Z</time>
      </trkpt>
      <trkpt lat="4.8546980" lon="-75.4395250">
        <ele>3544.3</ele>
        <time>2021-04-17T19:49:45Z</time>
      </trkpt>
      <trkpt lat="4.8547350" lon="-75.4394730">
        <ele>3543.6</ele>
        <time>2021-04-17T19:49:46Z</time>
      </trkpt>
      <trkpt lat="4.8547630" lon="-75.4394150">
        <ele>3542.9</ele>
        <time>2021-04-17T19:49:47Z</time>
      </trkpt>
      <trkpt lat="4.8547880" lon="-75.4393520">
        <ele>3542.2</ele>
        <time>2021-04-17T19:49:48Z</time>
      </trkpt>
      <trkpt lat="4.8548110" lon="-75.4392860">
        <ele>3541.5</ele>
        <time>2021-04-17T19:49:49Z</time>
      </trkpt>
      <trkpt lat="4.8548310" lon="-75.4392180">
        <ele>3540.7</ele>
        <time>2021-04-17T19:49:50Z</time>
      </trkpt>
      <trkpt lat="4.8548530" lon="-75.4391470">
        <ele>3539.9</ele>
        <time>2021-04-17T19:49:51Z</time>
      </trkpt>
      <trkpt lat="4.8548790" lon="-75.4390710">
        <ele>3539.0</ele>
        <time>2021-04-17T19:49:52Z</time>
      </trkpt>
      <trkpt lat="4.8549050" lon="-75.4389890">
        <ele>3538.1</ele>
        <time>2021-04-17T19:49:53Z</time>
      </trkpt>
      <trkpt lat="4.8549310" lon="-75.4389120">
        <ele>3537.2</ele>
        <time>2021-04-17T19:49:54Z</time>
      </trkpt>
      <trkpt lat="4.8549610" lon="-75.4388420">
        <ele>3536.4</ele>
        <time>2021-04-17T19:49:55Z</time>
      </trkpt>
      <trkpt lat="4.8549890" lon="-75.4387740">
        <ele>3535.6</ele>
        <time>2021-04-17T19:49:56Z</time>
      </trkpt>
      <trkpt lat="4.8550230" lon="-75.4387100">
        <ele>3534.8</ele>
        <time>2021-04-17T19:49:57Z</time>
      </trkpt>
      <trkpt lat="4.8550620" lon="-75.4386510">
        <ele>3534.1</ele>
        <time>2021-04-17T19:49:58Z</time>
      </trkpt>
      <trkpt lat="4.8551040" lon="-75.4385960">
        <ele>3533.3</ele>
        <time>2021-04-17T19:49:59Z</time>
      </trkpt>
      <trkpt lat="4.8551490" lon="-75.4385480">
        <ele>3532.6</ele>
        <time>2021-04-17T19:50:00Z</time>
      </trkpt>
      <trkpt lat="4.8551940" lon="-75.4385110">
        <ele>3532.0</ele>
        <time>2021-04-17T19:50:01Z</time>
      </trkpt>
      <trkpt lat="4.8552420" lon="-75.4384920">
        <ele>3532.0</ele>
        <time>2021-04-17T19:50:02Z</time>
      </trkpt>
      <trkpt lat="4.8552890" lon="-75.4384880">
        <ele>3531.9</ele>
        <time>2021-04-17T19:50:03Z</time>
      </trkpt>
      <trkpt lat="4.8553350" lon="-75.4384980">
        <ele>3531.8</ele>
        <time>2021-04-17T19:50:04Z</time>
      </trkpt>
      <trkpt lat="4.8553790" lon="-75.4385170">
        <ele>3531.7</ele>
        <time>2021-04-17T19:50:05Z</time>
      </trkpt>
      <trkpt lat="4.8554180" lon="-75.4385390">
        <ele>3531.6</ele>
        <time>2021-04-17T19:50:06Z</time>
      </trkpt>
      <trkpt lat="4.8554530" lon="-75.4385640">
        <ele>3531.6</ele>
        <time>2021-04-17T19:50:07Z</time>
      </trkpt>
      <trkpt lat="4.8554860" lon="-75.4385890">
        <ele>3531.6</ele>
        <time>2021-04-17T19:50:08Z</time>
      </trkpt>
      <trkpt lat="4.8555150" lon="-75.4386140">
        <ele>3531.6</ele>
        <time>2021-04-17T19:50:09Z</time>
      </trkpt>
      <trkpt lat="4.8555420" lon="-75.4386390">
        <ele>3531.6</ele>
        <time>2021-04-17T19:50:10Z</time>
      </trkpt>
      <trkpt lat="4.8555690" lon="-75.4386630">
        <ele>3531.6</ele>
        <time>2021-04-17T19:50:11Z</time>
      </trkpt>
      <trkpt lat="4.8555980" lon="-75.4386870">
        <ele>3531.6</ele>
        <time>2021-04-17T19:50:12Z</time>
      </trkpt>
      <trkpt lat="4.8556290" lon="-75.4387100">
        <ele>3531.7</ele>
        <time>2021-04-17T19:50:13Z</time>
      </trkpt>
      <trkpt lat="4.8556600" lon="-75.4387330">
        <ele>3531.8</ele>
        <time>2021-04-17T19:50:14Z</time>
      </trkpt>
      <trkpt lat="4.8556900" lon="-75.4387590">
        <ele>3531.9</ele>
        <time>2021-04-17T19:50:15Z</time>
      </trkpt>
      <trkpt lat="4.8557200" lon="-75.4387890">
        <ele>3531.9</ele>
        <time>2021-04-17T19:50:16Z</time>
      </trkpt>
      <trkpt lat="4.8557550" lon="-75.4388170">
        <ele>3531.6</ele>
        <time>2021-04-17T19:50:17Z</time>
      </trkpt>
      <trkpt lat="4.8557960" lon="-75.4388400">
        <ele>3531.2</ele>
        <time>2021-04-17T19:50:18Z</time>
      </trkpt>
      <trkpt lat="4.8558400" lon="-75.4388580">
        <ele>3530.9</ele>
        <time>2021-04-17T19:50:19Z</time>
      </trkpt>
      <trkpt lat="4.8558830" lon="-75.4388780">
        <ele>3530.5</ele>
        <time>2021-04-17T19:50:20Z</time>
      </trkpt>
      <trkpt lat="4.8559260" lon="-75.4389030">
        <ele>3530.2</ele>
        <time>2021-04-17T19:50:21Z</time>
      </trkpt>
      <trkpt lat="4.8559680" lon="-75.4389300">
        <ele>3529.8</ele>
        <time>2021-04-17T19:50:22Z</time>
      </trkpt>
      <trkpt lat="4.8560130" lon="-75.4389560">
        <ele>3529.4</ele>
        <time>2021-04-17T19:50:23Z</time>
      </trkpt>
      <trkpt lat="4.8560610" lon="-75.4389740">
        <ele>3529.1</ele>
        <time>2021-04-17T19:50:24Z</time>
      </trkpt>
      <trkpt lat="4.8561080" lon="-75.4389890">
        <ele>3528.7</ele>
        <time>2021-04-17T19:50:25Z</time>
      </trkpt>
      <trkpt lat="4.8561560" lon="-75.4390040">
        <ele>3528.3</ele>
        <time>2021-04-17T19:50:26Z</time>
      </trkpt>
      <trkpt lat="4.8562040" lon="-75.4390180">
        <ele>3528.0</ele>
        <time>2021-04-17T19:50:27Z</time>
      </trkpt>
      <trkpt lat="4.8562510" lon="-75.4390300">
        <ele>3527.6</ele>
        <time>2021-04-17T19:50:28Z</time>
      </trkpt>
      <trkpt lat="4.8562980" lon="-75.4390420">
        <ele>3527.3</ele>
        <time>2021-04-17T19:50:29Z</time>
      </trkpt>
      <trkpt lat="4.8563450" lon="-75.4390530">
        <ele>3526.9</ele>
        <time>2021-04-17T19:50:30Z</time>
      </trkpt>
      <trkpt lat="4.8563930" lon="-75.4390620">
        <ele>3526.6</ele>
        <time>2021-04-17T19:50:31Z</time>
      </trkpt>
      <trkpt lat="4.8564430" lon="-75.4390750">
        <ele>3526.2</ele>
        <time>2021-04-17T19:50:32Z</time>
      </trkpt>
      <trkpt lat="4.8564900" lon="-75.4390880">
        <ele>3525.8</ele>
        <time>2021-04-17T19:50:33Z</time>
      </trkpt>
      <trkpt lat="4.8565370" lon="-75.4391030">
        <ele>3525.5</ele>
        <time>2021-04-17T19:50:34Z</time>
      </trkpt>
      <trkpt lat="4.8565870" lon="-75.4391190">
        <ele>3525.1</ele>
        <time>2021-04-17T19:50:35Z</time>
      </trkpt>
      <trkpt lat="4.8566370" lon="-75.4391320">
        <ele>3524.7</ele>
        <time>2021-04-17T19:50:36Z</time>
      </trkpt>
      <trkpt lat="4.8566920" lon="-75.4391470">
        <ele>3524.3</ele>
        <time>2021-04-17T19:50:37Z</time>
      </trkpt>
      <trkpt lat="4.8567520" lon="-75.4391670">
        <ele>3523.8</ele>
        <time>2021-04-17T19:50:38Z</time>
      </trkpt>
      <trkpt lat="4.8568100" lon="-75.4391910">
        <ele>3523.4</ele>
        <time>2021-04-17T19:50:39Z</time>
      </trkpt>
      <trkpt lat="4.8568650" lon="-75.4392250">
        <ele>3522.9</ele>
        <time>2021-04-17T19:50:40Z</time>
      </trkpt>
      <trkpt lat="4.8569110" lon="-75.4392710">
        <ele>3522.4</ele>
        <time>2021-04-17T19:50:41Z</time>
      </trkpt>
      <trkpt lat="4.8569480" lon="-75.4393290">
        <ele>3522.0</ele>
        <time>2021-04-17T19:50:42Z</time>
      </trkpt>
      <trkpt lat="4.8569750" lon="-75.4393930">
        <ele>3521.4</ele>
        <time>2021-04-17T19:50:43Z</time>
      </trkpt>
      <trkpt lat="4.8569980" lon="-75.4394610">
        <ele>3520.9</ele>
        <time>2021-04-17T19:50:44Z</time>
      </trkpt>
      <trkpt lat="4.8570190" lon="-75.4395300">
        <ele>3520.4</ele>
        <time>2021-04-17T19:50:45Z</time>
      </trkpt>
      <trkpt lat="4.8570320" lon="-75.4395990">
        <ele>3519.9</ele>
        <time>2021-04-17T19:50:46Z</time>
      </trkpt>
      <trkpt lat="4.8570420" lon="-75.4396670">
        <ele>3519.4</ele>
        <time>2021-04-17T19:50:47Z</time>
      </trkpt>
      <trkpt lat="4.8570570" lon="-75.4397350">
        <ele>3518.9</ele>
        <time>2021-04-17T19:50:48Z</time>
      </trkpt>
      <trkpt lat="4.8570780" lon="-75.4397980">
        <ele>3518.4</ele>
        <time>2021-04-17T19:50:49Z</time>
      </trkpt>
      <trkpt lat="4.8571080" lon="-75.4398590">
        <ele>3517.9</ele>
        <time>2021-04-17T19:50:50Z</time>
      </trkpt>
      <trkpt lat="4.8571430" lon="-75.4399150">
        <ele>3517.4</ele>
        <time>2021-04-17T19:50:51Z</time>
      </trkpt>
      <trkpt lat="4.8571860" lon="-75.4399680">
        <ele>3516.9</ele>
        <time>2021-04-17T19:50:52Z</time>
      </trkpt>
      <trkpt lat="4.8572370" lon="-75.4400170">
        <ele>3516.4</ele>
        <time>2021-04-17T19:50:53Z</time>
      </trkpt>
      <trkpt lat="4.8572980" lon="-75.4400570">
        <ele>3515.9</ele>
        <time>2021-04-17T19:50:54Z</time>
      </trkpt>
      <trkpt lat="4.8573680" lon="-75.4400970">
        <ele>3515.3</ele>
        <time>2021-04-17T19:50:55Z</time>
      </trkpt>
      <trkpt lat="4.8574440" lon="-75.4401380">
        <ele>3514.7</ele>
        <time>2021-04-17T19:50:56Z</time>
      </trkpt>
      <trkpt lat="4.8575240" lon="-75.4401820">
        <ele>3514.0</ele>
        <time>2021-04-17T19:50:57Z</time>
      </trkpt>
      <trkpt lat="4.8576020" lon="-75.4402370">
        <ele>3513.3</ele>
        <time>2021-04-17T19:50:58Z</time>
      </trkpt>
      <trkpt lat="4.8576730" lon="-75.4403070">
        <ele>3512.6</ele>
        <time>2021-04-17T19:50:59Z</time>
      </trkpt>
      <trkpt lat="4.8577330" lon="-75.4403900">
        <ele>3511.9</ele>
        <time>2021-04-17T19:51:00Z</time>
      </trkpt>
      <trkpt lat="4.8577860" lon="-75.4404800">
        <ele>3511.1</ele>
        <time>2021-04-17T19:51:01Z</time>
      </trkpt>
      <trkpt lat="4.8578370" lon="-75.4405760">
        <ele>3510.3</ele>
        <time>2021-04-17T19:51:02Z</time>
      </trkpt>
      <trkpt lat="4.8578860" lon="-75.4406760">
        <ele>3509.5</ele>
        <time>2021-04-17T19:51:03Z</time>
      </trkpt>
      <trkpt lat="4.8579340" lon="-75.4407780">
        <ele>3508.7</ele>
        <time>2021-04-17T19:51:04Z</time>
      </trkpt>
      <trkpt lat="4.8579710" lon="-75.4408830">
        <ele>3507.9</ele>
        <time>2021-04-17T19:51:05Z</time>
      </trkpt>
      <trkpt lat="4.8579960" lon="-75.4409890">
        <ele>3507.1</ele>
        <time>2021-04-17T19:51:06Z</time>
      </trkpt>
      <trkpt lat="4.8580160" lon="-75.4410960">
        <ele>3506.3</ele>
        <time>2021-04-17T19:51:07Z</time>
      </trkpt>
      <trkpt lat="4.8580340" lon="-75.4412010">
        <ele>3505.6</ele>
        <time>2021-04-17T19:51:08Z</time>
      </trkpt>
      <trkpt lat="4.8580550" lon="-75.4413050">
        <ele>3504.8</ele>
        <time>2021-04-17T19:51:09Z</time>
      </trkpt>
      <trkpt lat="4.8580760" lon="-75.4414070">
        <ele>3504.0</ele>
        <time>2021-04-17T19:51:10Z</time>
      </trkpt>
      <trkpt lat="4.8580940" lon="-75.4415100">
        <ele>3503.3</ele>
        <time>2021-04-17T19:51:11Z</time>
      </trkpt>
      <trkpt lat="4.8581120" lon="-75.4416120">
        <ele>3502.5</ele>
        <time>2021-04-17T19:51:12Z</time>
      </trkpt>
      <trkpt lat="4.8581400" lon="-75.4417110">
        <ele>3501.8</ele>
        <time>2021-04-17T19:51:13Z</time>
      </trkpt>
      <trkpt lat="4.8581790" lon="-75.4418040">
        <ele>3501.0</ele>
        <time>2021-04-17T19:51:14Z</time>
      </trkpt>
      <trkpt lat="4.8582270" lon="-75.4418950">
        <ele>3500.3</ele>
        <time>2021-04-17T19:51:15Z</time>
      </trkpt>
      <trkpt lat="4.8582760" lon="-75.4419850">
        <ele>3499.6</ele>
        <time>2021-04-17T19:51:16Z</time>
      </trkpt>
      <trkpt lat="4.8583260" lon="-75.4420760">
        <ele>3498.8</ele>
        <time>2021-04-17T19:51:17Z</time>
      </trkpt>
      <trkpt lat="4.8583720" lon="-75.4421650">
        <ele>3498.1</ele>
        <time>2021-04-17T19:51:18Z</time>
      </trkpt>
      <trkpt lat="4.8584190" lon="-75.4422600">
        <ele>3497.3</ele>
        <time>2021-04-17T19:51:19Z</time>
      </trkpt>
      <trkpt lat="4.8584690" lon="-75.4423570">
        <ele>3496.5</ele>
        <time>2021-04-17T19:51:20Z</time>
      </trkpt>
      <trkpt lat="4.8585260" lon="-75.4424480">
        <ele>3495.7</ele>
        <time>2021-04-17T19:51:21Z</time>
      </trkpt>
      <trkpt lat="4.8585880" lon="-75.4425300">
        <ele>3495.0</ele>
        <time>2021-04-17T19:51:22Z</time>
      </trkpt>
      <trkpt lat="4.8586520" lon="-75.4426120">
        <ele>3494.2</ele>
        <time>2021-04-17T19:51:23Z</time>
      </trkpt>
      <trkpt lat="4.8587190" lon="-75.4426960">
        <ele>3493.5</ele>
        <time>2021-04-17T19:51:24Z</time>
      </trkpt>
      <trkpt lat="4.8587910" lon="-75.4427780">
        <ele>3492.7</ele>
        <time>2021-04-17T19:51:25Z</time>
      </trkpt>
      <trkpt lat="4.8588680" lon="-75.4428600">
        <ele>3491.9</ele>
        <time>2021-04-17T19:51:26Z</time>
      </trkpt>
      <trkpt lat="4.8589470" lon="-75.4429430">
        <ele>3491.0</ele>
        <time>2021-04-17T19:51:27Z</time>
      </trkpt>
      <trkpt lat="4.8590260" lon="-75.4430270">
        <ele>3490.2</ele>
        <time>2021-04-17T19:51:28Z</time>
      </trkpt>
      <trkpt lat="4.8591030" lon="-75.4431100">
        <ele>3489.4</ele>
        <time>2021-04-17T19:51:29Z</time>
      </trkpt>
      <trkpt lat="4.8591750" lon="-75.4431930">
        <ele>3488.6</ele>
        <time>2021-04-17T19:51:30Z</time>
      </trkpt>
      <trkpt lat="4.8592380" lon="-75.4432750">
        <ele>3487.8</ele>
        <time>2021-04-17T19:51:31Z</time>
      </trkpt>
      <trkpt lat="4.8592850" lon="-75.4433610">
        <ele>3487.1</ele>
        <time>2021-04-17T19:51:32Z</time>
      </trkpt>
      <trkpt lat="4.8593150" lon="-75.4434500">
        <ele>3486.4</ele>
        <time>2021-04-17T19:51:33Z</time>
      </trkpt>
      <trkpt lat="4.8593300" lon="-75.4435390">
        <ele>3485.8</ele>
        <time>2021-04-17T19:51:34Z</time>
      </trkpt>
      <trkpt lat="4.8593360" lon="-75.4436280">
        <ele>3485.1</ele>
        <time>2021-04-17T19:51:35Z</time>
      </trkpt>
      <trkpt lat="4.8593400" lon="-75.4437100">
        <ele>3484.5</ele>
        <time>2021-04-17T19:51:36Z</time>
      </trkpt>
      <trkpt lat="4.8593540" lon="-75.4437870">
        <ele>3484.0</ele>
        <time>2021-04-17T19:51:37Z</time>
      </trkpt>
      <trkpt lat="4.8593850" lon="-75.4438590">
        <ele>3483.4</ele>
        <time>2021-04-17T19:51:38Z</time>
      </trkpt>
      <trkpt lat="4.8594360" lon="-75.4439230">
        <ele>3482.8</ele>
        <time>2021-04-17T19:51:39Z</time>
      </trkpt>
      <trkpt lat="4.8595080" lon="-75.4439660">
        <ele>3482.2</ele>
        <time>2021-04-17T19:51:40Z</time>
      </trkpt>
      <trkpt lat="4.8595940" lon="-75.4439900">
        <ele>3481.6</ele>
        <time>2021-04-17T19:51:41Z</time>
      </trkpt>
      <trkpt lat="4.8596890" lon="-75.4439990">
        <ele>3480.9</ele>
        <time>2021-04-17T19:51:42Z</time>
      </trkpt>
      <trkpt lat="4.8597850" lon="-75.4440020">
        <ele>3480.2</ele>
        <time>2021-04-17T19:51:43Z</time>
      </trkpt>
      <trkpt lat="4.8598800" lon="-75.4440020">
        <ele>3479.5</ele>
        <time>2021-04-17T19:51:44Z</time>
      </trkpt>
      <trkpt lat="4.8599730" lon="-75.4440010">
        <ele>3478.8</ele>
        <time>2021-04-17T19:51:45Z</time>
      </trkpt>
      <trkpt lat="4.8600620" lon="-75.4440010">
        <ele>3478.2</ele>
        <time>2021-04-17T19:51:46Z</time>
      </trkpt>
      <trkpt lat="4.8601480" lon="-75.4440020">
        <ele>3477.5</ele>
        <time>2021-04-17T19:51:47Z</time>
      </trkpt>
      <trkpt lat="4.8602350" lon="-75.4440040">
        <ele>3476.9</ele>
        <time>2021-04-17T19:51:48Z</time>
      </trkpt>
      <trkpt lat="4.8603230" lon="-75.4440090">
        <ele>3476.3</ele>
        <time>2021-04-17T19:51:49Z</time>
      </trkpt>
      <trkpt lat="4.8604130" lon="-75.4440140">
        <ele>3475.6</ele>
        <time>2021-04-17T19:51:50Z</time>
      </trkpt>
      <trkpt lat="4.8605020" lon="-75.4440200">
        <ele>3475.0</ele>
        <time>2021-04-17T19:51:51Z</time>
      </trkpt>
      <trkpt lat="4.8605890" lon="-75.4440210">
        <ele>3474.3</ele>
        <time>2021-04-17T19:51:52Z</time>
      </trkpt>
      <trkpt lat="4.8606760" lon="-75.4440120">
        <ele>3473.7</ele>
        <time>2021-04-17T19:51:53Z</time>
      </trkpt>
      <trkpt lat="4.8607630" lon="-75.4439980">
        <ele>3473.0</ele>
        <time>2021-04-17T19:51:54Z</time>
      </trkpt>
      <trkpt lat="4.8608470" lon="-75.4439720">
        <ele>3472.4</ele>
        <time>2021-04-17T19:51:55Z</time>
      </trkpt>
      <trkpt lat="4.8609320" lon="-75.4439400">
        <ele>3471.7</ele>
        <time>2021-04-17T19:51:56Z</time>
      </trkpt>
      <trkpt lat="4.8610170" lon="-75.4438970">
        <ele>3471.1</ele>
        <time>2021-04-17T19:51:57Z</time>
      </trkpt>
      <trkpt lat="4.8610990" lon="-75.4438490">
        <ele>3470.4</ele>
        <time>2021-04-17T19:51:58Z</time>
      </trkpt>
      <trkpt lat="4.8611780" lon="-75.4438080">
        <ele>3469.7</ele>
        <time>2021-04-17T19:51:59Z</time>
      </trkpt>
      <trkpt lat="4.8612590" lon="-75.4437810">
        <ele>3469.1</ele>
        <time>2021-04-17T19:52:00Z</time>
      </trkpt>
      <trkpt lat="4.8613460" lon="-75.4437730">
        <ele>3468.5</ele>
        <time>2021-04-17T19:52:01Z</time>
      </trkpt>
      <trkpt lat="4.8614380" lon="-75.4437750">
        <ele>3467.8</ele>
        <time>2021-04-17T19:52:02Z</time>
      </trkpt>
      <trkpt lat="4.8615320" lon="-75.4437790">
        <ele>3467.1</ele>
        <time>2021-04-17T19:52:03Z</time>
      </trkpt>
      <trkpt lat="4.8616300" lon="-75.4437870">
        <ele>3466.4</ele>
        <time>2021-04-17T19:52:04Z</time>
      </trkpt>
      <trkpt lat="4.8617300" lon="-75.4438010">
        <ele>3465.6</ele>
        <time>2021-04-17T19:52:05Z</time>
      </trkpt>
      <trkpt lat="4.8618300" lon="-75.4438280">
        <ele>3464.9</ele>
        <time>2021-04-17T19:52:06Z</time>
      </trkpt>
      <trkpt lat="4.8619210" lon="-75.4438580">
        <ele>3464.2</ele>
        <time>2021-04-17T19:52:07Z</time>
      </trkpt>
      <trkpt lat="4.8620020" lon="-75.4438950">
        <ele>3463.5</ele>
        <time>2021-04-17T19:52:08Z</time>
      </trkpt>
      <trkpt lat="4.8620750" lon="-75.4439390">
        <ele>3462.9</ele>
        <time>2021-04-17T19:52:09Z</time>
      </trkpt>
      <trkpt lat="4.8621360" lon="-75.4439920">
        <ele>3462.3</ele>
        <time>2021-04-17T19:52:10Z</time>
      </trkpt>
      <trkpt lat="4.8621840" lon="-75.4440520">
        <ele>3461.7</ele>
        <time>2021-04-17T19:52:11Z</time>
      </trkpt>
      <trkpt lat="4.8622140" lon="-75.4441130">
        <ele>3461.2</ele>
        <time>2021-04-17T19:52:12Z</time>
      </trkpt>
      <trkpt lat="4.8622220" lon="-75.4441760">
        <ele>3460.8</ele>
        <time>2021-04-17T19:52:13Z</time>
      </trkpt>
      <trkpt lat="4.8622110" lon="-75.4442370">
        <ele>3460.3</ele>
        <time>2021-04-17T19:52:14Z</time>
      </trkpt>
      <trkpt lat="4.8621710" lon="-75.4442850">
        <ele>3459.9</ele>
        <time>2021-04-17T19:52:15Z</time>
      </trkpt>
      <trkpt lat="4.8621250" lon="-75.4443370">
        <ele>3459.3</ele>
        <time>2021-04-17T19:52:16Z</time>
      </trkpt>
      <trkpt lat="4.8620830" lon="-75.4443940">
        <ele>3458.8</ele>
        <time>2021-04-17T19:52:17Z</time>
      </trkpt>
      <trkpt lat="4.8620580" lon="-75.4444580">
        <ele>3458.3</ele>
        <time>2021-04-17T19:52:18Z</time>
      </trkpt>
      <trkpt lat="4.8620610" lon="-75.4445270">
        <ele>3457.8</ele>
        <time>2021-04-17T19:52:19Z</time>
      </trkpt>
      <trkpt lat="4.8620910" lon="-75.4445880">
        <ele>3457.3</ele>
        <time>2021-04-17T19:52:20Z</time>
      </trkpt>
      <trkpt lat="4.8621380" lon="-75.4446360">
        <ele>3456.8</ele>
        <time>2021-04-17T19:52:21Z</time>
      </trkpt>
      <trkpt lat="4.8621940" lon="-75.4446740">
        <ele>3456.3</ele>
        <time>2021-04-17T19:52:22Z</time>
      </trkpt>
      <trkpt lat="4.8622570" lon="-75.4447070">
        <ele>3455.8</ele>
        <time>2021-04-17T19:52:23Z</time>
      </trkpt>
      <trkpt lat="4.8623260" lon="-75.4447390">
        <ele>3455.2</ele>
        <time>2021-04-17T19:52:24Z</time>
      </trkpt>
      <trkpt lat="4.8623970" lon="-75.4447750">
        <ele>3454.7</ele>
        <time>2021-04-17T19:52:25Z</time>
      </trkpt>
      <trkpt lat="4.8624700" lon="-75.4448140">
        <ele>3454.1</ele>
        <time>2021-04-17T19:52:26Z</time>
      </trkpt>
      <trkpt lat="4.8625470" lon="-75.4448570">
        <ele>3453.4</ele>
        <time>2021-04-17T19:52:27Z</time>
      </trkpt>
      <trkpt lat="4.8626220" lon="-75.4449050">
        <ele>3452.7</ele>
        <time>2021-04-17T19:52:28Z</time>
      </trkpt>
      <trkpt lat="4.8627000" lon="-75.4449600">
        <ele>3452.0</ele>
        <time>2021-04-17T19:52:29Z</time>
      </trkpt>
      <trkpt lat="4.8627810" lon="-75.4450170">
        <ele>3451.3</ele>
        <time>2021-04-17T19:52:30Z</time>
      </trkpt>
      <trkpt lat="4.8628620" lon="-75.4450720">
        <ele>3450.6</ele>
        <time>2021-04-17T19:52:31Z</time>
      </trkpt>
      <trkpt lat="4.8629450" lon="-75.4451230">
        <ele>3449.9</ele>
        <time>2021-04-17T19:52:32Z</time>
      </trkpt>
      <trkpt lat="4.8630290" lon="-75.4451670">
        <ele>3449.2</ele>
        <time>2021-04-17T19:52:33Z</time>
      </trkpt>
      <trkpt lat="4.8631100" lon="-75.4452090">
        <ele>3448.5</ele>
        <time>2021-04-17T19:52:34Z</time>
      </trkpt>
      <trkpt lat="4.8631870" lon="-75.4452490">
        <ele>3447.9</ele>
        <time>2021-04-17T19:52:35Z</time>
      </trkpt>
      <trkpt lat="4.8632600" lon="-75.4452900">
        <ele>3447.3</ele>
        <time>2021-04-17T19:52:36Z</time>
      </trkpt>
      <trkpt lat="4.8633260" lon="-75.4453350">
        <ele>3446.7</ele>
        <time>2021-04-17T19:52:37Z</time>
      </trkpt>
      <trkpt lat="4.8633850" lon="-75.4453830">
        <ele>3446.1</ele>
        <time>2021-04-17T19:52:38Z</time>
      </trkpt>
      <trkpt lat="4.8634410" lon="-75.4454270">
        <ele>3445.6</ele>
        <time>2021-04-17T19:52:39Z</time>
      </trkpt>
      <trkpt lat="4.8634980" lon="-75.4454650">
        <ele>3445.1</ele>
        <time>2021-04-17T19:52:40Z</time>
      </trkpt>
      <trkpt lat="4.8635510" lon="-75.4455010">
        <ele>3444.6</ele>
        <time>2021-04-17T19:52:41Z</time>
      </trkpt>
      <trkpt lat="4.8635940" lon="-75.4455430">
        <ele>3444.2</ele>
        <time>2021-04-17T19:52:42Z</time>
      </trkpt>
      <trkpt lat="4.8636300" lon="-75.4455890">
        <ele>3443.8</ele>
        <time>2021-04-17T19:52:43Z</time>
      </trkpt>
      <trkpt lat="4.8636700" lon="-75.4456360">
        <ele>3443.3</ele>
        <time>2021-04-17T19:52:44Z</time>
      </trkpt>
      <trkpt lat="4.8637140" lon="-75.4456830">
        <ele>3442.8</ele>
        <time>2021-04-17T19:52:45Z</time>
      </trkpt>
      <trkpt lat="4.8637610" lon="-75.4457320">
        <ele>3442.3</ele>
        <time>2021-04-17T19:52:46Z</time>
      </trkpt>
      <trkpt lat="4.8638080" lon="-75.4457800">
        <ele>3441.8</ele>
        <time>2021-04-17T19:52:47Z</time>
      </trkpt>
      <trkpt lat="4.8638600" lon="-75.4458340">
        <ele>3441.3</ele>
        <time>2021-04-17T19:52:48Z</time>
      </trkpt>
      <trkpt lat="4.8639090" lon="-75.4458940">
        <ele>3440.7</ele>
        <time>2021-04-17T19:52:49Z</time>
      </trkpt>
      <trkpt lat="4.8639530" lon="-75.4459640">
        <ele>3440.1</ele>
        <time>2021-04-17T19:52:50Z</time>
      </trkpt>
      <trkpt lat="4.8639880" lon="-75.4460440">
        <ele>3439.5</ele>
        <time>2021-04-17T19:52:51Z</time>
      </trkpt>
      <trkpt lat="4.8640170" lon="-75.4461290">
        <ele>3438.8</ele>
        <time>2021-04-17T19:52:52Z</time>
      </trkpt>
      <trkpt lat="4.8640470" lon="-75.4462180">
        <ele>3438.1</ele>
        <time>2021-04-17T19:52:53Z</time>
      </trkpt>
      <trkpt lat="4.8640790" lon="-75.4463080">
        <ele>3437.4</ele>
        <time>2021-04-17T19:52:54Z</time>
      </trkpt>
      <trkpt lat="4.8641140" lon="-75.4463980">
        <ele>3436.7</ele>
        <time>2021-04-17T19:52:55Z</time>
      </trkpt>
      <trkpt lat="4.8641530" lon="-75.4464870">
        <ele>3436.0</ele>
        <time>2021-04-17T19:52:56Z</time>
      </trkpt>
      <trkpt lat="4.8641920" lon="-75.4465760">
        <ele>3435.3</ele>
        <time>2021-04-17T19:52:57Z</time>
      </trkpt>
      <trkpt lat="4.8642300" lon="-75.4466660">
        <ele>3434.6</ele>
        <time>2021-04-17T19:52:58Z</time>
      </trkpt>
      <trkpt lat="4.8642690" lon="-75.4467560">
        <ele>3433.9</ele>
        <time>2021-04-17T19:52:59Z</time>
      </trkpt>
      <trkpt lat="4.8643060" lon="-75.4468450">
        <ele>3433.1</ele>
        <time>2021-04-17T19:53:00Z</time>
      </trkpt>
      <trkpt lat="4.8643440" lon="-75.4469330">
        <ele>3432.4</ele>
        <time>2021-04-17T19:53:01Z</time>
      </trkpt>
      <trkpt lat="4.8643820" lon="-75.4470200">
        <ele>3431.7</ele>
        <time>2021-04-17T19:53:02Z</time>
      </trkpt>
      <trkpt lat="4.8644180" lon="-75.4471050">
        <ele>3431.1</ele>
        <time>2021-04-17T19:53:03Z</time>
      </trkpt>
      <trkpt lat="4.8644540" lon="-75.4471880">
        <ele>3430.4</ele>
        <time>2021-04-17T19:53:04Z</time>
      </trkpt>
      <trkpt lat="4.8644940" lon="-75.4472700">
        <ele>3429.7</ele>
        <time>2021-04-17T19:53:05Z</time>
      </trkpt>
      <trkpt lat="4.8645380" lon="-75.4473500">
        <ele>3429.1</ele>
        <time>2021-04-17T19:53:06Z</time>
      </trkpt>
      <trkpt lat="4.8645880" lon="-75.4474280">
        <ele>3428.4</ele>
        <time>2021-04-17T19:53:07Z</time>
      </trkpt>
      <trkpt lat="4.8646400" lon="-75.4475030">
        <ele>3427.7</ele>
        <time>2021-04-17T19:53:08Z</time>
      </trkpt>
      <trkpt lat="4.8646930" lon="-75.4475830">
        <ele>3427.0</ele>
        <time>2021-04-17T19:53:09Z</time>
      </trkpt>
      <trkpt lat="4.8647450" lon="-75.4476660">
        <ele>3426.3</ele>
        <time>2021-04-17T19:53:10Z</time>
      </trkpt>
      <trkpt lat="4.8647960" lon="-75.4477490">
        <ele>3425.6</ele>
        <time>2021-04-17T19:53:11Z</time>
      </trkpt>
      <trkpt lat="4.8648410" lon="-75.4478360">
        <ele>3424.9</ele>
        <time>2021-04-17T19:53:12Z</time>
      </trkpt>
      <trkpt lat="4.8648760" lon="-75.4479270">
        <ele>3424.1</ele>
        <time>2021-04-17T19:53:13Z</time>
      </trkpt>
      <trkpt lat="4.8648960" lon="-75.4480240">
        <ele>3423.4</ele>
        <time>2021-04-17T19:53:14Z</time>
      </trkpt>
      <trkpt lat="4.8649000" lon="-75.4481230">
        <ele>3422.7</ele>
        <time>2021-04-17T19:53:15Z</time>
      </trkpt>
      <trkpt lat="4.8648980" lon="-75.4482220">
        <ele>3422.0</ele>
        <time>2021-04-17T19:53:16Z</time>
      </trkpt>
      <trkpt lat="4.8648960" lon="-75.4483090">
        <ele>3421.3</ele>
        <time>2021-04-17T19:53:17Z</time>
      </trkpt>
      <trkpt lat="4.8649000" lon="-75.4483810">
        <ele>3420.8</ele>
        <time>2021-04-17T19:53:18Z</time>
      </trkpt>
      <trkpt lat="4.8649150" lon="-75.4484320">
        <ele>3420.4</ele>
        <time>2021-04-17T19:53:19Z</time>
      </trkpt>
      <trkpt lat="4.8649500" lon="-75.4484620">
        <ele>3420.1</ele>
        <time>2021-04-17T19:53:20Z</time>
      </trkpt>
      <trkpt lat="4.8650020" lon="-75.4484690">
        <ele>3419.7</ele>
        <time>2021-04-17T19:53:21Z</time>
      </trkpt>
      <trkpt lat="4.8650650" lon="-75.4484610">
        <ele>3419.2</ele>
        <time>2021-04-17T19:53:22Z</time>
      </trkpt>
      <trkpt lat="4.8651360" lon="-75.4484530">
        <ele>3418.7</ele>
        <time>2021-04-17T19:53:23Z</time>
      </trkpt>
      <trkpt lat="4.8652140" lon="-75.4484470">
        <ele>3418.1</ele>
        <time>2021-04-17T19:53:24Z</time>
      </trkpt>
      <trkpt lat="4.8652950" lon="-75.4484450">
        <ele>3417.5</ele>
        <time>2021-04-17T19:53:25Z</time>
      </trkpt>
      <trkpt lat="4.8653840" lon="-75.4484500">
        <ele>3416.9</ele>
        <time>2021-04-17T19:53:26Z</time>
      </trkpt>
      <trkpt lat="4.8654760" lon="-75.4484640">
        <ele>3416.2</ele>
        <time>2021-04-17T19:53:27Z</time>
      </trkpt>
      <trkpt lat="4.8655640" lon="-75.4484810">
        <ele>3415.5</ele>
        <time>2021-04-17T19:53:28Z</time>
      </trkpt>
      <trkpt lat="4.8656420" lon="-75.4484930">
        <ele>3414.9</ele>
        <time>2021-04-17T19:53:29Z</time>
      </trkpt>
      <trkpt lat="4.8657190" lon="-75.4484990">
        <ele>3414.4</ele>
        <time>2021-04-17T19:53:30Z</time>
      </trkpt>
      <trkpt lat="4.8657910" lon="-75.4485070">
        <ele>3413.8</ele>
        <time>2021-04-17T19:53:31Z</time>
      </trkpt>
      <trkpt lat="4.8658500" lon="-75.4485310">
        <ele>3413.4</ele>
        <time>2021-04-17T19:53:32Z</time>
      </trkpt>
      <trkpt lat="4.8658880" lon="-75.4485730">
        <ele>3413.0</ele>
        <time>2021-04-17T19:53:33Z</time>
      </trkpt>
      <trkpt lat="4.8658960" lon="-75.4486250">
        <ele>3412.6</ele>
        <time>2021-04-17T19:53:34Z</time>
      </trkpt>
      <trkpt lat="4.8658840" lon="-75.4486800">
        <ele>3412.2</ele>
        <time>2021-04-17T19:53:35Z</time>
      </trkpt>
      <trkpt lat="4.8658550" lon="-75.4487370">
        <ele>3411.7</ele>
        <time>2021-04-17T19:53:36Z</time>
      </trkpt>
      <trkpt lat="4.8658310" lon="-75.4487960">
        <ele>3411.2</ele>
        <time>2021-04-17T19:53:37Z</time>
      </trkpt>
      <trkpt lat="4.8658240" lon="-75.4488630">
        <ele>3410.7</ele>
        <time>2021-04-17T19:53:38Z</time>
      </trkpt>
      <trkpt lat="4.8658310" lon="-75.4489310">
        <ele>3410.2</ele>
        <time>2021-04-17T19:53:39Z</time>
      </trkpt>
      <trkpt lat="4.8658520" lon="-75.4489990">
        <ele>3409.7</ele>
        <time>2021-04-17T19:53:40Z</time>
      </trkpt>
      <trkpt lat="4.8658880" lon="-75.4490580">
        <ele>3409.2</ele>
        <time>2021-04-17T19:53:41Z</time>
      </trkpt>
      <trkpt lat="4.8659420" lon="-75.4491010">
        <ele>3408.7</ele>
        <time>2021-04-17T19:53:42Z</time>
      </trkpt>
      <trkpt lat="4.8660100" lon="-75.4491230">
        <ele>3408.2</ele>
        <time>2021-04-17T19:53:43Z</time>
      </trkpt>
      <trkpt lat="4.8660810" lon="-75.4491310">
        <ele>3407.6</ele>
        <time>2021-04-17T19:53:44Z</time>
      </trkpt>
      <trkpt lat="4.8661570" lon="-75.4491420">
        <ele>3407.1</ele>
        <time>2021-04-17T19:53:45Z</time>
      </trkpt>
      <trkpt lat="4.8662370" lon="-75.4491570">
        <ele>3406.5</ele>
        <time>2021-04-17T19:53:46Z</time>
      </trkpt>
      <trkpt lat="4.8663220" lon="-75.4491690">
        <ele>3405.9</ele>
        <time>2021-04-17T19:53:47Z</time>
      </trkpt>
      <trkpt lat="4.8664050" lon="-75.4491840">
        <ele>3405.2</ele>
        <time>2021-04-17T19:53:48Z</time>
      </trkpt>
      <trkpt lat="4.8664810" lon="-75.4492180">
        <ele>3404.6</ele>
        <time>2021-04-17T19:53:49Z</time>
      </trkpt>
      <trkpt lat="4.8665290" lon="-75.4492810">
        <ele>3404.0</ele>
        <time>2021-04-17T19:53:50Z</time>
      </trkpt>
      <trkpt lat="4.8665530" lon="-75.4493540">
        <ele>3403.5</ele>
        <time>2021-04-17T19:53:51Z</time>
      </trkpt>
      <trkpt lat="4.8665500" lon="-75.4494350">
        <ele>3402.8</ele>
        <time>2021-04-17T19:53:52Z</time>
      </trkpt>
      <trkpt lat="4.8665130" lon="-75.4494940">
        <ele>3402.1</ele>
        <time>2021-04-17T19:53:53Z</time>
      </trkpt>
      <trkpt lat="4.8664630" lon="-75.4495470">
        <ele>3401.4</ele>
        <time>2021-04-17T19:53:54Z</time>
      </trkpt>
      <trkpt lat="4.8663950" lon="-75.4495800">
        <ele>3400.7</ele>
        <time>2021-04-17T19:53:55Z</time>
      </trkpt>
      <trkpt lat="4.8663220" lon="-75.4496010">
        <ele>3399.9</ele>
        <time>2021-04-17T19:53:56Z</time>
      </trkpt>
      <trkpt lat="4.8662590" lon="-75.4496140">
        <ele>3399.3</ele>
        <time>2021-04-17T19:53:57Z</time>
      </trkpt>
      <trkpt lat="4.8662050" lon="-75.4496260">
        <ele>3398.7</ele>
        <time>2021-04-17T19:53:58Z</time>
      </trkpt>
      <trkpt lat="4.8661530" lon="-75.4496440">
        <ele>3398.2</ele>
        <time>2021-04-17T19:53:59Z</time>
      </trkpt>
      <trkpt lat="4.8661030" lon="-75.4496730">
        <ele>3397.6</ele>
        <time>2021-04-17T19:54:00Z</time>
      </trkpt>
      <trkpt lat="4.8660580" lon="-75.4497120">
        <ele>3397.1</ele>
        <time>2021-04-17T19:54:01Z</time>
      </trkpt>
      <trkpt lat="4.8660320" lon="-75.4497670">
        <ele>3396.5</ele>
        <time>2021-04-17T19:54:02Z</time>
      </trkpt>
      <trkpt lat="4.8660330" lon="-75.4498260">
        <ele>3395.9</ele>
        <time>2021-04-17T19:54:03Z</time>
      </trkpt>
      <trkpt lat="4.8660630" lon="-75.4498910">
        <ele>3395.2</ele>
        <time>2021-04-17T19:54:04Z</time>
      </trkpt>
      <trkpt lat="4.8661110" lon="-75.4499460">
        <ele>3394.5</ele>
        <time>2021-04-17T19:54:05Z</time>
      </trkpt>
      <trkpt lat="4.8661750" lon="-75.4499930">
        <ele>3393.7</ele>
        <time>2021-04-17T19:54:06Z</time>
      </trkpt>
      <trkpt lat="4.8662470" lon="-75.4500320">
        <ele>3392.9</ele>
        <time>2021-04-17T19:54:07Z</time>
      </trkpt>
      <trkpt lat="4.8663230" lon="-75.4500700">
        <ele>3392.1</ele>
        <time>2021-04-17T19:54:08Z</time>
      </trkpt>
      <trkpt lat="4.8663970" lon="-75.4501060">
        <ele>3391.3</ele>
        <time>2021-04-17T19:54:09Z</time>
      </trkpt>
      <trkpt lat="4.8664710" lon="-75.4501430">
        <ele>3390.5</ele>
        <time>2021-04-17T19:54:10Z</time>
      </trkpt>
      <trkpt lat="4.8665470" lon="-75.4501800">
        <ele>3389.7</ele>
        <time>2021-04-17T19:54:11Z</time>
      </trkpt>
      <trkpt lat="4.8666270" lon="-75.4502160">
        <ele>3388.8</ele>
        <time>2021-04-17T19:54:12Z</time>
      </trkpt>
      <trkpt lat="4.8667160" lon="-75.4502430">
        <ele>3387.9</ele>
        <time>2021-04-17T19:54:13Z</time>
      </trkpt>
      <trkpt lat="4.8668060" lon="-75.4502530">
        <ele>3387.0</ele>
        <time>2021-04-17T19:54:14Z</time>
      </trkpt>
      <trkpt lat="4.8668980" lon="-75.4502380">
        <ele>3386.1</ele>
        <time>2021-04-17T19:54:15Z</time>
      </trkpt>
      <trkpt lat="4.8669840" lon="-75.4502140">
        <ele>3385.2</ele>
        <time>2021-04-17T19:54:16Z</time>
      </trkpt>
      <trkpt lat="4.8670630" lon="-75.4501990">
        <ele>3384.5</ele>
        <time>2021-04-17T19:54:17Z</time>
      </trkpt>
      <trkpt lat="4.8671390" lon="-75.4502040">
        <ele>3383.7</ele>
        <time>2021-04-17T19:54:18Z</time>
      </trkpt>
      <trkpt lat="4.8672110" lon="-75.4502260">
        <ele>3383.0</ele>
        <time>2021-04-17T19:54:19Z</time>
      </trkpt>
      <trkpt lat="4.8672870" lon="-75.4502620">
        <ele>3382.2</ele>
        <time>2021-04-17T19:54:20Z</time>
      </trkpt>
      <trkpt lat="4.8673620" lon="-75.4503020">
        <ele>3381.3</ele>
        <time>2021-04-17T19:54:21Z</time>
      </trkpt>
      <trkpt lat="4.8674410" lon="-75.4503480">
        <ele>3380.4</ele>
        <time>2021-04-17T19:54:22Z</time>
      </trkpt>
      <trkpt lat="4.8675230" lon="-75.4503970">
        <ele>3379.5</ele>
        <time>2021-04-17T19:54:23Z</time>
      </trkpt>
      <trkpt lat="4.8676080" lon="-75.4504450">
        <ele>3378.6</ele>
        <time>2021-04-17T19:54:24Z</time>
      </trkpt>
      <trkpt lat="4.8676940" lon="-75.4504900">
        <ele>3377.6</ele>
        <time>2021-04-17T19:54:25Z</time>
      </trkpt>
      <trkpt lat="4.8677780" lon="-75.4505270">
        <ele>3376.7</ele>
        <time>2021-04-17T19:54:26Z</time>
      </trkpt>
      <trkpt lat="4.8678600" lon="-75.4505530">
        <ele>3375.9</ele>
        <time>2021-04-17T19:54:27Z</time>
      </trkpt>
      <trkpt lat="4.8679480" lon="-75.4505700">
        <ele>3375.0</ele>
        <time>2021-04-17T19:54:28Z</time>
      </trkpt>
      <trkpt lat="4.8680370" lon="-75.4505810">
        <ele>3374.1</ele>
        <time>2021-04-17T19:54:29Z</time>
      </trkpt>
      <trkpt lat="4.8681200" lon="-75.4505970">
        <ele>3373.3</ele>
        <time>2021-04-17T19:54:30Z</time>
      </trkpt>
      <trkpt lat="4.8681940" lon="-75.4506310">
        <ele>3372.5</ele>
        <time>2021-04-17T19:54:31Z</time>
      </trkpt>
      <trkpt lat="4.8682550" lon="-75.4506850">
        <ele>3371.7</ele>
        <time>2021-04-17T19:54:32Z</time>
      </trkpt>
      <trkpt lat="4.8682960" lon="-75.4507560">
        <ele>3370.9</ele>
        <time>2021-04-17T19:54:33Z</time>
      </trkpt>
      <trkpt lat="4.8683150" lon="-75.4508330">
        <ele>3370.1</ele>
        <time>2021-04-17T19:54:34Z</time>
      </trkpt>
      <trkpt lat="4.8683110" lon="-75.4509090">
        <ele>3369.4</ele>
        <time>2021-04-17T19:54:35Z</time>
      </trkpt>
      <trkpt lat="4.8682800" lon="-75.4509770">
        <ele>3368.7</ele>
        <time>2021-04-17T19:54:36Z</time>
      </trkpt>
      <trkpt lat="4.8682330" lon="-75.4510350">
        <ele>3368.0</ele>
        <time>2021-04-17T19:54:37Z</time>
      </trkpt>
      <trkpt lat="4.8681640" lon="-75.4510870">
        <ele>3367.1</ele>
        <time>2021-04-17T19:54:38Z</time>
      </trkpt>
      <trkpt lat="4.8680970" lon="-75.4511470">
        <ele>3366.2</ele>
        <time>2021-04-17T19:54:39Z</time>
      </trkpt>
      <trkpt lat="4.8680350" lon="-75.4512180">
        <ele>3365.3</ele>
        <time>2021-04-17T19:54:40Z</time>
      </trkpt>
      <trkpt lat="4.8679710" lon="-75.4512920">
        <ele>3364.4</ele>
        <time>2021-04-17T19:54:41Z</time>
      </trkpt>
      <trkpt lat="4.8679030" lon="-75.4513580">
        <ele>3363.4</ele>
        <time>2021-04-17T19:54:42Z</time>
      </trkpt>
      <trkpt lat="4.8678350" lon="-75.4514120">
        <ele>3362.6</ele>
        <time>2021-04-17T19:54:43Z</time>
      </trkpt>
      <trkpt lat="4.8677600" lon="-75.4514500">
        <ele>3361.8</ele>
        <time>2021-04-17T19:54:44Z</time>
      </trkpt>
      <trkpt lat="4.8676870" lon="-75.4514830">
        <ele>3361.0</ele>
        <time>2021-04-17T19:54:45Z</time>
      </trkpt>
      <trkpt lat="4.8676190" lon="-75.4515160">
        <ele>3360.3</ele>
        <time>2021-04-17T19:54:46Z</time>
      </trkpt>
      <trkpt lat="4.8675710" lon="-75.4515650">
        <ele>3359.6</ele>
        <time>2021-04-17T19:54:47Z</time>
      </trkpt>
      <trkpt lat="4.8675430" lon="-75.4516260">
        <ele>3358.9</ele>
        <time>2021-04-17T19:54:48Z</time>
      </trkpt>
      <trkpt lat="4.8675230" lon="-75.4516900">
        <ele>3358.3</ele>
        <time>2021-04-17T19:54:49Z</time>
      </trkpt>
      <trkpt lat="4.8674960" lon="-75.4517510">
        <ele>3357.6</ele>
        <time>2021-04-17T19:54:50Z</time>
      </trkpt>
      <trkpt lat="4.8674550" lon="-75.4518040">
        <ele>3357.0</ele>
        <time>2021-04-17T19:54:51Z</time>
      </trkpt>
      <trkpt lat="4.8674050" lon="-75.4518530">
        <ele>3356.3</ele>
        <time>2021-04-17T19:54:52Z</time>
      </trkpt>
      <trkpt lat="4.8673510" lon="-75.4519030">
        <ele>3355.6</ele>
        <time>2021-04-17T19:54:53Z</time>
      </trkpt>
      <trkpt lat="4.8672990" lon="-75.4519600">
        <ele>3354.8</ele>
        <time>2021-04-17T19:54:54Z</time>
      </trkpt>
      <trkpt lat="4.8672460" lon="-75.4520170">
        <ele>3354.1</ele>
        <time>2021-04-17T19:54:55Z</time>
      </trkpt>
      <trkpt lat="4.8671940" lon="-75.4520780">
        <ele>3353.3</ele>
        <time>2021-04-17T19:54:56Z</time>
      </trkpt>
      <trkpt lat="4.8671430" lon="-75.4521360">
        <ele>3352.5</ele>
        <time>2021-04-17T19:54:57Z</time>
      </trkpt>
      <trkpt lat="4.8670940" lon="-75.4521900">
        <ele>3351.8</ele>
        <time>2021-04-17T19:54:58Z</time>
      </trkpt>
      <trkpt lat="4.8670470" lon="-75.4522480">
        <ele>3351.1</ele>
        <time>2021-04-17T19:54:59Z</time>
      </trkpt>
      <trkpt lat="4.8670000" lon="-75.4523140">
        <ele>3350.3</ele>
        <time>2021-04-17T19:55:00Z</time>
      </trkpt>
      <trkpt lat="4.8669600" lon="-75.4523870">
        <ele>3349.5</ele>
        <time>2021-04-17T19:55:01Z</time>
      </trkpt>
      <trkpt lat="4.8669310" lon="-75.4524660">
        <ele>3348.7</ele>
        <time>2021-04-17T19:55:02Z</time>
      </trkpt>
      <trkpt lat="4.8669120" lon="-75.4525500">
        <ele>3347.9</ele>
        <time>2021-04-17T19:55:03Z</time>
      </trkpt>
      <trkpt lat="4.8668960" lon="-75.4526340">
        <ele>3347.0</ele>
        <time>2021-04-17T19:55:04Z</time>
      </trkpt>
      <trkpt lat="4.8668840" lon="-75.4527220">
        <ele>3346.2</ele>
        <time>2021-04-17T19:55:05Z</time>
      </trkpt>
      <trkpt lat="4.8668750" lon="-75.4528100">
        <ele>3345.3</ele>
        <time>2021-04-17T19:55:06Z</time>
      </trkpt>
      <trkpt lat="4.8668660" lon="-75.4529000">
        <ele>3344.4</ele>
        <time>2021-04-17T19:55:07Z</time>
      </trkpt>
      <trkpt lat="4.8668570" lon="-75.4529900">
        <ele>3343.5</ele>
        <time>2021-04-17T19:55:08Z</time>
      </trkpt>
      <trkpt lat="4.8668500" lon="-75.4530790">
        <ele>3342.7</ele>
        <time>2021-04-17T19:55:09Z</time>
      </trkpt>
      <trkpt lat="4.8668520" lon="-75.4531680">
        <ele>3341.8</ele>
        <time>2021-04-17T19:55:10Z</time>
      </trkpt>
      <trkpt lat="4.8668680" lon="-75.4532530">
        <ele>3341.0</ele>
        <time>2021-04-17T19:55:11Z</time>
      </trkpt>
      <trkpt lat="4.8669000" lon="-75.4533430">
        <ele>3340.0</ele>
        <time>2021-04-17T19:55:12Z</time>
      </trkpt>
      <trkpt lat="4.8669340" lon="-75.4534320">
        <ele>3339.1</ele>
        <time>2021-04-17T19:55:13Z</time>
      </trkpt>
      <trkpt lat="4.8669750" lon="-75.4535170">
        <ele>3338.2</ele>
        <time>2021-04-17T19:55:14Z</time>
      </trkpt>
      <trkpt lat="4.8670280" lon="-75.4535940">
        <ele>3337.3</ele>
        <time>2021-04-17T19:55:15Z</time>
      </trkpt>
      <trkpt lat="4.8670970" lon="-75.4536620">
        <ele>3336.3</ele>
        <time>2021-04-17T19:55:16Z</time>
      </trkpt>
      <trkpt lat="4.8671720" lon="-75.4537140">
        <ele>3335.5</ele>
        <time>2021-04-17T19:55:17Z</time>
      </trkpt>
      <trkpt lat="4.8672460" lon="-75.4537430">
        <ele>3334.7</ele>
        <time>2021-04-17T19:55:18Z</time>
      </trkpt>
      <trkpt lat="4.8673150" lon="-75.4537460">
        <ele>3334.0</ele>
        <time>2021-04-17T19:55:19Z</time>
      </trkpt>
      <trkpt lat="4.8673790" lon="-75.4537260">
        <ele>3333.4</ele>
        <time>2021-04-17T19:55:20Z</time>
      </trkpt>
      <trkpt lat="4.8674320" lon="-75.4536890">
        <ele>3332.7</ele>
        <time>2021-04-17T19:55:21Z</time>
      </trkpt>
      <trkpt lat="4.8674740" lon="-75.4536440">
        <ele>3332.1</ele>
        <time>2021-04-17T19:55:22Z</time>
      </trkpt>
      <trkpt lat="4.8675110" lon="-75.4535920">
        <ele>3331.5</ele>
        <time>2021-04-17T19:55:23Z</time>
      </trkpt>
      <trkpt lat="4.8675440" lon="-75.4535320">
        <ele>3330.8</ele>
        <time>2021-04-17T19:55:24Z</time>
      </trkpt>
      <trkpt lat="4.8675670" lon="-75.4534640">
        <ele>3330.1</ele>
        <time>2021-04-17T19:55:25Z</time>
      </trkpt>
      <trkpt lat="4.8675830" lon="-75.4533930">
        <ele>3329.4</ele>
        <time>2021-04-17T19:55:26Z</time>
      </trkpt>
      <trkpt lat="4.8676000" lon="-75.4533200">
        <ele>3328.7</ele>
        <time>2021-04-17T19:55:27Z</time>
      </trkpt>
      <trkpt lat="4.8676180" lon="-75.4532480">
        <ele>3328.0</ele>
        <time>2021-04-17T19:55:28Z</time>
      </trkpt>
      <trkpt lat="4.8676380" lon="-75.4531790">
        <ele>3327.3</ele>
        <time>2021-04-17T19:55:29Z</time>
      </trkpt>
      <trkpt lat="4.8676630" lon="-75.4531140">
        <ele>3326.6</ele>
        <time>2021-04-17T19:55:30Z</time>
      </trkpt>
      <trkpt lat="4.8676940" lon="-75.4530470">
        <ele>3325.9</ele>
        <time>2021-04-17T19:55:31Z</time>
      </trkpt>
      <trkpt lat="4.8677330" lon="-75.4529790">
        <ele>3325.1</ele>
        <time>2021-04-17T19:55:32Z</time>
      </trkpt>
      <trkpt lat="4.8677830" lon="-75.4529140">
        <ele>3324.3</ele>
        <time>2021-04-17T19:55:33Z</time>
      </trkpt>
      <trkpt lat="4.8678430" lon="-75.4528560">
        <ele>3323.5</ele>
        <time>2021-04-17T19:55:34Z</time>
      </trkpt>
      <trkpt lat="4.8679140" lon="-75.4528180">
        <ele>3322.7</ele>
        <time>2021-04-17T19:55:35Z</time>
      </trkpt>
      <trkpt lat="4.8679940" lon="-75.4527950">
        <ele>3321.9</ele>
        <time>2021-04-17T19:55:36Z</time>
      </trkpt>
      <trkpt lat="4.8680820" lon="-75.4527790">
        <ele>3321.0</ele>
        <time>2021-04-17T19:55:37Z</time>
      </trkpt>
      <trkpt lat="4.8681750" lon="-75.4527690">
        <ele>3320.1</ele>
        <time>2021-04-17T19:55:38Z</time>
      </trkpt>
      <trkpt lat="4.8682690" lon="-75.4527700">
        <ele>3319.2</ele>
        <time>2021-04-17T19:55:39Z</time>
      </trkpt>
      <trkpt lat="4.8683670" lon="-75.4527850">
        <ele>3318.3</ele>
        <time>2021-04-17T19:55:40Z</time>
      </trkpt>
      <trkpt lat="4.8684670" lon="-75.4528040">
        <ele>3317.3</ele>
        <time>2021-04-17T19:55:41Z</time>
      </trkpt>
      <trkpt lat="4.8685700" lon="-75.4528200">
        <ele>3316.2</ele>
        <time>2021-04-17T19:55:42Z</time>
      </trkpt>
      <trkpt lat="4.8686720" lon="-75.4528290">
        <ele>3315.6</ele>
        <time>2021-04-17T19:55:43Z</time>
      </trkpt>
      <trkpt lat="4.8687670" lon="-75.4528280">
        <ele>3314.8</ele>
        <time>2021-04-17T19:55:44Z</time>
      </trkpt>
      <trkpt lat="4.8688570" lon="-75.4528100">
        <ele>3313.8</ele>
        <time>2021-04-17T19:55:45Z</time>
      </trkpt>
      <trkpt lat="4.8689370" lon="-75.4527700">
        <ele>3312.6</ele>
        <time>2021-04-17T19:55:46Z</time>
      </trkpt>
      <trkpt lat="4.8690080" lon="-75.4527190">
        <ele>3311.2</ele>
        <time>2021-04-17T19:55:47Z</time>
      </trkpt>
      <trkpt lat="4.8690680" lon="-75.4526670">
        <ele>3309.9</ele>
        <time>2021-04-17T19:55:48Z</time>
      </trkpt>
      <trkpt lat="4.8691190" lon="-75.4526210">
        <ele>3308.8</ele>
        <time>2021-04-17T19:55:49Z</time>
      </trkpt>
      <trkpt lat="4.8691680" lon="-75.4525770">
        <ele>3307.8</ele>
        <time>2021-04-17T19:55:50Z</time>
      </trkpt>
      <trkpt lat="4.8692220" lon="-75.4525290">
        <ele>3306.7</ele>
        <time>2021-04-17T19:55:51Z</time>
      </trkpt>
      <trkpt lat="4.8692750" lon="-75.4524820">
        <ele>3305.7</ele>
        <time>2021-04-17T19:55:52Z</time>
      </trkpt>
      <trkpt lat="4.8693330" lon="-75.4524430">
        <ele>3304.8</ele>
        <time>2021-04-17T19:55:53Z</time>
      </trkpt>
      <trkpt lat="4.8694030" lon="-75.4524200">
        <ele>3303.8</ele>
        <time>2021-04-17T19:55:54Z</time>
      </trkpt>
      <trkpt lat="4.8694830" lon="-75.4524090">
        <ele>3302.9</ele>
        <time>2021-04-17T19:55:55Z</time>
      </trkpt>
      <trkpt lat="4.8695650" lon="-75.4524130">
        <ele>3301.9</ele>
        <time>2021-04-17T19:55:56Z</time>
      </trkpt>
      <trkpt lat="4.8696460" lon="-75.4524350">
        <ele>3301.0</ele>
        <time>2021-04-17T19:55:57Z</time>
      </trkpt>
      <trkpt lat="4.8697280" lon="-75.4524640">
        <ele>3299.9</ele>
        <time>2021-04-17T19:55:58Z</time>
      </trkpt>
      <trkpt lat="4.8698110" lon="-75.4524950">
        <ele>3298.9</ele>
        <time>2021-04-17T19:55:59Z</time>
      </trkpt>
      <trkpt lat="4.8698960" lon="-75.4525280">
        <ele>3297.8</ele>
        <time>2021-04-17T19:56:00Z</time>
      </trkpt>
      <trkpt lat="4.8699840" lon="-75.4525640">
        <ele>3296.9</ele>
        <time>2021-04-17T19:56:01Z</time>
      </trkpt>
      <trkpt lat="4.8700740" lon="-75.4526020">
        <ele>3296.1</ele>
        <time>2021-04-17T19:56:02Z</time>
      </trkpt>
      <trkpt lat="4.8701650" lon="-75.4526410">
        <ele>3295.3</ele>
        <time>2021-04-17T19:56:03Z</time>
      </trkpt>
      <trkpt lat="4.8702590" lon="-75.4526780">
        <ele>3294.5</ele>
        <time>2021-04-17T19:56:04Z</time>
      </trkpt>
      <trkpt lat="4.8703550" lon="-75.4527150">
        <ele>3293.5</ele>
        <time>2021-04-17T19:56:05Z</time>
      </trkpt>
      <trkpt lat="4.8704530" lon="-75.4527530">
        <ele>3292.5</ele>
        <time>2021-04-17T19:56:06Z</time>
      </trkpt>
      <trkpt lat="4.8705510" lon="-75.4527940">
        <ele>3291.4</ele>
        <time>2021-04-17T19:56:07Z</time>
      </trkpt>
      <trkpt lat="4.8706490" lon="-75.4528340">
        <ele>3290.1</ele>
        <time>2021-04-17T19:56:08Z</time>
      </trkpt>
      <trkpt lat="4.8707520" lon="-75.4528770">
        <ele>3288.8</ele>
        <time>2021-04-17T19:56:09Z</time>
      </trkpt>
      <trkpt lat="4.8708560" lon="-75.4529220">
        <ele>3287.6</ele>
        <time>2021-04-17T19:56:10Z</time>
      </trkpt>
      <trkpt lat="4.8709630" lon="-75.4529720">
        <ele>3286.4</ele>
        <time>2021-04-17T19:56:11Z</time>
      </trkpt>
      <trkpt lat="4.8710690" lon="-75.4530270">
        <ele>3285.2</ele>
        <time>2021-04-17T19:56:12Z</time>
      </trkpt>
      <trkpt lat="4.8711720" lon="-75.4530900">
        <ele>3284.0</ele>
        <time>2021-04-17T19:56:13Z</time>
      </trkpt>
      <trkpt lat="4.8712720" lon="-75.4531590">
        <ele>3282.7</ele>
        <time>2021-04-17T19:56:14Z</time>
      </trkpt>
      <trkpt lat="4.8713720" lon="-75.4532320">
        <ele>3281.4</ele>
        <time>2021-04-17T19:56:15Z</time>
      </trkpt>
      <trkpt lat="4.8714670" lon="-75.4533090">
        <ele>3280.0</ele>
        <time>2021-04-17T19:56:16Z</time>
      </trkpt>
      <trkpt lat="4.8715520" lon="-75.4533870">
        <ele>3278.9</ele>
        <time>2021-04-17T19:56:17Z</time>
      </trkpt>
      <trkpt lat="4.8716240" lon="-75.4534640">
        <ele>3277.9</ele>
        <time>2021-04-17T19:56:18Z</time>
      </trkpt>
      <trkpt lat="4.8716820" lon="-75.4535340">
        <ele>3277.1</ele>
        <time>2021-04-17T19:56:19Z</time>
      </trkpt>
      <trkpt lat="4.8717320" lon="-75.4535970">
        <ele>3276.3</ele>
        <time>2021-04-17T19:56:20Z</time>
      </trkpt>
      <trkpt lat="4.8717750" lon="-75.4536440">
        <ele>3275.5</ele>
        <time>2021-04-17T19:56:21Z</time>
      </trkpt>
      <trkpt lat="4.8718080" lon="-75.4536790">
        <ele>3275.1</ele>
        <time>2021-04-17T19:56:22Z</time>
      </trkpt>
      <trkpt lat="4.8718360" lon="-75.4537120">
        <ele>3274.7</ele>
        <time>2021-04-17T19:56:23Z</time>
      </trkpt>
      <trkpt lat="4.8718690" lon="-75.4537450">
        <ele>3274.4</ele>
        <time>2021-04-17T19:56:24Z</time>
      </trkpt>
      <trkpt lat="4.8719060" lon="-75.4537780">
        <ele>3274.0</ele>
        <time>2021-04-17T19:56:25Z</time>
      </trkpt>
      <trkpt lat="4.8719460" lon="-75.4538100">
        <ele>3273.6</ele>
        <time>2021-04-17T19:56:26Z</time>
      </trkpt>
      <trkpt lat="4.8719910" lon="-75.4538390">
        <ele>3273.1</ele>
        <time>2021-04-17T19:56:27Z</time>
      </trkpt>
      <trkpt lat="4.8720380" lon="-75.4538670">
        <ele>3272.7</ele>
        <time>2021-04-17T19:56:28Z</time>
      </trkpt>
      <trkpt lat="4.8720890" lon="-75.4538950">
        <ele>3272.3</ele>
        <time>2021-04-17T19:56:29Z</time>
      </trkpt>
      <trkpt lat="4.8721440" lon="-75.4539240">
        <ele>3271.8</ele>
        <time>2021-04-17T19:56:30Z</time>
      </trkpt>
      <trkpt lat="4.8722030" lon="-75.4539530">
        <ele>3271.2</ele>
        <time>2021-04-17T19:56:31Z</time>
      </trkpt>
      <trkpt lat="4.8722640" lon="-75.4539840">
        <ele>3270.7</ele>
        <time>2021-04-17T19:56:32Z</time>
      </trkpt>
      <trkpt lat="4.8723270" lon="-75.4540180">
        <ele>3270.1</ele>
        <time>2021-04-17T19:56:33Z</time>
      </trkpt>
      <trkpt lat="4.8723940" lon="-75.4540560">
        <ele>3269.5</ele>
        <time>2021-04-17T19:56:34Z</time>
      </trkpt>
      <trkpt lat="4.8724640" lon="-75.4540950">
        <ele>3268.9</ele>
        <time>2021-04-17T19:56:35Z</time>
      </trkpt>
      <trkpt lat="4.8725360" lon="-75.4541350">
        <ele>3268.2</ele>
        <time>2021-04-17T19:56:36Z</time>
      </trkpt>
      <trkpt lat="4.8726130" lon="-75.4541730">
        <ele>3267.5</ele>
        <time>2021-04-17T19:56:37Z</time>
      </trkpt>
      <trkpt lat="4.8726960" lon="-75.4542040">
        <ele>3266.8</ele>
        <time>2021-04-17T19:56:38Z</time>
      </trkpt>
      <trkpt lat="4.8727830" lon="-75.4542340">
        <ele>3266.1</ele>
        <time>2021-04-17T19:56:39Z</time>
      </trkpt>
      <trkpt lat="4.8728670" lon="-75.4542700">
        <ele>3265.4</ele>
        <time>2021-04-17T19:56:40Z</time>
      </trkpt>
      <trkpt lat="4.8729420" lon="-75.4543190">
        <ele>3264.7</ele>
        <time>2021-04-17T19:56:41Z</time>
      </trkpt>
      <trkpt lat="4.8730100" lon="-75.4543820">
        <ele>3263.9</ele>
        <time>2021-04-17T19:56:42Z</time>
      </trkpt>
      <trkpt lat="4.8730710" lon="-75.4544530">
        <ele>3263.2</ele>
        <time>2021-04-17T19:56:43Z</time>
      </trkpt>
      <trkpt lat="4.8731310" lon="-75.4545240">
        <ele>3262.5</ele>
        <time>2021-04-17T19:56:44Z</time>
      </trkpt>
      <trkpt lat="4.8731950" lon="-75.4545860">
        <ele>3261.8</ele>
        <time>2021-04-17T19:56:45Z</time>
      </trkpt>
      <trkpt lat="4.8732600" lon="-75.4546330">
        <ele>3261.1</ele>
        <time>2021-04-17T19:56:46Z</time>
      </trkpt>
      <trkpt lat="4.8733320" lon="-75.4546610">
        <ele>3260.5</ele>
        <time>2021-04-17T19:56:47Z</time>
      </trkpt>
      <trkpt lat="4.8734110" lon="-75.4546670">
        <ele>3259.9</ele>
        <time>2021-04-17T19:56:48Z</time>
      </trkpt>
      <trkpt lat="4.8734900" lon="-75.4546650">
        <ele>3259.2</ele>
        <time>2021-04-17T19:56:49Z</time>
      </trkpt>
      <trkpt lat="4.8735710" lon="-75.4546560">
        <ele>3258.6</ele>
        <time>2021-04-17T19:56:50Z</time>
      </trkpt>
      <trkpt lat="4.8736510" lon="-75.4546370">
        <ele>3257.9</ele>
        <time>2021-04-17T19:56:51Z</time>
      </trkpt>
      <trkpt lat="4.8737250" lon="-75.4546090">
        <ele>3257.3</ele>
        <time>2021-04-17T19:56:52Z</time>
      </trkpt>
      <trkpt lat="4.8737900" lon="-75.4545670">
        <ele>3256.7</ele>
        <time>2021-04-17T19:56:53Z</time>
      </trkpt>
      <trkpt lat="4.8738310" lon="-75.4545030">
        <ele>3256.1</ele>
        <time>2021-04-17T19:56:54Z</time>
      </trkpt>
      <trkpt lat="4.8738590" lon="-75.4544300">
        <ele>3255.5</ele>
        <time>2021-04-17T19:56:55Z</time>
      </trkpt>
      <trkpt lat="4.8738840" lon="-75.4543550">
        <ele>3254.9</ele>
        <time>2021-04-17T19:56:56Z</time>
      </trkpt>
      <trkpt lat="4.8739180" lon="-75.4542850">
        <ele>3254.2</ele>
        <time>2021-04-17T19:56:57Z</time>
      </trkpt>
      <trkpt lat="4.8739650" lon="-75.4542270">
        <ele>3253.7</ele>
        <time>2021-04-17T19:56:58Z</time>
      </trkpt>
      <trkpt lat="4.8740350" lon="-75.4541890">
        <ele>3253.0</ele>
        <time>2021-04-17T19:56:59Z</time>
      </trkpt>
      <trkpt lat="4.8741130" lon="-75.4541760">
        <ele>3252.4</ele>
        <time>2021-04-17T19:57:00Z</time>
      </trkpt>
      <trkpt lat="4.8741950" lon="-75.4541710">
        <ele>3251.7</ele>
        <time>2021-04-17T19:57:01Z</time>
      </trkpt>
      <trkpt lat="4.8742790" lon="-75.4541680">
        <ele>3251.1</ele>
        <time>2021-04-17T19:57:02Z</time>
      </trkpt>
      <trkpt lat="4.8743620" lon="-75.4541700">
        <ele>3250.4</ele>
        <time>2021-04-17T19:57:03Z</time>
      </trkpt>
      <trkpt lat="4.8744390" lon="-75.4541770">
        <ele>3249.8</ele>
        <time>2021-04-17T19:57:04Z</time>
      </trkpt>
      <trkpt lat="4.8745120" lon="-75.4541980">
        <ele>3249.2</ele>
        <time>2021-04-17T19:57:05Z</time>
      </trkpt>
      <trkpt lat="4.8745800" lon="-75.4542360">
        <ele>3248.6</ele>
        <time>2021-04-17T19:57:06Z</time>
      </trkpt>
      <trkpt lat="4.8746490" lon="-75.4542760">
        <ele>3247.9</ele>
        <time>2021-04-17T19:57:07Z</time>
      </trkpt>
      <trkpt lat="4.8747220" lon="-75.4543040">
        <ele>3247.3</ele>
        <time>2021-04-17T19:57:08Z</time>
      </trkpt>
      <trkpt lat="4.8748030" lon="-75.4543190">
        <ele>3246.7</ele>
        <time>2021-04-17T19:57:09Z</time>
      </trkpt>
      <trkpt lat="4.8748890" lon="-75.4543290">
        <ele>3246.0</ele>
        <time>2021-04-17T19:57:10Z</time>
      </trkpt>
      <trkpt lat="4.8749800" lon="-75.4543480">
        <ele>3245.2</ele>
        <time>2021-04-17T19:57:11Z</time>
      </trkpt>
      <trkpt lat="4.8750700" lon="-75.4543810">
        <ele>3244.5</ele>
        <time>2021-04-17T19:57:12Z</time>
      </trkpt>
      <trkpt lat="4.8751580" lon="-75.4544270">
        <ele>3243.7</ele>
        <time>2021-04-17T19:57:13Z</time>
      </trkpt>
      <trkpt lat="4.8752400" lon="-75.4544840">
        <ele>3242.9</ele>
        <time>2021-04-17T19:57:14Z</time>
      </trkpt>
      <trkpt lat="4.8753190" lon="-75.4545470">
        <ele>3242.1</ele>
        <time>2021-04-17T19:57:15Z</time>
      </trkpt>
      <trkpt lat="4.8753970" lon="-75.4546030">
        <ele>3241.3</ele>
        <time>2021-04-17T19:57:16Z</time>
      </trkpt>
      <trkpt lat="4.8754740" lon="-75.4546450">
        <ele>3240.6</ele>
        <time>2021-04-17T19:57:17Z</time>
      </trkpt>
      <trkpt lat="4.8755520" lon="-75.4546600">
        <ele>3240.0</ele>
        <time>2021-04-17T19:57:18Z</time>
      </trkpt>
      <trkpt lat="4.8756330" lon="-75.4546540">
        <ele>3239.4</ele>
        <time>2021-04-17T19:57:19Z</time>
      </trkpt>
      <trkpt lat="4.8757100" lon="-75.4546260">
        <ele>3238.7</ele>
        <time>2021-04-17T19:57:20Z</time>
      </trkpt>
      <trkpt lat="4.8757890" lon="-75.4545950">
        <ele>3238.0</ele>
        <time>2021-04-17T19:57:21Z</time>
      </trkpt>
      <trkpt lat="4.8758750" lon="-75.4545720">
        <ele>3237.3</ele>
        <time>2021-04-17T19:57:22Z</time>
      </trkpt>
      <trkpt lat="4.8759620" lon="-75.4545610">
        <ele>3236.6</ele>
        <time>2021-04-17T19:57:23Z</time>
      </trkpt>
      <trkpt lat="4.8760520" lon="-75.4545560">
        <ele>3235.9</ele>
        <time>2021-04-17T19:57:24Z</time>
      </trkpt>
      <trkpt lat="4.8761430" lon="-75.4545550">
        <ele>3235.2</ele>
        <time>2021-04-17T19:57:25Z</time>
      </trkpt>
      <trkpt lat="4.8762340" lon="-75.4545640">
        <ele>3234.5</ele>
        <time>2021-04-17T19:57:26Z</time>
      </trkpt>
      <trkpt lat="4.8763250" lon="-75.4545850">
        <ele>3233.7</ele>
        <time>2021-04-17T19:57:27Z</time>
      </trkpt>
      <trkpt lat="4.8764140" lon="-75.4546170">
        <ele>3233.0</ele>
        <time>2021-04-17T19:57:28Z</time>
      </trkpt>
      <trkpt lat="4.8764980" lon="-75.4546610">
        <ele>3232.2</ele>
        <time>2021-04-17T19:57:29Z</time>
      </trkpt>
      <trkpt lat="4.8765750" lon="-75.4547090">
        <ele>3231.5</ele>
        <time>2021-04-17T19:57:30Z</time>
      </trkpt>
      <trkpt lat="4.8766490" lon="-75.4547510">
        <ele>3230.8</ele>
        <time>2021-04-17T19:57:31Z</time>
      </trkpt>
      <trkpt lat="4.8767270" lon="-75.4547660">
        <ele>3230.2</ele>
        <time>2021-04-17T19:57:32Z</time>
      </trkpt>
      <trkpt lat="4.8768070" lon="-75.4547540">
        <ele>3229.6</ele>
        <time>2021-04-17T19:57:33Z</time>
      </trkpt>
      <trkpt lat="4.8768860" lon="-75.4547250">
        <ele>3228.9</ele>
        <time>2021-04-17T19:57:34Z</time>
      </trkpt>
      <trkpt lat="4.8769620" lon="-75.4546830">
        <ele>3228.2</ele>
        <time>2021-04-17T19:57:35Z</time>
      </trkpt>
      <trkpt lat="4.8770390" lon="-75.4546340">
        <ele>3227.5</ele>
        <time>2021-04-17T19:57:36Z</time>
      </trkpt>
      <trkpt lat="4.8771240" lon="-75.4545900">
        <ele>3226.7</ele>
        <time>2021-04-17T19:57:37Z</time>
      </trkpt>
      <trkpt lat="4.8772180" lon="-75.4545560">
        <ele>3225.9</ele>
        <time>2021-04-17T19:57:38Z</time>
      </trkpt>
      <trkpt lat="4.8773210" lon="-75.4545420">
        <ele>3225.1</ele>
        <time>2021-04-17T19:57:39Z</time>
      </trkpt>
      <trkpt lat="4.8774220" lon="-75.4545480">
        <ele>3224.3</ele>
        <time>2021-04-17T19:57:40Z</time>
      </trkpt>
      <trkpt lat="4.8775170" lon="-75.4545710">
        <ele>3223.5</ele>
        <time>2021-04-17T19:57:41Z</time>
      </trkpt>
      <trkpt lat="4.8776010" lon="-75.4546040">
        <ele>3222.8</ele>
        <time>2021-04-17T19:57:42Z</time>
      </trkpt>
      <trkpt lat="4.8776750" lon="-75.4546460">
        <ele>3222.1</ele>
        <time>2021-04-17T19:57:43Z</time>
      </trkpt>
      <trkpt lat="4.8777390" lon="-75.4546920">
        <ele>3221.5</ele>
        <time>2021-04-17T19:57:44Z</time>
      </trkpt>
      <trkpt lat="4.8777950" lon="-75.4547360">
        <ele>3220.9</ele>
        <time>2021-04-17T19:57:45Z</time>
      </trkpt>
      <trkpt lat="4.8778460" lon="-75.4547750">
        <ele>3220.4</ele>
        <time>2021-04-17T19:57:46Z</time>
      </trkpt>
      <trkpt lat="4.8778950" lon="-75.4548080">
        <ele>3220.0</ele>
        <time>2021-04-17T19:57:47Z</time>
      </trkpt>
      <trkpt lat="4.8779450" lon="-75.4548360">
        <ele>3219.5</ele>
        <time>2021-04-17T19:57:48Z</time>
      </trkpt>
      <trkpt lat="4.8779960" lon="-75.4548620">
        <ele>3219.1</ele>
        <time>2021-04-17T19:57:49Z</time>
      </trkpt>
      <trkpt lat="4.8780480" lon="-75.4548880">
        <ele>3218.6</ele>
        <time>2021-04-17T19:57:50Z</time>
      </trkpt>
      <trkpt lat="4.8781000" lon="-75.4549140">
        <ele>3218.1</ele>
        <time>2021-04-17T19:57:51Z</time>
      </trkpt>
      <trkpt lat="4.8781510" lon="-75.4549360">
        <ele>3217.7</ele>
        <time>2021-04-17T19:57:52Z</time>
      </trkpt>
      <trkpt lat="4.8782010" lon="-75.4549600">
        <ele>3217.3</ele>
        <time>2021-04-17T19:57:53Z</time>
      </trkpt>
      <trkpt lat="4.8782470" lon="-75.4549910">
        <ele>3216.8</ele>
        <time>2021-04-17T19:57:54Z</time>
      </trkpt>
      <trkpt lat="4.8782920" lon="-75.4550240">
        <ele>3216.4</ele>
        <time>2021-04-17T19:57:55Z</time>
      </trkpt>
      <trkpt lat="4.8783360" lon="-75.4550550">
        <ele>3215.9</ele>
        <time>2021-04-17T19:57:56Z</time>
      </trkpt>
      <trkpt lat="4.8783780" lon="-75.4550850">
        <ele>3215.5</ele>
        <time>2021-04-17T19:57:57Z</time>
      </trkpt>
      <trkpt lat="4.8784150" lon="-75.4551070">
        <ele>3215.2</ele>
        <time>2021-04-17T19:57:58Z</time>
      </trkpt>
      <trkpt lat="4.8784420" lon="-75.4551190">
        <ele>3215.0</ele>
        <time>2021-04-17T19:57:59Z</time>
      </trkpt>
      <trkpt lat="4.8784570" lon="-75.4551230">
        <ele>3214.8</ele>
        <time>2021-04-17T19:58:00Z</time>
      </trkpt>
      <trkpt lat="4.8784620" lon="-75.4551240">
        <ele>3214.8</ele>
        <time>2021-04-17T19:58:01Z</time>
      </trkpt>
      <trkpt lat="4.8784630" lon="-75.4551240">
        <ele>3214.8</ele>
        <time>2021-04-17T19:58:02Z</time>
      </trkpt>
      <trkpt lat="4.8784740" lon="-75.4551220">
        <ele>3214.7</ele>
        <time>2021-04-17T19:58:03Z</time>
      </trkpt>
      <trkpt lat="4.8784950" lon="-75.4551170">
        <ele>3214.5</ele>
        <time>2021-04-17T19:58:04Z</time>
      </trkpt>
      <trkpt lat="4.8785310" lon="-75.4551080">
        <ele>3214.2</ele>
        <time>2021-04-17T19:58:05Z</time>
      </trkpt>
      <trkpt lat="4.8785790" lon="-75.4551000">
        <ele>3213.8</ele>
        <time>2021-04-17T19:58:06Z</time>
      </trkpt>
      <trkpt lat="4.8786320" lon="-75.4550910">
        <ele>3213.4</ele>
        <time>2021-04-17T19:58:07Z</time>
      </trkpt>
      <trkpt lat="4.8786930" lon="-75.4550800">
        <ele>3212.9</ele>
        <time>2021-04-17T19:58:08Z</time>
      </trkpt>
      <trkpt lat="4.8787600" lon="-75.4550680">
        <ele>3212.4</ele>
        <time>2021-04-17T19:58:09Z</time>
      </trkpt>
      <trkpt lat="4.8788350" lon="-75.4550610">
        <ele>3211.8</ele>
        <time>2021-04-17T19:58:10Z</time>
      </trkpt>
      <trkpt lat="4.8789150" lon="-75.4550560">
        <ele>3211.2</ele>
        <time>2021-04-17T19:58:11Z</time>
      </trkpt>
      <trkpt lat="4.8789980" lon="-75.4550500">
        <ele>3210.5</ele>
        <time>2021-04-17T19:58:12Z</time>
      </trkpt>
      <trkpt lat="4.8790830" lon="-75.4550430">
        <ele>3209.8</ele>
        <time>2021-04-17T19:58:13Z</time>
      </trkpt>
      <trkpt lat="4.8791680" lon="-75.4550380">
        <ele>3209.1</ele>
        <time>2021-04-17T19:58:14Z</time>
      </trkpt>
      <trkpt lat="4.8792540" lon="-75.4550340">
        <ele>3208.5</ele>
        <time>2021-04-17T19:58:15Z</time>
      </trkpt>
      <trkpt lat="4.8793380" lon="-75.4550290">
        <ele>3207.8</ele>
        <time>2021-04-17T19:58:16Z</time>
      </trkpt>
      <trkpt lat="4.8794210" lon="-75.4550230">
        <ele>3207.1</ele>
        <time>2021-04-17T19:58:17Z</time>
      </trkpt>
      <trkpt lat="4.8795020" lon="-75.4550200">
        <ele>3206.8</ele>
        <time>2021-04-17T19:58:18Z</time>
      </trkpt>
      <trkpt lat="4.8795780" lon="-75.4550270">
        <ele>3206.6</ele>
        <time>2021-04-17T19:58:19Z</time>
      </trkpt>
      <trkpt lat="4.8796520" lon="-75.4550380">
        <ele>3206.3</ele>
        <time>2021-04-17T19:58:20Z</time>
      </trkpt>
      <trkpt lat="4.8797220" lon="-75.4550470">
        <ele>3206.1</ele>
        <time>2021-04-17T19:58:21Z</time>
      </trkpt>
      <trkpt lat="4.8797870" lon="-75.4550550">
        <ele>3205.9</ele>
        <time>2021-04-17T19:58:22Z</time>
      </trkpt>
      <trkpt lat="4.8798490" lon="-75.4550640">
        <ele>3205.7</ele>
        <time>2021-04-17T19:58:23Z</time>
      </trkpt>
      <trkpt lat="4.8799080" lon="-75.4550690">
        <ele>3205.5</ele>
        <time>2021-04-17T19:58:24Z</time>
      </trkpt>
      <trkpt lat="4.8799630" lon="-75.4550750">
        <ele>3205.3</ele>
        <time>2021-04-17T19:58:25Z</time>
      </trkpt>
      <trkpt lat="4.8800150" lon="-75.4550810">
        <ele>3205.1</ele>
        <time>2021-04-17T19:58:26Z</time>
      </trkpt>
      <trkpt lat="4.8800630" lon="-75.4550900">
        <ele>3205.0</ele>
        <time>2021-04-17T19:58:27Z</time>
      </trkpt>
      <trkpt lat="4.8801100" lon="-75.4551020">
        <ele>3204.8</ele>
        <time>2021-04-17T19:58:28Z</time>
      </trkpt>
      <trkpt lat="4.8801580" lon="-75.4551140">
        <ele>3204.7</ele>
        <time>2021-04-17T19:58:29Z</time>
      </trkpt>
      <trkpt lat="4.8802080" lon="-75.4551220">
        <ele>3204.5</ele>
        <time>2021-04-17T19:58:30Z</time>
      </trkpt>
      <trkpt lat="4.8802590" lon="-75.4551300">
        <ele>3204.3</ele>
        <time>2021-04-17T19:58:31Z</time>
      </trkpt>
      <trkpt lat="4.8803090" lon="-75.4551390">
        <ele>3204.2</ele>
        <time>2021-04-17T19:58:32Z</time>
      </trkpt>
      <trkpt lat="4.8803590" lon="-75.4551500">
        <ele>3204.0</ele>
        <time>2021-04-17T19:58:33Z</time>
      </trkpt>
      <trkpt lat="4.8804100" lon="-75.4551540">
        <ele>3203.8</ele>
        <time>2021-04-17T19:58:34Z</time>
      </trkpt>
      <trkpt lat="4.8804630" lon="-75.4551520">
        <ele>3203.7</ele>
        <time>2021-04-17T19:58:35Z</time>
      </trkpt>
      <trkpt lat="4.8805170" lon="-75.4551430">
        <ele>3203.5</ele>
        <time>2021-04-17T19:58:36Z</time>
      </trkpt>
      <trkpt lat="4.8805690" lon="-75.4551290">
        <ele>3203.3</ele>
        <time>2021-04-17T19:58:37Z</time>
      </trkpt>
      <trkpt lat="4.8806200" lon="-75.4551150">
        <ele>3203.1</ele>
        <time>2021-04-17T19:58:38Z</time>
      </trkpt>
      <trkpt lat="4.8806730" lon="-75.4551060">
        <ele>3203.0</ele>
        <time>2021-04-17T19:58:39Z</time>
      </trkpt>
      <trkpt lat="4.8807260" lon="-75.4550960">
        <ele>3202.8</ele>
        <time>2021-04-17T19:58:40Z</time>
      </trkpt>
      <trkpt lat="4.8807780" lon="-75.4550810">
        <ele>3202.6</ele>
        <time>2021-04-17T19:58:41Z</time>
      </trkpt>
      <trkpt lat="4.8808280" lon="-75.4550620">
        <ele>3202.4</ele>
        <time>2021-04-17T19:58:42Z</time>
      </trkpt>
      <trkpt lat="4.8808780" lon="-75.4550390">
        <ele>3202.2</ele>
        <time>2021-04-17T19:58:43Z</time>
      </trkpt>
      <trkpt lat="4.8809280" lon="-75.4550150">
        <ele>3202.1</ele>
        <time>2021-04-17T19:58:44Z</time>
      </trkpt>
      <trkpt lat="4.8809800" lon="-75.4549890">
        <ele>3201.9</ele>
        <time>2021-04-17T19:58:45Z</time>
      </trkpt>
      <trkpt lat="4.8810320" lon="-75.4549600">
        <ele>3201.7</ele>
        <time>2021-04-17T19:58:46Z</time>
      </trkpt>
      <trkpt lat="4.8810810" lon="-75.4549280">
        <ele>3201.5</ele>
        <time>2021-04-17T19:58:47Z</time>
      </trkpt>
      <trkpt lat="4.8811300" lon="-75.4548930">
        <ele>3201.3</ele>
        <time>2021-04-17T19:58:48Z</time>
      </trkpt>
      <trkpt lat="4.8811790" lon="-75.4548610">
        <ele>3201.1</ele>
        <time>2021-04-17T19:58:49Z</time>
      </trkpt>
      <trkpt lat="4.8812290" lon="-75.4548330">
        <ele>3200.9</ele>
        <time>2021-04-17T19:58:50Z</time>
      </trkpt>
      <trkpt lat="4.8812820" lon="-75.4548070">
        <ele>3200.7</ele>
        <time>2021-04-17T19:58:51Z</time>
      </trkpt>
      <trkpt lat="4.8813360" lon="-75.4547840">
        <ele>3200.5</ele>
        <time>2021-04-17T19:58:52Z</time>
      </trkpt>
      <trkpt lat="4.8813900" lon="-75.4547590">
        <ele>3200.3</ele>
        <time>2021-04-17T19:58:53Z</time>
      </trkpt>
      <trkpt lat="4.8814440" lon="-75.4547330">
        <ele>3200.2</ele>
        <time>2021-04-17T19:58:54Z</time>
      </trkpt>
      <trkpt lat="4.8815000" lon="-75.4547040">
        <ele>3199.9</ele>
        <time>2021-04-17T19:58:55Z</time>
      </trkpt>
      <trkpt lat="4.8815570" lon="-75.4546740">
        <ele>3199.7</ele>
        <time>2021-04-17T19:58:56Z</time>
      </trkpt>
      <trkpt lat="4.8816170" lon="-75.4546480">
        <ele>3199.5</ele>
        <time>2021-04-17T19:58:57Z</time>
      </trkpt>
      <trkpt lat="4.8816780" lon="-75.4546280">
        <ele>3199.3</ele>
        <time>2021-04-17T19:58:58Z</time>
      </trkpt>
      <trkpt lat="4.8817410" lon="-75.4546130">
        <ele>3199.1</ele>
        <time>2021-04-17T19:58:59Z</time>
      </trkpt>
      <trkpt lat="4.8818070" lon="-75.4545990">
        <ele>3198.9</ele>
        <time>2021-04-17T19:59:00Z</time>
      </trkpt>
      <trkpt lat="4.8818740" lon="-75.4545860">
        <ele>3198.7</ele>
        <time>2021-04-17T19:59:01Z</time>
      </trkpt>
      <trkpt lat="4.8819440" lon="-75.4545720">
        <ele>3198.4</ele>
        <time>2021-04-17T19:59:02Z</time>
      </trkpt>
      <trkpt lat="4.8820180" lon="-75.4545590">
        <ele>3198.2</ele>
        <time>2021-04-17T19:59:03Z</time>
      </trkpt>
      <trkpt lat="4.8820930" lon="-75.4545450">
        <ele>3197.9</ele>
        <time>2021-04-17T19:59:04Z</time>
      </trkpt>
      <trkpt lat="4.8821660" lon="-75.4545320">
        <ele>3197.7</ele>
        <time>2021-04-17T19:59:05Z</time>
      </trkpt>
      <trkpt lat="4.8822400" lon="-75.4545180">
        <ele>3197.5</ele>
        <time>2021-04-17T19:59:06Z</time>
      </trkpt>
      <trkpt lat="4.8823160" lon="-75.4545040">
        <ele>3197.2</ele>
        <time>2021-04-17T19:59:07Z</time>
      </trkpt>
      <trkpt lat="4.8823910" lon="-75.4544930">
        <ele>3197.0</ele>
        <time>2021-04-17T19:59:08Z</time>
      </trkpt>
      <trkpt lat="4.8824650" lon="-75.4544830">
        <ele>3196.7</ele>
        <time>2021-04-17T19:59:09Z</time>
      </trkpt>
      <trkpt lat="4.8825360" lon="-75.4544800">
        <ele>3196.5</ele>
        <time>2021-04-17T19:59:10Z</time>
      </trkpt>
      <trkpt lat="4.8826060" lon="-75.4544870">
        <ele>3196.2</ele>
        <time>2021-04-17T19:59:11Z</time>
      </trkpt>
      <trkpt lat="4.8826750" lon="-75.4544980">
        <ele>3196.0</ele>
        <time>2021-04-17T19:59:12Z</time>
      </trkpt>
      <trkpt lat="4.8827420" lon="-75.4545120">
        <ele>3195.8</ele>
        <time>2021-04-17T19:59:13Z</time>
      </trkpt>
      <trkpt lat="4.8828080" lon="-75.4545260">
        <ele>3195.6</ele>
        <time>2021-04-17T19:59:14Z</time>
      </trkpt>
      <trkpt lat="4.8828710" lon="-75.4545410">
        <ele>3195.4</ele>
        <time>2021-04-17T19:59:15Z</time>
      </trkpt>
      <trkpt lat="4.8829330" lon="-75.4545540">
        <ele>3195.2</ele>
        <time>2021-04-17T19:59:16Z</time>
      </trkpt>
      <trkpt lat="4.8829920" lon="-75.4545680">
        <ele>3195.0</ele>
        <time>2021-04-17T19:59:17Z</time>
      </trkpt>
      <trkpt lat="4.8830470" lon="-75.4545800">
        <ele>3194.8</ele>
        <time>2021-04-17T19:59:18Z</time>
      </trkpt>
      <trkpt lat="4.8830980" lon="-75.4545880">
        <ele>3194.6</ele>
        <time>2021-04-17T19:59:19Z</time>
      </trkpt>
      <trkpt lat="4.8831440" lon="-75.4546020">
        <ele>3194.5</ele>
        <time>2021-04-17T19:59:20Z</time>
      </trkpt>
      <trkpt lat="4.8831870" lon="-75.4546140">
        <ele>3194.3</ele>
        <time>2021-04-17T19:59:21Z</time>
      </trkpt>
      <trkpt lat="4.8832310" lon="-75.4546190">
        <ele>3194.2</ele>
        <time>2021-04-17T19:59:22Z</time>
      </trkpt>
      <trkpt lat="4.8832720" lon="-75.4546180">
        <ele>3194.0</ele>
        <time>2021-04-17T19:59:23Z</time>
      </trkpt>
      <trkpt lat="4.8833110" lon="-75.4546100">
        <ele>3193.9</ele>
        <time>2021-04-17T19:59:24Z</time>
      </trkpt>
      <trkpt lat="4.8833510" lon="-75.4546020">
        <ele>3193.8</ele>
        <time>2021-04-17T19:59:25Z</time>
      </trkpt>
      <trkpt lat="4.8833920" lon="-75.4545910">
        <ele>3193.6</ele>
        <time>2021-04-17T19:59:26Z</time>
      </trkpt>
      <trkpt lat="4.8834320" lon="-75.4545760">
        <ele>3193.5</ele>
        <time>2021-04-17T19:59:27Z</time>
      </trkpt>
      <trkpt lat="4.8834720" lon="-75.4545560">
        <ele>3193.3</ele>
        <time>2021-04-17T19:59:28Z</time>
      </trkpt>
      <trkpt lat="4.8835120" lon="-75.4545340">
        <ele>3193.2</ele>
        <time>2021-04-17T19:59:29Z</time>
      </trkpt>
      <trkpt lat="4.8835520" lon="-75.4545090">
        <ele>3193.0</ele>
        <time>2021-04-17T19:59:30Z</time>
      </trkpt>
      <trkpt lat="4.8835920" lon="-75.4544800">
        <ele>3192.9</ele>
        <time>2021-04-17T19:59:31Z</time>
      </trkpt>
      <trkpt lat="4.8836290" lon="-75.4544480">
        <ele>3192.7</ele>
        <time>2021-04-17T19:59:32Z</time>
      </trkpt>
      <trkpt lat="4.8836650" lon="-75.4544150">
        <ele>3192.6</ele>
        <time>2021-04-17T19:59:33Z</time>
      </trkpt>
      <trkpt lat="4.8837020" lon="-75.4543850">
        <ele>3192.4</ele>
        <time>2021-04-17T19:59:34Z</time>
      </trkpt>
      <trkpt lat="4.8837380" lon="-75.4543570">
        <ele>3192.3</ele>
        <time>2021-04-17T19:59:35Z</time>
      </trkpt>
      <trkpt lat="4.8837730" lon="-75.4543260">
        <ele>3192.1</ele>
        <time>2021-04-17T19:59:36Z</time>
      </trkpt>
      <trkpt lat="4.8838080" lon="-75.4542980">
        <ele>3192.0</ele>
        <time>2021-04-17T19:59:37Z</time>
      </trkpt>
      <trkpt lat="4.8838430" lon="-75.4542720">
        <ele>3191.8</ele>
        <time>2021-04-17T19:59:38Z</time>
      </trkpt>
      <trkpt lat="4.8838810" lon="-75.4542530">
        <ele>3191.7</ele>
        <time>2021-04-17T19:59:39Z</time>
      </trkpt>
      <trkpt lat="4.8839250" lon="-75.4542410">
        <ele>3191.5</ele>
        <time>2021-04-17T19:59:40Z</time>
      </trkpt>
      <trkpt lat="4.8839740" lon="-75.4542370">
        <ele>3191.4</ele>
        <time>2021-04-17T19:59:41Z</time>
      </trkpt>
      <trkpt lat="4.8840310" lon="-75.4542400">
        <ele>3191.2</ele>
        <time>2021-04-17T19:59:42Z</time>
      </trkpt>
      <trkpt lat="4.8840920" lon="-75.4542490">
        <ele>3191.0</ele>
        <time>2021-04-17T19:59:43Z</time>
      </trkpt>
      <trkpt lat="4.8841560" lon="-75.4542670">
        <ele>3190.8</ele>
        <time>2021-04-17T19:59:44Z</time>
      </trkpt>
      <trkpt lat="4.8842270" lon="-75.4542990">
        <ele>3190.5</ele>
        <time>2021-04-17T19:59:45Z</time>
      </trkpt>
      <trkpt lat="4.8843010" lon="-75.4543310">
        <ele>3190.3</ele>
        <time>2021-04-17T19:59:46Z</time>
      </trkpt>
      <trkpt lat="4.8843750" lon="-75.4543670">
        <ele>3190.0</ele>
        <time>2021-04-17T19:59:47Z</time>
      </trkpt>
      <trkpt lat="4.8844470" lon="-75.4544090">
        <ele>3189.7</ele>
        <time>2021-04-17T19:59:48Z</time>
      </trkpt>
      <trkpt lat="4.8845180" lon="-75.4544600">
        <ele>3189.4</ele>
        <time>2021-04-17T19:59:49Z</time>
      </trkpt>
      <trkpt lat="4.8845950" lon="-75.4545130">
        <ele>3189.1</ele>
        <time>2021-04-17T19:59:50Z</time>
      </trkpt>
      <trkpt lat="4.8846740" lon="-75.4545700">
        <ele>3188.8</ele>
        <time>2021-04-17T19:59:51Z</time>
      </trkpt>
      <trkpt lat="4.8847550" lon="-75.4546280">
        <ele>3188.5</ele>
        <time>2021-04-17T19:59:52Z</time>
      </trkpt>
      <trkpt lat="4.8848370" lon="-75.4546880">
        <ele>3188.2</ele>
        <time>2021-04-17T19:59:53Z</time>
      </trkpt>
      <trkpt lat="4.8849220" lon="-75.4547520">
        <ele>3187.8</ele>
        <time>2021-04-17T19:59:54Z</time>
      </trkpt>
      <trkpt lat="4.8850050" lon="-75.4548190">
        <ele>3187.5</ele>
        <time>2021-04-17T19:59:55Z</time>
      </trkpt>
      <trkpt lat="4.8850840" lon="-75.4548900">
        <ele>3187.1</ele>
        <time>2021-04-17T19:59:56Z</time>
      </trkpt>
      <trkpt lat="4.8851660" lon="-75.4549660">
        <ele>3186.8</ele>
        <time>2021-04-17T19:59:57Z</time>
      </trkpt>
      <trkpt lat="4.8852540" lon="-75.4550420">
        <ele>3186.4</ele>
        <time>2021-04-17T19:59:58Z</time>
      </trkpt>
      <trkpt lat="4.8853440" lon="-75.4551140">
        <ele>3186.0</ele>
        <time>2021-04-17T19:59:59Z</time>
      </trkpt>
      <trkpt lat="4.8854380" lon="-75.4551830">
        <ele>3185.6</ele>
        <time>2021-04-17T20:00:00Z</time>
      </trkpt>
      <trkpt lat="4.8855330" lon="-75.4552500">
        <ele>3185.2</ele>
        <time>2021-04-17T20:00:01Z</time>
      </trkpt>
      <trkpt lat="4.8856300" lon="-75.4553170">
        <ele>3184.9</ele>
        <time>2021-04-17T20:00:02Z</time>
      </trkpt>
      <trkpt lat="4.8857310" lon="-75.4553820">
        <ele>3184.5</ele>
        <time>2021-04-17T20:00:03Z</time>
      </trkpt>
      <trkpt lat="4.8858350" lon="-75.4554470">
        <ele>3184.1</ele>
        <time>2021-04-17T20:00:04Z</time>
      </trkpt>
      <trkpt lat="4.8859380" lon="-75.4555180">
        <ele>3183.7</ele>
        <time>2021-04-17T20:00:05Z</time>
      </trkpt>
      <trkpt lat="4.8860400" lon="-75.4555930">
        <ele>3183.3</ele>
        <time>2021-04-17T20:00:06Z</time>
      </trkpt>
      <trkpt lat="4.8861410" lon="-75.4556660">
        <ele>3182.9</ele>
        <time>2021-04-17T20:00:07Z</time>
      </trkpt>
      <trkpt lat="4.8862440" lon="-75.4557360">
        <ele>3182.4</ele>
        <time>2021-04-17T20:00:08Z</time>
      </trkpt>
      <trkpt lat="4.8863450" lon="-75.4558060">
        <ele>3182.0</ele>
        <time>2021-04-17T20:00:09Z</time>
      </trkpt>
      <trkpt lat="4.8864480" lon="-75.4558720">
        <ele>3181.7</ele>
        <time>2021-04-17T20:00:10Z</time>
      </trkpt>
      <trkpt lat="4.8865470" lon="-75.4559380">
        <ele>3181.3</ele>
        <time>2021-04-17T20:00:11Z</time>
      </trkpt>
      <trkpt lat="4.8866330" lon="-75.4560030">
        <ele>3180.9</ele>
        <time>2021-04-17T20:00:12Z</time>
      </trkpt>
      <trkpt lat="4.8867100" lon="-75.4560720">
        <ele>3180.6</ele>
        <time>2021-04-17T20:00:13Z</time>
      </trkpt>
      <trkpt lat="4.8867810" lon="-75.4561460">
        <ele>3180.2</ele>
        <time>2021-04-17T20:00:14Z</time>
      </trkpt>
      <trkpt lat="4.8868410" lon="-75.4562260">
        <ele>3179.9</ele>
        <time>2021-04-17T20:00:15Z</time>
      </trkpt>
      <trkpt lat="4.8868900" lon="-75.4563080">
        <ele>3179.6</ele>
        <time>2021-04-17T20:00:16Z</time>
      </trkpt>
      <trkpt lat="4.8869310" lon="-75.4563950">
        <ele>3179.3</ele>
        <time>2021-04-17T20:00:17Z</time>
      </trkpt>
      <trkpt lat="4.8869630" lon="-75.4564840">
        <ele>3179.0</ele>
        <time>2021-04-17T20:00:18Z</time>
      </trkpt>
      <trkpt lat="4.8869910" lon="-75.4565750">
        <ele>3178.7</ele>
        <time>2021-04-17T20:00:19Z</time>
      </trkpt>
      <trkpt lat="4.8870250" lon="-75.4566640">
        <ele>3178.4</ele>
        <time>2021-04-17T20:00:20Z</time>
      </trkpt>
      <trkpt lat="4.8870770" lon="-75.4567460">
        <ele>3178.1</ele>
        <time>2021-04-17T20:00:21Z</time>
      </trkpt>
      <trkpt lat="4.8871450" lon="-75.4568230">
        <ele>3176.3</ele>
        <time>2021-04-17T20:00:22Z</time>
      </trkpt>
      <trkpt lat="4.8872230" lon="-75.4569020">
        <ele>3174.6</ele>
        <time>2021-04-17T20:00:23Z</time>
      </trkpt>
      <trkpt lat="4.8873010" lon="-75.4569900">
        <ele>3173.2</ele>
        <time>2021-04-17T20:00:24Z</time>
      </trkpt>
      <trkpt lat="4.8873780" lon="-75.4570860">
        <ele>3171.9</ele>
        <time>2021-04-17T20:00:25Z</time>
      </trkpt>
      <trkpt lat="4.8874570" lon="-75.4571830">
        <ele>3170.8</ele>
        <time>2021-04-17T20:00:26Z</time>
      </trkpt>
      <trkpt lat="4.8875370" lon="-75.4572760">
        <ele>3169.9</ele>
        <time>2021-04-17T20:00:27Z</time>
      </trkpt>
      <trkpt lat="4.8876130" lon="-75.4573680">
        <ele>3168.9</ele>
        <time>2021-04-17T20:00:28Z</time>
      </trkpt>
      <trkpt lat="4.8876790" lon="-75.4574600">
        <ele>3167.8</ele>
        <time>2021-04-17T20:00:29Z</time>
      </trkpt>
      <trkpt lat="4.8877360" lon="-75.4575560">
        <ele>3166.7</ele>
        <time>2021-04-17T20:00:30Z</time>
      </trkpt>
      <trkpt lat="4.8877890" lon="-75.4576570">
        <ele>3165.5</ele>
        <time>2021-04-17T20:00:31Z</time>
      </trkpt>
      <trkpt lat="4.8878430" lon="-75.4577590">
        <ele>3164.0</ele>
        <time>2021-04-17T20:00:32Z</time>
      </trkpt>
      <trkpt lat="4.8879010" lon="-75.4578610">
        <ele>3162.2</ele>
        <time>2021-04-17T20:00:33Z</time>
      </trkpt>
      <trkpt lat="4.8879660" lon="-75.4579600">
        <ele>3160.4</ele>
        <time>2021-04-17T20:00:34Z</time>
      </trkpt>
      <trkpt lat="4.8880400" lon="-75.4580600">
        <ele>3158.9</ele>
        <time>2021-04-17T20:00:35Z</time>
      </trkpt>
      <trkpt lat="4.8881180" lon="-75.4581500">
        <ele>3157.7</ele>
        <time>2021-04-17T20:00:36Z</time>
      </trkpt>
      <trkpt lat="4.8882100" lon="-75.4582280">
        <ele>3156.7</ele>
        <time>2021-04-17T20:00:37Z</time>
      </trkpt>
      <trkpt lat="4.8883070" lon="-75.4582970">
        <ele>3155.8</ele>
        <time>2021-04-17T20:00:38Z</time>
      </trkpt>
      <trkpt lat="4.8883970" lon="-75.4583600">
        <ele>3154.9</ele>
        <time>2021-04-17T20:00:39Z</time>
      </trkpt>
      <trkpt lat="4.8884770" lon="-75.4584200">
        <ele>3154.0</ele>
        <time>2021-04-17T20:00:40Z</time>
      </trkpt>
      <trkpt lat="4.8885370" lon="-75.4584740">
        <ele>3153.2</ele>
        <time>2021-04-17T20:00:41Z</time>
      </trkpt>
      <trkpt lat="4.8885910" lon="-75.4585320">
        <ele>3152.5</ele>
        <time>2021-04-17T20:00:42Z</time>
      </trkpt>
      <trkpt lat="4.8886490" lon="-75.4585940">
        <ele>3151.8</ele>
        <time>2021-04-17T20:00:43Z</time>
      </trkpt>
      <trkpt lat="4.8887150" lon="-75.4586590">
        <ele>3151.2</ele>
        <time>2021-04-17T20:00:44Z</time>
      </trkpt>
      <trkpt lat="4.8887920" lon="-75.4587200">
        <ele>3150.5</ele>
        <time>2021-04-17T20:00:45Z</time>
      </trkpt>
      <trkpt lat="4.8888780" lon="-75.4587800">
        <ele>3149.8</ele>
        <time>2021-04-17T20:00:46Z</time>
      </trkpt>
      <trkpt lat="4.8889720" lon="-75.4588300">
        <ele>3149.1</ele>
        <time>2021-04-17T20:00:47Z</time>
      </trkpt>
      <trkpt lat="4.8890700" lon="-75.4588720">
        <ele>3148.5</ele>
        <time>2021-04-17T20:00:48Z</time>
      </trkpt>
      <trkpt lat="4.8891680" lon="-75.4589090">
        <ele>3147.7</ele>
        <time>2021-04-17T20:00:49Z</time>
      </trkpt>
      <trkpt lat="4.8892650" lon="-75.4589420">
        <ele>3146.8</ele>
        <time>2021-04-17T20:00:50Z</time>
      </trkpt>
      <trkpt lat="4.8893620" lon="-75.4589660">
        <ele>3145.9</ele>
        <time>2021-04-17T20:00:51Z</time>
      </trkpt>
      <trkpt lat="4.8894630" lon="-75.4589680">
        <ele>3144.7</ele>
        <time>2021-04-17T20:00:52Z</time>
      </trkpt>
      <trkpt lat="4.8895630" lon="-75.4589410">
        <ele>3143.2</ele>
        <time>2021-04-17T20:00:53Z</time>
      </trkpt>
      <trkpt lat="4.8896570" lon="-75.4588970">
        <ele>3141.7</ele>
        <time>2021-04-17T20:00:54Z</time>
      </trkpt>
      <trkpt lat="4.8897480" lon="-75.4588440">
        <ele>3140.5</ele>
        <time>2021-04-17T20:00:55Z</time>
      </trkpt>
      <trkpt lat="4.8898400" lon="-75.4587860">
        <ele>3139.4</ele>
        <time>2021-04-17T20:00:56Z</time>
      </trkpt>
      <trkpt lat="4.8899340" lon="-75.4587280">
        <ele>3138.4</ele>
        <time>2021-04-17T20:00:57Z</time>
      </trkpt>
      <trkpt lat="4.8900290" lon="-75.4586740">
        <ele>3137.6</ele>
        <time>2021-04-17T20:00:58Z</time>
      </trkpt>
      <trkpt lat="4.8901240" lon="-75.4586340">
        <ele>3136.8</ele>
        <time>2021-04-17T20:00:59Z</time>
      </trkpt>
      <trkpt lat="4.8902240" lon="-75.4586110">
        <ele>3135.9</ele>
        <time>2021-04-17T20:01:00Z</time>
      </trkpt>
      <trkpt lat="4.8903300" lon="-75.4586010">
        <ele>3135.1</ele>
        <time>2021-04-17T20:01:01Z</time>
      </trkpt>
      <trkpt lat="4.8904400" lon="-75.4585920">
        <ele>3134.4</ele>
        <time>2021-04-17T20:01:02Z</time>
      </trkpt>
      <trkpt lat="4.8905520" lon="-75.4585850">
        <ele>3133.7</ele>
        <time>2021-04-17T20:01:03Z</time>
      </trkpt>
      <trkpt lat="4.8906630" lon="-75.4585780">
        <ele>3133.2</ele>
        <time>2021-04-17T20:01:04Z</time>
      </trkpt>
      <trkpt lat="4.8907690" lon="-75.4585770">
        <ele>3132.8</ele>
        <time>2021-04-17T20:01:05Z</time>
      </trkpt>
      <trkpt lat="4.8908540" lon="-75.4585800">
        <ele>3132.3</ele>
        <time>2021-04-17T20:01:06Z</time>
      </trkpt>
      <trkpt lat="4.8909120" lon="-75.4586020">
        <ele>3131.8</ele>
        <time>2021-04-17T20:01:07Z</time>
      </trkpt>
      <trkpt lat="4.8909410" lon="-75.4586410">
        <ele>3131.3</ele>
        <time>2021-04-17T20:01:08Z</time>
      </trkpt>
      <trkpt lat="4.8909440" lon="-75.4586860">
        <ele>3130.7</ele>
        <time>2021-04-17T20:01:09Z</time>
      </trkpt>
      <trkpt lat="4.8909120" lon="-75.4587370">
        <ele>3129.9</ele>
        <time>2021-04-17T20:01:10Z</time>
      </trkpt>
      <trkpt lat="4.8908620" lon="-75.4587850">
        <ele>3129.1</ele>
        <time>2021-04-17T20:01:11Z</time>
      </trkpt>
      <trkpt lat="4.8908040" lon="-75.4588320">
        <ele>3128.3</ele>
        <time>2021-04-17T20:01:12Z</time>
      </trkpt>
      <trkpt lat="4.8907450" lon="-75.4588830">
        <ele>3127.6</ele>
        <time>2021-04-17T20:01:13Z</time>
      </trkpt>
      <trkpt lat="4.8906890" lon="-75.4589400">
        <ele>3126.7</ele>
        <time>2021-04-17T20:01:14Z</time>
      </trkpt>
      <trkpt lat="4.8906330" lon="-75.4590000">
        <ele>3125.7</ele>
        <time>2021-04-17T20:01:15Z</time>
      </trkpt>
      <trkpt lat="4.8905720" lon="-75.4590550">
        <ele>3124.8</ele>
        <time>2021-04-17T20:01:16Z</time>
      </trkpt>
      <trkpt lat="4.8905070" lon="-75.4591070">
        <ele>3124.1</ele>
        <time>2021-04-17T20:01:17Z</time>
      </trkpt>
      <trkpt lat="4.8904450" lon="-75.4591670">
        <ele>3123.5</ele>
        <time>2021-04-17T20:01:18Z</time>
      </trkpt>
      <trkpt lat="4.8903840" lon="-75.4592310">
        <ele>3123.0</ele>
        <time>2021-04-17T20:01:19Z</time>
      </trkpt>
      <trkpt lat="4.8903150" lon="-75.4592930">
        <ele>3122.4</ele>
        <time>2021-04-17T20:01:20Z</time>
      </trkpt>
      <trkpt lat="4.8902410" lon="-75.4593510">
        <ele>3121.8</ele>
        <time>2021-04-17T20:01:21Z</time>
      </trkpt>
      <trkpt lat="4.8901690" lon="-75.4594080">
        <ele>3121.3</ele>
        <time>2021-04-17T20:01:22Z</time>
      </trkpt>
      <trkpt lat="4.8901130" lon="-75.4594700">
        <ele>3120.7</ele>
        <time>2021-04-17T20:01:23Z</time>
      </trkpt>
      <trkpt lat="4.8900680" lon="-75.4595350">
        <ele>3120.1</ele>
        <time>2021-04-17T20:01:24Z</time>
      </trkpt>
      <trkpt lat="4.8900300" lon="-75.4596050">
        <ele>3119.3</ele>
        <time>2021-04-17T20:01:25Z</time>
      </trkpt>
      <trkpt lat="4.8900040" lon="-75.4596880">
        <ele>3118.3</ele>
        <time>2021-04-17T20:01:26Z</time>
      </trkpt>
      <trkpt lat="4.8899780" lon="-75.4597780">
        <ele>3117.3</ele>
        <time>2021-04-17T20:01:27Z</time>
      </trkpt>
      <trkpt lat="4.8899510" lon="-75.4598720">
        <ele>3116.3</ele>
        <time>2021-04-17T20:01:28Z</time>
      </trkpt>
      <trkpt lat="4.8899280" lon="-75.4599650">
        <ele>3115.5</ele>
        <time>2021-04-17T20:01:29Z</time>
      </trkpt>
      <trkpt lat="4.8899060" lon="-75.4600590">
        <ele>3114.7</ele>
        <time>2021-04-17T20:01:30Z</time>
      </trkpt>
      <trkpt lat="4.8898820" lon="-75.4601530">
        <ele>3114.1</ele>
        <time>2021-04-17T20:01:31Z</time>
      </trkpt>
      <trkpt lat="4.8898530" lon="-75.4602450">
        <ele>3113.5</ele>
        <time>2021-04-17T20:01:32Z</time>
      </trkpt>
      <trkpt lat="4.8898160" lon="-75.4603330">
        <ele>3112.9</ele>
        <time>2021-04-17T20:01:33Z</time>
      </trkpt>
      <trkpt lat="4.8897660" lon="-75.4604140">
        <ele>3112.3</ele>
        <time>2021-04-17T20:01:34Z</time>
      </trkpt>
      <trkpt lat="4.8897100" lon="-75.4604920">
        <ele>3111.6</ele>
        <time>2021-04-17T20:01:35Z</time>
      </trkpt>
      <trkpt lat="4.8896540" lon="-75.4605690">
        <ele>3110.9</ele>
        <time>2021-04-17T20:01:36Z</time>
      </trkpt>
      <trkpt lat="4.8896000" lon="-75.4606420">
        <ele>3110.2</ele>
        <time>2021-04-17T20:01:37Z</time>
      </trkpt>
      <trkpt lat="4.8895510" lon="-75.4607140">
        <ele>3109.6</ele>
        <time>2021-04-17T20:01:38Z</time>
      </trkpt>
      <trkpt lat="4.8895120" lon="-75.4607910">
        <ele>3109.1</ele>
        <time>2021-04-17T20:01:39Z</time>
      </trkpt>
      <trkpt lat="4.8894770" lon="-75.4608720">
        <ele>3108.5</ele>
        <time>2021-04-17T20:01:40Z</time>
      </trkpt>
      <trkpt lat="4.8894570" lon="-75.4609550">
        <ele>3108.1</ele>
        <time>2021-04-17T20:01:41Z</time>
      </trkpt>
      <trkpt lat="4.8894490" lon="-75.4610440">
        <ele>3107.6</ele>
        <time>2021-04-17T20:01:42Z</time>
      </trkpt>
      <trkpt lat="4.8894490" lon="-75.4611360">
        <ele>3107.1</ele>
        <time>2021-04-17T20:01:43Z</time>
      </trkpt>
      <trkpt lat="4.8894430" lon="-75.4612220">
        <ele>3106.7</ele>
        <time>2021-04-17T20:01:44Z</time>
      </trkpt>
      <trkpt lat="4.8894240" lon="-75.4613060">
        <ele>3106.2</ele>
        <time>2021-04-17T20:01:45Z</time>
      </trkpt>
      <trkpt lat="4.8893950" lon="-75.4613840">
        <ele>3105.7</ele>
        <time>2021-04-17T20:01:46Z</time>
      </trkpt>
      <trkpt lat="4.8893540" lon="-75.4614540">
        <ele>3105.1</ele>
        <time>2021-04-17T20:01:47Z</time>
      </trkpt>
      <trkpt lat="4.8893050" lon="-75.4615180">
        <ele>3104.5</ele>
        <time>2021-04-17T20:01:48Z</time>
      </trkpt>
      <trkpt lat="4.8892450" lon="-75.4615700">
        <ele>3103.8</ele>
        <time>2021-04-17T20:01:49Z</time>
      </trkpt>
      <trkpt lat="4.8891810" lon="-75.4616250">
        <ele>3103.0</ele>
        <time>2021-04-17T20:01:50Z</time>
      </trkpt>
      <trkpt lat="4.8891090" lon="-75.4616740">
        <ele>3102.0</ele>
        <time>2021-04-17T20:01:51Z</time>
      </trkpt>
      <trkpt lat="4.8890270" lon="-75.4617180">
        <ele>3101.1</ele>
        <time>2021-04-17T20:01:52Z</time>
      </trkpt>
      <trkpt lat="4.8889530" lon="-75.4617740">
        <ele>3100.2</ele>
        <time>2021-04-17T20:01:53Z</time>
      </trkpt>
      <trkpt lat="4.8888850" lon="-75.4618270">
        <ele>3099.5</ele>
        <time>2021-04-17T20:01:54Z</time>
      </trkpt>
      <trkpt lat="4.8888210" lon="-75.4618740">
        <ele>3098.8</ele>
        <time>2021-04-17T20:01:55Z</time>
      </trkpt>
      <trkpt lat="4.8887590" lon="-75.4619180">
        <ele>3098.2</ele>
        <time>2021-04-17T20:01:56Z</time>
      </trkpt>
      <trkpt lat="4.8886860" lon="-75.4619540">
        <ele>3097.5</ele>
        <time>2021-04-17T20:01:57Z</time>
      </trkpt>
      <trkpt lat="4.8886040" lon="-75.4619820">
        <ele>3096.7</ele>
        <time>2021-04-17T20:01:58Z</time>
      </trkpt>
      <trkpt lat="4.8885200" lon="-75.4620060">
        <ele>3095.9</ele>
        <time>2021-04-17T20:01:59Z</time>
      </trkpt>
      <trkpt lat="4.8884320" lon="-75.4620320">
        <ele>3095.1</ele>
        <time>2021-04-17T20:02:00Z</time>
      </trkpt>
      <trkpt lat="4.8883480" lon="-75.4620680">
        <ele>3094.3</ele>
        <time>2021-04-17T20:02:01Z</time>
      </trkpt>
      <trkpt lat="4.8882660" lon="-75.4621080">
        <ele>3093.5</ele>
        <time>2021-04-17T20:02:02Z</time>
      </trkpt>
      <trkpt lat="4.8881890" lon="-75.4621540">
        <ele>3092.8</ele>
        <time>2021-04-17T20:02:03Z</time>
      </trkpt>
      <trkpt lat="4.8881210" lon="-75.4622110">
        <ele>3092.0</ele>
        <time>2021-04-17T20:02:04Z</time>
      </trkpt>
      <trkpt lat="4.8880640" lon="-75.4622760">
        <ele>3091.2</ele>
        <time>2021-04-17T20:02:05Z</time>
      </trkpt>
      <trkpt lat="4.8880150" lon="-75.4623440">
        <ele>3090.5</ele>
        <time>2021-04-17T20:02:06Z</time>
      </trkpt>
      <trkpt lat="4.8879750" lon="-75.4624190">
        <ele>3089.8</ele>
        <time>2021-04-17T20:02:07Z</time>
      </trkpt>
      <trkpt lat="4.8879540" lon="-75.4625010">
        <ele>3089.0</ele>
        <time>2021-04-17T20:02:08Z</time>
      </trkpt>
      <trkpt lat="4.8879570" lon="-75.4625870">
        <ele>3088.3</ele>
        <time>2021-04-17T20:02:09Z</time>
      </trkpt>
      <trkpt lat="4.8879800" lon="-75.4626730">
        <ele>3087.5</ele>
        <time>2021-04-17T20:02:10Z</time>
      </trkpt>
      <trkpt lat="4.8880050" lon="-75.4627580">
        <ele>3086.7</ele>
        <time>2021-04-17T20:02:11Z</time>
      </trkpt>
      <trkpt lat="4.8880110" lon="-75.4628420">
        <ele>3086.0</ele>
        <time>2021-04-17T20:02:12Z</time>
      </trkpt>
      <trkpt lat="4.8880040" lon="-75.4629300">
        <ele>3085.2</ele>
        <time>2021-04-17T20:02:13Z</time>
      </trkpt>
      <trkpt lat="4.8879900" lon="-75.4630190">
        <ele>3084.4</ele>
        <time>2021-04-17T20:02:14Z</time>
      </trkpt>
      <trkpt lat="4.8879690" lon="-75.4631160">
        <ele>3083.6</ele>
        <time>2021-04-17T20:02:15Z</time>
      </trkpt>
      <trkpt lat="4.8879410" lon="-75.4632120">
        <ele>3082.7</ele>
        <time>2021-04-17T20:02:16Z</time>
      </trkpt>
      <trkpt lat="4.8879100" lon="-75.4633120">
        <ele>3081.8</ele>
        <time>2021-04-17T20:02:17Z</time>
      </trkpt>
      <trkpt lat="4.8878840" lon="-75.4634100">
        <ele>3080.9</ele>
        <time>2021-04-17T20:02:18Z</time>
      </trkpt>
      <trkpt lat="4.8878570" lon="-75.4635010">
        <ele>3080.1</ele>
        <time>2021-04-17T20:02:19Z</time>
      </trkpt>
      <trkpt lat="4.8878240" lon="-75.4635860">
        <ele>3079.3</ele>
        <time>2021-04-17T20:02:20Z</time>
      </trkpt>
      <trkpt lat="4.8877930" lon="-75.4636730">
        <ele>3078.5</ele>
        <time>2021-04-17T20:02:21Z</time>
      </trkpt>
      <trkpt lat="4.8877720" lon="-75.4637670">
        <ele>3077.6</ele>
        <time>2021-04-17T20:02:22Z</time>
      </trkpt>
      <trkpt lat="4.8877660" lon="-75.4638650">
        <ele>3076.8</ele>
        <time>2021-04-17T20:02:23Z</time>
      </trkpt>
      <trkpt lat="4.8877680" lon="-75.4639720">
        <ele>3075.8</ele>
        <time>2021-04-17T20:02:24Z</time>
      </trkpt>
      <trkpt lat="4.8877740" lon="-75.4640770">
        <ele>3074.9</ele>
        <time>2021-04-17T20:02:25Z</time>
      </trkpt>
      <trkpt lat="4.8877760" lon="-75.4641800">
        <ele>3074.0</ele>
        <time>2021-04-17T20:02:26Z</time>
      </trkpt>
      <trkpt lat="4.8877700" lon="-75.4642780">
        <ele>3073.2</ele>
        <time>2021-04-17T20:02:27Z</time>
      </trkpt>
      <trkpt lat="4.8877450" lon="-75.4643720">
        <ele>3072.3</ele>
        <time>2021-04-17T20:02:28Z</time>
      </trkpt>
      <trkpt lat="4.8877120" lon="-75.4644500">
        <ele>3071.6</ele>
        <time>2021-04-17T20:02:29Z</time>
      </trkpt>
      <trkpt lat="4.8876810" lon="-75.4645270">
        <ele>3070.9</ele>
        <time>2021-04-17T20:02:30Z</time>
      </trkpt>
      <trkpt lat="4.8876620" lon="-75.4646050">
        <ele>3070.2</ele>
        <time>2021-04-17T20:02:31Z</time>
      </trkpt>
      <trkpt lat="4.8876630" lon="-75.4646900">
        <ele>3069.4</ele>
        <time>2021-04-17T20:02:32Z</time>
      </trkpt>
      <trkpt lat="4.8876760" lon="-75.4647720">
        <ele>3068.7</ele>
        <time>2021-04-17T20:02:33Z</time>
      </trkpt>
      <trkpt lat="4.8876860" lon="-75.4648570">
        <ele>3068.0</ele>
        <time>2021-04-17T20:02:34Z</time>
      </trkpt>
      <trkpt lat="4.8876840" lon="-75.4649420">
        <ele>3067.2</ele>
        <time>2021-04-17T20:02:35Z</time>
      </trkpt>
      <trkpt lat="4.8876740" lon="-75.4650240">
        <ele>3066.5</ele>
        <time>2021-04-17T20:02:36Z</time>
      </trkpt>
      <trkpt lat="4.8876530" lon="-75.4650980">
        <ele>3065.8</ele>
        <time>2021-04-17T20:02:37Z</time>
      </trkpt>
      <trkpt lat="4.8876270" lon="-75.4651660">
        <ele>3065.2</ele>
        <time>2021-04-17T20:02:38Z</time>
      </trkpt>
      <trkpt lat="4.8876060" lon="-75.4652310">
        <ele>3064.6</ele>
        <time>2021-04-17T20:02:39Z</time>
      </trkpt>
      <trkpt lat="4.8875900" lon="-75.4652940">
        <ele>3064.0</ele>
        <time>2021-04-17T20:02:40Z</time>
      </trkpt>
      <trkpt lat="4.8875860" lon="-75.4653530">
        <ele>3063.5</ele>
        <time>2021-04-17T20:02:41Z</time>
      </trkpt>
      <trkpt lat="4.8875990" lon="-75.4654060">
        <ele>3063.0</ele>
        <time>2021-04-17T20:02:42Z</time>
      </trkpt>
      <trkpt lat="4.8876340" lon="-75.4654410">
        <ele>3062.6</ele>
        <time>2021-04-17T20:02:43Z</time>
      </trkpt>
      <trkpt lat="4.8876840" lon="-75.4654680">
        <ele>3062.1</ele>
        <time>2021-04-17T20:02:44Z</time>
      </trkpt>
      <trkpt lat="4.8877410" lon="-75.4654900">
        <ele>3061.6</ele>
        <time>2021-04-17T20:02:45Z</time>
      </trkpt>
      <trkpt lat="4.8878060" lon="-75.4655140">
        <ele>3061.0</ele>
        <time>2021-04-17T20:02:46Z</time>
      </trkpt>
      <trkpt lat="4.8878710" lon="-75.4655430">
        <ele>3060.4</ele>
        <time>2021-04-17T20:02:47Z</time>
      </trkpt>
      <trkpt lat="4.8879320" lon="-75.4655840">
        <ele>3059.7</ele>
        <time>2021-04-17T20:02:48Z</time>
      </trkpt>
      <trkpt lat="4.8879860" lon="-75.4656370">
        <ele>3059.1</ele>
        <time>2021-04-17T20:02:49Z</time>
      </trkpt>
      <trkpt lat="4.8880380" lon="-75.4656960">
        <ele>3058.4</ele>
        <time>2021-04-17T20:02:50Z</time>
      </trkpt>
      <trkpt lat="4.8880890" lon="-75.4657580">
        <ele>3057.7</ele>
        <time>2021-04-17T20:02:51Z</time>
      </trkpt>
      <trkpt lat="4.8881380" lon="-75.4658210">
        <ele>3057.0</ele>
        <time>2021-04-17T20:02:52Z</time>
      </trkpt>
      <trkpt lat="4.8881850" lon="-75.4658880">
        <ele>3056.3</ele>
        <time>2021-04-17T20:02:53Z</time>
      </trkpt>
      <trkpt lat="4.8882270" lon="-75.4659620">
        <ele>3055.5</ele>
        <time>2021-04-17T20:02:54Z</time>
      </trkpt>
      <trkpt lat="4.8882570" lon="-75.4660400">
        <ele>3054.8</ele>
        <time>2021-04-17T20:02:55Z</time>
      </trkpt>
      <trkpt lat="4.8882670" lon="-75.4661200">
        <ele>3054.1</ele>
        <time>2021-04-17T20:02:56Z</time>
      </trkpt>
      <trkpt lat="4.8882580" lon="-75.4662000">
        <ele>3053.4</ele>
        <time>2021-04-17T20:02:57Z</time>
      </trkpt>
      <trkpt lat="4.8882360" lon="-75.4662760">
        <ele>3052.7</ele>
        <time>2021-04-17T20:02:58Z</time>
      </trkpt>
      <trkpt lat="4.8882030" lon="-75.4663550">
        <ele>3051.9</ele>
        <time>2021-04-17T20:02:59Z</time>
      </trkpt>
      <trkpt lat="4.8881680" lon="-75.4664370">
        <ele>3051.2</ele>
        <time>2021-04-17T20:03:00Z</time>
      </trkpt>
      <trkpt lat="4.8881300" lon="-75.4665230">
        <ele>3050.4</ele>
        <time>2021-04-17T20:03:01Z</time>
      </trkpt>
      <trkpt lat="4.8880860" lon="-75.4666100">
        <ele>3049.5</ele>
        <time>2021-04-17T20:03:02Z</time>
      </trkpt>
      <trkpt lat="4.8880370" lon="-75.4666960">
        <ele>3048.6</ele>
        <time>2021-04-17T20:03:03Z</time>
      </trkpt>
      <trkpt lat="4.8879780" lon="-75.4667750">
        <ele>3047.8</ele>
        <time>2021-04-17T20:03:04Z</time>
      </trkpt>
      <trkpt lat="4.8879100" lon="-75.4668450">
        <ele>3046.9</ele>
        <time>2021-04-17T20:03:05Z</time>
      </trkpt>
      <trkpt lat="4.8878400" lon="-75.4669090">
        <ele>3046.1</ele>
        <time>2021-04-17T20:03:06Z</time>
      </trkpt>
      <trkpt lat="4.8877770" lon="-75.4669670">
        <ele>3045.4</ele>
        <time>2021-04-17T20:03:07Z</time>
      </trkpt>
      <trkpt lat="4.8877300" lon="-75.4670260">
        <ele>3044.7</ele>
        <time>2021-04-17T20:03:08Z</time>
      </trkpt>
      <trkpt lat="4.8877130" lon="-75.4670890">
        <ele>3044.1</ele>
        <time>2021-04-17T20:03:09Z</time>
      </trkpt>
      <trkpt lat="4.8877320" lon="-75.4671510">
        <ele>3043.6</ele>
        <time>2021-04-17T20:03:10Z</time>
      </trkpt>
      <trkpt lat="4.8877730" lon="-75.4672150">
        <ele>3042.9</ele>
        <time>2021-04-17T20:03:11Z</time>
      </trkpt>
      <trkpt lat="4.8878090" lon="-75.4672830">
        <ele>3042.2</ele>
        <time>2021-04-17T20:03:12Z</time>
      </trkpt>
      <trkpt lat="4.8878250" lon="-75.4673580">
        <ele>3041.6</ele>
        <time>2021-04-17T20:03:13Z</time>
      </trkpt>
      <trkpt lat="4.8878200" lon="-75.4674290">
        <ele>3040.9</ele>
        <time>2021-04-17T20:03:14Z</time>
      </trkpt>
      <trkpt lat="4.8877970" lon="-75.4675040">
        <ele>3040.3</ele>
        <time>2021-04-17T20:03:15Z</time>
      </trkpt>
      <trkpt lat="4.8877750" lon="-75.4675820">
        <ele>3039.5</ele>
        <time>2021-04-17T20:03:16Z</time>
      </trkpt>
      <trkpt lat="4.8877530" lon="-75.4676650">
        <ele>3038.8</ele>
        <time>2021-04-17T20:03:17Z</time>
      </trkpt>
      <trkpt lat="4.8877390" lon="-75.4677520">
        <ele>3038.0</ele>
        <time>2021-04-17T20:03:18Z</time>
      </trkpt>
      <trkpt lat="4.8877350" lon="-75.4678390">
        <ele>3037.3</ele>
        <time>2021-04-17T20:03:19Z</time>
      </trkpt>
      <trkpt lat="4.8877570" lon="-75.4679180">
        <ele>3036.6</ele>
        <time>2021-04-17T20:03:20Z</time>
      </trkpt>
      <trkpt lat="4.8878040" lon="-75.4679860">
        <ele>3035.8</ele>
        <time>2021-04-17T20:03:21Z</time>
      </trkpt>
      <trkpt lat="4.8878690" lon="-75.4680440">
        <ele>3035.1</ele>
        <time>2021-04-17T20:03:22Z</time>
      </trkpt>
      <trkpt lat="4.8879370" lon="-75.4681010">
        <ele>3034.3</ele>
        <time>2021-04-17T20:03:23Z</time>
      </trkpt>
      <trkpt lat="4.8879950" lon="-75.4681710">
        <ele>3033.5</ele>
        <time>2021-04-17T20:03:24Z</time>
      </trkpt>
      <trkpt lat="4.8880380" lon="-75.4682530">
        <ele>3032.7</ele>
        <time>2021-04-17T20:03:25Z</time>
      </trkpt>
      <trkpt lat="4.8880760" lon="-75.4683380">
        <ele>3031.9</ele>
        <time>2021-04-17T20:03:26Z</time>
      </trkpt>
      <trkpt lat="4.8881150" lon="-75.4684230">
        <ele>3031.1</ele>
        <time>2021-04-17T20:03:27Z</time>
      </trkpt>
      <trkpt lat="4.8881520" lon="-75.4685110">
        <ele>3030.4</ele>
        <time>2021-04-17T20:03:28Z</time>
      </trkpt>
      <trkpt lat="4.8881800" lon="-75.4686020">
        <ele>3029.8</ele>
        <time>2021-04-17T20:03:29Z</time>
      </trkpt>
      <trkpt lat="4.8881970" lon="-75.4686960">
        <ele>3029.2</ele>
        <time>2021-04-17T20:03:30Z</time>
      </trkpt>
      <trkpt lat="4.8882060" lon="-75.4687910">
        <ele>3028.8</ele>
        <time>2021-04-17T20:03:31Z</time>
      </trkpt>
      <trkpt lat="4.8882140" lon="-75.4688860">
        <ele>3028.3</ele>
        <time>2021-04-17T20:03:32Z</time>
      </trkpt>
      <trkpt lat="4.8882270" lon="-75.4689780">
        <ele>3027.8</ele>
        <time>2021-04-17T20:03:33Z</time>
      </trkpt>
      <trkpt lat="4.8882480" lon="-75.4690580">
        <ele>3027.3</ele>
        <time>2021-04-17T20:03:34Z</time>
      </trkpt>
      <trkpt lat="4.8882870" lon="-75.4691230">
        <ele>3026.8</ele>
        <time>2021-04-17T20:03:35Z</time>
      </trkpt>
      <trkpt lat="4.8883450" lon="-75.4691750">
        <ele>3026.3</ele>
        <time>2021-04-17T20:03:36Z</time>
      </trkpt>
      <trkpt lat="4.8884150" lon="-75.4692190">
        <ele>3025.8</ele>
        <time>2021-04-17T20:03:37Z</time>
      </trkpt>
      <trkpt lat="4.8884920" lon="-75.4692580">
        <ele>3025.3</ele>
        <time>2021-04-17T20:03:38Z</time>
      </trkpt>
      <trkpt lat="4.8885730" lon="-75.4692960">
        <ele>3024.9</ele>
        <time>2021-04-17T20:03:39Z</time>
      </trkpt>
      <trkpt lat="4.8886580" lon="-75.4693290">
        <ele>3024.4</ele>
        <time>2021-04-17T20:03:40Z</time>
      </trkpt>
      <trkpt lat="4.8887440" lon="-75.4693560">
        <ele>3023.8</ele>
        <time>2021-04-17T20:03:41Z</time>
      </trkpt>
      <trkpt lat="4.8888330" lon="-75.4693750">
        <ele>3023.2</ele>
        <time>2021-04-17T20:03:42Z</time>
      </trkpt>
      <trkpt lat="4.8889240" lon="-75.4693890">
        <ele>3022.6</ele>
        <time>2021-04-17T20:03:43Z</time>
      </trkpt>
      <trkpt lat="4.8890130" lon="-75.4694080">
        <ele>3022.0</ele>
        <time>2021-04-17T20:03:44Z</time>
      </trkpt>
      <trkpt lat="4.8890980" lon="-75.4694360">
        <ele>3021.5</ele>
        <time>2021-04-17T20:03:45Z</time>
      </trkpt>
      <trkpt lat="4.8891700" lon="-75.4694780">
        <ele>3021.0</ele>
        <time>2021-04-17T20:03:46Z</time>
      </trkpt>
      <trkpt lat="4.8892270" lon="-75.4695350">
        <ele>3020.5</ele>
        <time>2021-04-17T20:03:47Z</time>
      </trkpt>
      <trkpt lat="4.8892700" lon="-75.4696050">
        <ele>3020.0</ele>
        <time>2021-04-17T20:03:48Z</time>
      </trkpt>
      <trkpt lat="4.8893030" lon="-75.4696800">
        <ele>3019.4</ele>
        <time>2021-04-17T20:03:49Z</time>
      </trkpt>
      <trkpt lat="4.8893400" lon="-75.4697570">
        <ele>3018.6</ele>
        <time>2021-04-17T20:03:50Z</time>
      </trkpt>
      <trkpt lat="4.8893810" lon="-75.4698320">
        <ele>3017.8</ele>
        <time>2021-04-17T20:03:51Z</time>
      </trkpt>
      <trkpt lat="4.8894290" lon="-75.4699050">
        <ele>3016.9</ele>
        <time>2021-04-17T20:03:52Z</time>
      </trkpt>
      <trkpt lat="4.8894790" lon="-75.4699820">
        <ele>3016.0</ele>
        <time>2021-04-17T20:03:53Z</time>
      </trkpt>
      <trkpt lat="4.8895270" lon="-75.4700670">
        <ele>3015.2</ele>
        <time>2021-04-17T20:03:54Z</time>
      </trkpt>
      <trkpt lat="4.8895660" lon="-75.4701580">
        <ele>3014.6</ele>
        <time>2021-04-17T20:03:55Z</time>
      </trkpt>
      <trkpt lat="4.8896010" lon="-75.4702520">
        <ele>3014.0</ele>
        <time>2021-04-17T20:03:56Z</time>
      </trkpt>
      <trkpt lat="4.8896400" lon="-75.4703420">
        <ele>3013.3</ele>
        <time>2021-04-17T20:03:57Z</time>
      </trkpt>
      <trkpt lat="4.8896880" lon="-75.4704300">
        <ele>3012.4</ele>
        <time>2021-04-17T20:03:58Z</time>
      </trkpt>
      <trkpt lat="4.8897390" lon="-75.4705170">
        <ele>3011.5</ele>
        <time>2021-04-17T20:03:59Z</time>
      </trkpt>
      <trkpt lat="4.8897890" lon="-75.4706060">
        <ele>3010.4</ele>
        <time>2021-04-17T20:04:00Z</time>
      </trkpt>
      <trkpt lat="4.8898380" lon="-75.4706990">
        <ele>3009.3</ele>
        <time>2021-04-17T20:04:01Z</time>
      </trkpt>
      <trkpt lat="4.8898880" lon="-75.4707950">
        <ele>3008.2</ele>
        <time>2021-04-17T20:04:02Z</time>
      </trkpt>
      <trkpt lat="4.8899380" lon="-75.4708920">
        <ele>3007.1</ele>
        <time>2021-04-17T20:04:03Z</time>
      </trkpt>
      <trkpt lat="4.8899920" lon="-75.4709890">
        <ele>3006.0</ele>
        <time>2021-04-17T20:04:04Z</time>
      </trkpt>
      <trkpt lat="4.8900500" lon="-75.4710840">
        <ele>3005.0</ele>
        <time>2021-04-17T20:04:05Z</time>
      </trkpt>
      <trkpt lat="4.8901110" lon="-75.4711810">
        <ele>3004.0</ele>
        <time>2021-04-17T20:04:06Z</time>
      </trkpt>
      <trkpt lat="4.8901700" lon="-75.4712790">
        <ele>3003.2</ele>
        <time>2021-04-17T20:04:07Z</time>
      </trkpt>
      <trkpt lat="4.8902260" lon="-75.4713820">
        <ele>3002.7</ele>
        <time>2021-04-17T20:04:08Z</time>
      </trkpt>
      <trkpt lat="4.8902770" lon="-75.4714850">
        <ele>3002.5</ele>
        <time>2021-04-17T20:04:09Z</time>
      </trkpt>
      <trkpt lat="4.8903220" lon="-75.4715840">
        <ele>3002.6</ele>
        <time>2021-04-17T20:04:10Z</time>
      </trkpt>
      <trkpt lat="4.8903690" lon="-75.4716820">
        <ele>3002.8</ele>
        <time>2021-04-17T20:04:11Z</time>
      </trkpt>
      <trkpt lat="4.8904210" lon="-75.4717710">
        <ele>3002.8</ele>
        <time>2021-04-17T20:04:12Z</time>
      </trkpt>
      <trkpt lat="4.8904790" lon="-75.4718560">
        <ele>3003.0</ele>
        <time>2021-04-17T20:04:13Z</time>
      </trkpt>
      <trkpt lat="4.8905320" lon="-75.4719370">
        <ele>3003.1</ele>
        <time>2021-04-17T20:04:14Z</time>
      </trkpt>
      <trkpt lat="4.8905800" lon="-75.4720160">
        <ele>3003.1</ele>
        <time>2021-04-17T20:04:15Z</time>
      </trkpt>
      <trkpt lat="4.8906240" lon="-75.4720960">
        <ele>3003.0</ele>
        <time>2021-04-17T20:04:16Z</time>
      </trkpt>
      <trkpt lat="4.8906660" lon="-75.4721760">
        <ele>3003.0</ele>
        <time>2021-04-17T20:04:17Z</time>
      </trkpt>
      <trkpt lat="4.8907100" lon="-75.4722550">
        <ele>3003.2</ele>
        <time>2021-04-17T20:04:18Z</time>
      </trkpt>
      <trkpt lat="4.8907590" lon="-75.4723310">
        <ele>3003.2</ele>
        <time>2021-04-17T20:04:19Z</time>
      </trkpt>
      <trkpt lat="4.8908090" lon="-75.4724040">
        <ele>3003.3</ele>
        <time>2021-04-17T20:04:20Z</time>
      </trkpt>
      <trkpt lat="4.8908600" lon="-75.4724740">
        <ele>3003.4</ele>
        <time>2021-04-17T20:04:21Z</time>
      </trkpt>
      <trkpt lat="4.8909150" lon="-75.4725390">
        <ele>3003.6</ele>
        <time>2021-04-17T20:04:22Z</time>
      </trkpt>
      <trkpt lat="4.8909770" lon="-75.4725960">
        <ele>3003.7</ele>
        <time>2021-04-17T20:04:23Z</time>
      </trkpt>
      <trkpt lat="4.8910420" lon="-75.4726460">
        <ele>3003.9</ele>
        <time>2021-04-17T20:04:24Z</time>
      </trkpt>
      <trkpt lat="4.8911090" lon="-75.4726920">
        <ele>3004.0</ele>
        <time>2021-04-17T20:04:25Z</time>
      </trkpt>
      <trkpt lat="4.8911770" lon="-75.4727350">
        <ele>3004.1</ele>
        <time>2021-04-17T20:04:26Z</time>
      </trkpt>
      <trkpt lat="4.8912460" lon="-75.4727730">
        <ele>3004.1</ele>
        <time>2021-04-17T20:04:27Z</time>
      </trkpt>
      <trkpt lat="4.8913160" lon="-75.4728070">
        <ele>3003.9</ele>
        <time>2021-04-17T20:04:28Z</time>
      </trkpt>
      <trkpt lat="4.8913890" lon="-75.4728350">
        <ele>3003.5</ele>
        <time>2021-04-17T20:04:29Z</time>
      </trkpt>
      <trkpt lat="4.8914650" lon="-75.4728560">
        <ele>3003.1</ele>
        <time>2021-04-17T20:04:30Z</time>
      </trkpt>
      <trkpt lat="4.8915450" lon="-75.4728700">
        <ele>3002.6</ele>
        <time>2021-04-17T20:04:31Z</time>
      </trkpt>
      <trkpt lat="4.8916300" lon="-75.4728740">
        <ele>3002.1</ele>
        <time>2021-04-17T20:04:32Z</time>
      </trkpt>
      <trkpt lat="4.8917140" lon="-75.4728740">
        <ele>3001.5</ele>
        <time>2021-04-17T20:04:33Z</time>
      </trkpt>
      <trkpt lat="4.8918010" lon="-75.4728760">
        <ele>3000.8</ele>
        <time>2021-04-17T20:04:34Z</time>
      </trkpt>
      <trkpt lat="4.8918900" lon="-75.4728790">
        <ele>3000.1</ele>
        <time>2021-04-17T20:04:35Z</time>
      </trkpt>
      <trkpt lat="4.8919820" lon="-75.4728750">
        <ele>2999.4</ele>
        <time>2021-04-17T20:04:36Z</time>
      </trkpt>
      <trkpt lat="4.8920760" lon="-75.4728700">
        <ele>2998.7</ele>
        <time>2021-04-17T20:04:37Z</time>
      </trkpt>
      <trkpt lat="4.8921690" lon="-75.4728630">
        <ele>2998.1</ele>
        <time>2021-04-17T20:04:38Z</time>
      </trkpt>
      <trkpt lat="4.8922650" lon="-75.4728600">
        <ele>2997.6</ele>
        <time>2021-04-17T20:04:39Z</time>
      </trkpt>
      <trkpt lat="4.8923650" lon="-75.4728600">
        <ele>2997.2</ele>
        <time>2021-04-17T20:04:40Z</time>
      </trkpt>
      <trkpt lat="4.8924650" lon="-75.4728600">
        <ele>2997.0</ele>
        <time>2021-04-17T20:04:41Z</time>
      </trkpt>
      <trkpt lat="4.8925630" lon="-75.4728590">
        <ele>2997.0</ele>
        <time>2021-04-17T20:04:42Z</time>
      </trkpt>
      <trkpt lat="4.8926590" lon="-75.4728540">
        <ele>2997.0</ele>
        <time>2021-04-17T20:04:43Z</time>
      </trkpt>
      <trkpt lat="4.8927540" lon="-75.4728440">
        <ele>2997.0</ele>
        <time>2021-04-17T20:04:44Z</time>
      </trkpt>
      <trkpt lat="4.8928440" lon="-75.4728290">
        <ele>2997.1</ele>
        <time>2021-04-17T20:04:45Z</time>
      </trkpt>
      <trkpt lat="4.8929280" lon="-75.4728210">
        <ele>2997.2</ele>
        <time>2021-04-17T20:04:46Z</time>
      </trkpt>
      <trkpt lat="4.8930080" lon="-75.4728240">
        <ele>2997.2</ele>
        <time>2021-04-17T20:04:47Z</time>
      </trkpt>
      <trkpt lat="4.8930870" lon="-75.4728280">
        <ele>2997.2</ele>
        <time>2021-04-17T20:04:48Z</time>
      </trkpt>
      <trkpt lat="4.8931630" lon="-75.4728290">
        <ele>2997.1</ele>
        <time>2021-04-17T20:04:49Z</time>
      </trkpt>
      <trkpt lat="4.8932400" lon="-75.4728310">
        <ele>2996.9</ele>
        <time>2021-04-17T20:04:50Z</time>
      </trkpt>
      <trkpt lat="4.8933190" lon="-75.4728370">
        <ele>2996.6</ele>
        <time>2021-04-17T20:04:51Z</time>
      </trkpt>
      <trkpt lat="4.8934010" lon="-75.4728450">
        <ele>2996.2</ele>
        <time>2021-04-17T20:04:52Z</time>
      </trkpt>
      <trkpt lat="4.8934850" lon="-75.4728530">
        <ele>2995.9</ele>
        <time>2021-04-17T20:04:53Z</time>
      </trkpt>
      <trkpt lat="4.8935690" lon="-75.4728620">
        <ele>2995.7</ele>
        <time>2021-04-17T20:04:54Z</time>
      </trkpt>
      <trkpt lat="4.8936530" lon="-75.4728740">
        <ele>2995.4</ele>
        <time>2021-04-17T20:04:55Z</time>
      </trkpt>
      <trkpt lat="4.8937390" lon="-75.4728880">
        <ele>2995.2</ele>
        <time>2021-04-17T20:04:56Z</time>
      </trkpt>
      <trkpt lat="4.8938250" lon="-75.4728970">
        <ele>2995.0</ele>
        <time>2021-04-17T20:04:57Z</time>
      </trkpt>
      <trkpt lat="4.8939090" lon="-75.4729070">
        <ele>2994.7</ele>
        <time>2021-04-17T20:04:58Z</time>
      </trkpt>
      <trkpt lat="4.8939900" lon="-75.4729100">
        <ele>2994.2</ele>
        <time>2021-04-17T20:04:59Z</time>
      </trkpt>
      <trkpt lat="4.8940680" lon="-75.4729020">
        <ele>2993.5</ele>
        <time>2021-04-17T20:05:00Z</time>
      </trkpt>
      <trkpt lat="4.8941410" lon="-75.4728770">
        <ele>2992.7</ele>
        <time>2021-04-17T20:05:01Z</time>
      </trkpt>
      <trkpt lat="4.8942130" lon="-75.4728440">
        <ele>2992.0</ele>
        <time>2021-04-17T20:05:02Z</time>
      </trkpt>
      <trkpt lat="4.8942880" lon="-75.4728030">
        <ele>2991.3</ele>
        <time>2021-04-17T20:05:03Z</time>
      </trkpt>
      <trkpt lat="4.8943620" lon="-75.4727530">
        <ele>2990.7</ele>
        <time>2021-04-17T20:05:04Z</time>
      </trkpt>
      <trkpt lat="4.8944360" lon="-75.4726990">
        <ele>2990.3</ele>
        <time>2021-04-17T20:05:05Z</time>
      </trkpt>
      <trkpt lat="4.8945100" lon="-75.4726500">
        <ele>2989.7</ele>
        <time>2021-04-17T20:05:06Z</time>
      </trkpt>
      <trkpt lat="4.8945830" lon="-75.4726080">
        <ele>2989.2</ele>
        <time>2021-04-17T20:05:07Z</time>
      </trkpt>
      <trkpt lat="4.8946540" lon="-75.4725750">
        <ele>2988.5</ele>
        <time>2021-04-17T20:05:08Z</time>
      </trkpt>
      <trkpt lat="4.8947270" lon="-75.4725540">
        <ele>2987.8</ele>
        <time>2021-04-17T20:05:09Z</time>
      </trkpt>
      <trkpt lat="4.8948020" lon="-75.4725440">
        <ele>2987.0</ele>
        <time>2021-04-17T20:05:10Z</time>
      </trkpt>
      <trkpt lat="4.8948800" lon="-75.4725400">
        <ele>2986.3</ele>
        <time>2021-04-17T20:05:11Z</time>
      </trkpt>
      <trkpt lat="4.8949610" lon="-75.4725400">
        <ele>2985.7</ele>
        <time>2021-04-17T20:05:12Z</time>
      </trkpt>
      <trkpt lat="4.8950460" lon="-75.4725490">
        <ele>2985.2</ele>
        <time>2021-04-17T20:05:13Z</time>
      </trkpt>
      <trkpt lat="4.8951340" lon="-75.4725590">
        <ele>2984.7</ele>
        <time>2021-04-17T20:05:14Z</time>
      </trkpt>
      <trkpt lat="4.8952260" lon="-75.4725650">
        <ele>2984.1</ele>
        <time>2021-04-17T20:05:15Z</time>
      </trkpt>
      <trkpt lat="4.8953170" lon="-75.4725690">
        <ele>2983.4</ele>
        <time>2021-04-17T20:05:16Z</time>
      </trkpt>
      <trkpt lat="4.8954070" lon="-75.4725770">
        <ele>2982.5</ele>
        <time>2021-04-17T20:05:17Z</time>
      </trkpt>
      <trkpt lat="4.8954980" lon="-75.4725880">
        <ele>2981.6</ele>
        <time>2021-04-17T20:05:18Z</time>
      </trkpt>
      <trkpt lat="4.8955880" lon="-75.4725970">
        <ele>2980.7</ele>
        <time>2021-04-17T20:05:19Z</time>
      </trkpt>
      <trkpt lat="4.8956750" lon="-75.4726010">
        <ele>2979.9</ele>
        <time>2021-04-17T20:05:20Z</time>
      </trkpt>
      <trkpt lat="4.8957570" lon="-75.4725980">
        <ele>2979.1</ele>
        <time>2021-04-17T20:05:21Z</time>
      </trkpt>
      <trkpt lat="4.8958390" lon="-75.4725800">
        <ele>2978.4</ele>
        <time>2021-04-17T20:05:22Z</time>
      </trkpt>
      <trkpt lat="4.8959180" lon="-75.4725510">
        <ele>2977.7</ele>
        <time>2021-04-17T20:05:23Z</time>
      </trkpt>
      <trkpt lat="4.8959940" lon="-75.4725130">
        <ele>2977.0</ele>
        <time>2021-04-17T20:05:24Z</time>
      </trkpt>
      <trkpt lat="4.8960690" lon="-75.4724710">
        <ele>2976.3</ele>
        <time>2021-04-17T20:05:25Z</time>
      </trkpt>
      <trkpt lat="4.8961450" lon="-75.4724290">
        <ele>2975.6</ele>
        <time>2021-04-17T20:05:26Z</time>
      </trkpt>
      <trkpt lat="4.8962220" lon="-75.4723860">
        <ele>2974.9</ele>
        <time>2021-04-17T20:05:27Z</time>
      </trkpt>
      <trkpt lat="4.8962980" lon="-75.4723430">
        <ele>2974.1</ele>
        <time>2021-04-17T20:05:28Z</time>
      </trkpt>
      <trkpt lat="4.8963750" lon="-75.4723000">
        <ele>2973.3</ele>
        <time>2021-04-17T20:05:29Z</time>
      </trkpt>
      <trkpt lat="4.8964510" lon="-75.4722530">
        <ele>2972.4</ele>
        <time>2021-04-17T20:05:30Z</time>
      </trkpt>
      <trkpt lat="4.8965250" lon="-75.4722050">
        <ele>2971.6</ele>
        <time>2021-04-17T20:05:31Z</time>
      </trkpt>
      <trkpt lat="4.8965940" lon="-75.4721540">
        <ele>2970.9</ele>
        <time>2021-04-17T20:05:32Z</time>
      </trkpt>
      <trkpt lat="4.8966540" lon="-75.4721060">
        <ele>2970.3</ele>
        <time>2021-04-17T20:05:33Z</time>
      </trkpt>
      <trkpt lat="4.8967050" lon="-75.4720620">
        <ele>2970.0</ele>
        <time>2021-04-17T20:05:34Z</time>
      </trkpt>
      <trkpt lat="4.8967460" lon="-75.4720250">
        <ele>2969.8</ele>
        <time>2021-04-17T20:05:35Z</time>
      </trkpt>
      <trkpt lat="4.8967800" lon="-75.4720010">
        <ele>2969.7</ele>
        <time>2021-04-17T20:05:36Z</time>
      </trkpt>
      <trkpt lat="4.8968060" lon="-75.4719830">
        <ele>2969.6</ele>
        <time>2021-04-17T20:05:37Z</time>
      </trkpt>
      <trkpt lat="4.8968260" lon="-75.4719630">
        <ele>2969.5</ele>
        <time>2021-04-17T20:05:38Z</time>
      </trkpt>
      <trkpt lat="4.8968460" lon="-75.4719470">
        <ele>2969.4</ele>
        <time>2021-04-17T20:05:39Z</time>
      </trkpt>
      <trkpt lat="4.8968700" lon="-75.4719330">
        <ele>2969.3</ele>
        <time>2021-04-17T20:05:40Z</time>
      </trkpt>
      <trkpt lat="4.8968960" lon="-75.4719230">
        <ele>2969.2</ele>
        <time>2021-04-17T20:05:41Z</time>
      </trkpt>
      <trkpt lat="4.8969190" lon="-75.4719190">
        <ele>2969.1</ele>
        <time>2021-04-17T20:05:42Z</time>
      </trkpt>
      <trkpt lat="4.8969440" lon="-75.4719210">
        <ele>2969.0</ele>
        <time>2021-04-17T20:05:43Z</time>
      </trkpt>
      <trkpt lat="4.8969710" lon="-75.4719240">
        <ele>2968.9</ele>
        <time>2021-04-17T20:05:44Z</time>
      </trkpt>
      <trkpt lat="4.8970020" lon="-75.4719340">
        <ele>2968.8</ele>
        <time>2021-04-17T20:05:45Z</time>
      </trkpt>
      <trkpt lat="4.8970350" lon="-75.4719530">
        <ele>2968.5</ele>
        <time>2021-04-17T20:05:46Z</time>
      </trkpt>
      <trkpt lat="4.8970660" lon="-75.4719860">
        <ele>2968.2</ele>
        <time>2021-04-17T20:05:47Z</time>
      </trkpt>
      <trkpt lat="4.8970820" lon="-75.4720250">
        <ele>2967.7</ele>
        <time>2021-04-17T20:05:48Z</time>
      </trkpt>
      <trkpt lat="4.8970880" lon="-75.4720690">
        <ele>2967.2</ele>
        <time>2021-04-17T20:05:49Z</time>
      </trkpt>
      <trkpt lat="4.8970810" lon="-75.4721180">
        <ele>2966.5</ele>
        <time>2021-04-17T20:05:50Z</time>
      </trkpt>
      <trkpt lat="4.8970630" lon="-75.4721720">
        <ele>2965.7</ele>
        <time>2021-04-17T20:05:51Z</time>
      </trkpt>
      <trkpt lat="4.8970350" lon="-75.4722300">
        <ele>2964.8</ele>
        <time>2021-04-17T20:05:52Z</time>
      </trkpt>
      <trkpt lat="4.8970000" lon="-75.4722920">
        <ele>2963.8</ele>
        <time>2021-04-17T20:05:53Z</time>
      </trkpt>
      <trkpt lat="4.8969590" lon="-75.4723590">
        <ele>2962.5</ele>
        <time>2021-04-17T20:05:54Z</time>
      </trkpt>
      <trkpt lat="4.8969210" lon="-75.4724380">
        <ele>2961.1</ele>
        <time>2021-04-17T20:05:55Z</time>
      </trkpt>
      <trkpt lat="4.8968870" lon="-75.4725210">
        <ele>2959.6</ele>
        <time>2021-04-17T20:05:56Z</time>
      </trkpt>
      <trkpt lat="4.8968470" lon="-75.4726010">
        <ele>2958.2</ele>
        <time>2021-04-17T20:05:57Z</time>
      </trkpt>
      <trkpt lat="4.8968010" lon="-75.4726760">
        <ele>2956.8</ele>
        <time>2021-04-17T20:05:58Z</time>
      </trkpt>
      <trkpt lat="4.8967580" lon="-75.4727490">
        <ele>2955.5</ele>
        <time>2021-04-17T20:05:59Z</time>
      </trkpt>
      <trkpt lat="4.8967210" lon="-75.4728260">
        <ele>2954.3</ele>
        <time>2021-04-17T20:06:00Z</time>
      </trkpt>
      <trkpt lat="4.8966910" lon="-75.4729100">
        <ele>2953.1</ele>
        <time>2021-04-17T20:06:01Z</time>
      </trkpt>
      <trkpt lat="4.8966570" lon="-75.4729960">
        <ele>2951.8</ele>
        <time>2021-04-17T20:06:02Z</time>
      </trkpt>
      <trkpt lat="4.8966160" lon="-75.4730830">
        <ele>2950.5</ele>
        <time>2021-04-17T20:06:03Z</time>
      </trkpt>
      <trkpt lat="4.8965760" lon="-75.4731660">
        <ele>2949.2</ele>
        <time>2021-04-17T20:06:04Z</time>
      </trkpt>
      <trkpt lat="4.8965440" lon="-75.4732520">
        <ele>2947.9</ele>
        <time>2021-04-17T20:06:05Z</time>
      </trkpt>
      <trkpt lat="4.8965180" lon="-75.4733390">
        <ele>2946.6</ele>
        <time>2021-04-17T20:06:06Z</time>
      </trkpt>
      <trkpt lat="4.8964990" lon="-75.4734260">
        <ele>2945.3</ele>
        <time>2021-04-17T20:06:07Z</time>
      </trkpt>
      <trkpt lat="4.8964880" lon="-75.4735120">
        <ele>2944.1</ele>
        <time>2021-04-17T20:06:08Z</time>
      </trkpt>
      <trkpt lat="4.8964810" lon="-75.4736020">
        <ele>2942.8</ele>
        <time>2021-04-17T20:06:09Z</time>
      </trkpt>
      <trkpt lat="4.8964690" lon="-75.4736930">
        <ele>2941.6</ele>
        <time>2021-04-17T20:06:10Z</time>
      </trkpt>
      <trkpt lat="4.8964560" lon="-75.4737870">
        <ele>2940.3</ele>
        <time>2021-04-17T20:06:11Z</time>
      </trkpt>
      <trkpt lat="4.8964480" lon="-75.4738780">
        <ele>2939.0</ele>
        <time>2021-04-17T20:06:12Z</time>
      </trkpt>
      <trkpt lat="4.8964550" lon="-75.4739700">
        <ele>2937.7</ele>
        <time>2021-04-17T20:06:13Z</time>
      </trkpt>
      <trkpt lat="4.8964830" lon="-75.4740590">
        <ele>2936.6</ele>
        <time>2021-04-17T20:06:14Z</time>
      </trkpt>
      <trkpt lat="4.8965270" lon="-75.4741440">
        <ele>2935.6</ele>
        <time>2021-04-17T20:06:15Z</time>
      </trkpt>
      <trkpt lat="4.8965850" lon="-75.4742230">
        <ele>2934.7</ele>
        <time>2021-04-17T20:06:16Z</time>
      </trkpt>
      <trkpt lat="4.8966530" lon="-75.4742980">
        <ele>2933.8</ele>
        <time>2021-04-17T20:06:17Z</time>
      </trkpt>
      <trkpt lat="4.8967280" lon="-75.4743690">
        <ele>2932.9</ele>
        <time>2021-04-17T20:06:18Z</time>
      </trkpt>
      <trkpt lat="4.8968080" lon="-75.4744330">
        <ele>2931.9</ele>
        <time>2021-04-17T20:06:19Z</time>
      </trkpt>
      <trkpt lat="4.8968920" lon="-75.4744880">
        <ele>2930.8</ele>
        <time>2021-04-17T20:06:20Z</time>
      </trkpt>
      <trkpt lat="4.8969760" lon="-75.4745430">
        <ele>2929.7</ele>
        <time>2021-04-17T20:06:21Z</time>
      </trkpt>
      <trkpt lat="4.8970630" lon="-75.4745950">
        <ele>2928.4</ele>
        <time>2021-04-17T20:06:22Z</time>
      </trkpt>
      <trkpt lat="4.8971580" lon="-75.4746420">
        <ele>2927.2</ele>
        <time>2021-04-17T20:06:23Z</time>
      </trkpt>
      <trkpt lat="4.8972610" lon="-75.4746770">
        <ele>2926.1</ele>
        <time>2021-04-17T20:06:24Z</time>
      </trkpt>
      <trkpt lat="4.8973680" lon="-75.4746990">
        <ele>2925.0</ele>
        <time>2021-04-17T20:06:25Z</time>
      </trkpt>
      <trkpt lat="4.8974790" lon="-75.4747090">
        <ele>2924.0</ele>
        <time>2021-04-17T20:06:26Z</time>
      </trkpt>
      <trkpt lat="4.8975910" lon="-75.4747160">
        <ele>2923.1</ele>
        <time>2021-04-17T20:06:27Z</time>
      </trkpt>
      <trkpt lat="4.8977030" lon="-75.4747220">
        <ele>2922.1</ele>
        <time>2021-04-17T20:06:28Z</time>
      </trkpt>
      <trkpt lat="4.8978150" lon="-75.4747250">
        <ele>2921.0</ele>
        <time>2021-04-17T20:06:29Z</time>
      </trkpt>
      <trkpt lat="4.8979260" lon="-75.4747250">
        <ele>2920.2</ele>
        <time>2021-04-17T20:06:30Z</time>
      </trkpt>
      <trkpt lat="4.8980370" lon="-75.4747230">
        <ele>2919.3</ele>
        <time>2021-04-17T20:06:31Z</time>
      </trkpt>
      <trkpt lat="4.8981470" lon="-75.4747220">
        <ele>2918.5</ele>
        <time>2021-04-17T20:06:32Z</time>
      </trkpt>
      <trkpt lat="4.8982550" lon="-75.4747210">
        <ele>2917.9</ele>
        <time>2021-04-17T20:06:33Z</time>
      </trkpt>
      <trkpt lat="4.8983650" lon="-75.4747260">
        <ele>2917.5</ele>
        <time>2021-04-17T20:06:34Z</time>
      </trkpt>
      <trkpt lat="4.8984690" lon="-75.4747440">
        <ele>2917.2</ele>
        <time>2021-04-17T20:06:35Z</time>
      </trkpt>
      <trkpt lat="4.8985670" lon="-75.4747710">
        <ele>2917.0</ele>
        <time>2021-04-17T20:06:36Z</time>
      </trkpt>
      <trkpt lat="4.8986590" lon="-75.4747970">
        <ele>2916.8</ele>
        <time>2021-04-17T20:06:37Z</time>
      </trkpt>
      <trkpt lat="4.8987360" lon="-75.4748140">
        <ele>2916.7</ele>
        <time>2021-04-17T20:06:38Z</time>
      </trkpt>
      <trkpt lat="4.8987940" lon="-75.4748190">
        <ele>2916.5</ele>
        <time>2021-04-17T20:06:39Z</time>
      </trkpt>
      <trkpt lat="4.8988320" lon="-75.4748140">
        <ele>2916.4</ele>
        <time>2021-04-17T20:06:40Z</time>
      </trkpt>
      <trkpt lat="4.8988480" lon="-75.4748080">
        <ele>2916.3</ele>
        <time>2021-04-17T20:06:41Z</time>
      </trkpt>
      <trkpt lat="4.8988500" lon="-75.4748080">
        <ele>2916.3</ele>
        <time>2021-04-17T20:06:42Z</time>
      </trkpt>
      <trkpt lat="4.8988490" lon="-75.4748080">
        <ele>2916.3</ele>
        <time>2021-04-17T20:06:43Z</time>
      </trkpt>
      <trkpt lat="4.8988460" lon="-75.4748070">
        <ele>2916.3</ele>
        <time>2021-04-17T20:06:44Z</time>
      </trkpt>
      <trkpt lat="4.8988400" lon="-75.4747730">
        <ele>2916.1</ele>
        <time>2021-04-17T20:08:30Z</time>
      </trkpt>
      <trkpt lat="4.8988580" lon="-75.4747670">
        <ele>2916.1</ele>
        <time>2021-04-17T20:08:31Z</time>
      </trkpt>
      <trkpt lat="4.8988840" lon="-75.4747580">
        <ele>2915.9</ele>
        <time>2021-04-17T20:08:32Z</time>
      </trkpt>
      <trkpt lat="4.8989100" lon="-75.4747440">
        <ele>2915.8</ele>
        <time>2021-04-17T20:08:33Z</time>
      </trkpt>
      <trkpt lat="4.8989380" lon="-75.4747270">
        <ele>2915.6</ele>
        <time>2021-04-17T20:08:34Z</time>
      </trkpt>
      <trkpt lat="4.8989700" lon="-75.4747070">
        <ele>2915.4</ele>
        <time>2021-04-17T20:08:35Z</time>
      </trkpt>
      <trkpt lat="4.8990080" lon="-75.4746880">
        <ele>2915.2</ele>
        <time>2021-04-17T20:08:36Z</time>
      </trkpt>
      <trkpt lat="4.8990550" lon="-75.4746730">
        <ele>2914.9</ele>
        <time>2021-04-17T20:08:37Z</time>
      </trkpt>
      <trkpt lat="4.8991090" lon="-75.4746620">
        <ele>2914.6</ele>
        <time>2021-04-17T20:08:38Z</time>
      </trkpt>
      <trkpt lat="4.8991680" lon="-75.4746580">
        <ele>2914.2</ele>
        <time>2021-04-17T20:08:39Z</time>
      </trkpt>
      <trkpt lat="4.8992280" lon="-75.4746650">
        <ele>2913.8</ele>
        <time>2021-04-17T20:08:40Z</time>
      </trkpt>
      <trkpt lat="4.8992860" lon="-75.4746840">
        <ele>2913.5</ele>
        <time>2021-04-17T20:08:41Z</time>
      </trkpt>
      <trkpt lat="4.8993430" lon="-75.4747210">
        <ele>2913.0</ele>
        <time>2021-04-17T20:08:42Z</time>
      </trkpt>
      <trkpt lat="4.8993950" lon="-75.4747690">
        <ele>2912.6</ele>
        <time>2021-04-17T20:08:43Z</time>
      </trkpt>
      <trkpt lat="4.8994450" lon="-75.4748240">
        <ele>2912.1</ele>
        <time>2021-04-17T20:08:44Z</time>
      </trkpt>
      <trkpt lat="4.8994960" lon="-75.4748800">
        <ele>2911.7</ele>
        <time>2021-04-17T20:08:45Z</time>
      </trkpt>
      <trkpt lat="4.8995500" lon="-75.4749340">
        <ele>2911.2</ele>
        <time>2021-04-17T20:08:46Z</time>
      </trkpt>
      <trkpt lat="4.8996120" lon="-75.4749850">
        <ele>2910.5</ele>
        <time>2021-04-17T20:08:47Z</time>
      </trkpt>
      <trkpt lat="4.8996830" lon="-75.4750310">
        <ele>2909.6</ele>
        <time>2021-04-17T20:08:48Z</time>
      </trkpt>
      <trkpt lat="4.8997550" lon="-75.4750730">
        <ele>2908.6</ele>
        <time>2021-04-17T20:08:49Z</time>
      </trkpt>
      <trkpt lat="4.8998210" lon="-75.4751170">
        <ele>2907.6</ele>
        <time>2021-04-17T20:08:50Z</time>
      </trkpt>
      <trkpt lat="4.8998760" lon="-75.4751740">
        <ele>2906.5</ele>
        <time>2021-04-17T20:08:51Z</time>
      </trkpt>
      <trkpt lat="4.8999180" lon="-75.4752450">
        <ele>2905.4</ele>
        <time>2021-04-17T20:08:52Z</time>
      </trkpt>
      <trkpt lat="4.8999530" lon="-75.4753250">
        <ele>2904.2</ele>
        <time>2021-04-17T20:08:53Z</time>
      </trkpt>
      <trkpt lat="4.8999850" lon="-75.4754100">
        <ele>2903.0</ele>
        <time>2021-04-17T20:08:54Z</time>
      </trkpt>
      <trkpt lat="4.9000170" lon="-75.4754970">
        <ele>2901.7</ele>
        <time>2021-04-17T20:08:55Z</time>
      </trkpt>
      <trkpt lat="4.9000480" lon="-75.4755800">
        <ele>2900.7</ele>
        <time>2021-04-17T20:08:56Z</time>
      </trkpt>
      <trkpt lat="4.9000690" lon="-75.4756590">
        <ele>2900.0</ele>
        <time>2021-04-17T20:08:57Z</time>
      </trkpt>
      <trkpt lat="4.9000750" lon="-75.4757400">
        <ele>2899.4</ele>
        <time>2021-04-17T20:08:58Z</time>
      </trkpt>
      <trkpt lat="4.9000670" lon="-75.4758200">
        <ele>2898.9</ele>
        <time>2021-04-17T20:08:59Z</time>
      </trkpt>
      <trkpt lat="4.9000530" lon="-75.4759020">
        <ele>2898.3</ele>
        <time>2021-04-17T20:09:00Z</time>
      </trkpt>
      <trkpt lat="4.9000420" lon="-75.4759880">
        <ele>2897.7</ele>
        <time>2021-04-17T20:09:01Z</time>
      </trkpt>
      <trkpt lat="4.9000370" lon="-75.4760760">
        <ele>2897.0</ele>
        <time>2021-04-17T20:09:02Z</time>
      </trkpt>
      <trkpt lat="4.9000690" lon="-75.4761670">
        <ele>2896.2</ele>
        <time>2021-04-17T20:09:03Z</time>
      </trkpt>
      <trkpt lat="4.9001250" lon="-75.4762450">
        <ele>2895.3</ele>
        <time>2021-04-17T20:09:04Z</time>
      </trkpt>
      <trkpt lat="4.9001920" lon="-75.4763130">
        <ele>2894.6</ele>
        <time>2021-04-17T20:09:05Z</time>
      </trkpt>
      <trkpt lat="4.9002720" lon="-75.4763650">
        <ele>2893.9</ele>
        <time>2021-04-17T20:09:06Z</time>
      </trkpt>
      <trkpt lat="4.9003560" lon="-75.4764120">
        <ele>2893.2</ele>
        <time>2021-04-17T20:09:07Z</time>
      </trkpt>
      <trkpt lat="4.9004310" lon="-75.4764620">
        <ele>2892.6</ele>
        <time>2021-04-17T20:09:08Z</time>
      </trkpt>
      <trkpt lat="4.9004980" lon="-75.4765100">
        <ele>2891.9</ele>
        <time>2021-04-17T20:09:09Z</time>
      </trkpt>
      <trkpt lat="4.9005580" lon="-75.4765650">
        <ele>2891.1</ele>
        <time>2021-04-17T20:09:10Z</time>
      </trkpt>
      <trkpt lat="4.9006080" lon="-75.4766250">
        <ele>2890.4</ele>
        <time>2021-04-17T20:09:11Z</time>
      </trkpt>
      <trkpt lat="4.9006480" lon="-75.4766980">
        <ele>2889.6</ele>
        <time>2021-04-17T20:09:12Z</time>
      </trkpt>
      <trkpt lat="4.9006870" lon="-75.4767770">
        <ele>2888.9</ele>
        <time>2021-04-17T20:09:13Z</time>
      </trkpt>
      <trkpt lat="4.9007220" lon="-75.4768610">
        <ele>2888.1</ele>
        <time>2021-04-17T20:09:14Z</time>
      </trkpt>
      <trkpt lat="4.9007460" lon="-75.4769460">
        <ele>2887.5</ele>
        <time>2021-04-17T20:09:15Z</time>
      </trkpt>
      <trkpt lat="4.9007570" lon="-75.4770270">
        <ele>2886.8</ele>
        <time>2021-04-17T20:09:16Z</time>
      </trkpt>
      <trkpt lat="4.9007520" lon="-75.4771080">
        <ele>2886.0</ele>
        <time>2021-04-17T20:09:17Z</time>
      </trkpt>
      <trkpt lat="4.9007380" lon="-75.4771900">
        <ele>2885.3</ele>
        <time>2021-04-17T20:09:18Z</time>
      </trkpt>
      <trkpt lat="4.9007230" lon="-75.4772770">
        <ele>2884.5</ele>
        <time>2021-04-17T20:09:19Z</time>
      </trkpt>
      <trkpt lat="4.9007070" lon="-75.4773630">
        <ele>2883.7</ele>
        <time>2021-04-17T20:09:20Z</time>
      </trkpt>
      <trkpt lat="4.9006870" lon="-75.4774490">
        <ele>2882.8</ele>
        <time>2021-04-17T20:09:21Z</time>
      </trkpt>
      <trkpt lat="4.9006580" lon="-75.4775270">
        <ele>2881.9</ele>
        <time>2021-04-17T20:09:22Z</time>
      </trkpt>
      <trkpt lat="4.9006140" lon="-75.4776070">
        <ele>2880.9</ele>
        <time>2021-04-17T20:09:23Z</time>
      </trkpt>
      <trkpt lat="4.9005550" lon="-75.4776820">
        <ele>2880.0</ele>
        <time>2021-04-17T20:09:24Z</time>
      </trkpt>
      <trkpt lat="4.9004910" lon="-75.4777520">
        <ele>2879.2</ele>
        <time>2021-04-17T20:09:25Z</time>
      </trkpt>
      <trkpt lat="4.9004230" lon="-75.4778190">
        <ele>2878.5</ele>
        <time>2021-04-17T20:09:26Z</time>
      </trkpt>
      <trkpt lat="4.9003520" lon="-75.4778860">
        <ele>2877.7</ele>
        <time>2021-04-17T20:09:27Z</time>
      </trkpt>
      <trkpt lat="4.9002830" lon="-75.4779520">
        <ele>2877.0</ele>
        <time>2021-04-17T20:09:28Z</time>
      </trkpt>
      <trkpt lat="4.9002250" lon="-75.4780200">
        <ele>2876.1</ele>
        <time>2021-04-17T20:09:29Z</time>
      </trkpt>
      <trkpt lat="4.9001860" lon="-75.4780890">
        <ele>2875.2</ele>
        <time>2021-04-17T20:09:30Z</time>
      </trkpt>
      <trkpt lat="4.9001650" lon="-75.4781570">
        <ele>2874.3</ele>
        <time>2021-04-17T20:09:31Z</time>
      </trkpt>
      <trkpt lat="4.9001710" lon="-75.4782310">
        <ele>2873.3</ele>
        <time>2021-04-17T20:09:32Z</time>
      </trkpt>
      <trkpt lat="4.9001770" lon="-75.4782980">
        <ele>2872.6</ele>
        <time>2021-04-17T20:09:33Z</time>
      </trkpt>
      <trkpt lat="4.9001790" lon="-75.4783620">
        <ele>2871.9</ele>
        <time>2021-04-17T20:09:34Z</time>
      </trkpt>
      <trkpt lat="4.9001660" lon="-75.4784220">
        <ele>2871.4</ele>
        <time>2021-04-17T20:09:35Z</time>
      </trkpt>
      <trkpt lat="4.9001390" lon="-75.4784800">
        <ele>2870.8</ele>
        <time>2021-04-17T20:09:36Z</time>
      </trkpt>
      <trkpt lat="4.9001040" lon="-75.4785340">
        <ele>2870.3</ele>
        <time>2021-04-17T20:09:37Z</time>
      </trkpt>
      <trkpt lat="4.9000670" lon="-75.4785880">
        <ele>2869.8</ele>
        <time>2021-04-17T20:09:38Z</time>
      </trkpt>
      <trkpt lat="4.9000280" lon="-75.4786440">
        <ele>2869.2</ele>
        <time>2021-04-17T20:09:39Z</time>
      </trkpt>
      <trkpt lat="4.8999890" lon="-75.4787080">
        <ele>2868.4</ele>
        <time>2021-04-17T20:09:40Z</time>
      </trkpt>
      <trkpt lat="4.8999560" lon="-75.4787770">
        <ele>2867.5</ele>
        <time>2021-04-17T20:09:41Z</time>
      </trkpt>
      <trkpt lat="4.8999280" lon="-75.4788470">
        <ele>2866.4</ele>
        <time>2021-04-17T20:09:42Z</time>
      </trkpt>
      <trkpt lat="4.8999350" lon="-75.4789240">
        <ele>2865.3</ele>
        <time>2021-04-17T20:09:43Z</time>
      </trkpt>
      <trkpt lat="4.8999390" lon="-75.4790000">
        <ele>2864.1</ele>
        <time>2021-04-17T20:09:44Z</time>
      </trkpt>
      <trkpt lat="4.8999440" lon="-75.4790890">
        <ele>2862.8</ele>
        <time>2021-04-17T20:09:45Z</time>
      </trkpt>
      <trkpt lat="4.8999400" lon="-75.4791760">
        <ele>2861.8</ele>
        <time>2021-04-17T20:09:46Z</time>
      </trkpt>
      <trkpt lat="4.8999410" lon="-75.4792540">
        <ele>2861.0</ele>
        <time>2021-04-17T20:09:47Z</time>
      </trkpt>
      <trkpt lat="4.8999590" lon="-75.4793260">
        <ele>2860.1</ele>
        <time>2021-04-17T20:09:48Z</time>
      </trkpt>
      <trkpt lat="4.9000070" lon="-75.4793700">
        <ele>2859.4</ele>
        <time>2021-04-17T20:09:49Z</time>
      </trkpt>
      <trkpt lat="4.9000670" lon="-75.4794110">
        <ele>2858.5</ele>
        <time>2021-04-17T20:09:50Z</time>
      </trkpt>
      <trkpt lat="4.9001340" lon="-75.4794350">
        <ele>2857.8</ele>
        <time>2021-04-17T20:09:51Z</time>
      </trkpt>
      <trkpt lat="4.9002050" lon="-75.4794420">
        <ele>2856.9</ele>
        <time>2021-04-17T20:09:52Z</time>
      </trkpt>
      <trkpt lat="4.9002690" lon="-75.4794600">
        <ele>2855.9</ele>
        <time>2021-04-17T20:09:53Z</time>
      </trkpt>
      <trkpt lat="4.9003250" lon="-75.4794880">
        <ele>2854.9</ele>
        <time>2021-04-17T20:09:54Z</time>
      </trkpt>
      <trkpt lat="4.9003710" lon="-75.4795340">
        <ele>2853.8</ele>
        <time>2021-04-17T20:09:55Z</time>
      </trkpt>
      <trkpt lat="4.9004020" lon="-75.4795830">
        <ele>2852.9</ele>
        <time>2021-04-17T20:09:56Z</time>
      </trkpt>
      <trkpt lat="4.9004250" lon="-75.4796450">
        <ele>2852.0</ele>
        <time>2021-04-17T20:09:57Z</time>
      </trkpt>
      <trkpt lat="4.9004430" lon="-75.4797140">
        <ele>2851.1</ele>
        <time>2021-04-17T20:09:58Z</time>
      </trkpt>
      <trkpt lat="4.9004640" lon="-75.4798020">
        <ele>2850.0</ele>
        <time>2021-04-17T20:09:59Z</time>
      </trkpt>
      <trkpt lat="4.9004840" lon="-75.4798910">
        <ele>2848.9</ele>
        <time>2021-04-17T20:10:00Z</time>
      </trkpt>
      <trkpt lat="4.9004980" lon="-75.4799850">
        <ele>2847.7</ele>
        <time>2021-04-17T20:10:01Z</time>
      </trkpt>
      <trkpt lat="4.9005290" lon="-75.4800620">
        <ele>2846.8</ele>
        <time>2021-04-17T20:10:02Z</time>
      </trkpt>
      <trkpt lat="4.9005760" lon="-75.4801300">
        <ele>2846.0</ele>
        <time>2021-04-17T20:10:03Z</time>
      </trkpt>
      <trkpt lat="4.9006360" lon="-75.4801890">
        <ele>2845.2</ele>
        <time>2021-04-17T20:10:04Z</time>
      </trkpt>
      <trkpt lat="4.9007000" lon="-75.4802520">
        <ele>2844.4</ele>
        <time>2021-04-17T20:10:05Z</time>
      </trkpt>
      <trkpt lat="4.9007720" lon="-75.4803080">
        <ele>2843.4</ele>
        <time>2021-04-17T20:10:06Z</time>
      </trkpt>
      <trkpt lat="4.9008450" lon="-75.4803600">
        <ele>2842.4</ele>
        <time>2021-04-17T20:10:07Z</time>
      </trkpt>
      <trkpt lat="4.9009170" lon="-75.4803890">
        <ele>2841.4</ele>
        <time>2021-04-17T20:10:08Z</time>
      </trkpt>
      <trkpt lat="4.9009950" lon="-75.4804050">
        <ele>2840.3</ele>
        <time>2021-04-17T20:10:09Z</time>
      </trkpt>
      <trkpt lat="4.9010730" lon="-75.4804150">
        <ele>2839.3</ele>
        <time>2021-04-17T20:10:10Z</time>
      </trkpt>
      <trkpt lat="4.9011560" lon="-75.4804290">
        <ele>2838.2</ele>
        <time>2021-04-17T20:10:11Z</time>
      </trkpt>
      <trkpt lat="4.9012350" lon="-75.4804440">
        <ele>2837.1</ele>
        <time>2021-04-17T20:10:12Z</time>
      </trkpt>
      <trkpt lat="4.9013140" lon="-75.4804580">
        <ele>2835.8</ele>
        <time>2021-04-17T20:10:13Z</time>
      </trkpt>
      <trkpt lat="4.9013900" lon="-75.4804620">
        <ele>2834.3</ele>
        <time>2021-04-17T20:10:14Z</time>
      </trkpt>
      <trkpt lat="4.9014570" lon="-75.4804550">
        <ele>2833.0</ele>
        <time>2021-04-17T20:10:15Z</time>
      </trkpt>
      <trkpt lat="4.9015070" lon="-75.4804350">
        <ele>2832.0</ele>
        <time>2021-04-17T20:10:16Z</time>
      </trkpt>
      <trkpt lat="4.9015550" lon="-75.4804200">
        <ele>2831.2</ele>
        <time>2021-04-17T20:10:17Z</time>
      </trkpt>
      <trkpt lat="4.9016060" lon="-75.4803960">
        <ele>2830.4</ele>
        <time>2021-04-17T20:10:18Z</time>
      </trkpt>
      <trkpt lat="4.9016560" lon="-75.4803500">
        <ele>2829.5</ele>
        <time>2021-04-17T20:10:19Z</time>
      </trkpt>
      <trkpt lat="4.9017130" lon="-75.4803040">
        <ele>2828.7</ele>
        <time>2021-04-17T20:10:20Z</time>
      </trkpt>
      <trkpt lat="4.9017780" lon="-75.4802580">
        <ele>2827.8</ele>
        <time>2021-04-17T20:10:21Z</time>
      </trkpt>
      <trkpt lat="4.9018540" lon="-75.4802190">
        <ele>2826.8</ele>
        <time>2021-04-17T20:10:22Z</time>
      </trkpt>
      <trkpt lat="4.9019330" lon="-75.4801780">
        <ele>2825.8</ele>
        <time>2021-04-17T20:10:23Z</time>
      </trkpt>
      <trkpt lat="4.9020170" lon="-75.4801350">
        <ele>2824.9</ele>
        <time>2021-04-17T20:10:24Z</time>
      </trkpt>
      <trkpt lat="4.9020990" lon="-75.4800860">
        <ele>2824.0</ele>
        <time>2021-04-17T20:10:25Z</time>
      </trkpt>
      <trkpt lat="4.9021770" lon="-75.4800340">
        <ele>2823.2</ele>
        <time>2021-04-17T20:10:26Z</time>
      </trkpt>
      <trkpt lat="4.9022510" lon="-75.4799870">
        <ele>2822.4</ele>
        <time>2021-04-17T20:10:27Z</time>
      </trkpt>
      <trkpt lat="4.9023280" lon="-75.4799380">
        <ele>2821.7</ele>
        <time>2021-04-17T20:10:28Z</time>
      </trkpt>
      <trkpt lat="4.9024080" lon="-75.4798880">
        <ele>2820.9</ele>
        <time>2021-04-17T20:10:29Z</time>
      </trkpt>
      <trkpt lat="4.9024920" lon="-75.4798440">
        <ele>2820.2</ele>
        <time>2021-04-17T20:10:30Z</time>
      </trkpt>
      <trkpt lat="4.9025740" lon="-75.4797930">
        <ele>2819.5</ele>
        <time>2021-04-17T20:10:31Z</time>
      </trkpt>
      <trkpt lat="4.9026510" lon="-75.4797440">
        <ele>2818.8</ele>
        <time>2021-04-17T20:10:32Z</time>
      </trkpt>
      <trkpt lat="4.9027190" lon="-75.4796930">
        <ele>2818.0</ele>
        <time>2021-04-17T20:10:33Z</time>
      </trkpt>
      <trkpt lat="4.9027760" lon="-75.4796380">
        <ele>2817.3</ele>
        <time>2021-04-17T20:10:34Z</time>
      </trkpt>
      <trkpt lat="4.9028220" lon="-75.4795740">
        <ele>2816.5</ele>
        <time>2021-04-17T20:10:35Z</time>
      </trkpt>
      <trkpt lat="4.9028460" lon="-75.4795010">
        <ele>2815.5</ele>
        <time>2021-04-17T20:10:36Z</time>
      </trkpt>
      <trkpt lat="4.9028580" lon="-75.4794240">
        <ele>2814.5</ele>
        <time>2021-04-17T20:10:37Z</time>
      </trkpt>
      <trkpt lat="4.9028650" lon="-75.4793460">
        <ele>2813.5</ele>
        <time>2021-04-17T20:10:38Z</time>
      </trkpt>
      <trkpt lat="4.9028700" lon="-75.4792740">
        <ele>2812.4</ele>
        <time>2021-04-17T20:10:39Z</time>
      </trkpt>
      <trkpt lat="4.9028750" lon="-75.4792020">
        <ele>2811.3</ele>
        <time>2021-04-17T20:10:40Z</time>
      </trkpt>
      <trkpt lat="4.9028900" lon="-75.4791330">
        <ele>2810.2</ele>
        <time>2021-04-17T20:10:41Z</time>
      </trkpt>
      <trkpt lat="4.9029130" lon="-75.4790680">
        <ele>2809.2</ele>
        <time>2021-04-17T20:10:42Z</time>
      </trkpt>
      <trkpt lat="4.9029470" lon="-75.4790080">
        <ele>2808.0</ele>
        <time>2021-04-17T20:10:43Z</time>
      </trkpt>
      <trkpt lat="4.9029900" lon="-75.4789460">
        <ele>2806.8</ele>
        <time>2021-04-17T20:10:44Z</time>
      </trkpt>
      <trkpt lat="4.9030320" lon="-75.4788870">
        <ele>2805.6</ele>
        <time>2021-04-17T20:10:45Z</time>
      </trkpt>
      <trkpt lat="4.9030830" lon="-75.4788380">
        <ele>2804.3</ele>
        <time>2021-04-17T20:10:46Z</time>
      </trkpt>
      <trkpt lat="4.9031270" lon="-75.4787840">
        <ele>2803.0</ele>
        <time>2021-04-17T20:10:47Z</time>
      </trkpt>
      <trkpt lat="4.9031700" lon="-75.4787270">
        <ele>2801.7</ele>
        <time>2021-04-17T20:10:48Z</time>
      </trkpt>
      <trkpt lat="4.9032170" lon="-75.4786590">
        <ele>2800.2</ele>
        <time>2021-04-17T20:10:49Z</time>
      </trkpt>
      <trkpt lat="4.9032630" lon="-75.4785820">
        <ele>2798.8</ele>
        <time>2021-04-17T20:10:50Z</time>
      </trkpt>
      <trkpt lat="4.9033060" lon="-75.4785030">
        <ele>2797.4</ele>
        <time>2021-04-17T20:10:51Z</time>
      </trkpt>
      <trkpt lat="4.9033520" lon="-75.4784310">
        <ele>2796.2</ele>
        <time>2021-04-17T20:10:52Z</time>
      </trkpt>
      <trkpt lat="4.9034000" lon="-75.4783660">
        <ele>2795.0</ele>
        <time>2021-04-17T20:10:53Z</time>
      </trkpt>
      <trkpt lat="4.9034400" lon="-75.4783000">
        <ele>2794.0</ele>
        <time>2021-04-17T20:10:54Z</time>
      </trkpt>
      <trkpt lat="4.9034690" lon="-75.4782280">
        <ele>2792.9</ele>
        <time>2021-04-17T20:10:55Z</time>
      </trkpt>
      <trkpt lat="4.9034900" lon="-75.4781480">
        <ele>2791.9</ele>
        <time>2021-04-17T20:10:56Z</time>
      </trkpt>
      <trkpt lat="4.9035100" lon="-75.4780700">
        <ele>2790.9</ele>
        <time>2021-04-17T20:10:57Z</time>
      </trkpt>
      <trkpt lat="4.9035410" lon="-75.4779940">
        <ele>2789.9</ele>
        <time>2021-04-17T20:10:58Z</time>
      </trkpt>
      <trkpt lat="4.9035840" lon="-75.4779210">
        <ele>2788.8</ele>
        <time>2021-04-17T20:10:59Z</time>
      </trkpt>
      <trkpt lat="4.9036280" lon="-75.4778450">
        <ele>2787.7</ele>
        <time>2021-04-17T20:11:00Z</time>
      </trkpt>
      <trkpt lat="4.9036730" lon="-75.4777660">
        <ele>2786.6</ele>
        <time>2021-04-17T20:11:01Z</time>
      </trkpt>
      <trkpt lat="4.9037100" lon="-75.4776900">
        <ele>2785.3</ele>
        <time>2021-04-17T20:11:02Z</time>
      </trkpt>
      <trkpt lat="4.9037400" lon="-75.4776190">
        <ele>2784.1</ele>
        <time>2021-04-17T20:11:03Z</time>
      </trkpt>
      <trkpt lat="4.9037570" lon="-75.4775500">
        <ele>2782.8</ele>
        <time>2021-04-17T20:11:04Z</time>
      </trkpt>
      <trkpt lat="4.9037740" lon="-75.4774810">
        <ele>2781.4</ele>
        <time>2021-04-17T20:11:05Z</time>
      </trkpt>
      <trkpt lat="4.9037940" lon="-75.4774150">
        <ele>2779.9</ele>
        <time>2021-04-17T20:11:06Z</time>
      </trkpt>
      <trkpt lat="4.9038230" lon="-75.4773510">
        <ele>2778.4</ele>
        <time>2021-04-17T20:11:07Z</time>
      </trkpt>
      <trkpt lat="4.9038590" lon="-75.4772950">
        <ele>2777.3</ele>
        <time>2021-04-17T20:11:08Z</time>
      </trkpt>
      <trkpt lat="4.9039170" lon="-75.4772640">
        <ele>2776.4</ele>
        <time>2021-04-17T20:11:09Z</time>
      </trkpt>
      <trkpt lat="4.9039750" lon="-75.4772450">
        <ele>2775.7</ele>
        <time>2021-04-17T20:11:10Z</time>
      </trkpt>
      <trkpt lat="4.9040340" lon="-75.4772370">
        <ele>2775.1</ele>
        <time>2021-04-17T20:11:11Z</time>
      </trkpt>
      <trkpt lat="4.9041060" lon="-75.4772480">
        <ele>2774.4</ele>
        <time>2021-04-17T20:11:12Z</time>
      </trkpt>
      <trkpt lat="4.9041740" lon="-75.4772660">
        <ele>2773.6</ele>
        <time>2021-04-17T20:11:13Z</time>
      </trkpt>
      <trkpt lat="4.9042420" lon="-75.4772880">
        <ele>2772.8</ele>
        <time>2021-04-17T20:11:14Z</time>
      </trkpt>
      <trkpt lat="4.9043040" lon="-75.4773290">
        <ele>2771.9</ele>
        <time>2021-04-17T20:11:15Z</time>
      </trkpt>
      <trkpt lat="4.9043540" lon="-75.4773810">
        <ele>2771.0</ele>
        <time>2021-04-17T20:11:16Z</time>
      </trkpt>
      <trkpt lat="4.9043900" lon="-75.4774490">
        <ele>2769.9</ele>
        <time>2021-04-17T20:11:17Z</time>
      </trkpt>
      <trkpt lat="4.9044120" lon="-75.4775100">
        <ele>2769.0</ele>
        <time>2021-04-17T20:11:18Z</time>
      </trkpt>
      <trkpt lat="4.9043890" lon="-75.4775750">
        <ele>2767.9</ele>
        <time>2021-04-17T20:11:19Z</time>
      </trkpt>
      <trkpt lat="4.9043720" lon="-75.4776410">
        <ele>2766.9</ele>
        <time>2021-04-17T20:11:20Z</time>
      </trkpt>
      <trkpt lat="4.9043640" lon="-75.4777070">
        <ele>2766.0</ele>
        <time>2021-04-17T20:11:21Z</time>
      </trkpt>
      <trkpt lat="4.9043650" lon="-75.4777830">
        <ele>2764.9</ele>
        <time>2021-04-17T20:11:22Z</time>
      </trkpt>
      <trkpt lat="4.9043790" lon="-75.4778650">
        <ele>2763.8</ele>
        <time>2021-04-17T20:11:23Z</time>
      </trkpt>
      <trkpt lat="4.9043900" lon="-75.4779490">
        <ele>2762.6</ele>
        <time>2021-04-17T20:11:24Z</time>
      </trkpt>
      <trkpt lat="4.9043930" lon="-75.4780340">
        <ele>2761.3</ele>
        <time>2021-04-17T20:11:25Z</time>
      </trkpt>
      <trkpt lat="4.9043940" lon="-75.4781270">
        <ele>2759.9</ele>
        <time>2021-04-17T20:11:26Z</time>
      </trkpt>
      <trkpt lat="4.9044120" lon="-75.4782070">
        <ele>2758.7</ele>
        <time>2021-04-17T20:11:27Z</time>
      </trkpt>
      <trkpt lat="4.9044540" lon="-75.4783030">
        <ele>2757.4</ele>
        <time>2021-04-17T20:11:28Z</time>
      </trkpt>
      <trkpt lat="4.9044960" lon="-75.4783930">
        <ele>2756.2</ele>
        <time>2021-04-17T20:11:29Z</time>
      </trkpt>
      <trkpt lat="4.9045270" lon="-75.4784700">
        <ele>2755.2</ele>
        <time>2021-04-17T20:11:30Z</time>
      </trkpt>
      <trkpt lat="4.9045460" lon="-75.4785590">
        <ele>2754.1</ele>
        <time>2021-04-17T20:11:31Z</time>
      </trkpt>
      <trkpt lat="4.9045620" lon="-75.4786390">
        <ele>2753.2</ele>
        <time>2021-04-17T20:11:32Z</time>
      </trkpt>
      <trkpt lat="4.9045920" lon="-75.4787190">
        <ele>2752.1</ele>
        <time>2021-04-17T20:11:33Z</time>
      </trkpt>
      <trkpt lat="4.9046320" lon="-75.4787930">
        <ele>2751.1</ele>
        <time>2021-04-17T20:11:34Z</time>
      </trkpt>
      <trkpt lat="4.9046740" lon="-75.4788620">
        <ele>2750.0</ele>
        <time>2021-04-17T20:11:35Z</time>
      </trkpt>
      <trkpt lat="4.9047240" lon="-75.4789370">
        <ele>2748.7</ele>
        <time>2021-04-17T20:11:36Z</time>
      </trkpt>
      <trkpt lat="4.9047730" lon="-75.4790060">
        <ele>2747.6</ele>
        <time>2021-04-17T20:11:37Z</time>
      </trkpt>
      <trkpt lat="4.9048260" lon="-75.4790740">
        <ele>2746.4</ele>
        <time>2021-04-17T20:11:38Z</time>
      </trkpt>
      <trkpt lat="4.9048780" lon="-75.4791530">
        <ele>2745.1</ele>
        <time>2021-04-17T20:11:39Z</time>
      </trkpt>
      <trkpt lat="4.9049240" lon="-75.4792320">
        <ele>2743.9</ele>
        <time>2021-04-17T20:11:40Z</time>
      </trkpt>
      <trkpt lat="4.9049660" lon="-75.4793190">
        <ele>2742.7</ele>
        <time>2021-04-17T20:11:41Z</time>
      </trkpt>
      <trkpt lat="4.9049990" lon="-75.4794030">
        <ele>2741.6</ele>
        <time>2021-04-17T20:11:42Z</time>
      </trkpt>
      <trkpt lat="4.9050290" lon="-75.4794830">
        <ele>2740.6</ele>
        <time>2021-04-17T20:11:43Z</time>
      </trkpt>
      <trkpt lat="4.9050650" lon="-75.4795640">
        <ele>2739.6</ele>
        <time>2021-04-17T20:11:44Z</time>
      </trkpt>
      <trkpt lat="4.9051130" lon="-75.4796440">
        <ele>2738.5</ele>
        <time>2021-04-17T20:11:45Z</time>
      </trkpt>
      <trkpt lat="4.9051770" lon="-75.4797220">
        <ele>2737.4</ele>
        <time>2021-04-17T20:11:46Z</time>
      </trkpt>
      <trkpt lat="4.9052530" lon="-75.4797840">
        <ele>2736.4</ele>
        <time>2021-04-17T20:11:47Z</time>
      </trkpt>
      <trkpt lat="4.9053320" lon="-75.4798310">
        <ele>2735.3</ele>
        <time>2021-04-17T20:11:48Z</time>
      </trkpt>
      <trkpt lat="4.9054140" lon="-75.4798820">
        <ele>2734.1</ele>
        <time>2021-04-17T20:11:49Z</time>
      </trkpt>
      <trkpt lat="4.9055050" lon="-75.4799170">
        <ele>2732.6</ele>
        <time>2021-04-17T20:11:50Z</time>
      </trkpt>
      <trkpt lat="4.9055900" lon="-75.4799460">
        <ele>2731.1</ele>
        <time>2021-04-17T20:11:51Z</time>
      </trkpt>
      <trkpt lat="4.9056680" lon="-75.4799700">
        <ele>2729.7</ele>
        <time>2021-04-17T20:11:52Z</time>
      </trkpt>
      <trkpt lat="4.9057460" lon="-75.4799890">
        <ele>2728.5</ele>
        <time>2021-04-17T20:11:53Z</time>
      </trkpt>
      <trkpt lat="4.9058240" lon="-75.4800160">
        <ele>2727.2</ele>
        <time>2021-04-17T20:11:54Z</time>
      </trkpt>
      <trkpt lat="4.9059010" lon="-75.4800550">
        <ele>2725.9</ele>
        <time>2021-04-17T20:11:55Z</time>
      </trkpt>
      <trkpt lat="4.9059770" lon="-75.4801090">
        <ele>2724.6</ele>
        <time>2021-04-17T20:11:56Z</time>
      </trkpt>
      <trkpt lat="4.9060490" lon="-75.4801700">
        <ele>2723.6</ele>
        <time>2021-04-17T20:11:57Z</time>
      </trkpt>
      <trkpt lat="4.9061210" lon="-75.4802320">
        <ele>2722.7</ele>
        <time>2021-04-17T20:11:58Z</time>
      </trkpt>
      <trkpt lat="4.9061950" lon="-75.4802950">
        <ele>2721.7</ele>
        <time>2021-04-17T20:11:59Z</time>
      </trkpt>
      <trkpt lat="4.9062640" lon="-75.4803570">
        <ele>2720.5</ele>
        <time>2021-04-17T20:12:00Z</time>
      </trkpt>
      <trkpt lat="4.9063300" lon="-75.4804090">
        <ele>2719.3</ele>
        <time>2021-04-17T20:12:01Z</time>
      </trkpt>
      <trkpt lat="4.9064030" lon="-75.4804360">
        <ele>2718.2</ele>
        <time>2021-04-17T20:12:02Z</time>
      </trkpt>
      <trkpt lat="4.9064790" lon="-75.4804440">
        <ele>2717.0</ele>
        <time>2021-04-17T20:12:03Z</time>
      </trkpt>
      <trkpt lat="4.9065600" lon="-75.4804380">
        <ele>2715.6</ele>
        <time>2021-04-17T20:12:04Z</time>
      </trkpt>
      <trkpt lat="4.9066470" lon="-75.4804210">
        <ele>2714.1</ele>
        <time>2021-04-17T20:12:05Z</time>
      </trkpt>
      <trkpt lat="4.9067370" lon="-75.4804010">
        <ele>2712.6</ele>
        <time>2021-04-17T20:12:06Z</time>
      </trkpt>
      <trkpt lat="4.9068290" lon="-75.4803860">
        <ele>2711.1</ele>
        <time>2021-04-17T20:12:07Z</time>
      </trkpt>
      <trkpt lat="4.9069180" lon="-75.4803780">
        <ele>2709.8</ele>
        <time>2021-04-17T20:12:08Z</time>
      </trkpt>
      <trkpt lat="4.9070020" lon="-75.4803850">
        <ele>2708.7</ele>
        <time>2021-04-17T20:12:09Z</time>
      </trkpt>
      <trkpt lat="4.9070700" lon="-75.4804060">
        <ele>2707.9</ele>
        <time>2021-04-17T20:12:10Z</time>
      </trkpt>
      <trkpt lat="4.9071230" lon="-75.4804470">
        <ele>2707.2</ele>
        <time>2021-04-17T20:12:11Z</time>
      </trkpt>
      <trkpt lat="4.9071510" lon="-75.4805010">
        <ele>2706.5</ele>
        <time>2021-04-17T20:12:12Z</time>
      </trkpt>
      <trkpt lat="4.9071570" lon="-75.4805620">
        <ele>2705.8</ele>
        <time>2021-04-17T20:12:13Z</time>
      </trkpt>
      <trkpt lat="4.9071440" lon="-75.4806230">
        <ele>2705.0</ele>
        <time>2021-04-17T20:12:14Z</time>
      </trkpt>
      <trkpt lat="4.9071090" lon="-75.4806800">
        <ele>2704.1</ele>
        <time>2021-04-17T20:12:15Z</time>
      </trkpt>
      <trkpt lat="4.9070660" lon="-75.4807340">
        <ele>2703.1</ele>
        <time>2021-04-17T20:12:16Z</time>
      </trkpt>
      <trkpt lat="4.9070210" lon="-75.4807770">
        <ele>2702.1</ele>
        <time>2021-04-17T20:12:17Z</time>
      </trkpt>
      <trkpt lat="4.9069760" lon="-75.4808180">
        <ele>2701.2</ele>
        <time>2021-04-17T20:12:18Z</time>
      </trkpt>
      <trkpt lat="4.9069300" lon="-75.4808660">
        <ele>2700.3</ele>
        <time>2021-04-17T20:12:19Z</time>
      </trkpt>
      <trkpt lat="4.9068840" lon="-75.4809170">
        <ele>2699.3</ele>
        <time>2021-04-17T20:12:20Z</time>
      </trkpt>
      <trkpt lat="4.9068370" lon="-75.4809760">
        <ele>2698.3</ele>
        <time>2021-04-17T20:12:21Z</time>
      </trkpt>
      <trkpt lat="4.9067970" lon="-75.4810400">
        <ele>2697.3</ele>
        <time>2021-04-17T20:12:22Z</time>
      </trkpt>
      <trkpt lat="4.9067820" lon="-75.4811100">
        <ele>2696.3</ele>
        <time>2021-04-17T20:12:23Z</time>
      </trkpt>
      <trkpt lat="4.9067990" lon="-75.4811780">
        <ele>2695.4</ele>
        <time>2021-04-17T20:12:24Z</time>
      </trkpt>
      <trkpt lat="4.9068440" lon="-75.4812330">
        <ele>2694.4</ele>
        <time>2021-04-17T20:12:25Z</time>
      </trkpt>
      <trkpt lat="4.9069050" lon="-75.4812820">
        <ele>2693.4</ele>
        <time>2021-04-17T20:12:26Z</time>
      </trkpt>
      <trkpt lat="4.9069700" lon="-75.4813220">
        <ele>2692.4</ele>
        <time>2021-04-17T20:12:27Z</time>
      </trkpt>
      <trkpt lat="4.9070260" lon="-75.4813640">
        <ele>2691.5</ele>
        <time>2021-04-17T20:12:28Z</time>
      </trkpt>
      <trkpt lat="4.9070730" lon="-75.4814110">
        <ele>2690.8</ele>
        <time>2021-04-17T20:12:29Z</time>
      </trkpt>
      <trkpt lat="4.9071140" lon="-75.4814630">
        <ele>2690.0</ele>
        <time>2021-04-17T20:12:30Z</time>
      </trkpt>
      <trkpt lat="4.9071500" lon="-75.4815220">
        <ele>2689.3</ele>
        <time>2021-04-17T20:12:31Z</time>
      </trkpt>
      <trkpt lat="4.9071840" lon="-75.4815860">
        <ele>2688.5</ele>
        <time>2021-04-17T20:12:32Z</time>
      </trkpt>
      <trkpt lat="4.9072170" lon="-75.4816530">
        <ele>2687.7</ele>
        <time>2021-04-17T20:12:33Z</time>
      </trkpt>
      <trkpt lat="4.9072510" lon="-75.4817210">
        <ele>2686.9</ele>
        <time>2021-04-17T20:12:34Z</time>
      </trkpt>
      <trkpt lat="4.9072860" lon="-75.4817910">
        <ele>2686.0</ele>
        <time>2021-04-17T20:12:35Z</time>
      </trkpt>
      <trkpt lat="4.9073220" lon="-75.4818620">
        <ele>2685.1</ele>
        <time>2021-04-17T20:12:36Z</time>
      </trkpt>
      <trkpt lat="4.9073570" lon="-75.4819350">
        <ele>2684.2</ele>
        <time>2021-04-17T20:12:37Z</time>
      </trkpt>
      <trkpt lat="4.9073940" lon="-75.4820080">
        <ele>2683.4</ele>
        <time>2021-04-17T20:12:38Z</time>
      </trkpt>
      <trkpt lat="4.9074300" lon="-75.4820840">
        <ele>2682.7</ele>
        <time>2021-04-17T20:12:39Z</time>
      </trkpt>
      <trkpt lat="4.9074640" lon="-75.4821620">
        <ele>2682.3</ele>
        <time>2021-04-17T20:12:40Z</time>
      </trkpt>
      <trkpt lat="4.9075060" lon="-75.4822380">
        <ele>2682.0</ele>
        <time>2021-04-17T20:12:41Z</time>
      </trkpt>
      <trkpt lat="4.9075550" lon="-75.4823050">
        <ele>2682.1</ele>
        <time>2021-04-17T20:12:42Z</time>
      </trkpt>
      <trkpt lat="4.9076080" lon="-75.4823670">
        <ele>2682.2</ele>
        <time>2021-04-17T20:12:43Z</time>
      </trkpt>
      <trkpt lat="4.9076630" lon="-75.4824250">
        <ele>2682.4</ele>
        <time>2021-04-17T20:12:44Z</time>
      </trkpt>
      <trkpt lat="4.9077210" lon="-75.4824740">
        <ele>2682.4</ele>
        <time>2021-04-17T20:12:45Z</time>
      </trkpt>
      <trkpt lat="4.9077820" lon="-75.4825170">
        <ele>2682.5</ele>
        <time>2021-04-17T20:12:46Z</time>
      </trkpt>
      <trkpt lat="4.9078450" lon="-75.4825520">
        <ele>2682.6</ele>
        <time>2021-04-17T20:12:47Z</time>
      </trkpt>
      <trkpt lat="4.9079080" lon="-75.4825800">
        <ele>2682.6</ele>
        <time>2021-04-17T20:12:48Z</time>
      </trkpt>
      <trkpt lat="4.9079710" lon="-75.4826100">
        <ele>2682.7</ele>
        <time>2021-04-17T20:12:49Z</time>
      </trkpt>
      <trkpt lat="4.9080300" lon="-75.4826450">
        <ele>2682.8</ele>
        <time>2021-04-17T20:12:50Z</time>
      </trkpt>
      <trkpt lat="4.9080890" lon="-75.4826820">
        <ele>2682.9</ele>
        <time>2021-04-17T20:12:51Z</time>
      </trkpt>
      <trkpt lat="4.9081470" lon="-75.4827170">
        <ele>2683.0</ele>
        <time>2021-04-17T20:12:52Z</time>
      </trkpt>
      <trkpt lat="4.9082040" lon="-75.4827510">
        <ele>2683.0</ele>
        <time>2021-04-17T20:12:53Z</time>
      </trkpt>
      <trkpt lat="4.9082620" lon="-75.4827850">
        <ele>2683.0</ele>
        <time>2021-04-17T20:12:54Z</time>
      </trkpt>
      <trkpt lat="4.9083210" lon="-75.4828170">
        <ele>2683.0</ele>
        <time>2021-04-17T20:12:55Z</time>
      </trkpt>
      <trkpt lat="4.9083810" lon="-75.4828490">
        <ele>2682.9</ele>
        <time>2021-04-17T20:12:56Z</time>
      </trkpt>
      <trkpt lat="4.9084400" lon="-75.4828840">
        <ele>2682.8</ele>
        <time>2021-04-17T20:12:57Z</time>
      </trkpt>
      <trkpt lat="4.9085000" lon="-75.4829190">
        <ele>2682.6</ele>
        <time>2021-04-17T20:12:58Z</time>
      </trkpt>
      <trkpt lat="4.9085590" lon="-75.4829540">
        <ele>2682.4</ele>
        <time>2021-04-17T20:12:59Z</time>
      </trkpt>
      <trkpt lat="4.9086180" lon="-75.4829900">
        <ele>2682.1</ele>
        <time>2021-04-17T20:13:00Z</time>
      </trkpt>
      <trkpt lat="4.9086810" lon="-75.4830310">
        <ele>2681.9</ele>
        <time>2021-04-17T20:13:01Z</time>
      </trkpt>
      <trkpt lat="4.9087460" lon="-75.4830740">
        <ele>2681.6</ele>
        <time>2021-04-17T20:13:02Z</time>
      </trkpt>
      <trkpt lat="4.9088140" lon="-75.4831170">
        <ele>2681.5</ele>
        <time>2021-04-17T20:13:03Z</time>
      </trkpt>
      <trkpt lat="4.9088850" lon="-75.4831620">
        <ele>2681.4</ele>
        <time>2021-04-17T20:13:04Z</time>
      </trkpt>
      <trkpt lat="4.9089580" lon="-75.4832070">
        <ele>2681.4</ele>
        <time>2021-04-17T20:13:05Z</time>
      </trkpt>
      <trkpt lat="4.9090300" lon="-75.4832550">
        <ele>2681.5</ele>
        <time>2021-04-17T20:13:06Z</time>
      </trkpt>
      <trkpt lat="4.9090980" lon="-75.4833030">
        <ele>2681.5</ele>
        <time>2021-04-17T20:13:07Z</time>
      </trkpt>
      <trkpt lat="4.9091650" lon="-75.4833520">
        <ele>2681.6</ele>
        <time>2021-04-17T20:13:08Z</time>
      </trkpt>
      <trkpt lat="4.9092340" lon="-75.4833920">
        <ele>2681.7</ele>
        <time>2021-04-17T20:13:09Z</time>
      </trkpt>
      <trkpt lat="4.9093060" lon="-75.4834240">
        <ele>2681.7</ele>
        <time>2021-04-17T20:13:10Z</time>
      </trkpt>
      <trkpt lat="4.9093770" lon="-75.4834480">
        <ele>2681.6</ele>
        <time>2021-04-17T20:13:11Z</time>
      </trkpt>
      <trkpt lat="4.9094490" lon="-75.4834650">
        <ele>2681.5</ele>
        <time>2021-04-17T20:13:12Z</time>
      </trkpt>
      <trkpt lat="4.9095200" lon="-75.4834800">
        <ele>2681.3</ele>
        <time>2021-04-17T20:13:13Z</time>
      </trkpt>
      <trkpt lat="4.9095940" lon="-75.4834950">
        <ele>2681.2</ele>
        <time>2021-04-17T20:13:14Z</time>
      </trkpt>
      <trkpt lat="4.9096690" lon="-75.4835120">
        <ele>2681.1</ele>
        <time>2021-04-17T20:13:15Z</time>
      </trkpt>
      <trkpt lat="4.9097450" lon="-75.4835300">
        <ele>2680.9</ele>
        <time>2021-04-17T20:13:16Z</time>
      </trkpt>
      <trkpt lat="4.9098240" lon="-75.4835510">
        <ele>2680.8</ele>
        <time>2021-04-17T20:13:17Z</time>
      </trkpt>
      <trkpt lat="4.9099020" lon="-75.4835750">
        <ele>2680.7</ele>
        <time>2021-04-17T20:13:18Z</time>
      </trkpt>
      <trkpt lat="4.9099810" lon="-75.4836030">
        <ele>2680.8</ele>
        <time>2021-04-17T20:13:19Z</time>
      </trkpt>
      <trkpt lat="4.9100580" lon="-75.4836350">
        <ele>2681.1</ele>
        <time>2021-04-17T20:13:20Z</time>
      </trkpt>
      <trkpt lat="4.9101330" lon="-75.4836660">
        <ele>2681.3</ele>
        <time>2021-04-17T20:13:21Z</time>
      </trkpt>
      <trkpt lat="4.9102050" lon="-75.4836960">
        <ele>2681.6</ele>
        <time>2021-04-17T20:13:22Z</time>
      </trkpt>
      <trkpt lat="4.9102750" lon="-75.4837280">
        <ele>2682.0</ele>
        <time>2021-04-17T20:13:23Z</time>
      </trkpt>
      <trkpt lat="4.9103400" lon="-75.4837600">
        <ele>2682.3</ele>
        <time>2021-04-17T20:13:24Z</time>
      </trkpt>
      <trkpt lat="4.9104020" lon="-75.4837960">
        <ele>2682.7</ele>
        <time>2021-04-17T20:13:25Z</time>
      </trkpt>
      <trkpt lat="4.9104620" lon="-75.4838310">
        <ele>2683.2</ele>
        <time>2021-04-17T20:13:26Z</time>
      </trkpt>
      <trkpt lat="4.9105200" lon="-75.4838670">
        <ele>2683.6</ele>
        <time>2021-04-17T20:13:27Z</time>
      </trkpt>
      <trkpt lat="4.9105740" lon="-75.4839030">
        <ele>2683.8</ele>
        <time>2021-04-17T20:13:28Z</time>
      </trkpt>
      <trkpt lat="4.9106270" lon="-75.4839360">
        <ele>2684.0</ele>
        <time>2021-04-17T20:13:29Z</time>
      </trkpt>
      <trkpt lat="4.9106760" lon="-75.4839750">
        <ele>2684.1</ele>
        <time>2021-04-17T20:13:30Z</time>
      </trkpt>
      <trkpt lat="4.9107220" lon="-75.4840190">
        <ele>2684.2</ele>
        <time>2021-04-17T20:13:31Z</time>
      </trkpt>
      <trkpt lat="4.9107670" lon="-75.4840630">
        <ele>2684.3</ele>
        <time>2021-04-17T20:13:32Z</time>
      </trkpt>
      <trkpt lat="4.9108070" lon="-75.4841070">
        <ele>2684.2</ele>
        <time>2021-04-17T20:13:33Z</time>
      </trkpt>
      <trkpt lat="4.9108430" lon="-75.4841530">
        <ele>2684.0</ele>
        <time>2021-04-17T20:13:34Z</time>
      </trkpt>
      <trkpt lat="4.9108730" lon="-75.4842030">
        <ele>2683.7</ele>
        <time>2021-04-17T20:13:35Z</time>
      </trkpt>
      <trkpt lat="4.9108980" lon="-75.4842570">
        <ele>2683.3</ele>
        <time>2021-04-17T20:13:36Z</time>
      </trkpt>
      <trkpt lat="4.9109220" lon="-75.4843130">
        <ele>2682.7</ele>
        <time>2021-04-17T20:13:37Z</time>
      </trkpt>
      <trkpt lat="4.9109440" lon="-75.4843740">
        <ele>2682.0</ele>
        <time>2021-04-17T20:13:38Z</time>
      </trkpt>
      <trkpt lat="4.9109650" lon="-75.4844440">
        <ele>2681.2</ele>
        <time>2021-04-17T20:13:39Z</time>
      </trkpt>
      <trkpt lat="4.9109940" lon="-75.4845110">
        <ele>2680.3</ele>
        <time>2021-04-17T20:13:40Z</time>
      </trkpt>
      <trkpt lat="4.9110360" lon="-75.4845790">
        <ele>2679.3</ele>
        <time>2021-04-17T20:13:41Z</time>
      </trkpt>
      <trkpt lat="4.9110900" lon="-75.4846520">
        <ele>2678.3</ele>
        <time>2021-04-17T20:13:42Z</time>
      </trkpt>
      <trkpt lat="4.9111510" lon="-75.4847280">
        <ele>2677.3</ele>
        <time>2021-04-17T20:13:43Z</time>
      </trkpt>
      <trkpt lat="4.9112180" lon="-75.4848050">
        <ele>2676.4</ele>
        <time>2021-04-17T20:13:44Z</time>
      </trkpt>
      <trkpt lat="4.9112900" lon="-75.4848810">
        <ele>2675.5</ele>
        <time>2021-04-17T20:13:45Z</time>
      </trkpt>
      <trkpt lat="4.9113630" lon="-75.4849570">
        <ele>2674.6</ele>
        <time>2021-04-17T20:13:46Z</time>
      </trkpt>
      <trkpt lat="4.9114360" lon="-75.4850370">
        <ele>2673.7</ele>
        <time>2021-04-17T20:13:47Z</time>
      </trkpt>
      <trkpt lat="4.9115080" lon="-75.4851200">
        <ele>2672.8</ele>
        <time>2021-04-17T20:13:48Z</time>
      </trkpt>
      <trkpt lat="4.9115810" lon="-75.4852050">
        <ele>2671.8</ele>
        <time>2021-04-17T20:13:49Z</time>
      </trkpt>
      <trkpt lat="4.9116560" lon="-75.4852910">
        <ele>2670.7</ele>
        <time>2021-04-17T20:13:50Z</time>
      </trkpt>
      <trkpt lat="4.9117300" lon="-75.4853770">
        <ele>2669.8</ele>
        <time>2021-04-17T20:13:51Z</time>
      </trkpt>
      <trkpt lat="4.9118040" lon="-75.4854600">
        <ele>2668.8</ele>
        <time>2021-04-17T20:13:52Z</time>
      </trkpt>
      <trkpt lat="4.9118800" lon="-75.4855380">
        <ele>2667.9</ele>
        <time>2021-04-17T20:13:53Z</time>
      </trkpt>
      <trkpt lat="4.9119580" lon="-75.4856110">
        <ele>2667.0</ele>
        <time>2021-04-17T20:13:54Z</time>
      </trkpt>
      <trkpt lat="4.9120390" lon="-75.4856830">
        <ele>2666.0</ele>
        <time>2021-04-17T20:13:55Z</time>
      </trkpt>
      <trkpt lat="4.9121240" lon="-75.4857530">
        <ele>2665.2</ele>
        <time>2021-04-17T20:13:56Z</time>
      </trkpt>
      <trkpt lat="4.9122130" lon="-75.4858190">
        <ele>2664.4</ele>
        <time>2021-04-17T20:13:57Z</time>
      </trkpt>
      <trkpt lat="4.9123050" lon="-75.4858810">
        <ele>2663.6</ele>
        <time>2021-04-17T20:13:58Z</time>
      </trkpt>
      <trkpt lat="4.9123950" lon="-75.4859400">
        <ele>2662.6</ele>
        <time>2021-04-17T20:13:59Z</time>
      </trkpt>
      <trkpt lat="4.9124720" lon="-75.4859900">
        <ele>2661.8</ele>
        <time>2021-04-17T20:14:00Z</time>
      </trkpt>
      <trkpt lat="4.9125410" lon="-75.4860280">
        <ele>2661.1</ele>
        <time>2021-04-17T20:14:01Z</time>
      </trkpt>
      <trkpt lat="4.9126050" lon="-75.4860550">
        <ele>2660.5</ele>
        <time>2021-04-17T20:14:02Z</time>
      </trkpt>
      <trkpt lat="4.9126690" lon="-75.4860680">
        <ele>2659.9</ele>
        <time>2021-04-17T20:14:03Z</time>
      </trkpt>
      <trkpt lat="4.9127340" lon="-75.4860580">
        <ele>2659.4</ele>
        <time>2021-04-17T20:14:04Z</time>
      </trkpt>
      <trkpt lat="4.9127920" lon="-75.4860120">
        <ele>2658.8</ele>
        <time>2021-04-17T20:14:05Z</time>
      </trkpt>
      <trkpt lat="4.9128330" lon="-75.4859470">
        <ele>2658.3</ele>
        <time>2021-04-17T20:14:06Z</time>
      </trkpt>
      <trkpt lat="4.9128560" lon="-75.4858790">
        <ele>2657.9</ele>
        <time>2021-04-17T20:14:07Z</time>
      </trkpt>
      <trkpt lat="4.9128400" lon="-75.4858040">
        <ele>2657.4</ele>
        <time>2021-04-17T20:14:08Z</time>
      </trkpt>
      <trkpt lat="4.9127960" lon="-75.4857420">
        <ele>2657.0</ele>
        <time>2021-04-17T20:14:09Z</time>
      </trkpt>
      <trkpt lat="4.9127370" lon="-75.4856950">
        <ele>2656.6</ele>
        <time>2021-04-17T20:14:10Z</time>
      </trkpt>
      <trkpt lat="4.9126730" lon="-75.4856520">
        <ele>2656.2</ele>
        <time>2021-04-17T20:14:11Z</time>
      </trkpt>
      <trkpt lat="4.9126090" lon="-75.4856120">
        <ele>2655.7</ele>
        <time>2021-04-17T20:14:12Z</time>
      </trkpt>
      <trkpt lat="4.9125540" lon="-75.4855680">
        <ele>2655.2</ele>
        <time>2021-04-17T20:14:13Z</time>
      </trkpt>
      <trkpt lat="4.9125200" lon="-75.4855130">
        <ele>2654.8</ele>
        <time>2021-04-17T20:14:14Z</time>
      </trkpt>
      <trkpt lat="4.9125070" lon="-75.4854510">
        <ele>2654.4</ele>
        <time>2021-04-17T20:14:15Z</time>
      </trkpt>
      <trkpt lat="4.9125110" lon="-75.4853900">
        <ele>2653.9</ele>
        <time>2021-04-17T20:14:16Z</time>
      </trkpt>
      <trkpt lat="4.9125320" lon="-75.4853450">
        <ele>2653.6</ele>
        <time>2021-04-17T20:14:17Z</time>
      </trkpt>
      <trkpt lat="4.9125640" lon="-75.4853100">
        <ele>2653.3</ele>
        <time>2021-04-17T20:14:18Z</time>
      </trkpt>
      <trkpt lat="4.9126100" lon="-75.4852860">
        <ele>2652.9</ele>
        <time>2021-04-17T20:14:19Z</time>
      </trkpt>
      <trkpt lat="4.9126670" lon="-75.4852670">
        <ele>2652.5</ele>
        <time>2021-04-17T20:14:20Z</time>
      </trkpt>
      <trkpt lat="4.9127330" lon="-75.4852510">
        <ele>2652.0</ele>
        <time>2021-04-17T20:14:21Z</time>
      </trkpt>
      <trkpt lat="4.9128010" lon="-75.4852360">
        <ele>2651.4</ele>
        <time>2021-04-17T20:14:22Z</time>
      </trkpt>
      <trkpt lat="4.9128720" lon="-75.4852200">
        <ele>2650.7</ele>
        <time>2021-04-17T20:14:23Z</time>
      </trkpt>
      <trkpt lat="4.9129450" lon="-75.4851940">
        <ele>2650.0</ele>
        <time>2021-04-17T20:14:24Z</time>
      </trkpt>
      <trkpt lat="4.9130180" lon="-75.4851600">
        <ele>2649.2</ele>
        <time>2021-04-17T20:14:25Z</time>
      </trkpt>
      <trkpt lat="4.9130940" lon="-75.4851220">
        <ele>2648.3</ele>
        <time>2021-04-17T20:14:26Z</time>
      </trkpt>
      <trkpt lat="4.9131740" lon="-75.4850850">
        <ele>2647.5</ele>
        <time>2021-04-17T20:14:27Z</time>
      </trkpt>
      <trkpt lat="4.9132590" lon="-75.4850520">
        <ele>2646.8</ele>
        <time>2021-04-17T20:14:28Z</time>
      </trkpt>
      <trkpt lat="4.9133400" lon="-75.4850220">
        <ele>2646.2</ele>
        <time>2021-04-17T20:14:29Z</time>
      </trkpt>
      <trkpt lat="4.9134130" lon="-75.4849970">
        <ele>2645.4</ele>
        <time>2021-04-17T20:14:30Z</time>
      </trkpt>
      <trkpt lat="4.9134820" lon="-75.4849720">
        <ele>2644.6</ele>
        <time>2021-04-17T20:14:31Z</time>
      </trkpt>
      <trkpt lat="4.9135400" lon="-75.4849350">
        <ele>2643.7</ele>
        <time>2021-04-17T20:14:32Z</time>
      </trkpt>
      <trkpt lat="4.9135850" lon="-75.4848870">
        <ele>2642.8</ele>
        <time>2021-04-17T20:14:33Z</time>
      </trkpt>
      <trkpt lat="4.9136130" lon="-75.4848340">
        <ele>2641.9</ele>
        <time>2021-04-17T20:14:34Z</time>
      </trkpt>
      <trkpt lat="4.9136270" lon="-75.4847820">
        <ele>2641.1</ele>
        <time>2021-04-17T20:14:35Z</time>
      </trkpt>
      <trkpt lat="4.9136300" lon="-75.4847360">
        <ele>2640.4</ele>
        <time>2021-04-17T20:14:36Z</time>
      </trkpt>
      <trkpt lat="4.9135920" lon="-75.4846940">
        <ele>2639.6</ele>
        <time>2021-04-17T20:14:37Z</time>
      </trkpt>
      <trkpt lat="4.9135350" lon="-75.4846470">
        <ele>2638.6</ele>
        <time>2021-04-17T20:14:38Z</time>
      </trkpt>
      <trkpt lat="4.9134840" lon="-75.4845880">
        <ele>2637.6</ele>
        <time>2021-04-17T20:14:39Z</time>
      </trkpt>
      <trkpt lat="4.9134540" lon="-75.4845200">
        <ele>2636.6</ele>
        <time>2021-04-17T20:14:40Z</time>
      </trkpt>
      <trkpt lat="4.9134510" lon="-75.4844550">
        <ele>2635.8</ele>
        <time>2021-04-17T20:14:41Z</time>
      </trkpt>
      <trkpt lat="4.9134650" lon="-75.4843900">
        <ele>2635.0</ele>
        <time>2021-04-17T20:14:42Z</time>
      </trkpt>
      <trkpt lat="4.9134890" lon="-75.4843260">
        <ele>2634.2</ele>
        <time>2021-04-17T20:14:43Z</time>
      </trkpt>
      <trkpt lat="4.9135170" lon="-75.4842550">
        <ele>2633.3</ele>
        <time>2021-04-17T20:14:44Z</time>
      </trkpt>
      <trkpt lat="4.9135450" lon="-75.4841760">
        <ele>2632.3</ele>
        <time>2021-04-17T20:14:45Z</time>
      </trkpt>
      <trkpt lat="4.9135750" lon="-75.4840960">
        <ele>2631.4</ele>
        <time>2021-04-17T20:14:46Z</time>
      </trkpt>
      <trkpt lat="4.9136110" lon="-75.4840140">
        <ele>2630.4</ele>
        <time>2021-04-17T20:14:47Z</time>
      </trkpt>
      <trkpt lat="4.9136480" lon="-75.4839290">
        <ele>2629.3</ele>
        <time>2021-04-17T20:14:48Z</time>
      </trkpt>
      <trkpt lat="4.9136860" lon="-75.4838460">
        <ele>2628.1</ele>
        <time>2021-04-17T20:14:49Z</time>
      </trkpt>
      <trkpt lat="4.9137230" lon="-75.4837680">
        <ele>2627.0</ele>
        <time>2021-04-17T20:14:50Z</time>
      </trkpt>
      <trkpt lat="4.9137540" lon="-75.4836870">
        <ele>2625.9</ele>
        <time>2021-04-17T20:14:51Z</time>
      </trkpt>
      <trkpt lat="4.9137790" lon="-75.4836030">
        <ele>2624.8</ele>
        <time>2021-04-17T20:14:52Z</time>
      </trkpt>
      <trkpt lat="4.9138040" lon="-75.4835190">
        <ele>2623.8</ele>
        <time>2021-04-17T20:14:53Z</time>
      </trkpt>
      <trkpt lat="4.9138400" lon="-75.4834360">
        <ele>2622.9</ele>
        <time>2021-04-17T20:14:54Z</time>
      </trkpt>
      <trkpt lat="4.9138820" lon="-75.4833600">
        <ele>2621.9</ele>
        <time>2021-04-17T20:14:55Z</time>
      </trkpt>
      <trkpt lat="4.9139320" lon="-75.4832900">
        <ele>2621.0</ele>
        <time>2021-04-17T20:14:56Z</time>
      </trkpt>
      <trkpt lat="4.9139810" lon="-75.4832200">
        <ele>2620.0</ele>
        <time>2021-04-17T20:14:57Z</time>
      </trkpt>
      <trkpt lat="4.9140250" lon="-75.4831480">
        <ele>2618.9</ele>
        <time>2021-04-17T20:14:58Z</time>
      </trkpt>
      <trkpt lat="4.9140680" lon="-75.4830770">
        <ele>2617.9</ele>
        <time>2021-04-17T20:14:59Z</time>
      </trkpt>
      <trkpt lat="4.9141120" lon="-75.4830040">
        <ele>2616.8</ele>
        <time>2021-04-17T20:15:00Z</time>
      </trkpt>
      <trkpt lat="4.9141550" lon="-75.4829320">
        <ele>2615.9</ele>
        <time>2021-04-17T20:15:01Z</time>
      </trkpt>
      <trkpt lat="4.9141930" lon="-75.4828610">
        <ele>2615.1</ele>
        <time>2021-04-17T20:15:02Z</time>
      </trkpt>
      <trkpt lat="4.9142270" lon="-75.4827890">
        <ele>2614.3</ele>
        <time>2021-04-17T20:15:03Z</time>
      </trkpt>
      <trkpt lat="4.9142560" lon="-75.4827150">
        <ele>2613.3</ele>
        <time>2021-04-17T20:15:04Z</time>
      </trkpt>
      <trkpt lat="4.9142830" lon="-75.4826420">
        <ele>2612.4</ele>
        <time>2021-04-17T20:15:05Z</time>
      </trkpt>
      <trkpt lat="4.9143090" lon="-75.4825660">
        <ele>2611.3</ele>
        <time>2021-04-17T20:15:06Z</time>
      </trkpt>
      <trkpt lat="4.9143370" lon="-75.4824870">
        <ele>2610.3</ele>
        <time>2021-04-17T20:15:07Z</time>
      </trkpt>
      <trkpt lat="4.9143630" lon="-75.4824010">
        <ele>2609.3</ele>
        <time>2021-04-17T20:15:08Z</time>
      </trkpt>
      <trkpt lat="4.9143870" lon="-75.4823120">
        <ele>2608.3</ele>
        <time>2021-04-17T20:15:09Z</time>
      </trkpt>
      <trkpt lat="4.9144110" lon="-75.4822170">
        <ele>2607.3</ele>
        <time>2021-04-17T20:15:10Z</time>
      </trkpt>
      <trkpt lat="4.9144400" lon="-75.4821250">
        <ele>2606.3</ele>
        <time>2021-04-17T20:15:11Z</time>
      </trkpt>
      <trkpt lat="4.9144780" lon="-75.4820400">
        <ele>2605.3</ele>
        <time>2021-04-17T20:15:12Z</time>
      </trkpt>
      <trkpt lat="4.9145280" lon="-75.4819600">
        <ele>2604.3</ele>
        <time>2021-04-17T20:15:13Z</time>
      </trkpt>
      <trkpt lat="4.9145840" lon="-75.4818810">
        <ele>2603.3</ele>
        <time>2021-04-17T20:15:14Z</time>
      </trkpt>
      <trkpt lat="4.9146460" lon="-75.4818050">
        <ele>2602.2</ele>
        <time>2021-04-17T20:15:15Z</time>
      </trkpt>
      <trkpt lat="4.9147050" lon="-75.4817280">
        <ele>2601.1</ele>
        <time>2021-04-17T20:15:16Z</time>
      </trkpt>
      <trkpt lat="4.9147630" lon="-75.4816540">
        <ele>2600.0</ele>
        <time>2021-04-17T20:15:17Z</time>
      </trkpt>
      <trkpt lat="4.9148230" lon="-75.4815830">
        <ele>2598.9</ele>
        <time>2021-04-17T20:15:18Z</time>
      </trkpt>
      <trkpt lat="4.9148800" lon="-75.4815100">
        <ele>2597.8</ele>
        <time>2021-04-17T20:15:19Z</time>
      </trkpt>
      <trkpt lat="4.9149330" lon="-75.4814330">
        <ele>2596.7</ele>
        <time>2021-04-17T20:15:20Z</time>
      </trkpt>
      <trkpt lat="4.9149840" lon="-75.4813510">
        <ele>2595.4</ele>
        <time>2021-04-17T20:15:21Z</time>
      </trkpt>
      <trkpt lat="4.9150330" lon="-75.4812630">
        <ele>2594.1</ele>
        <time>2021-04-17T20:15:22Z</time>
      </trkpt>
      <trkpt lat="4.9150760" lon="-75.4811670">
        <ele>2592.9</ele>
        <time>2021-04-17T20:15:23Z</time>
      </trkpt>
      <trkpt lat="4.9151220" lon="-75.4810680">
        <ele>2591.6</ele>
        <time>2021-04-17T20:15:24Z</time>
      </trkpt>
      <trkpt lat="4.9151650" lon="-75.4809680">
        <ele>2590.4</ele>
        <time>2021-04-17T20:15:25Z</time>
      </trkpt>
      <trkpt lat="4.9152090" lon="-75.4808730">
        <ele>2589.1</ele>
        <time>2021-04-17T20:15:26Z</time>
      </trkpt>
      <trkpt lat="4.9152560" lon="-75.4807800">
        <ele>2587.8</ele>
        <time>2021-04-17T20:15:27Z</time>
      </trkpt>
      <trkpt lat="4.9153020" lon="-75.4806910">
        <ele>2586.6</ele>
        <time>2021-04-17T20:15:28Z</time>
      </trkpt>
      <trkpt lat="4.9153400" lon="-75.4806120">
        <ele>2585.6</ele>
        <time>2021-04-17T20:15:29Z</time>
      </trkpt>
      <trkpt lat="4.9153740" lon="-75.4805470">
        <ele>2584.7</ele>
        <time>2021-04-17T20:15:30Z</time>
      </trkpt>
      <trkpt lat="4.9154330" lon="-75.4805110">
        <ele>2583.8</ele>
        <time>2021-04-17T20:15:31Z</time>
      </trkpt>
      <trkpt lat="4.9155010" lon="-75.4804790">
        <ele>2582.8</ele>
        <time>2021-04-17T20:15:32Z</time>
      </trkpt>
      <trkpt lat="4.9155800" lon="-75.4804760">
        <ele>2581.7</ele>
        <time>2021-04-17T20:15:33Z</time>
      </trkpt>
      <trkpt lat="4.9156490" lon="-75.4805050">
        <ele>2580.6</ele>
        <time>2021-04-17T20:15:34Z</time>
      </trkpt>
      <trkpt lat="4.9157140" lon="-75.4805740">
        <ele>2579.4</ele>
        <time>2021-04-17T20:15:35Z</time>
      </trkpt>
      <trkpt lat="4.9157600" lon="-75.4806390">
        <ele>2578.3</ele>
        <time>2021-04-17T20:15:36Z</time>
      </trkpt>
      <trkpt lat="4.9157820" lon="-75.4807070">
        <ele>2577.3</ele>
        <time>2021-04-17T20:15:37Z</time>
      </trkpt>
      <trkpt lat="4.9157700" lon="-75.4807690">
        <ele>2576.4</ele>
        <time>2021-04-17T20:15:38Z</time>
      </trkpt>
      <trkpt lat="4.9157420" lon="-75.4808400">
        <ele>2575.2</ele>
        <time>2021-04-17T20:15:39Z</time>
      </trkpt>
      <trkpt lat="4.9157000" lon="-75.4809120">
        <ele>2574.0</ele>
        <time>2021-04-17T20:15:40Z</time>
      </trkpt>
      <trkpt lat="4.9156770" lon="-75.4809890">
        <ele>2572.8</ele>
        <time>2021-04-17T20:15:41Z</time>
      </trkpt>
      <trkpt lat="4.9156630" lon="-75.4810600">
        <ele>2571.7</ele>
        <time>2021-04-17T20:15:42Z</time>
      </trkpt>
      <trkpt lat="4.9156780" lon="-75.4811410">
        <ele>2570.3</ele>
        <time>2021-04-17T20:15:43Z</time>
      </trkpt>
      <trkpt lat="4.9157120" lon="-75.4812290">
        <ele>2568.6</ele>
        <time>2021-04-17T20:15:44Z</time>
      </trkpt>
      <trkpt lat="4.9157510" lon="-75.4813220">
        <ele>2567.0</ele>
        <time>2021-04-17T20:15:45Z</time>
      </trkpt>
      <trkpt lat="4.9157860" lon="-75.4814190">
        <ele>2565.3</ele>
        <time>2021-04-17T20:15:46Z</time>
      </trkpt>
      <trkpt lat="4.9158150" lon="-75.4815170">
        <ele>2563.7</ele>
        <time>2021-04-17T20:15:47Z</time>
      </trkpt>
      <trkpt lat="4.9158360" lon="-75.4816190">
        <ele>2562.0</ele>
        <time>2021-04-17T20:15:48Z</time>
      </trkpt>
      <trkpt lat="4.9158480" lon="-75.4817240">
        <ele>2560.4</ele>
        <time>2021-04-17T20:15:49Z</time>
      </trkpt>
      <trkpt lat="4.9158550" lon="-75.4818330">
        <ele>2558.8</ele>
        <time>2021-04-17T20:15:50Z</time>
      </trkpt>
      <trkpt lat="4.9158640" lon="-75.4819430">
        <ele>2557.2</ele>
        <time>2021-04-17T20:15:51Z</time>
      </trkpt>
      <trkpt lat="4.9158730" lon="-75.4820440">
        <ele>2555.6</ele>
        <time>2021-04-17T20:15:52Z</time>
      </trkpt>
      <trkpt lat="4.9158820" lon="-75.4821360">
        <ele>2554.1</ele>
        <time>2021-04-17T20:15:53Z</time>
      </trkpt>
      <trkpt lat="4.9158930" lon="-75.4822240">
        <ele>2552.5</ele>
        <time>2021-04-17T20:15:54Z</time>
      </trkpt>
      <trkpt lat="4.9159040" lon="-75.4823070">
        <ele>2551.0</ele>
        <time>2021-04-17T20:15:55Z</time>
      </trkpt>
      <trkpt lat="4.9159160" lon="-75.4823890">
        <ele>2549.6</ele>
        <time>2021-04-17T20:15:56Z</time>
      </trkpt>
      <trkpt lat="4.9159300" lon="-75.4824720">
        <ele>2548.2</ele>
        <time>2021-04-17T20:15:57Z</time>
      </trkpt>
      <trkpt lat="4.9159420" lon="-75.4825570">
        <ele>2546.7</ele>
        <time>2021-04-17T20:15:58Z</time>
      </trkpt>
      <trkpt lat="4.9159530" lon="-75.4826550">
        <ele>2545.2</ele>
        <time>2021-04-17T20:15:59Z</time>
      </trkpt>
      <trkpt lat="4.9159710" lon="-75.4827560">
        <ele>2543.7</ele>
        <time>2021-04-17T20:16:00Z</time>
      </trkpt>
      <trkpt lat="4.9159940" lon="-75.4828570">
        <ele>2542.5</ele>
        <time>2021-04-17T20:16:01Z</time>
      </trkpt>
      <trkpt lat="4.9160190" lon="-75.4829610">
        <ele>2541.3</ele>
        <time>2021-04-17T20:16:02Z</time>
      </trkpt>
      <trkpt lat="4.9160410" lon="-75.4830680">
        <ele>2539.9</ele>
        <time>2021-04-17T20:16:03Z</time>
      </trkpt>
      <trkpt lat="4.9160610" lon="-75.4831760">
        <ele>2538.6</ele>
        <time>2021-04-17T20:16:04Z</time>
      </trkpt>
      <trkpt lat="4.9160780" lon="-75.4832900">
        <ele>2537.1</ele>
        <time>2021-04-17T20:16:05Z</time>
      </trkpt>
      <trkpt lat="4.9160890" lon="-75.4834060">
        <ele>2535.5</ele>
        <time>2021-04-17T20:16:06Z</time>
      </trkpt>
      <trkpt lat="4.9160900" lon="-75.4835230">
        <ele>2534.1</ele>
        <time>2021-04-17T20:16:07Z</time>
      </trkpt>
      <trkpt lat="4.9160810" lon="-75.4836360">
        <ele>2532.7</ele>
        <time>2021-04-17T20:16:08Z</time>
      </trkpt>
      <trkpt lat="4.9160670" lon="-75.4837390">
        <ele>2531.5</ele>
        <time>2021-04-17T20:16:09Z</time>
      </trkpt>
      <trkpt lat="4.9160540" lon="-75.4838350">
        <ele>2530.4</ele>
        <time>2021-04-17T20:16:10Z</time>
      </trkpt>
      <trkpt lat="4.9160500" lon="-75.4839320">
        <ele>2528.8</ele>
        <time>2021-04-17T20:16:11Z</time>
      </trkpt>
      <trkpt lat="4.9160550" lon="-75.4840270">
        <ele>2527.3</ele>
        <time>2021-04-17T20:16:12Z</time>
      </trkpt>
      <trkpt lat="4.9160730" lon="-75.4841210">
        <ele>2525.9</ele>
        <time>2021-04-17T20:16:13Z</time>
      </trkpt>
      <trkpt lat="4.9161040" lon="-75.4842030">
        <ele>2524.5</ele>
        <time>2021-04-17T20:16:14Z</time>
      </trkpt>
      <trkpt lat="4.9161490" lon="-75.4842720">
        <ele>2523.2</ele>
        <time>2021-04-17T20:16:15Z</time>
      </trkpt>
      <trkpt lat="4.9162090" lon="-75.4843200">
        <ele>2521.8</ele>
        <time>2021-04-17T20:16:16Z</time>
      </trkpt>
      <trkpt lat="4.9162790" lon="-75.4843570">
        <ele>2520.4</ele>
        <time>2021-04-17T20:16:17Z</time>
      </trkpt>
      <trkpt lat="4.9163550" lon="-75.4843720">
        <ele>2518.9</ele>
        <time>2021-04-17T20:16:18Z</time>
      </trkpt>
      <trkpt lat="4.9164310" lon="-75.4843850">
        <ele>2517.5</ele>
        <time>2021-04-17T20:16:19Z</time>
      </trkpt>
      <trkpt lat="4.9165050" lon="-75.4844040">
        <ele>2516.1</ele>
        <time>2021-04-17T20:16:20Z</time>
      </trkpt>
      <trkpt lat="4.9165740" lon="-75.4844390">
        <ele>2514.7</ele>
        <time>2021-04-17T20:16:21Z</time>
      </trkpt>
      <trkpt lat="4.9166280" lon="-75.4844920">
        <ele>2513.4</ele>
        <time>2021-04-17T20:16:22Z</time>
      </trkpt>
      <trkpt lat="4.9166700" lon="-75.4845590">
        <ele>2512.2</ele>
        <time>2021-04-17T20:16:23Z</time>
      </trkpt>
      <trkpt lat="4.9167100" lon="-75.4846340">
        <ele>2510.8</ele>
        <time>2021-04-17T20:16:24Z</time>
      </trkpt>
      <trkpt lat="4.9167530" lon="-75.4847160">
        <ele>2509.5</ele>
        <time>2021-04-17T20:16:25Z</time>
      </trkpt>
      <trkpt lat="4.9167940" lon="-75.4848050">
        <ele>2508.2</ele>
        <time>2021-04-17T20:16:26Z</time>
      </trkpt>
      <trkpt lat="4.9168340" lon="-75.4848990">
        <ele>2507.0</ele>
        <time>2021-04-17T20:16:27Z</time>
      </trkpt>
      <trkpt lat="4.9168730" lon="-75.4849940">
        <ele>2506.0</ele>
        <time>2021-04-17T20:16:28Z</time>
      </trkpt>
      <trkpt lat="4.9169130" lon="-75.4850910">
        <ele>2505.3</ele>
        <time>2021-04-17T20:16:29Z</time>
      </trkpt>
      <trkpt lat="4.9169480" lon="-75.4851870">
        <ele>2504.6</ele>
        <time>2021-04-17T20:16:30Z</time>
      </trkpt>
      <trkpt lat="4.9169790" lon="-75.4852810">
        <ele>2504.0</ele>
        <time>2021-04-17T20:16:31Z</time>
      </trkpt>
      <trkpt lat="4.9170150" lon="-75.4853660">
        <ele>2503.5</ele>
        <time>2021-04-17T20:16:32Z</time>
      </trkpt>
      <trkpt lat="4.9170650" lon="-75.4854330">
        <ele>2503.3</ele>
        <time>2021-04-17T20:16:33Z</time>
      </trkpt>
      <trkpt lat="4.9171230" lon="-75.4854810">
        <ele>2504.2</ele>
        <time>2021-04-17T20:16:34Z</time>
      </trkpt>
      <trkpt lat="4.9171820" lon="-75.4855190">
        <ele>2505.1</ele>
        <time>2021-04-17T20:16:35Z</time>
      </trkpt>
      <trkpt lat="4.9172460" lon="-75.4855440">
        <ele>2505.9</ele>
        <time>2021-04-17T20:16:36Z</time>
      </trkpt>
      <trkpt lat="4.9173060" lon="-75.4855630">
        <ele>2506.1</ele>
        <time>2021-04-17T20:16:37Z</time>
      </trkpt>
      <trkpt lat="4.9173520" lon="-75.4855810">
        <ele>2506.3</ele>
        <time>2021-04-17T20:16:38Z</time>
      </trkpt>
      <trkpt lat="4.9173850" lon="-75.4855990">
        <ele>2506.4</ele>
        <time>2021-04-17T20:16:39Z</time>
      </trkpt>
      <trkpt lat="4.9174040" lon="-75.4856150">
        <ele>2506.5</ele>
        <time>2021-04-17T20:16:40Z</time>
      </trkpt>
      <trkpt lat="4.9174110" lon="-75.4856260">
        <ele>2506.6</ele>
        <time>2021-04-17T20:16:41Z</time>
      </trkpt>
      <trkpt lat="4.9174100" lon="-75.4856260">
        <ele>2506.6</ele>
        <time>2021-04-17T20:16:42Z</time>
      </trkpt>
      <trkpt lat="4.9174060" lon="-75.4856230">
        <ele>2506.6</ele>
        <time>2021-04-17T20:16:43Z</time>
      </trkpt>
      <trkpt lat="4.9174070" lon="-75.4856210">
        <ele>2506.6</ele>
        <time>2021-04-17T20:16:44Z</time>
      </trkpt>
      <trkpt lat="4.9174080" lon="-75.4856210">
        <ele>2506.6</ele>
        <time>2021-04-17T20:16:45Z</time>
      </trkpt>
      <trkpt lat="4.9174090" lon="-75.4856170">
        <ele>2506.6</ele>
        <time>2021-04-17T20:16:46Z</time>
      </trkpt>
      <trkpt lat="4.9174400" lon="-75.4856370">
        <ele>2506.7</ele>
        <time>2021-04-17T20:16:56Z</time>
      </trkpt>
      <trkpt lat="4.9174580" lon="-75.4856620">
        <ele>2506.8</ele>
        <time>2021-04-17T20:16:57Z</time>
      </trkpt>
      <trkpt lat="4.9174870" lon="-75.4856980">
        <ele>2507.0</ele>
        <time>2021-04-17T20:16:58Z</time>
      </trkpt>
      <trkpt lat="4.9175250" lon="-75.4857370">
        <ele>2507.2</ele>
        <time>2021-04-17T20:16:59Z</time>
      </trkpt>
      <trkpt lat="4.9175490" lon="-75.4857900">
        <ele>2507.4</ele>
        <time>2021-04-17T20:17:00Z</time>
      </trkpt>
      <trkpt lat="4.9175730" lon="-75.4858500">
        <ele>2507.7</ele>
        <time>2021-04-17T20:17:01Z</time>
      </trkpt>
      <trkpt lat="4.9175930" lon="-75.4859110">
        <ele>2508.1</ele>
        <time>2021-04-17T20:17:02Z</time>
      </trkpt>
      <trkpt lat="4.9176120" lon="-75.4859760">
        <ele>2508.4</ele>
        <time>2021-04-17T20:17:03Z</time>
      </trkpt>
      <trkpt lat="4.9176290" lon="-75.4860440">
        <ele>2508.7</ele>
        <time>2021-04-17T20:17:04Z</time>
      </trkpt>
      <trkpt lat="4.9176450" lon="-75.4861210">
        <ele>2509.0</ele>
        <time>2021-04-17T20:17:05Z</time>
      </trkpt>
      <trkpt lat="4.9176650" lon="-75.4862030">
        <ele>2509.3</ele>
        <time>2021-04-17T20:17:06Z</time>
      </trkpt>
      <trkpt lat="4.9176900" lon="-75.4862860">
        <ele>2509.6</ele>
        <time>2021-04-17T20:17:07Z</time>
      </trkpt>
      <trkpt lat="4.9177210" lon="-75.4863690">
        <ele>2509.7</ele>
        <time>2021-04-17T20:17:08Z</time>
      </trkpt>
      <trkpt lat="4.9177560" lon="-75.4864560">
        <ele>2509.8</ele>
        <time>2021-04-17T20:17:09Z</time>
      </trkpt>
      <trkpt lat="4.9177880" lon="-75.4865410">
        <ele>2509.9</ele>
        <time>2021-04-17T20:17:10Z</time>
      </trkpt>
      <trkpt lat="4.9178040" lon="-75.4866200">
        <ele>2509.9</ele>
        <time>2021-04-17T20:17:11Z</time>
      </trkpt>
      <trkpt lat="4.9177850" lon="-75.4867050">
        <ele>2510.0</ele>
        <time>2021-04-17T20:17:12Z</time>
      </trkpt>
      <trkpt lat="4.9177700" lon="-75.4867930">
        <ele>2510.1</ele>
        <time>2021-04-17T20:17:13Z</time>
      </trkpt>
      <trkpt lat="4.9177440" lon="-75.4868820">
        <ele>2510.5</ele>
        <time>2021-04-17T20:17:14Z</time>
      </trkpt>
      <trkpt lat="4.9177330" lon="-75.4869770">
        <ele>2510.9</ele>
        <time>2021-04-17T20:17:15Z</time>
      </trkpt>
      <trkpt lat="4.9177320" lon="-75.4870710">
        <ele>2511.4</ele>
        <time>2021-04-17T20:17:16Z</time>
      </trkpt>
      <trkpt lat="4.9177510" lon="-75.4871770">
        <ele>2512.1</ele>
        <time>2021-04-17T20:17:17Z</time>
      </trkpt>
      <trkpt lat="4.9177910" lon="-75.4872600">
        <ele>2512.6</ele>
        <time>2021-04-17T20:17:18Z</time>
      </trkpt>
      <trkpt lat="4.9178330" lon="-75.4873520">
        <ele>2513.2</ele>
        <time>2021-04-17T20:17:19Z</time>
      </trkpt>
      <trkpt lat="4.9178920" lon="-75.4874390">
        <ele>2513.9</ele>
        <time>2021-04-17T20:17:20Z</time>
      </trkpt>
      <trkpt lat="4.9179490" lon="-75.4875200">
        <ele>2514.6</ele>
        <time>2021-04-17T20:17:21Z</time>
      </trkpt>
      <trkpt lat="4.9180140" lon="-75.4875970">
        <ele>2515.3</ele>
        <time>2021-04-17T20:17:22Z</time>
      </trkpt>
      <trkpt lat="4.9180810" lon="-75.4876700">
        <ele>2515.9</ele>
        <time>2021-04-17T20:17:23Z</time>
      </trkpt>
      <trkpt lat="4.9181380" lon="-75.4877460">
        <ele>2516.5</ele>
        <time>2021-04-17T20:17:24Z</time>
      </trkpt>
      <trkpt lat="4.9182000" lon="-75.4878230">
        <ele>2517.0</ele>
        <time>2021-04-17T20:17:25Z</time>
      </trkpt>
      <trkpt lat="4.9182500" lon="-75.4878850">
        <ele>2517.4</ele>
        <time>2021-04-17T20:17:26Z</time>
      </trkpt>
      <trkpt lat="4.9183090" lon="-75.4879120">
        <ele>2517.7</ele>
        <time>2021-04-17T20:17:27Z</time>
      </trkpt>
      <trkpt lat="4.9183600" lon="-75.4879380">
        <ele>2517.9</ele>
        <time>2021-04-17T20:17:28Z</time>
      </trkpt>
      <trkpt lat="4.9184210" lon="-75.4879490">
        <ele>2517.2</ele>
        <time>2021-04-17T20:17:29Z</time>
      </trkpt>
      <trkpt lat="4.9184770" lon="-75.4879580">
        <ele>2516.5</ele>
        <time>2021-04-17T20:17:30Z</time>
      </trkpt>
      <trkpt lat="4.9185460" lon="-75.4879560">
        <ele>2515.6</ele>
        <time>2021-04-17T20:17:31Z</time>
      </trkpt>
      <trkpt lat="4.9186920" lon="-75.4879290">
        <ele>2513.7</ele>
        <time>2021-04-17T20:17:32Z</time>
      </trkpt>
      <trkpt lat="4.9188380" lon="-75.4879020">
        <ele>2511.7</ele>
        <time>2021-04-17T20:17:33Z</time>
      </trkpt>
      <trkpt lat="4.9189150" lon="-75.4879330">
        <ele>2510.6</ele>
        <time>2021-04-17T20:17:34Z</time>
      </trkpt>
      <trkpt lat="4.9189910" lon="-75.4879790">
        <ele>2509.6</ele>
        <time>2021-04-17T20:17:35Z</time>
      </trkpt>
      <trkpt lat="4.9190660" lon="-75.4880390">
        <ele>2508.5</ele>
        <time>2021-04-17T20:17:36Z</time>
      </trkpt>
      <trkpt lat="4.9191370" lon="-75.4881090">
        <ele>2507.6</ele>
        <time>2021-04-17T20:17:37Z</time>
      </trkpt>
      <trkpt lat="4.9192110" lon="-75.4881780">
        <ele>2506.6</ele>
        <time>2021-04-17T20:17:38Z</time>
      </trkpt>
      <trkpt lat="4.9192790" lon="-75.4882530">
        <ele>2505.6</ele>
        <time>2021-04-17T20:17:39Z</time>
      </trkpt>
      <trkpt lat="4.9193670" lon="-75.4883200">
        <ele>2504.5</ele>
        <time>2021-04-17T20:17:40Z</time>
      </trkpt>
      <trkpt lat="4.9194530" lon="-75.4883850">
        <ele>2503.2</ele>
        <time>2021-04-17T20:17:41Z</time>
      </trkpt>
      <trkpt lat="4.9195400" lon="-75.4884460">
        <ele>2501.9</ele>
        <time>2021-04-17T20:17:42Z</time>
      </trkpt>
      <trkpt lat="4.9196430" lon="-75.4884960">
        <ele>2500.4</ele>
        <time>2021-04-17T20:17:43Z</time>
      </trkpt>
      <trkpt lat="4.9197140" lon="-75.4885490">
        <ele>2499.1</ele>
        <time>2021-04-17T20:17:44Z</time>
      </trkpt>
      <trkpt lat="4.9197510" lon="-75.4886210">
        <ele>2498.1</ele>
        <time>2021-04-17T20:17:45Z</time>
      </trkpt>
      <trkpt lat="4.9197970" lon="-75.4887050">
        <ele>2496.8</ele>
        <time>2021-04-17T20:17:46Z</time>
      </trkpt>
      <trkpt lat="4.9198350" lon="-75.4887970">
        <ele>2495.6</ele>
        <time>2021-04-17T20:17:47Z</time>
      </trkpt>
      <trkpt lat="4.9198720" lon="-75.4888910">
        <ele>2494.4</ele>
        <time>2021-04-17T20:17:48Z</time>
      </trkpt>
      <trkpt lat="4.9199070" lon="-75.4889880">
        <ele>2493.3</ele>
        <time>2021-04-17T20:17:49Z</time>
      </trkpt>
      <trkpt lat="4.9199490" lon="-75.4890850">
        <ele>2492.3</ele>
        <time>2021-04-17T20:17:50Z</time>
      </trkpt>
      <trkpt lat="4.9199900" lon="-75.4891730">
        <ele>2491.5</ele>
        <time>2021-04-17T20:17:51Z</time>
      </trkpt>
      <trkpt lat="4.9200330" lon="-75.4892500">
        <ele>2490.8</ele>
        <time>2021-04-17T20:17:52Z</time>
      </trkpt>
      <trkpt lat="4.9200730" lon="-75.4893170">
        <ele>2490.1</ele>
        <time>2021-04-17T20:17:53Z</time>
      </trkpt>
      <trkpt lat="4.9201120" lon="-75.4893530">
        <ele>2489.6</ele>
        <time>2021-04-17T20:17:54Z</time>
      </trkpt>
      <trkpt lat="4.9201420" lon="-75.4893840">
        <ele>2489.2</ele>
        <time>2021-04-17T20:17:55Z</time>
      </trkpt>
      <trkpt lat="4.9201750" lon="-75.4893930">
        <ele>2488.9</ele>
        <time>2021-04-17T20:17:56Z</time>
      </trkpt>
      <trkpt lat="4.9202080" lon="-75.4894070">
        <ele>2488.5</ele>
        <time>2021-04-17T20:17:57Z</time>
      </trkpt>
      <trkpt lat="4.9202390" lon="-75.4894190">
        <ele>2488.2</ele>
        <time>2021-04-17T20:17:58Z</time>
      </trkpt>
      <trkpt lat="4.9202680" lon="-75.4894470">
        <ele>2487.8</ele>
        <time>2021-04-17T20:17:59Z</time>
      </trkpt>
      <trkpt lat="4.9202860" lon="-75.4894840">
        <ele>2487.4</ele>
        <time>2021-04-17T20:18:00Z</time>
      </trkpt>
      <trkpt lat="4.9202960" lon="-75.4895270">
        <ele>2487.0</ele>
        <time>2021-04-17T20:18:01Z</time>
      </trkpt>
      <trkpt lat="4.9203040" lon="-75.4895790">
        <ele>2486.5</ele>
        <time>2021-04-17T20:18:02Z</time>
      </trkpt>
      <trkpt lat="4.9203120" lon="-75.4896370">
        <ele>2486.1</ele>
        <time>2021-04-17T20:18:03Z</time>
      </trkpt>
      <trkpt lat="4.9203250" lon="-75.4897030">
        <ele>2485.6</ele>
        <time>2021-04-17T20:18:04Z</time>
      </trkpt>
      <trkpt lat="4.9203360" lon="-75.4897720">
        <ele>2485.2</ele>
        <time>2021-04-17T20:18:05Z</time>
      </trkpt>
      <trkpt lat="4.9203480" lon="-75.4898410">
        <ele>2484.7</ele>
        <time>2021-04-17T20:18:06Z</time>
      </trkpt>
      <trkpt lat="4.9203600" lon="-75.4899140">
        <ele>2484.3</ele>
        <time>2021-04-17T20:18:07Z</time>
      </trkpt>
      <trkpt lat="4.9203750" lon="-75.4899890">
        <ele>2483.9</ele>
        <time>2021-04-17T20:18:08Z</time>
      </trkpt>
      <trkpt lat="4.9203900" lon="-75.4900640">
        <ele>2483.5</ele>
        <time>2021-04-17T20:18:09Z</time>
      </trkpt>
      <trkpt lat="4.9204150" lon="-75.4901370">
        <ele>2483.1</ele>
        <time>2021-04-17T20:18:10Z</time>
      </trkpt>
      <trkpt lat="4.9204510" lon="-75.4901980">
        <ele>2482.7</ele>
        <time>2021-04-17T20:18:11Z</time>
      </trkpt>
      <trkpt lat="4.9205040" lon="-75.4902450">
        <ele>2482.1</ele>
        <time>2021-04-17T20:18:12Z</time>
      </trkpt>
      <trkpt lat="4.9205590" lon="-75.4902820">
        <ele>2481.5</ele>
        <time>2021-04-17T20:18:13Z</time>
      </trkpt>
      <trkpt lat="4.9206120" lon="-75.4903240">
        <ele>2480.6</ele>
        <time>2021-04-17T20:18:14Z</time>
      </trkpt>
      <trkpt lat="4.9206540" lon="-75.4903790">
        <ele>2479.6</ele>
        <time>2021-04-17T20:18:15Z</time>
      </trkpt>
      <trkpt lat="4.9207130" lon="-75.4904390">
        <ele>2478.4</ele>
        <time>2021-04-17T20:18:16Z</time>
      </trkpt>
      <trkpt lat="4.9207710" lon="-75.4905090">
        <ele>2476.9</ele>
        <time>2021-04-17T20:18:17Z</time>
      </trkpt>
      <trkpt lat="4.9208210" lon="-75.4905830">
        <ele>2475.6</ele>
        <time>2021-04-17T20:18:18Z</time>
      </trkpt>
      <trkpt lat="4.9208760" lon="-75.4906590">
        <ele>2474.2</ele>
        <time>2021-04-17T20:18:19Z</time>
      </trkpt>
      <trkpt lat="4.9209360" lon="-75.4907310">
        <ele>2472.8</ele>
        <time>2021-04-17T20:18:20Z</time>
      </trkpt>
      <trkpt lat="4.9210080" lon="-75.4907890">
        <ele>2471.6</ele>
        <time>2021-04-17T20:18:21Z</time>
      </trkpt>
      <trkpt lat="4.9210810" lon="-75.4908380">
        <ele>2470.5</ele>
        <time>2021-04-17T20:18:22Z</time>
      </trkpt>
      <trkpt lat="4.9211500" lon="-75.4908880">
        <ele>2469.6</ele>
        <time>2021-04-17T20:18:23Z</time>
      </trkpt>
      <trkpt lat="4.9212010" lon="-75.4909470">
        <ele>2468.9</ele>
        <time>2021-04-17T20:18:24Z</time>
      </trkpt>
      <trkpt lat="4.9212380" lon="-75.4910160">
        <ele>2468.2</ele>
        <time>2021-04-17T20:18:25Z</time>
      </trkpt>
      <trkpt lat="4.9212700" lon="-75.4910900">
        <ele>2467.5</ele>
        <time>2021-04-17T20:18:26Z</time>
      </trkpt>
      <trkpt lat="4.9212980" lon="-75.4911710">
        <ele>2466.7</ele>
        <time>2021-04-17T20:18:27Z</time>
      </trkpt>
      <trkpt lat="4.9213230" lon="-75.4912510">
        <ele>2465.9</ele>
        <time>2021-04-17T20:18:28Z</time>
      </trkpt>
      <trkpt lat="4.9213490" lon="-75.4913280">
        <ele>2465.0</ele>
        <time>2021-04-17T20:18:29Z</time>
      </trkpt>
      <trkpt lat="4.9213820" lon="-75.4914040">
        <ele>2464.1</ele>
        <time>2021-04-17T20:18:30Z</time>
      </trkpt>
      <trkpt lat="4.9214280" lon="-75.4914860">
        <ele>2463.1</ele>
        <time>2021-04-17T20:18:31Z</time>
      </trkpt>
      <trkpt lat="4.9214660" lon="-75.4915690">
        <ele>2462.1</ele>
        <time>2021-04-17T20:18:32Z</time>
      </trkpt>
      <trkpt lat="4.9214920" lon="-75.4916590">
        <ele>2461.2</ele>
        <time>2021-04-17T20:18:33Z</time>
      </trkpt>
      <trkpt lat="4.9215080" lon="-75.4917470">
        <ele>2460.4</ele>
        <time>2021-04-17T20:18:34Z</time>
      </trkpt>
      <trkpt lat="4.9215290" lon="-75.4918330">
        <ele>2459.6</ele>
        <time>2021-04-17T20:18:35Z</time>
      </trkpt>
      <trkpt lat="4.9215640" lon="-75.4919020">
        <ele>2458.9</ele>
        <time>2021-04-17T20:18:36Z</time>
      </trkpt>
      <trkpt lat="4.9216200" lon="-75.4919590">
        <ele>2458.1</ele>
        <time>2021-04-17T20:18:37Z</time>
      </trkpt>
      <trkpt lat="4.9216920" lon="-75.4920000">
        <ele>2457.2</ele>
        <time>2021-04-17T20:18:38Z</time>
      </trkpt>
      <trkpt lat="4.9217770" lon="-75.4920290">
        <ele>2456.3</ele>
        <time>2021-04-17T20:18:39Z</time>
      </trkpt>
      <trkpt lat="4.9218650" lon="-75.4920490">
        <ele>2455.2</ele>
        <time>2021-04-17T20:18:40Z</time>
      </trkpt>
      <trkpt lat="4.9219570" lon="-75.4920640">
        <ele>2454.0</ele>
        <time>2021-04-17T20:18:41Z</time>
      </trkpt>
      <trkpt lat="4.9220540" lon="-75.4920690">
        <ele>2452.5</ele>
        <time>2021-04-17T20:18:42Z</time>
      </trkpt>
      <trkpt lat="4.9221590" lon="-75.4920690">
        <ele>2450.8</ele>
        <time>2021-04-17T20:18:43Z</time>
      </trkpt>
      <trkpt lat="4.9222640" lon="-75.4920560">
        <ele>2449.2</ele>
        <time>2021-04-17T20:18:44Z</time>
      </trkpt>
      <trkpt lat="4.9223710" lon="-75.4920390">
        <ele>2448.0</ele>
        <time>2021-04-17T20:18:45Z</time>
      </trkpt>
      <trkpt lat="4.9224780" lon="-75.4920240">
        <ele>2446.7</ele>
        <time>2021-04-17T20:18:46Z</time>
      </trkpt>
      <trkpt lat="4.9225800" lon="-75.4920180">
        <ele>2445.5</ele>
        <time>2021-04-17T20:18:47Z</time>
      </trkpt>
      <trkpt lat="4.9226780" lon="-75.4920410">
        <ele>2443.9</ele>
        <time>2021-04-17T20:18:48Z</time>
      </trkpt>
      <trkpt lat="4.9227740" lon="-75.4920840">
        <ele>2442.3</ele>
        <time>2021-04-17T20:18:49Z</time>
      </trkpt>
      <trkpt lat="4.9228660" lon="-75.4921290">
        <ele>2440.5</ele>
        <time>2021-04-17T20:18:50Z</time>
      </trkpt>
      <trkpt lat="4.9229500" lon="-75.4921800">
        <ele>2438.7</ele>
        <time>2021-04-17T20:18:51Z</time>
      </trkpt>
      <trkpt lat="4.9230260" lon="-75.4922430">
        <ele>2436.6</ele>
        <time>2021-04-17T20:18:52Z</time>
      </trkpt>
      <trkpt lat="4.9230920" lon="-75.4923260">
        <ele>2434.4</ele>
        <time>2021-04-17T20:18:53Z</time>
      </trkpt>
      <trkpt lat="4.9231540" lon="-75.4924100">
        <ele>2432.1</ele>
        <time>2021-04-17T20:18:54Z</time>
      </trkpt>
      <trkpt lat="4.9232130" lon="-75.4924990">
        <ele>2429.9</ele>
        <time>2021-04-17T20:18:55Z</time>
      </trkpt>
      <trkpt lat="4.9232720" lon="-75.4925900">
        <ele>2427.6</ele>
        <time>2021-04-17T20:18:56Z</time>
      </trkpt>
      <trkpt lat="4.9233270" lon="-75.4926750">
        <ele>2425.5</ele>
        <time>2021-04-17T20:18:57Z</time>
      </trkpt>
      <trkpt lat="4.9233850" lon="-75.4927410">
        <ele>2423.5</ele>
        <time>2021-04-17T20:18:58Z</time>
      </trkpt>
      <trkpt lat="4.9234440" lon="-75.4928050">
        <ele>2421.5</ele>
        <time>2021-04-17T20:18:59Z</time>
      </trkpt>
      <trkpt lat="4.9235010" lon="-75.4928690">
        <ele>2419.6</ele>
        <time>2021-04-17T20:19:00Z</time>
      </trkpt>
      <trkpt lat="4.9235570" lon="-75.4929350">
        <ele>2417.8</ele>
        <time>2021-04-17T20:19:01Z</time>
      </trkpt>
      <trkpt lat="4.9236190" lon="-75.4929980">
        <ele>2416.1</ele>
        <time>2021-04-17T20:19:02Z</time>
      </trkpt>
      <trkpt lat="4.9236960" lon="-75.4930610">
        <ele>2414.3</ele>
        <time>2021-04-17T20:19:03Z</time>
      </trkpt>
      <trkpt lat="4.9237850" lon="-75.4931160">
        <ele>2412.4</ele>
        <time>2021-04-17T20:19:04Z</time>
      </trkpt>
      <trkpt lat="4.9238840" lon="-75.4931690">
        <ele>2410.5</ele>
        <time>2021-04-17T20:19:05Z</time>
      </trkpt>
      <trkpt lat="4.9239840" lon="-75.4932170">
        <ele>2408.9</ele>
        <time>2021-04-17T20:19:06Z</time>
      </trkpt>
      <trkpt lat="4.9240750" lon="-75.4932680">
        <ele>2407.2</ele>
        <time>2021-04-17T20:19:07Z</time>
      </trkpt>
      <trkpt lat="4.9241670" lon="-75.4933160">
        <ele>2405.5</ele>
        <time>2021-04-17T20:19:08Z</time>
      </trkpt>
      <trkpt lat="4.9242540" lon="-75.4933590">
        <ele>2403.9</ele>
        <time>2021-04-17T20:19:09Z</time>
      </trkpt>
      <trkpt lat="4.9243340" lon="-75.4933920">
        <ele>2402.5</ele>
        <time>2021-04-17T20:19:10Z</time>
      </trkpt>
      <trkpt lat="4.9243930" lon="-75.4934200">
        <ele>2401.5</ele>
        <time>2021-04-17T20:19:11Z</time>
      </trkpt>
      <trkpt lat="4.9244490" lon="-75.4934540">
        <ele>2400.4</ele>
        <time>2021-04-17T20:19:12Z</time>
      </trkpt>
      <trkpt lat="4.9244960" lon="-75.4934940">
        <ele>2399.4</ele>
        <time>2021-04-17T20:19:13Z</time>
      </trkpt>
      <trkpt lat="4.9245300" lon="-75.4935410">
        <ele>2398.4</ele>
        <time>2021-04-17T20:19:14Z</time>
      </trkpt>
      <trkpt lat="4.9245590" lon="-75.4935980">
        <ele>2397.3</ele>
        <time>2021-04-17T20:19:15Z</time>
      </trkpt>
      <trkpt lat="4.9245830" lon="-75.4936590">
        <ele>2396.3</ele>
        <time>2021-04-17T20:19:16Z</time>
      </trkpt>
      <trkpt lat="4.9246030" lon="-75.4937160">
        <ele>2395.4</ele>
        <time>2021-04-17T20:19:17Z</time>
      </trkpt>
      <trkpt lat="4.9246210" lon="-75.4937710">
        <ele>2394.6</ele>
        <time>2021-04-17T20:19:18Z</time>
      </trkpt>
      <trkpt lat="4.9246420" lon="-75.4938310">
        <ele>2393.7</ele>
        <time>2021-04-17T20:19:19Z</time>
      </trkpt>
      <trkpt lat="4.9246800" lon="-75.4938850">
        <ele>2392.6</ele>
        <time>2021-04-17T20:19:20Z</time>
      </trkpt>
      <trkpt lat="4.9247260" lon="-75.4939370">
        <ele>2391.4</ele>
        <time>2021-04-17T20:19:21Z</time>
      </trkpt>
      <trkpt lat="4.9247810" lon="-75.4939750">
        <ele>2390.3</ele>
        <time>2021-04-17T20:19:22Z</time>
      </trkpt>
      <trkpt lat="4.9248420" lon="-75.4940040">
        <ele>2389.2</ele>
        <time>2021-04-17T20:19:23Z</time>
      </trkpt>
      <trkpt lat="4.9249150" lon="-75.4940360">
        <ele>2387.9</ele>
        <time>2021-04-17T20:19:24Z</time>
      </trkpt>
      <trkpt lat="4.9249950" lon="-75.4940750">
        <ele>2386.6</ele>
        <time>2021-04-17T20:19:25Z</time>
      </trkpt>
      <trkpt lat="4.9250730" lon="-75.4941200">
        <ele>2385.3</ele>
        <time>2021-04-17T20:19:26Z</time>
      </trkpt>
      <trkpt lat="4.9251510" lon="-75.4941770">
        <ele>2383.9</ele>
        <time>2021-04-17T20:19:27Z</time>
      </trkpt>
      <trkpt lat="4.9252270" lon="-75.4942390">
        <ele>2382.5</ele>
        <time>2021-04-17T20:19:28Z</time>
      </trkpt>
      <trkpt lat="4.9252960" lon="-75.4943030">
        <ele>2381.2</ele>
        <time>2021-04-17T20:19:29Z</time>
      </trkpt>
      <trkpt lat="4.9253530" lon="-75.4943680">
        <ele>2380.0</ele>
        <time>2021-04-17T20:19:30Z</time>
      </trkpt>
      <trkpt lat="4.9254020" lon="-75.4944400">
        <ele>2378.8</ele>
        <time>2021-04-17T20:19:31Z</time>
      </trkpt>
      <trkpt lat="4.9254450" lon="-75.4945150">
        <ele>2377.5</ele>
        <time>2021-04-17T20:19:32Z</time>
      </trkpt>
      <trkpt lat="4.9254830" lon="-75.4945890">
        <ele>2376.1</ele>
        <time>2021-04-17T20:19:33Z</time>
      </trkpt>
      <trkpt lat="4.9255130" lon="-75.4946560">
        <ele>2374.8</ele>
        <time>2021-04-17T20:19:34Z</time>
      </trkpt>
      <trkpt lat="4.9255360" lon="-75.4947180">
        <ele>2373.6</ele>
        <time>2021-04-17T20:19:35Z</time>
      </trkpt>
      <trkpt lat="4.9255630" lon="-75.4947870">
        <ele>2372.3</ele>
        <time>2021-04-17T20:19:36Z</time>
      </trkpt>
      <trkpt lat="4.9255950" lon="-75.4948570">
        <ele>2371.0</ele>
        <time>2021-04-17T20:19:37Z</time>
      </trkpt>
      <trkpt lat="4.9256390" lon="-75.4949310">
        <ele>2369.8</ele>
        <time>2021-04-17T20:19:38Z</time>
      </trkpt>
      <trkpt lat="4.9256900" lon="-75.4950060">
        <ele>2368.7</ele>
        <time>2021-04-17T20:19:39Z</time>
      </trkpt>
      <trkpt lat="4.9257370" lon="-75.4950820">
        <ele>2367.7</ele>
        <time>2021-04-17T20:19:40Z</time>
      </trkpt>
      <trkpt lat="4.9257740" lon="-75.4951570">
        <ele>2366.7</ele>
        <time>2021-04-17T20:19:41Z</time>
      </trkpt>
      <trkpt lat="4.9258040" lon="-75.4952350">
        <ele>2365.9</ele>
        <time>2021-04-17T20:19:42Z</time>
      </trkpt>
      <trkpt lat="4.9258440" lon="-75.4953110">
        <ele>2365.2</ele>
        <time>2021-04-17T20:19:43Z</time>
      </trkpt>
      <trkpt lat="4.9259010" lon="-75.4953820">
        <ele>2364.6</ele>
        <time>2021-04-17T20:19:44Z</time>
      </trkpt>
      <trkpt lat="4.9259670" lon="-75.4954410">
        <ele>2364.1</ele>
        <time>2021-04-17T20:19:45Z</time>
      </trkpt>
      <trkpt lat="4.9260350" lon="-75.4954930">
        <ele>2363.7</ele>
        <time>2021-04-17T20:19:46Z</time>
      </trkpt>
      <trkpt lat="4.9261060" lon="-75.4955520">
        <ele>2363.3</ele>
        <time>2021-04-17T20:19:47Z</time>
      </trkpt>
      <trkpt lat="4.9261710" lon="-75.4956160">
        <ele>2362.9</ele>
        <time>2021-04-17T20:19:48Z</time>
      </trkpt>
      <trkpt lat="4.9262290" lon="-75.4956880">
        <ele>2362.6</ele>
        <time>2021-04-17T20:19:49Z</time>
      </trkpt>
      <trkpt lat="4.9262810" lon="-75.4957650">
        <ele>2362.3</ele>
        <time>2021-04-17T20:19:50Z</time>
      </trkpt>
      <trkpt lat="4.9263240" lon="-75.4958460">
        <ele>2361.9</ele>
        <time>2021-04-17T20:19:51Z</time>
      </trkpt>
      <trkpt lat="4.9263640" lon="-75.4959220">
        <ele>2361.5</ele>
        <time>2021-04-17T20:19:52Z</time>
      </trkpt>
      <trkpt lat="4.9264030" lon="-75.4959990">
        <ele>2361.1</ele>
        <time>2021-04-17T20:19:53Z</time>
      </trkpt>
      <trkpt lat="4.9264400" lon="-75.4960750">
        <ele>2360.6</ele>
        <time>2021-04-17T20:19:54Z</time>
      </trkpt>
      <trkpt lat="4.9264760" lon="-75.4961530">
        <ele>2360.0</ele>
        <time>2021-04-17T20:19:55Z</time>
      </trkpt>
      <trkpt lat="4.9265120" lon="-75.4962320">
        <ele>2359.3</ele>
        <time>2021-04-17T20:19:56Z</time>
      </trkpt>
      <trkpt lat="4.9265470" lon="-75.4963140">
        <ele>2358.7</ele>
        <time>2021-04-17T20:19:57Z</time>
      </trkpt>
      <trkpt lat="4.9265820" lon="-75.4963960">
        <ele>2358.0</ele>
        <time>2021-04-17T20:19:58Z</time>
      </trkpt>
      <trkpt lat="4.9266200" lon="-75.4964750">
        <ele>2357.3</ele>
        <time>2021-04-17T20:19:59Z</time>
      </trkpt>
      <trkpt lat="4.9266760" lon="-75.4965460">
        <ele>2356.6</ele>
        <time>2021-04-17T20:20:00Z</time>
      </trkpt>
      <trkpt lat="4.9267480" lon="-75.4965960">
        <ele>2355.9</ele>
        <time>2021-04-17T20:20:01Z</time>
      </trkpt>
      <trkpt lat="4.9268350" lon="-75.4966240">
        <ele>2355.3</ele>
        <time>2021-04-17T20:20:02Z</time>
      </trkpt>
      <trkpt lat="4.9269240" lon="-75.4966380">
        <ele>2354.6</ele>
        <time>2021-04-17T20:20:03Z</time>
      </trkpt>
      <trkpt lat="4.9270160" lon="-75.4966470">
        <ele>2354.0</ele>
        <time>2021-04-17T20:20:04Z</time>
      </trkpt>
      <trkpt lat="4.9271080" lon="-75.4966460">
        <ele>2353.5</ele>
        <time>2021-04-17T20:20:05Z</time>
      </trkpt>
      <trkpt lat="4.9272020" lon="-75.4966380">
        <ele>2352.9</ele>
        <time>2021-04-17T20:20:06Z</time>
      </trkpt>
      <trkpt lat="4.9272890" lon="-75.4966070">
        <ele>2352.0</ele>
        <time>2021-04-17T20:20:07Z</time>
      </trkpt>
      <trkpt lat="4.9273640" lon="-75.4965590">
        <ele>2351.0</ele>
        <time>2021-04-17T20:20:08Z</time>
      </trkpt>
      <trkpt lat="4.9274340" lon="-75.4965170">
        <ele>2350.0</ele>
        <time>2021-04-17T20:20:09Z</time>
      </trkpt>
      <trkpt lat="4.9274890" lon="-75.4964990">
        <ele>2349.4</ele>
        <time>2021-04-17T20:20:10Z</time>
      </trkpt>
      <trkpt lat="4.9275370" lon="-75.4965160">
        <ele>2348.9</ele>
        <time>2021-04-17T20:20:11Z</time>
      </trkpt>
      <trkpt lat="4.9275790" lon="-75.4965560">
        <ele>2348.3</ele>
        <time>2021-04-17T20:20:12Z</time>
      </trkpt>
      <trkpt lat="4.9275970" lon="-75.4966200">
        <ele>2347.8</ele>
        <time>2021-04-17T20:20:13Z</time>
      </trkpt>
      <trkpt lat="4.9275880" lon="-75.4966900">
        <ele>2347.5</ele>
        <time>2021-04-17T20:20:14Z</time>
      </trkpt>
      <trkpt lat="4.9275670" lon="-75.4967620">
        <ele>2347.2</ele>
        <time>2021-04-17T20:20:15Z</time>
      </trkpt>
      <trkpt lat="4.9275480" lon="-75.4968310">
        <ele>2346.9</ele>
        <time>2021-04-17T20:20:16Z</time>
      </trkpt>
      <trkpt lat="4.9275680" lon="-75.4968960">
        <ele>2346.7</ele>
        <time>2021-04-17T20:20:17Z</time>
      </trkpt>
      <trkpt lat="4.9276070" lon="-75.4969330">
        <ele>2346.6</ele>
        <time>2021-04-17T20:20:18Z</time>
      </trkpt>
      <trkpt lat="4.9276600" lon="-75.4969500">
        <ele>2346.4</ele>
        <time>2021-04-17T20:20:19Z</time>
      </trkpt>
      <trkpt lat="4.9277150" lon="-75.4969560">
        <ele>2346.2</ele>
        <time>2021-04-17T20:20:20Z</time>
      </trkpt>
      <trkpt lat="4.9277680" lon="-75.4969500">
        <ele>2346.0</ele>
        <time>2021-04-17T20:20:21Z</time>
      </trkpt>
      <trkpt lat="4.9278200" lon="-75.4969400">
        <ele>2345.7</ele>
        <time>2021-04-17T20:20:22Z</time>
      </trkpt>
      <trkpt lat="4.9278740" lon="-75.4969300">
        <ele>2345.3</ele>
        <time>2021-04-17T20:20:23Z</time>
      </trkpt>
      <trkpt lat="4.9279290" lon="-75.4969090">
        <ele>2344.8</ele>
        <time>2021-04-17T20:20:24Z</time>
      </trkpt>
      <trkpt lat="4.9279930" lon="-75.4968940">
        <ele>2344.1</ele>
        <time>2021-04-17T20:20:25Z</time>
      </trkpt>
      <trkpt lat="4.9280690" lon="-75.4968870">
        <ele>2343.2</ele>
        <time>2021-04-17T20:20:26Z</time>
      </trkpt>
      <trkpt lat="4.9281570" lon="-75.4968870">
        <ele>2342.2</ele>
        <time>2021-04-17T20:20:27Z</time>
      </trkpt>
      <trkpt lat="4.9282490" lon="-75.4968870">
        <ele>2341.1</ele>
        <time>2021-04-17T20:20:28Z</time>
      </trkpt>
      <trkpt lat="4.9283470" lon="-75.4968900">
        <ele>2340.1</ele>
        <time>2021-04-17T20:20:29Z</time>
      </trkpt>
      <trkpt lat="4.9284460" lon="-75.4968950">
        <ele>2339.2</ele>
        <time>2021-04-17T20:20:30Z</time>
      </trkpt>
      <trkpt lat="4.9285500" lon="-75.4968890">
        <ele>2338.3</ele>
        <time>2021-04-17T20:20:31Z</time>
      </trkpt>
      <trkpt lat="4.9286540" lon="-75.4968740">
        <ele>2337.7</ele>
        <time>2021-04-17T20:20:32Z</time>
      </trkpt>
      <trkpt lat="4.9287540" lon="-75.4968480">
        <ele>2337.0</ele>
        <time>2021-04-17T20:20:33Z</time>
      </trkpt>
      <trkpt lat="4.9288520" lon="-75.4968110">
        <ele>2336.4</ele>
        <time>2021-04-17T20:20:34Z</time>
      </trkpt>
      <trkpt lat="4.9289440" lon="-75.4967720">
        <ele>2335.7</ele>
        <time>2021-04-17T20:20:35Z</time>
      </trkpt>
      <trkpt lat="4.9290360" lon="-75.4967400">
        <ele>2335.0</ele>
        <time>2021-04-17T20:20:36Z</time>
      </trkpt>
      <trkpt lat="4.9291270" lon="-75.4967140">
        <ele>2334.3</ele>
        <time>2021-04-17T20:20:37Z</time>
      </trkpt>
      <trkpt lat="4.9292210" lon="-75.4966940">
        <ele>2333.4</ele>
        <time>2021-04-17T20:20:38Z</time>
      </trkpt>
      <trkpt lat="4.9293160" lon="-75.4966880">
        <ele>2332.5</ele>
        <time>2021-04-17T20:20:39Z</time>
      </trkpt>
      <trkpt lat="4.9294100" lon="-75.4966920">
        <ele>2331.7</ele>
        <time>2021-04-17T20:20:40Z</time>
      </trkpt>
      <trkpt lat="4.9294980" lon="-75.4967140">
        <ele>2330.8</ele>
        <time>2021-04-17T20:20:41Z</time>
      </trkpt>
      <trkpt lat="4.9295740" lon="-75.4967460">
        <ele>2330.0</ele>
        <time>2021-04-17T20:20:42Z</time>
      </trkpt>
      <trkpt lat="4.9296320" lon="-75.4967900">
        <ele>2329.1</ele>
        <time>2021-04-17T20:20:43Z</time>
      </trkpt>
      <trkpt lat="4.9296680" lon="-75.4968520">
        <ele>2328.2</ele>
        <time>2021-04-17T20:20:44Z</time>
      </trkpt>
      <trkpt lat="4.9296920" lon="-75.4969250">
        <ele>2327.1</ele>
        <time>2021-04-17T20:20:45Z</time>
      </trkpt>
      <trkpt lat="4.9297130" lon="-75.4969990">
        <ele>2326.0</ele>
        <time>2021-04-17T20:20:46Z</time>
      </trkpt>
      <trkpt lat="4.9297470" lon="-75.4970670">
        <ele>2323.8</ele>
        <time>2021-04-17T20:20:47Z</time>
      </trkpt>
      <trkpt lat="4.9298010" lon="-75.4971270">
        <ele>2323.1</ele>
        <time>2021-04-17T20:20:48Z</time>
      </trkpt>
      <trkpt lat="4.9298710" lon="-75.4971660">
        <ele>2322.3</ele>
        <time>2021-04-17T20:20:49Z</time>
      </trkpt>
      <trkpt lat="4.9299490" lon="-75.4971910">
        <ele>2321.5</ele>
        <time>2021-04-17T20:20:50Z</time>
      </trkpt>
      <trkpt lat="4.9300320" lon="-75.4972050">
        <ele>2320.6</ele>
        <time>2021-04-17T20:20:51Z</time>
      </trkpt>
      <trkpt lat="4.9301210" lon="-75.4972130">
        <ele>2319.8</ele>
        <time>2021-04-17T20:20:52Z</time>
      </trkpt>
      <trkpt lat="4.9302140" lon="-75.4972270">
        <ele>2319.0</ele>
        <time>2021-04-17T20:20:53Z</time>
      </trkpt>
      <trkpt lat="4.9303100" lon="-75.4972400">
        <ele>2318.4</ele>
        <time>2021-04-17T20:20:54Z</time>
      </trkpt>
      <trkpt lat="4.9304030" lon="-75.4972440">
        <ele>2317.9</ele>
        <time>2021-04-17T20:20:55Z</time>
      </trkpt>
      <trkpt lat="4.9304960" lon="-75.4972340">
        <ele>2317.5</ele>
        <time>2021-04-17T20:20:56Z</time>
      </trkpt>
      <trkpt lat="4.9305860" lon="-75.4972130">
        <ele>2317.0</ele>
        <time>2021-04-17T20:20:57Z</time>
      </trkpt>
      <trkpt lat="4.9306750" lon="-75.4971920">
        <ele>2316.5</ele>
        <time>2021-04-17T20:20:58Z</time>
      </trkpt>
      <trkpt lat="4.9307640" lon="-75.4971720">
        <ele>2316.1</ele>
        <time>2021-04-17T20:20:59Z</time>
      </trkpt>
      <trkpt lat="4.9308540" lon="-75.4971470">
        <ele>2315.7</ele>
        <time>2021-04-17T20:21:00Z</time>
      </trkpt>
      <trkpt lat="4.9309470" lon="-75.4971210">
        <ele>2315.3</ele>
        <time>2021-04-17T20:21:01Z</time>
      </trkpt>
      <trkpt lat="4.9310350" lon="-75.4970970">
        <ele>2314.9</ele>
        <time>2021-04-17T20:21:02Z</time>
      </trkpt>
      <trkpt lat="4.9311110" lon="-75.4970830">
        <ele>2314.7</ele>
        <time>2021-04-17T20:21:03Z</time>
      </trkpt>
      <trkpt lat="4.9311760" lon="-75.4971050">
        <ele>2314.5</ele>
        <time>2021-04-17T20:21:04Z</time>
      </trkpt>
      <trkpt lat="4.9312190" lon="-75.4971620">
        <ele>2314.5</ele>
        <time>2021-04-17T20:21:05Z</time>
      </trkpt>
      <trkpt lat="4.9312530" lon="-75.4972310">
        <ele>2314.5</ele>
        <time>2021-04-17T20:21:06Z</time>
      </trkpt>
      <trkpt lat="4.9312890" lon="-75.4973030">
        <ele>2314.7</ele>
        <time>2021-04-17T20:21:07Z</time>
      </trkpt>
      <trkpt lat="4.9313360" lon="-75.4973730">
        <ele>2314.9</ele>
        <time>2021-04-17T20:21:08Z</time>
      </trkpt>
      <trkpt lat="4.9313980" lon="-75.4974250">
        <ele>2315.2</ele>
        <time>2021-04-17T20:21:09Z</time>
      </trkpt>
      <trkpt lat="4.9314720" lon="-75.4974600">
        <ele>2315.4</ele>
        <time>2021-04-17T20:21:10Z</time>
      </trkpt>
      <trkpt lat="4.9315500" lon="-75.4974860">
        <ele>2315.7</ele>
        <time>2021-04-17T20:21:11Z</time>
      </trkpt>
      <trkpt lat="4.9316310" lon="-75.4975030">
        <ele>2315.9</ele>
        <time>2021-04-17T20:21:12Z</time>
      </trkpt>
      <trkpt lat="4.9317090" lon="-75.4975210">
        <ele>2315.9</ele>
        <time>2021-04-17T20:21:13Z</time>
      </trkpt>
      <trkpt lat="4.9317840" lon="-75.4975460">
        <ele>2315.8</ele>
        <time>2021-04-17T20:21:14Z</time>
      </trkpt>
      <trkpt lat="4.9318550" lon="-75.4975900">
        <ele>2315.5</ele>
        <time>2021-04-17T20:21:15Z</time>
      </trkpt>
      <trkpt lat="4.9319220" lon="-75.4976420">
        <ele>2315.0</ele>
        <time>2021-04-17T20:21:16Z</time>
      </trkpt>
      <trkpt lat="4.9319850" lon="-75.4977030">
        <ele>2314.5</ele>
        <time>2021-04-17T20:21:17Z</time>
      </trkpt>
      <trkpt lat="4.9320470" lon="-75.4977760">
        <ele>2313.9</ele>
        <time>2021-04-17T20:21:18Z</time>
      </trkpt>
      <trkpt lat="4.9321130" lon="-75.4978460">
        <ele>2313.3</ele>
        <time>2021-04-17T20:21:19Z</time>
      </trkpt>
      <trkpt lat="4.9321790" lon="-75.4979170">
        <ele>2312.8</ele>
        <time>2021-04-17T20:21:20Z</time>
      </trkpt>
      <trkpt lat="4.9322340" lon="-75.4979960">
        <ele>2312.3</ele>
        <time>2021-04-17T20:21:21Z</time>
      </trkpt>
      <trkpt lat="4.9322830" lon="-75.4980850">
        <ele>2311.9</ele>
        <time>2021-04-17T20:21:22Z</time>
      </trkpt>
      <trkpt lat="4.9323210" lon="-75.4981740">
        <ele>2311.5</ele>
        <time>2021-04-17T20:21:23Z</time>
      </trkpt>
      <trkpt lat="4.9323560" lon="-75.4982510">
        <ele>2311.1</ele>
        <time>2021-04-17T20:21:24Z</time>
      </trkpt>
      <trkpt lat="4.9324030" lon="-75.4983240">
        <ele>2310.4</ele>
        <time>2021-04-17T20:21:25Z</time>
      </trkpt>
      <trkpt lat="4.9324690" lon="-75.4983910">
        <ele>2309.5</ele>
        <time>2021-04-17T20:21:26Z</time>
      </trkpt>
      <trkpt lat="4.9325420" lon="-75.4984440">
        <ele>2308.7</ele>
        <time>2021-04-17T20:21:27Z</time>
      </trkpt>
      <trkpt lat="4.9326220" lon="-75.4984910">
        <ele>2307.8</ele>
        <time>2021-04-17T20:21:28Z</time>
      </trkpt>
      <trkpt lat="4.9327030" lon="-75.4985230">
        <ele>2306.9</ele>
        <time>2021-04-17T20:21:29Z</time>
      </trkpt>
      <trkpt lat="4.9327820" lon="-75.4985270">
        <ele>2305.9</ele>
        <time>2021-04-17T20:21:30Z</time>
      </trkpt>
      <trkpt lat="4.9328910" lon="-75.4985130">
        <ele>2304.3</ele>
        <time>2021-04-17T20:21:31Z</time>
      </trkpt>
      <trkpt lat="4.9329880" lon="-75.4984930">
        <ele>2303.0</ele>
        <time>2021-04-17T20:21:32Z</time>
      </trkpt>
      <trkpt lat="4.9330880" lon="-75.4984720">
        <ele>2301.7</ele>
        <time>2021-04-17T20:21:33Z</time>
      </trkpt>
      <trkpt lat="4.9331860" lon="-75.4984660">
        <ele>2300.5</ele>
        <time>2021-04-17T20:21:34Z</time>
      </trkpt>
      <trkpt lat="4.9332930" lon="-75.4984760">
        <ele>2298.9</ele>
        <time>2021-04-17T20:21:35Z</time>
      </trkpt>
      <trkpt lat="4.9333980" lon="-75.4984930">
        <ele>2297.4</ele>
        <time>2021-04-17T20:21:36Z</time>
      </trkpt>
      <trkpt lat="4.9335050" lon="-75.4985150">
        <ele>2295.7</ele>
        <time>2021-04-17T20:21:37Z</time>
      </trkpt>
      <trkpt lat="4.9336110" lon="-75.4985350">
        <ele>2293.8</ele>
        <time>2021-04-17T20:21:38Z</time>
      </trkpt>
      <trkpt lat="4.9337110" lon="-75.4985580">
        <ele>2291.8</ele>
        <time>2021-04-17T20:21:39Z</time>
      </trkpt>
      <trkpt lat="4.9338000" lon="-75.4985860">
        <ele>2289.8</ele>
        <time>2021-04-17T20:21:40Z</time>
      </trkpt>
      <trkpt lat="4.9338670" lon="-75.4986090">
        <ele>2288.1</ele>
        <time>2021-04-17T20:21:41Z</time>
      </trkpt>
      <trkpt lat="4.9339210" lon="-75.4986360">
        <ele>2286.6</ele>
        <time>2021-04-17T20:21:42Z</time>
      </trkpt>
      <trkpt lat="4.9339800" lon="-75.4986600">
        <ele>2285.0</ele>
        <time>2021-04-17T20:21:43Z</time>
      </trkpt>
      <trkpt lat="4.9340530" lon="-75.4986790">
        <ele>2283.2</ele>
        <time>2021-04-17T20:21:44Z</time>
      </trkpt>
      <trkpt lat="4.9341300" lon="-75.4987010">
        <ele>2281.5</ele>
        <time>2021-04-17T20:21:45Z</time>
      </trkpt>
      <trkpt lat="4.9342150" lon="-75.4987180">
        <ele>2279.8</ele>
        <time>2021-04-17T20:21:46Z</time>
      </trkpt>
      <trkpt lat="4.9343060" lon="-75.4987240">
        <ele>2278.1</ele>
        <time>2021-04-17T20:21:47Z</time>
      </trkpt>
      <trkpt lat="4.9344090" lon="-75.4987120">
        <ele>2276.5</ele>
        <time>2021-04-17T20:21:48Z</time>
      </trkpt>
      <trkpt lat="4.9345100" lon="-75.4986810">
        <ele>2275.3</ele>
        <time>2021-04-17T20:21:49Z</time>
      </trkpt>
      <trkpt lat="4.9346110" lon="-75.4986380">
        <ele>2274.4</ele>
        <time>2021-04-17T20:21:50Z</time>
      </trkpt>
      <trkpt lat="4.9347100" lon="-75.4985930">
        <ele>2273.9</ele>
        <time>2021-04-17T20:21:51Z</time>
      </trkpt>
      <trkpt lat="4.9348090" lon="-75.4985640">
        <ele>2273.7</ele>
        <time>2021-04-17T20:21:52Z</time>
      </trkpt>
      <trkpt lat="4.9348950" lon="-75.4985460">
        <ele>2273.6</ele>
        <time>2021-04-17T20:21:53Z</time>
      </trkpt>
      <trkpt lat="4.9349710" lon="-75.4985400">
        <ele>2273.2</ele>
        <time>2021-04-17T20:21:54Z</time>
      </trkpt>
      <trkpt lat="4.9350450" lon="-75.4985330">
        <ele>2272.5</ele>
        <time>2021-04-17T20:21:55Z</time>
      </trkpt>
      <trkpt lat="4.9351090" lon="-75.4985110">
        <ele>2271.8</ele>
        <time>2021-04-17T20:21:56Z</time>
      </trkpt>
      <trkpt lat="4.9351580" lon="-75.4984530">
        <ele>2270.8</ele>
        <time>2021-04-17T20:21:57Z</time>
      </trkpt>
      <trkpt lat="4.9352090" lon="-75.4983980">
        <ele>2269.8</ele>
        <time>2021-04-17T20:21:58Z</time>
      </trkpt>
      <trkpt lat="4.9352700" lon="-75.4983490">
        <ele>2268.8</ele>
        <time>2021-04-17T20:21:59Z</time>
      </trkpt>
      <trkpt lat="4.9353410" lon="-75.4982990">
        <ele>2267.5</ele>
        <time>2021-04-17T20:22:00Z</time>
      </trkpt>
      <trkpt lat="4.9354120" lon="-75.4982410">
        <ele>2266.2</ele>
        <time>2021-04-17T20:22:01Z</time>
      </trkpt>
      <trkpt lat="4.9354760" lon="-75.4981780">
        <ele>2264.8</ele>
        <time>2021-04-17T20:22:02Z</time>
      </trkpt>
      <trkpt lat="4.9355350" lon="-75.4981170">
        <ele>2263.5</ele>
        <time>2021-04-17T20:22:03Z</time>
      </trkpt>
      <trkpt lat="4.9355980" lon="-75.4980580">
        <ele>2262.2</ele>
        <time>2021-04-17T20:22:04Z</time>
      </trkpt>
      <trkpt lat="4.9356770" lon="-75.4980120">
        <ele>2260.9</ele>
        <time>2021-04-17T20:22:05Z</time>
      </trkpt>
      <trkpt lat="4.9357610" lon="-75.4979720">
        <ele>2259.6</ele>
        <time>2021-04-17T20:22:06Z</time>
      </trkpt>
      <trkpt lat="4.9358470" lon="-75.4979390">
        <ele>2258.3</ele>
        <time>2021-04-17T20:22:07Z</time>
      </trkpt>
      <trkpt lat="4.9359220" lon="-75.4978940">
        <ele>2257.1</ele>
        <time>2021-04-17T20:22:08Z</time>
      </trkpt>
      <trkpt lat="4.9359860" lon="-75.4978460">
        <ele>2256.1</ele>
        <time>2021-04-17T20:22:09Z</time>
      </trkpt>
      <trkpt lat="4.9360530" lon="-75.4978150">
        <ele>2255.1</ele>
        <time>2021-04-17T20:22:10Z</time>
      </trkpt>
      <trkpt lat="4.9361210" lon="-75.4978000">
        <ele>2254.1</ele>
        <time>2021-04-17T20:22:11Z</time>
      </trkpt>
      <trkpt lat="4.9361780" lon="-75.4978250">
        <ele>2253.1</ele>
        <time>2021-04-17T20:22:12Z</time>
      </trkpt>
      <trkpt lat="4.9362290" lon="-75.4978870">
        <ele>2251.9</ele>
        <time>2021-04-17T20:22:13Z</time>
      </trkpt>
      <trkpt lat="4.9362790" lon="-75.4979590">
        <ele>2250.5</ele>
        <time>2021-04-17T20:22:14Z</time>
      </trkpt>
      <trkpt lat="4.9363350" lon="-75.4980270">
        <ele>2249.1</ele>
        <time>2021-04-17T20:22:15Z</time>
      </trkpt>
      <trkpt lat="4.9364060" lon="-75.4980730">
        <ele>2247.5</ele>
        <time>2021-04-17T20:22:16Z</time>
      </trkpt>
      <trkpt lat="4.9364810" lon="-75.4981120">
        <ele>2246.0</ele>
        <time>2021-04-17T20:22:17Z</time>
      </trkpt>
      <trkpt lat="4.9365600" lon="-75.4981510">
        <ele>2244.6</ele>
        <time>2021-04-17T20:22:18Z</time>
      </trkpt>
      <trkpt lat="4.9366460" lon="-75.4981750">
        <ele>2243.1</ele>
        <time>2021-04-17T20:22:19Z</time>
      </trkpt>
      <trkpt lat="4.9367400" lon="-75.4981880">
        <ele>2241.6</ele>
        <time>2021-04-17T20:22:20Z</time>
      </trkpt>
      <trkpt lat="4.9368380" lon="-75.4981900">
        <ele>2240.0</ele>
        <time>2021-04-17T20:22:21Z</time>
      </trkpt>
      <trkpt lat="4.9369280" lon="-75.4981740">
        <ele>2238.5</ele>
        <time>2021-04-17T20:22:22Z</time>
      </trkpt>
      <trkpt lat="4.9370220" lon="-75.4981630">
        <ele>2237.0</ele>
        <time>2021-04-17T20:22:23Z</time>
      </trkpt>
      <trkpt lat="4.9371130" lon="-75.4981380">
        <ele>2235.3</ele>
        <time>2021-04-17T20:22:24Z</time>
      </trkpt>
      <trkpt lat="4.9371950" lon="-75.4981020">
        <ele>2233.6</ele>
        <time>2021-04-17T20:22:25Z</time>
      </trkpt>
      <trkpt lat="4.9372690" lon="-75.4980660">
        <ele>2231.9</ele>
        <time>2021-04-17T20:22:26Z</time>
      </trkpt>
      <trkpt lat="4.9373390" lon="-75.4980360">
        <ele>2230.3</ele>
        <time>2021-04-17T20:22:27Z</time>
      </trkpt>
      <trkpt lat="4.9374040" lon="-75.4980290">
        <ele>2228.8</ele>
        <time>2021-04-17T20:22:28Z</time>
      </trkpt>
      <trkpt lat="4.9374670" lon="-75.4980510">
        <ele>2227.2</ele>
        <time>2021-04-17T20:22:29Z</time>
      </trkpt>
      <trkpt lat="4.9375210" lon="-75.4981050">
        <ele>2225.6</ele>
        <time>2021-04-17T20:22:30Z</time>
      </trkpt>
      <trkpt lat="4.9375720" lon="-75.4981800">
        <ele>2223.8</ele>
        <time>2021-04-17T20:22:31Z</time>
      </trkpt>
      <trkpt lat="4.9376250" lon="-75.4982620">
        <ele>2221.9</ele>
        <time>2021-04-17T20:22:32Z</time>
      </trkpt>
      <trkpt lat="4.9376830" lon="-75.4983430">
        <ele>2220.0</ele>
        <time>2021-04-17T20:22:33Z</time>
      </trkpt>
      <trkpt lat="4.9377530" lon="-75.4984210">
        <ele>2217.6</ele>
        <time>2021-04-17T20:22:34Z</time>
      </trkpt>
      <trkpt lat="4.9378270" lon="-75.4984930">
        <ele>2215.2</ele>
        <time>2021-04-17T20:22:35Z</time>
      </trkpt>
      <trkpt lat="4.9379070" lon="-75.4985610">
        <ele>2213.0</ele>
        <time>2021-04-17T20:22:36Z</time>
      </trkpt>
      <trkpt lat="4.9380000" lon="-75.4986270">
        <ele>2210.9</ele>
        <time>2021-04-17T20:22:37Z</time>
      </trkpt>
      <trkpt lat="4.9380960" lon="-75.4986800">
        <ele>2208.8</ele>
        <time>2021-04-17T20:22:38Z</time>
      </trkpt>
      <trkpt lat="4.9381820" lon="-75.4987290">
        <ele>2206.8</ele>
        <time>2021-04-17T20:22:39Z</time>
      </trkpt>
      <trkpt lat="4.9382580" lon="-75.4987800">
        <ele>2204.8</ele>
        <time>2021-04-17T20:22:40Z</time>
      </trkpt>
      <trkpt lat="4.9383120" lon="-75.4988470">
        <ele>2203.0</ele>
        <time>2021-04-17T20:22:41Z</time>
      </trkpt>
      <trkpt lat="4.9383670" lon="-75.4989240">
        <ele>2201.2</ele>
        <time>2021-04-17T20:22:42Z</time>
      </trkpt>
      <trkpt lat="4.9384280" lon="-75.4989960">
        <ele>2199.6</ele>
        <time>2021-04-17T20:22:43Z</time>
      </trkpt>
      <trkpt lat="4.9385040" lon="-75.4990590">
        <ele>2197.8</ele>
        <time>2021-04-17T20:22:44Z</time>
      </trkpt>
      <trkpt lat="4.9385910" lon="-75.4991070">
        <ele>2196.0</ele>
        <time>2021-04-17T20:22:45Z</time>
      </trkpt>
      <trkpt lat="4.9386760" lon="-75.4991460">
        <ele>2194.4</ele>
        <time>2021-04-17T20:22:46Z</time>
      </trkpt>
      <trkpt lat="4.9387410" lon="-75.4991900">
        <ele>2193.0</ele>
        <time>2021-04-17T20:22:47Z</time>
      </trkpt>
      <trkpt lat="4.9387840" lon="-75.4992520">
        <ele>2191.6</ele>
        <time>2021-04-17T20:22:48Z</time>
      </trkpt>
      <trkpt lat="4.9388150" lon="-75.4993200">
        <ele>2190.2</ele>
        <time>2021-04-17T20:22:49Z</time>
      </trkpt>
      <trkpt lat="4.9388520" lon="-75.4993830">
        <ele>2188.8</ele>
        <time>2021-04-17T20:22:50Z</time>
      </trkpt>
      <trkpt lat="4.9389150" lon="-75.4994330">
        <ele>2187.1</ele>
        <time>2021-04-17T20:22:51Z</time>
      </trkpt>
      <trkpt lat="4.9389940" lon="-75.4994660">
        <ele>2185.4</ele>
        <time>2021-04-17T20:22:52Z</time>
      </trkpt>
      <trkpt lat="4.9390770" lon="-75.4994940">
        <ele>2183.6</ele>
        <time>2021-04-17T20:22:53Z</time>
      </trkpt>
      <trkpt lat="4.9391530" lon="-75.4995370">
        <ele>2181.9</ele>
        <time>2021-04-17T20:22:54Z</time>
      </trkpt>
      <trkpt lat="4.9392210" lon="-75.4995960">
        <ele>2180.2</ele>
        <time>2021-04-17T20:22:55Z</time>
      </trkpt>
      <trkpt lat="4.9392740" lon="-75.4996620">
        <ele>2178.8</ele>
        <time>2021-04-17T20:22:56Z</time>
      </trkpt>
      <trkpt lat="4.9393080" lon="-75.4997310">
        <ele>2177.8</ele>
        <time>2021-04-17T20:22:57Z</time>
      </trkpt>
      <trkpt lat="4.9393290" lon="-75.4998090">
        <ele>2176.8</ele>
        <time>2021-04-17T20:22:58Z</time>
      </trkpt>
      <trkpt lat="4.9393460" lon="-75.4998880">
        <ele>2176.2</ele>
        <time>2021-04-17T20:22:59Z</time>
      </trkpt>
      <trkpt lat="4.9393650" lon="-75.4999590">
        <ele>2175.9</ele>
        <time>2021-04-17T20:23:00Z</time>
      </trkpt>
      <trkpt lat="4.9393980" lon="-75.5000160">
        <ele>2175.8</ele>
        <time>2021-04-17T20:23:01Z</time>
      </trkpt>
      <trkpt lat="4.9394370" lon="-75.5000480">
        <ele>2175.8</ele>
        <time>2021-04-17T20:23:02Z</time>
      </trkpt>
      <trkpt lat="4.9394660" lon="-75.5000500">
        <ele>2174.4</ele>
        <time>2021-04-17T20:23:03Z</time>
      </trkpt>
      <trkpt lat="4.9394870" lon="-75.5000420">
        <ele>2174.0</ele>
        <time>2021-04-17T20:23:04Z</time>
      </trkpt>
      <trkpt lat="4.9395030" lon="-75.5000260">
        <ele>2173.6</ele>
        <time>2021-04-17T20:23:05Z</time>
      </trkpt>
      <trkpt lat="4.9395210" lon="-75.5000020">
        <ele>2173.0</ele>
        <time>2021-04-17T20:23:06Z</time>
      </trkpt>
      <trkpt lat="4.9395350" lon="-75.4999680">
        <ele>2172.3</ele>
        <time>2021-04-17T20:23:07Z</time>
      </trkpt>
      <trkpt lat="4.9395450" lon="-75.4999320">
        <ele>2171.7</ele>
        <time>2021-04-17T20:23:08Z</time>
      </trkpt>
      <trkpt lat="4.9395500" lon="-75.4998990">
        <ele>2171.0</ele>
        <time>2021-04-17T20:23:09Z</time>
      </trkpt>
      <trkpt lat="4.9395510" lon="-75.4998700">
        <ele>2170.5</ele>
        <time>2021-04-17T20:23:10Z</time>
      </trkpt>
      <trkpt lat="4.9395530" lon="-75.4998460">
        <ele>2170.1</ele>
        <time>2021-04-17T20:23:11Z</time>
      </trkpt>
      <trkpt lat="4.9395540" lon="-75.4998230">
        <ele>2169.6</ele>
        <time>2021-04-17T20:23:12Z</time>
      </trkpt>
      <trkpt lat="4.9395560" lon="-75.4998100">
        <ele>2169.4</ele>
        <time>2021-04-17T20:23:13Z</time>
      </trkpt>
      <trkpt lat="4.9395560" lon="-75.4998050">
        <ele>2169.3</ele>
        <time>2021-04-17T20:23:14Z</time>
      </trkpt>
      <trkpt lat="4.9395520" lon="-75.4997830">
        <ele>2168.9</ele>
        <time>2021-04-17T20:23:15Z</time>
      </trkpt>
      <trkpt lat="4.9395520" lon="-75.4997620">
        <ele>2168.5</ele>
        <time>2021-04-17T20:23:16Z</time>
      </trkpt>
      <trkpt lat="4.9395480" lon="-75.4997090">
        <ele>2167.5</ele>
        <time>2021-04-17T20:23:17Z</time>
      </trkpt>
      <trkpt lat="4.9395480" lon="-75.4996470">
        <ele>2166.3</ele>
        <time>2021-04-17T20:23:18Z</time>
      </trkpt>
      <trkpt lat="4.9395550" lon="-75.4995740">
        <ele>2165.0</ele>
        <time>2021-04-17T20:23:19Z</time>
      </trkpt>
      <trkpt lat="4.9395670" lon="-75.4994920">
        <ele>2163.5</ele>
        <time>2021-04-17T20:23:20Z</time>
      </trkpt>
      <trkpt lat="4.9395830" lon="-75.4994030">
        <ele>2161.8</ele>
        <time>2021-04-17T20:23:21Z</time>
      </trkpt>
      <trkpt lat="4.9396000" lon="-75.4993050">
        <ele>2159.9</ele>
        <time>2021-04-17T20:23:22Z</time>
      </trkpt>
      <trkpt lat="4.9396290" lon="-75.4992090">
        <ele>2158.1</ele>
        <time>2021-04-17T20:23:23Z</time>
      </trkpt>
      <trkpt lat="4.9396560" lon="-75.4991130">
        <ele>2156.2</ele>
        <time>2021-04-17T20:23:24Z</time>
      </trkpt>
      <trkpt lat="4.9396770" lon="-75.4990180">
        <ele>2154.4</ele>
        <time>2021-04-17T20:23:25Z</time>
      </trkpt>
      <trkpt lat="4.9397050" lon="-75.4989310">
        <ele>2152.7</ele>
        <time>2021-04-17T20:23:26Z</time>
      </trkpt>
      <trkpt lat="4.9397470" lon="-75.4988570">
        <ele>2151.1</ele>
        <time>2021-04-17T20:23:27Z</time>
      </trkpt>
      <trkpt lat="4.9397990" lon="-75.4988000">
        <ele>2149.7</ele>
        <time>2021-04-17T20:23:28Z</time>
      </trkpt>
      <trkpt lat="4.9398650" lon="-75.4987620">
        <ele>2148.3</ele>
        <time>2021-04-17T20:23:29Z</time>
      </trkpt>
      <trkpt lat="4.9399380" lon="-75.4987380">
        <ele>2146.9</ele>
        <time>2021-04-17T20:23:30Z</time>
      </trkpt>
      <trkpt lat="4.9400150" lon="-75.4987400">
        <ele>2145.4</ele>
        <time>2021-04-17T20:23:31Z</time>
      </trkpt>
      <trkpt lat="4.9400910" lon="-75.4987650">
        <ele>2143.9</ele>
        <time>2021-04-17T20:23:32Z</time>
      </trkpt>
      <trkpt lat="4.9401620" lon="-75.4988150">
        <ele>2142.3</ele>
        <time>2021-04-17T20:23:33Z</time>
      </trkpt>
      <trkpt lat="4.9402330" lon="-75.4988730">
        <ele>2140.6</ele>
        <time>2021-04-17T20:23:34Z</time>
      </trkpt>
      <trkpt lat="4.9403190" lon="-75.4989190">
        <ele>2138.8</ele>
        <time>2021-04-17T20:23:35Z</time>
      </trkpt>
      <trkpt lat="4.9404100" lon="-75.4989530">
        <ele>2137.0</ele>
        <time>2021-04-17T20:23:36Z</time>
      </trkpt>
      <trkpt lat="4.9405060" lon="-75.4989880">
        <ele>2135.1</ele>
        <time>2021-04-17T20:23:37Z</time>
      </trkpt>
      <trkpt lat="4.9405980" lon="-75.4990280">
        <ele>2133.2</ele>
        <time>2021-04-17T20:23:38Z</time>
      </trkpt>
      <trkpt lat="4.9406720" lon="-75.4990760">
        <ele>2131.6</ele>
        <time>2021-04-17T20:23:39Z</time>
      </trkpt>
      <trkpt lat="4.9407280" lon="-75.4991360">
        <ele>2130.1</ele>
        <time>2021-04-17T20:23:40Z</time>
      </trkpt>
      <trkpt lat="4.9407700" lon="-75.4992060">
        <ele>2128.6</ele>
        <time>2021-04-17T20:23:41Z</time>
      </trkpt>
      <trkpt lat="4.9408050" lon="-75.4992800">
        <ele>2127.0</ele>
        <time>2021-04-17T20:23:42Z</time>
      </trkpt>
      <trkpt lat="4.9408460" lon="-75.4993490">
        <ele>2125.5</ele>
        <time>2021-04-17T20:23:43Z</time>
      </trkpt>
      <trkpt lat="4.9409060" lon="-75.4994050">
        <ele>2124.0</ele>
        <time>2021-04-17T20:23:44Z</time>
      </trkpt>
      <trkpt lat="4.9409840" lon="-75.4994320">
        <ele>2122.5</ele>
        <time>2021-04-17T20:23:45Z</time>
      </trkpt>
      <trkpt lat="4.9410760" lon="-75.4994330">
        <ele>2120.8</ele>
        <time>2021-04-17T20:23:46Z</time>
      </trkpt>
      <trkpt lat="4.9411660" lon="-75.4994260">
        <ele>2119.1</ele>
        <time>2021-04-17T20:23:47Z</time>
      </trkpt>
      <trkpt lat="4.9412580" lon="-75.4994340">
        <ele>2117.4</ele>
        <time>2021-04-17T20:23:48Z</time>
      </trkpt>
      <trkpt lat="4.9413450" lon="-75.4994700">
        <ele>2115.6</ele>
        <time>2021-04-17T20:23:49Z</time>
      </trkpt>
      <trkpt lat="4.9414320" lon="-75.4995210">
        <ele>2113.7</ele>
        <time>2021-04-17T20:23:50Z</time>
      </trkpt>
      <trkpt lat="4.9415130" lon="-75.4995780">
        <ele>2111.9</ele>
        <time>2021-04-17T20:23:51Z</time>
      </trkpt>
      <trkpt lat="4.9415910" lon="-75.4996340">
        <ele>2110.1</ele>
        <time>2021-04-17T20:23:52Z</time>
      </trkpt>
      <trkpt lat="4.9416740" lon="-75.4996770">
        <ele>2108.4</ele>
        <time>2021-04-17T20:23:53Z</time>
      </trkpt>
      <trkpt lat="4.9417650" lon="-75.4997090">
        <ele>2106.6</ele>
        <time>2021-04-17T20:23:54Z</time>
      </trkpt>
      <trkpt lat="4.9418620" lon="-75.4997360">
        <ele>2104.7</ele>
        <time>2021-04-17T20:23:55Z</time>
      </trkpt>
      <trkpt lat="4.9419580" lon="-75.4997610">
        <ele>2102.9</ele>
        <time>2021-04-17T20:23:56Z</time>
      </trkpt>
      <trkpt lat="4.9420430" lon="-75.4997790">
        <ele>2101.3</ele>
        <time>2021-04-17T20:23:57Z</time>
      </trkpt>
      <trkpt lat="4.9421180" lon="-75.4997850">
        <ele>2099.9</ele>
        <time>2021-04-17T20:23:58Z</time>
      </trkpt>
      <trkpt lat="4.9421890" lon="-75.4997560">
        <ele>2098.4</ele>
        <time>2021-04-17T20:23:59Z</time>
      </trkpt>
      <trkpt lat="4.9422580" lon="-75.4997080">
        <ele>2096.9</ele>
        <time>2021-04-17T20:24:00Z</time>
      </trkpt>
      <trkpt lat="4.9423290" lon="-75.4996480">
        <ele>2095.1</ele>
        <time>2021-04-17T20:24:01Z</time>
      </trkpt>
      <trkpt lat="4.9424090" lon="-75.4995830">
        <ele>2093.2</ele>
        <time>2021-04-17T20:24:02Z</time>
      </trkpt>
      <trkpt lat="4.9424940" lon="-75.4995170">
        <ele>2091.2</ele>
        <time>2021-04-17T20:24:03Z</time>
      </trkpt>
      <trkpt lat="4.9425740" lon="-75.4994470">
        <ele>2089.2</ele>
        <time>2021-04-17T20:24:04Z</time>
      </trkpt>
      <trkpt lat="4.9426510" lon="-75.4993780">
        <ele>2087.3</ele>
        <time>2021-04-17T20:24:05Z</time>
      </trkpt>
      <trkpt lat="4.9427210" lon="-75.4993140">
        <ele>2085.6</ele>
        <time>2021-04-17T20:24:06Z</time>
      </trkpt>
      <trkpt lat="4.9427820" lon="-75.4992640">
        <ele>2084.1</ele>
        <time>2021-04-17T20:24:07Z</time>
      </trkpt>
      <trkpt lat="4.9428320" lon="-75.4992110">
        <ele>2082.7</ele>
        <time>2021-04-17T20:24:08Z</time>
      </trkpt>
      <trkpt lat="4.9428570" lon="-75.4991420">
        <ele>2081.4</ele>
        <time>2021-04-17T20:24:09Z</time>
      </trkpt>
      <trkpt lat="4.9428710" lon="-75.4990720">
        <ele>2080.1</ele>
        <time>2021-04-17T20:24:10Z</time>
      </trkpt>
      <trkpt lat="4.9428260" lon="-75.4989770">
        <ele>2078.7</ele>
        <time>2021-04-17T20:24:11Z</time>
      </trkpt>
      <trkpt lat="4.9427850" lon="-75.4988850">
        <ele>2077.5</ele>
        <time>2021-04-17T20:24:12Z</time>
      </trkpt>
      <trkpt lat="4.9427400" lon="-75.4987900">
        <ele>2076.2</ele>
        <time>2021-04-17T20:24:13Z</time>
      </trkpt>
      <trkpt lat="4.9426900" lon="-75.4986920">
        <ele>2074.8</ele>
        <time>2021-04-17T20:24:14Z</time>
      </trkpt>
      <trkpt lat="4.9426350" lon="-75.4985970">
        <ele>2073.4</ele>
        <time>2021-04-17T20:24:15Z</time>
      </trkpt>
      <trkpt lat="4.9425690" lon="-75.4985040">
        <ele>2072.0</ele>
        <time>2021-04-17T20:24:16Z</time>
      </trkpt>
      <trkpt lat="4.9425050" lon="-75.4984110">
        <ele>2070.5</ele>
        <time>2021-04-17T20:24:17Z</time>
      </trkpt>
      <trkpt lat="4.9424510" lon="-75.4983180">
        <ele>2069.2</ele>
        <time>2021-04-17T20:24:18Z</time>
      </trkpt>
      <trkpt lat="4.9423890" lon="-75.4982310">
        <ele>2067.8</ele>
        <time>2021-04-17T20:24:19Z</time>
      </trkpt>
      <trkpt lat="4.9423310" lon="-75.4981490">
        <ele>2066.6</ele>
        <time>2021-04-17T20:24:20Z</time>
      </trkpt>
      <trkpt lat="4.9422790" lon="-75.4980730">
        <ele>2065.4</ele>
        <time>2021-04-17T20:24:21Z</time>
      </trkpt>
      <trkpt lat="4.9422350" lon="-75.4980020">
        <ele>2064.4</ele>
        <time>2021-04-17T20:24:22Z</time>
      </trkpt>
      <trkpt lat="4.9422030" lon="-75.4979310">
        <ele>2063.4</ele>
        <time>2021-04-17T20:24:23Z</time>
      </trkpt>
      <trkpt lat="4.9421850" lon="-75.4978610">
        <ele>2062.5</ele>
        <time>2021-04-17T20:24:24Z</time>
      </trkpt>
      <trkpt lat="4.9421770" lon="-75.4977880">
        <ele>2061.6</ele>
        <time>2021-04-17T20:24:25Z</time>
      </trkpt>
      <trkpt lat="4.9421890" lon="-75.4977130">
        <ele>2060.6</ele>
        <time>2021-04-17T20:24:26Z</time>
      </trkpt>
      <trkpt lat="4.9422190" lon="-75.4976360">
        <ele>2059.6</ele>
        <time>2021-04-17T20:24:27Z</time>
      </trkpt>
      <trkpt lat="4.9422630" lon="-75.4975570">
        <ele>2058.4</ele>
        <time>2021-04-17T20:24:28Z</time>
      </trkpt>
      <trkpt lat="4.9423070" lon="-75.4974770">
        <ele>2057.3</ele>
        <time>2021-04-17T20:24:29Z</time>
      </trkpt>
      <trkpt lat="4.9423530" lon="-75.4973970">
        <ele>2056.1</ele>
        <time>2021-04-17T20:24:30Z</time>
      </trkpt>
      <trkpt lat="4.9423940" lon="-75.4973210">
        <ele>2055.0</ele>
        <time>2021-04-17T20:24:31Z</time>
      </trkpt>
      <trkpt lat="4.9424240" lon="-75.4972440">
        <ele>2054.0</ele>
        <time>2021-04-17T20:24:32Z</time>
      </trkpt>
      <trkpt lat="4.9424350" lon="-75.4971650">
        <ele>2053.0</ele>
        <time>2021-04-17T20:24:33Z</time>
      </trkpt>
      <trkpt lat="4.9424250" lon="-75.4970790">
        <ele>2051.9</ele>
        <time>2021-04-17T20:24:34Z</time>
      </trkpt>
      <trkpt lat="4.9423980" lon="-75.4969900">
        <ele>2050.7</ele>
        <time>2021-04-17T20:24:35Z</time>
      </trkpt>
      <trkpt lat="4.9423610" lon="-75.4968990">
        <ele>2049.5</ele>
        <time>2021-04-17T20:24:36Z</time>
      </trkpt>
      <trkpt lat="4.9423200" lon="-75.4968020">
        <ele>2048.2</ele>
        <time>2021-04-17T20:24:37Z</time>
      </trkpt>
      <trkpt lat="4.9422710" lon="-75.4966970">
        <ele>2046.7</ele>
        <time>2021-04-17T20:24:38Z</time>
      </trkpt>
      <trkpt lat="4.9422200" lon="-75.4965890">
        <ele>2045.2</ele>
        <time>2021-04-17T20:24:39Z</time>
      </trkpt>
      <trkpt lat="4.9421710" lon="-75.4964840">
        <ele>2043.8</ele>
        <time>2021-04-17T20:24:40Z</time>
      </trkpt>
      <trkpt lat="4.9421180" lon="-75.4963830">
        <ele>2042.3</ele>
        <time>2021-04-17T20:24:41Z</time>
      </trkpt>
      <trkpt lat="4.9420680" lon="-75.4962840">
        <ele>2040.9</ele>
        <time>2021-04-17T20:24:42Z</time>
      </trkpt>
      <trkpt lat="4.9420250" lon="-75.4961880">
        <ele>2039.6</ele>
        <time>2021-04-17T20:24:43Z</time>
      </trkpt>
      <trkpt lat="4.9419920" lon="-75.4960990">
        <ele>2038.4</ele>
        <time>2021-04-17T20:24:44Z</time>
      </trkpt>
      <trkpt lat="4.9419890" lon="-75.4960230">
        <ele>2037.5</ele>
        <time>2021-04-17T20:24:45Z</time>
      </trkpt>
      <trkpt lat="4.9420010" lon="-75.4959570">
        <ele>2036.6</ele>
        <time>2021-04-17T20:24:46Z</time>
      </trkpt>
      <trkpt lat="4.9420490" lon="-75.4959150">
        <ele>2035.8</ele>
        <time>2021-04-17T20:24:47Z</time>
      </trkpt>
      <trkpt lat="4.9421170" lon="-75.4958910">
        <ele>2034.9</ele>
        <time>2021-04-17T20:24:48Z</time>
      </trkpt>
      <trkpt lat="4.9421870" lon="-75.4958800">
        <ele>2034.0</ele>
        <time>2021-04-17T20:24:49Z</time>
      </trkpt>
      <trkpt lat="4.9422560" lon="-75.4958880">
        <ele>2033.1</ele>
        <time>2021-04-17T20:24:50Z</time>
      </trkpt>
      <trkpt lat="4.9423260" lon="-75.4959320">
        <ele>2032.1</ele>
        <time>2021-04-17T20:24:51Z</time>
      </trkpt>
      <trkpt lat="4.9423790" lon="-75.4959880">
        <ele>2031.1</ele>
        <time>2021-04-17T20:24:52Z</time>
      </trkpt>
      <trkpt lat="4.9424180" lon="-75.4960570">
        <ele>2030.1</ele>
        <time>2021-04-17T20:24:53Z</time>
      </trkpt>
      <trkpt lat="4.9424360" lon="-75.4961440">
        <ele>2029.0</ele>
        <time>2021-04-17T20:24:54Z</time>
      </trkpt>
      <trkpt lat="4.9424510" lon="-75.4962350">
        <ele>2027.9</ele>
        <time>2021-04-17T20:24:55Z</time>
      </trkpt>
      <trkpt lat="4.9424690" lon="-75.4963300">
        <ele>2026.6</ele>
        <time>2021-04-17T20:24:56Z</time>
      </trkpt>
      <trkpt lat="4.9424920" lon="-75.4964300">
        <ele>2025.4</ele>
        <time>2021-04-17T20:24:57Z</time>
      </trkpt>
      <trkpt lat="4.9425220" lon="-75.4965270">
        <ele>2024.1</ele>
        <time>2021-04-17T20:24:58Z</time>
      </trkpt>
      <trkpt lat="4.9425670" lon="-75.4966210">
        <ele>2022.8</ele>
        <time>2021-04-17T20:24:59Z</time>
      </trkpt>
      <trkpt lat="4.9426280" lon="-75.4967090">
        <ele>2021.4</ele>
        <time>2021-04-17T20:25:00Z</time>
      </trkpt>
      <trkpt lat="4.9427030" lon="-75.4967910">
        <ele>2020.0</ele>
        <time>2021-04-17T20:25:01Z</time>
      </trkpt>
      <trkpt lat="4.9427740" lon="-75.4968710">
        <ele>2018.7</ele>
        <time>2021-04-17T20:25:02Z</time>
      </trkpt>
      <trkpt lat="4.9428350" lon="-75.4969560">
        <ele>2017.4</ele>
        <time>2021-04-17T20:25:03Z</time>
      </trkpt>
      <trkpt lat="4.9428850" lon="-75.4970460">
        <ele>2016.1</ele>
        <time>2021-04-17T20:25:04Z</time>
      </trkpt>
      <trkpt lat="4.9429180" lon="-75.4971460">
        <ele>2014.7</ele>
        <time>2021-04-17T20:25:05Z</time>
      </trkpt>
      <trkpt lat="4.9429470" lon="-75.4972460">
        <ele>2013.4</ele>
        <time>2021-04-17T20:25:06Z</time>
      </trkpt>
      <trkpt lat="4.9429800" lon="-75.4973370">
        <ele>2012.2</ele>
        <time>2021-04-17T20:25:07Z</time>
      </trkpt>
      <trkpt lat="4.9430140" lon="-75.4974130">
        <ele>2011.2</ele>
        <time>2021-04-17T20:25:08Z</time>
      </trkpt>
      <trkpt lat="4.9430670" lon="-75.4974820">
        <ele>2010.1</ele>
        <time>2021-04-17T20:25:09Z</time>
      </trkpt>
      <trkpt lat="4.9431470" lon="-75.4975410">
        <ele>2008.8</ele>
        <time>2021-04-17T20:25:10Z</time>
      </trkpt>
      <trkpt lat="4.9432350" lon="-75.4975900">
        <ele>2007.6</ele>
        <time>2021-04-17T20:25:11Z</time>
      </trkpt>
      <trkpt lat="4.9433250" lon="-75.4976360">
        <ele>2006.3</ele>
        <time>2021-04-17T20:25:12Z</time>
      </trkpt>
      <trkpt lat="4.9434130" lon="-75.4976860">
        <ele>2005.0</ele>
        <time>2021-04-17T20:25:13Z</time>
      </trkpt>
      <trkpt lat="4.9434980" lon="-75.4977380">
        <ele>2003.8</ele>
        <time>2021-04-17T20:25:14Z</time>
      </trkpt>
      <trkpt lat="4.9435840" lon="-75.4977970">
        <ele>2002.4</ele>
        <time>2021-04-17T20:25:15Z</time>
      </trkpt>
      <trkpt lat="4.9436720" lon="-75.4978590">
        <ele>2001.1</ele>
        <time>2021-04-17T20:25:16Z</time>
      </trkpt>
      <trkpt lat="4.9437600" lon="-75.4979170">
        <ele>1999.8</ele>
        <time>2021-04-17T20:25:17Z</time>
      </trkpt>
      <trkpt lat="4.9438530" lon="-75.4979610">
        <ele>1998.5</ele>
        <time>2021-04-17T20:25:18Z</time>
      </trkpt>
      <trkpt lat="4.9439400" lon="-75.4979980">
        <ele>1997.3</ele>
        <time>2021-04-17T20:25:19Z</time>
      </trkpt>
      <trkpt lat="4.9440090" lon="-75.4980450">
        <ele>1996.2</ele>
        <time>2021-04-17T20:25:20Z</time>
      </trkpt>
      <trkpt lat="4.9440630" lon="-75.4981100">
        <ele>1995.2</ele>
        <time>2021-04-17T20:25:21Z</time>
      </trkpt>
      <trkpt lat="4.9441070" lon="-75.4981880">
        <ele>1994.0</ele>
        <time>2021-04-17T20:25:22Z</time>
      </trkpt>
      <trkpt lat="4.9441470" lon="-75.4982720">
        <ele>1992.9</ele>
        <time>2021-04-17T20:25:23Z</time>
      </trkpt>
      <trkpt lat="4.9441930" lon="-75.4983580">
        <ele>1991.6</ele>
        <time>2021-04-17T20:25:24Z</time>
      </trkpt>
      <trkpt lat="4.9442410" lon="-75.4984470">
        <ele>1990.4</ele>
        <time>2021-04-17T20:25:25Z</time>
      </trkpt>
      <trkpt lat="4.9442900" lon="-75.4985390">
        <ele>1989.1</ele>
        <time>2021-04-17T20:25:26Z</time>
      </trkpt>
      <trkpt lat="4.9443360" lon="-75.4986270">
        <ele>1987.8</ele>
        <time>2021-04-17T20:25:27Z</time>
      </trkpt>
      <trkpt lat="4.9443870" lon="-75.4987070">
        <ele>1986.6</ele>
        <time>2021-04-17T20:25:28Z</time>
      </trkpt>
      <trkpt lat="4.9444580" lon="-75.4987790">
        <ele>1985.3</ele>
        <time>2021-04-17T20:25:29Z</time>
      </trkpt>
      <trkpt lat="4.9445400" lon="-75.4988350">
        <ele>1984.1</ele>
        <time>2021-04-17T20:25:30Z</time>
      </trkpt>
      <trkpt lat="4.9446340" lon="-75.4988830">
        <ele>1982.8</ele>
        <time>2021-04-17T20:25:31Z</time>
      </trkpt>
      <trkpt lat="4.9447360" lon="-75.4989290">
        <ele>1981.4</ele>
        <time>2021-04-17T20:25:32Z</time>
      </trkpt>
      <trkpt lat="4.9448370" lon="-75.4989710">
        <ele>1980.0</ele>
        <time>2021-04-17T20:25:33Z</time>
      </trkpt>
      <trkpt lat="4.9449340" lon="-75.4990040">
        <ele>1978.7</ele>
        <time>2021-04-17T20:25:34Z</time>
      </trkpt>
      <trkpt lat="4.9450400" lon="-75.4990410">
        <ele>1977.3</ele>
        <time>2021-04-17T20:25:35Z</time>
      </trkpt>
      <trkpt lat="4.9451570" lon="-75.4990800">
        <ele>1975.7</ele>
        <time>2021-04-17T20:25:36Z</time>
      </trkpt>
      <trkpt lat="4.9452790" lon="-75.4991170">
        <ele>1974.1</ele>
        <time>2021-04-17T20:25:37Z</time>
      </trkpt>
      <trkpt lat="4.9454030" lon="-75.4991450">
        <ele>1972.5</ele>
        <time>2021-04-17T20:25:38Z</time>
      </trkpt>
      <trkpt lat="4.9455210" lon="-75.4991600">
        <ele>1971.0</ele>
        <time>2021-04-17T20:25:39Z</time>
      </trkpt>
      <trkpt lat="4.9456310" lon="-75.4991640">
        <ele>1969.6</ele>
        <time>2021-04-17T20:25:40Z</time>
      </trkpt>
      <trkpt lat="4.9457300" lon="-75.4991680">
        <ele>1968.4</ele>
        <time>2021-04-17T20:25:41Z</time>
      </trkpt>
      <trkpt lat="4.9458170" lon="-75.4991760">
        <ele>1967.1</ele>
        <time>2021-04-17T20:25:42Z</time>
      </trkpt>
      <trkpt lat="4.9458850" lon="-75.4991960">
        <ele>1965.9</ele>
        <time>2021-04-17T20:25:43Z</time>
      </trkpt>
      <trkpt lat="4.9459440" lon="-75.4992380">
        <ele>1964.8</ele>
        <time>2021-04-17T20:25:44Z</time>
      </trkpt>
      <trkpt lat="4.9459960" lon="-75.4992990">
        <ele>1963.8</ele>
        <time>2021-04-17T20:25:45Z</time>
      </trkpt>
      <trkpt lat="4.9460420" lon="-75.4993700">
        <ele>1962.8</ele>
        <time>2021-04-17T20:25:46Z</time>
      </trkpt>
      <trkpt lat="4.9460790" lon="-75.4994460">
        <ele>1962.0</ele>
        <time>2021-04-17T20:25:47Z</time>
      </trkpt>
      <trkpt lat="4.9461020" lon="-75.4995240">
        <ele>1961.3</ele>
        <time>2021-04-17T20:25:48Z</time>
      </trkpt>
      <trkpt lat="4.9461060" lon="-75.4996020">
        <ele>1960.6</ele>
        <time>2021-04-17T20:25:49Z</time>
      </trkpt>
      <trkpt lat="4.9461000" lon="-75.4996800">
        <ele>1959.9</ele>
        <time>2021-04-17T20:25:50Z</time>
      </trkpt>
      <trkpt lat="4.9460910" lon="-75.4997560">
        <ele>1959.1</ele>
        <time>2021-04-17T20:25:51Z</time>
      </trkpt>
      <trkpt lat="4.9460660" lon="-75.4998290">
        <ele>1958.1</ele>
        <time>2021-04-17T20:25:52Z</time>
      </trkpt>
      <trkpt lat="4.9460370" lon="-75.4999010">
        <ele>1957.0</ele>
        <time>2021-04-17T20:25:53Z</time>
      </trkpt>
      <trkpt lat="4.9459950" lon="-75.4999620">
        <ele>1955.8</ele>
        <time>2021-04-17T20:25:54Z</time>
      </trkpt>
      <trkpt lat="4.9459580" lon="-75.5000300">
        <ele>1954.5</ele>
        <time>2021-04-17T20:25:55Z</time>
      </trkpt>
      <trkpt lat="4.9459270" lon="-75.5001010">
        <ele>1953.3</ele>
        <time>2021-04-17T20:25:56Z</time>
      </trkpt>
      <trkpt lat="4.9459000" lon="-75.5001770">
        <ele>1952.1</ele>
        <time>2021-04-17T20:25:57Z</time>
      </trkpt>
      <trkpt lat="4.9458770" lon="-75.5002630">
        <ele>1951.0</ele>
        <time>2021-04-17T20:25:58Z</time>
      </trkpt>
      <trkpt lat="4.9458570" lon="-75.5003600">
        <ele>1950.0</ele>
        <time>2021-04-17T20:25:59Z</time>
      </trkpt>
      <trkpt lat="4.9458460" lon="-75.5004650">
        <ele>1949.2</ele>
        <time>2021-04-17T20:26:00Z</time>
      </trkpt>
      <trkpt lat="4.9458370" lon="-75.5005710">
        <ele>1948.5</ele>
        <time>2021-04-17T20:26:01Z</time>
      </trkpt>
      <trkpt lat="4.9458270" lon="-75.5006700">
        <ele>1947.8</ele>
        <time>2021-04-17T20:26:02Z</time>
      </trkpt>
      <trkpt lat="4.9458340" lon="-75.5007680">
        <ele>1946.9</ele>
        <time>2021-04-17T20:26:03Z</time>
      </trkpt>
      <trkpt lat="4.9458590" lon="-75.5008580">
        <ele>1945.9</ele>
        <time>2021-04-17T20:26:04Z</time>
      </trkpt>
      <trkpt lat="4.9458960" lon="-75.5009470">
        <ele>1944.6</ele>
        <time>2021-04-17T20:26:05Z</time>
      </trkpt>
      <trkpt lat="4.9459200" lon="-75.5010380">
        <ele>1943.2</ele>
        <time>2021-04-17T20:26:06Z</time>
      </trkpt>
      <trkpt lat="4.9459400" lon="-75.5011280">
        <ele>1941.8</ele>
        <time>2021-04-17T20:26:07Z</time>
      </trkpt>
      <trkpt lat="4.9459780" lon="-75.5012030">
        <ele>1940.8</ele>
        <time>2021-04-17T20:26:08Z</time>
      </trkpt>
      <trkpt lat="4.9460330" lon="-75.5012650">
        <ele>1939.8</ele>
        <time>2021-04-17T20:26:09Z</time>
      </trkpt>
      <trkpt lat="4.9460990" lon="-75.5013140">
        <ele>1938.9</ele>
        <time>2021-04-17T20:26:10Z</time>
      </trkpt>
      <trkpt lat="4.9461750" lon="-75.5013510">
        <ele>1937.9</ele>
        <time>2021-04-17T20:26:11Z</time>
      </trkpt>
      <trkpt lat="4.9462580" lon="-75.5013800">
        <ele>1936.9</ele>
        <time>2021-04-17T20:26:12Z</time>
      </trkpt>
      <trkpt lat="4.9463410" lon="-75.5014060">
        <ele>1935.9</ele>
        <time>2021-04-17T20:26:13Z</time>
      </trkpt>
      <trkpt lat="4.9464140" lon="-75.5014330">
        <ele>1935.1</ele>
        <time>2021-04-17T20:26:14Z</time>
      </trkpt>
      <trkpt lat="4.9464710" lon="-75.5014530">
        <ele>1934.4</ele>
        <time>2021-04-17T20:26:15Z</time>
      </trkpt>
      <trkpt lat="4.9465190" lon="-75.5014670">
        <ele>1934.0</ele>
        <time>2021-04-17T20:26:16Z</time>
      </trkpt>
      <trkpt lat="4.9465570" lon="-75.5014740">
        <ele>1933.6</ele>
        <time>2021-04-17T20:26:17Z</time>
      </trkpt>
      <trkpt lat="4.9465830" lon="-75.5014790">
        <ele>1933.3</ele>
        <time>2021-04-17T20:26:18Z</time>
      </trkpt>
      <trkpt lat="4.9466000" lon="-75.5014820">
        <ele>1933.2</ele>
        <time>2021-04-17T20:26:19Z</time>
      </trkpt>
      <trkpt lat="4.9466170" lon="-75.5014870">
        <ele>1933.0</ele>
        <time>2021-04-17T20:26:20Z</time>
      </trkpt>
      <trkpt lat="4.9466410" lon="-75.5014960">
        <ele>1932.9</ele>
        <time>2021-04-17T20:26:21Z</time>
      </trkpt>
      <trkpt lat="4.9466740" lon="-75.5015060">
        <ele>1932.6</ele>
        <time>2021-04-17T20:26:22Z</time>
      </trkpt>
      <trkpt lat="4.9467170" lon="-75.5015110">
        <ele>1932.2</ele>
        <time>2021-04-17T20:26:23Z</time>
      </trkpt>
      <trkpt lat="4.9467650" lon="-75.5015070">
        <ele>1931.7</ele>
        <time>2021-04-17T20:26:24Z</time>
      </trkpt>
      <trkpt lat="4.9468160" lon="-75.5014940">
        <ele>1931.2</ele>
        <time>2021-04-17T20:26:25Z</time>
      </trkpt>
      <trkpt lat="4.9468690" lon="-75.5014750">
        <ele>1930.7</ele>
        <time>2021-04-17T20:26:26Z</time>
      </trkpt>
      <trkpt lat="4.9469280" lon="-75.5014590">
        <ele>1930.2</ele>
        <time>2021-04-17T20:26:27Z</time>
      </trkpt>
      <trkpt lat="4.9469900" lon="-75.5014510">
        <ele>1929.6</ele>
        <time>2021-04-17T20:26:28Z</time>
      </trkpt>
      <trkpt lat="4.9470550" lon="-75.5014560">
        <ele>1929.0</ele>
        <time>2021-04-17T20:26:29Z</time>
      </trkpt>
      <trkpt lat="4.9471220" lon="-75.5014750">
        <ele>1928.3</ele>
        <time>2021-04-17T20:26:30Z</time>
      </trkpt>
      <trkpt lat="4.9471920" lon="-75.5015030">
        <ele>1927.7</ele>
        <time>2021-04-17T20:26:31Z</time>
      </trkpt>
      <trkpt lat="4.9472650" lon="-75.5015430">
        <ele>1926.9</ele>
        <time>2021-04-17T20:26:32Z</time>
      </trkpt>
      <trkpt lat="4.9473380" lon="-75.5015940">
        <ele>1926.1</ele>
        <time>2021-04-17T20:26:33Z</time>
      </trkpt>
      <trkpt lat="4.9474100" lon="-75.5016600">
        <ele>1925.2</ele>
        <time>2021-04-17T20:26:34Z</time>
      </trkpt>
      <trkpt lat="4.9474840" lon="-75.5017320">
        <ele>1924.2</ele>
        <time>2021-04-17T20:26:35Z</time>
      </trkpt>
      <trkpt lat="4.9475610" lon="-75.5018050">
        <ele>1923.3</ele>
        <time>2021-04-17T20:26:36Z</time>
      </trkpt>
      <trkpt lat="4.9476370" lon="-75.5018770">
        <ele>1922.3</ele>
        <time>2021-04-17T20:26:37Z</time>
      </trkpt>
      <trkpt lat="4.9477060" lon="-75.5019450">
        <ele>1921.4</ele>
        <time>2021-04-17T20:26:38Z</time>
      </trkpt>
      <trkpt lat="4.9477760" lon="-75.5020110">
        <ele>1920.5</ele>
        <time>2021-04-17T20:26:39Z</time>
      </trkpt>
      <trkpt lat="4.9478500" lon="-75.5020700">
        <ele>1919.7</ele>
        <time>2021-04-17T20:26:40Z</time>
      </trkpt>
      <trkpt lat="4.9479270" lon="-75.5021230">
        <ele>1918.8</ele>
        <time>2021-04-17T20:26:41Z</time>
      </trkpt>
      <trkpt lat="4.9480070" lon="-75.5021670">
        <ele>1918.0</ele>
        <time>2021-04-17T20:26:42Z</time>
      </trkpt>
      <trkpt lat="4.9480910" lon="-75.5021920">
        <ele>1917.2</ele>
        <time>2021-04-17T20:26:43Z</time>
      </trkpt>
      <trkpt lat="4.9481750" lon="-75.5022050">
        <ele>1916.4</ele>
        <time>2021-04-17T20:26:44Z</time>
      </trkpt>
      <trkpt lat="4.9482500" lon="-75.5021710">
        <ele>1915.6</ele>
        <time>2021-04-17T20:26:45Z</time>
      </trkpt>
      <trkpt lat="4.9483190" lon="-75.5021170">
        <ele>1914.8</ele>
        <time>2021-04-17T20:26:46Z</time>
      </trkpt>
      <trkpt lat="4.9483790" lon="-75.5020530">
        <ele>1914.0</ele>
        <time>2021-04-17T20:26:47Z</time>
      </trkpt>
      <trkpt lat="4.9484340" lon="-75.5019860">
        <ele>1913.2</ele>
        <time>2021-04-17T20:26:48Z</time>
      </trkpt>
      <trkpt lat="4.9484820" lon="-75.5019120">
        <ele>1912.4</ele>
        <time>2021-04-17T20:26:49Z</time>
      </trkpt>
      <trkpt lat="4.9485310" lon="-75.5018400">
        <ele>1911.6</ele>
        <time>2021-04-17T20:26:50Z</time>
      </trkpt>
      <trkpt lat="4.9485910" lon="-75.5017710">
        <ele>1910.8</ele>
        <time>2021-04-17T20:26:51Z</time>
      </trkpt>
      <trkpt lat="4.9486520" lon="-75.5017000">
        <ele>1909.9</ele>
        <time>2021-04-17T20:26:52Z</time>
      </trkpt>
      <trkpt lat="4.9487140" lon="-75.5016260">
        <ele>1909.0</ele>
        <time>2021-04-17T20:26:53Z</time>
      </trkpt>
      <trkpt lat="4.9487840" lon="-75.5015560">
        <ele>1908.1</ele>
        <time>2021-04-17T20:26:54Z</time>
      </trkpt>
      <trkpt lat="4.9488610" lon="-75.5014860">
        <ele>1907.2</ele>
        <time>2021-04-17T20:26:55Z</time>
      </trkpt>
      <trkpt lat="4.9489400" lon="-75.5014190">
        <ele>1906.2</ele>
        <time>2021-04-17T20:26:56Z</time>
      </trkpt>
      <trkpt lat="4.9490230" lon="-75.5013640">
        <ele>1905.3</ele>
        <time>2021-04-17T20:26:57Z</time>
      </trkpt>
      <trkpt lat="4.9491040" lon="-75.5013200">
        <ele>1904.5</ele>
        <time>2021-04-17T20:26:58Z</time>
      </trkpt>
      <trkpt lat="4.9491720" lon="-75.5012780">
        <ele>1903.7</ele>
        <time>2021-04-17T20:26:59Z</time>
      </trkpt>
      <trkpt lat="4.9492300" lon="-75.5012280">
        <ele>1903.0</ele>
        <time>2021-04-17T20:27:00Z</time>
      </trkpt>
      <trkpt lat="4.9492790" lon="-75.5011660">
        <ele>1902.3</ele>
        <time>2021-04-17T20:27:01Z</time>
      </trkpt>
      <trkpt lat="4.9493240" lon="-75.5011000">
        <ele>1901.6</ele>
        <time>2021-04-17T20:27:02Z</time>
      </trkpt>
      <trkpt lat="4.9493660" lon="-75.5010280">
        <ele>1900.8</ele>
        <time>2021-04-17T20:27:03Z</time>
      </trkpt>
      <trkpt lat="4.9493980" lon="-75.5009500">
        <ele>1900.0</ele>
        <time>2021-04-17T20:27:04Z</time>
      </trkpt>
      <trkpt lat="4.9494300" lon="-75.5008750">
        <ele>1899.3</ele>
        <time>2021-04-17T20:27:05Z</time>
      </trkpt>
      <trkpt lat="4.9494730" lon="-75.5008030">
        <ele>1898.5</ele>
        <time>2021-04-17T20:27:06Z</time>
      </trkpt>
      <trkpt lat="4.9495290" lon="-75.5007300">
        <ele>1897.7</ele>
        <time>2021-04-17T20:27:07Z</time>
      </trkpt>
      <trkpt lat="4.9495920" lon="-75.5006600">
        <ele>1896.8</ele>
        <time>2021-04-17T20:27:08Z</time>
      </trkpt>
      <trkpt lat="4.9496570" lon="-75.5005990">
        <ele>1896.0</ele>
        <time>2021-04-17T20:27:09Z</time>
      </trkpt>
      <trkpt lat="4.9497130" lon="-75.5005390">
        <ele>1895.3</ele>
        <time>2021-04-17T20:27:10Z</time>
      </trkpt>
      <trkpt lat="4.9497560" lon="-75.5004800">
        <ele>1894.6</ele>
        <time>2021-04-17T20:27:11Z</time>
      </trkpt>
      <trkpt lat="4.9497820" lon="-75.5004130">
        <ele>1893.9</ele>
        <time>2021-04-17T20:27:12Z</time>
      </trkpt>
      <trkpt lat="4.9497550" lon="-75.5003310">
        <ele>1893.1</ele>
        <time>2021-04-17T20:27:13Z</time>
      </trkpt>
      <trkpt lat="4.9497240" lon="-75.5002500">
        <ele>1892.3</ele>
        <time>2021-04-17T20:27:14Z</time>
      </trkpt>
      <trkpt lat="4.9496920" lon="-75.5001700">
        <ele>1891.6</ele>
        <time>2021-04-17T20:27:15Z</time>
      </trkpt>
      <trkpt lat="4.9496560" lon="-75.5000880">
        <ele>1890.7</ele>
        <time>2021-04-17T20:27:16Z</time>
      </trkpt>
      <trkpt lat="4.9496210" lon="-75.4999990">
        <ele>1889.9</ele>
        <time>2021-04-17T20:27:17Z</time>
      </trkpt>
      <trkpt lat="4.9495880" lon="-75.4999100">
        <ele>1889.0</ele>
        <time>2021-04-17T20:27:18Z</time>
      </trkpt>
      <trkpt lat="4.9495490" lon="-75.4998220">
        <ele>1888.1</ele>
        <time>2021-04-17T20:27:19Z</time>
      </trkpt>
      <trkpt lat="4.9495090" lon="-75.4997240">
        <ele>1887.1</ele>
        <time>2021-04-17T20:27:20Z</time>
      </trkpt>
      <trkpt lat="4.9494650" lon="-75.4996220">
        <ele>1886.1</ele>
        <time>2021-04-17T20:27:21Z</time>
      </trkpt>
      <trkpt lat="4.9494260" lon="-75.4995240">
        <ele>1885.2</ele>
        <time>2021-04-17T20:27:22Z</time>
      </trkpt>
      <trkpt lat="4.9493840" lon="-75.4994310">
        <ele>1884.2</ele>
        <time>2021-04-17T20:27:23Z</time>
      </trkpt>
      <trkpt lat="4.9493560" lon="-75.4993410">
        <ele>1883.4</ele>
        <time>2021-04-17T20:27:24Z</time>
      </trkpt>
      <trkpt lat="4.9493100" lon="-75.4992670">
        <ele>1882.6</ele>
        <time>2021-04-17T20:27:25Z</time>
      </trkpt>
      <trkpt lat="4.9492470" lon="-75.4992190">
        <ele>1881.8</ele>
        <time>2021-04-17T20:27:26Z</time>
      </trkpt>
      <trkpt lat="4.9491640" lon="-75.4991860">
        <ele>1881.0</ele>
        <time>2021-04-17T20:27:27Z</time>
      </trkpt>
      <trkpt lat="4.9490770" lon="-75.4991610">
        <ele>1880.2</ele>
        <time>2021-04-17T20:27:28Z</time>
      </trkpt>
      <trkpt lat="4.9489840" lon="-75.4991320">
        <ele>1879.3</ele>
        <time>2021-04-17T20:27:29Z</time>
      </trkpt>
      <trkpt lat="4.9488930" lon="-75.4990940">
        <ele>1878.4</ele>
        <time>2021-04-17T20:27:30Z</time>
      </trkpt>
      <trkpt lat="4.9488080" lon="-75.4990510">
        <ele>1877.5</ele>
        <time>2021-04-17T20:27:31Z</time>
      </trkpt>
      <trkpt lat="4.9487180" lon="-75.4990060">
        <ele>1876.6</ele>
        <time>2021-04-17T20:27:32Z</time>
      </trkpt>
      <trkpt lat="4.9486270" lon="-75.4989700">
        <ele>1875.7</ele>
        <time>2021-04-17T20:27:33Z</time>
      </trkpt>
      <trkpt lat="4.9485310" lon="-75.4989240">
        <ele>1874.7</ele>
        <time>2021-04-17T20:27:34Z</time>
      </trkpt>
      <trkpt lat="4.9484330" lon="-75.4988720">
        <ele>1873.7</ele>
        <time>2021-04-17T20:27:35Z</time>
      </trkpt>
      <trkpt lat="4.9483390" lon="-75.4988080">
        <ele>1872.7</ele>
        <time>2021-04-17T20:27:36Z</time>
      </trkpt>
      <trkpt lat="4.9482510" lon="-75.4987380">
        <ele>1871.6</ele>
        <time>2021-04-17T20:27:37Z</time>
      </trkpt>
      <trkpt lat="4.9481590" lon="-75.4986770">
        <ele>1870.6</ele>
        <time>2021-04-17T20:27:38Z</time>
      </trkpt>
      <trkpt lat="4.9480730" lon="-75.4986180">
        <ele>1869.7</ele>
        <time>2021-04-17T20:27:39Z</time>
      </trkpt>
      <trkpt lat="4.9479960" lon="-75.4985530">
        <ele>1868.7</ele>
        <time>2021-04-17T20:27:40Z</time>
      </trkpt>
      <trkpt lat="4.9479280" lon="-75.4984930">
        <ele>1867.9</ele>
        <time>2021-04-17T20:27:41Z</time>
      </trkpt>
      <trkpt lat="4.9478760" lon="-75.4984340">
        <ele>1867.2</ele>
        <time>2021-04-17T20:27:42Z</time>
      </trkpt>
      <trkpt lat="4.9478540" lon="-75.4983800">
        <ele>1866.6</ele>
        <time>2021-04-17T20:27:43Z</time>
      </trkpt>
      <trkpt lat="4.9478400" lon="-75.4983160">
        <ele>1866.0</ele>
        <time>2021-04-17T20:27:44Z</time>
      </trkpt>
      <trkpt lat="4.9478380" lon="-75.4982550">
        <ele>1865.5</ele>
        <time>2021-04-17T20:27:45Z</time>
      </trkpt>
      <trkpt lat="4.9478290" lon="-75.4981820">
        <ele>1864.8</ele>
        <time>2021-04-17T20:27:46Z</time>
      </trkpt>
      <trkpt lat="4.9478090" lon="-75.4981000">
        <ele>1864.0</ele>
        <time>2021-04-17T20:27:47Z</time>
      </trkpt>
      <trkpt lat="4.9477950" lon="-75.4980190">
        <ele>1863.3</ele>
        <time>2021-04-17T20:27:48Z</time>
      </trkpt>
      <trkpt lat="4.9477890" lon="-75.4979370">
        <ele>1862.5</ele>
        <time>2021-04-17T20:27:49Z</time>
      </trkpt>
      <trkpt lat="4.9477970" lon="-75.4978700">
        <ele>1861.9</ele>
        <time>2021-04-17T20:27:50Z</time>
      </trkpt>
      <trkpt lat="4.9478130" lon="-75.4978170">
        <ele>1861.4</ele>
        <time>2021-04-17T20:27:51Z</time>
      </trkpt>
      <trkpt lat="4.9478340" lon="-75.4977620">
        <ele>1860.9</ele>
        <time>2021-04-17T20:27:52Z</time>
      </trkpt>
      <trkpt lat="4.9478640" lon="-75.4977070">
        <ele>1860.3</ele>
        <time>2021-04-17T20:27:53Z</time>
      </trkpt>
      <trkpt lat="4.9479090" lon="-75.4976560">
        <ele>1859.7</ele>
        <time>2021-04-17T20:27:54Z</time>
      </trkpt>
      <trkpt lat="4.9479470" lon="-75.4976020">
        <ele>1859.1</ele>
        <time>2021-04-17T20:27:55Z</time>
      </trkpt>
      <trkpt lat="4.9479730" lon="-75.4975410">
        <ele>1858.5</ele>
        <time>2021-04-17T20:27:56Z</time>
      </trkpt>
      <trkpt lat="4.9479880" lon="-75.4974800">
        <ele>1857.9</ele>
        <time>2021-04-17T20:27:57Z</time>
      </trkpt>
      <trkpt lat="4.9479860" lon="-75.4974180">
        <ele>1857.3</ele>
        <time>2021-04-17T20:27:58Z</time>
      </trkpt>
      <trkpt lat="4.9479580" lon="-75.4973520">
        <ele>1856.7</ele>
        <time>2021-04-17T20:27:59Z</time>
      </trkpt>
      <trkpt lat="4.9479220" lon="-75.4972870">
        <ele>1856.0</ele>
        <time>2021-04-17T20:28:00Z</time>
      </trkpt>
      <trkpt lat="4.9478770" lon="-75.4972240">
        <ele>1855.3</ele>
        <time>2021-04-17T20:28:01Z</time>
      </trkpt>
      <trkpt lat="4.9478240" lon="-75.4971630">
        <ele>1854.5</ele>
        <time>2021-04-17T20:28:02Z</time>
      </trkpt>
      <trkpt lat="4.9477710" lon="-75.4971010">
        <ele>1853.8</ele>
        <time>2021-04-17T20:28:03Z</time>
      </trkpt>
      <trkpt lat="4.9477230" lon="-75.4970310">
        <ele>1853.0</ele>
        <time>2021-04-17T20:28:04Z</time>
      </trkpt>
      <trkpt lat="4.9476890" lon="-75.4969480">
        <ele>1852.2</ele>
        <time>2021-04-17T20:28:05Z</time>
      </trkpt>
      <trkpt lat="4.9476680" lon="-75.4968630">
        <ele>1852.3</ele>
        <time>2021-04-17T20:28:06Z</time>
      </trkpt>
      <trkpt lat="4.9476740" lon="-75.4967790">
        <ele>1852.4</ele>
        <time>2021-04-17T20:28:07Z</time>
      </trkpt>
      <trkpt lat="4.9476850" lon="-75.4966960">
        <ele>1852.5</ele>
        <time>2021-04-17T20:28:08Z</time>
      </trkpt>
      <trkpt lat="4.9477030" lon="-75.4966190">
        <ele>1852.7</ele>
        <time>2021-04-17T20:28:09Z</time>
      </trkpt>
      <trkpt lat="4.9477190" lon="-75.4965440">
        <ele>1852.7</ele>
        <time>2021-04-17T20:28:10Z</time>
      </trkpt>
      <trkpt lat="4.9477220" lon="-75.4964690">
        <ele>1852.4</ele>
        <time>2021-04-17T20:28:11Z</time>
      </trkpt>
      <trkpt lat="4.9477030" lon="-75.4964010">
        <ele>1852.2</ele>
        <time>2021-04-17T20:28:12Z</time>
      </trkpt>
      <trkpt lat="4.9476640" lon="-75.4963410">
        <ele>1851.9</ele>
        <time>2021-04-17T20:28:13Z</time>
      </trkpt>
      <trkpt lat="4.9476070" lon="-75.4962890">
        <ele>1851.7</ele>
        <time>2021-04-17T20:28:14Z</time>
      </trkpt>
      <trkpt lat="4.9475450" lon="-75.4962500">
        <ele>1851.6</ele>
        <time>2021-04-17T20:28:15Z</time>
      </trkpt>
      <trkpt lat="4.9474810" lon="-75.4962130">
        <ele>1851.6</ele>
        <time>2021-04-17T20:28:16Z</time>
      </trkpt>
      <trkpt lat="4.9474200" lon="-75.4961770">
        <ele>1851.6</ele>
        <time>2021-04-17T20:28:17Z</time>
      </trkpt>
      <trkpt lat="4.9473650" lon="-75.4961440">
        <ele>1851.8</ele>
        <time>2021-04-17T20:28:18Z</time>
      </trkpt>
      <trkpt lat="4.9473100" lon="-75.4961160">
        <ele>1852.0</ele>
        <time>2021-04-17T20:28:19Z</time>
      </trkpt>
      <trkpt lat="4.9472570" lon="-75.4960840">
        <ele>1852.3</ele>
        <time>2021-04-17T20:28:20Z</time>
      </trkpt>
      <trkpt lat="4.9472060" lon="-75.4960560">
        <ele>1852.6</ele>
        <time>2021-04-17T20:28:21Z</time>
      </trkpt>
      <trkpt lat="4.9471590" lon="-75.4960310">
        <ele>1853.0</ele>
        <time>2021-04-17T20:28:22Z</time>
      </trkpt>
      <trkpt lat="4.9471150" lon="-75.4960100">
        <ele>1853.3</ele>
        <time>2021-04-17T20:28:23Z</time>
      </trkpt>
      <trkpt lat="4.9470750" lon="-75.4959900">
        <ele>1853.7</ele>
        <time>2021-04-17T20:28:24Z</time>
      </trkpt>
      <trkpt lat="4.9470420" lon="-75.4959750">
        <ele>1854.1</ele>
        <time>2021-04-17T20:28:25Z</time>
      </trkpt>
      <trkpt lat="4.9470140" lon="-75.4959630">
        <ele>1854.5</ele>
        <time>2021-04-17T20:28:26Z</time>
      </trkpt>
      <trkpt lat="4.9469890" lon="-75.4959520">
        <ele>1854.8</ele>
        <time>2021-04-17T20:28:27Z</time>
      </trkpt>
      <trkpt lat="4.9469620" lon="-75.4959430">
        <ele>1855.1</ele>
        <time>2021-04-17T20:28:28Z</time>
      </trkpt>
      <trkpt lat="4.9469360" lon="-75.4959360">
        <ele>1855.5</ele>
        <time>2021-04-17T20:28:29Z</time>
      </trkpt>
      <trkpt lat="4.9469100" lon="-75.4959250">
        <ele>1855.9</ele>
        <time>2021-04-17T20:28:30Z</time>
      </trkpt>
      <trkpt lat="4.9468880" lon="-75.4959110">
        <ele>1856.2</ele>
        <time>2021-04-17T20:28:31Z</time>
      </trkpt>
      <trkpt lat="4.9468720" lon="-75.4959010">
        <ele>1856.5</ele>
        <time>2021-04-17T20:28:32Z</time>
      </trkpt>
      <trkpt lat="4.9468590" lon="-75.4958820">
        <ele>1856.8</ele>
        <time>2021-04-17T20:28:33Z</time>
      </trkpt>
      <trkpt lat="4.9468460" lon="-75.4958590">
        <ele>1857.2</ele>
        <time>2021-04-17T20:28:34Z</time>
      </trkpt>
      <trkpt lat="4.9468350" lon="-75.4958380">
        <ele>1857.5</ele>
        <time>2021-04-17T20:28:35Z</time>
      </trkpt>
      <trkpt lat="4.9468290" lon="-75.4958130">
        <ele>1857.9</ele>
        <time>2021-04-17T20:28:36Z</time>
      </trkpt>
      <trkpt lat="4.9468280" lon="-75.4957860">
        <ele>1858.2</ele>
        <time>2021-04-17T20:28:37Z</time>
      </trkpt>
      <trkpt lat="4.9468260" lon="-75.4957570">
        <ele>1858.5</ele>
        <time>2021-04-17T20:28:38Z</time>
      </trkpt>
      <trkpt lat="4.9468280" lon="-75.4957320">
        <ele>1858.7</ele>
        <time>2021-04-17T20:28:39Z</time>
      </trkpt>
      <trkpt lat="4.9468330" lon="-75.4957080">
        <ele>1859.0</ele>
        <time>2021-04-17T20:28:40Z</time>
      </trkpt>
      <trkpt lat="4.9468450" lon="-75.4956830">
        <ele>1859.2</ele>
        <time>2021-04-17T20:28:41Z</time>
      </trkpt>
      <trkpt lat="4.9468600" lon="-75.4956610">
        <ele>1859.3</ele>
        <time>2021-04-17T20:28:42Z</time>
      </trkpt>
      <trkpt lat="4.9468740" lon="-75.4956440">
        <ele>1859.4</ele>
        <time>2021-04-17T20:28:43Z</time>
      </trkpt>
      <trkpt lat="4.9468900" lon="-75.4956290">
        <ele>1859.5</ele>
        <time>2021-04-17T20:28:44Z</time>
      </trkpt>
      <trkpt lat="4.9469140" lon="-75.4956200">
        <ele>1859.6</ele>
        <time>2021-04-17T20:28:45Z</time>
      </trkpt>
      <trkpt lat="4.9469380" lon="-75.4956100">
        <ele>1859.7</ele>
        <time>2021-04-17T20:28:46Z</time>
      </trkpt>
      <trkpt lat="4.9469580" lon="-75.4956090">
        <ele>1859.7</ele>
        <time>2021-04-17T20:28:47Z</time>
      </trkpt>
      <trkpt lat="4.9469830" lon="-75.4956100">
        <ele>1859.8</ele>
        <time>2021-04-17T20:28:48Z</time>
      </trkpt>
      <trkpt lat="4.9470110" lon="-75.4956110">
        <ele>1859.9</ele>
        <time>2021-04-17T20:28:49Z</time>
      </trkpt>
      <trkpt lat="4.9470400" lon="-75.4956110">
        <ele>1860.0</ele>
        <time>2021-04-17T20:28:50Z</time>
      </trkpt>
      <trkpt lat="4.9470690" lon="-75.4956120">
        <ele>1860.0</ele>
        <time>2021-04-17T20:28:51Z</time>
      </trkpt>
      <trkpt lat="4.9470980" lon="-75.4956140">
        <ele>1860.1</ele>
        <time>2021-04-17T20:28:52Z</time>
      </trkpt>
      <trkpt lat="4.9471280" lon="-75.4956180">
        <ele>1860.2</ele>
        <time>2021-04-17T20:28:53Z</time>
      </trkpt>
      <trkpt lat="4.9471560" lon="-75.4956180">
        <ele>1860.3</ele>
        <time>2021-04-17T20:28:54Z</time>
      </trkpt>
      <trkpt lat="4.9471840" lon="-75.4956210">
        <ele>1860.3</ele>
        <time>2021-04-17T20:28:55Z</time>
      </trkpt>
      <trkpt lat="4.9472110" lon="-75.4956170">
        <ele>1860.4</ele>
        <time>2021-04-17T20:28:56Z</time>
      </trkpt>
      <trkpt lat="4.9472390" lon="-75.4956160">
        <ele>1860.5</ele>
        <time>2021-04-17T20:28:57Z</time>
      </trkpt>
      <trkpt lat="4.9472670" lon="-75.4956140">
        <ele>1860.6</ele>
        <time>2021-04-17T20:28:58Z</time>
      </trkpt>
      <trkpt lat="4.9472920" lon="-75.4956110">
        <ele>1860.7</ele>
        <time>2021-04-17T20:28:59Z</time>
      </trkpt>
      <trkpt lat="4.9473160" lon="-75.4956110">
        <ele>1860.8</ele>
        <time>2021-04-17T20:29:00Z</time>
      </trkpt>
      <trkpt lat="4.9473390" lon="-75.4956110">
        <ele>1860.9</ele>
        <time>2021-04-17T20:29:01Z</time>
      </trkpt>
      <trkpt lat="4.9473620" lon="-75.4956110">
        <ele>1861.0</ele>
        <time>2021-04-17T20:29:02Z</time>
      </trkpt>
      <trkpt lat="4.9473860" lon="-75.4956150">
        <ele>1861.0</ele>
        <time>2021-04-17T20:29:03Z</time>
      </trkpt>
      <trkpt lat="4.9474090" lon="-75.4956160">
        <ele>1861.1</ele>
        <time>2021-04-17T20:29:04Z</time>
      </trkpt>
      <trkpt lat="4.9474330" lon="-75.4956190">
        <ele>1861.2</ele>
        <time>2021-04-17T20:29:05Z</time>
      </trkpt>
      <trkpt lat="4.9474570" lon="-75.4956250">
        <ele>1861.2</ele>
        <time>2021-04-17T20:29:06Z</time>
      </trkpt>
      <trkpt lat="4.9474800" lon="-75.4956310">
        <ele>1861.3</ele>
        <time>2021-04-17T20:29:07Z</time>
      </trkpt>
      <trkpt lat="4.9475020" lon="-75.4956360">
        <ele>1861.3</ele>
        <time>2021-04-17T20:29:08Z</time>
      </trkpt>
      <trkpt lat="4.9475240" lon="-75.4956420">
        <ele>1861.4</ele>
        <time>2021-04-17T20:29:09Z</time>
      </trkpt>
      <trkpt lat="4.9475430" lon="-75.4956460">
        <ele>1861.4</ele>
        <time>2021-04-17T20:29:10Z</time>
      </trkpt>
      <trkpt lat="4.9475590" lon="-75.4956510">
        <ele>1861.4</ele>
        <time>2021-04-17T20:29:11Z</time>
      </trkpt>
      <trkpt lat="4.9475730" lon="-75.4956560">
        <ele>1861.4</ele>
        <time>2021-04-17T20:29:12Z</time>
      </trkpt>
      <trkpt lat="4.9475870" lon="-75.4956610">
        <ele>1861.4</ele>
        <time>2021-04-17T20:29:13Z</time>
      </trkpt>
      <trkpt lat="4.9476060" lon="-75.4956690">
        <ele>1861.4</ele>
        <time>2021-04-17T20:29:14Z</time>
      </trkpt>
      <trkpt lat="4.9476290" lon="-75.4956790">
        <ele>1861.5</ele>
        <time>2021-04-17T20:29:15Z</time>
      </trkpt>
      <trkpt lat="4.9476520" lon="-75.4956910">
        <ele>1861.5</ele>
        <time>2021-04-17T20:29:16Z</time>
      </trkpt>
      <trkpt lat="4.9476750" lon="-75.4957010">
        <ele>1861.5</ele>
        <time>2021-04-17T20:29:17Z</time>
      </trkpt>
      <trkpt lat="4.9476990" lon="-75.4957130">
        <ele>1861.5</ele>
        <time>2021-04-17T20:29:18Z</time>
      </trkpt>
      <trkpt lat="4.9477250" lon="-75.4957250">
        <ele>1861.5</ele>
        <time>2021-04-17T20:29:19Z</time>
      </trkpt>
      <trkpt lat="4.9477510" lon="-75.4957340">
        <ele>1861.5</ele>
        <time>2021-04-17T20:29:20Z</time>
      </trkpt>
      <trkpt lat="4.9477790" lon="-75.4957440">
        <ele>1861.6</ele>
        <time>2021-04-17T20:29:21Z</time>
      </trkpt>
      <trkpt lat="4.9478050" lon="-75.4957550">
        <ele>1861.6</ele>
        <time>2021-04-17T20:29:22Z</time>
      </trkpt>
      <trkpt lat="4.9478320" lon="-75.4957660">
        <ele>1861.7</ele>
        <time>2021-04-17T20:29:23Z</time>
      </trkpt>
      <trkpt lat="4.9478590" lon="-75.4957760">
        <ele>1861.7</ele>
        <time>2021-04-17T20:29:24Z</time>
      </trkpt>
      <trkpt lat="4.9478840" lon="-75.4957890">
        <ele>1861.8</ele>
        <time>2021-04-17T20:29:25Z</time>
      </trkpt>
      <trkpt lat="4.9479070" lon="-75.4958070">
        <ele>1861.9</ele>
        <time>2021-04-17T20:29:26Z</time>
      </trkpt>
      <trkpt lat="4.9479300" lon="-75.4958230">
        <ele>1861.9</ele>
        <time>2021-04-17T20:29:27Z</time>
      </trkpt>
      <trkpt lat="4.9479520" lon="-75.4958400">
        <ele>1862.0</ele>
        <time>2021-04-17T20:29:28Z</time>
      </trkpt>
      <trkpt lat="4.9479720" lon="-75.4958560">
        <ele>1862.0</ele>
        <time>2021-04-17T20:29:29Z</time>
      </trkpt>
      <trkpt lat="4.9479900" lon="-75.4958720">
        <ele>1862.1</ele>
        <time>2021-04-17T20:29:30Z</time>
      </trkpt>
      <trkpt lat="4.9480090" lon="-75.4958870">
        <ele>1862.2</ele>
        <time>2021-04-17T20:29:31Z</time>
      </trkpt>
      <trkpt lat="4.9480300" lon="-75.4959020">
        <ele>1862.2</ele>
        <time>2021-04-17T20:29:32Z</time>
      </trkpt>
      <trkpt lat="4.9480530" lon="-75.4959180">
        <ele>1862.3</ele>
        <time>2021-04-17T20:29:33Z</time>
      </trkpt>
      <trkpt lat="4.9480780" lon="-75.4959320">
        <ele>1862.3</ele>
        <time>2021-04-17T20:29:34Z</time>
      </trkpt>
      <trkpt lat="4.9481030" lon="-75.4959450">
        <ele>1862.4</ele>
        <time>2021-04-17T20:29:35Z</time>
      </trkpt>
      <trkpt lat="4.9481290" lon="-75.4959610">
        <ele>1862.4</ele>
        <time>2021-04-17T20:29:36Z</time>
      </trkpt>
      <trkpt lat="4.9481560" lon="-75.4959760">
        <ele>1862.5</ele>
        <time>2021-04-17T20:29:37Z</time>
      </trkpt>
      <trkpt lat="4.9481850" lon="-75.4959970">
        <ele>1862.5</ele>
        <time>2021-04-17T20:29:38Z</time>
      </trkpt>
      <trkpt lat="4.9482120" lon="-75.4960210">
        <ele>1862.5</ele>
        <time>2021-04-17T20:29:39Z</time>
      </trkpt>
      <trkpt lat="4.9482370" lon="-75.4960470">
        <ele>1862.6</ele>
        <time>2021-04-17T20:29:40Z</time>
      </trkpt>
      <trkpt lat="4.9482610" lon="-75.4960720">
        <ele>1862.6</ele>
        <time>2021-04-17T20:29:41Z</time>
      </trkpt>
      <trkpt lat="4.9482840" lon="-75.4960920">
        <ele>1862.6</ele>
        <time>2021-04-17T20:29:42Z</time>
      </trkpt>
      <trkpt lat="4.9483110" lon="-75.4961100">
        <ele>1862.7</ele>
        <time>2021-04-17T20:29:43Z</time>
      </trkpt>
      <trkpt lat="4.9483370" lon="-75.4961350">
        <ele>1862.8</ele>
        <time>2021-04-17T20:29:44Z</time>
      </trkpt>
      <trkpt lat="4.9483610" lon="-75.4961590">
        <ele>1862.9</ele>
        <time>2021-04-17T20:29:45Z</time>
      </trkpt>
      <trkpt lat="4.9483830" lon="-75.4961860">
        <ele>1863.0</ele>
        <time>2021-04-17T20:29:46Z</time>
      </trkpt>
      <trkpt lat="4.9484020" lon="-75.4962110">
        <ele>1863.2</ele>
        <time>2021-04-17T20:29:47Z</time>
      </trkpt>
      <trkpt lat="4.9484170" lon="-75.4962350">
        <ele>1863.3</ele>
        <time>2021-04-17T20:29:48Z</time>
      </trkpt>
      <trkpt lat="4.9484330" lon="-75.4962580">
        <ele>1863.5</ele>
        <time>2021-04-17T20:29:49Z</time>
      </trkpt>
      <trkpt lat="4.9484450" lon="-75.4962780">
        <ele>1863.6</ele>
        <time>2021-04-17T20:29:50Z</time>
      </trkpt>
      <trkpt lat="4.9484560" lon="-75.4962990">
        <ele>1863.8</ele>
        <time>2021-04-17T20:29:51Z</time>
      </trkpt>
      <trkpt lat="4.9484670" lon="-75.4963230">
        <ele>1864.0</ele>
        <time>2021-04-17T20:29:52Z</time>
      </trkpt>
      <trkpt lat="4.9484810" lon="-75.4963460">
        <ele>1864.2</ele>
        <time>2021-04-17T20:29:53Z</time>
      </trkpt>
      <trkpt lat="4.9484970" lon="-75.4963690">
        <ele>1864.4</ele>
        <time>2021-04-17T20:29:54Z</time>
      </trkpt>
      <trkpt lat="4.9485130" lon="-75.4963920">
        <ele>1864.6</ele>
        <time>2021-04-17T20:29:55Z</time>
      </trkpt>
      <trkpt lat="4.9485310" lon="-75.4964120">
        <ele>1864.8</ele>
        <time>2021-04-17T20:29:56Z</time>
      </trkpt>
      <trkpt lat="4.9485500" lon="-75.4964310">
        <ele>1865.0</ele>
        <time>2021-04-17T20:29:57Z</time>
      </trkpt>
      <trkpt lat="4.9485730" lon="-75.4964420">
        <ele>1865.2</ele>
        <time>2021-04-17T20:29:58Z</time>
      </trkpt>
      <trkpt lat="4.9485990" lon="-75.4964470">
        <ele>1865.4</ele>
        <time>2021-04-17T20:29:59Z</time>
      </trkpt>
      <trkpt lat="4.9486240" lon="-75.4964500">
        <ele>1865.6</ele>
        <time>2021-04-17T20:30:00Z</time>
      </trkpt>
      <trkpt lat="4.9486470" lon="-75.4964540">
        <ele>1865.8</ele>
        <time>2021-04-17T20:30:01Z</time>
      </trkpt>
      <trkpt lat="4.9486710" lon="-75.4964600">
        <ele>1865.9</ele>
        <time>2021-04-17T20:30:02Z</time>
      </trkpt>
      <trkpt lat="4.9486940" lon="-75.4964730">
        <ele>1866.1</ele>
        <time>2021-04-17T20:30:03Z</time>
      </trkpt>
      <trkpt lat="4.9487150" lon="-75.4964890">
        <ele>1866.2</ele>
        <time>2021-04-17T20:30:04Z</time>
      </trkpt>
      <trkpt lat="4.9487390" lon="-75.4965040">
        <ele>1866.4</ele>
        <time>2021-04-17T20:30:05Z</time>
      </trkpt>
      <trkpt lat="4.9487620" lon="-75.4965190">
        <ele>1866.5</ele>
        <time>2021-04-17T20:30:06Z</time>
      </trkpt>
      <trkpt lat="4.9487800" lon="-75.4965340">
        <ele>1866.6</ele>
        <time>2021-04-17T20:30:07Z</time>
      </trkpt>
      <trkpt lat="4.9487970" lon="-75.4965530">
        <ele>1866.8</ele>
        <time>2021-04-17T20:30:08Z</time>
      </trkpt>
      <trkpt lat="4.9488150" lon="-75.4965700">
        <ele>1866.9</ele>
        <time>2021-04-17T20:30:09Z</time>
      </trkpt>
      <trkpt lat="4.9488330" lon="-75.4965880">
        <ele>1867.0</ele>
        <time>2021-04-17T20:30:10Z</time>
      </trkpt>
      <trkpt lat="4.9488520" lon="-75.4966020">
        <ele>1867.2</ele>
        <time>2021-04-17T20:30:11Z</time>
      </trkpt>
      <trkpt lat="4.9488710" lon="-75.4966150">
        <ele>1867.3</ele>
        <time>2021-04-17T20:30:12Z</time>
      </trkpt>
      <trkpt lat="4.9488870" lon="-75.4966300">
        <ele>1867.4</ele>
        <time>2021-04-17T20:30:13Z</time>
      </trkpt>
      <trkpt lat="4.9489040" lon="-75.4966470">
        <ele>1867.5</ele>
        <time>2021-04-17T20:30:14Z</time>
      </trkpt>
      <trkpt lat="4.9489240" lon="-75.4966650">
        <ele>1867.7</ele>
        <time>2021-04-17T20:30:15Z</time>
      </trkpt>
      <trkpt lat="4.9489450" lon="-75.4966840">
        <ele>1867.9</ele>
        <time>2021-04-17T20:30:16Z</time>
      </trkpt>
      <trkpt lat="4.9489650" lon="-75.4967040">
        <ele>1868.1</ele>
        <time>2021-04-17T20:30:17Z</time>
      </trkpt>
      <trkpt lat="4.9489860" lon="-75.4967200">
        <ele>1868.3</ele>
        <time>2021-04-17T20:30:18Z</time>
      </trkpt>
      <trkpt lat="4.9490070" lon="-75.4967350">
        <ele>1868.5</ele>
        <time>2021-04-17T20:30:19Z</time>
      </trkpt>
      <trkpt lat="4.9490250" lon="-75.4967480">
        <ele>1868.7</ele>
        <time>2021-04-17T20:30:20Z</time>
      </trkpt>
      <trkpt lat="4.9490410" lon="-75.4967650">
        <ele>1869.1</ele>
        <time>2021-04-17T20:30:21Z</time>
      </trkpt>
      <trkpt lat="4.9490570" lon="-75.4967830">
        <ele>1869.4</ele>
        <time>2021-04-17T20:30:22Z</time>
      </trkpt>
      <trkpt lat="4.9490730" lon="-75.4968020">
        <ele>1869.7</ele>
        <time>2021-04-17T20:30:23Z</time>
      </trkpt>
      <trkpt lat="4.9490940" lon="-75.4968160">
        <ele>1870.0</ele>
        <time>2021-04-17T20:30:24Z</time>
      </trkpt>
      <trkpt lat="4.9491150" lon="-75.4968310">
        <ele>1870.3</ele>
        <time>2021-04-17T20:30:25Z</time>
      </trkpt>
      <trkpt lat="4.9491370" lon="-75.4968460">
        <ele>1870.6</ele>
        <time>2021-04-17T20:30:26Z</time>
      </trkpt>
      <trkpt lat="4.9491580" lon="-75.4968600">
        <ele>1870.9</ele>
        <time>2021-04-17T20:30:27Z</time>
      </trkpt>
      <trkpt lat="4.9491790" lon="-75.4968740">
        <ele>1871.2</ele>
        <time>2021-04-17T20:30:28Z</time>
      </trkpt>
      <trkpt lat="4.9492010" lon="-75.4968860">
        <ele>1871.5</ele>
        <time>2021-04-17T20:30:29Z</time>
      </trkpt>
      <trkpt lat="4.9492220" lon="-75.4969000">
        <ele>1871.8</ele>
        <time>2021-04-17T20:30:30Z</time>
      </trkpt>
      <trkpt lat="4.9492440" lon="-75.4969130">
        <ele>1872.2</ele>
        <time>2021-04-17T20:30:31Z</time>
      </trkpt>
      <trkpt lat="4.9492650" lon="-75.4969260">
        <ele>1872.5</ele>
        <time>2021-04-17T20:30:32Z</time>
      </trkpt>
      <trkpt lat="4.9492890" lon="-75.4969390">
        <ele>1872.8</ele>
        <time>2021-04-17T20:30:33Z</time>
      </trkpt>
      <trkpt lat="4.9493110" lon="-75.4969540">
        <ele>1873.1</ele>
        <time>2021-04-17T20:30:34Z</time>
      </trkpt>
      <trkpt lat="4.9493360" lon="-75.4969620">
        <ele>1873.5</ele>
        <time>2021-04-17T20:30:35Z</time>
      </trkpt>
      <trkpt lat="4.9493570" lon="-75.4969690">
        <ele>1873.7</ele>
        <time>2021-04-17T20:30:36Z</time>
      </trkpt>
      <trkpt lat="4.9493770" lon="-75.4969770">
        <ele>1874.0</ele>
        <time>2021-04-17T20:30:37Z</time>
      </trkpt>
      <trkpt lat="4.9493980" lon="-75.4969820">
        <ele>1874.2</ele>
        <time>2021-04-17T20:30:38Z</time>
      </trkpt>
      <trkpt lat="4.9494190" lon="-75.4969870">
        <ele>1874.5</ele>
        <time>2021-04-17T20:30:39Z</time>
      </trkpt>
      <trkpt lat="4.9494420" lon="-75.4969860">
        <ele>1874.7</ele>
        <time>2021-04-17T20:30:40Z</time>
      </trkpt>
      <trkpt lat="4.9494680" lon="-75.4969830">
        <ele>1875.0</ele>
        <time>2021-04-17T20:30:41Z</time>
      </trkpt>
      <trkpt lat="4.9494930" lon="-75.4969760">
        <ele>1875.3</ele>
        <time>2021-04-17T20:30:42Z</time>
      </trkpt>
      <trkpt lat="4.9495200" lon="-75.4969640">
        <ele>1875.6</ele>
        <time>2021-04-17T20:30:43Z</time>
      </trkpt>
      <trkpt lat="4.9495450" lon="-75.4969540">
        <ele>1875.9</ele>
        <time>2021-04-17T20:30:44Z</time>
      </trkpt>
      <trkpt lat="4.9495700" lon="-75.4969450">
        <ele>1876.1</ele>
        <time>2021-04-17T20:30:45Z</time>
      </trkpt>
      <trkpt lat="4.9495910" lon="-75.4969340">
        <ele>1876.4</ele>
        <time>2021-04-17T20:30:46Z</time>
      </trkpt>
      <trkpt lat="4.9496130" lon="-75.4969220">
        <ele>1876.6</ele>
        <time>2021-04-17T20:30:47Z</time>
      </trkpt>
      <trkpt lat="4.9496370" lon="-75.4969120">
        <ele>1876.8</ele>
        <time>2021-04-17T20:30:48Z</time>
      </trkpt>
      <trkpt lat="4.9496570" lon="-75.4969040">
        <ele>1877.0</ele>
        <time>2021-04-17T20:30:49Z</time>
      </trkpt>
      <trkpt lat="4.9496800" lon="-75.4968960">
        <ele>1877.2</ele>
        <time>2021-04-17T20:30:50Z</time>
      </trkpt>
      <trkpt lat="4.9497020" lon="-75.4968920">
        <ele>1877.3</ele>
        <time>2021-04-17T20:30:51Z</time>
      </trkpt>
      <trkpt lat="4.9497220" lon="-75.4968970">
        <ele>1877.5</ele>
        <time>2021-04-17T20:30:52Z</time>
      </trkpt>
      <trkpt lat="4.9497390" lon="-75.4969080">
        <ele>1877.6</ele>
        <time>2021-04-17T20:30:53Z</time>
      </trkpt>
      <trkpt lat="4.9497580" lon="-75.4969200">
        <ele>1877.7</ele>
        <time>2021-04-17T20:30:54Z</time>
      </trkpt>
      <trkpt lat="4.9497710" lon="-75.4969320">
        <ele>1877.8</ele>
        <time>2021-04-17T20:30:55Z</time>
      </trkpt>
      <trkpt lat="4.9497770" lon="-75.4969490">
        <ele>1877.9</ele>
        <time>2021-04-17T20:30:56Z</time>
      </trkpt>
      <trkpt lat="4.9497800" lon="-75.4969690">
        <ele>1878.0</ele>
        <time>2021-04-17T20:30:57Z</time>
      </trkpt>
      <trkpt lat="4.9497770" lon="-75.4969900">
        <ele>1878.1</ele>
        <time>2021-04-17T20:30:58Z</time>
      </trkpt>
      <trkpt lat="4.9497720" lon="-75.4970110">
        <ele>1878.3</ele>
        <time>2021-04-17T20:30:59Z</time>
      </trkpt>
      <trkpt lat="4.9497610" lon="-75.4970340">
        <ele>1878.4</ele>
        <time>2021-04-17T20:31:00Z</time>
      </trkpt>
      <trkpt lat="4.9497520" lon="-75.4970580">
        <ele>1878.5</ele>
        <time>2021-04-17T20:31:01Z</time>
      </trkpt>
      <trkpt lat="4.9497430" lon="-75.4970820">
        <ele>1878.6</ele>
        <time>2021-04-17T20:31:02Z</time>
      </trkpt>
      <trkpt lat="4.9497350" lon="-75.4971040">
        <ele>1878.8</ele>
        <time>2021-04-17T20:31:03Z</time>
      </trkpt>
      <trkpt lat="4.9497260" lon="-75.4971240">
        <ele>1878.9</ele>
        <time>2021-04-17T20:31:04Z</time>
      </trkpt>
      <trkpt lat="4.9497220" lon="-75.4971430">
        <ele>1879.0</ele>
        <time>2021-04-17T20:31:05Z</time>
      </trkpt>
      <trkpt lat="4.9497140" lon="-75.4971720">
        <ele>1879.1</ele>
        <time>2021-04-17T20:31:06Z</time>
      </trkpt>
      <trkpt lat="4.9497050" lon="-75.4971970">
        <ele>1879.3</ele>
        <time>2021-04-17T20:31:07Z</time>
      </trkpt>
      <trkpt lat="4.9496920" lon="-75.4972230">
        <ele>1879.4</ele>
        <time>2021-04-17T20:31:08Z</time>
      </trkpt>
      <trkpt lat="4.9496810" lon="-75.4972470">
        <ele>1879.6</ele>
        <time>2021-04-17T20:31:09Z</time>
      </trkpt>
      <trkpt lat="4.9496710" lon="-75.4972710">
        <ele>1879.7</ele>
        <time>2021-04-17T20:31:10Z</time>
      </trkpt>
      <trkpt lat="4.9496640" lon="-75.4972990">
        <ele>1879.9</ele>
        <time>2021-04-17T20:31:11Z</time>
      </trkpt>
      <trkpt lat="4.9496560" lon="-75.4973270">
        <ele>1880.1</ele>
        <time>2021-04-17T20:31:12Z</time>
      </trkpt>
      <trkpt lat="4.9496500" lon="-75.4973550">
        <ele>1880.3</ele>
        <time>2021-04-17T20:31:13Z</time>
      </trkpt>
      <trkpt lat="4.9496460" lon="-75.4973770">
        <ele>1880.4</ele>
        <time>2021-04-17T20:31:14Z</time>
      </trkpt>
      <trkpt lat="4.9496430" lon="-75.4973980">
        <ele>1880.6</ele>
        <time>2021-04-17T20:31:15Z</time>
      </trkpt>
      <trkpt lat="4.9496430" lon="-75.4974190">
        <ele>1880.7</ele>
        <time>2021-04-17T20:31:16Z</time>
      </trkpt>
      <trkpt lat="4.9496440" lon="-75.4974420">
        <ele>1880.9</ele>
        <time>2021-04-17T20:31:17Z</time>
      </trkpt>
      <trkpt lat="4.9496490" lon="-75.4974660">
        <ele>1881.0</ele>
        <time>2021-04-17T20:31:18Z</time>
      </trkpt>
      <trkpt lat="4.9496540" lon="-75.4974900">
        <ele>1881.2</ele>
        <time>2021-04-17T20:31:19Z</time>
      </trkpt>
      <trkpt lat="4.9496640" lon="-75.4975150">
        <ele>1881.4</ele>
        <time>2021-04-17T20:31:20Z</time>
      </trkpt>
      <trkpt lat="4.9496750" lon="-75.4975420">
        <ele>1881.6</ele>
        <time>2021-04-17T20:31:21Z</time>
      </trkpt>
      <trkpt lat="4.9496880" lon="-75.4975680">
        <ele>1881.7</ele>
        <time>2021-04-17T20:31:22Z</time>
      </trkpt>
      <trkpt lat="4.9496980" lon="-75.4975950">
        <ele>1881.9</ele>
        <time>2021-04-17T20:31:23Z</time>
      </trkpt>
      <trkpt lat="4.9497120" lon="-75.4976210">
        <ele>1882.1</ele>
        <time>2021-04-17T20:31:24Z</time>
      </trkpt>
      <trkpt lat="4.9497280" lon="-75.4976450">
        <ele>1882.2</ele>
        <time>2021-04-17T20:31:25Z</time>
      </trkpt>
      <trkpt lat="4.9497470" lon="-75.4976680">
        <ele>1882.4</ele>
        <time>2021-04-17T20:31:26Z</time>
      </trkpt>
      <trkpt lat="4.9497690" lon="-75.4976870">
        <ele>1882.5</ele>
        <time>2021-04-17T20:31:27Z</time>
      </trkpt>
      <trkpt lat="4.9497920" lon="-75.4977080">
        <ele>1882.7</ele>
        <time>2021-04-17T20:31:28Z</time>
      </trkpt>
      <trkpt lat="4.9498160" lon="-75.4977280">
        <ele>1882.9</ele>
        <time>2021-04-17T20:31:29Z</time>
      </trkpt>
      <trkpt lat="4.9498410" lon="-75.4977460">
        <ele>1883.0</ele>
        <time>2021-04-17T20:31:30Z</time>
      </trkpt>
      <trkpt lat="4.9498660" lon="-75.4977660">
        <ele>1883.2</ele>
        <time>2021-04-17T20:31:31Z</time>
      </trkpt>
      <trkpt lat="4.9498880" lon="-75.4977850">
        <ele>1883.4</ele>
        <time>2021-04-17T20:31:32Z</time>
      </trkpt>
      <trkpt lat="4.9499070" lon="-75.4978070">
        <ele>1883.5</ele>
        <time>2021-04-17T20:31:33Z</time>
      </trkpt>
      <trkpt lat="4.9499210" lon="-75.4978320">
        <ele>1883.7</ele>
        <time>2021-04-17T20:31:34Z</time>
      </trkpt>
      <trkpt lat="4.9499310" lon="-75.4978610">
        <ele>1883.9</ele>
        <time>2021-04-17T20:31:35Z</time>
      </trkpt>
      <trkpt lat="4.9499440" lon="-75.4978880">
        <ele>1884.0</ele>
        <time>2021-04-17T20:31:36Z</time>
      </trkpt>
      <trkpt lat="4.9499550" lon="-75.4979160">
        <ele>1884.1</ele>
        <time>2021-04-17T20:31:37Z</time>
      </trkpt>
      <trkpt lat="4.9499650" lon="-75.4979460">
        <ele>1884.3</ele>
        <time>2021-04-17T20:31:38Z</time>
      </trkpt>
      <trkpt lat="4.9499750" lon="-75.4979750">
        <ele>1884.5</ele>
        <time>2021-04-17T20:31:39Z</time>
      </trkpt>
      <trkpt lat="4.9499830" lon="-75.4980060">
        <ele>1884.6</ele>
        <time>2021-04-17T20:31:40Z</time>
      </trkpt>
      <trkpt lat="4.9499930" lon="-75.4980380">
        <ele>1884.8</ele>
        <time>2021-04-17T20:31:41Z</time>
      </trkpt>
      <trkpt lat="4.9500040" lon="-75.4980690">
        <ele>1885.0</ele>
        <time>2021-04-17T20:31:42Z</time>
      </trkpt>
      <trkpt lat="4.9500180" lon="-75.4980990">
        <ele>1885.2</ele>
        <time>2021-04-17T20:31:43Z</time>
      </trkpt>
      <trkpt lat="4.9500280" lon="-75.4981300">
        <ele>1885.4</ele>
        <time>2021-04-17T20:31:44Z</time>
      </trkpt>
      <trkpt lat="4.9500340" lon="-75.4981600">
        <ele>1885.6</ele>
        <time>2021-04-17T20:31:45Z</time>
      </trkpt>
      <trkpt lat="4.9500450" lon="-75.4981890">
        <ele>1885.8</ele>
        <time>2021-04-17T20:31:46Z</time>
      </trkpt>
      <trkpt lat="4.9500580" lon="-75.4982170">
        <ele>1886.0</ele>
        <time>2021-04-17T20:31:47Z</time>
      </trkpt>
      <trkpt lat="4.9500710" lon="-75.4982480">
        <ele>1886.2</ele>
        <time>2021-04-17T20:31:48Z</time>
      </trkpt>
      <trkpt lat="4.9500880" lon="-75.4982750">
        <ele>1886.3</ele>
        <time>2021-04-17T20:31:49Z</time>
      </trkpt>
      <trkpt lat="4.9501050" lon="-75.4983030">
        <ele>1886.5</ele>
        <time>2021-04-17T20:31:50Z</time>
      </trkpt>
      <trkpt lat="4.9501250" lon="-75.4983320">
        <ele>1886.7</ele>
        <time>2021-04-17T20:31:51Z</time>
      </trkpt>
      <trkpt lat="4.9501470" lon="-75.4983600">
        <ele>1886.9</ele>
        <time>2021-04-17T20:31:52Z</time>
      </trkpt>
      <trkpt lat="4.9501700" lon="-75.4983860">
        <ele>1887.1</ele>
        <time>2021-04-17T20:31:53Z</time>
      </trkpt>
      <trkpt lat="4.9501910" lon="-75.4984120">
        <ele>1887.3</ele>
        <time>2021-04-17T20:31:54Z</time>
      </trkpt>
      <trkpt lat="4.9502110" lon="-75.4984350">
        <ele>1887.5</ele>
        <time>2021-04-17T20:31:55Z</time>
      </trkpt>
      <trkpt lat="4.9502300" lon="-75.4984570">
        <ele>1887.6</ele>
        <time>2021-04-17T20:31:56Z</time>
      </trkpt>
      <trkpt lat="4.9502480" lon="-75.4984780">
        <ele>1887.8</ele>
        <time>2021-04-17T20:31:57Z</time>
      </trkpt>
      <trkpt lat="4.9502720" lon="-75.4984950">
        <ele>1888.0</ele>
        <time>2021-04-17T20:31:58Z</time>
      </trkpt>
      <trkpt lat="4.9502930" lon="-75.4985090">
        <ele>1888.2</ele>
        <time>2021-04-17T20:31:59Z</time>
      </trkpt>
      <trkpt lat="4.9503190" lon="-75.4985210">
        <ele>1888.4</ele>
        <time>2021-04-17T20:32:00Z</time>
      </trkpt>
      <trkpt lat="4.9503450" lon="-75.4985330">
        <ele>1888.6</ele>
        <time>2021-04-17T20:32:01Z</time>
      </trkpt>
      <trkpt lat="4.9503700" lon="-75.4985490">
        <ele>1888.9</ele>
        <time>2021-04-17T20:32:02Z</time>
      </trkpt>
      <trkpt lat="4.9503960" lon="-75.4985670">
        <ele>1889.1</ele>
        <time>2021-04-17T20:32:03Z</time>
      </trkpt>
      <trkpt lat="4.9504220" lon="-75.4985860">
        <ele>1889.4</ele>
        <time>2021-04-17T20:32:04Z</time>
      </trkpt>
      <trkpt lat="4.9504500" lon="-75.4986020">
        <ele>1889.6</ele>
        <time>2021-04-17T20:32:05Z</time>
      </trkpt>
      <trkpt lat="4.9504760" lon="-75.4986230">
        <ele>1889.9</ele>
        <time>2021-04-17T20:32:06Z</time>
      </trkpt>
      <trkpt lat="4.9505080" lon="-75.4986380">
        <ele>1890.2</ele>
        <time>2021-04-17T20:32:07Z</time>
      </trkpt>
      <trkpt lat="4.9505340" lon="-75.4986550">
        <ele>1890.4</ele>
        <time>2021-04-17T20:32:08Z</time>
      </trkpt>
      <trkpt lat="4.9505640" lon="-75.4986750">
        <ele>1890.7</ele>
        <time>2021-04-17T20:32:09Z</time>
      </trkpt>
      <trkpt lat="4.9505960" lon="-75.4986930">
        <ele>1891.0</ele>
        <time>2021-04-17T20:32:10Z</time>
      </trkpt>
      <trkpt lat="4.9506260" lon="-75.4987090">
        <ele>1891.3</ele>
        <time>2021-04-17T20:32:11Z</time>
      </trkpt>
      <trkpt lat="4.9506520" lon="-75.4987280">
        <ele>1891.6</ele>
        <time>2021-04-17T20:32:12Z</time>
      </trkpt>
      <trkpt lat="4.9506770" lon="-75.4987500">
        <ele>1891.9</ele>
        <time>2021-04-17T20:32:13Z</time>
      </trkpt>
      <trkpt lat="4.9507050" lon="-75.4987680">
        <ele>1892.2</ele>
        <time>2021-04-17T20:32:14Z</time>
      </trkpt>
      <trkpt lat="4.9507370" lon="-75.4987800">
        <ele>1892.5</ele>
        <time>2021-04-17T20:32:15Z</time>
      </trkpt>
      <trkpt lat="4.9507690" lon="-75.4987920">
        <ele>1892.8</ele>
        <time>2021-04-17T20:32:16Z</time>
      </trkpt>
      <trkpt lat="4.9508000" lon="-75.4988010">
        <ele>1893.1</ele>
        <time>2021-04-17T20:32:17Z</time>
      </trkpt>
      <trkpt lat="4.9508270" lon="-75.4988130">
        <ele>1893.3</ele>
        <time>2021-04-17T20:32:18Z</time>
      </trkpt>
      <trkpt lat="4.9508530" lon="-75.4988270">
        <ele>1893.5</ele>
        <time>2021-04-17T20:32:19Z</time>
      </trkpt>
      <trkpt lat="4.9508810" lon="-75.4988330">
        <ele>1893.8</ele>
        <time>2021-04-17T20:32:20Z</time>
      </trkpt>
      <trkpt lat="4.9509090" lon="-75.4988420">
        <ele>1894.0</ele>
        <time>2021-04-17T20:32:21Z</time>
      </trkpt>
      <trkpt lat="4.9509380" lon="-75.4988530">
        <ele>1894.2</ele>
        <time>2021-04-17T20:32:22Z</time>
      </trkpt>
      <trkpt lat="4.9509650" lon="-75.4988650">
        <ele>1894.4</ele>
        <time>2021-04-17T20:32:23Z</time>
      </trkpt>
      <trkpt lat="4.9509930" lon="-75.4988810">
        <ele>1894.7</ele>
        <time>2021-04-17T20:32:24Z</time>
      </trkpt>
      <trkpt lat="4.9510200" lon="-75.4989000">
        <ele>1894.9</ele>
        <time>2021-04-17T20:32:25Z</time>
      </trkpt>
      <trkpt lat="4.9510490" lon="-75.4989120">
        <ele>1895.1</ele>
        <time>2021-04-17T20:32:26Z</time>
      </trkpt>
      <trkpt lat="4.9510810" lon="-75.4989230">
        <ele>1895.3</ele>
        <time>2021-04-17T20:32:27Z</time>
      </trkpt>
      <trkpt lat="4.9511110" lon="-75.4989330">
        <ele>1895.5</ele>
        <time>2021-04-17T20:32:28Z</time>
      </trkpt>
      <trkpt lat="4.9511420" lon="-75.4989420">
        <ele>1895.7</ele>
        <time>2021-04-17T20:32:29Z</time>
      </trkpt>
      <trkpt lat="4.9511720" lon="-75.4989480">
        <ele>1895.9</ele>
        <time>2021-04-17T20:32:30Z</time>
      </trkpt>
      <trkpt lat="4.9512040" lon="-75.4989520">
        <ele>1896.1</ele>
        <time>2021-04-17T20:32:31Z</time>
      </trkpt>
      <trkpt lat="4.9512380" lon="-75.4989550">
        <ele>1896.3</ele>
        <time>2021-04-17T20:32:32Z</time>
      </trkpt>
      <trkpt lat="4.9512710" lon="-75.4989610">
        <ele>1896.5</ele>
        <time>2021-04-17T20:32:33Z</time>
      </trkpt>
      <trkpt lat="4.9513030" lon="-75.4989680">
        <ele>1896.8</ele>
        <time>2021-04-17T20:32:34Z</time>
      </trkpt>
      <trkpt lat="4.9513320" lon="-75.4989770">
        <ele>1897.0</ele>
        <time>2021-04-17T20:32:35Z</time>
      </trkpt>
      <trkpt lat="4.9513580" lon="-75.4989910">
        <ele>1897.2</ele>
        <time>2021-04-17T20:32:36Z</time>
      </trkpt>
      <trkpt lat="4.9513870" lon="-75.4990040">
        <ele>1897.4</ele>
        <time>2021-04-17T20:32:37Z</time>
      </trkpt>
      <trkpt lat="4.9514170" lon="-75.4990120">
        <ele>1897.6</ele>
        <time>2021-04-17T20:32:38Z</time>
      </trkpt>
      <trkpt lat="4.9514460" lon="-75.4990190">
        <ele>1897.8</ele>
        <time>2021-04-17T20:32:39Z</time>
      </trkpt>
      <trkpt lat="4.9514770" lon="-75.4990260">
        <ele>1898.1</ele>
        <time>2021-04-17T20:32:40Z</time>
      </trkpt>
      <trkpt lat="4.9515050" lon="-75.4990340">
        <ele>1898.3</ele>
        <time>2021-04-17T20:32:41Z</time>
      </trkpt>
      <trkpt lat="4.9515300" lon="-75.4990400">
        <ele>1898.6</ele>
        <time>2021-04-17T20:32:42Z</time>
      </trkpt>
      <trkpt lat="4.9515560" lon="-75.4990470">
        <ele>1898.8</ele>
        <time>2021-04-17T20:32:43Z</time>
      </trkpt>
      <trkpt lat="4.9515830" lon="-75.4990560">
        <ele>1899.1</ele>
        <time>2021-04-17T20:32:44Z</time>
      </trkpt>
      <trkpt lat="4.9516090" lon="-75.4990650">
        <ele>1899.4</ele>
        <time>2021-04-17T20:32:45Z</time>
      </trkpt>
      <trkpt lat="4.9516340" lon="-75.4990730">
        <ele>1899.7</ele>
        <time>2021-04-17T20:32:46Z</time>
      </trkpt>
      <trkpt lat="4.9516600" lon="-75.4990800">
        <ele>1900.0</ele>
        <time>2021-04-17T20:32:47Z</time>
      </trkpt>
      <trkpt lat="4.9516880" lon="-75.4990870">
        <ele>1900.3</ele>
        <time>2021-04-17T20:32:48Z</time>
      </trkpt>
      <trkpt lat="4.9517150" lon="-75.4990950">
        <ele>1900.6</ele>
        <time>2021-04-17T20:32:49Z</time>
      </trkpt>
      <trkpt lat="4.9517430" lon="-75.4991020">
        <ele>1901.0</ele>
        <time>2021-04-17T20:32:50Z</time>
      </trkpt>
      <trkpt lat="4.9517710" lon="-75.4991110">
        <ele>1901.3</ele>
        <time>2021-04-17T20:32:51Z</time>
      </trkpt>
      <trkpt lat="4.9517990" lon="-75.4991210">
        <ele>1901.6</ele>
        <time>2021-04-17T20:32:52Z</time>
      </trkpt>
      <trkpt lat="4.9518270" lon="-75.4991320">
        <ele>1902.0</ele>
        <time>2021-04-17T20:32:53Z</time>
      </trkpt>
      <trkpt lat="4.9518540" lon="-75.4991440">
        <ele>1902.3</ele>
        <time>2021-04-17T20:32:54Z</time>
      </trkpt>
      <trkpt lat="4.9518770" lon="-75.4991570">
        <ele>1902.6</ele>
        <time>2021-04-17T20:32:55Z</time>
      </trkpt>
      <trkpt lat="4.9519020" lon="-75.4991670">
        <ele>1902.9</ele>
        <time>2021-04-17T20:32:56Z</time>
      </trkpt>
      <trkpt lat="4.9519290" lon="-75.4991780">
        <ele>1903.3</ele>
        <time>2021-04-17T20:32:57Z</time>
      </trkpt>
      <trkpt lat="4.9519570" lon="-75.4991870">
        <ele>1903.6</ele>
        <time>2021-04-17T20:32:58Z</time>
      </trkpt>
      <trkpt lat="4.9519840" lon="-75.4991950">
        <ele>1903.9</ele>
        <time>2021-04-17T20:32:59Z</time>
      </trkpt>
      <trkpt lat="4.9520120" lon="-75.4992000">
        <ele>1904.2</ele>
        <time>2021-04-17T20:33:00Z</time>
      </trkpt>
      <trkpt lat="4.9520420" lon="-75.4992040">
        <ele>1904.5</ele>
        <time>2021-04-17T20:33:01Z</time>
      </trkpt>
      <trkpt lat="4.9520690" lon="-75.4992090">
        <ele>1904.8</ele>
        <time>2021-04-17T20:33:02Z</time>
      </trkpt>
      <trkpt lat="4.9520960" lon="-75.4992160">
        <ele>1905.0</ele>
        <time>2021-04-17T20:33:03Z</time>
      </trkpt>
      <trkpt lat="4.9521220" lon="-75.4992230">
        <ele>1905.3</ele>
        <time>2021-04-17T20:33:04Z</time>
      </trkpt>
      <trkpt lat="4.9521490" lon="-75.4992300">
        <ele>1905.6</ele>
        <time>2021-04-17T20:33:05Z</time>
      </trkpt>
      <trkpt lat="4.9521740" lon="-75.4992400">
        <ele>1905.9</ele>
        <time>2021-04-17T20:33:06Z</time>
      </trkpt>
      <trkpt lat="4.9522020" lon="-75.4992490">
        <ele>1906.2</ele>
        <time>2021-04-17T20:33:07Z</time>
      </trkpt>
      <trkpt lat="4.9522290" lon="-75.4992610">
        <ele>1906.5</ele>
        <time>2021-04-17T20:33:08Z</time>
      </trkpt>
      <trkpt lat="4.9522550" lon="-75.4992730">
        <ele>1906.8</ele>
        <time>2021-04-17T20:33:09Z</time>
      </trkpt>
      <trkpt lat="4.9522790" lon="-75.4992860">
        <ele>1907.0</ele>
        <time>2021-04-17T20:33:10Z</time>
      </trkpt>
      <trkpt lat="4.9523000" lon="-75.4993010">
        <ele>1907.3</ele>
        <time>2021-04-17T20:33:11Z</time>
      </trkpt>
      <trkpt lat="4.9523180" lon="-75.4993160">
        <ele>1907.5</ele>
        <time>2021-04-17T20:33:12Z</time>
      </trkpt>
      <trkpt lat="4.9523360" lon="-75.4993310">
        <ele>1907.7</ele>
        <time>2021-04-17T20:33:13Z</time>
      </trkpt>
      <trkpt lat="4.9523550" lon="-75.4993440">
        <ele>1908.0</ele>
        <time>2021-04-17T20:33:14Z</time>
      </trkpt>
      <trkpt lat="4.9523700" lon="-75.4993610">
        <ele>1908.2</ele>
        <time>2021-04-17T20:33:15Z</time>
      </trkpt>
      <trkpt lat="4.9523820" lon="-75.4993770">
        <ele>1908.4</ele>
        <time>2021-04-17T20:33:16Z</time>
      </trkpt>
      <trkpt lat="4.9523950" lon="-75.4993910">
        <ele>1908.6</ele>
        <time>2021-04-17T20:33:17Z</time>
      </trkpt>
      <trkpt lat="4.9524060" lon="-75.4994030">
        <ele>1908.8</ele>
        <time>2021-04-17T20:33:18Z</time>
      </trkpt>
      <trkpt lat="4.9524150" lon="-75.4994160">
        <ele>1908.9</ele>
        <time>2021-04-17T20:33:19Z</time>
      </trkpt>
      <trkpt lat="4.9524210" lon="-75.4994290">
        <ele>1909.1</ele>
        <time>2021-04-17T20:33:20Z</time>
      </trkpt>
      <trkpt lat="4.9524290" lon="-75.4994450">
        <ele>1909.3</ele>
        <time>2021-04-17T20:33:21Z</time>
      </trkpt>
      <trkpt lat="4.9524360" lon="-75.4994650">
        <ele>1909.5</ele>
        <time>2021-04-17T20:33:22Z</time>
      </trkpt>
      <trkpt lat="4.9524420" lon="-75.4994860">
        <ele>1909.7</ele>
        <time>2021-04-17T20:33:23Z</time>
      </trkpt>
      <trkpt lat="4.9524480" lon="-75.4995090">
        <ele>1910.0</ele>
        <time>2021-04-17T20:33:24Z</time>
      </trkpt>
      <trkpt lat="4.9524540" lon="-75.4995360">
        <ele>1910.3</ele>
        <time>2021-04-17T20:33:25Z</time>
      </trkpt>
      <trkpt lat="4.9524650" lon="-75.4995580">
        <ele>1910.6</ele>
        <time>2021-04-17T20:33:26Z</time>
      </trkpt>
      <trkpt lat="4.9524750" lon="-75.4995780">
        <ele>1910.8</ele>
        <time>2021-04-17T20:33:27Z</time>
      </trkpt>
      <trkpt lat="4.9524940" lon="-75.4995960">
        <ele>1911.1</ele>
        <time>2021-04-17T20:33:28Z</time>
      </trkpt>
      <trkpt lat="4.9525180" lon="-75.4996080">
        <ele>1911.4</ele>
        <time>2021-04-17T20:33:29Z</time>
      </trkpt>
      <trkpt lat="4.9525410" lon="-75.4996190">
        <ele>1911.7</ele>
        <time>2021-04-17T20:33:30Z</time>
      </trkpt>
      <trkpt lat="4.9525670" lon="-75.4996330">
        <ele>1912.0</ele>
        <time>2021-04-17T20:33:31Z</time>
      </trkpt>
      <trkpt lat="4.9525930" lon="-75.4996450">
        <ele>1912.2</ele>
        <time>2021-04-17T20:33:32Z</time>
      </trkpt>
      <trkpt lat="4.9526150" lon="-75.4996590">
        <ele>1912.5</ele>
        <time>2021-04-17T20:33:33Z</time>
      </trkpt>
      <trkpt lat="4.9526360" lon="-75.4996730">
        <ele>1912.7</ele>
        <time>2021-04-17T20:33:34Z</time>
      </trkpt>
      <trkpt lat="4.9526600" lon="-75.4996850">
        <ele>1912.9</ele>
        <time>2021-04-17T20:33:35Z</time>
      </trkpt>
      <trkpt lat="4.9526880" lon="-75.4996960">
        <ele>1913.1</ele>
        <time>2021-04-17T20:33:36Z</time>
      </trkpt>
      <trkpt lat="4.9527180" lon="-75.4997040">
        <ele>1913.4</ele>
        <time>2021-04-17T20:33:37Z</time>
      </trkpt>
      <trkpt lat="4.9527480" lon="-75.4997080">
        <ele>1913.6</ele>
        <time>2021-04-17T20:33:38Z</time>
      </trkpt>
      <trkpt lat="4.9527780" lon="-75.4997150">
        <ele>1913.9</ele>
        <time>2021-04-17T20:33:39Z</time>
      </trkpt>
      <trkpt lat="4.9528080" lon="-75.4997230">
        <ele>1914.2</ele>
        <time>2021-04-17T20:33:40Z</time>
      </trkpt>
      <trkpt lat="4.9528370" lon="-75.4997310">
        <ele>1914.4</ele>
        <time>2021-04-17T20:33:41Z</time>
      </trkpt>
      <trkpt lat="4.9528660" lon="-75.4997360">
        <ele>1914.7</ele>
        <time>2021-04-17T20:33:42Z</time>
      </trkpt>
      <trkpt lat="4.9528970" lon="-75.4997450">
        <ele>1915.0</ele>
        <time>2021-04-17T20:33:43Z</time>
      </trkpt>
      <trkpt lat="4.9529260" lon="-75.4997500">
        <ele>1915.2</ele>
        <time>2021-04-17T20:33:44Z</time>
      </trkpt>
      <trkpt lat="4.9529560" lon="-75.4997560">
        <ele>1915.5</ele>
        <time>2021-04-17T20:33:45Z</time>
      </trkpt>
      <trkpt lat="4.9529850" lon="-75.4997590">
        <ele>1915.8</ele>
        <time>2021-04-17T20:33:46Z</time>
      </trkpt>
      <trkpt lat="4.9530140" lon="-75.4997610">
        <ele>1916.1</ele>
        <time>2021-04-17T20:33:47Z</time>
      </trkpt>
      <trkpt lat="4.9530430" lon="-75.4997660">
        <ele>1916.3</ele>
        <time>2021-04-17T20:33:48Z</time>
      </trkpt>
      <trkpt lat="4.9530720" lon="-75.4997720">
        <ele>1916.6</ele>
        <time>2021-04-17T20:33:49Z</time>
      </trkpt>
      <trkpt lat="4.9531010" lon="-75.4997780">
        <ele>1916.9</ele>
        <time>2021-04-17T20:33:50Z</time>
      </trkpt>
      <trkpt lat="4.9531280" lon="-75.4997840">
        <ele>1917.1</ele>
        <time>2021-04-17T20:33:51Z</time>
      </trkpt>
      <trkpt lat="4.9531560" lon="-75.4997870">
        <ele>1917.3</ele>
        <time>2021-04-17T20:33:52Z</time>
      </trkpt>
      <trkpt lat="4.9531820" lon="-75.4997920">
        <ele>1917.5</ele>
        <time>2021-04-17T20:33:53Z</time>
      </trkpt>
      <trkpt lat="4.9532090" lon="-75.4997970">
        <ele>1917.7</ele>
        <time>2021-04-17T20:33:54Z</time>
      </trkpt>
      <trkpt lat="4.9532370" lon="-75.4998040">
        <ele>1917.9</ele>
        <time>2021-04-17T20:33:55Z</time>
      </trkpt>
      <trkpt lat="4.9532650" lon="-75.4998100">
        <ele>1918.1</ele>
        <time>2021-04-17T20:33:56Z</time>
      </trkpt>
      <trkpt lat="4.9532940" lon="-75.4998170">
        <ele>1918.3</ele>
        <time>2021-04-17T20:33:57Z</time>
      </trkpt>
      <trkpt lat="4.9533220" lon="-75.4998270">
        <ele>1918.5</ele>
        <time>2021-04-17T20:33:58Z</time>
      </trkpt>
      <trkpt lat="4.9533500" lon="-75.4998330">
        <ele>1918.6</ele>
        <time>2021-04-17T20:33:59Z</time>
      </trkpt>
      <trkpt lat="4.9533820" lon="-75.4998400">
        <ele>1918.8</ele>
        <time>2021-04-17T20:34:00Z</time>
      </trkpt>
      <trkpt lat="4.9534120" lon="-75.4998510">
        <ele>1919.0</ele>
        <time>2021-04-17T20:34:01Z</time>
      </trkpt>
      <trkpt lat="4.9534440" lon="-75.4998620">
        <ele>1919.2</ele>
        <time>2021-04-17T20:34:02Z</time>
      </trkpt>
      <trkpt lat="4.9534780" lon="-75.4998670">
        <ele>1919.3</ele>
        <time>2021-04-17T20:34:03Z</time>
      </trkpt>
      <trkpt lat="4.9535120" lon="-75.4998690">
        <ele>1919.4</ele>
        <time>2021-04-17T20:34:04Z</time>
      </trkpt>
      <trkpt lat="4.9535460" lon="-75.4998730">
        <ele>1919.5</ele>
        <time>2021-04-17T20:34:05Z</time>
      </trkpt>
      <trkpt lat="4.9535810" lon="-75.4998720">
        <ele>1919.6</ele>
        <time>2021-04-17T20:34:06Z</time>
      </trkpt>
      <trkpt lat="4.9536150" lon="-75.4998740">
        <ele>1919.7</ele>
        <time>2021-04-17T20:34:07Z</time>
      </trkpt>
      <trkpt lat="4.9536510" lon="-75.4998770">
        <ele>1919.7</ele>
        <time>2021-04-17T20:34:08Z</time>
      </trkpt>
      <trkpt lat="4.9536850" lon="-75.4998740">
        <ele>1919.8</ele>
        <time>2021-04-17T20:34:09Z</time>
      </trkpt>
      <trkpt lat="4.9537180" lon="-75.4998690">
        <ele>1919.8</ele>
        <time>2021-04-17T20:34:10Z</time>
      </trkpt>
      <trkpt lat="4.9537520" lon="-75.4998620">
        <ele>1919.8</ele>
        <time>2021-04-17T20:34:11Z</time>
      </trkpt>
      <trkpt lat="4.9537880" lon="-75.4998560">
        <ele>1919.9</ele>
        <time>2021-04-17T20:34:12Z</time>
      </trkpt>
      <trkpt lat="4.9538280" lon="-75.4998500">
        <ele>1919.9</ele>
        <time>2021-04-17T20:34:13Z</time>
      </trkpt>
      <trkpt lat="4.9538760" lon="-75.4998410">
        <ele>1919.9</ele>
        <time>2021-04-17T20:34:14Z</time>
      </trkpt>
      <trkpt lat="4.9539270" lon="-75.4998250">
        <ele>1920.0</ele>
        <time>2021-04-17T20:34:15Z</time>
      </trkpt>
      <trkpt lat="4.9539780" lon="-75.4998060">
        <ele>1920.1</ele>
        <time>2021-04-17T20:34:16Z</time>
      </trkpt>
      <trkpt lat="4.9540230" lon="-75.4997880">
        <ele>1920.3</ele>
        <time>2021-04-17T20:34:17Z</time>
      </trkpt>
      <trkpt lat="4.9540660" lon="-75.4997750">
        <ele>1920.5</ele>
        <time>2021-04-17T20:34:18Z</time>
      </trkpt>
      <trkpt lat="4.9541070" lon="-75.4997670">
        <ele>1920.6</ele>
        <time>2021-04-17T20:34:19Z</time>
      </trkpt>
      <trkpt lat="4.9541460" lon="-75.4997580">
        <ele>1920.8</ele>
        <time>2021-04-17T20:34:20Z</time>
      </trkpt>
      <trkpt lat="4.9541820" lon="-75.4997530">
        <ele>1921.0</ele>
        <time>2021-04-17T20:34:21Z</time>
      </trkpt>
      <trkpt lat="4.9542180" lon="-75.4997490">
        <ele>1921.1</ele>
        <time>2021-04-17T20:34:22Z</time>
      </trkpt>
      <trkpt lat="4.9542520" lon="-75.4997400">
        <ele>1921.2</ele>
        <time>2021-04-17T20:34:23Z</time>
      </trkpt>
      <trkpt lat="4.9542860" lon="-75.4997310">
        <ele>1921.3</ele>
        <time>2021-04-17T20:34:24Z</time>
      </trkpt>
      <trkpt lat="4.9543200" lon="-75.4997220">
        <ele>1921.4</ele>
        <time>2021-04-17T20:34:25Z</time>
      </trkpt>
      <trkpt lat="4.9543530" lon="-75.4997180">
        <ele>1921.5</ele>
        <time>2021-04-17T20:34:26Z</time>
      </trkpt>
      <trkpt lat="4.9543800" lon="-75.4997140">
        <ele>1921.5</ele>
        <time>2021-04-17T20:34:27Z</time>
      </trkpt>
      <trkpt lat="4.9543950" lon="-75.4997120">
        <ele>1921.6</ele>
        <time>2021-04-17T20:34:28Z</time>
      </trkpt>
      <trkpt lat="4.9543990" lon="-75.4997130">
        <ele>1921.6</ele>
        <time>2021-04-17T20:34:29Z</time>
      </trkpt>
      <trkpt lat="4.9543980" lon="-75.4997110">
        <ele>1921.6</ele>
        <time>2021-04-17T20:34:30Z</time>
      </trkpt>
      <trkpt lat="4.9544000" lon="-75.4997100">
        <ele>1921.6</ele>
        <time>2021-04-17T20:34:31Z</time>
      </trkpt>
      <trkpt lat="4.9544000" lon="-75.4997080">
        <ele>1921.6</ele>
        <time>2021-04-17T20:34:32Z</time>
      </trkpt>
      <trkpt lat="4.9544460" lon="-75.4997180">
        <ele>1921.6</ele>
        <time>2021-04-17T20:35:17Z</time>
      </trkpt>
      <trkpt lat="4.9544720" lon="-75.4997220">
        <ele>1921.6</ele>
        <time>2021-04-17T20:35:18Z</time>
      </trkpt>
      <trkpt lat="4.9544990" lon="-75.4997190">
        <ele>1921.6</ele>
        <time>2021-04-17T20:35:19Z</time>
      </trkpt>
      <trkpt lat="4.9545330" lon="-75.4997170">
        <ele>1921.6</ele>
        <time>2021-04-17T20:35:20Z</time>
      </trkpt>
      <trkpt lat="4.9545690" lon="-75.4997160">
        <ele>1921.6</ele>
        <time>2021-04-17T20:35:21Z</time>
      </trkpt>
      <trkpt lat="4.9546060" lon="-75.4997150">
        <ele>1921.6</ele>
        <time>2021-04-17T20:35:22Z</time>
      </trkpt>
      <trkpt lat="4.9546440" lon="-75.4997150">
        <ele>1921.6</ele>
        <time>2021-04-17T20:35:23Z</time>
      </trkpt>
      <trkpt lat="4.9546870" lon="-75.4997090">
        <ele>1921.6</ele>
        <time>2021-04-17T20:35:24Z</time>
      </trkpt>
      <trkpt lat="4.9547350" lon="-75.4997060">
        <ele>1921.6</ele>
        <time>2021-04-17T20:35:25Z</time>
      </trkpt>
      <trkpt lat="4.9547820" lon="-75.4996990">
        <ele>1921.6</ele>
        <time>2021-04-17T20:35:26Z</time>
      </trkpt>
      <trkpt lat="4.9548270" lon="-75.4996980">
        <ele>1921.4</ele>
        <time>2021-04-17T20:35:27Z</time>
      </trkpt>
      <trkpt lat="4.9548700" lon="-75.4997050">
        <ele>1921.3</ele>
        <time>2021-04-17T20:35:28Z</time>
      </trkpt>
      <trkpt lat="4.9549100" lon="-75.4997120">
        <ele>1921.1</ele>
        <time>2021-04-17T20:35:29Z</time>
      </trkpt>
      <trkpt lat="4.9549530" lon="-75.4997210">
        <ele>1920.9</ele>
        <time>2021-04-17T20:35:30Z</time>
      </trkpt>
      <trkpt lat="4.9550030" lon="-75.4997270">
        <ele>1920.6</ele>
        <time>2021-04-17T20:35:31Z</time>
      </trkpt>
      <trkpt lat="4.9550630" lon="-75.4997330">
        <ele>1920.2</ele>
        <time>2021-04-17T20:35:32Z</time>
      </trkpt>
      <trkpt lat="4.9551290" lon="-75.4997300">
        <ele>1919.8</ele>
        <time>2021-04-17T20:35:33Z</time>
      </trkpt>
      <trkpt lat="4.9551990" lon="-75.4997180">
        <ele>1919.3</ele>
        <time>2021-04-17T20:35:34Z</time>
      </trkpt>
      <trkpt lat="4.9552720" lon="-75.4997080">
        <ele>1918.9</ele>
        <time>2021-04-17T20:35:35Z</time>
      </trkpt>
      <trkpt lat="4.9553380" lon="-75.4997110">
        <ele>1918.6</ele>
        <time>2021-04-17T20:35:36Z</time>
      </trkpt>
      <trkpt lat="4.9553970" lon="-75.4997410">
        <ele>1918.3</ele>
        <time>2021-04-17T20:35:37Z</time>
      </trkpt>
      <trkpt lat="4.9554540" lon="-75.4997830">
        <ele>1918.0</ele>
        <time>2021-04-17T20:35:38Z</time>
      </trkpt>
      <trkpt lat="4.9555120" lon="-75.4998260">
        <ele>1917.7</ele>
        <time>2021-04-17T20:35:39Z</time>
      </trkpt>
      <trkpt lat="4.9555710" lon="-75.4998700">
        <ele>1917.5</ele>
        <time>2021-04-17T20:35:40Z</time>
      </trkpt>
      <trkpt lat="4.9556240" lon="-75.4999080">
        <ele>1917.5</ele>
        <time>2021-04-17T20:35:41Z</time>
      </trkpt>
      <trkpt lat="4.9556760" lon="-75.4999400">
        <ele>1917.6</ele>
        <time>2021-04-17T20:35:42Z</time>
      </trkpt>
      <trkpt lat="4.9557200" lon="-75.4999650">
        <ele>1917.7</ele>
        <time>2021-04-17T20:35:43Z</time>
      </trkpt>
      <trkpt lat="4.9557580" lon="-75.5000030">
        <ele>1918.0</ele>
        <time>2021-04-17T20:35:44Z</time>
      </trkpt>
      <trkpt lat="4.9557820" lon="-75.5000520">
        <ele>1918.2</ele>
        <time>2021-04-17T20:35:45Z</time>
      </trkpt>
      <trkpt lat="4.9557950" lon="-75.5001020">
        <ele>1918.5</ele>
        <time>2021-04-17T20:35:46Z</time>
      </trkpt>
      <trkpt lat="4.9557980" lon="-75.5001490">
        <ele>1918.8</ele>
        <time>2021-04-17T20:35:47Z</time>
      </trkpt>
      <trkpt lat="4.9557900" lon="-75.5001950">
        <ele>1919.7</ele>
        <time>2021-04-17T20:35:48Z</time>
      </trkpt>
      <trkpt lat="4.9557730" lon="-75.5002370">
        <ele>1920.8</ele>
        <time>2021-04-17T20:35:49Z</time>
      </trkpt>
      <trkpt lat="4.9557520" lon="-75.5002760">
        <ele>1922.0</ele>
        <time>2021-04-17T20:35:50Z</time>
      </trkpt>
      <trkpt lat="4.9557310" lon="-75.5003140">
        <ele>1923.1</ele>
        <time>2021-04-17T20:35:51Z</time>
      </trkpt>
      <trkpt lat="4.9557120" lon="-75.5003520">
        <ele>1924.1</ele>
        <time>2021-04-17T20:35:52Z</time>
      </trkpt>
      <trkpt lat="4.9556930" lon="-75.5003910">
        <ele>1925.2</ele>
        <time>2021-04-17T20:35:53Z</time>
      </trkpt>
      <trkpt lat="4.9556780" lon="-75.5004290">
        <ele>1926.2</ele>
        <time>2021-04-17T20:35:54Z</time>
      </trkpt>
      <trkpt lat="4.9556600" lon="-75.5004660">
        <ele>1927.2</ele>
        <time>2021-04-17T20:35:55Z</time>
      </trkpt>
      <trkpt lat="4.9556370" lon="-75.5004990">
        <ele>1928.2</ele>
        <time>2021-04-17T20:35:56Z</time>
      </trkpt>
      <trkpt lat="4.9556080" lon="-75.5005330">
        <ele>1929.3</ele>
        <time>2021-04-17T20:35:57Z</time>
      </trkpt>
      <trkpt lat="4.9555740" lon="-75.5005690">
        <ele>1930.0</ele>
        <time>2021-04-17T20:35:58Z</time>
      </trkpt>
      <trkpt lat="4.9555360" lon="-75.5006050">
        <ele>1929.9</ele>
        <time>2021-04-17T20:35:59Z</time>
      </trkpt>
      <trkpt lat="4.9554970" lon="-75.5006400">
        <ele>1929.9</ele>
        <time>2021-04-17T20:36:00Z</time>
      </trkpt>
      <trkpt lat="4.9554620" lon="-75.5006730">
        <ele>1929.9</ele>
        <time>2021-04-17T20:36:01Z</time>
      </trkpt>
      <trkpt lat="4.9554280" lon="-75.5007070">
        <ele>1930.0</ele>
        <time>2021-04-17T20:36:02Z</time>
      </trkpt>
      <trkpt lat="4.9553940" lon="-75.5007450">
        <ele>1930.1</ele>
        <time>2021-04-17T20:36:03Z</time>
      </trkpt>
      <trkpt lat="4.9553640" lon="-75.5007850">
        <ele>1930.3</ele>
        <time>2021-04-17T20:36:04Z</time>
      </trkpt>
      <trkpt lat="4.9553330" lon="-75.5008220">
        <ele>1930.6</ele>
        <time>2021-04-17T20:36:05Z</time>
      </trkpt>
      <trkpt lat="4.9553020" lon="-75.5008580">
        <ele>1930.9</ele>
        <time>2021-04-17T20:36:06Z</time>
      </trkpt>
      <trkpt lat="4.9552750" lon="-75.5008960">
        <ele>1931.2</ele>
        <time>2021-04-17T20:36:07Z</time>
      </trkpt>
      <trkpt lat="4.9552560" lon="-75.5009310">
        <ele>1931.5</ele>
        <time>2021-04-17T20:36:08Z</time>
      </trkpt>
      <trkpt lat="4.9552410" lon="-75.5009640">
        <ele>1931.9</ele>
        <time>2021-04-17T20:36:09Z</time>
      </trkpt>
      <trkpt lat="4.9552280" lon="-75.5009950">
        <ele>1932.2</ele>
        <time>2021-04-17T20:36:10Z</time>
      </trkpt>
      <trkpt lat="4.9552190" lon="-75.5010260">
        <ele>1932.5</ele>
        <time>2021-04-17T20:36:11Z</time>
      </trkpt>
      <trkpt lat="4.9552150" lon="-75.5010590">
        <ele>1932.9</ele>
        <time>2021-04-17T20:36:12Z</time>
      </trkpt>
      <trkpt lat="4.9552140" lon="-75.5010910">
        <ele>1933.3</ele>
        <time>2021-04-17T20:36:13Z</time>
      </trkpt>
      <trkpt lat="4.9552180" lon="-75.5011200">
        <ele>1933.6</ele>
        <time>2021-04-17T20:36:14Z</time>
      </trkpt>
      <trkpt lat="4.9552220" lon="-75.5011450">
        <ele>1934.0</ele>
        <time>2021-04-17T20:36:15Z</time>
      </trkpt>
      <trkpt lat="4.9552320" lon="-75.5011750">
        <ele>1934.4</ele>
        <time>2021-04-17T20:36:16Z</time>
      </trkpt>
      <trkpt lat="4.9552420" lon="-75.5012020">
        <ele>1934.7</ele>
        <time>2021-04-17T20:36:17Z</time>
      </trkpt>
      <trkpt lat="4.9552550" lon="-75.5012250">
        <ele>1935.1</ele>
        <time>2021-04-17T20:36:18Z</time>
      </trkpt>
      <trkpt lat="4.9552680" lon="-75.5012480">
        <ele>1935.4</ele>
        <time>2021-04-17T20:36:19Z</time>
      </trkpt>
      <trkpt lat="4.9552830" lon="-75.5012700">
        <ele>1935.7</ele>
        <time>2021-04-17T20:36:20Z</time>
      </trkpt>
      <trkpt lat="4.9552970" lon="-75.5012940">
        <ele>1936.1</ele>
        <time>2021-04-17T20:36:21Z</time>
      </trkpt>
      <trkpt lat="4.9553080" lon="-75.5013170">
        <ele>1936.5</ele>
        <time>2021-04-17T20:36:22Z</time>
      </trkpt>
      <trkpt lat="4.9553160" lon="-75.5013410">
        <ele>1936.8</ele>
        <time>2021-04-17T20:36:23Z</time>
      </trkpt>
      <trkpt lat="4.9553250" lon="-75.5013650">
        <ele>1937.2</ele>
        <time>2021-04-17T20:36:24Z</time>
      </trkpt>
      <trkpt lat="4.9553310" lon="-75.5013870">
        <ele>1937.6</ele>
        <time>2021-04-17T20:36:25Z</time>
      </trkpt>
      <trkpt lat="4.9553340" lon="-75.5014130">
        <ele>1938.0</ele>
        <time>2021-04-17T20:36:26Z</time>
      </trkpt>
      <trkpt lat="4.9553370" lon="-75.5014360">
        <ele>1938.3</ele>
        <time>2021-04-17T20:36:27Z</time>
      </trkpt>
      <trkpt lat="4.9553390" lon="-75.5014580">
        <ele>1938.7</ele>
        <time>2021-04-17T20:36:28Z</time>
      </trkpt>
      <trkpt lat="4.9553390" lon="-75.5014810">
        <ele>1939.1</ele>
        <time>2021-04-17T20:36:29Z</time>
      </trkpt>
      <trkpt lat="4.9553360" lon="-75.5015040">
        <ele>1939.4</ele>
        <time>2021-04-17T20:36:30Z</time>
      </trkpt>
      <trkpt lat="4.9553290" lon="-75.5015240">
        <ele>1939.8</ele>
        <time>2021-04-17T20:36:31Z</time>
      </trkpt>
      <trkpt lat="4.9553140" lon="-75.5015390">
        <ele>1940.1</ele>
        <time>2021-04-17T20:36:32Z</time>
      </trkpt>
      <trkpt lat="4.9552970" lon="-75.5015510">
        <ele>1940.4</ele>
        <time>2021-04-17T20:36:33Z</time>
      </trkpt>
      <trkpt lat="4.9552820" lon="-75.5015640">
        <ele>1940.8</ele>
        <time>2021-04-17T20:36:34Z</time>
      </trkpt>
      <trkpt lat="4.9552610" lon="-75.5015720">
        <ele>1941.1</ele>
        <time>2021-04-17T20:36:35Z</time>
      </trkpt>
      <trkpt lat="4.9552380" lon="-75.5015750">
        <ele>1941.5</ele>
        <time>2021-04-17T20:36:36Z</time>
      </trkpt>
      <trkpt lat="4.9552140" lon="-75.5015780">
        <ele>1941.8</ele>
        <time>2021-04-17T20:36:37Z</time>
      </trkpt>
      <trkpt lat="4.9551930" lon="-75.5015790">
        <ele>1942.1</ele>
        <time>2021-04-17T20:36:38Z</time>
      </trkpt>
      <trkpt lat="4.9551690" lon="-75.5015790">
        <ele>1942.4</ele>
        <time>2021-04-17T20:36:39Z</time>
      </trkpt>
      <trkpt lat="4.9551460" lon="-75.5015850">
        <ele>1942.7</ele>
        <time>2021-04-17T20:36:40Z</time>
      </trkpt>
      <trkpt lat="4.9551220" lon="-75.5015860">
        <ele>1943.0</ele>
        <time>2021-04-17T20:36:41Z</time>
      </trkpt>
      <trkpt lat="4.9551030" lon="-75.5015920">
        <ele>1943.3</ele>
        <time>2021-04-17T20:36:42Z</time>
      </trkpt>
      <trkpt lat="4.9550770" lon="-75.5015950">
        <ele>1943.5</ele>
        <time>2021-04-17T20:36:43Z</time>
      </trkpt>
      <trkpt lat="4.9550530" lon="-75.5015960">
        <ele>1943.8</ele>
        <time>2021-04-17T20:36:44Z</time>
      </trkpt>
      <trkpt lat="4.9550300" lon="-75.5015980">
        <ele>1944.0</ele>
        <time>2021-04-17T20:36:45Z</time>
      </trkpt>
      <trkpt lat="4.9550070" lon="-75.5015990">
        <ele>1944.2</ele>
        <time>2021-04-17T20:36:46Z</time>
      </trkpt>
      <trkpt lat="4.9549840" lon="-75.5015980">
        <ele>1944.4</ele>
        <time>2021-04-17T20:36:47Z</time>
      </trkpt>
      <trkpt lat="4.9549600" lon="-75.5015990">
        <ele>1944.7</ele>
        <time>2021-04-17T20:36:48Z</time>
      </trkpt>
      <trkpt lat="4.9549370" lon="-75.5016010">
        <ele>1944.9</ele>
        <time>2021-04-17T20:36:49Z</time>
      </trkpt>
      <trkpt lat="4.9549140" lon="-75.5016040">
        <ele>1945.1</ele>
        <time>2021-04-17T20:36:50Z</time>
      </trkpt>
      <trkpt lat="4.9548920" lon="-75.5016070">
        <ele>1945.3</ele>
        <time>2021-04-17T20:36:51Z</time>
      </trkpt>
      <trkpt lat="4.9548690" lon="-75.5016120">
        <ele>1945.5</ele>
        <time>2021-04-17T20:36:52Z</time>
      </trkpt>
      <trkpt lat="4.9548470" lon="-75.5016160">
        <ele>1945.6</ele>
        <time>2021-04-17T20:36:53Z</time>
      </trkpt>
      <trkpt lat="4.9548230" lon="-75.5016130">
        <ele>1945.8</ele>
        <time>2021-04-17T20:36:54Z</time>
      </trkpt>
      <trkpt lat="4.9548000" lon="-75.5016130">
        <ele>1946.0</ele>
        <time>2021-04-17T20:36:55Z</time>
      </trkpt>
      <trkpt lat="4.9547760" lon="-75.5016120">
        <ele>1946.1</ele>
        <time>2021-04-17T20:36:56Z</time>
      </trkpt>
      <trkpt lat="4.9547500" lon="-75.5016120">
        <ele>1946.3</ele>
        <time>2021-04-17T20:36:57Z</time>
      </trkpt>
      <trkpt lat="4.9547280" lon="-75.5016100">
        <ele>1946.5</ele>
        <time>2021-04-17T20:36:58Z</time>
      </trkpt>
      <trkpt lat="4.9547040" lon="-75.5016070">
        <ele>1946.6</ele>
        <time>2021-04-17T20:36:59Z</time>
      </trkpt>
      <trkpt lat="4.9546820" lon="-75.5016020">
        <ele>1946.8</ele>
        <time>2021-04-17T20:37:00Z</time>
      </trkpt>
      <trkpt lat="4.9546550" lon="-75.5016050">
        <ele>1946.9</ele>
        <time>2021-04-17T20:37:01Z</time>
      </trkpt>
      <trkpt lat="4.9546350" lon="-75.5015910">
        <ele>1947.1</ele>
        <time>2021-04-17T20:37:02Z</time>
      </trkpt>
      <trkpt lat="4.9546110" lon="-75.5015770">
        <ele>1947.3</ele>
        <time>2021-04-17T20:37:03Z</time>
      </trkpt>
      <trkpt lat="4.9545870" lon="-75.5015600">
        <ele>1947.4</ele>
        <time>2021-04-17T20:37:04Z</time>
      </trkpt>
      <trkpt lat="4.9545620" lon="-75.5015350">
        <ele>1947.7</ele>
        <time>2021-04-17T20:37:05Z</time>
      </trkpt>
      <trkpt lat="4.9545390" lon="-75.5015130">
        <ele>1947.8</ele>
        <time>2021-04-17T20:37:06Z</time>
      </trkpt>
      <trkpt lat="4.9545150" lon="-75.5014920">
        <ele>1948.0</ele>
        <time>2021-04-17T20:37:07Z</time>
      </trkpt>
      <trkpt lat="4.9544910" lon="-75.5014730">
        <ele>1948.2</ele>
        <time>2021-04-17T20:37:08Z</time>
      </trkpt>
      <trkpt lat="4.9544720" lon="-75.5014520">
        <ele>1948.4</ele>
        <time>2021-04-17T20:37:09Z</time>
      </trkpt>
      <trkpt lat="4.9544520" lon="-75.5014330">
        <ele>1948.5</ele>
        <time>2021-04-17T20:37:10Z</time>
      </trkpt>
      <trkpt lat="4.9544310" lon="-75.5014130">
        <ele>1948.7</ele>
        <time>2021-04-17T20:37:11Z</time>
      </trkpt>
      <trkpt lat="4.9544100" lon="-75.5013980">
        <ele>1948.9</ele>
        <time>2021-04-17T20:37:12Z</time>
      </trkpt>
      <trkpt lat="4.9543880" lon="-75.5013820">
        <ele>1949.1</ele>
        <time>2021-04-17T20:37:13Z</time>
      </trkpt>
      <trkpt lat="4.9543660" lon="-75.5013680">
        <ele>1949.2</ele>
        <time>2021-04-17T20:37:14Z</time>
      </trkpt>
      <trkpt lat="4.9543370" lon="-75.5013620">
        <ele>1949.4</ele>
        <time>2021-04-17T20:37:15Z</time>
      </trkpt>
      <trkpt lat="4.9543040" lon="-75.5013540">
        <ele>1949.6</ele>
        <time>2021-04-17T20:37:16Z</time>
      </trkpt>
      <trkpt lat="4.9542730" lon="-75.5013440">
        <ele>1949.8</ele>
        <time>2021-04-17T20:37:17Z</time>
      </trkpt>
      <trkpt lat="4.9542430" lon="-75.5013380">
        <ele>1950.0</ele>
        <time>2021-04-17T20:37:18Z</time>
      </trkpt>
      <trkpt lat="4.9542190" lon="-75.5013230">
        <ele>1950.2</ele>
        <time>2021-04-17T20:37:19Z</time>
      </trkpt>
      <trkpt lat="4.9541970" lon="-75.5013040">
        <ele>1950.4</ele>
        <time>2021-04-17T20:37:20Z</time>
      </trkpt>
      <trkpt lat="4.9541720" lon="-75.5012910">
        <ele>1950.6</ele>
        <time>2021-04-17T20:37:21Z</time>
      </trkpt>
      <trkpt lat="4.9541490" lon="-75.5012770">
        <ele>1950.7</ele>
        <time>2021-04-17T20:37:22Z</time>
      </trkpt>
      <trkpt lat="4.9541230" lon="-75.5012720">
        <ele>1950.9</ele>
        <time>2021-04-17T20:37:23Z</time>
      </trkpt>
      <trkpt lat="4.9540970" lon="-75.5012690">
        <ele>1951.0</ele>
        <time>2021-04-17T20:37:24Z</time>
      </trkpt>
      <trkpt lat="4.9540700" lon="-75.5012700">
        <ele>1951.2</ele>
        <time>2021-04-17T20:37:25Z</time>
      </trkpt>
      <trkpt lat="4.9540430" lon="-75.5012720">
        <ele>1951.3</ele>
        <time>2021-04-17T20:37:26Z</time>
      </trkpt>
      <trkpt lat="4.9540140" lon="-75.5012760">
        <ele>1951.5</ele>
        <time>2021-04-17T20:37:27Z</time>
      </trkpt>
      <trkpt lat="4.9539830" lon="-75.5012850">
        <ele>1951.7</ele>
        <time>2021-04-17T20:37:28Z</time>
      </trkpt>
      <trkpt lat="4.9539520" lon="-75.5012920">
        <ele>1951.9</ele>
        <time>2021-04-17T20:37:29Z</time>
      </trkpt>
      <trkpt lat="4.9539210" lon="-75.5013010">
        <ele>1952.1</ele>
        <time>2021-04-17T20:37:30Z</time>
      </trkpt>
      <trkpt lat="4.9538930" lon="-75.5013120">
        <ele>1952.3</ele>
        <time>2021-04-17T20:37:31Z</time>
      </trkpt>
      <trkpt lat="4.9538690" lon="-75.5013270">
        <ele>1952.4</ele>
        <time>2021-04-17T20:37:32Z</time>
      </trkpt>
      <trkpt lat="4.9538480" lon="-75.5013520">
        <ele>1952.6</ele>
        <time>2021-04-17T20:37:33Z</time>
      </trkpt>
      <trkpt lat="4.9538310" lon="-75.5013790">
        <ele>1952.8</ele>
        <time>2021-04-17T20:37:34Z</time>
      </trkpt>
      <trkpt lat="4.9538150" lon="-75.5014040">
        <ele>1953.0</ele>
        <time>2021-04-17T20:37:35Z</time>
      </trkpt>
      <trkpt lat="4.9537980" lon="-75.5014330">
        <ele>1953.1</ele>
        <time>2021-04-17T20:37:36Z</time>
      </trkpt>
      <trkpt lat="4.9537810" lon="-75.5014620">
        <ele>1953.3</ele>
        <time>2021-04-17T20:37:37Z</time>
      </trkpt>
      <trkpt lat="4.9537610" lon="-75.5014920">
        <ele>1953.5</ele>
        <time>2021-04-17T20:37:38Z</time>
      </trkpt>
      <trkpt lat="4.9537400" lon="-75.5015190">
        <ele>1953.7</ele>
        <time>2021-04-17T20:37:39Z</time>
      </trkpt>
      <trkpt lat="4.9537200" lon="-75.5015460">
        <ele>1953.9</ele>
        <time>2021-04-17T20:37:40Z</time>
      </trkpt>
      <trkpt lat="4.9536950" lon="-75.5015670">
        <ele>1954.1</ele>
        <time>2021-04-17T20:37:41Z</time>
      </trkpt>
      <trkpt lat="4.9536700" lon="-75.5015860">
        <ele>1954.3</ele>
        <time>2021-04-17T20:37:42Z</time>
      </trkpt>
      <trkpt lat="4.9536420" lon="-75.5016030">
        <ele>1954.5</ele>
        <time>2021-04-17T20:37:43Z</time>
      </trkpt>
      <trkpt lat="4.9536170" lon="-75.5016170">
        <ele>1954.8</ele>
        <time>2021-04-17T20:37:44Z</time>
      </trkpt>
      <trkpt lat="4.9535920" lon="-75.5016310">
        <ele>1955.0</ele>
        <time>2021-04-17T20:37:45Z</time>
      </trkpt>
      <trkpt lat="4.9535660" lon="-75.5016450">
        <ele>1955.2</ele>
        <time>2021-04-17T20:37:46Z</time>
      </trkpt>
      <trkpt lat="4.9535400" lon="-75.5016540">
        <ele>1955.5</ele>
        <time>2021-04-17T20:37:47Z</time>
      </trkpt>
      <trkpt lat="4.9535130" lon="-75.5016640">
        <ele>1955.7</ele>
        <time>2021-04-17T20:37:48Z</time>
      </trkpt>
      <trkpt lat="4.9534870" lon="-75.5016750">
        <ele>1956.0</ele>
        <time>2021-04-17T20:37:49Z</time>
      </trkpt>
      <trkpt lat="4.9534610" lon="-75.5016890">
        <ele>1956.3</ele>
        <time>2021-04-17T20:37:50Z</time>
      </trkpt>
      <trkpt lat="4.9534350" lon="-75.5017020">
        <ele>1956.5</ele>
        <time>2021-04-17T20:37:51Z</time>
      </trkpt>
      <trkpt lat="4.9534090" lon="-75.5017150">
        <ele>1956.8</ele>
        <time>2021-04-17T20:37:52Z</time>
      </trkpt>
      <trkpt lat="4.9533850" lon="-75.5017280">
        <ele>1957.1</ele>
        <time>2021-04-17T20:37:53Z</time>
      </trkpt>
      <trkpt lat="4.9533630" lon="-75.5017450">
        <ele>1957.4</ele>
        <time>2021-04-17T20:37:54Z</time>
      </trkpt>
      <trkpt lat="4.9533390" lon="-75.5017550">
        <ele>1957.6</ele>
        <time>2021-04-17T20:37:55Z</time>
      </trkpt>
      <trkpt lat="4.9533150" lon="-75.5017670">
        <ele>1957.9</ele>
        <time>2021-04-17T20:37:56Z</time>
      </trkpt>
      <trkpt lat="4.9532900" lon="-75.5017760">
        <ele>1958.2</ele>
        <time>2021-04-17T20:37:57Z</time>
      </trkpt>
      <trkpt lat="4.9532640" lon="-75.5017800">
        <ele>1958.4</ele>
        <time>2021-04-17T20:37:58Z</time>
      </trkpt>
      <trkpt lat="4.9532410" lon="-75.5017910">
        <ele>1958.7</ele>
        <time>2021-04-17T20:37:59Z</time>
      </trkpt>
      <trkpt lat="4.9532160" lon="-75.5017950">
        <ele>1959.0</ele>
        <time>2021-04-17T20:38:00Z</time>
      </trkpt>
      <trkpt lat="4.9531920" lon="-75.5018000">
        <ele>1959.2</ele>
        <time>2021-04-17T20:38:01Z</time>
      </trkpt>
      <trkpt lat="4.9531670" lon="-75.5018090">
        <ele>1959.5</ele>
        <time>2021-04-17T20:38:02Z</time>
      </trkpt>
      <trkpt lat="4.9531400" lon="-75.5018150">
        <ele>1959.8</ele>
        <time>2021-04-17T20:38:03Z</time>
      </trkpt>
      <trkpt lat="4.9531130" lon="-75.5018210">
        <ele>1960.1</ele>
        <time>2021-04-17T20:38:04Z</time>
      </trkpt>
      <trkpt lat="4.9530890" lon="-75.5018280">
        <ele>1960.3</ele>
        <time>2021-04-17T20:38:05Z</time>
      </trkpt>
      <trkpt lat="4.9530610" lon="-75.5018330">
        <ele>1960.5</ele>
        <time>2021-04-17T20:38:06Z</time>
      </trkpt>
      <trkpt lat="4.9530330" lon="-75.5018380">
        <ele>1960.7</ele>
        <time>2021-04-17T20:38:07Z</time>
      </trkpt>
      <trkpt lat="4.9530060" lon="-75.5018480">
        <ele>1961.0</ele>
        <time>2021-04-17T20:38:08Z</time>
      </trkpt>
      <trkpt lat="4.9529790" lon="-75.5018590">
        <ele>1961.2</ele>
        <time>2021-04-17T20:38:09Z</time>
      </trkpt>
      <trkpt lat="4.9529500" lon="-75.5018680">
        <ele>1961.4</ele>
        <time>2021-04-17T20:38:10Z</time>
      </trkpt>
      <trkpt lat="4.9529220" lon="-75.5018720">
        <ele>1961.7</ele>
        <time>2021-04-17T20:38:11Z</time>
      </trkpt>
      <trkpt lat="4.9528940" lon="-75.5018800">
        <ele>1961.9</ele>
        <time>2021-04-17T20:38:12Z</time>
      </trkpt>
      <trkpt lat="4.9528660" lon="-75.5018910">
        <ele>1962.0</ele>
        <time>2021-04-17T20:38:13Z</time>
      </trkpt>
      <trkpt lat="4.9528370" lon="-75.5019010">
        <ele>1962.1</ele>
        <time>2021-04-17T20:38:14Z</time>
      </trkpt>
      <trkpt lat="4.9528110" lon="-75.5019190">
        <ele>1962.2</ele>
        <time>2021-04-17T20:38:15Z</time>
      </trkpt>
      <trkpt lat="4.9527830" lon="-75.5019340">
        <ele>1962.3</ele>
        <time>2021-04-17T20:38:16Z</time>
      </trkpt>
      <trkpt lat="4.9527530" lon="-75.5019460">
        <ele>1962.3</ele>
        <time>2021-04-17T20:38:17Z</time>
      </trkpt>
      <trkpt lat="4.9527190" lon="-75.5019520">
        <ele>1962.4</ele>
        <time>2021-04-17T20:38:18Z</time>
      </trkpt>
      <trkpt lat="4.9526840" lon="-75.5019530">
        <ele>1962.4</ele>
        <time>2021-04-17T20:38:19Z</time>
      </trkpt>
      <trkpt lat="4.9526500" lon="-75.5019590">
        <ele>1962.5</ele>
        <time>2021-04-17T20:38:20Z</time>
      </trkpt>
      <trkpt lat="4.9526150" lon="-75.5019620">
        <ele>1962.5</ele>
        <time>2021-04-17T20:38:21Z</time>
      </trkpt>
      <trkpt lat="4.9525820" lon="-75.5019610">
        <ele>1962.5</ele>
        <time>2021-04-17T20:38:22Z</time>
      </trkpt>
      <trkpt lat="4.9525530" lon="-75.5019690">
        <ele>1962.6</ele>
        <time>2021-04-17T20:38:23Z</time>
      </trkpt>
      <trkpt lat="4.9525240" lon="-75.5019760">
        <ele>1962.6</ele>
        <time>2021-04-17T20:38:24Z</time>
      </trkpt>
      <trkpt lat="4.9524970" lon="-75.5019850">
        <ele>1962.6</ele>
        <time>2021-04-17T20:38:25Z</time>
      </trkpt>
      <trkpt lat="4.9524710" lon="-75.5019920">
        <ele>1962.7</ele>
        <time>2021-04-17T20:38:26Z</time>
      </trkpt>
      <trkpt lat="4.9524480" lon="-75.5020060">
        <ele>1962.8</ele>
        <time>2021-04-17T20:38:27Z</time>
      </trkpt>
      <trkpt lat="4.9524260" lon="-75.5020230">
        <ele>1962.9</ele>
        <time>2021-04-17T20:38:28Z</time>
      </trkpt>
      <trkpt lat="4.9524080" lon="-75.5020500">
        <ele>1963.1</ele>
        <time>2021-04-17T20:38:29Z</time>
      </trkpt>
      <trkpt lat="4.9523870" lon="-75.5020670">
        <ele>1963.2</ele>
        <time>2021-04-17T20:38:30Z</time>
      </trkpt>
      <trkpt lat="4.9523740" lon="-75.5020970">
        <ele>1963.4</ele>
        <time>2021-04-17T20:38:31Z</time>
      </trkpt>
      <trkpt lat="4.9523630" lon="-75.5021260">
        <ele>1963.5</ele>
        <time>2021-04-17T20:38:32Z</time>
      </trkpt>
      <trkpt lat="4.9523530" lon="-75.5021580">
        <ele>1963.6</ele>
        <time>2021-04-17T20:38:33Z</time>
      </trkpt>
      <trkpt lat="4.9523410" lon="-75.5021880">
        <ele>1963.7</ele>
        <time>2021-04-17T20:38:34Z</time>
      </trkpt>
      <trkpt lat="4.9523270" lon="-75.5022160">
        <ele>1963.8</ele>
        <time>2021-04-17T20:38:35Z</time>
      </trkpt>
      <trkpt lat="4.9523090" lon="-75.5022410">
        <ele>1963.8</ele>
        <time>2021-04-17T20:38:36Z</time>
      </trkpt>
      <trkpt lat="4.9522910" lon="-75.5022700">
        <ele>1963.9</ele>
        <time>2021-04-17T20:38:37Z</time>
      </trkpt>
      <trkpt lat="4.9522730" lon="-75.5022990">
        <ele>1963.9</ele>
        <time>2021-04-17T20:38:38Z</time>
      </trkpt>
      <trkpt lat="4.9522580" lon="-75.5023350">
        <ele>1963.9</ele>
        <time>2021-04-17T20:38:39Z</time>
      </trkpt>
      <trkpt lat="4.9522460" lon="-75.5023770">
        <ele>1964.0</ele>
        <time>2021-04-17T20:38:40Z</time>
      </trkpt>
      <trkpt lat="4.9522330" lon="-75.5024130">
        <ele>1964.1</ele>
        <time>2021-04-17T20:38:41Z</time>
      </trkpt>
      <trkpt lat="4.9522180" lon="-75.5024500">
        <ele>1964.1</ele>
        <time>2021-04-17T20:38:42Z</time>
      </trkpt>
      <trkpt lat="4.9522000" lon="-75.5024840">
        <ele>1964.2</ele>
        <time>2021-04-17T20:38:43Z</time>
      </trkpt>
      <trkpt lat="4.9521830" lon="-75.5025190">
        <ele>1964.2</ele>
        <time>2021-04-17T20:38:44Z</time>
      </trkpt>
      <trkpt lat="4.9521660" lon="-75.5025520">
        <ele>1964.3</ele>
        <time>2021-04-17T20:38:45Z</time>
      </trkpt>
      <trkpt lat="4.9521510" lon="-75.5025860">
        <ele>1964.4</ele>
        <time>2021-04-17T20:38:46Z</time>
      </trkpt>
      <trkpt lat="4.9521400" lon="-75.5026230">
        <ele>1964.5</ele>
        <time>2021-04-17T20:38:47Z</time>
      </trkpt>
      <trkpt lat="4.9521280" lon="-75.5026530">
        <ele>1964.7</ele>
        <time>2021-04-17T20:38:48Z</time>
      </trkpt>
      <trkpt lat="4.9521140" lon="-75.5026840">
        <ele>1964.8</ele>
        <time>2021-04-17T20:38:49Z</time>
      </trkpt>
      <trkpt lat="4.9520970" lon="-75.5027150">
        <ele>1965.0</ele>
        <time>2021-04-17T20:38:50Z</time>
      </trkpt>
      <trkpt lat="4.9520820" lon="-75.5027410">
        <ele>1965.1</ele>
        <time>2021-04-17T20:38:51Z</time>
      </trkpt>
      <trkpt lat="4.9520690" lon="-75.5027640">
        <ele>1965.2</ele>
        <time>2021-04-17T20:38:52Z</time>
      </trkpt>
      <trkpt lat="4.9520490" lon="-75.5027820">
        <ele>1965.4</ele>
        <time>2021-04-17T20:38:53Z</time>
      </trkpt>
      <trkpt lat="4.9520320" lon="-75.5027990">
        <ele>1965.5</ele>
        <time>2021-04-17T20:38:54Z</time>
      </trkpt>
      <trkpt lat="4.9520190" lon="-75.5028190">
        <ele>1965.6</ele>
        <time>2021-04-17T20:38:55Z</time>
      </trkpt>
      <trkpt lat="4.9520050" lon="-75.5028410">
        <ele>1965.7</ele>
        <time>2021-04-17T20:38:56Z</time>
      </trkpt>
      <trkpt lat="4.9519910" lon="-75.5028630">
        <ele>1965.8</ele>
        <time>2021-04-17T20:38:57Z</time>
      </trkpt>
      <trkpt lat="4.9519770" lon="-75.5028870">
        <ele>1965.9</ele>
        <time>2021-04-17T20:38:58Z</time>
      </trkpt>
      <trkpt lat="4.9519620" lon="-75.5029140">
        <ele>1966.0</ele>
        <time>2021-04-17T20:38:59Z</time>
      </trkpt>
      <trkpt lat="4.9519420" lon="-75.5029370">
        <ele>1966.2</ele>
        <time>2021-04-17T20:39:00Z</time>
      </trkpt>
      <trkpt lat="4.9519170" lon="-75.5029590">
        <ele>1966.4</ele>
        <time>2021-04-17T20:39:01Z</time>
      </trkpt>
      <trkpt lat="4.9518940" lon="-75.5029780">
        <ele>1966.6</ele>
        <time>2021-04-17T20:39:02Z</time>
      </trkpt>
      <trkpt lat="4.9518710" lon="-75.5029960">
        <ele>1966.8</ele>
        <time>2021-04-17T20:39:03Z</time>
      </trkpt>
      <trkpt lat="4.9518470" lon="-75.5030090">
        <ele>1967.0</ele>
        <time>2021-04-17T20:39:04Z</time>
      </trkpt>
      <trkpt lat="4.9518180" lon="-75.5030200">
        <ele>1967.2</ele>
        <time>2021-04-17T20:39:05Z</time>
      </trkpt>
      <trkpt lat="4.9517840" lon="-75.5030290">
        <ele>1967.5</ele>
        <time>2021-04-17T20:39:06Z</time>
      </trkpt>
      <trkpt lat="4.9517520" lon="-75.5030340">
        <ele>1967.8</ele>
        <time>2021-04-17T20:39:07Z</time>
      </trkpt>
      <trkpt lat="4.9517200" lon="-75.5030410">
        <ele>1968.1</ele>
        <time>2021-04-17T20:39:08Z</time>
      </trkpt>
      <trkpt lat="4.9516900" lon="-75.5030480">
        <ele>1968.3</ele>
        <time>2021-04-17T20:39:09Z</time>
      </trkpt>
      <trkpt lat="4.9516610" lon="-75.5030560">
        <ele>1968.5</ele>
        <time>2021-04-17T20:39:10Z</time>
      </trkpt>
      <trkpt lat="4.9516340" lon="-75.5030670">
        <ele>1968.7</ele>
        <time>2021-04-17T20:39:11Z</time>
      </trkpt>
      <trkpt lat="4.9516090" lon="-75.5030830">
        <ele>1968.9</ele>
        <time>2021-04-17T20:39:12Z</time>
      </trkpt>
      <trkpt lat="4.9515840" lon="-75.5030950">
        <ele>1969.1</ele>
        <time>2021-04-17T20:39:13Z</time>
      </trkpt>
      <trkpt lat="4.9515590" lon="-75.5031100">
        <ele>1969.2</ele>
        <time>2021-04-17T20:39:14Z</time>
      </trkpt>
      <trkpt lat="4.9515410" lon="-75.5031410">
        <ele>1969.4</ele>
        <time>2021-04-17T20:39:15Z</time>
      </trkpt>
      <trkpt lat="4.9515250" lon="-75.5031730">
        <ele>1969.6</ele>
        <time>2021-04-17T20:39:16Z</time>
      </trkpt>
      <trkpt lat="4.9515140" lon="-75.5032080">
        <ele>1969.8</ele>
        <time>2021-04-17T20:39:17Z</time>
      </trkpt>
      <trkpt lat="4.9515020" lon="-75.5032410">
        <ele>1969.9</ele>
        <time>2021-04-17T20:39:18Z</time>
      </trkpt>
      <trkpt lat="4.9514900" lon="-75.5032740">
        <ele>1970.0</ele>
        <time>2021-04-17T20:39:19Z</time>
      </trkpt>
      <trkpt lat="4.9514820" lon="-75.5033060">
        <ele>1970.1</ele>
        <time>2021-04-17T20:39:20Z</time>
      </trkpt>
      <trkpt lat="4.9514790" lon="-75.5033380">
        <ele>1970.2</ele>
        <time>2021-04-17T20:39:21Z</time>
      </trkpt>
      <trkpt lat="4.9514810" lon="-75.5033710">
        <ele>1970.2</ele>
        <time>2021-04-17T20:39:22Z</time>
      </trkpt>
      <trkpt lat="4.9514840" lon="-75.5034030">
        <ele>1970.3</ele>
        <time>2021-04-17T20:39:23Z</time>
      </trkpt>
      <trkpt lat="4.9514850" lon="-75.5034330">
        <ele>1970.4</ele>
        <time>2021-04-17T20:39:24Z</time>
      </trkpt>
      <trkpt lat="4.9514840" lon="-75.5034660">
        <ele>1970.4</ele>
        <time>2021-04-17T20:39:25Z</time>
      </trkpt>
      <trkpt lat="4.9514810" lon="-75.5034990">
        <ele>1970.5</ele>
        <time>2021-04-17T20:39:26Z</time>
      </trkpt>
      <trkpt lat="4.9514760" lon="-75.5035290">
        <ele>1970.5</ele>
        <time>2021-04-17T20:39:27Z</time>
      </trkpt>
      <trkpt lat="4.9514690" lon="-75.5035590">
        <ele>1970.6</ele>
        <time>2021-04-17T20:39:28Z</time>
      </trkpt>
      <trkpt lat="4.9514590" lon="-75.5035890">
        <ele>1970.6</ele>
        <time>2021-04-17T20:39:29Z</time>
      </trkpt>
      <trkpt lat="4.9514470" lon="-75.5036150">
        <ele>1970.7</ele>
        <time>2021-04-17T20:39:30Z</time>
      </trkpt>
      <trkpt lat="4.9514320" lon="-75.5036410">
        <ele>1970.8</ele>
        <time>2021-04-17T20:39:31Z</time>
      </trkpt>
      <trkpt lat="4.9514180" lon="-75.5036660">
        <ele>1970.8</ele>
        <time>2021-04-17T20:39:32Z</time>
      </trkpt>
      <trkpt lat="4.9514040" lon="-75.5036910">
        <ele>1970.9</ele>
        <time>2021-04-17T20:39:33Z</time>
      </trkpt>
      <trkpt lat="4.9513910" lon="-75.5037200">
        <ele>1971.0</ele>
        <time>2021-04-17T20:39:34Z</time>
      </trkpt>
      <trkpt lat="4.9513790" lon="-75.5037490">
        <ele>1971.2</ele>
        <time>2021-04-17T20:39:35Z</time>
      </trkpt>
      <trkpt lat="4.9513690" lon="-75.5037790">
        <ele>1971.3</ele>
        <time>2021-04-17T20:39:36Z</time>
      </trkpt>
      <trkpt lat="4.9513600" lon="-75.5038070">
        <ele>1971.4</ele>
        <time>2021-04-17T20:39:37Z</time>
      </trkpt>
      <trkpt lat="4.9513500" lon="-75.5038340">
        <ele>1971.5</ele>
        <time>2021-04-17T20:39:38Z</time>
      </trkpt>
      <trkpt lat="4.9513440" lon="-75.5038610">
        <ele>1971.6</ele>
        <time>2021-04-17T20:39:39Z</time>
      </trkpt>
      <trkpt lat="4.9513430" lon="-75.5038870">
        <ele>1971.7</ele>
        <time>2021-04-17T20:39:40Z</time>
      </trkpt>
      <trkpt lat="4.9513430" lon="-75.5039150">
        <ele>1971.9</ele>
        <time>2021-04-17T20:39:41Z</time>
      </trkpt>
      <trkpt lat="4.9513380" lon="-75.5039430">
        <ele>1972.0</ele>
        <time>2021-04-17T20:39:42Z</time>
      </trkpt>
      <trkpt lat="4.9513320" lon="-75.5039700">
        <ele>1972.1</ele>
        <time>2021-04-17T20:39:43Z</time>
      </trkpt>
      <trkpt lat="4.9513260" lon="-75.5039970">
        <ele>1972.2</ele>
        <time>2021-04-17T20:39:44Z</time>
      </trkpt>
      <trkpt lat="4.9513190" lon="-75.5040240">
        <ele>1972.2</ele>
        <time>2021-04-17T20:39:45Z</time>
      </trkpt>
      <trkpt lat="4.9513130" lon="-75.5040510">
        <ele>1972.3</ele>
        <time>2021-04-17T20:39:46Z</time>
      </trkpt>
      <trkpt lat="4.9513070" lon="-75.5040800">
        <ele>1972.4</ele>
        <time>2021-04-17T20:39:47Z</time>
      </trkpt>
      <trkpt lat="4.9512970" lon="-75.5041100">
        <ele>1972.5</ele>
        <time>2021-04-17T20:39:48Z</time>
      </trkpt>
      <trkpt lat="4.9512910" lon="-75.5041410">
        <ele>1972.5</ele>
        <time>2021-04-17T20:39:49Z</time>
      </trkpt>
      <trkpt lat="4.9512850" lon="-75.5041710">
        <ele>1972.6</ele>
        <time>2021-04-17T20:39:50Z</time>
      </trkpt>
      <trkpt lat="4.9512830" lon="-75.5042010">
        <ele>1972.7</ele>
        <time>2021-04-17T20:39:51Z</time>
      </trkpt>
      <trkpt lat="4.9512870" lon="-75.5042300">
        <ele>1972.8</ele>
        <time>2021-04-17T20:39:52Z</time>
      </trkpt>
      <trkpt lat="4.9512960" lon="-75.5042580">
        <ele>1972.8</ele>
        <time>2021-04-17T20:39:53Z</time>
      </trkpt>
      <trkpt lat="4.9513080" lon="-75.5042850">
        <ele>1972.9</ele>
        <time>2021-04-17T20:39:54Z</time>
      </trkpt>
      <trkpt lat="4.9513220" lon="-75.5043110">
        <ele>1973.0</ele>
        <time>2021-04-17T20:39:55Z</time>
      </trkpt>
      <trkpt lat="4.9513390" lon="-75.5043360">
        <ele>1973.0</ele>
        <time>2021-04-17T20:39:56Z</time>
      </trkpt>
      <trkpt lat="4.9513580" lon="-75.5043610">
        <ele>1973.1</ele>
        <time>2021-04-17T20:39:57Z</time>
      </trkpt>
      <trkpt lat="4.9513840" lon="-75.5043820">
        <ele>1973.2</ele>
        <time>2021-04-17T20:39:58Z</time>
      </trkpt>
      <trkpt lat="4.9514090" lon="-75.5044040">
        <ele>1973.3</ele>
        <time>2021-04-17T20:39:59Z</time>
      </trkpt>
      <trkpt lat="4.9514390" lon="-75.5044260">
        <ele>1973.4</ele>
        <time>2021-04-17T20:40:00Z</time>
      </trkpt>
      <trkpt lat="4.9514670" lon="-75.5044440">
        <ele>1973.5</ele>
        <time>2021-04-17T20:40:01Z</time>
      </trkpt>
      <trkpt lat="4.9514950" lon="-75.5044610">
        <ele>1973.6</ele>
        <time>2021-04-17T20:40:02Z</time>
      </trkpt>
      <trkpt lat="4.9515200" lon="-75.5044760">
        <ele>1973.7</ele>
        <time>2021-04-17T20:40:03Z</time>
      </trkpt>
      <trkpt lat="4.9515450" lon="-75.5044900">
        <ele>1973.8</ele>
        <time>2021-04-17T20:40:04Z</time>
      </trkpt>
      <trkpt lat="4.9515680" lon="-75.5045020">
        <ele>1973.8</ele>
        <time>2021-04-17T20:40:05Z</time>
      </trkpt>
      <trkpt lat="4.9515910" lon="-75.5045200">
        <ele>1973.9</ele>
        <time>2021-04-17T20:40:06Z</time>
      </trkpt>
      <trkpt lat="4.9516140" lon="-75.5045410">
        <ele>1974.0</ele>
        <time>2021-04-17T20:40:07Z</time>
      </trkpt>
      <trkpt lat="4.9516370" lon="-75.5045620">
        <ele>1974.1</ele>
        <time>2021-04-17T20:40:08Z</time>
      </trkpt>
      <trkpt lat="4.9516600" lon="-75.5045820">
        <ele>1974.1</ele>
        <time>2021-04-17T20:40:09Z</time>
      </trkpt>
      <trkpt lat="4.9516810" lon="-75.5046020">
        <ele>1974.2</ele>
        <time>2021-04-17T20:40:10Z</time>
      </trkpt>
      <trkpt lat="4.9516990" lon="-75.5046250">
        <ele>1974.3</ele>
        <time>2021-04-17T20:40:11Z</time>
      </trkpt>
      <trkpt lat="4.9517160" lon="-75.5046470">
        <ele>1974.4</ele>
        <time>2021-04-17T20:40:12Z</time>
      </trkpt>
      <trkpt lat="4.9517330" lon="-75.5046690">
        <ele>1974.5</ele>
        <time>2021-04-17T20:40:13Z</time>
      </trkpt>
      <trkpt lat="4.9517530" lon="-75.5046880">
        <ele>1974.6</ele>
        <time>2021-04-17T20:40:14Z</time>
      </trkpt>
      <trkpt lat="4.9517720" lon="-75.5047080">
        <ele>1974.8</ele>
        <time>2021-04-17T20:40:15Z</time>
      </trkpt>
      <trkpt lat="4.9517930" lon="-75.5047260">
        <ele>1974.9</ele>
        <time>2021-04-17T20:40:16Z</time>
      </trkpt>
      <trkpt lat="4.9518130" lon="-75.5047440">
        <ele>1975.0</ele>
        <time>2021-04-17T20:40:17Z</time>
      </trkpt>
      <trkpt lat="4.9518350" lon="-75.5047640">
        <ele>1975.1</ele>
        <time>2021-04-17T20:40:18Z</time>
      </trkpt>
      <trkpt lat="4.9518560" lon="-75.5047830">
        <ele>1975.3</ele>
        <time>2021-04-17T20:40:19Z</time>
      </trkpt>
      <trkpt lat="4.9518760" lon="-75.5048000">
        <ele>1975.4</ele>
        <time>2021-04-17T20:40:20Z</time>
      </trkpt>
      <trkpt lat="4.9518930" lon="-75.5048170">
        <ele>1975.6</ele>
        <time>2021-04-17T20:40:21Z</time>
      </trkpt>
      <trkpt lat="4.9519090" lon="-75.5048330">
        <ele>1975.7</ele>
        <time>2021-04-17T20:40:22Z</time>
      </trkpt>
      <trkpt lat="4.9519270" lon="-75.5048490">
        <ele>1975.8</ele>
        <time>2021-04-17T20:40:23Z</time>
      </trkpt>
      <trkpt lat="4.9519430" lon="-75.5048650">
        <ele>1975.9</ele>
        <time>2021-04-17T20:40:24Z</time>
      </trkpt>
      <trkpt lat="4.9519620" lon="-75.5048780">
        <ele>1976.1</ele>
        <time>2021-04-17T20:40:25Z</time>
      </trkpt>
      <trkpt lat="4.9519810" lon="-75.5048940">
        <ele>1976.2</ele>
        <time>2021-04-17T20:40:26Z</time>
      </trkpt>
      <trkpt lat="4.9520020" lon="-75.5049100">
        <ele>1976.4</ele>
        <time>2021-04-17T20:40:27Z</time>
      </trkpt>
      <trkpt lat="4.9520260" lon="-75.5049270">
        <ele>1976.6</ele>
        <time>2021-04-17T20:40:28Z</time>
      </trkpt>
      <trkpt lat="4.9520500" lon="-75.5049450">
        <ele>1976.8</ele>
        <time>2021-04-17T20:40:29Z</time>
      </trkpt>
      <trkpt lat="4.9520710" lon="-75.5049640">
        <ele>1976.9</ele>
        <time>2021-04-17T20:40:30Z</time>
      </trkpt>
      <trkpt lat="4.9520910" lon="-75.5049840">
        <ele>1977.1</ele>
        <time>2021-04-17T20:40:31Z</time>
      </trkpt>
      <trkpt lat="4.9521110" lon="-75.5050050">
        <ele>1977.2</ele>
        <time>2021-04-17T20:40:32Z</time>
      </trkpt>
      <trkpt lat="4.9521310" lon="-75.5050250">
        <ele>1977.3</ele>
        <time>2021-04-17T20:40:33Z</time>
      </trkpt>
      <trkpt lat="4.9521510" lon="-75.5050460">
        <ele>1977.5</ele>
        <time>2021-04-17T20:40:34Z</time>
      </trkpt>
      <trkpt lat="4.9521710" lon="-75.5050690">
        <ele>1977.6</ele>
        <time>2021-04-17T20:40:35Z</time>
      </trkpt>
      <trkpt lat="4.9521920" lon="-75.5050920">
        <ele>1977.8</ele>
        <time>2021-04-17T20:40:36Z</time>
      </trkpt>
      <trkpt lat="4.9522130" lon="-75.5051120">
        <ele>1978.0</ele>
        <time>2021-04-17T20:40:37Z</time>
      </trkpt>
      <trkpt lat="4.9522350" lon="-75.5051330">
        <ele>1978.1</ele>
        <time>2021-04-17T20:40:38Z</time>
      </trkpt>
      <trkpt lat="4.9522580" lon="-75.5051520">
        <ele>1978.3</ele>
        <time>2021-04-17T20:40:39Z</time>
      </trkpt>
      <trkpt lat="4.9522820" lon="-75.5051710">
        <ele>1978.4</ele>
        <time>2021-04-17T20:40:40Z</time>
      </trkpt>
      <trkpt lat="4.9523050" lon="-75.5051910">
        <ele>1978.6</ele>
        <time>2021-04-17T20:40:41Z</time>
      </trkpt>
      <trkpt lat="4.9523290" lon="-75.5052100">
        <ele>1978.7</ele>
        <time>2021-04-17T20:40:42Z</time>
      </trkpt>
      <trkpt lat="4.9523520" lon="-75.5052300">
        <ele>1978.8</ele>
        <time>2021-04-17T20:40:43Z</time>
      </trkpt>
      <trkpt lat="4.9523750" lon="-75.5052490">
        <ele>1979.0</ele>
        <time>2021-04-17T20:40:44Z</time>
      </trkpt>
      <trkpt lat="4.9523960" lon="-75.5052700">
        <ele>1979.1</ele>
        <time>2021-04-17T20:40:45Z</time>
      </trkpt>
      <trkpt lat="4.9524150" lon="-75.5052940">
        <ele>1979.2</ele>
        <time>2021-04-17T20:40:46Z</time>
      </trkpt>
      <trkpt lat="4.9524320" lon="-75.5053180">
        <ele>1979.4</ele>
        <time>2021-04-17T20:40:47Z</time>
      </trkpt>
      <trkpt lat="4.9524460" lon="-75.5053430">
        <ele>1979.5</ele>
        <time>2021-04-17T20:40:48Z</time>
      </trkpt>
      <trkpt lat="4.9524580" lon="-75.5053690">
        <ele>1979.7</ele>
        <time>2021-04-17T20:40:49Z</time>
      </trkpt>
      <trkpt lat="4.9524710" lon="-75.5053940">
        <ele>1979.8</ele>
        <time>2021-04-17T20:40:50Z</time>
      </trkpt>
      <trkpt lat="4.9524850" lon="-75.5054210">
        <ele>1980.0</ele>
        <time>2021-04-17T20:40:51Z</time>
      </trkpt>
      <trkpt lat="4.9525000" lon="-75.5054480">
        <ele>1980.2</ele>
        <time>2021-04-17T20:40:52Z</time>
      </trkpt>
      <trkpt lat="4.9525150" lon="-75.5054770">
        <ele>1980.3</ele>
        <time>2021-04-17T20:40:53Z</time>
      </trkpt>
      <trkpt lat="4.9525290" lon="-75.5055060">
        <ele>1980.5</ele>
        <time>2021-04-17T20:40:54Z</time>
      </trkpt>
      <trkpt lat="4.9525430" lon="-75.5055350">
        <ele>1980.7</ele>
        <time>2021-04-17T20:40:55Z</time>
      </trkpt>
      <trkpt lat="4.9525580" lon="-75.5055620">
        <ele>1980.9</ele>
        <time>2021-04-17T20:40:56Z</time>
      </trkpt>
      <trkpt lat="4.9525730" lon="-75.5055870">
        <ele>1981.0</ele>
        <time>2021-04-17T20:40:57Z</time>
      </trkpt>
      <trkpt lat="4.9525840" lon="-75.5056130">
        <ele>1981.2</ele>
        <time>2021-04-17T20:40:58Z</time>
      </trkpt>
      <trkpt lat="4.9525930" lon="-75.5056390">
        <ele>1981.3</ele>
        <time>2021-04-17T20:40:59Z</time>
      </trkpt>
      <trkpt lat="4.9526050" lon="-75.5056660">
        <ele>1981.5</ele>
        <time>2021-04-17T20:41:00Z</time>
      </trkpt>
      <trkpt lat="4.9526180" lon="-75.5056950">
        <ele>1981.7</ele>
        <time>2021-04-17T20:41:01Z</time>
      </trkpt>
      <trkpt lat="4.9526270" lon="-75.5057200">
        <ele>1981.9</ele>
        <time>2021-04-17T20:41:02Z</time>
      </trkpt>
      <trkpt lat="4.9526390" lon="-75.5057450">
        <ele>1982.1</ele>
        <time>2021-04-17T20:41:03Z</time>
      </trkpt>
      <trkpt lat="4.9526500" lon="-75.5057700">
        <ele>1982.2</ele>
        <time>2021-04-17T20:41:04Z</time>
      </trkpt>
      <trkpt lat="4.9526600" lon="-75.5057950">
        <ele>1982.4</ele>
        <time>2021-04-17T20:41:05Z</time>
      </trkpt>
      <trkpt lat="4.9526690" lon="-75.5058200">
        <ele>1982.6</ele>
        <time>2021-04-17T20:41:06Z</time>
      </trkpt>
      <trkpt lat="4.9526790" lon="-75.5058450">
        <ele>1982.8</ele>
        <time>2021-04-17T20:41:07Z</time>
      </trkpt>
      <trkpt lat="4.9526890" lon="-75.5058690">
        <ele>1983.0</ele>
        <time>2021-04-17T20:41:08Z</time>
      </trkpt>
      <trkpt lat="4.9526990" lon="-75.5058920">
        <ele>1983.2</ele>
        <time>2021-04-17T20:41:09Z</time>
      </trkpt>
      <trkpt lat="4.9527100" lon="-75.5059140">
        <ele>1983.5</ele>
        <time>2021-04-17T20:41:10Z</time>
      </trkpt>
      <trkpt lat="4.9527210" lon="-75.5059370">
        <ele>1983.7</ele>
        <time>2021-04-17T20:41:11Z</time>
      </trkpt>
      <trkpt lat="4.9527290" lon="-75.5059580">
        <ele>1983.9</ele>
        <time>2021-04-17T20:41:12Z</time>
      </trkpt>
      <trkpt lat="4.9527370" lon="-75.5059790">
        <ele>1984.0</ele>
        <time>2021-04-17T20:41:13Z</time>
      </trkpt>
      <trkpt lat="4.9527460" lon="-75.5059990">
        <ele>1984.2</ele>
        <time>2021-04-17T20:41:14Z</time>
      </trkpt>
      <trkpt lat="4.9527560" lon="-75.5060200">
        <ele>1984.4</ele>
        <time>2021-04-17T20:41:15Z</time>
      </trkpt>
      <trkpt lat="4.9527670" lon="-75.5060410">
        <ele>1984.6</ele>
        <time>2021-04-17T20:41:16Z</time>
      </trkpt>
      <trkpt lat="4.9527800" lon="-75.5060640">
        <ele>1984.8</ele>
        <time>2021-04-17T20:41:17Z</time>
      </trkpt>
      <trkpt lat="4.9527900" lon="-75.5060850">
        <ele>1985.0</ele>
        <time>2021-04-17T20:41:18Z</time>
      </trkpt>
      <trkpt lat="4.9528010" lon="-75.5061060">
        <ele>1985.2</ele>
        <time>2021-04-17T20:41:19Z</time>
      </trkpt>
      <trkpt lat="4.9528120" lon="-75.5061260">
        <ele>1985.4</ele>
        <time>2021-04-17T20:41:20Z</time>
      </trkpt>
      <trkpt lat="4.9528220" lon="-75.5061450">
        <ele>1985.6</ele>
        <time>2021-04-17T20:41:21Z</time>
      </trkpt>
      <trkpt lat="4.9528320" lon="-75.5061660">
        <ele>1985.8</ele>
        <time>2021-04-17T20:41:22Z</time>
      </trkpt>
      <trkpt lat="4.9528440" lon="-75.5061860">
        <ele>1986.0</ele>
        <time>2021-04-17T20:41:23Z</time>
      </trkpt>
      <trkpt lat="4.9528590" lon="-75.5062060">
        <ele>1986.1</ele>
        <time>2021-04-17T20:41:24Z</time>
      </trkpt>
      <trkpt lat="4.9528750" lon="-75.5062250">
        <ele>1986.3</ele>
        <time>2021-04-17T20:41:25Z</time>
      </trkpt>
      <trkpt lat="4.9528920" lon="-75.5062450">
        <ele>1986.4</ele>
        <time>2021-04-17T20:41:26Z</time>
      </trkpt>
      <trkpt lat="4.9529070" lon="-75.5062660">
        <ele>1986.6</ele>
        <time>2021-04-17T20:41:27Z</time>
      </trkpt>
      <trkpt lat="4.9529220" lon="-75.5062860">
        <ele>1986.7</ele>
        <time>2021-04-17T20:41:28Z</time>
      </trkpt>
      <trkpt lat="4.9529360" lon="-75.5063070">
        <ele>1986.8</ele>
        <time>2021-04-17T20:41:29Z</time>
      </trkpt>
      <trkpt lat="4.9529470" lon="-75.5063280">
        <ele>1986.9</ele>
        <time>2021-04-17T20:41:30Z</time>
      </trkpt>
      <trkpt lat="4.9529590" lon="-75.5063500">
        <ele>1987.0</ele>
        <time>2021-04-17T20:41:31Z</time>
      </trkpt>
      <trkpt lat="4.9529720" lon="-75.5063700">
        <ele>1987.1</ele>
        <time>2021-04-17T20:41:32Z</time>
      </trkpt>
      <trkpt lat="4.9529860" lon="-75.5063890">
        <ele>1987.3</ele>
        <time>2021-04-17T20:41:33Z</time>
      </trkpt>
      <trkpt lat="4.9529980" lon="-75.5064090">
        <ele>1987.4</ele>
        <time>2021-04-17T20:41:34Z</time>
      </trkpt>
      <trkpt lat="4.9530090" lon="-75.5064280">
        <ele>1987.5</ele>
        <time>2021-04-17T20:41:35Z</time>
      </trkpt>
      <trkpt lat="4.9530200" lon="-75.5064470">
        <ele>1987.6</ele>
        <time>2021-04-17T20:41:36Z</time>
      </trkpt>
      <trkpt lat="4.9530300" lon="-75.5064650">
        <ele>1987.8</ele>
        <time>2021-04-17T20:41:37Z</time>
      </trkpt>
      <trkpt lat="4.9530390" lon="-75.5064830">
        <ele>1987.9</ele>
        <time>2021-04-17T20:41:38Z</time>
      </trkpt>
      <trkpt lat="4.9530520" lon="-75.5065010">
        <ele>1988.0</ele>
        <time>2021-04-17T20:41:39Z</time>
      </trkpt>
      <trkpt lat="4.9530650" lon="-75.5065170">
        <ele>1988.1</ele>
        <time>2021-04-17T20:41:40Z</time>
      </trkpt>
      <trkpt lat="4.9530770" lon="-75.5065350">
        <ele>1988.3</ele>
        <time>2021-04-17T20:41:41Z</time>
      </trkpt>
      <trkpt lat="4.9530890" lon="-75.5065540">
        <ele>1988.4</ele>
        <time>2021-04-17T20:41:42Z</time>
      </trkpt>
      <trkpt lat="4.9531010" lon="-75.5065700">
        <ele>1988.6</ele>
        <time>2021-04-17T20:41:43Z</time>
      </trkpt>
      <trkpt lat="4.9531140" lon="-75.5065860">
        <ele>1988.7</ele>
        <time>2021-04-17T20:41:44Z</time>
      </trkpt>
      <trkpt lat="4.9531280" lon="-75.5066030">
        <ele>1988.9</ele>
        <time>2021-04-17T20:41:45Z</time>
      </trkpt>
      <trkpt lat="4.9531420" lon="-75.5066200">
        <ele>1989.1</ele>
        <time>2021-04-17T20:41:46Z</time>
      </trkpt>
      <trkpt lat="4.9531540" lon="-75.5066360">
        <ele>1989.2</ele>
        <time>2021-04-17T20:41:47Z</time>
      </trkpt>
      <trkpt lat="4.9531650" lon="-75.5066510">
        <ele>1989.4</ele>
        <time>2021-04-17T20:41:48Z</time>
      </trkpt>
      <trkpt lat="4.9531790" lon="-75.5066640">
        <ele>1989.6</ele>
        <time>2021-04-17T20:41:49Z</time>
      </trkpt>
      <trkpt lat="4.9531940" lon="-75.5066760">
        <ele>1989.7</ele>
        <time>2021-04-17T20:41:50Z</time>
      </trkpt>
      <trkpt lat="4.9532100" lon="-75.5066900">
        <ele>1989.9</ele>
        <time>2021-04-17T20:41:51Z</time>
      </trkpt>
      <trkpt lat="4.9532250" lon="-75.5067020">
        <ele>1990.1</ele>
        <time>2021-04-17T20:41:52Z</time>
      </trkpt>
      <trkpt lat="4.9532430" lon="-75.5067150">
        <ele>1990.2</ele>
        <time>2021-04-17T20:41:53Z</time>
      </trkpt>
      <trkpt lat="4.9532620" lon="-75.5067300">
        <ele>1990.4</ele>
        <time>2021-04-17T20:41:54Z</time>
      </trkpt>
      <trkpt lat="4.9532820" lon="-75.5067450">
        <ele>1990.6</ele>
        <time>2021-04-17T20:41:55Z</time>
      </trkpt>
      <trkpt lat="4.9533020" lon="-75.5067580">
        <ele>1990.7</ele>
        <time>2021-04-17T20:41:56Z</time>
      </trkpt>
      <trkpt lat="4.9533230" lon="-75.5067710">
        <ele>1990.9</ele>
        <time>2021-04-17T20:41:57Z</time>
      </trkpt>
      <trkpt lat="4.9533460" lon="-75.5067840">
        <ele>1991.0</ele>
        <time>2021-04-17T20:41:58Z</time>
      </trkpt>
      <trkpt lat="4.9533690" lon="-75.5067970">
        <ele>1991.1</ele>
        <time>2021-04-17T20:41:59Z</time>
      </trkpt>
      <trkpt lat="4.9533940" lon="-75.5068100">
        <ele>1991.2</ele>
        <time>2021-04-17T20:42:00Z</time>
      </trkpt>
      <trkpt lat="4.9534180" lon="-75.5068250">
        <ele>1991.4</ele>
        <time>2021-04-17T20:42:01Z</time>
      </trkpt>
      <trkpt lat="4.9534430" lon="-75.5068390">
        <ele>1991.5</ele>
        <time>2021-04-17T20:42:02Z</time>
      </trkpt>
      <trkpt lat="4.9534670" lon="-75.5068520">
        <ele>1991.7</ele>
        <time>2021-04-17T20:42:03Z</time>
      </trkpt>
      <trkpt lat="4.9534920" lon="-75.5068640">
        <ele>1991.8</ele>
        <time>2021-04-17T20:42:04Z</time>
      </trkpt>
      <trkpt lat="4.9535180" lon="-75.5068760">
        <ele>1992.0</ele>
        <time>2021-04-17T20:42:05Z</time>
      </trkpt>
      <trkpt lat="4.9535440" lon="-75.5068890">
        <ele>1992.1</ele>
        <time>2021-04-17T20:42:06Z</time>
      </trkpt>
      <trkpt lat="4.9535700" lon="-75.5069020">
        <ele>1992.2</ele>
        <time>2021-04-17T20:42:07Z</time>
      </trkpt>
      <trkpt lat="4.9535970" lon="-75.5069160">
        <ele>1992.4</ele>
        <time>2021-04-17T20:42:08Z</time>
      </trkpt>
      <trkpt lat="4.9536220" lon="-75.5069300">
        <ele>1992.5</ele>
        <time>2021-04-17T20:42:09Z</time>
      </trkpt>
      <trkpt lat="4.9536470" lon="-75.5069440">
        <ele>1992.6</ele>
        <time>2021-04-17T20:42:10Z</time>
      </trkpt>
      <trkpt lat="4.9536730" lon="-75.5069570">
        <ele>1992.8</ele>
        <time>2021-04-17T20:42:11Z</time>
      </trkpt>
      <trkpt lat="4.9536990" lon="-75.5069700">
        <ele>1992.9</ele>
        <time>2021-04-17T20:42:12Z</time>
      </trkpt>
      <trkpt lat="4.9537240" lon="-75.5069830">
        <ele>1993.0</ele>
        <time>2021-04-17T20:42:13Z</time>
      </trkpt>
      <trkpt lat="4.9537490" lon="-75.5069980">
        <ele>1993.1</ele>
        <time>2021-04-17T20:42:14Z</time>
      </trkpt>
      <trkpt lat="4.9537750" lon="-75.5070120">
        <ele>1993.2</ele>
        <time>2021-04-17T20:42:15Z</time>
      </trkpt>
      <trkpt lat="4.9538010" lon="-75.5070240">
        <ele>1993.4</ele>
        <time>2021-04-17T20:42:16Z</time>
      </trkpt>
      <trkpt lat="4.9538250" lon="-75.5070380">
        <ele>1993.5</ele>
        <time>2021-04-17T20:42:17Z</time>
      </trkpt>
      <trkpt lat="4.9538490" lon="-75.5070510">
        <ele>1993.6</ele>
        <time>2021-04-17T20:42:18Z</time>
      </trkpt>
      <trkpt lat="4.9538740" lon="-75.5070640">
        <ele>1993.8</ele>
        <time>2021-04-17T20:42:19Z</time>
      </trkpt>
      <trkpt lat="4.9539000" lon="-75.5070750">
        <ele>1993.9</ele>
        <time>2021-04-17T20:42:20Z</time>
      </trkpt>
      <trkpt lat="4.9539280" lon="-75.5070830">
        <ele>1994.1</ele>
        <time>2021-04-17T20:42:21Z</time>
      </trkpt>
      <trkpt lat="4.9539570" lon="-75.5070880">
        <ele>1994.3</ele>
        <time>2021-04-17T20:42:22Z</time>
      </trkpt>
      <trkpt lat="4.9539850" lon="-75.5070900">
        <ele>1994.4</ele>
        <time>2021-04-17T20:42:23Z</time>
      </trkpt>
      <trkpt lat="4.9540140" lon="-75.5070920">
        <ele>1994.6</ele>
        <time>2021-04-17T20:42:24Z</time>
      </trkpt>
      <trkpt lat="4.9540420" lon="-75.5070910">
        <ele>1994.8</ele>
        <time>2021-04-17T20:42:25Z</time>
      </trkpt>
      <trkpt lat="4.9540730" lon="-75.5070910">
        <ele>1995.0</ele>
        <time>2021-04-17T20:42:26Z</time>
      </trkpt>
      <trkpt lat="4.9541050" lon="-75.5070910">
        <ele>1995.1</ele>
        <time>2021-04-17T20:42:27Z</time>
      </trkpt>
      <trkpt lat="4.9541350" lon="-75.5070880">
        <ele>1995.3</ele>
        <time>2021-04-17T20:42:28Z</time>
      </trkpt>
      <trkpt lat="4.9541660" lon="-75.5070880">
        <ele>1995.5</ele>
        <time>2021-04-17T20:42:29Z</time>
      </trkpt>
      <trkpt lat="4.9541960" lon="-75.5070860">
        <ele>1995.7</ele>
        <time>2021-04-17T20:42:30Z</time>
      </trkpt>
      <trkpt lat="4.9542240" lon="-75.5070840">
        <ele>1995.8</ele>
        <time>2021-04-17T20:42:31Z</time>
      </trkpt>
      <trkpt lat="4.9542510" lon="-75.5070850">
        <ele>1996.0</ele>
        <time>2021-04-17T20:42:32Z</time>
      </trkpt>
      <trkpt lat="4.9542770" lon="-75.5070870">
        <ele>1996.2</ele>
        <time>2021-04-17T20:42:33Z</time>
      </trkpt>
      <trkpt lat="4.9543030" lon="-75.5070880">
        <ele>1996.3</ele>
        <time>2021-04-17T20:42:34Z</time>
      </trkpt>
      <trkpt lat="4.9543300" lon="-75.5070900">
        <ele>1996.5</ele>
        <time>2021-04-17T20:42:35Z</time>
      </trkpt>
      <trkpt lat="4.9543560" lon="-75.5070970">
        <ele>1996.6</ele>
        <time>2021-04-17T20:42:36Z</time>
      </trkpt>
      <trkpt lat="4.9543830" lon="-75.5071090">
        <ele>1996.8</ele>
        <time>2021-04-17T20:42:37Z</time>
      </trkpt>
      <trkpt lat="4.9544070" lon="-75.5071250">
        <ele>1997.0</ele>
        <time>2021-04-17T20:42:38Z</time>
      </trkpt>
      <trkpt lat="4.9544300" lon="-75.5071440">
        <ele>1997.2</ele>
        <time>2021-04-17T20:42:39Z</time>
      </trkpt>
      <trkpt lat="4.9544500" lon="-75.5071650">
        <ele>1997.3</ele>
        <time>2021-04-17T20:42:40Z</time>
      </trkpt>
      <trkpt lat="4.9544690" lon="-75.5071890">
        <ele>1997.5</ele>
        <time>2021-04-17T20:42:41Z</time>
      </trkpt>
      <trkpt lat="4.9544880" lon="-75.5072120">
        <ele>1997.7</ele>
        <time>2021-04-17T20:42:42Z</time>
      </trkpt>
      <trkpt lat="4.9545070" lon="-75.5072370">
        <ele>1998.0</ele>
        <time>2021-04-17T20:42:43Z</time>
      </trkpt>
      <trkpt lat="4.9545270" lon="-75.5072620">
        <ele>1998.3</ele>
        <time>2021-04-17T20:42:44Z</time>
      </trkpt>
      <trkpt lat="4.9545460" lon="-75.5072840">
        <ele>1998.5</ele>
        <time>2021-04-17T20:42:45Z</time>
      </trkpt>
      <trkpt lat="4.9545680" lon="-75.5073030">
        <ele>1998.8</ele>
        <time>2021-04-17T20:42:46Z</time>
      </trkpt>
      <trkpt lat="4.9545930" lon="-75.5073160">
        <ele>1999.0</ele>
        <time>2021-04-17T20:42:47Z</time>
      </trkpt>
      <trkpt lat="4.9546220" lon="-75.5073330">
        <ele>1999.2</ele>
        <time>2021-04-17T20:42:48Z</time>
      </trkpt>
      <trkpt lat="4.9546510" lon="-75.5073420">
        <ele>1999.3</ele>
        <time>2021-04-17T20:42:49Z</time>
      </trkpt>
      <trkpt lat="4.9546820" lon="-75.5073530">
        <ele>1999.4</ele>
        <time>2021-04-17T20:42:50Z</time>
      </trkpt>
      <trkpt lat="4.9547090" lon="-75.5073660">
        <ele>1999.5</ele>
        <time>2021-04-17T20:42:51Z</time>
      </trkpt>
      <trkpt lat="4.9547390" lon="-75.5073810">
        <ele>1999.6</ele>
        <time>2021-04-17T20:42:52Z</time>
      </trkpt>
      <trkpt lat="4.9547710" lon="-75.5073970">
        <ele>1999.7</ele>
        <time>2021-04-17T20:42:53Z</time>
      </trkpt>
      <trkpt lat="4.9547990" lon="-75.5074170">
        <ele>1999.9</ele>
        <time>2021-04-17T20:42:54Z</time>
      </trkpt>
      <trkpt lat="4.9548280" lon="-75.5074320">
        <ele>2000.1</ele>
        <time>2021-04-17T20:42:55Z</time>
      </trkpt>
      <trkpt lat="4.9548590" lon="-75.5074440">
        <ele>2000.4</ele>
        <time>2021-04-17T20:42:56Z</time>
      </trkpt>
      <trkpt lat="4.9548910" lon="-75.5074550">
        <ele>2000.6</ele>
        <time>2021-04-17T20:42:57Z</time>
      </trkpt>
      <trkpt lat="4.9549240" lon="-75.5074650">
        <ele>2000.8</ele>
        <time>2021-04-17T20:42:58Z</time>
      </trkpt>
      <trkpt lat="4.9549560" lon="-75.5074760">
        <ele>2000.9</ele>
        <time>2021-04-17T20:42:59Z</time>
      </trkpt>
      <trkpt lat="4.9549890" lon="-75.5074830">
        <ele>2001.0</ele>
        <time>2021-04-17T20:43:00Z</time>
      </trkpt>
      <trkpt lat="4.9550240" lon="-75.5074890">
        <ele>2001.2</ele>
        <time>2021-04-17T20:43:01Z</time>
      </trkpt>
      <trkpt lat="4.9550590" lon="-75.5074940">
        <ele>2001.3</ele>
        <time>2021-04-17T20:43:02Z</time>
      </trkpt>
      <trkpt lat="4.9550940" lon="-75.5074970">
        <ele>2001.4</ele>
        <time>2021-04-17T20:43:03Z</time>
      </trkpt>
      <trkpt lat="4.9551310" lon="-75.5075010">
        <ele>2001.5</ele>
        <time>2021-04-17T20:43:04Z</time>
      </trkpt>
      <trkpt lat="4.9551680" lon="-75.5075030">
        <ele>2001.6</ele>
        <time>2021-04-17T20:43:05Z</time>
      </trkpt>
      <trkpt lat="4.9552060" lon="-75.5075040">
        <ele>2001.8</ele>
        <time>2021-04-17T20:43:06Z</time>
      </trkpt>
      <trkpt lat="4.9552450" lon="-75.5075060">
        <ele>2001.9</ele>
        <time>2021-04-17T20:43:07Z</time>
      </trkpt>
      <trkpt lat="4.9552820" lon="-75.5075130">
        <ele>2002.1</ele>
        <time>2021-04-17T20:43:08Z</time>
      </trkpt>
      <trkpt lat="4.9553180" lon="-75.5075230">
        <ele>2002.3</ele>
        <time>2021-04-17T20:43:09Z</time>
      </trkpt>
      <trkpt lat="4.9553520" lon="-75.5075370">
        <ele>2002.5</ele>
        <time>2021-04-17T20:43:10Z</time>
      </trkpt>
      <trkpt lat="4.9553800" lon="-75.5075530">
        <ele>2002.7</ele>
        <time>2021-04-17T20:43:11Z</time>
      </trkpt>
      <trkpt lat="4.9554020" lon="-75.5075790">
        <ele>2003.0</ele>
        <time>2021-04-17T20:43:12Z</time>
      </trkpt>
      <trkpt lat="4.9554180" lon="-75.5076090">
        <ele>2003.2</ele>
        <time>2021-04-17T20:43:13Z</time>
      </trkpt>
      <trkpt lat="4.9554260" lon="-75.5076390">
        <ele>2003.5</ele>
        <time>2021-04-17T20:43:14Z</time>
      </trkpt>
      <trkpt lat="4.9554330" lon="-75.5076670">
        <ele>2003.7</ele>
        <time>2021-04-17T20:43:15Z</time>
      </trkpt>
      <trkpt lat="4.9554400" lon="-75.5076940">
        <ele>2003.9</ele>
        <time>2021-04-17T20:43:16Z</time>
      </trkpt>
      <trkpt lat="4.9554470" lon="-75.5077190">
        <ele>2004.1</ele>
        <time>2021-04-17T20:43:17Z</time>
      </trkpt>
      <trkpt lat="4.9554580" lon="-75.5077380">
        <ele>2004.4</ele>
        <time>2021-04-17T20:43:18Z</time>
      </trkpt>
      <trkpt lat="4.9554730" lon="-75.5077530">
        <ele>2004.6</ele>
        <time>2021-04-17T20:43:19Z</time>
      </trkpt>
      <trkpt lat="4.9554900" lon="-75.5077640">
        <ele>2004.8</ele>
        <time>2021-04-17T20:43:20Z</time>
      </trkpt>
      <trkpt lat="4.9555100" lon="-75.5077680">
        <ele>2005.1</ele>
        <time>2021-04-17T20:43:21Z</time>
      </trkpt>
      <trkpt lat="4.9555300" lon="-75.5077640">
        <ele>2005.4</ele>
        <time>2021-04-17T20:43:22Z</time>
      </trkpt>
      <trkpt lat="4.9555490" lon="-75.5077540">
        <ele>2005.7</ele>
        <time>2021-04-17T20:43:23Z</time>
      </trkpt>
      <trkpt lat="4.9555650" lon="-75.5077430">
        <ele>2006.0</ele>
        <time>2021-04-17T20:43:24Z</time>
      </trkpt>
      <trkpt lat="4.9555800" lon="-75.5077310">
        <ele>2006.2</ele>
        <time>2021-04-17T20:43:25Z</time>
      </trkpt>
      <trkpt lat="4.9555890" lon="-75.5077160">
        <ele>2006.5</ele>
        <time>2021-04-17T20:43:26Z</time>
      </trkpt>
      <trkpt lat="4.9555960" lon="-75.5076980">
        <ele>2006.9</ele>
        <time>2021-04-17T20:43:27Z</time>
      </trkpt>
      <trkpt lat="4.9556040" lon="-75.5076800">
        <ele>2007.2</ele>
        <time>2021-04-17T20:43:28Z</time>
      </trkpt>
      <trkpt lat="4.9556080" lon="-75.5076570">
        <ele>2007.7</ele>
        <time>2021-04-17T20:43:29Z</time>
      </trkpt>
      <trkpt lat="4.9556090" lon="-75.5076380">
        <ele>2008.1</ele>
        <time>2021-04-17T20:43:30Z</time>
      </trkpt>
      <trkpt lat="4.9556140" lon="-75.5076200">
        <ele>2008.5</ele>
        <time>2021-04-17T20:43:31Z</time>
      </trkpt>
      <trkpt lat="4.9556140" lon="-75.5076010">
        <ele>2008.8</ele>
        <time>2021-04-17T20:43:32Z</time>
      </trkpt>
      <trkpt lat="4.9556140" lon="-75.5075820">
        <ele>2009.2</ele>
        <time>2021-04-17T20:43:33Z</time>
      </trkpt>
      <trkpt lat="4.9556120" lon="-75.5075620">
        <ele>2009.6</ele>
        <time>2021-04-17T20:43:34Z</time>
      </trkpt>
      <trkpt lat="4.9556080" lon="-75.5075430">
        <ele>2009.9</ele>
        <time>2021-04-17T20:43:35Z</time>
      </trkpt>
      <trkpt lat="4.9556020" lon="-75.5075250">
        <ele>2010.3</ele>
        <time>2021-04-17T20:43:36Z</time>
      </trkpt>
      <trkpt lat="4.9555960" lon="-75.5075080">
        <ele>2010.5</ele>
        <time>2021-04-17T20:43:37Z</time>
      </trkpt>
      <trkpt lat="4.9555890" lon="-75.5074930">
        <ele>2010.8</ele>
        <time>2021-04-17T20:43:38Z</time>
      </trkpt>
      <trkpt lat="4.9555780" lon="-75.5074780">
        <ele>2011.1</ele>
        <time>2021-04-17T20:43:39Z</time>
      </trkpt>
      <trkpt lat="4.9555660" lon="-75.5074650">
        <ele>2011.4</ele>
        <time>2021-04-17T20:43:40Z</time>
      </trkpt>
      <trkpt lat="4.9555510" lon="-75.5074500">
        <ele>2011.7</ele>
        <time>2021-04-17T20:43:41Z</time>
      </trkpt>
      <trkpt lat="4.9555370" lon="-75.5074370">
        <ele>2012.0</ele>
        <time>2021-04-17T20:43:42Z</time>
      </trkpt>
      <trkpt lat="4.9555220" lon="-75.5074250">
        <ele>2012.3</ele>
        <time>2021-04-17T20:43:43Z</time>
      </trkpt>
      <trkpt lat="4.9555080" lon="-75.5074100">
        <ele>2012.6</ele>
        <time>2021-04-17T20:43:44Z</time>
      </trkpt>
      <trkpt lat="4.9554940" lon="-75.5073970">
        <ele>2012.9</ele>
        <time>2021-04-17T20:43:45Z</time>
      </trkpt>
      <trkpt lat="4.9554800" lon="-75.5073890">
        <ele>2013.1</ele>
        <time>2021-04-17T20:43:46Z</time>
      </trkpt>
      <trkpt lat="4.9554650" lon="-75.5073820">
        <ele>2013.3</ele>
        <time>2021-04-17T20:43:47Z</time>
      </trkpt>
      <trkpt lat="4.9554480" lon="-75.5073750">
        <ele>2013.6</ele>
        <time>2021-04-17T20:43:48Z</time>
      </trkpt>
      <trkpt lat="4.9554320" lon="-75.5073660">
        <ele>2013.8</ele>
        <time>2021-04-17T20:43:49Z</time>
      </trkpt>
      <trkpt lat="4.9554140" lon="-75.5073590">
        <ele>2014.0</ele>
        <time>2021-04-17T20:43:50Z</time>
      </trkpt>
      <trkpt lat="4.9553960" lon="-75.5073510">
        <ele>2014.2</ele>
        <time>2021-04-17T20:43:51Z</time>
      </trkpt>
      <trkpt lat="4.9553780" lon="-75.5073420">
        <ele>2014.5</ele>
        <time>2021-04-17T20:43:52Z</time>
      </trkpt>
      <trkpt lat="4.9553510" lon="-75.5073210">
        <ele>2014.8</ele>
        <time>2021-04-17T20:43:53Z</time>
      </trkpt>
      <trkpt lat="4.9553290" lon="-75.5073030">
        <ele>2015.2</ele>
        <time>2021-04-17T20:43:54Z</time>
      </trkpt>
      <trkpt lat="4.9553100" lon="-75.5072840">
        <ele>2015.5</ele>
        <time>2021-04-17T20:43:55Z</time>
      </trkpt>
      <trkpt lat="4.9552870" lon="-75.5072700">
        <ele>2015.8</ele>
        <time>2021-04-17T20:43:56Z</time>
      </trkpt>
      <trkpt lat="4.9552670" lon="-75.5072600">
        <ele>2016.1</ele>
        <time>2021-04-17T20:43:57Z</time>
      </trkpt>
      <trkpt lat="4.9552480" lon="-75.5072460">
        <ele>2016.3</ele>
        <time>2021-04-17T20:43:58Z</time>
      </trkpt>
      <trkpt lat="4.9552250" lon="-75.5072360">
        <ele>2016.6</ele>
        <time>2021-04-17T20:43:59Z</time>
      </trkpt>
      <trkpt lat="4.9552040" lon="-75.5072230">
        <ele>2016.8</ele>
        <time>2021-04-17T20:44:00Z</time>
      </trkpt>
      <trkpt lat="4.9551820" lon="-75.5072120">
        <ele>2017.1</ele>
        <time>2021-04-17T20:44:01Z</time>
      </trkpt>
      <trkpt lat="4.9551620" lon="-75.5072040">
        <ele>2017.3</ele>
        <time>2021-04-17T20:44:02Z</time>
      </trkpt>
      <trkpt lat="4.9551390" lon="-75.5071940">
        <ele>2017.5</ele>
        <time>2021-04-17T20:44:03Z</time>
      </trkpt>
      <trkpt lat="4.9551180" lon="-75.5071830">
        <ele>2017.7</ele>
        <time>2021-04-17T20:44:04Z</time>
      </trkpt>
      <trkpt lat="4.9550970" lon="-75.5071720">
        <ele>2017.9</ele>
        <time>2021-04-17T20:44:05Z</time>
      </trkpt>
      <trkpt lat="4.9550760" lon="-75.5071590">
        <ele>2018.1</ele>
        <time>2021-04-17T20:44:06Z</time>
      </trkpt>
      <trkpt lat="4.9550560" lon="-75.5071480">
        <ele>2018.3</ele>
        <time>2021-04-17T20:44:07Z</time>
      </trkpt>
      <trkpt lat="4.9550370" lon="-75.5071350">
        <ele>2018.6</ele>
        <time>2021-04-17T20:44:08Z</time>
      </trkpt>
      <trkpt lat="4.9550180" lon="-75.5071250">
        <ele>2018.8</ele>
        <time>2021-04-17T20:44:09Z</time>
      </trkpt>
      <trkpt lat="4.9549980" lon="-75.5071160">
        <ele>2019.0</ele>
        <time>2021-04-17T20:44:10Z</time>
      </trkpt>
      <trkpt lat="4.9549790" lon="-75.5071070">
        <ele>2019.2</ele>
        <time>2021-04-17T20:44:11Z</time>
      </trkpt>
      <trkpt lat="4.9549580" lon="-75.5070960">
        <ele>2019.5</ele>
        <time>2021-04-17T20:44:12Z</time>
      </trkpt>
      <trkpt lat="4.9549400" lon="-75.5070870">
        <ele>2019.7</ele>
        <time>2021-04-17T20:44:13Z</time>
      </trkpt>
      <trkpt lat="4.9549200" lon="-75.5070780">
        <ele>2019.9</ele>
        <time>2021-04-17T20:44:14Z</time>
      </trkpt>
      <trkpt lat="4.9549020" lon="-75.5070680">
        <ele>2020.1</ele>
        <time>2021-04-17T20:44:15Z</time>
      </trkpt>
      <trkpt lat="4.9548840" lon="-75.5070550">
        <ele>2020.3</ele>
        <time>2021-04-17T20:44:16Z</time>
      </trkpt>
      <trkpt lat="4.9548690" lon="-75.5070430">
        <ele>2020.5</ele>
        <time>2021-04-17T20:44:17Z</time>
      </trkpt>
      <trkpt lat="4.9548510" lon="-75.5070290">
        <ele>2020.7</ele>
        <time>2021-04-17T20:44:18Z</time>
      </trkpt>
      <trkpt lat="4.9548360" lon="-75.5070150">
        <ele>2020.8</ele>
        <time>2021-04-17T20:44:19Z</time>
      </trkpt>
      <trkpt lat="4.9548230" lon="-75.5069970">
        <ele>2021.0</ele>
        <time>2021-04-17T20:44:20Z</time>
      </trkpt>
      <trkpt lat="4.9548090" lon="-75.5069790">
        <ele>2021.1</ele>
        <time>2021-04-17T20:44:21Z</time>
      </trkpt>
      <trkpt lat="4.9547970" lon="-75.5069620">
        <ele>2021.3</ele>
        <time>2021-04-17T20:44:22Z</time>
      </trkpt>
      <trkpt lat="4.9547860" lon="-75.5069440">
        <ele>2021.4</ele>
        <time>2021-04-17T20:44:23Z</time>
      </trkpt>
      <trkpt lat="4.9547780" lon="-75.5069280">
        <ele>2021.6</ele>
        <time>2021-04-17T20:44:24Z</time>
      </trkpt>
      <trkpt lat="4.9547730" lon="-75.5069140">
        <ele>2021.7</ele>
        <time>2021-04-17T20:44:25Z</time>
      </trkpt>
      <trkpt lat="4.9547670" lon="-75.5068960">
        <ele>2021.8</ele>
        <time>2021-04-17T20:44:26Z</time>
      </trkpt>
      <trkpt lat="4.9547600" lon="-75.5068780">
        <ele>2022.0</ele>
        <time>2021-04-17T20:44:27Z</time>
      </trkpt>
      <trkpt lat="4.9547510" lon="-75.5068610">
        <ele>2022.2</ele>
        <time>2021-04-17T20:44:28Z</time>
      </trkpt>
      <trkpt lat="4.9547420" lon="-75.5068430">
        <ele>2022.4</ele>
        <time>2021-04-17T20:44:29Z</time>
      </trkpt>
      <trkpt lat="4.9547210" lon="-75.5068260">
        <ele>2022.6</ele>
        <time>2021-04-17T20:44:30Z</time>
      </trkpt>
      <trkpt lat="4.9546990" lon="-75.5068120">
        <ele>2022.8</ele>
        <time>2021-04-17T20:44:31Z</time>
      </trkpt>
      <trkpt lat="4.9546790" lon="-75.5067920">
        <ele>2023.1</ele>
        <time>2021-04-17T20:44:32Z</time>
      </trkpt>
      <trkpt lat="4.9546600" lon="-75.5067720">
        <ele>2023.3</ele>
        <time>2021-04-17T20:44:33Z</time>
      </trkpt>
      <trkpt lat="4.9546420" lon="-75.5067570">
        <ele>2023.4</ele>
        <time>2021-04-17T20:44:34Z</time>
      </trkpt>
      <trkpt lat="4.9546210" lon="-75.5067410">
        <ele>2023.5</ele>
        <time>2021-04-17T20:44:35Z</time>
      </trkpt>
      <trkpt lat="4.9545960" lon="-75.5067220">
        <ele>2023.7</ele>
        <time>2021-04-17T20:44:36Z</time>
      </trkpt>
      <trkpt lat="4.9545670" lon="-75.5067030">
        <ele>2023.8</ele>
        <time>2021-04-17T20:44:37Z</time>
      </trkpt>
      <trkpt lat="4.9545410" lon="-75.5066850">
        <ele>2024.0</ele>
        <time>2021-04-17T20:44:38Z</time>
      </trkpt>
      <trkpt lat="4.9545160" lon="-75.5066660">
        <ele>2024.2</ele>
        <time>2021-04-17T20:44:39Z</time>
      </trkpt>
      <trkpt lat="4.9544930" lon="-75.5066470">
        <ele>2024.4</ele>
        <time>2021-04-17T20:44:40Z</time>
      </trkpt>
      <trkpt lat="4.9544600" lon="-75.5066300">
        <ele>2024.8</ele>
        <time>2021-04-17T20:44:41Z</time>
      </trkpt>
      <trkpt lat="4.9544350" lon="-75.5066100">
        <ele>2025.1</ele>
        <time>2021-04-17T20:44:42Z</time>
      </trkpt>
      <trkpt lat="4.9544120" lon="-75.5065890">
        <ele>2025.4</ele>
        <time>2021-04-17T20:44:43Z</time>
      </trkpt>
      <trkpt lat="4.9543900" lon="-75.5065680">
        <ele>2025.7</ele>
        <time>2021-04-17T20:44:44Z</time>
      </trkpt>
      <trkpt lat="4.9543700" lon="-75.5065460">
        <ele>2025.9</ele>
        <time>2021-04-17T20:44:45Z</time>
      </trkpt>
      <trkpt lat="4.9543530" lon="-75.5065270">
        <ele>2026.2</ele>
        <time>2021-04-17T20:44:46Z</time>
      </trkpt>
      <trkpt lat="4.9543330" lon="-75.5065070">
        <ele>2026.4</ele>
        <time>2021-04-17T20:44:47Z</time>
      </trkpt>
      <trkpt lat="4.9543120" lon="-75.5064870">
        <ele>2026.6</ele>
        <time>2021-04-17T20:44:48Z</time>
      </trkpt>
      <trkpt lat="4.9542890" lon="-75.5064690">
        <ele>2026.8</ele>
        <time>2021-04-17T20:44:49Z</time>
      </trkpt>
      <trkpt lat="4.9542680" lon="-75.5064460">
        <ele>2027.0</ele>
        <time>2021-04-17T20:44:50Z</time>
      </trkpt>
      <trkpt lat="4.9542470" lon="-75.5064210">
        <ele>2027.2</ele>
        <time>2021-04-17T20:44:51Z</time>
      </trkpt>
      <trkpt lat="4.9542280" lon="-75.5063910">
        <ele>2027.4</ele>
        <time>2021-04-17T20:44:52Z</time>
      </trkpt>
      <trkpt lat="4.9542090" lon="-75.5063640">
        <ele>2027.6</ele>
        <time>2021-04-17T20:44:53Z</time>
      </trkpt>
      <trkpt lat="4.9541880" lon="-75.5063390">
        <ele>2027.9</ele>
        <time>2021-04-17T20:44:54Z</time>
      </trkpt>
      <trkpt lat="4.9541670" lon="-75.5063140">
        <ele>2028.1</ele>
        <time>2021-04-17T20:44:55Z</time>
      </trkpt>
      <trkpt lat="4.9541480" lon="-75.5062880">
        <ele>2028.4</ele>
        <time>2021-04-17T20:44:56Z</time>
      </trkpt>
      <trkpt lat="4.9541280" lon="-75.5062640">
        <ele>2028.6</ele>
        <time>2021-04-17T20:44:57Z</time>
      </trkpt>
      <trkpt lat="4.9541080" lon="-75.5062440">
        <ele>2028.8</ele>
        <time>2021-04-17T20:44:58Z</time>
      </trkpt>
      <trkpt lat="4.9540890" lon="-75.5062290">
        <ele>2029.0</ele>
        <time>2021-04-17T20:44:59Z</time>
      </trkpt>
      <trkpt lat="4.9540730" lon="-75.5062110">
        <ele>2029.2</ele>
        <time>2021-04-17T20:45:00Z</time>
      </trkpt>
      <trkpt lat="4.9540550" lon="-75.5061890">
        <ele>2029.4</ele>
        <time>2021-04-17T20:45:01Z</time>
      </trkpt>
      <trkpt lat="4.9540380" lon="-75.5061630">
        <ele>2029.6</ele>
        <time>2021-04-17T20:45:02Z</time>
      </trkpt>
      <trkpt lat="4.9540200" lon="-75.5061380">
        <ele>2029.8</ele>
        <time>2021-04-17T20:45:03Z</time>
      </trkpt>
      <trkpt lat="4.9539990" lon="-75.5061150">
        <ele>2029.9</ele>
        <time>2021-04-17T20:45:04Z</time>
      </trkpt>
      <trkpt lat="4.9539760" lon="-75.5060940">
        <ele>2030.1</ele>
        <time>2021-04-17T20:45:05Z</time>
      </trkpt>
      <trkpt lat="4.9539540" lon="-75.5060740">
        <ele>2030.3</ele>
        <time>2021-04-17T20:45:06Z</time>
      </trkpt>
      <trkpt lat="4.9539340" lon="-75.5060510">
        <ele>2030.4</ele>
        <time>2021-04-17T20:45:07Z</time>
      </trkpt>
      <trkpt lat="4.9539160" lon="-75.5060270">
        <ele>2030.6</ele>
        <time>2021-04-17T20:45:08Z</time>
      </trkpt>
      <trkpt lat="4.9538990" lon="-75.5060010">
        <ele>2030.8</ele>
        <time>2021-04-17T20:45:09Z</time>
      </trkpt>
      <trkpt lat="4.9538870" lon="-75.5059750">
        <ele>2030.9</ele>
        <time>2021-04-17T20:45:10Z</time>
      </trkpt>
      <trkpt lat="4.9538740" lon="-75.5059500">
        <ele>2031.1</ele>
        <time>2021-04-17T20:45:11Z</time>
      </trkpt>
      <trkpt lat="4.9538640" lon="-75.5059230">
        <ele>2031.2</ele>
        <time>2021-04-17T20:45:12Z</time>
      </trkpt>
      <trkpt lat="4.9538550" lon="-75.5058970">
        <ele>2031.4</ele>
        <time>2021-04-17T20:45:13Z</time>
      </trkpt>
      <trkpt lat="4.9538430" lon="-75.5058660">
        <ele>2031.5</ele>
        <time>2021-04-17T20:45:14Z</time>
      </trkpt>
      <trkpt lat="4.9538370" lon="-75.5058370">
        <ele>2031.7</ele>
        <time>2021-04-17T20:45:15Z</time>
      </trkpt>
      <trkpt lat="4.9538290" lon="-75.5058070">
        <ele>2031.9</ele>
        <time>2021-04-17T20:45:16Z</time>
      </trkpt>
      <trkpt lat="4.9538240" lon="-75.5057750">
        <ele>2032.1</ele>
        <time>2021-04-17T20:45:17Z</time>
      </trkpt>
      <trkpt lat="4.9538150" lon="-75.5057420">
        <ele>2032.4</ele>
        <time>2021-04-17T20:45:18Z</time>
      </trkpt>
      <trkpt lat="4.9538090" lon="-75.5057090">
        <ele>2032.6</ele>
        <time>2021-04-17T20:45:19Z</time>
      </trkpt>
      <trkpt lat="4.9538030" lon="-75.5056770">
        <ele>2032.8</ele>
        <time>2021-04-17T20:45:20Z</time>
      </trkpt>
      <trkpt lat="4.9537950" lon="-75.5056490">
        <ele>2033.0</ele>
        <time>2021-04-17T20:45:21Z</time>
      </trkpt>
      <trkpt lat="4.9537860" lon="-75.5056190">
        <ele>2033.1</ele>
        <time>2021-04-17T20:45:22Z</time>
      </trkpt>
      <trkpt lat="4.9537790" lon="-75.5055900">
        <ele>2033.3</ele>
        <time>2021-04-17T20:45:23Z</time>
      </trkpt>
      <trkpt lat="4.9537720" lon="-75.5055600">
        <ele>2033.5</ele>
        <time>2021-04-17T20:45:24Z</time>
      </trkpt>
      <trkpt lat="4.9537660" lon="-75.5055280">
        <ele>2033.7</ele>
        <time>2021-04-17T20:45:25Z</time>
      </trkpt>
      <trkpt lat="4.9537590" lon="-75.5054990">
        <ele>2033.8</ele>
        <time>2021-04-17T20:45:26Z</time>
      </trkpt>
      <trkpt lat="4.9537500" lon="-75.5054680">
        <ele>2034.0</ele>
        <time>2021-04-17T20:45:27Z</time>
      </trkpt>
      <trkpt lat="4.9537400" lon="-75.5054400">
        <ele>2034.2</ele>
        <time>2021-04-17T20:45:28Z</time>
      </trkpt>
      <trkpt lat="4.9537300" lon="-75.5054110">
        <ele>2034.3</ele>
        <time>2021-04-17T20:45:29Z</time>
      </trkpt>
      <trkpt lat="4.9537210" lon="-75.5053800">
        <ele>2034.5</ele>
        <time>2021-04-17T20:45:30Z</time>
      </trkpt>
      <trkpt lat="4.9537110" lon="-75.5053520">
        <ele>2034.7</ele>
        <time>2021-04-17T20:45:31Z</time>
      </trkpt>
      <trkpt lat="4.9537010" lon="-75.5053240">
        <ele>2034.9</ele>
        <time>2021-04-17T20:45:32Z</time>
      </trkpt>
      <trkpt lat="4.9536940" lon="-75.5052990">
        <ele>2035.1</ele>
        <time>2021-04-17T20:45:33Z</time>
      </trkpt>
      <trkpt lat="4.9536880" lon="-75.5052750">
        <ele>2035.2</ele>
        <time>2021-04-17T20:45:34Z</time>
      </trkpt>
      <trkpt lat="4.9536810" lon="-75.5052530">
        <ele>2035.4</ele>
        <time>2021-04-17T20:45:35Z</time>
      </trkpt>
      <trkpt lat="4.9536760" lon="-75.5052280">
        <ele>2035.6</ele>
        <time>2021-04-17T20:45:36Z</time>
      </trkpt>
      <trkpt lat="4.9536720" lon="-75.5052030">
        <ele>2035.7</ele>
        <time>2021-04-17T20:45:37Z</time>
      </trkpt>
      <trkpt lat="4.9536680" lon="-75.5051790">
        <ele>2035.9</ele>
        <time>2021-04-17T20:45:38Z</time>
      </trkpt>
      <trkpt lat="4.9536620" lon="-75.5051530">
        <ele>2036.1</ele>
        <time>2021-04-17T20:45:39Z</time>
      </trkpt>
      <trkpt lat="4.9536550" lon="-75.5051270">
        <ele>2036.3</ele>
        <time>2021-04-17T20:45:40Z</time>
      </trkpt>
      <trkpt lat="4.9536500" lon="-75.5051030">
        <ele>2036.5</ele>
        <time>2021-04-17T20:45:41Z</time>
      </trkpt>
      <trkpt lat="4.9536450" lon="-75.5050780">
        <ele>2036.8</ele>
        <time>2021-04-17T20:45:42Z</time>
      </trkpt>
      <trkpt lat="4.9536400" lon="-75.5050530">
        <ele>2037.0</ele>
        <time>2021-04-17T20:45:43Z</time>
      </trkpt>
      <trkpt lat="4.9536340" lon="-75.5050290">
        <ele>2037.2</ele>
        <time>2021-04-17T20:45:44Z</time>
      </trkpt>
      <trkpt lat="4.9536270" lon="-75.5050060">
        <ele>2037.4</ele>
        <time>2021-04-17T20:45:45Z</time>
      </trkpt>
      <trkpt lat="4.9536200" lon="-75.5049840">
        <ele>2037.6</ele>
        <time>2021-04-17T20:45:46Z</time>
      </trkpt>
      <trkpt lat="4.9536120" lon="-75.5049630">
        <ele>2037.8</ele>
        <time>2021-04-17T20:45:47Z</time>
      </trkpt>
      <trkpt lat="4.9536050" lon="-75.5049410">
        <ele>2038.1</ele>
        <time>2021-04-17T20:45:48Z</time>
      </trkpt>
      <trkpt lat="4.9535990" lon="-75.5049220">
        <ele>2038.2</ele>
        <time>2021-04-17T20:45:49Z</time>
      </trkpt>
      <trkpt lat="4.9535910" lon="-75.5049020">
        <ele>2038.4</ele>
        <time>2021-04-17T20:45:50Z</time>
      </trkpt>
      <trkpt lat="4.9535850" lon="-75.5048790">
        <ele>2038.6</ele>
        <time>2021-04-17T20:45:51Z</time>
      </trkpt>
      <trkpt lat="4.9535790" lon="-75.5048630">
        <ele>2038.8</ele>
        <time>2021-04-17T20:45:52Z</time>
      </trkpt>
      <trkpt lat="4.9535710" lon="-75.5048450">
        <ele>2039.0</ele>
        <time>2021-04-17T20:45:53Z</time>
      </trkpt>
      <trkpt lat="4.9535600" lon="-75.5048240">
        <ele>2039.3</ele>
        <time>2021-04-17T20:45:54Z</time>
      </trkpt>
      <trkpt lat="4.9535530" lon="-75.5048040">
        <ele>2039.6</ele>
        <time>2021-04-17T20:45:55Z</time>
      </trkpt>
      <trkpt lat="4.9535480" lon="-75.5047850">
        <ele>2039.8</ele>
        <time>2021-04-17T20:45:56Z</time>
      </trkpt>
      <trkpt lat="4.9535390" lon="-75.5047640">
        <ele>2040.1</ele>
        <time>2021-04-17T20:45:57Z</time>
      </trkpt>
      <trkpt lat="4.9535300" lon="-75.5047430">
        <ele>2040.4</ele>
        <time>2021-04-17T20:45:58Z</time>
      </trkpt>
      <trkpt lat="4.9535220" lon="-75.5047180">
        <ele>2040.7</ele>
        <time>2021-04-17T20:45:59Z</time>
      </trkpt>
      <trkpt lat="4.9535190" lon="-75.5046950">
        <ele>2041.0</ele>
        <time>2021-04-17T20:46:00Z</time>
      </trkpt>
      <trkpt lat="4.9535150" lon="-75.5046730">
        <ele>2041.2</ele>
        <time>2021-04-17T20:46:01Z</time>
      </trkpt>
      <trkpt lat="4.9535110" lon="-75.5046480">
        <ele>2041.5</ele>
        <time>2021-04-17T20:46:02Z</time>
      </trkpt>
      <trkpt lat="4.9535060" lon="-75.5046240">
        <ele>2041.7</ele>
        <time>2021-04-17T20:46:03Z</time>
      </trkpt>
      <trkpt lat="4.9535020" lon="-75.5046030">
        <ele>2042.0</ele>
        <time>2021-04-17T20:46:04Z</time>
      </trkpt>
      <trkpt lat="4.9534950" lon="-75.5045840">
        <ele>2042.2</ele>
        <time>2021-04-17T20:46:05Z</time>
      </trkpt>
      <trkpt lat="4.9534850" lon="-75.5045590">
        <ele>2042.5</ele>
        <time>2021-04-17T20:46:06Z</time>
      </trkpt>
      <trkpt lat="4.9534760" lon="-75.5045420">
        <ele>2042.7</ele>
        <time>2021-04-17T20:46:07Z</time>
      </trkpt>
      <trkpt lat="4.9534720" lon="-75.5045240">
        <ele>2042.9</ele>
        <time>2021-04-17T20:46:08Z</time>
      </trkpt>
      <trkpt lat="4.9534720" lon="-75.5045090">
        <ele>2043.1</ele>
        <time>2021-04-17T20:46:09Z</time>
      </trkpt>
      <trkpt lat="4.9534760" lon="-75.5044940">
        <ele>2043.3</ele>
        <time>2021-04-17T20:46:10Z</time>
      </trkpt>
      <trkpt lat="4.9534720" lon="-75.5044730">
        <ele>2043.5</ele>
        <time>2021-04-17T20:46:11Z</time>
      </trkpt>
      <trkpt lat="4.9534650" lon="-75.5044540">
        <ele>2043.8</ele>
        <time>2021-04-17T20:46:12Z</time>
      </trkpt>
      <trkpt lat="4.9534560" lon="-75.5044360">
        <ele>2044.0</ele>
        <time>2021-04-17T20:46:13Z</time>
      </trkpt>
      <trkpt lat="4.9534450" lon="-75.5044150">
        <ele>2044.3</ele>
        <time>2021-04-17T20:46:14Z</time>
      </trkpt>
      <trkpt lat="4.9534310" lon="-75.5043960">
        <ele>2044.6</ele>
        <time>2021-04-17T20:46:15Z</time>
      </trkpt>
      <trkpt lat="4.9534160" lon="-75.5043770">
        <ele>2044.9</ele>
        <time>2021-04-17T20:46:16Z</time>
      </trkpt>
      <trkpt lat="4.9534020" lon="-75.5043560">
        <ele>2045.2</ele>
        <time>2021-04-17T20:46:17Z</time>
      </trkpt>
      <trkpt lat="4.9533870" lon="-75.5043360">
        <ele>2045.5</ele>
        <time>2021-04-17T20:46:18Z</time>
      </trkpt>
      <trkpt lat="4.9533750" lon="-75.5043170">
        <ele>2045.7</ele>
        <time>2021-04-17T20:46:19Z</time>
      </trkpt>
      <trkpt lat="4.9533630" lon="-75.5042990">
        <ele>2046.0</ele>
        <time>2021-04-17T20:46:20Z</time>
      </trkpt>
      <trkpt lat="4.9533480" lon="-75.5042820">
        <ele>2046.2</ele>
        <time>2021-04-17T20:46:21Z</time>
      </trkpt>
      <trkpt lat="4.9533320" lon="-75.5042630">
        <ele>2046.4</ele>
        <time>2021-04-17T20:46:22Z</time>
      </trkpt>
      <trkpt lat="4.9533150" lon="-75.5042450">
        <ele>2046.6</ele>
        <time>2021-04-17T20:46:23Z</time>
      </trkpt>
      <trkpt lat="4.9532950" lon="-75.5042250">
        <ele>2046.9</ele>
        <time>2021-04-17T20:46:24Z</time>
      </trkpt>
      <trkpt lat="4.9532730" lon="-75.5042080">
        <ele>2047.1</ele>
        <time>2021-04-17T20:46:25Z</time>
      </trkpt>
      <trkpt lat="4.9532520" lon="-75.5041920">
        <ele>2047.4</ele>
        <time>2021-04-17T20:46:26Z</time>
      </trkpt>
      <trkpt lat="4.9532320" lon="-75.5041780">
        <ele>2047.5</ele>
        <time>2021-04-17T20:46:27Z</time>
      </trkpt>
      <trkpt lat="4.9532100" lon="-75.5041660">
        <ele>2047.7</ele>
        <time>2021-04-17T20:46:28Z</time>
      </trkpt>
      <trkpt lat="4.9531870" lon="-75.5041550">
        <ele>2047.9</ele>
        <time>2021-04-17T20:46:29Z</time>
      </trkpt>
      <trkpt lat="4.9531630" lon="-75.5041420">
        <ele>2048.0</ele>
        <time>2021-04-17T20:46:30Z</time>
      </trkpt>
      <trkpt lat="4.9531390" lon="-75.5041280">
        <ele>2048.2</ele>
        <time>2021-04-17T20:46:31Z</time>
      </trkpt>
      <trkpt lat="4.9531160" lon="-75.5041110">
        <ele>2048.4</ele>
        <time>2021-04-17T20:46:32Z</time>
      </trkpt>
      <trkpt lat="4.9530930" lon="-75.5040990">
        <ele>2048.5</ele>
        <time>2021-04-17T20:46:33Z</time>
      </trkpt>
      <trkpt lat="4.9530660" lon="-75.5040890">
        <ele>2048.8</ele>
        <time>2021-04-17T20:46:34Z</time>
      </trkpt>
      <trkpt lat="4.9530420" lon="-75.5040790">
        <ele>2049.0</ele>
        <time>2021-04-17T20:46:35Z</time>
      </trkpt>
      <trkpt lat="4.9530210" lon="-75.5040660">
        <ele>2049.2</ele>
        <time>2021-04-17T20:46:36Z</time>
      </trkpt>
      <trkpt lat="4.9529990" lon="-75.5040490">
        <ele>2049.4</ele>
        <time>2021-04-17T20:46:37Z</time>
      </trkpt>
      <trkpt lat="4.9529780" lon="-75.5040320">
        <ele>2049.7</ele>
        <time>2021-04-17T20:46:38Z</time>
      </trkpt>
      <trkpt lat="4.9529590" lon="-75.5040110">
        <ele>2049.9</ele>
        <time>2021-04-17T20:46:39Z</time>
      </trkpt>
      <trkpt lat="4.9529430" lon="-75.5039870">
        <ele>2050.1</ele>
        <time>2021-04-17T20:46:40Z</time>
      </trkpt>
      <trkpt lat="4.9529350" lon="-75.5039570">
        <ele>2050.3</ele>
        <time>2021-04-17T20:46:41Z</time>
      </trkpt>
      <trkpt lat="4.9529260" lon="-75.5039270">
        <ele>2050.5</ele>
        <time>2021-04-17T20:46:42Z</time>
      </trkpt>
      <trkpt lat="4.9529220" lon="-75.5038940">
        <ele>2050.7</ele>
        <time>2021-04-17T20:46:43Z</time>
      </trkpt>
      <trkpt lat="4.9529220" lon="-75.5038600">
        <ele>2050.9</ele>
        <time>2021-04-17T20:46:44Z</time>
      </trkpt>
      <trkpt lat="4.9529240" lon="-75.5038280">
        <ele>2051.1</ele>
        <time>2021-04-17T20:46:45Z</time>
      </trkpt>
      <trkpt lat="4.9529300" lon="-75.5037930">
        <ele>2051.2</ele>
        <time>2021-04-17T20:46:46Z</time>
      </trkpt>
      <trkpt lat="4.9529380" lon="-75.5037580">
        <ele>2051.3</ele>
        <time>2021-04-17T20:46:47Z</time>
      </trkpt>
      <trkpt lat="4.9529530" lon="-75.5037250">
        <ele>2051.4</ele>
        <time>2021-04-17T20:46:48Z</time>
      </trkpt>
      <trkpt lat="4.9529720" lon="-75.5036930">
        <ele>2051.6</ele>
        <time>2021-04-17T20:46:49Z</time>
      </trkpt>
      <trkpt lat="4.9529970" lon="-75.5036660">
        <ele>2051.8</ele>
        <time>2021-04-17T20:46:50Z</time>
      </trkpt>
      <trkpt lat="4.9530290" lon="-75.5036450">
        <ele>2051.9</ele>
        <time>2021-04-17T20:46:51Z</time>
      </trkpt>
      <trkpt lat="4.9530640" lon="-75.5036280">
        <ele>2052.1</ele>
        <time>2021-04-17T20:46:52Z</time>
      </trkpt>
      <trkpt lat="4.9531000" lon="-75.5036120">
        <ele>2052.3</ele>
        <time>2021-04-17T20:46:53Z</time>
      </trkpt>
      <trkpt lat="4.9531400" lon="-75.5036020">
        <ele>2052.5</ele>
        <time>2021-04-17T20:46:54Z</time>
      </trkpt>
      <trkpt lat="4.9531780" lon="-75.5035950">
        <ele>2052.7</ele>
        <time>2021-04-17T20:46:55Z</time>
      </trkpt>
      <trkpt lat="4.9532160" lon="-75.5035890">
        <ele>2052.9</ele>
        <time>2021-04-17T20:46:56Z</time>
      </trkpt>
      <trkpt lat="4.9532550" lon="-75.5035850">
        <ele>2053.1</ele>
        <time>2021-04-17T20:46:57Z</time>
      </trkpt>
      <trkpt lat="4.9532920" lon="-75.5035810">
        <ele>2053.3</ele>
        <time>2021-04-17T20:46:58Z</time>
      </trkpt>
      <trkpt lat="4.9533300" lon="-75.5035730">
        <ele>2053.5</ele>
        <time>2021-04-17T20:46:59Z</time>
      </trkpt>
      <trkpt lat="4.9533670" lon="-75.5035680">
        <ele>2053.8</ele>
        <time>2021-04-17T20:47:00Z</time>
      </trkpt>
      <trkpt lat="4.9534030" lon="-75.5035620">
        <ele>2054.1</ele>
        <time>2021-04-17T20:47:01Z</time>
      </trkpt>
      <trkpt lat="4.9534380" lon="-75.5035570">
        <ele>2054.4</ele>
        <time>2021-04-17T20:47:02Z</time>
      </trkpt>
      <trkpt lat="4.9534720" lon="-75.5035500">
        <ele>2054.7</ele>
        <time>2021-04-17T20:47:03Z</time>
      </trkpt>
      <trkpt lat="4.9535040" lon="-75.5035420">
        <ele>2055.1</ele>
        <time>2021-04-17T20:47:04Z</time>
      </trkpt>
      <trkpt lat="4.9535340" lon="-75.5035370">
        <ele>2055.4</ele>
        <time>2021-04-17T20:47:05Z</time>
      </trkpt>
      <trkpt lat="4.9535610" lon="-75.5035320">
        <ele>2055.7</ele>
        <time>2021-04-17T20:47:06Z</time>
      </trkpt>
      <trkpt lat="4.9535870" lon="-75.5035280">
        <ele>2055.9</ele>
        <time>2021-04-17T20:47:07Z</time>
      </trkpt>
      <trkpt lat="4.9536090" lon="-75.5035300">
        <ele>2056.1</ele>
        <time>2021-04-17T20:47:08Z</time>
      </trkpt>
      <trkpt lat="4.9536280" lon="-75.5035340">
        <ele>2056.3</ele>
        <time>2021-04-17T20:47:09Z</time>
      </trkpt>
      <trkpt lat="4.9536490" lon="-75.5035400">
        <ele>2056.5</ele>
        <time>2021-04-17T20:47:10Z</time>
      </trkpt>
      <trkpt lat="4.9536700" lon="-75.5035500">
        <ele>2056.7</ele>
        <time>2021-04-17T20:47:11Z</time>
      </trkpt>
      <trkpt lat="4.9536900" lon="-75.5035640">
        <ele>2057.0</ele>
        <time>2021-04-17T20:47:12Z</time>
      </trkpt>
      <trkpt lat="4.9537120" lon="-75.5035770">
        <ele>2057.2</ele>
        <time>2021-04-17T20:47:13Z</time>
      </trkpt>
      <trkpt lat="4.9537330" lon="-75.5035870">
        <ele>2057.5</ele>
        <time>2021-04-17T20:47:14Z</time>
      </trkpt>
      <trkpt lat="4.9537550" lon="-75.5036020">
        <ele>2057.7</ele>
        <time>2021-04-17T20:47:15Z</time>
      </trkpt>
      <trkpt lat="4.9537770" lon="-75.5036170">
        <ele>2058.0</ele>
        <time>2021-04-17T20:47:16Z</time>
      </trkpt>
      <trkpt lat="4.9537980" lon="-75.5036300">
        <ele>2058.2</ele>
        <time>2021-04-17T20:47:17Z</time>
      </trkpt>
      <trkpt lat="4.9538180" lon="-75.5036360">
        <ele>2058.4</ele>
        <time>2021-04-17T20:47:18Z</time>
      </trkpt>
      <trkpt lat="4.9538420" lon="-75.5036330">
        <ele>2058.6</ele>
        <time>2021-04-17T20:47:19Z</time>
      </trkpt>
      <trkpt lat="4.9538700" lon="-75.5036310">
        <ele>2058.8</ele>
        <time>2021-04-17T20:47:20Z</time>
      </trkpt>
      <trkpt lat="4.9539030" lon="-75.5036330">
        <ele>2059.0</ele>
        <time>2021-04-17T20:47:21Z</time>
      </trkpt>
      <trkpt lat="4.9539320" lon="-75.5036390">
        <ele>2059.3</ele>
        <time>2021-04-17T20:47:22Z</time>
      </trkpt>
      <trkpt lat="4.9539630" lon="-75.5036410">
        <ele>2059.5</ele>
        <time>2021-04-17T20:47:23Z</time>
      </trkpt>
      <trkpt lat="4.9539920" lon="-75.5036440">
        <ele>2059.8</ele>
        <time>2021-04-17T20:47:24Z</time>
      </trkpt>
      <trkpt lat="4.9540200" lon="-75.5036420">
        <ele>2060.1</ele>
        <time>2021-04-17T20:47:25Z</time>
      </trkpt>
      <trkpt lat="4.9540460" lon="-75.5036370">
        <ele>2060.3</ele>
        <time>2021-04-17T20:47:26Z</time>
      </trkpt>
      <trkpt lat="4.9540700" lon="-75.5036370">
        <ele>2060.6</ele>
        <time>2021-04-17T20:47:27Z</time>
      </trkpt>
      <trkpt lat="4.9540920" lon="-75.5036370">
        <ele>2060.9</ele>
        <time>2021-04-17T20:47:28Z</time>
      </trkpt>
      <trkpt lat="4.9541120" lon="-75.5036270">
        <ele>2061.1</ele>
        <time>2021-04-17T20:47:29Z</time>
      </trkpt>
      <trkpt lat="4.9541310" lon="-75.5036160">
        <ele>2061.4</ele>
        <time>2021-04-17T20:47:30Z</time>
      </trkpt>
      <trkpt lat="4.9541470" lon="-75.5036050">
        <ele>2061.7</ele>
        <time>2021-04-17T20:47:31Z</time>
      </trkpt>
      <trkpt lat="4.9541650" lon="-75.5035920">
        <ele>2062.0</ele>
        <time>2021-04-17T20:47:32Z</time>
      </trkpt>
      <trkpt lat="4.9541810" lon="-75.5035750">
        <ele>2062.3</ele>
        <time>2021-04-17T20:47:33Z</time>
      </trkpt>
      <trkpt lat="4.9541960" lon="-75.5035590">
        <ele>2062.6</ele>
        <time>2021-04-17T20:47:34Z</time>
      </trkpt>
      <trkpt lat="4.9542070" lon="-75.5035430">
        <ele>2062.9</ele>
        <time>2021-04-17T20:47:35Z</time>
      </trkpt>
      <trkpt lat="4.9542230" lon="-75.5035290">
        <ele>2063.2</ele>
        <time>2021-04-17T20:47:36Z</time>
      </trkpt>
      <trkpt lat="4.9542440" lon="-75.5035150">
        <ele>2063.5</ele>
        <time>2021-04-17T20:47:37Z</time>
      </trkpt>
      <trkpt lat="4.9542620" lon="-75.5035020">
        <ele>2063.8</ele>
        <time>2021-04-17T20:47:38Z</time>
      </trkpt>
      <trkpt lat="4.9542800" lon="-75.5034860">
        <ele>2064.1</ele>
        <time>2021-04-17T20:47:39Z</time>
      </trkpt>
      <trkpt lat="4.9543000" lon="-75.5034720">
        <ele>2064.4</ele>
        <time>2021-04-17T20:47:40Z</time>
      </trkpt>
      <trkpt lat="4.9543210" lon="-75.5034570">
        <ele>2064.6</ele>
        <time>2021-04-17T20:47:41Z</time>
      </trkpt>
      <trkpt lat="4.9543450" lon="-75.5034420">
        <ele>2064.9</ele>
        <time>2021-04-17T20:47:42Z</time>
      </trkpt>
      <trkpt lat="4.9543700" lon="-75.5034280">
        <ele>2065.2</ele>
        <time>2021-04-17T20:47:43Z</time>
      </trkpt>
      <trkpt lat="4.9543960" lon="-75.5034120">
        <ele>2065.5</ele>
        <time>2021-04-17T20:47:44Z</time>
      </trkpt>
      <trkpt lat="4.9544210" lon="-75.5033970">
        <ele>2065.8</ele>
        <time>2021-04-17T20:47:45Z</time>
      </trkpt>
      <trkpt lat="4.9544460" lon="-75.5033840">
        <ele>2066.1</ele>
        <time>2021-04-17T20:47:46Z</time>
      </trkpt>
      <trkpt lat="4.9544740" lon="-75.5033710">
        <ele>2066.5</ele>
        <time>2021-04-17T20:47:47Z</time>
      </trkpt>
      <trkpt lat="4.9545010" lon="-75.5033580">
        <ele>2066.8</ele>
        <time>2021-04-17T20:47:48Z</time>
      </trkpt>
      <trkpt lat="4.9545340" lon="-75.5033520">
        <ele>2067.2</ele>
        <time>2021-04-17T20:47:49Z</time>
      </trkpt>
      <trkpt lat="4.9545660" lon="-75.5033470">
        <ele>2067.5</ele>
        <time>2021-04-17T20:47:50Z</time>
      </trkpt>
      <trkpt lat="4.9545970" lon="-75.5033390">
        <ele>2067.9</ele>
        <time>2021-04-17T20:47:51Z</time>
      </trkpt>
      <trkpt lat="4.9546250" lon="-75.5033310">
        <ele>2068.2</ele>
        <time>2021-04-17T20:47:52Z</time>
      </trkpt>
      <trkpt lat="4.9546530" lon="-75.5033260">
        <ele>2068.5</ele>
        <time>2021-04-17T20:47:53Z</time>
      </trkpt>
      <trkpt lat="4.9546800" lon="-75.5033250">
        <ele>2068.7</ele>
        <time>2021-04-17T20:47:54Z</time>
      </trkpt>
      <trkpt lat="4.9547060" lon="-75.5033220">
        <ele>2069.0</ele>
        <time>2021-04-17T20:47:55Z</time>
      </trkpt>
      <trkpt lat="4.9547300" lon="-75.5033210">
        <ele>2069.0</ele>
        <time>2021-04-17T20:47:56Z</time>
      </trkpt>
      <trkpt lat="4.9547530" lon="-75.5033230">
        <ele>2069.2</ele>
        <time>2021-04-17T20:47:57Z</time>
      </trkpt>
      <trkpt lat="4.9547710" lon="-75.5033250">
        <ele>2069.4</ele>
        <time>2021-04-17T20:47:58Z</time>
      </trkpt>
      <trkpt lat="4.9547890" lon="-75.5033370">
        <ele>2069.6</ele>
        <time>2021-04-17T20:47:59Z</time>
      </trkpt>
      <trkpt lat="4.9548090" lon="-75.5033560">
        <ele>2069.9</ele>
        <time>2021-04-17T20:48:00Z</time>
      </trkpt>
      <trkpt lat="4.9548290" lon="-75.5033760">
        <ele>2070.1</ele>
        <time>2021-04-17T20:48:01Z</time>
      </trkpt>
      <trkpt lat="4.9548460" lon="-75.5033960">
        <ele>2070.3</ele>
        <time>2021-04-17T20:48:02Z</time>
      </trkpt>
      <trkpt lat="4.9548590" lon="-75.5034190">
        <ele>2070.6</ele>
        <time>2021-04-17T20:48:03Z</time>
      </trkpt>
      <trkpt lat="4.9548720" lon="-75.5034410">
        <ele>2070.8</ele>
        <time>2021-04-17T20:48:04Z</time>
      </trkpt>
      <trkpt lat="4.9548850" lon="-75.5034610">
        <ele>2071.0</ele>
        <time>2021-04-17T20:48:05Z</time>
      </trkpt>
      <trkpt lat="4.9549000" lon="-75.5034790">
        <ele>2071.1</ele>
        <time>2021-04-17T20:48:06Z</time>
      </trkpt>
      <trkpt lat="4.9549120" lon="-75.5034990">
        <ele>2071.3</ele>
        <time>2021-04-17T20:48:07Z</time>
      </trkpt>
      <trkpt lat="4.9549250" lon="-75.5035170">
        <ele>2071.5</ele>
        <time>2021-04-17T20:48:08Z</time>
      </trkpt>
      <trkpt lat="4.9549370" lon="-75.5035370">
        <ele>2071.7</ele>
        <time>2021-04-17T20:48:09Z</time>
      </trkpt>
      <trkpt lat="4.9549500" lon="-75.5035540">
        <ele>2071.9</ele>
        <time>2021-04-17T20:48:10Z</time>
      </trkpt>
      <trkpt lat="4.9549640" lon="-75.5035710">
        <ele>2072.1</ele>
        <time>2021-04-17T20:48:11Z</time>
      </trkpt>
      <trkpt lat="4.9549790" lon="-75.5035830">
        <ele>2072.3</ele>
        <time>2021-04-17T20:48:12Z</time>
      </trkpt>
      <trkpt lat="4.9549970" lon="-75.5035970">
        <ele>2072.5</ele>
        <time>2021-04-17T20:48:13Z</time>
      </trkpt>
      <trkpt lat="4.9550170" lon="-75.5036110">
        <ele>2072.7</ele>
        <time>2021-04-17T20:48:14Z</time>
      </trkpt>
      <trkpt lat="4.9550360" lon="-75.5036270">
        <ele>2073.0</ele>
        <time>2021-04-17T20:48:15Z</time>
      </trkpt>
      <trkpt lat="4.9550540" lon="-75.5036440">
        <ele>2073.3</ele>
        <time>2021-04-17T20:48:16Z</time>
      </trkpt>
      <trkpt lat="4.9550720" lon="-75.5036590">
        <ele>2073.5</ele>
        <time>2021-04-17T20:48:17Z</time>
      </trkpt>
      <trkpt lat="4.9550910" lon="-75.5036710">
        <ele>2073.7</ele>
        <time>2021-04-17T20:48:18Z</time>
      </trkpt>
      <trkpt lat="4.9551100" lon="-75.5036800">
        <ele>2074.0</ele>
        <time>2021-04-17T20:48:19Z</time>
      </trkpt>
      <trkpt lat="4.9551310" lon="-75.5036900">
        <ele>2074.2</ele>
        <time>2021-04-17T20:48:20Z</time>
      </trkpt>
      <trkpt lat="4.9551480" lon="-75.5036990">
        <ele>2074.4</ele>
        <time>2021-04-17T20:48:21Z</time>
      </trkpt>
      <trkpt lat="4.9551650" lon="-75.5037080">
        <ele>2074.6</ele>
        <time>2021-04-17T20:48:22Z</time>
      </trkpt>
      <trkpt lat="4.9551830" lon="-75.5037170">
        <ele>2074.8</ele>
        <time>2021-04-17T20:48:23Z</time>
      </trkpt>
      <trkpt lat="4.9551990" lon="-75.5037220">
        <ele>2075.0</ele>
        <time>2021-04-17T20:48:24Z</time>
      </trkpt>
      <trkpt lat="4.9552160" lon="-75.5037260">
        <ele>2075.2</ele>
        <time>2021-04-17T20:48:25Z</time>
      </trkpt>
      <trkpt lat="4.9552370" lon="-75.5037330">
        <ele>2075.4</ele>
        <time>2021-04-17T20:48:26Z</time>
      </trkpt>
      <trkpt lat="4.9552550" lon="-75.5037390">
        <ele>2075.6</ele>
        <time>2021-04-17T20:48:27Z</time>
      </trkpt>
      <trkpt lat="4.9552750" lon="-75.5037440">
        <ele>2075.9</ele>
        <time>2021-04-17T20:48:28Z</time>
      </trkpt>
      <trkpt lat="4.9552940" lon="-75.5037480">
        <ele>2076.1</ele>
        <time>2021-04-17T20:48:29Z</time>
      </trkpt>
      <trkpt lat="4.9553130" lon="-75.5037560">
        <ele>2076.3</ele>
        <time>2021-04-17T20:48:30Z</time>
      </trkpt>
      <trkpt lat="4.9553330" lon="-75.5037640">
        <ele>2076.5</ele>
        <time>2021-04-17T20:48:31Z</time>
      </trkpt>
      <trkpt lat="4.9553520" lon="-75.5037700">
        <ele>2076.8</ele>
        <time>2021-04-17T20:48:32Z</time>
      </trkpt>
      <trkpt lat="4.9553730" lon="-75.5037810">
        <ele>2077.0</ele>
        <time>2021-04-17T20:48:33Z</time>
      </trkpt>
      <trkpt lat="4.9553930" lon="-75.5037910">
        <ele>2077.3</ele>
        <time>2021-04-17T20:48:34Z</time>
      </trkpt>
      <trkpt lat="4.9554130" lon="-75.5038010">
        <ele>2077.5</ele>
        <time>2021-04-17T20:48:35Z</time>
      </trkpt>
      <trkpt lat="4.9554300" lon="-75.5038130">
        <ele>2077.7</ele>
        <time>2021-04-17T20:48:36Z</time>
      </trkpt>
      <trkpt lat="4.9554440" lon="-75.5038300">
        <ele>2078.0</ele>
        <time>2021-04-17T20:48:37Z</time>
      </trkpt>
      <trkpt lat="4.9554570" lon="-75.5038460">
        <ele>2078.2</ele>
        <time>2021-04-17T20:48:38Z</time>
      </trkpt>
      <trkpt lat="4.9554670" lon="-75.5038620">
        <ele>2078.4</ele>
        <time>2021-04-17T20:48:39Z</time>
      </trkpt>
      <trkpt lat="4.9554770" lon="-75.5038790">
        <ele>2078.6</ele>
        <time>2021-04-17T20:48:40Z</time>
      </trkpt>
      <trkpt lat="4.9554860" lon="-75.5038970">
        <ele>2078.8</ele>
        <time>2021-04-17T20:48:41Z</time>
      </trkpt>
      <trkpt lat="4.9554940" lon="-75.5039160">
        <ele>2079.0</ele>
        <time>2021-04-17T20:48:42Z</time>
      </trkpt>
      <trkpt lat="4.9555060" lon="-75.5039320">
        <ele>2079.2</ele>
        <time>2021-04-17T20:48:43Z</time>
      </trkpt>
      <trkpt lat="4.9555160" lon="-75.5039490">
        <ele>2079.5</ele>
        <time>2021-04-17T20:48:44Z</time>
      </trkpt>
      <trkpt lat="4.9555250" lon="-75.5039650">
        <ele>2079.6</ele>
        <time>2021-04-17T20:48:45Z</time>
      </trkpt>
      <trkpt lat="4.9555360" lon="-75.5039780">
        <ele>2079.8</ele>
        <time>2021-04-17T20:48:46Z</time>
      </trkpt>
      <trkpt lat="4.9555490" lon="-75.5039940">
        <ele>2080.1</ele>
        <time>2021-04-17T20:48:47Z</time>
      </trkpt>
      <trkpt lat="4.9555630" lon="-75.5040090">
        <ele>2080.3</ele>
        <time>2021-04-17T20:48:48Z</time>
      </trkpt>
      <trkpt lat="4.9555750" lon="-75.5040240">
        <ele>2080.5</ele>
        <time>2021-04-17T20:48:49Z</time>
      </trkpt>
      <trkpt lat="4.9555910" lon="-75.5040370">
        <ele>2080.7</ele>
        <time>2021-04-17T20:48:50Z</time>
      </trkpt>
      <trkpt lat="4.9556090" lon="-75.5040490">
        <ele>2081.0</ele>
        <time>2021-04-17T20:48:51Z</time>
      </trkpt>
      <trkpt lat="4.9556270" lon="-75.5040610">
        <ele>2081.2</ele>
        <time>2021-04-17T20:48:52Z</time>
      </trkpt>
      <trkpt lat="4.9556460" lon="-75.5040710">
        <ele>2081.5</ele>
        <time>2021-04-17T20:48:53Z</time>
      </trkpt>
      <trkpt lat="4.9556620" lon="-75.5040810">
        <ele>2081.7</ele>
        <time>2021-04-17T20:48:54Z</time>
      </trkpt>
      <trkpt lat="4.9556800" lon="-75.5040930">
        <ele>2081.9</ele>
        <time>2021-04-17T20:48:55Z</time>
      </trkpt>
      <trkpt lat="4.9556950" lon="-75.5041040">
        <ele>2082.1</ele>
        <time>2021-04-17T20:48:56Z</time>
      </trkpt>
      <trkpt lat="4.9557090" lon="-75.5041150">
        <ele>2082.3</ele>
        <time>2021-04-17T20:48:57Z</time>
      </trkpt>
      <trkpt lat="4.9557220" lon="-75.5041250">
        <ele>2082.5</ele>
        <time>2021-04-17T20:48:58Z</time>
      </trkpt>
      <trkpt lat="4.9557350" lon="-75.5041360">
        <ele>2082.7</ele>
        <time>2021-04-17T20:48:59Z</time>
      </trkpt>
      <trkpt lat="4.9557490" lon="-75.5041440">
        <ele>2082.9</ele>
        <time>2021-04-17T20:49:00Z</time>
      </trkpt>
      <trkpt lat="4.9557650" lon="-75.5041520">
        <ele>2083.2</ele>
        <time>2021-04-17T20:49:01Z</time>
      </trkpt>
      <trkpt lat="4.9557820" lon="-75.5041640">
        <ele>2083.4</ele>
        <time>2021-04-17T20:49:02Z</time>
      </trkpt>
      <trkpt lat="4.9557990" lon="-75.5041730">
        <ele>2083.7</ele>
        <time>2021-04-17T20:49:03Z</time>
      </trkpt>
      <trkpt lat="4.9558130" lon="-75.5041840">
        <ele>2083.9</ele>
        <time>2021-04-17T20:49:04Z</time>
      </trkpt>
      <trkpt lat="4.9558280" lon="-75.5041910">
        <ele>2084.1</ele>
        <time>2021-04-17T20:49:05Z</time>
      </trkpt>
      <trkpt lat="4.9558430" lon="-75.5042030">
        <ele>2084.4</ele>
        <time>2021-04-17T20:49:06Z</time>
      </trkpt>
      <trkpt lat="4.9558610" lon="-75.5042120">
        <ele>2084.7</ele>
        <time>2021-04-17T20:49:07Z</time>
      </trkpt>
      <trkpt lat="4.9558800" lon="-75.5042190">
        <ele>2085.0</ele>
        <time>2021-04-17T20:49:08Z</time>
      </trkpt>
      <trkpt lat="4.9558980" lon="-75.5042240">
        <ele>2085.2</ele>
        <time>2021-04-17T20:49:09Z</time>
      </trkpt>
      <trkpt lat="4.9559150" lon="-75.5042310">
        <ele>2085.5</ele>
        <time>2021-04-17T20:49:10Z</time>
      </trkpt>
      <trkpt lat="4.9559330" lon="-75.5042380">
        <ele>2085.8</ele>
        <time>2021-04-17T20:49:11Z</time>
      </trkpt>
      <trkpt lat="4.9559520" lon="-75.5042460">
        <ele>2086.1</ele>
        <time>2021-04-17T20:49:12Z</time>
      </trkpt>
      <trkpt lat="4.9559730" lon="-75.5042550">
        <ele>2086.4</ele>
        <time>2021-04-17T20:49:13Z</time>
      </trkpt>
      <trkpt lat="4.9559910" lon="-75.5042630">
        <ele>2086.6</ele>
        <time>2021-04-17T20:49:14Z</time>
      </trkpt>
      <trkpt lat="4.9560080" lon="-75.5042740">
        <ele>2086.9</ele>
        <time>2021-04-17T20:49:15Z</time>
      </trkpt>
      <trkpt lat="4.9560210" lon="-75.5042800">
        <ele>2087.1</ele>
        <time>2021-04-17T20:49:16Z</time>
      </trkpt>
      <trkpt lat="4.9560350" lon="-75.5042870">
        <ele>2087.3</ele>
        <time>2021-04-17T20:49:17Z</time>
      </trkpt>
      <trkpt lat="4.9560460" lon="-75.5042920">
        <ele>2087.4</ele>
        <time>2021-04-17T20:49:18Z</time>
      </trkpt>
      <trkpt lat="4.9560580" lon="-75.5042970">
        <ele>2087.6</ele>
        <time>2021-04-17T20:49:19Z</time>
      </trkpt>
      <trkpt lat="4.9560690" lon="-75.5043020">
        <ele>2087.7</ele>
        <time>2021-04-17T20:49:20Z</time>
      </trkpt>
      <trkpt lat="4.9560750" lon="-75.5043140">
        <ele>2087.9</ele>
        <time>2021-04-17T20:49:21Z</time>
      </trkpt>
      <trkpt lat="4.9560830" lon="-75.5043260">
        <ele>2088.1</ele>
        <time>2021-04-17T20:49:22Z</time>
      </trkpt>
      <trkpt lat="4.9560900" lon="-75.5043380">
        <ele>2088.2</ele>
        <time>2021-04-17T20:49:23Z</time>
      </trkpt>
      <trkpt lat="4.9560990" lon="-75.5043480">
        <ele>2088.4</ele>
        <time>2021-04-17T20:49:24Z</time>
      </trkpt>
      <trkpt lat="4.9561050" lon="-75.5043610">
        <ele>2088.6</ele>
        <time>2021-04-17T20:49:25Z</time>
      </trkpt>
      <trkpt lat="4.9561140" lon="-75.5043740">
        <ele>2088.7</ele>
        <time>2021-04-17T20:49:26Z</time>
      </trkpt>
      <trkpt lat="4.9561220" lon="-75.5043880">
        <ele>2088.9</ele>
        <time>2021-04-17T20:49:27Z</time>
      </trkpt>
      <trkpt lat="4.9561310" lon="-75.5044040">
        <ele>2089.1</ele>
        <time>2021-04-17T20:49:28Z</time>
      </trkpt>
      <trkpt lat="4.9561430" lon="-75.5044220">
        <ele>2089.4</ele>
        <time>2021-04-17T20:49:29Z</time>
      </trkpt>
      <trkpt lat="4.9561540" lon="-75.5044370">
        <ele>2089.6</ele>
        <time>2021-04-17T20:49:30Z</time>
      </trkpt>
      <trkpt lat="4.9561670" lon="-75.5044510">
        <ele>2089.8</ele>
        <time>2021-04-17T20:49:31Z</time>
      </trkpt>
      <trkpt lat="4.9561790" lon="-75.5044660">
        <ele>2090.0</ele>
        <time>2021-04-17T20:49:32Z</time>
      </trkpt>
      <trkpt lat="4.9561890" lon="-75.5044830">
        <ele>2090.2</ele>
        <time>2021-04-17T20:49:33Z</time>
      </trkpt>
      <trkpt lat="4.9561980" lon="-75.5044980">
        <ele>2090.4</ele>
        <time>2021-04-17T20:49:34Z</time>
      </trkpt>
      <trkpt lat="4.9562050" lon="-75.5045110">
        <ele>2090.5</ele>
        <time>2021-04-17T20:49:35Z</time>
      </trkpt>
      <trkpt lat="4.9562120" lon="-75.5045230">
        <ele>2090.7</ele>
        <time>2021-04-17T20:49:36Z</time>
      </trkpt>
      <trkpt lat="4.9562250" lon="-75.5045330">
        <ele>2090.8</ele>
        <time>2021-04-17T20:49:37Z</time>
      </trkpt>
      <trkpt lat="4.9562400" lon="-75.5045400">
        <ele>2091.0</ele>
        <time>2021-04-17T20:49:38Z</time>
      </trkpt>
      <trkpt lat="4.9562560" lon="-75.5045470">
        <ele>2091.2</ele>
        <time>2021-04-17T20:49:39Z</time>
      </trkpt>
      <trkpt lat="4.9562730" lon="-75.5045510">
        <ele>2091.4</ele>
        <time>2021-04-17T20:49:40Z</time>
      </trkpt>
      <trkpt lat="4.9562890" lon="-75.5045510">
        <ele>2091.6</ele>
        <time>2021-04-17T20:49:41Z</time>
      </trkpt>
      <trkpt lat="4.9563060" lon="-75.5045460">
        <ele>2091.8</ele>
        <time>2021-04-17T20:49:42Z</time>
      </trkpt>
      <trkpt lat="4.9563250" lon="-75.5045390">
        <ele>2092.0</ele>
        <time>2021-04-17T20:49:43Z</time>
      </trkpt>
      <trkpt lat="4.9563430" lon="-75.5045280">
        <ele>2092.3</ele>
        <time>2021-04-17T20:49:44Z</time>
      </trkpt>
      <trkpt lat="4.9563600" lon="-75.5045210">
        <ele>2092.5</ele>
        <time>2021-04-17T20:49:45Z</time>
      </trkpt>
      <trkpt lat="4.9563770" lon="-75.5045170">
        <ele>2092.8</ele>
        <time>2021-04-17T20:49:46Z</time>
      </trkpt>
      <trkpt lat="4.9563970" lon="-75.5045150">
        <ele>2093.0</ele>
        <time>2021-04-17T20:49:47Z</time>
      </trkpt>
      <trkpt lat="4.9564160" lon="-75.5045170">
        <ele>2093.2</ele>
        <time>2021-04-17T20:49:48Z</time>
      </trkpt>
      <trkpt lat="4.9564360" lon="-75.5045160">
        <ele>2093.4</ele>
        <time>2021-04-17T20:49:49Z</time>
      </trkpt>
      <trkpt lat="4.9564540" lon="-75.5045140">
        <ele>2093.6</ele>
        <time>2021-04-17T20:49:50Z</time>
      </trkpt>
      <trkpt lat="4.9564720" lon="-75.5045100">
        <ele>2093.8</ele>
        <time>2021-04-17T20:49:51Z</time>
      </trkpt>
      <trkpt lat="4.9564930" lon="-75.5045080">
        <ele>2094.0</ele>
        <time>2021-04-17T20:49:52Z</time>
      </trkpt>
      <trkpt lat="4.9565140" lon="-75.5045070">
        <ele>2094.2</ele>
        <time>2021-04-17T20:49:53Z</time>
      </trkpt>
      <trkpt lat="4.9565340" lon="-75.5045060">
        <ele>2094.4</ele>
        <time>2021-04-17T20:49:54Z</time>
      </trkpt>
      <trkpt lat="4.9565550" lon="-75.5045030">
        <ele>2094.6</ele>
        <time>2021-04-17T20:49:55Z</time>
      </trkpt>
      <trkpt lat="4.9565750" lon="-75.5045040">
        <ele>2094.8</ele>
        <time>2021-04-17T20:49:56Z</time>
      </trkpt>
      <trkpt lat="4.9565960" lon="-75.5045060">
        <ele>2095.1</ele>
        <time>2021-04-17T20:49:57Z</time>
      </trkpt>
      <trkpt lat="4.9566190" lon="-75.5045100">
        <ele>2095.3</ele>
        <time>2021-04-17T20:49:58Z</time>
      </trkpt>
      <trkpt lat="4.9566400" lon="-75.5045150">
        <ele>2095.5</ele>
        <time>2021-04-17T20:49:59Z</time>
      </trkpt>
      <trkpt lat="4.9566650" lon="-75.5045230">
        <ele>2095.8</ele>
        <time>2021-04-17T20:50:00Z</time>
      </trkpt>
      <trkpt lat="4.9566860" lon="-75.5045290">
        <ele>2096.1</ele>
        <time>2021-04-17T20:50:01Z</time>
      </trkpt>
      <trkpt lat="4.9567070" lon="-75.5045380">
        <ele>2096.3</ele>
        <time>2021-04-17T20:50:02Z</time>
      </trkpt>
      <trkpt lat="4.9567280" lon="-75.5045450">
        <ele>2096.5</ele>
        <time>2021-04-17T20:50:03Z</time>
      </trkpt>
      <trkpt lat="4.9567510" lon="-75.5045560">
        <ele>2096.8</ele>
        <time>2021-04-17T20:50:04Z</time>
      </trkpt>
      <trkpt lat="4.9567720" lon="-75.5045630">
        <ele>2097.0</ele>
        <time>2021-04-17T20:50:05Z</time>
      </trkpt>
      <trkpt lat="4.9567920" lon="-75.5045750">
        <ele>2097.3</ele>
        <time>2021-04-17T20:50:06Z</time>
      </trkpt>
      <trkpt lat="4.9568130" lon="-75.5045870">
        <ele>2097.5</ele>
        <time>2021-04-17T20:50:07Z</time>
      </trkpt>
      <trkpt lat="4.9568330" lon="-75.5045980">
        <ele>2097.8</ele>
        <time>2021-04-17T20:50:08Z</time>
      </trkpt>
      <trkpt lat="4.9568500" lon="-75.5046080">
        <ele>2098.0</ele>
        <time>2021-04-17T20:50:09Z</time>
      </trkpt>
      <trkpt lat="4.9568660" lon="-75.5046170">
        <ele>2098.2</ele>
        <time>2021-04-17T20:50:10Z</time>
      </trkpt>
      <trkpt lat="4.9568820" lon="-75.5046250">
        <ele>2098.4</ele>
        <time>2021-04-17T20:50:11Z</time>
      </trkpt>
      <trkpt lat="4.9568980" lon="-75.5046330">
        <ele>2098.5</ele>
        <time>2021-04-17T20:50:12Z</time>
      </trkpt>
      <trkpt lat="4.9569140" lon="-75.5046430">
        <ele>2098.7</ele>
        <time>2021-04-17T20:50:13Z</time>
      </trkpt>
      <trkpt lat="4.9569280" lon="-75.5046540">
        <ele>2098.9</ele>
        <time>2021-04-17T20:50:14Z</time>
      </trkpt>
      <trkpt lat="4.9569410" lon="-75.5046630">
        <ele>2099.1</ele>
        <time>2021-04-17T20:50:15Z</time>
      </trkpt>
      <trkpt lat="4.9569540" lon="-75.5046770">
        <ele>2099.3</ele>
        <time>2021-04-17T20:50:16Z</time>
      </trkpt>
      <trkpt lat="4.9569670" lon="-75.5046890">
        <ele>2099.5</ele>
        <time>2021-04-17T20:50:17Z</time>
      </trkpt>
      <trkpt lat="4.9569790" lon="-75.5047000">
        <ele>2099.7</ele>
        <time>2021-04-17T20:50:18Z</time>
      </trkpt>
      <trkpt lat="4.9569900" lon="-75.5047090">
        <ele>2099.8</ele>
        <time>2021-04-17T20:50:19Z</time>
      </trkpt>
      <trkpt lat="4.9570030" lon="-75.5047250">
        <ele>2100.0</ele>
        <time>2021-04-17T20:50:20Z</time>
      </trkpt>
      <trkpt lat="4.9570170" lon="-75.5047410">
        <ele>2100.3</ele>
        <time>2021-04-17T20:50:21Z</time>
      </trkpt>
      <trkpt lat="4.9570290" lon="-75.5047560">
        <ele>2100.5</ele>
        <time>2021-04-17T20:50:22Z</time>
      </trkpt>
      <trkpt lat="4.9570410" lon="-75.5047720">
        <ele>2100.7</ele>
        <time>2021-04-17T20:50:23Z</time>
      </trkpt>
      <trkpt lat="4.9570560" lon="-75.5047890">
        <ele>2100.9</ele>
        <time>2021-04-17T20:50:24Z</time>
      </trkpt>
      <trkpt lat="4.9570700" lon="-75.5048090">
        <ele>2101.2</ele>
        <time>2021-04-17T20:50:25Z</time>
      </trkpt>
      <trkpt lat="4.9570830" lon="-75.5048270">
        <ele>2101.4</ele>
        <time>2021-04-17T20:50:26Z</time>
      </trkpt>
      <trkpt lat="4.9570970" lon="-75.5048420">
        <ele>2101.6</ele>
        <time>2021-04-17T20:50:27Z</time>
      </trkpt>
      <trkpt lat="4.9571080" lon="-75.5048570">
        <ele>2101.8</ele>
        <time>2021-04-17T20:50:28Z</time>
      </trkpt>
      <trkpt lat="4.9571220" lon="-75.5048690">
        <ele>2102.0</ele>
        <time>2021-04-17T20:50:29Z</time>
      </trkpt>
      <trkpt lat="4.9571350" lon="-75.5048820">
        <ele>2102.2</ele>
        <time>2021-04-17T20:50:30Z</time>
      </trkpt>
      <trkpt lat="4.9571540" lon="-75.5048930">
        <ele>2102.4</ele>
        <time>2021-04-17T20:50:31Z</time>
      </trkpt>
      <trkpt lat="4.9571730" lon="-75.5048970">
        <ele>2102.6</ele>
        <time>2021-04-17T20:50:32Z</time>
      </trkpt>
      <trkpt lat="4.9571940" lon="-75.5049010">
        <ele>2102.9</ele>
        <time>2021-04-17T20:50:33Z</time>
      </trkpt>
      <trkpt lat="4.9572160" lon="-75.5049020">
        <ele>2103.1</ele>
        <time>2021-04-17T20:50:34Z</time>
      </trkpt>
      <trkpt lat="4.9572380" lon="-75.5049040">
        <ele>2103.3</ele>
        <time>2021-04-17T20:50:35Z</time>
      </trkpt>
      <trkpt lat="4.9572610" lon="-75.5049040">
        <ele>2103.6</ele>
        <time>2021-04-17T20:50:36Z</time>
      </trkpt>
      <trkpt lat="4.9572830" lon="-75.5048990">
        <ele>2103.8</ele>
        <time>2021-04-17T20:50:37Z</time>
      </trkpt>
      <trkpt lat="4.9573050" lon="-75.5048930">
        <ele>2104.0</ele>
        <time>2021-04-17T20:50:38Z</time>
      </trkpt>
      <trkpt lat="4.9573260" lon="-75.5048840">
        <ele>2104.3</ele>
        <time>2021-04-17T20:50:39Z</time>
      </trkpt>
      <trkpt lat="4.9573450" lon="-75.5048730">
        <ele>2104.5</ele>
        <time>2021-04-17T20:50:40Z</time>
      </trkpt>
      <trkpt lat="4.9573650" lon="-75.5048610">
        <ele>2104.8</ele>
        <time>2021-04-17T20:50:41Z</time>
      </trkpt>
      <trkpt lat="4.9573820" lon="-75.5048480">
        <ele>2105.0</ele>
        <time>2021-04-17T20:50:42Z</time>
      </trkpt>
      <trkpt lat="4.9573990" lon="-75.5048350">
        <ele>2105.2</ele>
        <time>2021-04-17T20:50:43Z</time>
      </trkpt>
      <trkpt lat="4.9574140" lon="-75.5048220">
        <ele>2105.4</ele>
        <time>2021-04-17T20:50:44Z</time>
      </trkpt>
      <trkpt lat="4.9574270" lon="-75.5048080">
        <ele>2105.6</ele>
        <time>2021-04-17T20:50:45Z</time>
      </trkpt>
      <trkpt lat="4.9574440" lon="-75.5047980">
        <ele>2105.8</ele>
        <time>2021-04-17T20:50:46Z</time>
      </trkpt>
      <trkpt lat="4.9574620" lon="-75.5047910">
        <ele>2106.0</ele>
        <time>2021-04-17T20:50:47Z</time>
      </trkpt>
      <trkpt lat="4.9574850" lon="-75.5047820">
        <ele>2106.3</ele>
        <time>2021-04-17T20:50:48Z</time>
      </trkpt>
      <trkpt lat="4.9575070" lon="-75.5047720">
        <ele>2106.5</ele>
        <time>2021-04-17T20:50:49Z</time>
      </trkpt>
      <trkpt lat="4.9575300" lon="-75.5047590">
        <ele>2106.8</ele>
        <time>2021-04-17T20:50:50Z</time>
      </trkpt>
      <trkpt lat="4.9575520" lon="-75.5047490">
        <ele>2107.1</ele>
        <time>2021-04-17T20:50:51Z</time>
      </trkpt>
      <trkpt lat="4.9575730" lon="-75.5047420">
        <ele>2107.3</ele>
        <time>2021-04-17T20:50:52Z</time>
      </trkpt>
      <trkpt lat="4.9575940" lon="-75.5047340">
        <ele>2107.6</ele>
        <time>2021-04-17T20:50:53Z</time>
      </trkpt>
      <trkpt lat="4.9576190" lon="-75.5047290">
        <ele>2107.8</ele>
        <time>2021-04-17T20:50:54Z</time>
      </trkpt>
      <trkpt lat="4.9576410" lon="-75.5047250">
        <ele>2108.1</ele>
        <time>2021-04-17T20:50:55Z</time>
      </trkpt>
      <trkpt lat="4.9576620" lon="-75.5047220">
        <ele>2108.3</ele>
        <time>2021-04-17T20:50:56Z</time>
      </trkpt>
      <trkpt lat="4.9576820" lon="-75.5047170">
        <ele>2108.5</ele>
        <time>2021-04-17T20:50:57Z</time>
      </trkpt>
      <trkpt lat="4.9577020" lon="-75.5047160">
        <ele>2108.7</ele>
        <time>2021-04-17T20:50:58Z</time>
      </trkpt>
      <trkpt lat="4.9577240" lon="-75.5047130">
        <ele>2108.9</ele>
        <time>2021-04-17T20:50:59Z</time>
      </trkpt>
      <trkpt lat="4.9577450" lon="-75.5047120">
        <ele>2109.2</ele>
        <time>2021-04-17T20:51:00Z</time>
      </trkpt>
      <trkpt lat="4.9577670" lon="-75.5047140">
        <ele>2109.4</ele>
        <time>2021-04-17T20:51:01Z</time>
      </trkpt>
      <trkpt lat="4.9577870" lon="-75.5047140">
        <ele>2109.6</ele>
        <time>2021-04-17T20:51:02Z</time>
      </trkpt>
      <trkpt lat="4.9578080" lon="-75.5047130">
        <ele>2109.8</ele>
        <time>2021-04-17T20:51:03Z</time>
      </trkpt>
      <trkpt lat="4.9578280" lon="-75.5047120">
        <ele>2110.0</ele>
        <time>2021-04-17T20:51:04Z</time>
      </trkpt>
      <trkpt lat="4.9578490" lon="-75.5047060">
        <ele>2110.3</ele>
        <time>2021-04-17T20:51:05Z</time>
      </trkpt>
      <trkpt lat="4.9578700" lon="-75.5046980">
        <ele>2110.5</ele>
        <time>2021-04-17T20:51:06Z</time>
      </trkpt>
      <trkpt lat="4.9578890" lon="-75.5046920">
        <ele>2110.7</ele>
        <time>2021-04-17T20:51:07Z</time>
      </trkpt>
      <trkpt lat="4.9579070" lon="-75.5046880">
        <ele>2110.9</ele>
        <time>2021-04-17T20:51:08Z</time>
      </trkpt>
      <trkpt lat="4.9579250" lon="-75.5046810">
        <ele>2111.1</ele>
        <time>2021-04-17T20:51:09Z</time>
      </trkpt>
      <trkpt lat="4.9579430" lon="-75.5046710">
        <ele>2111.3</ele>
        <time>2021-04-17T20:51:10Z</time>
      </trkpt>
      <trkpt lat="4.9579570" lon="-75.5046620">
        <ele>2111.5</ele>
        <time>2021-04-17T20:51:11Z</time>
      </trkpt>
      <trkpt lat="4.9579690" lon="-75.5046540">
        <ele>2111.7</ele>
        <time>2021-04-17T20:51:12Z</time>
      </trkpt>
      <trkpt lat="4.9579820" lon="-75.5046420">
        <ele>2111.9</ele>
        <time>2021-04-17T20:51:13Z</time>
      </trkpt>
      <trkpt lat="4.9579930" lon="-75.5046230">
        <ele>2112.1</ele>
        <time>2021-04-17T20:51:14Z</time>
      </trkpt>
      <trkpt lat="4.9580050" lon="-75.5046080">
        <ele>2112.3</ele>
        <time>2021-04-17T20:51:15Z</time>
      </trkpt>
      <trkpt lat="4.9580150" lon="-75.5045940">
        <ele>2112.5</ele>
        <time>2021-04-17T20:51:16Z</time>
      </trkpt>
      <trkpt lat="4.9580250" lon="-75.5045800">
        <ele>2112.6</ele>
        <time>2021-04-17T20:51:17Z</time>
      </trkpt>
      <trkpt lat="4.9580380" lon="-75.5045650">
        <ele>2112.9</ele>
        <time>2021-04-17T20:51:18Z</time>
      </trkpt>
      <trkpt lat="4.9580540" lon="-75.5045530">
        <ele>2113.1</ele>
        <time>2021-04-17T20:51:19Z</time>
      </trkpt>
      <trkpt lat="4.9580690" lon="-75.5045410">
        <ele>2113.3</ele>
        <time>2021-04-17T20:51:20Z</time>
      </trkpt>
      <trkpt lat="4.9580850" lon="-75.5045290">
        <ele>2113.5</ele>
        <time>2021-04-17T20:51:21Z</time>
      </trkpt>
      <trkpt lat="4.9581000" lon="-75.5045180">
        <ele>2113.7</ele>
        <time>2021-04-17T20:51:22Z</time>
      </trkpt>
      <trkpt lat="4.9581150" lon="-75.5045050">
        <ele>2113.9</ele>
        <time>2021-04-17T20:51:23Z</time>
      </trkpt>
      <trkpt lat="4.9581320" lon="-75.5044930">
        <ele>2114.1</ele>
        <time>2021-04-17T20:51:24Z</time>
      </trkpt>
      <trkpt lat="4.9581460" lon="-75.5044820">
        <ele>2114.3</ele>
        <time>2021-04-17T20:51:25Z</time>
      </trkpt>
      <trkpt lat="4.9581600" lon="-75.5044700">
        <ele>2114.5</ele>
        <time>2021-04-17T20:51:26Z</time>
      </trkpt>
      <trkpt lat="4.9581770" lon="-75.5044560">
        <ele>2114.7</ele>
        <time>2021-04-17T20:51:27Z</time>
      </trkpt>
      <trkpt lat="4.9581940" lon="-75.5044400">
        <ele>2115.0</ele>
        <time>2021-04-17T20:51:28Z</time>
      </trkpt>
      <trkpt lat="4.9582100" lon="-75.5044250">
        <ele>2115.2</ele>
        <time>2021-04-17T20:51:29Z</time>
      </trkpt>
      <trkpt lat="4.9582250" lon="-75.5044130">
        <ele>2115.4</ele>
        <time>2021-04-17T20:51:30Z</time>
      </trkpt>
      <trkpt lat="4.9582410" lon="-75.5044030">
        <ele>2115.6</ele>
        <time>2021-04-17T20:51:31Z</time>
      </trkpt>
      <trkpt lat="4.9582570" lon="-75.5043920">
        <ele>2115.8</ele>
        <time>2021-04-17T20:51:32Z</time>
      </trkpt>
      <trkpt lat="4.9582740" lon="-75.5043790">
        <ele>2116.0</ele>
        <time>2021-04-17T20:51:33Z</time>
      </trkpt>
      <trkpt lat="4.9582900" lon="-75.5043700">
        <ele>2116.2</ele>
        <time>2021-04-17T20:51:34Z</time>
      </trkpt>
      <trkpt lat="4.9583070" lon="-75.5043610">
        <ele>2116.4</ele>
        <time>2021-04-17T20:51:35Z</time>
      </trkpt>
      <trkpt lat="4.9583250" lon="-75.5043540">
        <ele>2116.6</ele>
        <time>2021-04-17T20:51:36Z</time>
      </trkpt>
      <trkpt lat="4.9583440" lon="-75.5043440">
        <ele>2116.9</ele>
        <time>2021-04-17T20:51:37Z</time>
      </trkpt>
      <trkpt lat="4.9583630" lon="-75.5043360">
        <ele>2117.1</ele>
        <time>2021-04-17T20:51:38Z</time>
      </trkpt>
      <trkpt lat="4.9583830" lon="-75.5043300">
        <ele>2117.3</ele>
        <time>2021-04-17T20:51:39Z</time>
      </trkpt>
      <trkpt lat="4.9584040" lon="-75.5043230">
        <ele>2117.5</ele>
        <time>2021-04-17T20:51:40Z</time>
      </trkpt>
      <trkpt lat="4.9584250" lon="-75.5043170">
        <ele>2117.8</ele>
        <time>2021-04-17T20:51:41Z</time>
      </trkpt>
      <trkpt lat="4.9584450" lon="-75.5043140">
        <ele>2118.0</ele>
        <time>2021-04-17T20:51:42Z</time>
      </trkpt>
      <trkpt lat="4.9584620" lon="-75.5043130">
        <ele>2118.1</ele>
        <time>2021-04-17T20:51:43Z</time>
      </trkpt>
      <trkpt lat="4.9584800" lon="-75.5043110">
        <ele>2118.3</ele>
        <time>2021-04-17T20:51:44Z</time>
      </trkpt>
      <trkpt lat="4.9584990" lon="-75.5043090">
        <ele>2118.5</ele>
        <time>2021-04-17T20:51:45Z</time>
      </trkpt>
      <trkpt lat="4.9585170" lon="-75.5043080">
        <ele>2118.7</ele>
        <time>2021-04-17T20:51:46Z</time>
      </trkpt>
      <trkpt lat="4.9585330" lon="-75.5043010">
        <ele>2118.9</ele>
        <time>2021-04-17T20:51:47Z</time>
      </trkpt>
      <trkpt lat="4.9585510" lon="-75.5042990">
        <ele>2119.1</ele>
        <time>2021-04-17T20:51:48Z</time>
      </trkpt>
      <trkpt lat="4.9585710" lon="-75.5042960">
        <ele>2119.3</ele>
        <time>2021-04-17T20:51:49Z</time>
      </trkpt>
      <trkpt lat="4.9585900" lon="-75.5042940">
        <ele>2119.5</ele>
        <time>2021-04-17T20:51:50Z</time>
      </trkpt>
      <trkpt lat="4.9586100" lon="-75.5042910">
        <ele>2119.7</ele>
        <time>2021-04-17T20:51:51Z</time>
      </trkpt>
      <trkpt lat="4.9586310" lon="-75.5042890">
        <ele>2120.0</ele>
        <time>2021-04-17T20:51:52Z</time>
      </trkpt>
      <trkpt lat="4.9586530" lon="-75.5042860">
        <ele>2120.2</ele>
        <time>2021-04-17T20:51:53Z</time>
      </trkpt>
      <trkpt lat="4.9586740" lon="-75.5042820">
        <ele>2120.4</ele>
        <time>2021-04-17T20:51:54Z</time>
      </trkpt>
      <trkpt lat="4.9586960" lon="-75.5042770">
        <ele>2120.7</ele>
        <time>2021-04-17T20:51:55Z</time>
      </trkpt>
      <trkpt lat="4.9587190" lon="-75.5042750">
        <ele>2120.9</ele>
        <time>2021-04-17T20:51:56Z</time>
      </trkpt>
      <trkpt lat="4.9587440" lon="-75.5042740">
        <ele>2121.2</ele>
        <time>2021-04-17T20:51:57Z</time>
      </trkpt>
      <trkpt lat="4.9587640" lon="-75.5042680">
        <ele>2121.4</ele>
        <time>2021-04-17T20:51:58Z</time>
      </trkpt>
      <trkpt lat="4.9587820" lon="-75.5042620">
        <ele>2121.6</ele>
        <time>2021-04-17T20:51:59Z</time>
      </trkpt>
      <trkpt lat="4.9588000" lon="-75.5042540">
        <ele>2121.8</ele>
        <time>2021-04-17T20:52:00Z</time>
      </trkpt>
      <trkpt lat="4.9588200" lon="-75.5042480">
        <ele>2122.0</ele>
        <time>2021-04-17T20:52:01Z</time>
      </trkpt>
      <trkpt lat="4.9588430" lon="-75.5042430">
        <ele>2122.3</ele>
        <time>2021-04-17T20:52:02Z</time>
      </trkpt>
      <trkpt lat="4.9588660" lon="-75.5042380">
        <ele>2122.5</ele>
        <time>2021-04-17T20:52:03Z</time>
      </trkpt>
      <trkpt lat="4.9588870" lon="-75.5042320">
        <ele>2122.7</ele>
        <time>2021-04-17T20:52:04Z</time>
      </trkpt>
      <trkpt lat="4.9589080" lon="-75.5042270">
        <ele>2123.0</ele>
        <time>2021-04-17T20:52:05Z</time>
      </trkpt>
      <trkpt lat="4.9589300" lon="-75.5042220">
        <ele>2123.2</ele>
        <time>2021-04-17T20:52:06Z</time>
      </trkpt>
      <trkpt lat="4.9589540" lon="-75.5042130">
        <ele>2123.5</ele>
        <time>2021-04-17T20:52:07Z</time>
      </trkpt>
      <trkpt lat="4.9589770" lon="-75.5042060">
        <ele>2123.7</ele>
        <time>2021-04-17T20:52:08Z</time>
      </trkpt>
      <trkpt lat="4.9590040" lon="-75.5041980">
        <ele>2124.0</ele>
        <time>2021-04-17T20:52:09Z</time>
      </trkpt>
      <trkpt lat="4.9590350" lon="-75.5041900">
        <ele>2124.4</ele>
        <time>2021-04-17T20:52:10Z</time>
      </trkpt>
      <trkpt lat="4.9590710" lon="-75.5041890">
        <ele>2124.7</ele>
        <time>2021-04-17T20:52:11Z</time>
      </trkpt>
      <trkpt lat="4.9591060" lon="-75.5041840">
        <ele>2125.1</ele>
        <time>2021-04-17T20:52:12Z</time>
      </trkpt>
      <trkpt lat="4.9591410" lon="-75.5041760">
        <ele>2125.5</ele>
        <time>2021-04-17T20:52:13Z</time>
      </trkpt>
      <trkpt lat="4.9591740" lon="-75.5041710">
        <ele>2125.8</ele>
        <time>2021-04-17T20:52:14Z</time>
      </trkpt>
      <trkpt lat="4.9592050" lon="-75.5041610">
        <ele>2126.2</ele>
        <time>2021-04-17T20:52:15Z</time>
      </trkpt>
      <trkpt lat="4.9592330" lon="-75.5041450">
        <ele>2126.5</ele>
        <time>2021-04-17T20:52:16Z</time>
      </trkpt>
      <trkpt lat="4.9592610" lon="-75.5041260">
        <ele>2126.9</ele>
        <time>2021-04-17T20:52:17Z</time>
      </trkpt>
      <trkpt lat="4.9592890" lon="-75.5041050">
        <ele>2127.3</ele>
        <time>2021-04-17T20:52:18Z</time>
      </trkpt>
      <trkpt lat="4.9593120" lon="-75.5040800">
        <ele>2127.6</ele>
        <time>2021-04-17T20:52:19Z</time>
      </trkpt>
      <trkpt lat="4.9593340" lon="-75.5040550">
        <ele>2128.0</ele>
        <time>2021-04-17T20:52:20Z</time>
      </trkpt>
      <trkpt lat="4.9593550" lon="-75.5040290">
        <ele>2128.3</ele>
        <time>2021-04-17T20:52:21Z</time>
      </trkpt>
      <trkpt lat="4.9593750" lon="-75.5040060">
        <ele>2128.6</ele>
        <time>2021-04-17T20:52:22Z</time>
      </trkpt>
      <trkpt lat="4.9593970" lon="-75.5039820">
        <ele>2129.0</ele>
        <time>2021-04-17T20:52:23Z</time>
      </trkpt>
      <trkpt lat="4.9594180" lon="-75.5039580">
        <ele>2129.3</ele>
        <time>2021-04-17T20:52:24Z</time>
      </trkpt>
      <trkpt lat="4.9594370" lon="-75.5039310">
        <ele>2129.7</ele>
        <time>2021-04-17T20:52:25Z</time>
      </trkpt>
      <trkpt lat="4.9594540" lon="-75.5039030">
        <ele>2130.0</ele>
        <time>2021-04-17T20:52:26Z</time>
      </trkpt>
      <trkpt lat="4.9594720" lon="-75.5038750">
        <ele>2130.4</ele>
        <time>2021-04-17T20:52:27Z</time>
      </trkpt>
      <trkpt lat="4.9594930" lon="-75.5038480">
        <ele>2130.7</ele>
        <time>2021-04-17T20:52:28Z</time>
      </trkpt>
      <trkpt lat="4.9595190" lon="-75.5038240">
        <ele>2131.1</ele>
        <time>2021-04-17T20:52:29Z</time>
      </trkpt>
      <trkpt lat="4.9595430" lon="-75.5037990">
        <ele>2131.5</ele>
        <time>2021-04-17T20:52:30Z</time>
      </trkpt>
      <trkpt lat="4.9595670" lon="-75.5037720">
        <ele>2131.8</ele>
        <time>2021-04-17T20:52:31Z</time>
      </trkpt>
      <trkpt lat="4.9595910" lon="-75.5037450">
        <ele>2132.2</ele>
        <time>2021-04-17T20:52:32Z</time>
      </trkpt>
      <trkpt lat="4.9596160" lon="-75.5037180">
        <ele>2132.6</ele>
        <time>2021-04-17T20:52:33Z</time>
      </trkpt>
      <trkpt lat="4.9596420" lon="-75.5036900">
        <ele>2133.0</ele>
        <time>2021-04-17T20:52:34Z</time>
      </trkpt>
      <trkpt lat="4.9596680" lon="-75.5036620">
        <ele>2133.4</ele>
        <time>2021-04-17T20:52:35Z</time>
      </trkpt>
      <trkpt lat="4.9596970" lon="-75.5036350">
        <ele>2133.8</ele>
        <time>2021-04-17T20:52:36Z</time>
      </trkpt>
      <trkpt lat="4.9597300" lon="-75.5036120">
        <ele>2134.3</ele>
        <time>2021-04-17T20:52:37Z</time>
      </trkpt>
      <trkpt lat="4.9597620" lon="-75.5035920">
        <ele>2134.7</ele>
        <time>2021-04-17T20:52:38Z</time>
      </trkpt>
      <trkpt lat="4.9598000" lon="-75.5035750">
        <ele>2135.1</ele>
        <time>2021-04-17T20:52:39Z</time>
      </trkpt>
      <trkpt lat="4.9598380" lon="-75.5035620">
        <ele>2135.5</ele>
        <time>2021-04-17T20:52:40Z</time>
      </trkpt>
      <trkpt lat="4.9598760" lon="-75.5035520">
        <ele>2135.9</ele>
        <time>2021-04-17T20:52:41Z</time>
      </trkpt>
      <trkpt lat="4.9599140" lon="-75.5035460">
        <ele>2136.3</ele>
        <time>2021-04-17T20:52:42Z</time>
      </trkpt>
      <trkpt lat="4.9599530" lon="-75.5035450">
        <ele>2136.7</ele>
        <time>2021-04-17T20:52:43Z</time>
      </trkpt>
      <trkpt lat="4.9599910" lon="-75.5035490">
        <ele>2137.2</ele>
        <time>2021-04-17T20:52:44Z</time>
      </trkpt>
      <trkpt lat="4.9600270" lon="-75.5035590">
        <ele>2137.5</ele>
        <time>2021-04-17T20:52:45Z</time>
      </trkpt>
      <trkpt lat="4.9600620" lon="-75.5035700">
        <ele>2137.9</ele>
        <time>2021-04-17T20:52:46Z</time>
      </trkpt>
      <trkpt lat="4.9600950" lon="-75.5035850">
        <ele>2138.3</ele>
        <time>2021-04-17T20:52:47Z</time>
      </trkpt>
      <trkpt lat="4.9601260" lon="-75.5036020">
        <ele>2138.7</ele>
        <time>2021-04-17T20:52:48Z</time>
      </trkpt>
      <trkpt lat="4.9601550" lon="-75.5036200">
        <ele>2139.0</ele>
        <time>2021-04-17T20:52:49Z</time>
      </trkpt>
      <trkpt lat="4.9601820" lon="-75.5036400">
        <ele>2139.4</ele>
        <time>2021-04-17T20:52:50Z</time>
      </trkpt>
      <trkpt lat="4.9602060" lon="-75.5036610">
        <ele>2139.7</ele>
        <time>2021-04-17T20:52:51Z</time>
      </trkpt>
      <trkpt lat="4.9602270" lon="-75.5036830">
        <ele>2140.1</ele>
        <time>2021-04-17T20:52:52Z</time>
      </trkpt>
      <trkpt lat="4.9602420" lon="-75.5037090">
        <ele>2140.4</ele>
        <time>2021-04-17T20:52:53Z</time>
      </trkpt>
      <trkpt lat="4.9602540" lon="-75.5037350">
        <ele>2140.7</ele>
        <time>2021-04-17T20:52:54Z</time>
      </trkpt>
      <trkpt lat="4.9602600" lon="-75.5037620">
        <ele>2141.0</ele>
        <time>2021-04-17T20:52:55Z</time>
      </trkpt>
      <trkpt lat="4.9602630" lon="-75.5037870">
        <ele>2141.2</ele>
        <time>2021-04-17T20:52:56Z</time>
      </trkpt>
      <trkpt lat="4.9602640" lon="-75.5038130">
        <ele>2141.5</ele>
        <time>2021-04-17T20:52:57Z</time>
      </trkpt>
      <trkpt lat="4.9602610" lon="-75.5038390">
        <ele>2141.8</ele>
        <time>2021-04-17T20:52:58Z</time>
      </trkpt>
      <trkpt lat="4.9602550" lon="-75.5038630">
        <ele>2142.0</ele>
        <time>2021-04-17T20:52:59Z</time>
      </trkpt>
      <trkpt lat="4.9602430" lon="-75.5038850">
        <ele>2142.3</ele>
        <time>2021-04-17T20:53:00Z</time>
      </trkpt>
      <trkpt lat="4.9602240" lon="-75.5039000">
        <ele>2142.6</ele>
        <time>2021-04-17T20:53:01Z</time>
      </trkpt>
      <trkpt lat="4.9601990" lon="-75.5039120">
        <ele>2142.8</ele>
        <time>2021-04-17T20:53:02Z</time>
      </trkpt>
      <trkpt lat="4.9601740" lon="-75.5039240">
        <ele>2143.1</ele>
        <time>2021-04-17T20:53:03Z</time>
      </trkpt>
      <trkpt lat="4.9601510" lon="-75.5039350">
        <ele>2143.4</ele>
        <time>2021-04-17T20:53:04Z</time>
      </trkpt>
      <trkpt lat="4.9601300" lon="-75.5039430">
        <ele>2143.6</ele>
        <time>2021-04-17T20:53:05Z</time>
      </trkpt>
      <trkpt lat="4.9601060" lon="-75.5039520">
        <ele>2143.9</ele>
        <time>2021-04-17T20:53:06Z</time>
      </trkpt>
      <trkpt lat="4.9600810" lon="-75.5039620">
        <ele>2144.2</ele>
        <time>2021-04-17T20:53:07Z</time>
      </trkpt>
      <trkpt lat="4.9600570" lon="-75.5039740">
        <ele>2144.5</ele>
        <time>2021-04-17T20:53:08Z</time>
      </trkpt>
      <trkpt lat="4.9600330" lon="-75.5039860">
        <ele>2144.8</ele>
        <time>2021-04-17T20:53:09Z</time>
      </trkpt>
      <trkpt lat="4.9600100" lon="-75.5039990">
        <ele>2145.0</ele>
        <time>2021-04-17T20:53:10Z</time>
      </trkpt>
      <trkpt lat="4.9599870" lon="-75.5040090">
        <ele>2145.3</ele>
        <time>2021-04-17T20:53:11Z</time>
      </trkpt>
      <trkpt lat="4.9599670" lon="-75.5040170">
        <ele>2145.5</ele>
        <time>2021-04-17T20:53:12Z</time>
      </trkpt>
      <trkpt lat="4.9599460" lon="-75.5040250">
        <ele>2145.8</ele>
        <time>2021-04-17T20:53:13Z</time>
      </trkpt>
      <trkpt lat="4.9599260" lon="-75.5040340">
        <ele>2146.0</ele>
        <time>2021-04-17T20:53:14Z</time>
      </trkpt>
      <trkpt lat="4.9599050" lon="-75.5040460">
        <ele>2146.3</ele>
        <time>2021-04-17T20:53:15Z</time>
      </trkpt>
      <trkpt lat="4.9598850" lon="-75.5040550">
        <ele>2146.5</ele>
        <time>2021-04-17T20:53:16Z</time>
      </trkpt>
      <trkpt lat="4.9598670" lon="-75.5040660">
        <ele>2146.7</ele>
        <time>2021-04-17T20:53:17Z</time>
      </trkpt>
      <trkpt lat="4.9598490" lon="-75.5040770">
        <ele>2146.9</ele>
        <time>2021-04-17T20:53:18Z</time>
      </trkpt>
      <trkpt lat="4.9598320" lon="-75.5040880">
        <ele>2147.2</ele>
        <time>2021-04-17T20:53:19Z</time>
      </trkpt>
      <trkpt lat="4.9598150" lon="-75.5040980">
        <ele>2147.4</ele>
        <time>2021-04-17T20:53:20Z</time>
      </trkpt>
      <trkpt lat="4.9597990" lon="-75.5041090">
        <ele>2147.6</ele>
        <time>2021-04-17T20:53:21Z</time>
      </trkpt>
      <trkpt lat="4.9597840" lon="-75.5041210">
        <ele>2147.8</ele>
        <time>2021-04-17T20:53:22Z</time>
      </trkpt>
      <trkpt lat="4.9597690" lon="-75.5041320">
        <ele>2148.0</ele>
        <time>2021-04-17T20:53:23Z</time>
      </trkpt>
      <trkpt lat="4.9597530" lon="-75.5041450">
        <ele>2148.2</ele>
        <time>2021-04-17T20:53:24Z</time>
      </trkpt>
      <trkpt lat="4.9597380" lon="-75.5041580">
        <ele>2148.4</ele>
        <time>2021-04-17T20:53:25Z</time>
      </trkpt>
      <trkpt lat="4.9597230" lon="-75.5041720">
        <ele>2148.6</ele>
        <time>2021-04-17T20:53:26Z</time>
      </trkpt>
      <trkpt lat="4.9597070" lon="-75.5041860">
        <ele>2148.8</ele>
        <time>2021-04-17T20:53:27Z</time>
      </trkpt>
      <trkpt lat="4.9596920" lon="-75.5042020">
        <ele>2149.1</ele>
        <time>2021-04-17T20:53:28Z</time>
      </trkpt>
      <trkpt lat="4.9596770" lon="-75.5042190">
        <ele>2149.3</ele>
        <time>2021-04-17T20:53:29Z</time>
      </trkpt>
      <trkpt lat="4.9596650" lon="-75.5042370">
        <ele>2149.5</ele>
        <time>2021-04-17T20:53:30Z</time>
      </trkpt>
      <trkpt lat="4.9596540" lon="-75.5042540">
        <ele>2149.7</ele>
        <time>2021-04-17T20:53:31Z</time>
      </trkpt>
      <trkpt lat="4.9596440" lon="-75.5042710">
        <ele>2149.9</ele>
        <time>2021-04-17T20:53:32Z</time>
      </trkpt>
      <trkpt lat="4.9596330" lon="-75.5042870">
        <ele>2150.2</ele>
        <time>2021-04-17T20:53:33Z</time>
      </trkpt>
      <trkpt lat="4.9596220" lon="-75.5043000">
        <ele>2150.3</ele>
        <time>2021-04-17T20:53:34Z</time>
      </trkpt>
      <trkpt lat="4.9596110" lon="-75.5043130">
        <ele>2150.5</ele>
        <time>2021-04-17T20:53:35Z</time>
      </trkpt>
      <trkpt lat="4.9596020" lon="-75.5043270">
        <ele>2150.7</ele>
        <time>2021-04-17T20:53:36Z</time>
      </trkpt>
      <trkpt lat="4.9595950" lon="-75.5043430">
        <ele>2150.9</ele>
        <time>2021-04-17T20:53:37Z</time>
      </trkpt>
      <trkpt lat="4.9595890" lon="-75.5043580">
        <ele>2151.0</ele>
        <time>2021-04-17T20:53:38Z</time>
      </trkpt>
      <trkpt lat="4.9595830" lon="-75.5043740">
        <ele>2151.2</ele>
        <time>2021-04-17T20:53:39Z</time>
      </trkpt>
      <trkpt lat="4.9595770" lon="-75.5043900">
        <ele>2151.4</ele>
        <time>2021-04-17T20:53:40Z</time>
      </trkpt>
      <trkpt lat="4.9595740" lon="-75.5044070">
        <ele>2151.6</ele>
        <time>2021-04-17T20:53:41Z</time>
      </trkpt>
      <trkpt lat="4.9595740" lon="-75.5044250">
        <ele>2151.8</ele>
        <time>2021-04-17T20:53:42Z</time>
      </trkpt>
      <trkpt lat="4.9595740" lon="-75.5044440">
        <ele>2152.0</ele>
        <time>2021-04-17T20:53:43Z</time>
      </trkpt>
      <trkpt lat="4.9595750" lon="-75.5044610">
        <ele>2152.1</ele>
        <time>2021-04-17T20:53:44Z</time>
      </trkpt>
      <trkpt lat="4.9595750" lon="-75.5044790">
        <ele>2152.3</ele>
        <time>2021-04-17T20:53:45Z</time>
      </trkpt>
      <trkpt lat="4.9595770" lon="-75.5044960">
        <ele>2152.5</ele>
        <time>2021-04-17T20:53:46Z</time>
      </trkpt>
      <trkpt lat="4.9595780" lon="-75.5045140">
        <ele>2152.7</ele>
        <time>2021-04-17T20:53:47Z</time>
      </trkpt>
      <trkpt lat="4.9595840" lon="-75.5045290">
        <ele>2152.9</ele>
        <time>2021-04-17T20:53:48Z</time>
      </trkpt>
      <trkpt lat="4.9595930" lon="-75.5045440">
        <ele>2153.1</ele>
        <time>2021-04-17T20:53:49Z</time>
      </trkpt>
      <trkpt lat="4.9596040" lon="-75.5045580">
        <ele>2153.2</ele>
        <time>2021-04-17T20:53:50Z</time>
      </trkpt>
      <trkpt lat="4.9596180" lon="-75.5045700">
        <ele>2153.4</ele>
        <time>2021-04-17T20:53:51Z</time>
      </trkpt>
      <trkpt lat="4.9596320" lon="-75.5045780">
        <ele>2153.6</ele>
        <time>2021-04-17T20:53:52Z</time>
      </trkpt>
      <trkpt lat="4.9596460" lon="-75.5045830">
        <ele>2153.8</ele>
        <time>2021-04-17T20:53:53Z</time>
      </trkpt>
      <trkpt lat="4.9596630" lon="-75.5045860">
        <ele>2154.0</ele>
        <time>2021-04-17T20:53:54Z</time>
      </trkpt>
      <trkpt lat="4.9596810" lon="-75.5045890">
        <ele>2154.1</ele>
        <time>2021-04-17T20:53:55Z</time>
      </trkpt>
      <trkpt lat="4.9596970" lon="-75.5045920">
        <ele>2154.3</ele>
        <time>2021-04-17T20:53:56Z</time>
      </trkpt>
      <trkpt lat="4.9597100" lon="-75.5045940">
        <ele>2154.5</ele>
        <time>2021-04-17T20:53:57Z</time>
      </trkpt>
      <trkpt lat="4.9597250" lon="-75.5045980">
        <ele>2154.6</ele>
        <time>2021-04-17T20:53:58Z</time>
      </trkpt>
      <trkpt lat="4.9597420" lon="-75.5045980">
        <ele>2154.8</ele>
        <time>2021-04-17T20:53:59Z</time>
      </trkpt>
      <trkpt lat="4.9597590" lon="-75.5045960">
        <ele>2155.0</ele>
        <time>2021-04-17T20:54:00Z</time>
      </trkpt>
      <trkpt lat="4.9597770" lon="-75.5045960">
        <ele>2155.2</ele>
        <time>2021-04-17T20:54:01Z</time>
      </trkpt>
      <trkpt lat="4.9597950" lon="-75.5045930">
        <ele>2155.4</ele>
        <time>2021-04-17T20:54:02Z</time>
      </trkpt>
      <trkpt lat="4.9598120" lon="-75.5045890">
        <ele>2155.5</ele>
        <time>2021-04-17T20:54:03Z</time>
      </trkpt>
      <trkpt lat="4.9598280" lon="-75.5045870">
        <ele>2155.7</ele>
        <time>2021-04-17T20:54:04Z</time>
      </trkpt>
      <trkpt lat="4.9598430" lon="-75.5045840">
        <ele>2155.9</ele>
        <time>2021-04-17T20:54:05Z</time>
      </trkpt>
      <trkpt lat="4.9598580" lon="-75.5045810">
        <ele>2156.0</ele>
        <time>2021-04-17T20:54:06Z</time>
      </trkpt>
      <trkpt lat="4.9598740" lon="-75.5045760">
        <ele>2156.2</ele>
        <time>2021-04-17T20:54:07Z</time>
      </trkpt>
      <trkpt lat="4.9598900" lon="-75.5045690">
        <ele>2156.4</ele>
        <time>2021-04-17T20:54:08Z</time>
      </trkpt>
      <trkpt lat="4.9599060" lon="-75.5045610">
        <ele>2156.6</ele>
        <time>2021-04-17T20:54:09Z</time>
      </trkpt>
      <trkpt lat="4.9599210" lon="-75.5045530">
        <ele>2156.8</ele>
        <time>2021-04-17T20:54:10Z</time>
      </trkpt>
      <trkpt lat="4.9599350" lon="-75.5045480">
        <ele>2156.9</ele>
        <time>2021-04-17T20:54:11Z</time>
      </trkpt>
      <trkpt lat="4.9599530" lon="-75.5045410">
        <ele>2157.1</ele>
        <time>2021-04-17T20:54:12Z</time>
      </trkpt>
      <trkpt lat="4.9599700" lon="-75.5045360">
        <ele>2157.3</ele>
        <time>2021-04-17T20:54:13Z</time>
      </trkpt>
      <trkpt lat="4.9599860" lon="-75.5045290">
        <ele>2157.5</ele>
        <time>2021-04-17T20:54:14Z</time>
      </trkpt>
      <trkpt lat="4.9600020" lon="-75.5045220">
        <ele>2157.7</ele>
        <time>2021-04-17T20:54:15Z</time>
      </trkpt>
      <trkpt lat="4.9600160" lon="-75.5045120">
        <ele>2157.9</ele>
        <time>2021-04-17T20:54:16Z</time>
      </trkpt>
      <trkpt lat="4.9600280" lon="-75.5045020">
        <ele>2158.0</ele>
        <time>2021-04-17T20:54:17Z</time>
      </trkpt>
      <trkpt lat="4.9600410" lon="-75.5044980">
        <ele>2158.2</ele>
        <time>2021-04-17T20:54:18Z</time>
      </trkpt>
      <trkpt lat="4.9600550" lon="-75.5044950">
        <ele>2158.3</ele>
        <time>2021-04-17T20:54:19Z</time>
      </trkpt>
      <trkpt lat="4.9600690" lon="-75.5044920">
        <ele>2158.5</ele>
        <time>2021-04-17T20:54:20Z</time>
      </trkpt>
      <trkpt lat="4.9600800" lon="-75.5044830">
        <ele>2158.6</ele>
        <time>2021-04-17T20:54:21Z</time>
      </trkpt>
      <trkpt lat="4.9600930" lon="-75.5044770">
        <ele>2158.8</ele>
        <time>2021-04-17T20:54:22Z</time>
      </trkpt>
      <trkpt lat="4.9601070" lon="-75.5044720">
        <ele>2158.9</ele>
        <time>2021-04-17T20:54:23Z</time>
      </trkpt>
      <trkpt lat="4.9601200" lon="-75.5044680">
        <ele>2159.1</ele>
        <time>2021-04-17T20:54:24Z</time>
      </trkpt>
      <trkpt lat="4.9601320" lon="-75.5044630">
        <ele>2159.2</ele>
        <time>2021-04-17T20:54:25Z</time>
      </trkpt>
      <trkpt lat="4.9601480" lon="-75.5044650">
        <ele>2159.4</ele>
        <time>2021-04-17T20:54:26Z</time>
      </trkpt>
      <trkpt lat="4.9601620" lon="-75.5044620">
        <ele>2159.5</ele>
        <time>2021-04-17T20:54:27Z</time>
      </trkpt>
      <trkpt lat="4.9601750" lon="-75.5044590">
        <ele>2159.7</ele>
        <time>2021-04-17T20:54:28Z</time>
      </trkpt>
      <trkpt lat="4.9601890" lon="-75.5044560">
        <ele>2159.8</ele>
        <time>2021-04-17T20:54:29Z</time>
      </trkpt>
      <trkpt lat="4.9602030" lon="-75.5044540">
        <ele>2160.0</ele>
        <time>2021-04-17T20:54:30Z</time>
      </trkpt>
      <trkpt lat="4.9602170" lon="-75.5044530">
        <ele>2160.1</ele>
        <time>2021-04-17T20:54:31Z</time>
      </trkpt>
      <trkpt lat="4.9602310" lon="-75.5044530">
        <ele>2160.3</ele>
        <time>2021-04-17T20:54:32Z</time>
      </trkpt>
      <trkpt lat="4.9602440" lon="-75.5044490">
        <ele>2160.4</ele>
        <time>2021-04-17T20:54:33Z</time>
      </trkpt>
      <trkpt lat="4.9602560" lon="-75.5044450">
        <ele>2160.5</ele>
        <time>2021-04-17T20:54:34Z</time>
      </trkpt>
      <trkpt lat="4.9602680" lon="-75.5044400">
        <ele>2160.7</ele>
        <time>2021-04-17T20:54:35Z</time>
      </trkpt>
      <trkpt lat="4.9602790" lon="-75.5044380">
        <ele>2160.8</ele>
        <time>2021-04-17T20:54:36Z</time>
      </trkpt>
      <trkpt lat="4.9602920" lon="-75.5044360">
        <ele>2160.9</ele>
        <time>2021-04-17T20:54:37Z</time>
      </trkpt>
      <trkpt lat="4.9603050" lon="-75.5044360">
        <ele>2161.1</ele>
        <time>2021-04-17T20:54:38Z</time>
      </trkpt>
      <trkpt lat="4.9603180" lon="-75.5044360">
        <ele>2161.2</ele>
        <time>2021-04-17T20:54:39Z</time>
      </trkpt>
      <trkpt lat="4.9603310" lon="-75.5044350">
        <ele>2161.4</ele>
        <time>2021-04-17T20:54:40Z</time>
      </trkpt>
      <trkpt lat="4.9603460" lon="-75.5044340">
        <ele>2161.5</ele>
        <time>2021-04-17T20:54:41Z</time>
      </trkpt>
      <trkpt lat="4.9603610" lon="-75.5044320">
        <ele>2161.7</ele>
        <time>2021-04-17T20:54:42Z</time>
      </trkpt>
      <trkpt lat="4.9603760" lon="-75.5044270">
        <ele>2161.8</ele>
        <time>2021-04-17T20:54:43Z</time>
      </trkpt>
      <trkpt lat="4.9603910" lon="-75.5044190">
        <ele>2162.0</ele>
        <time>2021-04-17T20:54:44Z</time>
      </trkpt>
      <trkpt lat="4.9604060" lon="-75.5044130">
        <ele>2162.2</ele>
        <time>2021-04-17T20:54:45Z</time>
      </trkpt>
      <trkpt lat="4.9604220" lon="-75.5044080">
        <ele>2162.4</ele>
        <time>2021-04-17T20:54:46Z</time>
      </trkpt>
      <trkpt lat="4.9604370" lon="-75.5044020">
        <ele>2162.5</ele>
        <time>2021-04-17T20:54:47Z</time>
      </trkpt>
      <trkpt lat="4.9604530" lon="-75.5044000">
        <ele>2162.7</ele>
        <time>2021-04-17T20:54:48Z</time>
      </trkpt>
      <trkpt lat="4.9604670" lon="-75.5043990">
        <ele>2162.9</ele>
        <time>2021-04-17T20:54:49Z</time>
      </trkpt>
      <trkpt lat="4.9604830" lon="-75.5043960">
        <ele>2163.0</ele>
        <time>2021-04-17T20:54:50Z</time>
      </trkpt>
      <trkpt lat="4.9604980" lon="-75.5043950">
        <ele>2163.2</ele>
        <time>2021-04-17T20:54:51Z</time>
      </trkpt>
      <trkpt lat="4.9605150" lon="-75.5044000">
        <ele>2163.4</ele>
        <time>2021-04-17T20:54:52Z</time>
      </trkpt>
      <trkpt lat="4.9605350" lon="-75.5044070">
        <ele>2163.6</ele>
        <time>2021-04-17T20:54:53Z</time>
      </trkpt>
      <trkpt lat="4.9605510" lon="-75.5044110">
        <ele>2163.8</ele>
        <time>2021-04-17T20:54:54Z</time>
      </trkpt>
      <trkpt lat="4.9605660" lon="-75.5044130">
        <ele>2163.9</ele>
        <time>2021-04-17T20:54:55Z</time>
      </trkpt>
      <trkpt lat="4.9605780" lon="-75.5044150">
        <ele>2164.1</ele>
        <time>2021-04-17T20:54:56Z</time>
      </trkpt>
      <trkpt lat="4.9605910" lon="-75.5044210">
        <ele>2164.2</ele>
        <time>2021-04-17T20:54:57Z</time>
      </trkpt>
      <trkpt lat="4.9606060" lon="-75.5044270">
        <ele>2164.4</ele>
        <time>2021-04-17T20:54:58Z</time>
      </trkpt>
      <trkpt lat="4.9606200" lon="-75.5044330">
        <ele>2164.5</ele>
        <time>2021-04-17T20:54:59Z</time>
      </trkpt>
      <trkpt lat="4.9606310" lon="-75.5044370">
        <ele>2164.7</ele>
        <time>2021-04-17T20:55:00Z</time>
      </trkpt>
      <trkpt lat="4.9606430" lon="-75.5044410">
        <ele>2164.8</ele>
        <time>2021-04-17T20:55:01Z</time>
      </trkpt>
      <trkpt lat="4.9606550" lon="-75.5044460">
        <ele>2164.9</ele>
        <time>2021-04-17T20:55:02Z</time>
      </trkpt>
      <trkpt lat="4.9606690" lon="-75.5044520">
        <ele>2165.1</ele>
        <time>2021-04-17T20:55:03Z</time>
      </trkpt>
      <trkpt lat="4.9606830" lon="-75.5044590">
        <ele>2165.3</ele>
        <time>2021-04-17T20:55:04Z</time>
      </trkpt>
      <trkpt lat="4.9607010" lon="-75.5044700">
        <ele>2165.5</ele>
        <time>2021-04-17T20:55:05Z</time>
      </trkpt>
      <trkpt lat="4.9607160" lon="-75.5044820">
        <ele>2165.7</ele>
        <time>2021-04-17T20:55:06Z</time>
      </trkpt>
      <trkpt lat="4.9607290" lon="-75.5044890">
        <ele>2165.8</ele>
        <time>2021-04-17T20:55:07Z</time>
      </trkpt>
      <trkpt lat="4.9607410" lon="-75.5044980">
        <ele>2166.0</ele>
        <time>2021-04-17T20:55:08Z</time>
      </trkpt>
      <trkpt lat="4.9607530" lon="-75.5045070">
        <ele>2166.2</ele>
        <time>2021-04-17T20:55:09Z</time>
      </trkpt>
      <trkpt lat="4.9607670" lon="-75.5045140">
        <ele>2166.3</ele>
        <time>2021-04-17T20:55:10Z</time>
      </trkpt>
      <trkpt lat="4.9607820" lon="-75.5045200">
        <ele>2166.5</ele>
        <time>2021-04-17T20:55:11Z</time>
      </trkpt>
      <trkpt lat="4.9608000" lon="-75.5045230">
        <ele>2166.7</ele>
        <time>2021-04-17T20:55:12Z</time>
      </trkpt>
      <trkpt lat="4.9608180" lon="-75.5045260">
        <ele>2166.9</ele>
        <time>2021-04-17T20:55:13Z</time>
      </trkpt>
      <trkpt lat="4.9608360" lon="-75.5045260">
        <ele>2167.1</ele>
        <time>2021-04-17T20:55:14Z</time>
      </trkpt>
      <trkpt lat="4.9608530" lon="-75.5045300">
        <ele>2167.3</ele>
        <time>2021-04-17T20:55:15Z</time>
      </trkpt>
      <trkpt lat="4.9608690" lon="-75.5045340">
        <ele>2167.4</ele>
        <time>2021-04-17T20:55:16Z</time>
      </trkpt>
      <trkpt lat="4.9608840" lon="-75.5045350">
        <ele>2167.6</ele>
        <time>2021-04-17T20:55:17Z</time>
      </trkpt>
      <trkpt lat="4.9608990" lon="-75.5045340">
        <ele>2167.7</ele>
        <time>2021-04-17T20:55:18Z</time>
      </trkpt>
      <trkpt lat="4.9609140" lon="-75.5045310">
        <ele>2167.9</ele>
        <time>2021-04-17T20:55:19Z</time>
      </trkpt>
      <trkpt lat="4.9609310" lon="-75.5045260">
        <ele>2168.1</ele>
        <time>2021-04-17T20:55:20Z</time>
      </trkpt>
      <trkpt lat="4.9609500" lon="-75.5045220">
        <ele>2168.3</ele>
        <time>2021-04-17T20:55:21Z</time>
      </trkpt>
      <trkpt lat="4.9609670" lon="-75.5045170">
        <ele>2168.5</ele>
        <time>2021-04-17T20:55:22Z</time>
      </trkpt>
      <trkpt lat="4.9609850" lon="-75.5045120">
        <ele>2168.7</ele>
        <time>2021-04-17T20:55:23Z</time>
      </trkpt>
      <trkpt lat="4.9610040" lon="-75.5045080">
        <ele>2168.9</ele>
        <time>2021-04-17T20:55:24Z</time>
      </trkpt>
      <trkpt lat="4.9610220" lon="-75.5045020">
        <ele>2169.1</ele>
        <time>2021-04-17T20:55:25Z</time>
      </trkpt>
      <trkpt lat="4.9610410" lon="-75.5044990">
        <ele>2169.3</ele>
        <time>2021-04-17T20:55:26Z</time>
      </trkpt>
      <trkpt lat="4.9610590" lon="-75.5044900">
        <ele>2169.5</ele>
        <time>2021-04-17T20:55:27Z</time>
      </trkpt>
      <trkpt lat="4.9610760" lon="-75.5044810">
        <ele>2169.7</ele>
        <time>2021-04-17T20:55:28Z</time>
      </trkpt>
      <trkpt lat="4.9610920" lon="-75.5044710">
        <ele>2169.9</ele>
        <time>2021-04-17T20:55:29Z</time>
      </trkpt>
      <trkpt lat="4.9611080" lon="-75.5044610">
        <ele>2170.1</ele>
        <time>2021-04-17T20:55:30Z</time>
      </trkpt>
      <trkpt lat="4.9611240" lon="-75.5044530">
        <ele>2170.3</ele>
        <time>2021-04-17T20:55:31Z</time>
      </trkpt>
      <trkpt lat="4.9611410" lon="-75.5044440">
        <ele>2170.5</ele>
        <time>2021-04-17T20:55:32Z</time>
      </trkpt>
      <trkpt lat="4.9611580" lon="-75.5044370">
        <ele>2170.7</ele>
        <time>2021-04-17T20:55:33Z</time>
      </trkpt>
      <trkpt lat="4.9611750" lon="-75.5044300">
        <ele>2170.9</ele>
        <time>2021-04-17T20:55:34Z</time>
      </trkpt>
      <trkpt lat="4.9611920" lon="-75.5044240">
        <ele>2171.1</ele>
        <time>2021-04-17T20:55:35Z</time>
      </trkpt>
      <trkpt lat="4.9612090" lon="-75.5044200">
        <ele>2171.3</ele>
        <time>2021-04-17T20:55:36Z</time>
      </trkpt>
      <trkpt lat="4.9612270" lon="-75.5044150">
        <ele>2171.5</ele>
        <time>2021-04-17T20:55:37Z</time>
      </trkpt>
      <trkpt lat="4.9612450" lon="-75.5044090">
        <ele>2171.7</ele>
        <time>2021-04-17T20:55:38Z</time>
      </trkpt>
      <trkpt lat="4.9612630" lon="-75.5044000">
        <ele>2171.9</ele>
        <time>2021-04-17T20:55:39Z</time>
      </trkpt>
      <trkpt lat="4.9612810" lon="-75.5043940">
        <ele>2172.1</ele>
        <time>2021-04-17T20:55:40Z</time>
      </trkpt>
      <trkpt lat="4.9612990" lon="-75.5043870">
        <ele>2172.3</ele>
        <time>2021-04-17T20:55:41Z</time>
      </trkpt>
      <trkpt lat="4.9613180" lon="-75.5043820">
        <ele>2172.5</ele>
        <time>2021-04-17T20:55:42Z</time>
      </trkpt>
      <trkpt lat="4.9613350" lon="-75.5043790">
        <ele>2172.7</ele>
        <time>2021-04-17T20:55:43Z</time>
      </trkpt>
      <trkpt lat="4.9613520" lon="-75.5043770">
        <ele>2172.8</ele>
        <time>2021-04-17T20:55:44Z</time>
      </trkpt>
      <trkpt lat="4.9613690" lon="-75.5043770">
        <ele>2173.0</ele>
        <time>2021-04-17T20:55:45Z</time>
      </trkpt>
      <trkpt lat="4.9613840" lon="-75.5043740">
        <ele>2173.2</ele>
        <time>2021-04-17T20:55:46Z</time>
      </trkpt>
      <trkpt lat="4.9614000" lon="-75.5043720">
        <ele>2173.3</ele>
        <time>2021-04-17T20:55:47Z</time>
      </trkpt>
      <trkpt lat="4.9614170" lon="-75.5043760">
        <ele>2173.5</ele>
        <time>2021-04-17T20:55:48Z</time>
      </trkpt>
      <trkpt lat="4.9614340" lon="-75.5043840">
        <ele>2173.7</ele>
        <time>2021-04-17T20:55:49Z</time>
      </trkpt>
      <trkpt lat="4.9614520" lon="-75.5043920">
        <ele>2173.9</ele>
        <time>2021-04-17T20:55:50Z</time>
      </trkpt>
      <trkpt lat="4.9614730" lon="-75.5044010">
        <ele>2174.2</ele>
        <time>2021-04-17T20:55:51Z</time>
      </trkpt>
      <trkpt lat="4.9614910" lon="-75.5044110">
        <ele>2174.4</ele>
        <time>2021-04-17T20:55:52Z</time>
      </trkpt>
      <trkpt lat="4.9615090" lon="-75.5044220">
        <ele>2174.6</ele>
        <time>2021-04-17T20:55:53Z</time>
      </trkpt>
      <trkpt lat="4.9615270" lon="-75.5044330">
        <ele>2174.8</ele>
        <time>2021-04-17T20:55:54Z</time>
      </trkpt>
      <trkpt lat="4.9615430" lon="-75.5044440">
        <ele>2175.0</ele>
        <time>2021-04-17T20:55:55Z</time>
      </trkpt>
      <trkpt lat="4.9615570" lon="-75.5044550">
        <ele>2175.2</ele>
        <time>2021-04-17T20:55:56Z</time>
      </trkpt>
      <trkpt lat="4.9615700" lon="-75.5044680">
        <ele>2175.4</ele>
        <time>2021-04-17T20:55:57Z</time>
      </trkpt>
      <trkpt lat="4.9615820" lon="-75.5044800">
        <ele>2175.6</ele>
        <time>2021-04-17T20:55:58Z</time>
      </trkpt>
      <trkpt lat="4.9615960" lon="-75.5044910">
        <ele>2175.8</ele>
        <time>2021-04-17T20:55:59Z</time>
      </trkpt>
      <trkpt lat="4.9616070" lon="-75.5045020">
        <ele>2176.0</ele>
        <time>2021-04-17T20:56:00Z</time>
      </trkpt>
      <trkpt lat="4.9616190" lon="-75.5045130">
        <ele>2176.1</ele>
        <time>2021-04-17T20:56:01Z</time>
      </trkpt>
      <trkpt lat="4.9616320" lon="-75.5045240">
        <ele>2176.3</ele>
        <time>2021-04-17T20:56:02Z</time>
      </trkpt>
      <trkpt lat="4.9616460" lon="-75.5045350">
        <ele>2176.5</ele>
        <time>2021-04-17T20:56:03Z</time>
      </trkpt>
      <trkpt lat="4.9616620" lon="-75.5045480">
        <ele>2176.7</ele>
        <time>2021-04-17T20:56:04Z</time>
      </trkpt>
      <trkpt lat="4.9616790" lon="-75.5045570">
        <ele>2176.9</ele>
        <time>2021-04-17T20:56:05Z</time>
      </trkpt>
      <trkpt lat="4.9616960" lon="-75.5045660">
        <ele>2177.1</ele>
        <time>2021-04-17T20:56:06Z</time>
      </trkpt>
      <trkpt lat="4.9617140" lon="-75.5045740">
        <ele>2177.3</ele>
        <time>2021-04-17T20:56:07Z</time>
      </trkpt>
      <trkpt lat="4.9617300" lon="-75.5045820">
        <ele>2177.5</ele>
        <time>2021-04-17T20:56:08Z</time>
      </trkpt>
      <trkpt lat="4.9617470" lon="-75.5045920">
        <ele>2177.7</ele>
        <time>2021-04-17T20:56:09Z</time>
      </trkpt>
      <trkpt lat="4.9617630" lon="-75.5046040">
        <ele>2177.9</ele>
        <time>2021-04-17T20:56:10Z</time>
      </trkpt>
      <trkpt lat="4.9617800" lon="-75.5046140">
        <ele>2178.1</ele>
        <time>2021-04-17T20:56:11Z</time>
      </trkpt>
      <trkpt lat="4.9617980" lon="-75.5046230">
        <ele>2178.4</ele>
        <time>2021-04-17T20:56:12Z</time>
      </trkpt>
      <trkpt lat="4.9618170" lon="-75.5046300">
        <ele>2178.6</ele>
        <time>2021-04-17T20:56:13Z</time>
      </trkpt>
      <trkpt lat="4.9618360" lon="-75.5046340">
        <ele>2178.8</ele>
        <time>2021-04-17T20:56:14Z</time>
      </trkpt>
      <trkpt lat="4.9618540" lon="-75.5046380">
        <ele>2179.0</ele>
        <time>2021-04-17T20:56:15Z</time>
      </trkpt>
      <trkpt lat="4.9618730" lon="-75.5046400">
        <ele>2179.2</ele>
        <time>2021-04-17T20:56:16Z</time>
      </trkpt>
      <trkpt lat="4.9618930" lon="-75.5046440">
        <ele>2179.5</ele>
        <time>2021-04-17T20:56:17Z</time>
      </trkpt>
      <trkpt lat="4.9619130" lon="-75.5046440">
        <ele>2179.7</ele>
        <time>2021-04-17T20:56:18Z</time>
      </trkpt>
      <trkpt lat="4.9619340" lon="-75.5046430">
        <ele>2179.9</ele>
        <time>2021-04-17T20:56:19Z</time>
      </trkpt>
      <trkpt lat="4.9619540" lon="-75.5046430">
        <ele>2180.1</ele>
        <time>2021-04-17T20:56:20Z</time>
      </trkpt>
      <trkpt lat="4.9619730" lon="-75.5046420">
        <ele>2180.3</ele>
        <time>2021-04-17T20:56:21Z</time>
      </trkpt>
      <trkpt lat="4.9619890" lon="-75.5046380">
        <ele>2180.5</ele>
        <time>2021-04-17T20:56:22Z</time>
      </trkpt>
      <trkpt lat="4.9620040" lon="-75.5046330">
        <ele>2180.7</ele>
        <time>2021-04-17T20:56:23Z</time>
      </trkpt>
      <trkpt lat="4.9620180" lon="-75.5046280">
        <ele>2180.8</ele>
        <time>2021-04-17T20:56:24Z</time>
      </trkpt>
      <trkpt lat="4.9620320" lon="-75.5046230">
        <ele>2181.0</ele>
        <time>2021-04-17T20:56:25Z</time>
      </trkpt>
      <trkpt lat="4.9620460" lon="-75.5046190">
        <ele>2181.1</ele>
        <time>2021-04-17T20:56:26Z</time>
      </trkpt>
      <trkpt lat="4.9620610" lon="-75.5046120">
        <ele>2181.3</ele>
        <time>2021-04-17T20:56:27Z</time>
      </trkpt>
      <trkpt lat="4.9620750" lon="-75.5046030">
        <ele>2181.5</ele>
        <time>2021-04-17T20:56:28Z</time>
      </trkpt>
      <trkpt lat="4.9620870" lon="-75.5045960">
        <ele>2181.6</ele>
        <time>2021-04-17T20:56:29Z</time>
      </trkpt>
      <trkpt lat="4.9621000" lon="-75.5045830">
        <ele>2181.8</ele>
        <time>2021-04-17T20:56:30Z</time>
      </trkpt>
      <trkpt lat="4.9621120" lon="-75.5045700">
        <ele>2182.0</ele>
        <time>2021-04-17T20:56:31Z</time>
      </trkpt>
      <trkpt lat="4.9621240" lon="-75.5045570">
        <ele>2182.3</ele>
        <time>2021-04-17T20:56:32Z</time>
      </trkpt>
      <trkpt lat="4.9621330" lon="-75.5045400">
        <ele>2182.5</ele>
        <time>2021-04-17T20:56:33Z</time>
      </trkpt>
      <trkpt lat="4.9621410" lon="-75.5045220">
        <ele>2182.7</ele>
        <time>2021-04-17T20:56:34Z</time>
      </trkpt>
      <trkpt lat="4.9621500" lon="-75.5045050">
        <ele>2182.9</ele>
        <time>2021-04-17T20:56:35Z</time>
      </trkpt>
      <trkpt lat="4.9621590" lon="-75.5044900">
        <ele>2183.1</ele>
        <time>2021-04-17T20:56:36Z</time>
      </trkpt>
      <trkpt lat="4.9621690" lon="-75.5044740">
        <ele>2183.3</ele>
        <time>2021-04-17T20:56:37Z</time>
      </trkpt>
      <trkpt lat="4.9621820" lon="-75.5044580">
        <ele>2183.5</ele>
        <time>2021-04-17T20:56:38Z</time>
      </trkpt>
      <trkpt lat="4.9621980" lon="-75.5044420">
        <ele>2183.8</ele>
        <time>2021-04-17T20:56:39Z</time>
      </trkpt>
      <trkpt lat="4.9622090" lon="-75.5044260">
        <ele>2184.0</ele>
        <time>2021-04-17T20:56:40Z</time>
      </trkpt>
      <trkpt lat="4.9622200" lon="-75.5044160">
        <ele>2184.1</ele>
        <time>2021-04-17T20:56:41Z</time>
      </trkpt>
      <trkpt lat="4.9622350" lon="-75.5044060">
        <ele>2184.3</ele>
        <time>2021-04-17T20:56:42Z</time>
      </trkpt>
      <trkpt lat="4.9622520" lon="-75.5043970">
        <ele>2184.5</ele>
        <time>2021-04-17T20:56:43Z</time>
      </trkpt>
      <trkpt lat="4.9622710" lon="-75.5043880">
        <ele>2184.8</ele>
        <time>2021-04-17T20:56:44Z</time>
      </trkpt>
      <trkpt lat="4.9622930" lon="-75.5043800">
        <ele>2185.0</ele>
        <time>2021-04-17T20:56:45Z</time>
      </trkpt>
      <trkpt lat="4.9623160" lon="-75.5043770">
        <ele>2185.1</ele>
        <time>2021-04-17T20:56:46Z</time>
      </trkpt>
      <trkpt lat="4.9623390" lon="-75.5043760">
        <ele>2185.2</ele>
        <time>2021-04-17T20:56:47Z</time>
      </trkpt>
      <trkpt lat="4.9623620" lon="-75.5043790">
        <ele>2185.3</ele>
        <time>2021-04-17T20:56:48Z</time>
      </trkpt>
      <trkpt lat="4.9623840" lon="-75.5043810">
        <ele>2185.4</ele>
        <time>2021-04-17T20:56:49Z</time>
      </trkpt>
      <trkpt lat="4.9624040" lon="-75.5043830">
        <ele>2185.5</ele>
        <time>2021-04-17T20:56:50Z</time>
      </trkpt>
      <trkpt lat="4.9624230" lon="-75.5043880">
        <ele>2185.6</ele>
        <time>2021-04-17T20:56:51Z</time>
      </trkpt>
      <trkpt lat="4.9624420" lon="-75.5043910">
        <ele>2185.7</ele>
        <time>2021-04-17T20:56:52Z</time>
      </trkpt>
      <trkpt lat="4.9624630" lon="-75.5043920">
        <ele>2185.8</ele>
        <time>2021-04-17T20:56:53Z</time>
      </trkpt>
      <trkpt lat="4.9624840" lon="-75.5043930">
        <ele>2185.9</ele>
        <time>2021-04-17T20:56:54Z</time>
      </trkpt>
      <trkpt lat="4.9625030" lon="-75.5043930">
        <ele>2186.1</ele>
        <time>2021-04-17T20:56:55Z</time>
      </trkpt>
      <trkpt lat="4.9625210" lon="-75.5043980">
        <ele>2186.2</ele>
        <time>2021-04-17T20:56:56Z</time>
      </trkpt>
      <trkpt lat="4.9625360" lon="-75.5044030">
        <ele>2186.3</ele>
        <time>2021-04-17T20:56:57Z</time>
      </trkpt>
      <trkpt lat="4.9625470" lon="-75.5044060">
        <ele>2186.4</ele>
        <time>2021-04-17T20:56:58Z</time>
      </trkpt>
      <trkpt lat="4.9625600" lon="-75.5044100">
        <ele>2186.5</ele>
        <time>2021-04-17T20:56:59Z</time>
      </trkpt>
      <trkpt lat="4.9625770" lon="-75.5044110">
        <ele>2186.6</ele>
        <time>2021-04-17T20:57:00Z</time>
      </trkpt>
      <trkpt lat="4.9625920" lon="-75.5044110">
        <ele>2186.7</ele>
        <time>2021-04-17T20:57:01Z</time>
      </trkpt>
      <trkpt lat="4.9626080" lon="-75.5044110">
        <ele>2186.8</ele>
        <time>2021-04-17T20:57:02Z</time>
      </trkpt>
      <trkpt lat="4.9626250" lon="-75.5044090">
        <ele>2186.9</ele>
        <time>2021-04-17T20:57:03Z</time>
      </trkpt>
      <trkpt lat="4.9626350" lon="-75.5044080">
        <ele>2187.0</ele>
        <time>2021-04-17T20:57:04Z</time>
      </trkpt>
      <trkpt lat="4.9626380" lon="-75.5044100">
        <ele>2187.0</ele>
        <time>2021-04-17T20:57:05Z</time>
      </trkpt>
      <trkpt lat="4.9626390" lon="-75.5044110">
        <ele>2187.0</ele>
        <time>2021-04-17T20:57:06Z</time>
      </trkpt>
      <trkpt lat="4.9626400" lon="-75.5044120">
        <ele>2187.0</ele>
        <time>2021-04-17T20:57:07Z</time>
      </trkpt>
      <trkpt lat="4.9626400" lon="-75.5044130">
        <ele>2187.0</ele>
        <time>2021-04-17T20:57:08Z</time>
      </trkpt>
      <trkpt lat="4.9626410" lon="-75.5044130">
        <ele>2187.1</ele>
        <time>2021-04-17T20:57:09Z</time>
      </trkpt>
      <trkpt lat="4.9626410" lon="-75.5044140">
        <ele>2187.1</ele>
        <time>2021-04-17T20:57:10Z</time>
      </trkpt>
      <trkpt lat="4.9626400" lon="-75.5044170">
        <ele>2187.1</ele>
        <time>2021-04-17T20:57:11Z</time>
      </trkpt>
      <trkpt lat="4.9626400" lon="-75.5044190">
        <ele>2187.1</ele>
        <time>2021-04-17T20:57:12Z</time>
      </trkpt>
      <trkpt lat="4.9626390" lon="-75.5044200">
        <ele>2187.1</ele>
        <time>2021-04-17T20:57:13Z</time>
      </trkpt>
      <trkpt lat="4.9626390" lon="-75.5044200">
        <ele>2187.1</ele>
        <time>2021-04-17T20:57:14Z</time>
      </trkpt>
      <trkpt lat="4.9626400" lon="-75.5044220">
        <ele>2187.1</ele>
        <time>2021-04-17T20:57:15Z</time>
      </trkpt>
      <trkpt lat="4.9626400" lon="-75.5044210">
        <ele>2187.1</ele>
        <time>2021-04-17T20:57:16Z</time>
      </trkpt>
      <trkpt lat="4.9626400" lon="-75.5044210">
        <ele>2187.1</ele>
        <time>2021-04-17T20:57:17Z</time>
      </trkpt>
      <trkpt lat="4.9626420" lon="-75.5044190">
        <ele>2187.1</ele>
        <time>2021-04-17T20:57:18Z</time>
      </trkpt>
      <trkpt lat="4.9626530" lon="-75.5044160">
        <ele>2187.2</ele>
        <time>2021-04-17T20:57:19Z</time>
      </trkpt>
      <trkpt lat="4.9626680" lon="-75.5044110">
        <ele>2187.3</ele>
        <time>2021-04-17T20:57:20Z</time>
      </trkpt>
      <trkpt lat="4.9626810" lon="-75.5044060">
        <ele>2187.4</ele>
        <time>2021-04-17T20:57:21Z</time>
      </trkpt>
      <trkpt lat="4.9626960" lon="-75.5044000">
        <ele>2187.5</ele>
        <time>2021-04-17T20:57:22Z</time>
      </trkpt>
      <trkpt lat="4.9627120" lon="-75.5043950">
        <ele>2187.5</ele>
        <time>2021-04-17T20:57:23Z</time>
      </trkpt>
      <trkpt lat="4.9627320" lon="-75.5043910">
        <ele>2187.6</ele>
        <time>2021-04-17T20:57:24Z</time>
      </trkpt>
      <trkpt lat="4.9627540" lon="-75.5043860">
        <ele>2187.7</ele>
        <time>2021-04-17T20:57:25Z</time>
      </trkpt>
      <trkpt lat="4.9627750" lon="-75.5043790">
        <ele>2187.8</ele>
        <time>2021-04-17T20:57:26Z</time>
      </trkpt>
      <trkpt lat="4.9627980" lon="-75.5043740">
        <ele>2187.9</ele>
        <time>2021-04-17T20:57:27Z</time>
      </trkpt>
      <trkpt lat="4.9628220" lon="-75.5043660">
        <ele>2188.0</ele>
        <time>2021-04-17T20:57:28Z</time>
      </trkpt>
      <trkpt lat="4.9628470" lon="-75.5043570">
        <ele>2188.1</ele>
        <time>2021-04-17T20:57:29Z</time>
      </trkpt>
      <trkpt lat="4.9628720" lon="-75.5043480">
        <ele>2188.2</ele>
        <time>2021-04-17T20:57:30Z</time>
      </trkpt>
      <trkpt lat="4.9628970" lon="-75.5043400">
        <ele>2188.3</ele>
        <time>2021-04-17T20:57:31Z</time>
      </trkpt>
      <trkpt lat="4.9629220" lon="-75.5043290">
        <ele>2188.4</ele>
        <time>2021-04-17T20:57:32Z</time>
      </trkpt>
      <trkpt lat="4.9629450" lon="-75.5043190">
        <ele>2188.5</ele>
        <time>2021-04-17T20:57:33Z</time>
      </trkpt>
      <trkpt lat="4.9629690" lon="-75.5043090">
        <ele>2188.6</ele>
        <time>2021-04-17T20:57:34Z</time>
      </trkpt>
      <trkpt lat="4.9629940" lon="-75.5042980">
        <ele>2188.7</ele>
        <time>2021-04-17T20:57:35Z</time>
      </trkpt>
      <trkpt lat="4.9630180" lon="-75.5042840">
        <ele>2188.8</ele>
        <time>2021-04-17T20:57:36Z</time>
      </trkpt>
      <trkpt lat="4.9630430" lon="-75.5042700">
        <ele>2188.9</ele>
        <time>2021-04-17T20:57:37Z</time>
      </trkpt>
      <trkpt lat="4.9630660" lon="-75.5042550">
        <ele>2189.0</ele>
        <time>2021-04-17T20:57:38Z</time>
      </trkpt>
      <trkpt lat="4.9630880" lon="-75.5042370">
        <ele>2189.1</ele>
        <time>2021-04-17T20:57:39Z</time>
      </trkpt>
      <trkpt lat="4.9631110" lon="-75.5042170">
        <ele>2189.2</ele>
        <time>2021-04-17T20:57:40Z</time>
      </trkpt>
      <trkpt lat="4.9631350" lon="-75.5041980">
        <ele>2189.2</ele>
        <time>2021-04-17T20:57:41Z</time>
      </trkpt>
      <trkpt lat="4.9631610" lon="-75.5041840">
        <ele>2189.3</ele>
        <time>2021-04-17T20:57:42Z</time>
      </trkpt>
      <trkpt lat="4.9631890" lon="-75.5041720">
        <ele>2189.4</ele>
        <time>2021-04-17T20:57:43Z</time>
      </trkpt>
      <trkpt lat="4.9632160" lon="-75.5041590">
        <ele>2189.5</ele>
        <time>2021-04-17T20:57:44Z</time>
      </trkpt>
      <trkpt lat="4.9632440" lon="-75.5041450">
        <ele>2189.6</ele>
        <time>2021-04-17T20:57:45Z</time>
      </trkpt>
      <trkpt lat="4.9632740" lon="-75.5041320">
        <ele>2189.7</ele>
        <time>2021-04-17T20:57:46Z</time>
      </trkpt>
      <trkpt lat="4.9633030" lon="-75.5041200">
        <ele>2189.8</ele>
        <time>2021-04-17T20:57:47Z</time>
      </trkpt>
      <trkpt lat="4.9633320" lon="-75.5041100">
        <ele>2190.0</ele>
        <time>2021-04-17T20:57:48Z</time>
      </trkpt>
      <trkpt lat="4.9633640" lon="-75.5041020">
        <ele>2190.1</ele>
        <time>2021-04-17T20:57:49Z</time>
      </trkpt>
      <trkpt lat="4.9633950" lon="-75.5040930">
        <ele>2190.2</ele>
        <time>2021-04-17T20:57:50Z</time>
      </trkpt>
      <trkpt lat="4.9634260" lon="-75.5040840">
        <ele>2190.4</ele>
        <time>2021-04-17T20:57:51Z</time>
      </trkpt>
      <trkpt lat="4.9634550" lon="-75.5040750">
        <ele>2190.5</ele>
        <time>2021-04-17T20:57:52Z</time>
      </trkpt>
      <trkpt lat="4.9634840" lon="-75.5040660">
        <ele>2190.7</ele>
        <time>2021-04-17T20:57:53Z</time>
      </trkpt>
      <trkpt lat="4.9635110" lon="-75.5040600">
        <ele>2190.8</ele>
        <time>2021-04-17T20:57:54Z</time>
      </trkpt>
      <trkpt lat="4.9635380" lon="-75.5040570">
        <ele>2191.0</ele>
        <time>2021-04-17T20:57:55Z</time>
      </trkpt>
      <trkpt lat="4.9635640" lon="-75.5040510">
        <ele>2191.1</ele>
        <time>2021-04-17T20:57:56Z</time>
      </trkpt>
      <trkpt lat="4.9635910" lon="-75.5040470">
        <ele>2191.3</ele>
        <time>2021-04-17T20:57:57Z</time>
      </trkpt>
      <trkpt lat="4.9636170" lon="-75.5040430">
        <ele>2191.4</ele>
        <time>2021-04-17T20:57:58Z</time>
      </trkpt>
      <trkpt lat="4.9636410" lon="-75.5040350">
        <ele>2191.5</ele>
        <time>2021-04-17T20:57:59Z</time>
      </trkpt>
      <trkpt lat="4.9636650" lon="-75.5040280">
        <ele>2191.7</ele>
        <time>2021-04-17T20:58:00Z</time>
      </trkpt>
      <trkpt lat="4.9636870" lon="-75.5040190">
        <ele>2191.9</ele>
        <time>2021-04-17T20:58:01Z</time>
      </trkpt>
      <trkpt lat="4.9637070" lon="-75.5040080">
        <ele>2192.0</ele>
        <time>2021-04-17T20:58:02Z</time>
      </trkpt>
      <trkpt lat="4.9637280" lon="-75.5039970">
        <ele>2192.2</ele>
        <time>2021-04-17T20:58:03Z</time>
      </trkpt>
      <trkpt lat="4.9637500" lon="-75.5039850">
        <ele>2192.4</ele>
        <time>2021-04-17T20:58:04Z</time>
      </trkpt>
      <trkpt lat="4.9637740" lon="-75.5039730">
        <ele>2192.7</ele>
        <time>2021-04-17T20:58:05Z</time>
      </trkpt>
      <trkpt lat="4.9637990" lon="-75.5039610">
        <ele>2192.9</ele>
        <time>2021-04-17T20:58:06Z</time>
      </trkpt>
      <trkpt lat="4.9638240" lon="-75.5039500">
        <ele>2193.2</ele>
        <time>2021-04-17T20:58:07Z</time>
      </trkpt>
      <trkpt lat="4.9638490" lon="-75.5039390">
        <ele>2193.6</ele>
        <time>2021-04-17T20:58:08Z</time>
      </trkpt>
      <trkpt lat="4.9638720" lon="-75.5039250">
        <ele>2193.9</ele>
        <time>2021-04-17T20:58:09Z</time>
      </trkpt>
      <trkpt lat="4.9638940" lon="-75.5039100">
        <ele>2194.2</ele>
        <time>2021-04-17T20:58:10Z</time>
      </trkpt>
      <trkpt lat="4.9639160" lon="-75.5038970">
        <ele>2194.5</ele>
        <time>2021-04-17T20:58:11Z</time>
      </trkpt>
      <trkpt lat="4.9639380" lon="-75.5038850">
        <ele>2194.8</ele>
        <time>2021-04-17T20:58:12Z</time>
      </trkpt>
      <trkpt lat="4.9639580" lon="-75.5038730">
        <ele>2195.1</ele>
        <time>2021-04-17T20:58:13Z</time>
      </trkpt>
      <trkpt lat="4.9639790" lon="-75.5038600">
        <ele>2195.4</ele>
        <time>2021-04-17T20:58:14Z</time>
      </trkpt>
      <trkpt lat="4.9640010" lon="-75.5038500">
        <ele>2195.7</ele>
        <time>2021-04-17T20:58:15Z</time>
      </trkpt>
      <trkpt lat="4.9640230" lon="-75.5038400">
        <ele>2196.0</ele>
        <time>2021-04-17T20:58:16Z</time>
      </trkpt>
      <trkpt lat="4.9640460" lon="-75.5038310">
        <ele>2196.2</ele>
        <time>2021-04-17T20:58:17Z</time>
      </trkpt>
      <trkpt lat="4.9640700" lon="-75.5038250">
        <ele>2196.5</ele>
        <time>2021-04-17T20:58:18Z</time>
      </trkpt>
      <trkpt lat="4.9640930" lon="-75.5038190">
        <ele>2196.8</ele>
        <time>2021-04-17T20:58:19Z</time>
      </trkpt>
      <trkpt lat="4.9641130" lon="-75.5038130">
        <ele>2197.0</ele>
        <time>2021-04-17T20:58:20Z</time>
      </trkpt>
      <trkpt lat="4.9641360" lon="-75.5038070">
        <ele>2197.3</ele>
        <time>2021-04-17T20:58:21Z</time>
      </trkpt>
      <trkpt lat="4.9641590" lon="-75.5038010">
        <ele>2197.5</ele>
        <time>2021-04-17T20:58:22Z</time>
      </trkpt>
      <trkpt lat="4.9641850" lon="-75.5037990">
        <ele>2197.8</ele>
        <time>2021-04-17T20:58:23Z</time>
      </trkpt>
      <trkpt lat="4.9642110" lon="-75.5037960">
        <ele>2198.1</ele>
        <time>2021-04-17T20:58:24Z</time>
      </trkpt>
      <trkpt lat="4.9642360" lon="-75.5037940">
        <ele>2198.4</ele>
        <time>2021-04-17T20:58:25Z</time>
      </trkpt>
      <trkpt lat="4.9642580" lon="-75.5037930">
        <ele>2198.6</ele>
        <time>2021-04-17T20:58:26Z</time>
      </trkpt>
      <trkpt lat="4.9642790" lon="-75.5037880">
        <ele>2198.9</ele>
        <time>2021-04-17T20:58:27Z</time>
      </trkpt>
      <trkpt lat="4.9642970" lon="-75.5037830">
        <ele>2199.1</ele>
        <time>2021-04-17T20:58:28Z</time>
      </trkpt>
      <trkpt lat="4.9643150" lon="-75.5037770">
        <ele>2199.3</ele>
        <time>2021-04-17T20:58:29Z</time>
      </trkpt>
      <trkpt lat="4.9643330" lon="-75.5037680">
        <ele>2199.6</ele>
        <time>2021-04-17T20:58:30Z</time>
      </trkpt>
      <trkpt lat="4.9643490" lon="-75.5037580">
        <ele>2199.8</ele>
        <time>2021-04-17T20:58:31Z</time>
      </trkpt>
      <trkpt lat="4.9643640" lon="-75.5037460">
        <ele>2200.0</ele>
        <time>2021-04-17T20:58:32Z</time>
      </trkpt>
      <trkpt lat="4.9643780" lon="-75.5037370">
        <ele>2200.2</ele>
        <time>2021-04-17T20:58:33Z</time>
      </trkpt>
      <trkpt lat="4.9643910" lon="-75.5037270">
        <ele>2200.4</ele>
        <time>2021-04-17T20:58:34Z</time>
      </trkpt>
      <trkpt lat="4.9644060" lon="-75.5037150">
        <ele>2200.7</ele>
        <time>2021-04-17T20:58:35Z</time>
      </trkpt>
      <trkpt lat="4.9644210" lon="-75.5037030">
        <ele>2200.9</ele>
        <time>2021-04-17T20:58:36Z</time>
      </trkpt>
      <trkpt lat="4.9644360" lon="-75.5036900">
        <ele>2201.2</ele>
        <time>2021-04-17T20:58:37Z</time>
      </trkpt>
      <trkpt lat="4.9644530" lon="-75.5036790">
        <ele>2201.4</ele>
        <time>2021-04-17T20:58:38Z</time>
      </trkpt>
      <trkpt lat="4.9644670" lon="-75.5036640">
        <ele>2201.7</ele>
        <time>2021-04-17T20:58:39Z</time>
      </trkpt>
      <trkpt lat="4.9644830" lon="-75.5036500">
        <ele>2202.0</ele>
        <time>2021-04-17T20:58:40Z</time>
      </trkpt>
      <trkpt lat="4.9644980" lon="-75.5036320">
        <ele>2202.3</ele>
        <time>2021-04-17T20:58:41Z</time>
      </trkpt>
      <trkpt lat="4.9645110" lon="-75.5036120">
        <ele>2202.6</ele>
        <time>2021-04-17T20:58:42Z</time>
      </trkpt>
      <trkpt lat="4.9645200" lon="-75.5035930">
        <ele>2202.8</ele>
        <time>2021-04-17T20:58:43Z</time>
      </trkpt>
      <trkpt lat="4.9645280" lon="-75.5035780">
        <ele>2203.1</ele>
        <time>2021-04-17T20:58:44Z</time>
      </trkpt>
      <trkpt lat="4.9645370" lon="-75.5035610">
        <ele>2203.3</ele>
        <time>2021-04-17T20:58:45Z</time>
      </trkpt>
      <trkpt lat="4.9645430" lon="-75.5035440">
        <ele>2203.5</ele>
        <time>2021-04-17T20:58:46Z</time>
      </trkpt>
      <trkpt lat="4.9645490" lon="-75.5035290">
        <ele>2203.8</ele>
        <time>2021-04-17T20:58:47Z</time>
      </trkpt>
      <trkpt lat="4.9645520" lon="-75.5035140">
        <ele>2204.0</ele>
        <time>2021-04-17T20:58:48Z</time>
      </trkpt>
      <trkpt lat="4.9645580" lon="-75.5034990">
        <ele>2204.2</ele>
        <time>2021-04-17T20:58:49Z</time>
      </trkpt>
      <trkpt lat="4.9645640" lon="-75.5034830">
        <ele>2204.4</ele>
        <time>2021-04-17T20:58:50Z</time>
      </trkpt>
      <trkpt lat="4.9645690" lon="-75.5034650">
        <ele>2204.7</ele>
        <time>2021-04-17T20:58:51Z</time>
      </trkpt>
      <trkpt lat="4.9645750" lon="-75.5034470">
        <ele>2205.0</ele>
        <time>2021-04-17T20:58:52Z</time>
      </trkpt>
      <trkpt lat="4.9645790" lon="-75.5034290">
        <ele>2205.2</ele>
        <time>2021-04-17T20:58:53Z</time>
      </trkpt>
      <trkpt lat="4.9645800" lon="-75.5034100">
        <ele>2205.5</ele>
        <time>2021-04-17T20:58:54Z</time>
      </trkpt>
      <trkpt lat="4.9645800" lon="-75.5033920">
        <ele>2205.8</ele>
        <time>2021-04-17T20:58:55Z</time>
      </trkpt>
      <trkpt lat="4.9645810" lon="-75.5033740">
        <ele>2206.0</ele>
        <time>2021-04-17T20:58:56Z</time>
      </trkpt>
      <trkpt lat="4.9645820" lon="-75.5033560">
        <ele>2206.3</ele>
        <time>2021-04-17T20:58:57Z</time>
      </trkpt>
      <trkpt lat="4.9645830" lon="-75.5033390">
        <ele>2206.5</ele>
        <time>2021-04-17T20:58:58Z</time>
      </trkpt>
      <trkpt lat="4.9645830" lon="-75.5033220">
        <ele>2206.8</ele>
        <time>2021-04-17T20:58:59Z</time>
      </trkpt>
      <trkpt lat="4.9645850" lon="-75.5033080">
        <ele>2207.0</ele>
        <time>2021-04-17T20:59:00Z</time>
      </trkpt>
      <trkpt lat="4.9645870" lon="-75.5032930">
        <ele>2207.2</ele>
        <time>2021-04-17T20:59:01Z</time>
      </trkpt>
      <trkpt lat="4.9645870" lon="-75.5032810">
        <ele>2207.3</ele>
        <time>2021-04-17T20:59:02Z</time>
      </trkpt>
      <trkpt lat="4.9645880" lon="-75.5032670">
        <ele>2207.5</ele>
        <time>2021-04-17T20:59:03Z</time>
      </trkpt>
      <trkpt lat="4.9645870" lon="-75.5032510">
        <ele>2207.8</ele>
        <time>2021-04-17T20:59:04Z</time>
      </trkpt>
      <trkpt lat="4.9645840" lon="-75.5032390">
        <ele>2207.9</ele>
        <time>2021-04-17T20:59:05Z</time>
      </trkpt>
      <trkpt lat="4.9645820" lon="-75.5032250">
        <ele>2208.1</ele>
        <time>2021-04-17T20:59:06Z</time>
      </trkpt>
      <trkpt lat="4.9645810" lon="-75.5032100">
        <ele>2208.4</ele>
        <time>2021-04-17T20:59:07Z</time>
      </trkpt>
      <trkpt lat="4.9645810" lon="-75.5031950">
        <ele>2208.5</ele>
        <time>2021-04-17T20:59:08Z</time>
      </trkpt>
      <trkpt lat="4.9645840" lon="-75.5031790">
        <ele>2208.8</ele>
        <time>2021-04-17T20:59:09Z</time>
      </trkpt>
      <trkpt lat="4.9645850" lon="-75.5031670">
        <ele>2208.9</ele>
        <time>2021-04-17T20:59:10Z</time>
      </trkpt>
      <trkpt lat="4.9645850" lon="-75.5031540">
        <ele>2209.1</ele>
        <time>2021-04-17T20:59:11Z</time>
      </trkpt>
      <trkpt lat="4.9645880" lon="-75.5031400">
        <ele>2209.3</ele>
        <time>2021-04-17T20:59:12Z</time>
      </trkpt>
      <trkpt lat="4.9645880" lon="-75.5031290">
        <ele>2209.4</ele>
        <time>2021-04-17T20:59:13Z</time>
      </trkpt>
      <trkpt lat="4.9645910" lon="-75.5031140">
        <ele>2209.6</ele>
        <time>2021-04-17T20:59:14Z</time>
      </trkpt>
      <trkpt lat="4.9645950" lon="-75.5030990">
        <ele>2209.8</ele>
        <time>2021-04-17T20:59:15Z</time>
      </trkpt>
      <trkpt lat="4.9646010" lon="-75.5030850">
        <ele>2210.0</ele>
        <time>2021-04-17T20:59:16Z</time>
      </trkpt>
      <trkpt lat="4.9646070" lon="-75.5030730">
        <ele>2210.2</ele>
        <time>2021-04-17T20:59:17Z</time>
      </trkpt>
      <trkpt lat="4.9646110" lon="-75.5030620">
        <ele>2210.4</ele>
        <time>2021-04-17T20:59:18Z</time>
      </trkpt>
      <trkpt lat="4.9646170" lon="-75.5030520">
        <ele>2210.5</ele>
        <time>2021-04-17T20:59:19Z</time>
      </trkpt>
      <trkpt lat="4.9646270" lon="-75.5030410">
        <ele>2210.7</ele>
        <time>2021-04-17T20:59:20Z</time>
      </trkpt>
      <trkpt lat="4.9646370" lon="-75.5030300">
        <ele>2210.9</ele>
        <time>2021-04-17T20:59:21Z</time>
      </trkpt>
      <trkpt lat="4.9646490" lon="-75.5030190">
        <ele>2211.2</ele>
        <time>2021-04-17T20:59:22Z</time>
      </trkpt>
      <trkpt lat="4.9646620" lon="-75.5030090">
        <ele>2211.4</ele>
        <time>2021-04-17T20:59:23Z</time>
      </trkpt>
      <trkpt lat="4.9646760" lon="-75.5030000">
        <ele>2211.6</ele>
        <time>2021-04-17T20:59:24Z</time>
      </trkpt>
      <trkpt lat="4.9646910" lon="-75.5029950">
        <ele>2211.9</ele>
        <time>2021-04-17T20:59:25Z</time>
      </trkpt>
      <trkpt lat="4.9647040" lon="-75.5029900">
        <ele>2212.1</ele>
        <time>2021-04-17T20:59:26Z</time>
      </trkpt>
      <trkpt lat="4.9647170" lon="-75.5029850">
        <ele>2212.3</ele>
        <time>2021-04-17T20:59:27Z</time>
      </trkpt>
      <trkpt lat="4.9647330" lon="-75.5029800">
        <ele>2212.5</ele>
        <time>2021-04-17T20:59:28Z</time>
      </trkpt>
      <trkpt lat="4.9647480" lon="-75.5029770">
        <ele>2212.8</ele>
        <time>2021-04-17T20:59:29Z</time>
      </trkpt>
      <trkpt lat="4.9647640" lon="-75.5029750">
        <ele>2213.0</ele>
        <time>2021-04-17T20:59:30Z</time>
      </trkpt>
      <trkpt lat="4.9647790" lon="-75.5029710">
        <ele>2213.2</ele>
        <time>2021-04-17T20:59:31Z</time>
      </trkpt>
      <trkpt lat="4.9647930" lon="-75.5029650">
        <ele>2213.4</ele>
        <time>2021-04-17T20:59:32Z</time>
      </trkpt>
      <trkpt lat="4.9648060" lon="-75.5029620">
        <ele>2213.6</ele>
        <time>2021-04-17T20:59:33Z</time>
      </trkpt>
      <trkpt lat="4.9648220" lon="-75.5029580">
        <ele>2213.9</ele>
        <time>2021-04-17T20:59:34Z</time>
      </trkpt>
      <trkpt lat="4.9648370" lon="-75.5029570">
        <ele>2214.1</ele>
        <time>2021-04-17T20:59:35Z</time>
      </trkpt>
      <trkpt lat="4.9648520" lon="-75.5029570">
        <ele>2214.3</ele>
        <time>2021-04-17T20:59:36Z</time>
      </trkpt>
      <trkpt lat="4.9648650" lon="-75.5029560">
        <ele>2214.5</ele>
        <time>2021-04-17T20:59:37Z</time>
      </trkpt>
      <trkpt lat="4.9648790" lon="-75.5029570">
        <ele>2214.7</ele>
        <time>2021-04-17T20:59:38Z</time>
      </trkpt>
      <trkpt lat="4.9648930" lon="-75.5029600">
        <ele>2214.9</ele>
        <time>2021-04-17T20:59:39Z</time>
      </trkpt>
      <trkpt lat="4.9649080" lon="-75.5029610">
        <ele>2215.1</ele>
        <time>2021-04-17T20:59:40Z</time>
      </trkpt>
      <trkpt lat="4.9649250" lon="-75.5029610">
        <ele>2215.4</ele>
        <time>2021-04-17T20:59:41Z</time>
      </trkpt>
      <trkpt lat="4.9649430" lon="-75.5029600">
        <ele>2215.6</ele>
        <time>2021-04-17T20:59:42Z</time>
      </trkpt>
      <trkpt lat="4.9649620" lon="-75.5029590">
        <ele>2215.9</ele>
        <time>2021-04-17T20:59:43Z</time>
      </trkpt>
      <trkpt lat="4.9649780" lon="-75.5029630">
        <ele>2216.1</ele>
        <time>2021-04-17T20:59:44Z</time>
      </trkpt>
      <trkpt lat="4.9649930" lon="-75.5029660">
        <ele>2216.3</ele>
        <time>2021-04-17T20:59:45Z</time>
      </trkpt>
      <trkpt lat="4.9650090" lon="-75.5029690">
        <ele>2216.5</ele>
        <time>2021-04-17T20:59:46Z</time>
      </trkpt>
      <trkpt lat="4.9650260" lon="-75.5029730">
        <ele>2216.8</ele>
        <time>2021-04-17T20:59:47Z</time>
      </trkpt>
      <trkpt lat="4.9650410" lon="-75.5029760">
        <ele>2217.0</ele>
        <time>2021-04-17T20:59:48Z</time>
      </trkpt>
      <trkpt lat="4.9650560" lon="-75.5029760">
        <ele>2217.2</ele>
        <time>2021-04-17T20:59:49Z</time>
      </trkpt>
      <trkpt lat="4.9650700" lon="-75.5029730">
        <ele>2217.4</ele>
        <time>2021-04-17T20:59:50Z</time>
      </trkpt>
      <trkpt lat="4.9650860" lon="-75.5029710">
        <ele>2217.6</ele>
        <time>2021-04-17T20:59:51Z</time>
      </trkpt>
      <trkpt lat="4.9651000" lon="-75.5029710">
        <ele>2217.8</ele>
        <time>2021-04-17T20:59:52Z</time>
      </trkpt>
      <trkpt lat="4.9651140" lon="-75.5029730">
        <ele>2218.0</ele>
        <time>2021-04-17T20:59:53Z</time>
      </trkpt>
      <trkpt lat="4.9651280" lon="-75.5029780">
        <ele>2218.3</ele>
        <time>2021-04-17T20:59:54Z</time>
      </trkpt>
      <trkpt lat="4.9651430" lon="-75.5029830">
        <ele>2218.5</ele>
        <time>2021-04-17T20:59:55Z</time>
      </trkpt>
      <trkpt lat="4.9651570" lon="-75.5029900">
        <ele>2218.7</ele>
        <time>2021-04-17T20:59:56Z</time>
      </trkpt>
      <trkpt lat="4.9651680" lon="-75.5030010">
        <ele>2219.0</ele>
        <time>2021-04-17T20:59:57Z</time>
      </trkpt>
      <trkpt lat="4.9651800" lon="-75.5030110">
        <ele>2219.2</ele>
        <time>2021-04-17T20:59:58Z</time>
      </trkpt>
      <trkpt lat="4.9651930" lon="-75.5030200">
        <ele>2219.4</ele>
        <time>2021-04-17T20:59:59Z</time>
      </trkpt>
      <trkpt lat="4.9652070" lon="-75.5030270">
        <ele>2219.7</ele>
        <time>2021-04-17T21:00:00Z</time>
      </trkpt>
      <trkpt lat="4.9652210" lon="-75.5030340">
        <ele>2219.9</ele>
        <time>2021-04-17T21:00:01Z</time>
      </trkpt>
      <trkpt lat="4.9652340" lon="-75.5030430">
        <ele>2220.2</ele>
        <time>2021-04-17T21:00:02Z</time>
      </trkpt>
      <trkpt lat="4.9652440" lon="-75.5030540">
        <ele>2220.4</ele>
        <time>2021-04-17T21:00:03Z</time>
      </trkpt>
      <trkpt lat="4.9652530" lon="-75.5030650">
        <ele>2220.6</ele>
        <time>2021-04-17T21:00:04Z</time>
      </trkpt>
      <trkpt lat="4.9652630" lon="-75.5030750">
        <ele>2220.9</ele>
        <time>2021-04-17T21:00:05Z</time>
      </trkpt>
      <trkpt lat="4.9652740" lon="-75.5030850">
        <ele>2221.1</ele>
        <time>2021-04-17T21:00:06Z</time>
      </trkpt>
      <trkpt lat="4.9652860" lon="-75.5030960">
        <ele>2221.4</ele>
        <time>2021-04-17T21:00:07Z</time>
      </trkpt>
      <trkpt lat="4.9652970" lon="-75.5031050">
        <ele>2221.6</ele>
        <time>2021-04-17T21:00:08Z</time>
      </trkpt>
      <trkpt lat="4.9653070" lon="-75.5031130">
        <ele>2221.8</ele>
        <time>2021-04-17T21:00:09Z</time>
      </trkpt>
      <trkpt lat="4.9653190" lon="-75.5031220">
        <ele>2222.0</ele>
        <time>2021-04-17T21:00:10Z</time>
      </trkpt>
      <trkpt lat="4.9653330" lon="-75.5031330">
        <ele>2222.3</ele>
        <time>2021-04-17T21:00:11Z</time>
      </trkpt>
      <trkpt lat="4.9653430" lon="-75.5031430">
        <ele>2222.5</ele>
        <time>2021-04-17T21:00:12Z</time>
      </trkpt>
      <trkpt lat="4.9653510" lon="-75.5031520">
        <ele>2222.7</ele>
        <time>2021-04-17T21:00:13Z</time>
      </trkpt>
      <trkpt lat="4.9653590" lon="-75.5031640">
        <ele>2222.9</ele>
        <time>2021-04-17T21:00:14Z</time>
      </trkpt>
      <trkpt lat="4.9653710" lon="-75.5031780">
        <ele>2223.2</ele>
        <time>2021-04-17T21:00:15Z</time>
      </trkpt>
      <trkpt lat="4.9653830" lon="-75.5031860">
        <ele>2223.4</ele>
        <time>2021-04-17T21:00:16Z</time>
      </trkpt>
      <trkpt lat="4.9653960" lon="-75.5031930">
        <ele>2223.7</ele>
        <time>2021-04-17T21:00:17Z</time>
      </trkpt>
      <trkpt lat="4.9654090" lon="-75.5032020">
        <ele>2223.9</ele>
        <time>2021-04-17T21:00:18Z</time>
      </trkpt>
      <trkpt lat="4.9654250" lon="-75.5032100">
        <ele>2224.2</ele>
        <time>2021-04-17T21:00:19Z</time>
      </trkpt>
      <trkpt lat="4.9654420" lon="-75.5032160">
        <ele>2224.4</ele>
        <time>2021-04-17T21:00:20Z</time>
      </trkpt>
      <trkpt lat="4.9654590" lon="-75.5032230">
        <ele>2224.7</ele>
        <time>2021-04-17T21:00:21Z</time>
      </trkpt>
      <trkpt lat="4.9654730" lon="-75.5032300">
        <ele>2224.9</ele>
        <time>2021-04-17T21:00:22Z</time>
      </trkpt>
      <trkpt lat="4.9654880" lon="-75.5032380">
        <ele>2225.1</ele>
        <time>2021-04-17T21:00:23Z</time>
      </trkpt>
      <trkpt lat="4.9655010" lon="-75.5032450">
        <ele>2225.3</ele>
        <time>2021-04-17T21:00:24Z</time>
      </trkpt>
      <trkpt lat="4.9655130" lon="-75.5032540">
        <ele>2225.5</ele>
        <time>2021-04-17T21:00:25Z</time>
      </trkpt>
      <trkpt lat="4.9655270" lon="-75.5032600">
        <ele>2225.7</ele>
        <time>2021-04-17T21:00:26Z</time>
      </trkpt>
      <trkpt lat="4.9655410" lon="-75.5032660">
        <ele>2225.9</ele>
        <time>2021-04-17T21:00:27Z</time>
      </trkpt>
      <trkpt lat="4.9655570" lon="-75.5032750">
        <ele>2226.1</ele>
        <time>2021-04-17T21:00:28Z</time>
      </trkpt>
      <trkpt lat="4.9655760" lon="-75.5032810">
        <ele>2226.3</ele>
        <time>2021-04-17T21:00:29Z</time>
      </trkpt>
      <trkpt lat="4.9655930" lon="-75.5032840">
        <ele>2226.5</ele>
        <time>2021-04-17T21:00:30Z</time>
      </trkpt>
      <trkpt lat="4.9656100" lon="-75.5032870">
        <ele>2226.7</ele>
        <time>2021-04-17T21:00:31Z</time>
      </trkpt>
      <trkpt lat="4.9656280" lon="-75.5032910">
        <ele>2226.9</ele>
        <time>2021-04-17T21:00:32Z</time>
      </trkpt>
      <trkpt lat="4.9656470" lon="-75.5032960">
        <ele>2227.1</ele>
        <time>2021-04-17T21:00:33Z</time>
      </trkpt>
      <trkpt lat="4.9656660" lon="-75.5033000">
        <ele>2227.3</ele>
        <time>2021-04-17T21:00:34Z</time>
      </trkpt>
      <trkpt lat="4.9656860" lon="-75.5033050">
        <ele>2227.5</ele>
        <time>2021-04-17T21:00:35Z</time>
      </trkpt>
      <trkpt lat="4.9657080" lon="-75.5033070">
        <ele>2227.7</ele>
        <time>2021-04-17T21:00:36Z</time>
      </trkpt>
      <trkpt lat="4.9657300" lon="-75.5033090">
        <ele>2227.8</ele>
        <time>2021-04-17T21:00:37Z</time>
      </trkpt>
      <trkpt lat="4.9657500" lon="-75.5033150">
        <ele>2228.0</ele>
        <time>2021-04-17T21:00:38Z</time>
      </trkpt>
      <trkpt lat="4.9657680" lon="-75.5033250">
        <ele>2228.2</ele>
        <time>2021-04-17T21:00:39Z</time>
      </trkpt>
      <trkpt lat="4.9657850" lon="-75.5033380">
        <ele>2228.3</ele>
        <time>2021-04-17T21:00:40Z</time>
      </trkpt>
      <trkpt lat="4.9658030" lon="-75.5033500">
        <ele>2228.5</ele>
        <time>2021-04-17T21:00:41Z</time>
      </trkpt>
      <trkpt lat="4.9658210" lon="-75.5033600">
        <ele>2228.6</ele>
        <time>2021-04-17T21:00:42Z</time>
      </trkpt>
      <trkpt lat="4.9658400" lon="-75.5033720">
        <ele>2228.7</ele>
        <time>2021-04-17T21:00:43Z</time>
      </trkpt>
      <trkpt lat="4.9658590" lon="-75.5033840">
        <ele>2228.9</ele>
        <time>2021-04-17T21:00:44Z</time>
      </trkpt>
      <trkpt lat="4.9658790" lon="-75.5033970">
        <ele>2229.0</ele>
        <time>2021-04-17T21:00:45Z</time>
      </trkpt>
      <trkpt lat="4.9658980" lon="-75.5034090">
        <ele>2229.2</ele>
        <time>2021-04-17T21:00:46Z</time>
      </trkpt>
      <trkpt lat="4.9659150" lon="-75.5034250">
        <ele>2229.3</ele>
        <time>2021-04-17T21:00:47Z</time>
      </trkpt>
      <trkpt lat="4.9659320" lon="-75.5034410">
        <ele>2229.5</ele>
        <time>2021-04-17T21:00:48Z</time>
      </trkpt>
      <trkpt lat="4.9659470" lon="-75.5034580">
        <ele>2229.6</ele>
        <time>2021-04-17T21:00:49Z</time>
      </trkpt>
      <trkpt lat="4.9659600" lon="-75.5034780">
        <ele>2229.8</ele>
        <time>2021-04-17T21:00:50Z</time>
      </trkpt>
      <trkpt lat="4.9659730" lon="-75.5034960">
        <ele>2230.0</ele>
        <time>2021-04-17T21:00:51Z</time>
      </trkpt>
      <trkpt lat="4.9659850" lon="-75.5035140">
        <ele>2230.1</ele>
        <time>2021-04-17T21:00:52Z</time>
      </trkpt>
      <trkpt lat="4.9659950" lon="-75.5035320">
        <ele>2230.3</ele>
        <time>2021-04-17T21:00:53Z</time>
      </trkpt>
      <trkpt lat="4.9660000" lon="-75.5035520">
        <ele>2230.4</ele>
        <time>2021-04-17T21:00:54Z</time>
      </trkpt>
      <trkpt lat="4.9660070" lon="-75.5035700">
        <ele>2230.6</ele>
        <time>2021-04-17T21:00:55Z</time>
      </trkpt>
      <trkpt lat="4.9660130" lon="-75.5035890">
        <ele>2230.8</ele>
        <time>2021-04-17T21:00:56Z</time>
      </trkpt>
      <trkpt lat="4.9660200" lon="-75.5036060">
        <ele>2231.0</ele>
        <time>2021-04-17T21:00:57Z</time>
      </trkpt>
      <trkpt lat="4.9660250" lon="-75.5036230">
        <ele>2231.1</ele>
        <time>2021-04-17T21:00:58Z</time>
      </trkpt>
      <trkpt lat="4.9660310" lon="-75.5036430">
        <ele>2231.4</ele>
        <time>2021-04-17T21:00:59Z</time>
      </trkpt>
      <trkpt lat="4.9660360" lon="-75.5036610">
        <ele>2231.6</ele>
        <time>2021-04-17T21:01:00Z</time>
      </trkpt>
      <trkpt lat="4.9660390" lon="-75.5036780">
        <ele>2231.7</ele>
        <time>2021-04-17T21:01:01Z</time>
      </trkpt>
      <trkpt lat="4.9660440" lon="-75.5036940">
        <ele>2231.9</ele>
        <time>2021-04-17T21:01:02Z</time>
      </trkpt>
      <trkpt lat="4.9660480" lon="-75.5037100">
        <ele>2232.1</ele>
        <time>2021-04-17T21:01:03Z</time>
      </trkpt>
      <trkpt lat="4.9660540" lon="-75.5037250">
        <ele>2232.3</ele>
        <time>2021-04-17T21:01:04Z</time>
      </trkpt>
      <trkpt lat="4.9660600" lon="-75.5037410">
        <ele>2232.6</ele>
        <time>2021-04-17T21:01:05Z</time>
      </trkpt>
      <trkpt lat="4.9660660" lon="-75.5037550">
        <ele>2232.7</ele>
        <time>2021-04-17T21:01:06Z</time>
      </trkpt>
      <trkpt lat="4.9660720" lon="-75.5037690">
        <ele>2232.9</ele>
        <time>2021-04-17T21:01:07Z</time>
      </trkpt>
      <trkpt lat="4.9660770" lon="-75.5037830">
        <ele>2233.1</ele>
        <time>2021-04-17T21:01:08Z</time>
      </trkpt>
      <trkpt lat="4.9660820" lon="-75.5037990">
        <ele>2233.3</ele>
        <time>2021-04-17T21:01:09Z</time>
      </trkpt>
      <trkpt lat="4.9660870" lon="-75.5038150">
        <ele>2233.6</ele>
        <time>2021-04-17T21:01:10Z</time>
      </trkpt>
      <trkpt lat="4.9660920" lon="-75.5038310">
        <ele>2233.8</ele>
        <time>2021-04-17T21:01:11Z</time>
      </trkpt>
      <trkpt lat="4.9660960" lon="-75.5038480">
        <ele>2234.0</ele>
        <time>2021-04-17T21:01:12Z</time>
      </trkpt>
      <trkpt lat="4.9661040" lon="-75.5038630">
        <ele>2234.3</ele>
        <time>2021-04-17T21:01:13Z</time>
      </trkpt>
      <trkpt lat="4.9661140" lon="-75.5038770">
        <ele>2234.5</ele>
        <time>2021-04-17T21:01:14Z</time>
      </trkpt>
      <trkpt lat="4.9661270" lon="-75.5038900">
        <ele>2234.7</ele>
        <time>2021-04-17T21:01:15Z</time>
      </trkpt>
      <trkpt lat="4.9661380" lon="-75.5039040">
        <ele>2235.0</ele>
        <time>2021-04-17T21:01:16Z</time>
      </trkpt>
      <trkpt lat="4.9661490" lon="-75.5039170">
        <ele>2235.2</ele>
        <time>2021-04-17T21:01:17Z</time>
      </trkpt>
      <trkpt lat="4.9661600" lon="-75.5039310">
        <ele>2235.4</ele>
        <time>2021-04-17T21:01:18Z</time>
      </trkpt>
      <trkpt lat="4.9661710" lon="-75.5039440">
        <ele>2235.6</ele>
        <time>2021-04-17T21:01:19Z</time>
      </trkpt>
      <trkpt lat="4.9661830" lon="-75.5039570">
        <ele>2235.8</ele>
        <time>2021-04-17T21:01:20Z</time>
      </trkpt>
      <trkpt lat="4.9661980" lon="-75.5039700">
        <ele>2236.1</ele>
        <time>2021-04-17T21:01:21Z</time>
      </trkpt>
      <trkpt lat="4.9662160" lon="-75.5039800">
        <ele>2236.3</ele>
        <time>2021-04-17T21:01:22Z</time>
      </trkpt>
      <trkpt lat="4.9662310" lon="-75.5039890">
        <ele>2236.5</ele>
        <time>2021-04-17T21:01:23Z</time>
      </trkpt>
      <trkpt lat="4.9662460" lon="-75.5039980">
        <ele>2236.7</ele>
        <time>2021-04-17T21:01:24Z</time>
      </trkpt>
      <trkpt lat="4.9662610" lon="-75.5040040">
        <ele>2236.9</ele>
        <time>2021-04-17T21:01:25Z</time>
      </trkpt>
      <trkpt lat="4.9662770" lon="-75.5040100">
        <ele>2237.1</ele>
        <time>2021-04-17T21:01:26Z</time>
      </trkpt>
      <trkpt lat="4.9662930" lon="-75.5040130">
        <ele>2237.3</ele>
        <time>2021-04-17T21:01:27Z</time>
      </trkpt>
      <trkpt lat="4.9663090" lon="-75.5040110">
        <ele>2237.5</ele>
        <time>2021-04-17T21:01:28Z</time>
      </trkpt>
      <trkpt lat="4.9663220" lon="-75.5040100">
        <ele>2237.7</ele>
        <time>2021-04-17T21:01:29Z</time>
      </trkpt>
      <trkpt lat="4.9663360" lon="-75.5040110">
        <ele>2237.9</ele>
        <time>2021-04-17T21:01:30Z</time>
      </trkpt>
      <trkpt lat="4.9663510" lon="-75.5040060">
        <ele>2238.1</ele>
        <time>2021-04-17T21:01:31Z</time>
      </trkpt>
      <trkpt lat="4.9663680" lon="-75.5040030">
        <ele>2238.3</ele>
        <time>2021-04-17T21:01:32Z</time>
      </trkpt>
      <trkpt lat="4.9663840" lon="-75.5039960">
        <ele>2238.6</ele>
        <time>2021-04-17T21:01:33Z</time>
      </trkpt>
      <trkpt lat="4.9663980" lon="-75.5039930">
        <ele>2238.8</ele>
        <time>2021-04-17T21:01:34Z</time>
      </trkpt>
      <trkpt lat="4.9664130" lon="-75.5039880">
        <ele>2239.0</ele>
        <time>2021-04-17T21:01:35Z</time>
      </trkpt>
      <trkpt lat="4.9664280" lon="-75.5039840">
        <ele>2239.3</ele>
        <time>2021-04-17T21:01:36Z</time>
      </trkpt>
      <trkpt lat="4.9664420" lon="-75.5039800">
        <ele>2239.5</ele>
        <time>2021-04-17T21:01:37Z</time>
      </trkpt>
      <trkpt lat="4.9664560" lon="-75.5039740">
        <ele>2239.7</ele>
        <time>2021-04-17T21:01:38Z</time>
      </trkpt>
      <trkpt lat="4.9664700" lon="-75.5039670">
        <ele>2240.0</ele>
        <time>2021-04-17T21:01:39Z</time>
      </trkpt>
      <trkpt lat="4.9664830" lon="-75.5039570">
        <ele>2240.2</ele>
        <time>2021-04-17T21:01:40Z</time>
      </trkpt>
      <trkpt lat="4.9664930" lon="-75.5039480">
        <ele>2240.4</ele>
        <time>2021-04-17T21:01:41Z</time>
      </trkpt>
      <trkpt lat="4.9665020" lon="-75.5039360">
        <ele>2240.7</ele>
        <time>2021-04-17T21:01:42Z</time>
      </trkpt>
      <trkpt lat="4.9665100" lon="-75.5039230">
        <ele>2240.9</ele>
        <time>2021-04-17T21:01:43Z</time>
      </trkpt>
      <trkpt lat="4.9665180" lon="-75.5039110">
        <ele>2241.1</ele>
        <time>2021-04-17T21:01:44Z</time>
      </trkpt>
      <trkpt lat="4.9665270" lon="-75.5038950">
        <ele>2241.4</ele>
        <time>2021-04-17T21:01:45Z</time>
      </trkpt>
      <trkpt lat="4.9665340" lon="-75.5038820">
        <ele>2241.6</ele>
        <time>2021-04-17T21:01:46Z</time>
      </trkpt>
      <trkpt lat="4.9665440" lon="-75.5038700">
        <ele>2241.9</ele>
        <time>2021-04-17T21:01:47Z</time>
      </trkpt>
      <trkpt lat="4.9665550" lon="-75.5038600">
        <ele>2242.1</ele>
        <time>2021-04-17T21:01:48Z</time>
      </trkpt>
      <trkpt lat="4.9665650" lon="-75.5038490">
        <ele>2242.4</ele>
        <time>2021-04-17T21:01:49Z</time>
      </trkpt>
      <trkpt lat="4.9665760" lon="-75.5038350">
        <ele>2242.6</ele>
        <time>2021-04-17T21:01:50Z</time>
      </trkpt>
      <trkpt lat="4.9665870" lon="-75.5038200">
        <ele>2242.9</ele>
        <time>2021-04-17T21:01:51Z</time>
      </trkpt>
      <trkpt lat="4.9665980" lon="-75.5038060">
        <ele>2243.2</ele>
        <time>2021-04-17T21:01:52Z</time>
      </trkpt>
      <trkpt lat="4.9666060" lon="-75.5037920">
        <ele>2243.4</ele>
        <time>2021-04-17T21:01:53Z</time>
      </trkpt>
      <trkpt lat="4.9666150" lon="-75.5037830">
        <ele>2243.6</ele>
        <time>2021-04-17T21:01:54Z</time>
      </trkpt>
      <trkpt lat="4.9666240" lon="-75.5037730">
        <ele>2243.8</ele>
        <time>2021-04-17T21:01:55Z</time>
      </trkpt>
      <trkpt lat="4.9666360" lon="-75.5037610">
        <ele>2244.1</ele>
        <time>2021-04-17T21:01:56Z</time>
      </trkpt>
      <trkpt lat="4.9666480" lon="-75.5037510">
        <ele>2244.3</ele>
        <time>2021-04-17T21:01:57Z</time>
      </trkpt>
      <trkpt lat="4.9666600" lon="-75.5037410">
        <ele>2244.6</ele>
        <time>2021-04-17T21:01:58Z</time>
      </trkpt>
      <trkpt lat="4.9666750" lon="-75.5037310">
        <ele>2244.8</ele>
        <time>2021-04-17T21:01:59Z</time>
      </trkpt>
      <trkpt lat="4.9666920" lon="-75.5037220">
        <ele>2245.1</ele>
        <time>2021-04-17T21:02:00Z</time>
      </trkpt>
      <trkpt lat="4.9667100" lon="-75.5037140">
        <ele>2245.4</ele>
        <time>2021-04-17T21:02:01Z</time>
      </trkpt>
      <trkpt lat="4.9667290" lon="-75.5037100">
        <ele>2245.7</ele>
        <time>2021-04-17T21:02:02Z</time>
      </trkpt>
      <trkpt lat="4.9667450" lon="-75.5037070">
        <ele>2246.1</ele>
        <time>2021-04-17T21:02:03Z</time>
      </trkpt>
      <trkpt lat="4.9667600" lon="-75.5037050">
        <ele>2246.2</ele>
        <time>2021-04-17T21:02:04Z</time>
      </trkpt>
      <trkpt lat="4.9667770" lon="-75.5037000">
        <ele>2246.4</ele>
        <time>2021-04-17T21:02:05Z</time>
      </trkpt>
      <trkpt lat="4.9667930" lon="-75.5036960">
        <ele>2246.5</ele>
        <time>2021-04-17T21:02:06Z</time>
      </trkpt>
      <trkpt lat="4.9668090" lon="-75.5036940">
        <ele>2246.7</ele>
        <time>2021-04-17T21:02:07Z</time>
      </trkpt>
      <trkpt lat="4.9668240" lon="-75.5036900">
        <ele>2246.8</ele>
        <time>2021-04-17T21:02:08Z</time>
      </trkpt>
      <trkpt lat="4.9668400" lon="-75.5036870">
        <ele>2246.9</ele>
        <time>2021-04-17T21:02:09Z</time>
      </trkpt>
      <trkpt lat="4.9668570" lon="-75.5036850">
        <ele>2247.1</ele>
        <time>2021-04-17T21:02:10Z</time>
      </trkpt>
      <trkpt lat="4.9668730" lon="-75.5036850">
        <ele>2247.2</ele>
        <time>2021-04-17T21:02:11Z</time>
      </trkpt>
      <trkpt lat="4.9668900" lon="-75.5036870">
        <ele>2247.4</ele>
        <time>2021-04-17T21:02:12Z</time>
      </trkpt>
      <trkpt lat="4.9669060" lon="-75.5036880">
        <ele>2247.5</ele>
        <time>2021-04-17T21:02:13Z</time>
      </trkpt>
      <trkpt lat="4.9669210" lon="-75.5036880">
        <ele>2247.7</ele>
        <time>2021-04-17T21:02:14Z</time>
      </trkpt>
      <trkpt lat="4.9669370" lon="-75.5036890">
        <ele>2247.8</ele>
        <time>2021-04-17T21:02:15Z</time>
      </trkpt>
      <trkpt lat="4.9669530" lon="-75.5036920">
        <ele>2248.0</ele>
        <time>2021-04-17T21:02:16Z</time>
      </trkpt>
      <trkpt lat="4.9669680" lon="-75.5036940">
        <ele>2248.1</ele>
        <time>2021-04-17T21:02:17Z</time>
      </trkpt>
      <trkpt lat="4.9669820" lon="-75.5036960">
        <ele>2248.2</ele>
        <time>2021-04-17T21:02:18Z</time>
      </trkpt>
      <trkpt lat="4.9669970" lon="-75.5036980">
        <ele>2248.4</ele>
        <time>2021-04-17T21:02:19Z</time>
      </trkpt>
      <trkpt lat="4.9670100" lon="-75.5036990">
        <ele>2248.5</ele>
        <time>2021-04-17T21:02:20Z</time>
      </trkpt>
      <trkpt lat="4.9670250" lon="-75.5036990">
        <ele>2248.6</ele>
        <time>2021-04-17T21:02:21Z</time>
      </trkpt>
      <trkpt lat="4.9670410" lon="-75.5036980">
        <ele>2248.7</ele>
        <time>2021-04-17T21:02:22Z</time>
      </trkpt>
      <trkpt lat="4.9670590" lon="-75.5036960">
        <ele>2248.9</ele>
        <time>2021-04-17T21:02:23Z</time>
      </trkpt>
      <trkpt lat="4.9670790" lon="-75.5036920">
        <ele>2249.1</ele>
        <time>2021-04-17T21:02:24Z</time>
      </trkpt>
      <trkpt lat="4.9671000" lon="-75.5036880">
        <ele>2249.3</ele>
        <time>2021-04-17T21:02:25Z</time>
      </trkpt>
      <trkpt lat="4.9671190" lon="-75.5036830">
        <ele>2249.5</ele>
        <time>2021-04-17T21:02:26Z</time>
      </trkpt>
      <trkpt lat="4.9671380" lon="-75.5036820">
        <ele>2249.6</ele>
        <time>2021-04-17T21:02:27Z</time>
      </trkpt>
      <trkpt lat="4.9671580" lon="-75.5036790">
        <ele>2249.8</ele>
        <time>2021-04-17T21:02:28Z</time>
      </trkpt>
      <trkpt lat="4.9671790" lon="-75.5036760">
        <ele>2250.0</ele>
        <time>2021-04-17T21:02:29Z</time>
      </trkpt>
      <trkpt lat="4.9671980" lon="-75.5036720">
        <ele>2250.2</ele>
        <time>2021-04-17T21:02:30Z</time>
      </trkpt>
      <trkpt lat="4.9672180" lon="-75.5036690">
        <ele>2250.3</ele>
        <time>2021-04-17T21:02:31Z</time>
      </trkpt>
      <trkpt lat="4.9672380" lon="-75.5036680">
        <ele>2250.5</ele>
        <time>2021-04-17T21:02:32Z</time>
      </trkpt>
      <trkpt lat="4.9672580" lon="-75.5036640">
        <ele>2250.7</ele>
        <time>2021-04-17T21:02:33Z</time>
      </trkpt>
      <trkpt lat="4.9672780" lon="-75.5036600">
        <ele>2250.9</ele>
        <time>2021-04-17T21:02:34Z</time>
      </trkpt>
      <trkpt lat="4.9672980" lon="-75.5036570">
        <ele>2251.1</ele>
        <time>2021-04-17T21:02:35Z</time>
      </trkpt>
      <trkpt lat="4.9673190" lon="-75.5036520">
        <ele>2251.3</ele>
        <time>2021-04-17T21:02:36Z</time>
      </trkpt>
      <trkpt lat="4.9673380" lon="-75.5036470">
        <ele>2251.4</ele>
        <time>2021-04-17T21:02:37Z</time>
      </trkpt>
      <trkpt lat="4.9673580" lon="-75.5036420">
        <ele>2251.6</ele>
        <time>2021-04-17T21:02:38Z</time>
      </trkpt>
      <trkpt lat="4.9673750" lon="-75.5036340">
        <ele>2251.8</ele>
        <time>2021-04-17T21:02:39Z</time>
      </trkpt>
      <trkpt lat="4.9673930" lon="-75.5036230">
        <ele>2252.0</ele>
        <time>2021-04-17T21:02:40Z</time>
      </trkpt>
      <trkpt lat="4.9674110" lon="-75.5036130">
        <ele>2252.1</ele>
        <time>2021-04-17T21:02:41Z</time>
      </trkpt>
      <trkpt lat="4.9674290" lon="-75.5036030">
        <ele>2252.3</ele>
        <time>2021-04-17T21:02:42Z</time>
      </trkpt>
      <trkpt lat="4.9674450" lon="-75.5035900">
        <ele>2252.5</ele>
        <time>2021-04-17T21:02:43Z</time>
      </trkpt>
      <trkpt lat="4.9674600" lon="-75.5035780">
        <ele>2252.7</ele>
        <time>2021-04-17T21:02:44Z</time>
      </trkpt>
      <trkpt lat="4.9674740" lon="-75.5035660">
        <ele>2252.8</ele>
        <time>2021-04-17T21:02:45Z</time>
      </trkpt>
      <trkpt lat="4.9674900" lon="-75.5035530">
        <ele>2253.0</ele>
        <time>2021-04-17T21:02:46Z</time>
      </trkpt>
      <trkpt lat="4.9675060" lon="-75.5035390">
        <ele>2253.2</ele>
        <time>2021-04-17T21:02:47Z</time>
      </trkpt>
      <trkpt lat="4.9675200" lon="-75.5035230">
        <ele>2253.4</ele>
        <time>2021-04-17T21:02:48Z</time>
      </trkpt>
      <trkpt lat="4.9675350" lon="-75.5035070">
        <ele>2253.6</ele>
        <time>2021-04-17T21:02:49Z</time>
      </trkpt>
      <trkpt lat="4.9675470" lon="-75.5034930">
        <ele>2253.8</ele>
        <time>2021-04-17T21:02:50Z</time>
      </trkpt>
      <trkpt lat="4.9675570" lon="-75.5034770">
        <ele>2253.9</ele>
        <time>2021-04-17T21:02:51Z</time>
      </trkpt>
      <trkpt lat="4.9675660" lon="-75.5034570">
        <ele>2254.1</ele>
        <time>2021-04-17T21:02:52Z</time>
      </trkpt>
      <trkpt lat="4.9675710" lon="-75.5034370">
        <ele>2254.3</ele>
        <time>2021-04-17T21:02:53Z</time>
      </trkpt>
      <trkpt lat="4.9675760" lon="-75.5034170">
        <ele>2254.5</ele>
        <time>2021-04-17T21:02:54Z</time>
      </trkpt>
      <trkpt lat="4.9675790" lon="-75.5033940">
        <ele>2254.7</ele>
        <time>2021-04-17T21:02:55Z</time>
      </trkpt>
      <trkpt lat="4.9675800" lon="-75.5033750">
        <ele>2254.9</ele>
        <time>2021-04-17T21:02:56Z</time>
      </trkpt>
      <trkpt lat="4.9675770" lon="-75.5033560">
        <ele>2255.0</ele>
        <time>2021-04-17T21:02:57Z</time>
      </trkpt>
      <trkpt lat="4.9675700" lon="-75.5033360">
        <ele>2255.2</ele>
        <time>2021-04-17T21:02:58Z</time>
      </trkpt>
      <trkpt lat="4.9675610" lon="-75.5033190">
        <ele>2255.4</ele>
        <time>2021-04-17T21:02:59Z</time>
      </trkpt>
      <trkpt lat="4.9675520" lon="-75.5033030">
        <ele>2255.6</ele>
        <time>2021-04-17T21:03:00Z</time>
      </trkpt>
      <trkpt lat="4.9675420" lon="-75.5032860">
        <ele>2255.7</ele>
        <time>2021-04-17T21:03:01Z</time>
      </trkpt>
      <trkpt lat="4.9675290" lon="-75.5032700">
        <ele>2255.9</ele>
        <time>2021-04-17T21:03:02Z</time>
      </trkpt>
      <trkpt lat="4.9675150" lon="-75.5032550">
        <ele>2256.1</ele>
        <time>2021-04-17T21:03:03Z</time>
      </trkpt>
      <trkpt lat="4.9675000" lon="-75.5032400">
        <ele>2256.3</ele>
        <time>2021-04-17T21:03:04Z</time>
      </trkpt>
      <trkpt lat="4.9674850" lon="-75.5032270">
        <ele>2256.5</ele>
        <time>2021-04-17T21:03:05Z</time>
      </trkpt>
      <trkpt lat="4.9674710" lon="-75.5032120">
        <ele>2256.6</ele>
        <time>2021-04-17T21:03:06Z</time>
      </trkpt>
      <trkpt lat="4.9674590" lon="-75.5031950">
        <ele>2256.8</ele>
        <time>2021-04-17T21:03:07Z</time>
      </trkpt>
      <trkpt lat="4.9674470" lon="-75.5031770">
        <ele>2257.0</ele>
        <time>2021-04-17T21:03:08Z</time>
      </trkpt>
      <trkpt lat="4.9674360" lon="-75.5031580">
        <ele>2257.2</ele>
        <time>2021-04-17T21:03:09Z</time>
      </trkpt>
      <trkpt lat="4.9674270" lon="-75.5031380">
        <ele>2257.4</ele>
        <time>2021-04-17T21:03:10Z</time>
      </trkpt>
      <trkpt lat="4.9674190" lon="-75.5031220">
        <ele>2257.6</ele>
        <time>2021-04-17T21:03:11Z</time>
      </trkpt>
      <trkpt lat="4.9674140" lon="-75.5031030">
        <ele>2257.7</ele>
        <time>2021-04-17T21:03:12Z</time>
      </trkpt>
      <trkpt lat="4.9674130" lon="-75.5030840">
        <ele>2257.9</ele>
        <time>2021-04-17T21:03:13Z</time>
      </trkpt>
      <trkpt lat="4.9674160" lon="-75.5030650">
        <ele>2258.1</ele>
        <time>2021-04-17T21:03:14Z</time>
      </trkpt>
      <trkpt lat="4.9674170" lon="-75.5030470">
        <ele>2258.2</ele>
        <time>2021-04-17T21:03:15Z</time>
      </trkpt>
      <trkpt lat="4.9674200" lon="-75.5030290">
        <ele>2258.4</ele>
        <time>2021-04-17T21:03:16Z</time>
      </trkpt>
      <trkpt lat="4.9674260" lon="-75.5030100">
        <ele>2258.6</ele>
        <time>2021-04-17T21:03:17Z</time>
      </trkpt>
      <trkpt lat="4.9674330" lon="-75.5029900">
        <ele>2258.8</ele>
        <time>2021-04-17T21:03:18Z</time>
      </trkpt>
      <trkpt lat="4.9674430" lon="-75.5029690">
        <ele>2259.0</ele>
        <time>2021-04-17T21:03:19Z</time>
      </trkpt>
      <trkpt lat="4.9674540" lon="-75.5029490">
        <ele>2259.2</ele>
        <time>2021-04-17T21:03:20Z</time>
      </trkpt>
      <trkpt lat="4.9674660" lon="-75.5029340">
        <ele>2259.3</ele>
        <time>2021-04-17T21:03:21Z</time>
      </trkpt>
      <trkpt lat="4.9674790" lon="-75.5029190">
        <ele>2259.5</ele>
        <time>2021-04-17T21:03:22Z</time>
      </trkpt>
      <trkpt lat="4.9674920" lon="-75.5029040">
        <ele>2259.7</ele>
        <time>2021-04-17T21:03:23Z</time>
      </trkpt>
      <trkpt lat="4.9675050" lon="-75.5028890">
        <ele>2259.9</ele>
        <time>2021-04-17T21:03:24Z</time>
      </trkpt>
      <trkpt lat="4.9675190" lon="-75.5028760">
        <ele>2260.0</ele>
        <time>2021-04-17T21:03:25Z</time>
      </trkpt>
      <trkpt lat="4.9675350" lon="-75.5028640">
        <ele>2260.2</ele>
        <time>2021-04-17T21:03:26Z</time>
      </trkpt>
      <trkpt lat="4.9675490" lon="-75.5028540">
        <ele>2260.4</ele>
        <time>2021-04-17T21:03:27Z</time>
      </trkpt>
      <trkpt lat="4.9675610" lon="-75.5028440">
        <ele>2260.5</ele>
        <time>2021-04-17T21:03:28Z</time>
      </trkpt>
      <trkpt lat="4.9675740" lon="-75.5028340">
        <ele>2260.7</ele>
        <time>2021-04-17T21:03:29Z</time>
      </trkpt>
      <trkpt lat="4.9675880" lon="-75.5028230">
        <ele>2260.8</ele>
        <time>2021-04-17T21:03:30Z</time>
      </trkpt>
      <trkpt lat="4.9676020" lon="-75.5028130">
        <ele>2261.0</ele>
        <time>2021-04-17T21:03:31Z</time>
      </trkpt>
      <trkpt lat="4.9676170" lon="-75.5028020">
        <ele>2261.1</ele>
        <time>2021-04-17T21:03:32Z</time>
      </trkpt>
      <trkpt lat="4.9676340" lon="-75.5027880">
        <ele>2261.3</ele>
        <time>2021-04-17T21:03:33Z</time>
      </trkpt>
      <trkpt lat="4.9676480" lon="-75.5027720">
        <ele>2261.5</ele>
        <time>2021-04-17T21:03:34Z</time>
      </trkpt>
      <trkpt lat="4.9676590" lon="-75.5027570">
        <ele>2261.7</ele>
        <time>2021-04-17T21:03:35Z</time>
      </trkpt>
      <trkpt lat="4.9676670" lon="-75.5027410">
        <ele>2261.8</ele>
        <time>2021-04-17T21:03:36Z</time>
      </trkpt>
      <trkpt lat="4.9676720" lon="-75.5027260">
        <ele>2262.0</ele>
        <time>2021-04-17T21:03:37Z</time>
      </trkpt>
      <trkpt lat="4.9676760" lon="-75.5027110">
        <ele>2262.1</ele>
        <time>2021-04-17T21:03:38Z</time>
      </trkpt>
      <trkpt lat="4.9676800" lon="-75.5026970">
        <ele>2262.3</ele>
        <time>2021-04-17T21:03:39Z</time>
      </trkpt>
      <trkpt lat="4.9676820" lon="-75.5026840">
        <ele>2262.4</ele>
        <time>2021-04-17T21:03:40Z</time>
      </trkpt>
      <trkpt lat="4.9676830" lon="-75.5026680">
        <ele>2262.5</ele>
        <time>2021-04-17T21:03:41Z</time>
      </trkpt>
      <trkpt lat="4.9676790" lon="-75.5026520">
        <ele>2262.7</ele>
        <time>2021-04-17T21:03:42Z</time>
      </trkpt>
      <trkpt lat="4.9676760" lon="-75.5026360">
        <ele>2262.8</ele>
        <time>2021-04-17T21:03:43Z</time>
      </trkpt>
      <trkpt lat="4.9676740" lon="-75.5026170">
        <ele>2263.0</ele>
        <time>2021-04-17T21:03:44Z</time>
      </trkpt>
      <trkpt lat="4.9676720" lon="-75.5025970">
        <ele>2263.2</ele>
        <time>2021-04-17T21:03:45Z</time>
      </trkpt>
      <trkpt lat="4.9676710" lon="-75.5025760">
        <ele>2263.3</ele>
        <time>2021-04-17T21:03:46Z</time>
      </trkpt>
      <trkpt lat="4.9676690" lon="-75.5025570">
        <ele>2263.5</ele>
        <time>2021-04-17T21:03:47Z</time>
      </trkpt>
      <trkpt lat="4.9676660" lon="-75.5025420">
        <ele>2263.6</ele>
        <time>2021-04-17T21:03:48Z</time>
      </trkpt>
      <trkpt lat="4.9676640" lon="-75.5025270">
        <ele>2263.8</ele>
        <time>2021-04-17T21:03:49Z</time>
      </trkpt>
      <trkpt lat="4.9676610" lon="-75.5025110">
        <ele>2263.9</ele>
        <time>2021-04-17T21:03:50Z</time>
      </trkpt>
      <trkpt lat="4.9676590" lon="-75.5024970">
        <ele>2264.0</ele>
        <time>2021-04-17T21:03:51Z</time>
      </trkpt>
      <trkpt lat="4.9676540" lon="-75.5024820">
        <ele>2264.2</ele>
        <time>2021-04-17T21:03:52Z</time>
      </trkpt>
      <trkpt lat="4.9676510" lon="-75.5024650">
        <ele>2264.3</ele>
        <time>2021-04-17T21:03:53Z</time>
      </trkpt>
      <trkpt lat="4.9676500" lon="-75.5024510">
        <ele>2264.5</ele>
        <time>2021-04-17T21:03:54Z</time>
      </trkpt>
      <trkpt lat="4.9676480" lon="-75.5024350">
        <ele>2264.6</ele>
        <time>2021-04-17T21:03:55Z</time>
      </trkpt>
      <trkpt lat="4.9676450" lon="-75.5024190">
        <ele>2264.7</ele>
        <time>2021-04-17T21:03:56Z</time>
      </trkpt>
      <trkpt lat="4.9676440" lon="-75.5024050">
        <ele>2264.9</ele>
        <time>2021-04-17T21:03:57Z</time>
      </trkpt>
      <trkpt lat="4.9676470" lon="-75.5023920">
        <ele>2265.0</ele>
        <time>2021-04-17T21:03:58Z</time>
      </trkpt>
      <trkpt lat="4.9676490" lon="-75.5023790">
        <ele>2265.1</ele>
        <time>2021-04-17T21:03:59Z</time>
      </trkpt>
      <trkpt lat="4.9676530" lon="-75.5023660">
        <ele>2265.2</ele>
        <time>2021-04-17T21:04:00Z</time>
      </trkpt>
      <trkpt lat="4.9676580" lon="-75.5023530">
        <ele>2265.4</ele>
        <time>2021-04-17T21:04:01Z</time>
      </trkpt>
      <trkpt lat="4.9676580" lon="-75.5023400">
        <ele>2265.5</ele>
        <time>2021-04-17T21:04:02Z</time>
      </trkpt>
      <trkpt lat="4.9676630" lon="-75.5023250">
        <ele>2265.6</ele>
        <time>2021-04-17T21:04:03Z</time>
      </trkpt>
      <trkpt lat="4.9676650" lon="-75.5023090">
        <ele>2265.8</ele>
        <time>2021-04-17T21:04:04Z</time>
      </trkpt>
      <trkpt lat="4.9676690" lon="-75.5022930">
        <ele>2265.9</ele>
        <time>2021-04-17T21:04:05Z</time>
      </trkpt>
      <trkpt lat="4.9676740" lon="-75.5022760">
        <ele>2266.1</ele>
        <time>2021-04-17T21:04:06Z</time>
      </trkpt>
      <trkpt lat="4.9676790" lon="-75.5022610">
        <ele>2266.2</ele>
        <time>2021-04-17T21:04:07Z</time>
      </trkpt>
      <trkpt lat="4.9676860" lon="-75.5022460">
        <ele>2266.3</ele>
        <time>2021-04-17T21:04:08Z</time>
      </trkpt>
      <trkpt lat="4.9676940" lon="-75.5022300">
        <ele>2266.5</ele>
        <time>2021-04-17T21:04:09Z</time>
      </trkpt>
      <trkpt lat="4.9677060" lon="-75.5022150">
        <ele>2266.7</ele>
        <time>2021-04-17T21:04:10Z</time>
      </trkpt>
      <trkpt lat="4.9677180" lon="-75.5022010">
        <ele>2266.8</ele>
        <time>2021-04-17T21:04:11Z</time>
      </trkpt>
      <trkpt lat="4.9677290" lon="-75.5021860">
        <ele>2267.0</ele>
        <time>2021-04-17T21:04:12Z</time>
      </trkpt>
      <trkpt lat="4.9677400" lon="-75.5021730">
        <ele>2267.1</ele>
        <time>2021-04-17T21:04:13Z</time>
      </trkpt>
      <trkpt lat="4.9677480" lon="-75.5021620">
        <ele>2267.3</ele>
        <time>2021-04-17T21:04:14Z</time>
      </trkpt>
      <trkpt lat="4.9677550" lon="-75.5021510">
        <ele>2267.4</ele>
        <time>2021-04-17T21:04:15Z</time>
      </trkpt>
      <trkpt lat="4.9677660" lon="-75.5021420">
        <ele>2267.5</ele>
        <time>2021-04-17T21:04:16Z</time>
      </trkpt>
      <trkpt lat="4.9677790" lon="-75.5021340">
        <ele>2267.6</ele>
        <time>2021-04-17T21:04:17Z</time>
      </trkpt>
      <trkpt lat="4.9677940" lon="-75.5021220">
        <ele>2267.8</ele>
        <time>2021-04-17T21:04:18Z</time>
      </trkpt>
      <trkpt lat="4.9678110" lon="-75.5021130">
        <ele>2268.0</ele>
        <time>2021-04-17T21:04:19Z</time>
      </trkpt>
      <trkpt lat="4.9678280" lon="-75.5021050">
        <ele>2268.2</ele>
        <time>2021-04-17T21:04:20Z</time>
      </trkpt>
      <trkpt lat="4.9678460" lon="-75.5020960">
        <ele>2268.3</ele>
        <time>2021-04-17T21:04:21Z</time>
      </trkpt>
      <trkpt lat="4.9678640" lon="-75.5020890">
        <ele>2268.5</ele>
        <time>2021-04-17T21:04:22Z</time>
      </trkpt>
      <trkpt lat="4.9678820" lon="-75.5020850">
        <ele>2268.7</ele>
        <time>2021-04-17T21:04:23Z</time>
      </trkpt>
      <trkpt lat="4.9679020" lon="-75.5020840">
        <ele>2268.8</ele>
        <time>2021-04-17T21:04:24Z</time>
      </trkpt>
      <trkpt lat="4.9679220" lon="-75.5020820">
        <ele>2269.0</ele>
        <time>2021-04-17T21:04:25Z</time>
      </trkpt>
      <trkpt lat="4.9679430" lon="-75.5020800">
        <ele>2269.2</ele>
        <time>2021-04-17T21:04:26Z</time>
      </trkpt>
      <trkpt lat="4.9679620" lon="-75.5020770">
        <ele>2269.4</ele>
        <time>2021-04-17T21:04:27Z</time>
      </trkpt>
      <trkpt lat="4.9679810" lon="-75.5020780">
        <ele>2269.6</ele>
        <time>2021-04-17T21:04:28Z</time>
      </trkpt>
      <trkpt lat="4.9680000" lon="-75.5020780">
        <ele>2269.7</ele>
        <time>2021-04-17T21:04:29Z</time>
      </trkpt>
      <trkpt lat="4.9680200" lon="-75.5020780">
        <ele>2269.9</ele>
        <time>2021-04-17T21:04:30Z</time>
      </trkpt>
      <trkpt lat="4.9680390" lon="-75.5020750">
        <ele>2270.1</ele>
        <time>2021-04-17T21:04:31Z</time>
      </trkpt>
      <trkpt lat="4.9680580" lon="-75.5020710">
        <ele>2270.2</ele>
        <time>2021-04-17T21:04:32Z</time>
      </trkpt>
      <trkpt lat="4.9680760" lon="-75.5020690">
        <ele>2270.4</ele>
        <time>2021-04-17T21:04:33Z</time>
      </trkpt>
      <trkpt lat="4.9680930" lon="-75.5020700">
        <ele>2270.6</ele>
        <time>2021-04-17T21:04:34Z</time>
      </trkpt>
      <trkpt lat="4.9681090" lon="-75.5020720">
        <ele>2270.7</ele>
        <time>2021-04-17T21:04:35Z</time>
      </trkpt>
      <trkpt lat="4.9681260" lon="-75.5020730">
        <ele>2270.9</ele>
        <time>2021-04-17T21:04:36Z</time>
      </trkpt>
      <trkpt lat="4.9681440" lon="-75.5020740">
        <ele>2271.0</ele>
        <time>2021-04-17T21:04:37Z</time>
      </trkpt>
      <trkpt lat="4.9681590" lon="-75.5020740">
        <ele>2271.1</ele>
        <time>2021-04-17T21:04:38Z</time>
      </trkpt>
      <trkpt lat="4.9681740" lon="-75.5020750">
        <ele>2271.3</ele>
        <time>2021-04-17T21:04:39Z</time>
      </trkpt>
      <trkpt lat="4.9681890" lon="-75.5020760">
        <ele>2271.4</ele>
        <time>2021-04-17T21:04:40Z</time>
      </trkpt>
      <trkpt lat="4.9682060" lon="-75.5020740">
        <ele>2271.6</ele>
        <time>2021-04-17T21:04:41Z</time>
      </trkpt>
      <trkpt lat="4.9682240" lon="-75.5020730">
        <ele>2271.7</ele>
        <time>2021-04-17T21:04:42Z</time>
      </trkpt>
      <trkpt lat="4.9682430" lon="-75.5020690">
        <ele>2271.9</ele>
        <time>2021-04-17T21:04:43Z</time>
      </trkpt>
      <trkpt lat="4.9682630" lon="-75.5020630">
        <ele>2272.1</ele>
        <time>2021-04-17T21:04:44Z</time>
      </trkpt>
      <trkpt lat="4.9682840" lon="-75.5020590">
        <ele>2272.3</ele>
        <time>2021-04-17T21:04:45Z</time>
      </trkpt>
      <trkpt lat="4.9683040" lon="-75.5020530">
        <ele>2272.5</ele>
        <time>2021-04-17T21:04:46Z</time>
      </trkpt>
      <trkpt lat="4.9683250" lon="-75.5020490">
        <ele>2272.7</ele>
        <time>2021-04-17T21:04:47Z</time>
      </trkpt>
      <trkpt lat="4.9683460" lon="-75.5020470">
        <ele>2272.8</ele>
        <time>2021-04-17T21:04:48Z</time>
      </trkpt>
      <trkpt lat="4.9683650" lon="-75.5020430">
        <ele>2273.0</ele>
        <time>2021-04-17T21:04:49Z</time>
      </trkpt>
      <trkpt lat="4.9683840" lon="-75.5020410">
        <ele>2273.2</ele>
        <time>2021-04-17T21:04:50Z</time>
      </trkpt>
      <trkpt lat="4.9684020" lon="-75.5020370">
        <ele>2273.3</ele>
        <time>2021-04-17T21:04:51Z</time>
      </trkpt>
      <trkpt lat="4.9684240" lon="-75.5020310">
        <ele>2273.5</ele>
        <time>2021-04-17T21:04:52Z</time>
      </trkpt>
      <trkpt lat="4.9684430" lon="-75.5020260">
        <ele>2273.7</ele>
        <time>2021-04-17T21:04:53Z</time>
      </trkpt>
      <trkpt lat="4.9684630" lon="-75.5020210">
        <ele>2273.9</ele>
        <time>2021-04-17T21:04:54Z</time>
      </trkpt>
      <trkpt lat="4.9684830" lon="-75.5020140">
        <ele>2274.1</ele>
        <time>2021-04-17T21:04:55Z</time>
      </trkpt>
      <trkpt lat="4.9685010" lon="-75.5020070">
        <ele>2274.3</ele>
        <time>2021-04-17T21:04:56Z</time>
      </trkpt>
      <trkpt lat="4.9685210" lon="-75.5020060">
        <ele>2274.4</ele>
        <time>2021-04-17T21:04:57Z</time>
      </trkpt>
      <trkpt lat="4.9685410" lon="-75.5020070">
        <ele>2274.6</ele>
        <time>2021-04-17T21:04:58Z</time>
      </trkpt>
      <trkpt lat="4.9685600" lon="-75.5020020">
        <ele>2274.8</ele>
        <time>2021-04-17T21:04:59Z</time>
      </trkpt>
      <trkpt lat="4.9685780" lon="-75.5019960">
        <ele>2275.0</ele>
        <time>2021-04-17T21:05:00Z</time>
      </trkpt>
      <trkpt lat="4.9685960" lon="-75.5019920">
        <ele>2275.1</ele>
        <time>2021-04-17T21:05:01Z</time>
      </trkpt>
      <trkpt lat="4.9686130" lon="-75.5019870">
        <ele>2275.3</ele>
        <time>2021-04-17T21:05:02Z</time>
      </trkpt>
      <trkpt lat="4.9686290" lon="-75.5019790">
        <ele>2275.4</ele>
        <time>2021-04-17T21:05:03Z</time>
      </trkpt>
      <trkpt lat="4.9686430" lon="-75.5019680">
        <ele>2275.6</ele>
        <time>2021-04-17T21:05:04Z</time>
      </trkpt>
      <trkpt lat="4.9686570" lon="-75.5019570">
        <ele>2275.8</ele>
        <time>2021-04-17T21:05:05Z</time>
      </trkpt>
      <trkpt lat="4.9686680" lon="-75.5019450">
        <ele>2275.9</ele>
        <time>2021-04-17T21:05:06Z</time>
      </trkpt>
      <trkpt lat="4.9686810" lon="-75.5019330">
        <ele>2276.1</ele>
        <time>2021-04-17T21:05:07Z</time>
      </trkpt>
      <trkpt lat="4.9686900" lon="-75.5019180">
        <ele>2276.2</ele>
        <time>2021-04-17T21:05:08Z</time>
      </trkpt>
      <trkpt lat="4.9687000" lon="-75.5019030">
        <ele>2276.4</ele>
        <time>2021-04-17T21:05:09Z</time>
      </trkpt>
      <trkpt lat="4.9687080" lon="-75.5018910">
        <ele>2276.5</ele>
        <time>2021-04-17T21:05:10Z</time>
      </trkpt>
      <trkpt lat="4.9687140" lon="-75.5018800">
        <ele>2276.6</ele>
        <time>2021-04-17T21:05:11Z</time>
      </trkpt>
      <trkpt lat="4.9687190" lon="-75.5018690">
        <ele>2276.7</ele>
        <time>2021-04-17T21:05:12Z</time>
      </trkpt>
      <trkpt lat="4.9687250" lon="-75.5018570">
        <ele>2276.8</ele>
        <time>2021-04-17T21:05:13Z</time>
      </trkpt>
      <trkpt lat="4.9687290" lon="-75.5018440">
        <ele>2277.0</ele>
        <time>2021-04-17T21:05:14Z</time>
      </trkpt>
      <trkpt lat="4.9687320" lon="-75.5018300">
        <ele>2277.1</ele>
        <time>2021-04-17T21:05:15Z</time>
      </trkpt>
      <trkpt lat="4.9687340" lon="-75.5018170">
        <ele>2277.2</ele>
        <time>2021-04-17T21:05:16Z</time>
      </trkpt>
      <trkpt lat="4.9687360" lon="-75.5018040">
        <ele>2277.3</ele>
        <time>2021-04-17T21:05:17Z</time>
      </trkpt>
      <trkpt lat="4.9687370" lon="-75.5017900">
        <ele>2277.4</ele>
        <time>2021-04-17T21:05:18Z</time>
      </trkpt>
      <trkpt lat="4.9687370" lon="-75.5017750">
        <ele>2277.6</ele>
        <time>2021-04-17T21:05:19Z</time>
      </trkpt>
      <trkpt lat="4.9687370" lon="-75.5017580">
        <ele>2277.7</ele>
        <time>2021-04-17T21:05:20Z</time>
      </trkpt>
      <trkpt lat="4.9687390" lon="-75.5017390">
        <ele>2277.9</ele>
        <time>2021-04-17T21:05:21Z</time>
      </trkpt>
      <trkpt lat="4.9687410" lon="-75.5017170">
        <ele>2278.1</ele>
        <time>2021-04-17T21:05:22Z</time>
      </trkpt>
      <trkpt lat="4.9687370" lon="-75.5016960">
        <ele>2278.3</ele>
        <time>2021-04-17T21:05:23Z</time>
      </trkpt>
      <trkpt lat="4.9687350" lon="-75.5016790">
        <ele>2278.4</ele>
        <time>2021-04-17T21:05:24Z</time>
      </trkpt>
      <trkpt lat="4.9687340" lon="-75.5016600">
        <ele>2278.6</ele>
        <time>2021-04-17T21:05:25Z</time>
      </trkpt>
      <trkpt lat="4.9687330" lon="-75.5016400">
        <ele>2278.8</ele>
        <time>2021-04-17T21:05:26Z</time>
      </trkpt>
      <trkpt lat="4.9687320" lon="-75.5016210">
        <ele>2279.0</ele>
        <time>2021-04-17T21:05:27Z</time>
      </trkpt>
      <trkpt lat="4.9687320" lon="-75.5016000">
        <ele>2279.1</ele>
        <time>2021-04-17T21:05:28Z</time>
      </trkpt>
      <trkpt lat="4.9687310" lon="-75.5015810">
        <ele>2279.3</ele>
        <time>2021-04-17T21:05:29Z</time>
      </trkpt>
      <trkpt lat="4.9687260" lon="-75.5015610">
        <ele>2279.5</ele>
        <time>2021-04-17T21:05:30Z</time>
      </trkpt>
      <trkpt lat="4.9687220" lon="-75.5015430">
        <ele>2279.7</ele>
        <time>2021-04-17T21:05:31Z</time>
      </trkpt>
      <trkpt lat="4.9687180" lon="-75.5015230">
        <ele>2279.8</ele>
        <time>2021-04-17T21:05:32Z</time>
      </trkpt>
      <trkpt lat="4.9687150" lon="-75.5015050">
        <ele>2280.0</ele>
        <time>2021-04-17T21:05:33Z</time>
      </trkpt>
      <trkpt lat="4.9687110" lon="-75.5014860">
        <ele>2280.2</ele>
        <time>2021-04-17T21:05:34Z</time>
      </trkpt>
      <trkpt lat="4.9687140" lon="-75.5014670">
        <ele>2280.3</ele>
        <time>2021-04-17T21:05:35Z</time>
      </trkpt>
      <trkpt lat="4.9687150" lon="-75.5014480">
        <ele>2280.5</ele>
        <time>2021-04-17T21:05:36Z</time>
      </trkpt>
      <trkpt lat="4.9687150" lon="-75.5014290">
        <ele>2280.7</ele>
        <time>2021-04-17T21:05:37Z</time>
      </trkpt>
      <trkpt lat="4.9687150" lon="-75.5014110">
        <ele>2280.8</ele>
        <time>2021-04-17T21:05:38Z</time>
      </trkpt>
      <trkpt lat="4.9687160" lon="-75.5013930">
        <ele>2281.0</ele>
        <time>2021-04-17T21:05:39Z</time>
      </trkpt>
      <trkpt lat="4.9687160" lon="-75.5013740">
        <ele>2281.2</ele>
        <time>2021-04-17T21:05:40Z</time>
      </trkpt>
      <trkpt lat="4.9687180" lon="-75.5013570">
        <ele>2281.3</ele>
        <time>2021-04-17T21:05:41Z</time>
      </trkpt>
      <trkpt lat="4.9687180" lon="-75.5013390">
        <ele>2281.5</ele>
        <time>2021-04-17T21:05:42Z</time>
      </trkpt>
      <trkpt lat="4.9687180" lon="-75.5013220">
        <ele>2281.6</ele>
        <time>2021-04-17T21:05:43Z</time>
      </trkpt>
      <trkpt lat="4.9687170" lon="-75.5013050">
        <ele>2281.8</ele>
        <time>2021-04-17T21:05:44Z</time>
      </trkpt>
      <trkpt lat="4.9687170" lon="-75.5012870">
        <ele>2281.9</ele>
        <time>2021-04-17T21:05:45Z</time>
      </trkpt>
      <trkpt lat="4.9687150" lon="-75.5012700">
        <ele>2282.1</ele>
        <time>2021-04-17T21:05:46Z</time>
      </trkpt>
      <trkpt lat="4.9687120" lon="-75.5012540">
        <ele>2282.2</ele>
        <time>2021-04-17T21:05:47Z</time>
      </trkpt>
      <trkpt lat="4.9687080" lon="-75.5012360">
        <ele>2282.4</ele>
        <time>2021-04-17T21:05:48Z</time>
      </trkpt>
      <trkpt lat="4.9687060" lon="-75.5012180">
        <ele>2282.6</ele>
        <time>2021-04-17T21:05:49Z</time>
      </trkpt>
      <trkpt lat="4.9687000" lon="-75.5012030">
        <ele>2282.7</ele>
        <time>2021-04-17T21:05:50Z</time>
      </trkpt>
      <trkpt lat="4.9686950" lon="-75.5011870">
        <ele>2282.8</ele>
        <time>2021-04-17T21:05:51Z</time>
      </trkpt>
      <trkpt lat="4.9686890" lon="-75.5011700">
        <ele>2283.0</ele>
        <time>2021-04-17T21:05:52Z</time>
      </trkpt>
      <trkpt lat="4.9686840" lon="-75.5011550">
        <ele>2283.1</ele>
        <time>2021-04-17T21:05:53Z</time>
      </trkpt>
      <trkpt lat="4.9686790" lon="-75.5011390">
        <ele>2283.3</ele>
        <time>2021-04-17T21:05:54Z</time>
      </trkpt>
      <trkpt lat="4.9686760" lon="-75.5011230">
        <ele>2283.4</ele>
        <time>2021-04-17T21:05:55Z</time>
      </trkpt>
      <trkpt lat="4.9686700" lon="-75.5011050">
        <ele>2283.6</ele>
        <time>2021-04-17T21:05:56Z</time>
      </trkpt>
      <trkpt lat="4.9686630" lon="-75.5010860">
        <ele>2283.8</ele>
        <time>2021-04-17T21:05:57Z</time>
      </trkpt>
      <trkpt lat="4.9686560" lon="-75.5010660">
        <ele>2284.0</ele>
        <time>2021-04-17T21:05:58Z</time>
      </trkpt>
      <trkpt lat="4.9686490" lon="-75.5010480">
        <ele>2284.1</ele>
        <time>2021-04-17T21:05:59Z</time>
      </trkpt>
      <trkpt lat="4.9686430" lon="-75.5010320">
        <ele>2284.3</ele>
        <time>2021-04-17T21:06:00Z</time>
      </trkpt>
      <trkpt lat="4.9686360" lon="-75.5010160">
        <ele>2284.5</ele>
        <time>2021-04-17T21:06:01Z</time>
      </trkpt>
      <trkpt lat="4.9686310" lon="-75.5010010">
        <ele>2284.6</ele>
        <time>2021-04-17T21:06:02Z</time>
      </trkpt>
      <trkpt lat="4.9686260" lon="-75.5009850">
        <ele>2284.7</ele>
        <time>2021-04-17T21:06:03Z</time>
      </trkpt>
      <trkpt lat="4.9686190" lon="-75.5009690">
        <ele>2284.9</ele>
        <time>2021-04-17T21:06:04Z</time>
      </trkpt>
      <trkpt lat="4.9686120" lon="-75.5009550">
        <ele>2285.0</ele>
        <time>2021-04-17T21:06:05Z</time>
      </trkpt>
      <trkpt lat="4.9686050" lon="-75.5009410">
        <ele>2285.2</ele>
        <time>2021-04-17T21:06:06Z</time>
      </trkpt>
      <trkpt lat="4.9685970" lon="-75.5009260">
        <ele>2285.3</ele>
        <time>2021-04-17T21:06:07Z</time>
      </trkpt>
      <trkpt lat="4.9685900" lon="-75.5009110">
        <ele>2285.5</ele>
        <time>2021-04-17T21:06:08Z</time>
      </trkpt>
      <trkpt lat="4.9685820" lon="-75.5008940">
        <ele>2285.6</ele>
        <time>2021-04-17T21:06:09Z</time>
      </trkpt>
      <trkpt lat="4.9685780" lon="-75.5008760">
        <ele>2285.8</ele>
        <time>2021-04-17T21:06:10Z</time>
      </trkpt>
      <trkpt lat="4.9685720" lon="-75.5008590">
        <ele>2286.0</ele>
        <time>2021-04-17T21:06:11Z</time>
      </trkpt>
      <trkpt lat="4.9685640" lon="-75.5008420">
        <ele>2286.1</ele>
        <time>2021-04-17T21:06:12Z</time>
      </trkpt>
      <trkpt lat="4.9685550" lon="-75.5008260">
        <ele>2286.3</ele>
        <time>2021-04-17T21:06:13Z</time>
      </trkpt>
      <trkpt lat="4.9685470" lon="-75.5008120">
        <ele>2286.4</ele>
        <time>2021-04-17T21:06:14Z</time>
      </trkpt>
      <trkpt lat="4.9685410" lon="-75.5007970">
        <ele>2286.6</ele>
        <time>2021-04-17T21:06:15Z</time>
      </trkpt>
      <trkpt lat="4.9685370" lon="-75.5007810">
        <ele>2286.7</ele>
        <time>2021-04-17T21:06:16Z</time>
      </trkpt>
      <trkpt lat="4.9685320" lon="-75.5007640">
        <ele>2286.9</ele>
        <time>2021-04-17T21:06:17Z</time>
      </trkpt>
      <trkpt lat="4.9685260" lon="-75.5007450">
        <ele>2287.1</ele>
        <time>2021-04-17T21:06:18Z</time>
      </trkpt>
      <trkpt lat="4.9685190" lon="-75.5007270">
        <ele>2287.2</ele>
        <time>2021-04-17T21:06:19Z</time>
      </trkpt>
      <trkpt lat="4.9685120" lon="-75.5007090">
        <ele>2287.4</ele>
        <time>2021-04-17T21:06:20Z</time>
      </trkpt>
      <trkpt lat="4.9685050" lon="-75.5006900">
        <ele>2287.6</ele>
        <time>2021-04-17T21:06:21Z</time>
      </trkpt>
      <trkpt lat="4.9684990" lon="-75.5006730">
        <ele>2287.7</ele>
        <time>2021-04-17T21:06:22Z</time>
      </trkpt>
      <trkpt lat="4.9684950" lon="-75.5006530">
        <ele>2287.9</ele>
        <time>2021-04-17T21:06:23Z</time>
      </trkpt>
      <trkpt lat="4.9684900" lon="-75.5006350">
        <ele>2288.1</ele>
        <time>2021-04-17T21:06:24Z</time>
      </trkpt>
      <trkpt lat="4.9684830" lon="-75.5006170">
        <ele>2288.3</ele>
        <time>2021-04-17T21:06:25Z</time>
      </trkpt>
      <trkpt lat="4.9684740" lon="-75.5005980">
        <ele>2288.4</ele>
        <time>2021-04-17T21:06:26Z</time>
      </trkpt>
      <trkpt lat="4.9684660" lon="-75.5005810">
        <ele>2288.6</ele>
        <time>2021-04-17T21:06:27Z</time>
      </trkpt>
      <trkpt lat="4.9684610" lon="-75.5005640">
        <ele>2288.8</ele>
        <time>2021-04-17T21:06:28Z</time>
      </trkpt>
      <trkpt lat="4.9684550" lon="-75.5005460">
        <ele>2288.9</ele>
        <time>2021-04-17T21:06:29Z</time>
      </trkpt>
      <trkpt lat="4.9684510" lon="-75.5005280">
        <ele>2289.1</ele>
        <time>2021-04-17T21:06:30Z</time>
      </trkpt>
      <trkpt lat="4.9684470" lon="-75.5005090">
        <ele>2289.3</ele>
        <time>2021-04-17T21:06:31Z</time>
      </trkpt>
      <trkpt lat="4.9684440" lon="-75.5004910">
        <ele>2289.4</ele>
        <time>2021-04-17T21:06:32Z</time>
      </trkpt>
      <trkpt lat="4.9684440" lon="-75.5004750">
        <ele>2289.6</ele>
        <time>2021-04-17T21:06:33Z</time>
      </trkpt>
      <trkpt lat="4.9684460" lon="-75.5004580">
        <ele>2289.7</ele>
        <time>2021-04-17T21:06:34Z</time>
      </trkpt>
      <trkpt lat="4.9684490" lon="-75.5004410">
        <ele>2289.9</ele>
        <time>2021-04-17T21:06:35Z</time>
      </trkpt>
      <trkpt lat="4.9684560" lon="-75.5004240">
        <ele>2290.0</ele>
        <time>2021-04-17T21:06:36Z</time>
      </trkpt>
      <trkpt lat="4.9684640" lon="-75.5004060">
        <ele>2290.2</ele>
        <time>2021-04-17T21:06:37Z</time>
      </trkpt>
      <trkpt lat="4.9684710" lon="-75.5003880">
        <ele>2290.4</ele>
        <time>2021-04-17T21:06:38Z</time>
      </trkpt>
      <trkpt lat="4.9684800" lon="-75.5003700">
        <ele>2290.6</ele>
        <time>2021-04-17T21:06:39Z</time>
      </trkpt>
      <trkpt lat="4.9684900" lon="-75.5003540">
        <ele>2290.7</ele>
        <time>2021-04-17T21:06:40Z</time>
      </trkpt>
      <trkpt lat="4.9685030" lon="-75.5003400">
        <ele>2290.9</ele>
        <time>2021-04-17T21:06:41Z</time>
      </trkpt>
      <trkpt lat="4.9685170" lon="-75.5003280">
        <ele>2291.1</ele>
        <time>2021-04-17T21:06:42Z</time>
      </trkpt>
      <trkpt lat="4.9685310" lon="-75.5003180">
        <ele>2291.2</ele>
        <time>2021-04-17T21:06:43Z</time>
      </trkpt>
      <trkpt lat="4.9685470" lon="-75.5003090">
        <ele>2291.4</ele>
        <time>2021-04-17T21:06:44Z</time>
      </trkpt>
      <trkpt lat="4.9685660" lon="-75.5003020">
        <ele>2291.6</ele>
        <time>2021-04-17T21:06:45Z</time>
      </trkpt>
      <trkpt lat="4.9685840" lon="-75.5002980">
        <ele>2291.7</ele>
        <time>2021-04-17T21:06:46Z</time>
      </trkpt>
      <trkpt lat="4.9686020" lon="-75.5002980">
        <ele>2291.9</ele>
        <time>2021-04-17T21:06:47Z</time>
      </trkpt>
      <trkpt lat="4.9686210" lon="-75.5002990">
        <ele>2292.1</ele>
        <time>2021-04-17T21:06:48Z</time>
      </trkpt>
      <trkpt lat="4.9686420" lon="-75.5003000">
        <ele>2292.2</ele>
        <time>2021-04-17T21:06:49Z</time>
      </trkpt>
      <trkpt lat="4.9686630" lon="-75.5003000">
        <ele>2292.4</ele>
        <time>2021-04-17T21:06:50Z</time>
      </trkpt>
      <trkpt lat="4.9686840" lon="-75.5002980">
        <ele>2292.6</ele>
        <time>2021-04-17T21:06:51Z</time>
      </trkpt>
      <trkpt lat="4.9687060" lon="-75.5002930">
        <ele>2292.8</ele>
        <time>2021-04-17T21:06:52Z</time>
      </trkpt>
      <trkpt lat="4.9687260" lon="-75.5002900">
        <ele>2293.0</ele>
        <time>2021-04-17T21:06:53Z</time>
      </trkpt>
      <trkpt lat="4.9687470" lon="-75.5002880">
        <ele>2293.2</ele>
        <time>2021-04-17T21:06:54Z</time>
      </trkpt>
      <trkpt lat="4.9687680" lon="-75.5002880">
        <ele>2293.4</ele>
        <time>2021-04-17T21:06:55Z</time>
      </trkpt>
      <trkpt lat="4.9687870" lon="-75.5002880">
        <ele>2293.5</ele>
        <time>2021-04-17T21:06:56Z</time>
      </trkpt>
      <trkpt lat="4.9688070" lon="-75.5002880">
        <ele>2293.7</ele>
        <time>2021-04-17T21:06:57Z</time>
      </trkpt>
      <trkpt lat="4.9688270" lon="-75.5002870">
        <ele>2293.9</ele>
        <time>2021-04-17T21:06:58Z</time>
      </trkpt>
      <trkpt lat="4.9688470" lon="-75.5002870">
        <ele>2294.1</ele>
        <time>2021-04-17T21:06:59Z</time>
      </trkpt>
      <trkpt lat="4.9688680" lon="-75.5002870">
        <ele>2294.3</ele>
        <time>2021-04-17T21:07:00Z</time>
      </trkpt>
      <trkpt lat="4.9688860" lon="-75.5002870">
        <ele>2294.4</ele>
        <time>2021-04-17T21:07:01Z</time>
      </trkpt>
      <trkpt lat="4.9689050" lon="-75.5002860">
        <ele>2294.6</ele>
        <time>2021-04-17T21:07:02Z</time>
      </trkpt>
      <trkpt lat="4.9689250" lon="-75.5002850">
        <ele>2294.8</ele>
        <time>2021-04-17T21:07:03Z</time>
      </trkpt>
      <trkpt lat="4.9689470" lon="-75.5002850">
        <ele>2295.0</ele>
        <time>2021-04-17T21:07:04Z</time>
      </trkpt>
      <trkpt lat="4.9689680" lon="-75.5002840">
        <ele>2295.2</ele>
        <time>2021-04-17T21:07:05Z</time>
      </trkpt>
      <trkpt lat="4.9689890" lon="-75.5002830">
        <ele>2295.3</ele>
        <time>2021-04-17T21:07:06Z</time>
      </trkpt>
      <trkpt lat="4.9690090" lon="-75.5002810">
        <ele>2295.5</ele>
        <time>2021-04-17T21:07:07Z</time>
      </trkpt>
      <trkpt lat="4.9690290" lon="-75.5002800">
        <ele>2295.7</ele>
        <time>2021-04-17T21:07:08Z</time>
      </trkpt>
      <trkpt lat="4.9690490" lon="-75.5002780">
        <ele>2295.9</ele>
        <time>2021-04-17T21:07:09Z</time>
      </trkpt>
      <trkpt lat="4.9690690" lon="-75.5002780">
        <ele>2296.1</ele>
        <time>2021-04-17T21:07:10Z</time>
      </trkpt>
      <trkpt lat="4.9690870" lon="-75.5002780">
        <ele>2296.2</ele>
        <time>2021-04-17T21:07:11Z</time>
      </trkpt>
      <trkpt lat="4.9691060" lon="-75.5002760">
        <ele>2296.4</ele>
        <time>2021-04-17T21:07:12Z</time>
      </trkpt>
      <trkpt lat="4.9691250" lon="-75.5002720">
        <ele>2296.6</ele>
        <time>2021-04-17T21:07:13Z</time>
      </trkpt>
      <trkpt lat="4.9691440" lon="-75.5002700">
        <ele>2296.7</ele>
        <time>2021-04-17T21:07:14Z</time>
      </trkpt>
      <trkpt lat="4.9691630" lon="-75.5002670">
        <ele>2296.9</ele>
        <time>2021-04-17T21:07:15Z</time>
      </trkpt>
      <trkpt lat="4.9691830" lon="-75.5002650">
        <ele>2297.1</ele>
        <time>2021-04-17T21:07:16Z</time>
      </trkpt>
      <trkpt lat="4.9692040" lon="-75.5002630">
        <ele>2297.3</ele>
        <time>2021-04-17T21:07:17Z</time>
      </trkpt>
      <trkpt lat="4.9692240" lon="-75.5002610">
        <ele>2297.4</ele>
        <time>2021-04-17T21:07:18Z</time>
      </trkpt>
      <trkpt lat="4.9692430" lon="-75.5002570">
        <ele>2297.6</ele>
        <time>2021-04-17T21:07:19Z</time>
      </trkpt>
      <trkpt lat="4.9692620" lon="-75.5002540">
        <ele>2297.8</ele>
        <time>2021-04-17T21:07:20Z</time>
      </trkpt>
      <trkpt lat="4.9692810" lon="-75.5002510">
        <ele>2298.0</ele>
        <time>2021-04-17T21:07:21Z</time>
      </trkpt>
      <trkpt lat="4.9693020" lon="-75.5002480">
        <ele>2298.1</ele>
        <time>2021-04-17T21:07:22Z</time>
      </trkpt>
      <trkpt lat="4.9693220" lon="-75.5002470">
        <ele>2298.3</ele>
        <time>2021-04-17T21:07:23Z</time>
      </trkpt>
      <trkpt lat="4.9693420" lon="-75.5002440">
        <ele>2298.5</ele>
        <time>2021-04-17T21:07:24Z</time>
      </trkpt>
      <trkpt lat="4.9693610" lon="-75.5002410">
        <ele>2298.7</ele>
        <time>2021-04-17T21:07:25Z</time>
      </trkpt>
      <trkpt lat="4.9693780" lon="-75.5002410">
        <ele>2298.8</ele>
        <time>2021-04-17T21:07:26Z</time>
      </trkpt>
      <trkpt lat="4.9693960" lon="-75.5002410">
        <ele>2299.0</ele>
        <time>2021-04-17T21:07:27Z</time>
      </trkpt>
      <trkpt lat="4.9694110" lon="-75.5002400">
        <ele>2299.1</ele>
        <time>2021-04-17T21:07:28Z</time>
      </trkpt>
      <trkpt lat="4.9694240" lon="-75.5002370">
        <ele>2299.2</ele>
        <time>2021-04-17T21:07:29Z</time>
      </trkpt>
      <trkpt lat="4.9694370" lon="-75.5002340">
        <ele>2299.4</ele>
        <time>2021-04-17T21:07:30Z</time>
      </trkpt>
      <trkpt lat="4.9694520" lon="-75.5002320">
        <ele>2299.5</ele>
        <time>2021-04-17T21:07:31Z</time>
      </trkpt>
      <trkpt lat="4.9694680" lon="-75.5002300">
        <ele>2299.6</ele>
        <time>2021-04-17T21:07:32Z</time>
      </trkpt>
      <trkpt lat="4.9694830" lon="-75.5002270">
        <ele>2299.8</ele>
        <time>2021-04-17T21:07:33Z</time>
      </trkpt>
      <trkpt lat="4.9694990" lon="-75.5002220">
        <ele>2299.9</ele>
        <time>2021-04-17T21:07:34Z</time>
      </trkpt>
      <trkpt lat="4.9695150" lon="-75.5002150">
        <ele>2300.1</ele>
        <time>2021-04-17T21:07:35Z</time>
      </trkpt>
      <trkpt lat="4.9695310" lon="-75.5002090">
        <ele>2300.2</ele>
        <time>2021-04-17T21:07:36Z</time>
      </trkpt>
      <trkpt lat="4.9695470" lon="-75.5002040">
        <ele>2300.4</ele>
        <time>2021-04-17T21:07:37Z</time>
      </trkpt>
      <trkpt lat="4.9695630" lon="-75.5002010">
        <ele>2300.5</ele>
        <time>2021-04-17T21:07:38Z</time>
      </trkpt>
      <trkpt lat="4.9695780" lon="-75.5001960">
        <ele>2300.7</ele>
        <time>2021-04-17T21:07:39Z</time>
      </trkpt>
      <trkpt lat="4.9695940" lon="-75.5001910">
        <ele>2300.8</ele>
        <time>2021-04-17T21:07:40Z</time>
      </trkpt>
      <trkpt lat="4.9696070" lon="-75.5001860">
        <ele>2300.9</ele>
        <time>2021-04-17T21:07:41Z</time>
      </trkpt>
      <trkpt lat="4.9696230" lon="-75.5001840">
        <ele>2301.1</ele>
        <time>2021-04-17T21:07:42Z</time>
      </trkpt>
      <trkpt lat="4.9696430" lon="-75.5001790">
        <ele>2301.3</ele>
        <time>2021-04-17T21:07:43Z</time>
      </trkpt>
      <trkpt lat="4.9696630" lon="-75.5001740">
        <ele>2301.4</ele>
        <time>2021-04-17T21:07:44Z</time>
      </trkpt>
      <trkpt lat="4.9696840" lon="-75.5001690">
        <ele>2301.6</ele>
        <time>2021-04-17T21:07:45Z</time>
      </trkpt>
      <trkpt lat="4.9697050" lon="-75.5001650">
        <ele>2301.8</ele>
        <time>2021-04-17T21:07:46Z</time>
      </trkpt>
      <trkpt lat="4.9697250" lon="-75.5001590">
        <ele>2302.0</ele>
        <time>2021-04-17T21:07:47Z</time>
      </trkpt>
      <trkpt lat="4.9697450" lon="-75.5001520">
        <ele>2302.2</ele>
        <time>2021-04-17T21:07:48Z</time>
      </trkpt>
      <trkpt lat="4.9697630" lon="-75.5001470">
        <ele>2302.4</ele>
        <time>2021-04-17T21:07:49Z</time>
      </trkpt>
      <trkpt lat="4.9697830" lon="-75.5001410">
        <ele>2302.6</ele>
        <time>2021-04-17T21:07:50Z</time>
      </trkpt>
      <trkpt lat="4.9698030" lon="-75.5001360">
        <ele>2302.7</ele>
        <time>2021-04-17T21:07:51Z</time>
      </trkpt>
      <trkpt lat="4.9698240" lon="-75.5001290">
        <ele>2302.9</ele>
        <time>2021-04-17T21:07:52Z</time>
      </trkpt>
      <trkpt lat="4.9698460" lon="-75.5001240">
        <ele>2303.1</ele>
        <time>2021-04-17T21:07:53Z</time>
      </trkpt>
      <trkpt lat="4.9698680" lon="-75.5001180">
        <ele>2303.3</ele>
        <time>2021-04-17T21:07:54Z</time>
      </trkpt>
      <trkpt lat="4.9698930" lon="-75.5001120">
        <ele>2303.6</ele>
        <time>2021-04-17T21:07:55Z</time>
      </trkpt>
      <trkpt lat="4.9699170" lon="-75.5001070">
        <ele>2303.8</ele>
        <time>2021-04-17T21:07:56Z</time>
      </trkpt>
      <trkpt lat="4.9699400" lon="-75.5000990">
        <ele>2304.0</ele>
        <time>2021-04-17T21:07:57Z</time>
      </trkpt>
      <trkpt lat="4.9699610" lon="-75.5000930">
        <ele>2304.2</ele>
        <time>2021-04-17T21:07:58Z</time>
      </trkpt>
      <trkpt lat="4.9699830" lon="-75.5000870">
        <ele>2304.4</ele>
        <time>2021-04-17T21:07:59Z</time>
      </trkpt>
      <trkpt lat="4.9700050" lon="-75.5000840">
        <ele>2304.6</ele>
        <time>2021-04-17T21:08:00Z</time>
      </trkpt>
      <trkpt lat="4.9700270" lon="-75.5000790">
        <ele>2304.8</ele>
        <time>2021-04-17T21:08:01Z</time>
      </trkpt>
      <trkpt lat="4.9700470" lon="-75.5000740">
        <ele>2305.0</ele>
        <time>2021-04-17T21:08:02Z</time>
      </trkpt>
      <trkpt lat="4.9700670" lon="-75.5000670">
        <ele>2305.2</ele>
        <time>2021-04-17T21:08:03Z</time>
      </trkpt>
      <trkpt lat="4.9700860" lon="-75.5000620">
        <ele>2305.3</ele>
        <time>2021-04-17T21:08:04Z</time>
      </trkpt>
      <trkpt lat="4.9701060" lon="-75.5000600">
        <ele>2305.5</ele>
        <time>2021-04-17T21:08:05Z</time>
      </trkpt>
      <trkpt lat="4.9701260" lon="-75.5000550">
        <ele>2305.7</ele>
        <time>2021-04-17T21:08:06Z</time>
      </trkpt>
      <trkpt lat="4.9701460" lon="-75.5000500">
        <ele>2305.9</ele>
        <time>2021-04-17T21:08:07Z</time>
      </trkpt>
      <trkpt lat="4.9701680" lon="-75.5000440">
        <ele>2306.1</ele>
        <time>2021-04-17T21:08:08Z</time>
      </trkpt>
      <trkpt lat="4.9701890" lon="-75.5000360">
        <ele>2306.3</ele>
        <time>2021-04-17T21:08:09Z</time>
      </trkpt>
      <trkpt lat="4.9702080" lon="-75.5000290">
        <ele>2306.5</ele>
        <time>2021-04-17T21:08:10Z</time>
      </trkpt>
      <trkpt lat="4.9702280" lon="-75.5000230">
        <ele>2306.7</ele>
        <time>2021-04-17T21:08:11Z</time>
      </trkpt>
      <trkpt lat="4.9702520" lon="-75.5000160">
        <ele>2306.9</ele>
        <time>2021-04-17T21:08:12Z</time>
      </trkpt>
      <trkpt lat="4.9702760" lon="-75.5000080">
        <ele>2307.1</ele>
        <time>2021-04-17T21:08:13Z</time>
      </trkpt>
      <trkpt lat="4.9702960" lon="-75.5000000">
        <ele>2307.3</ele>
        <time>2021-04-17T21:08:14Z</time>
      </trkpt>
      <trkpt lat="4.9703140" lon="-75.4999910">
        <ele>2307.5</ele>
        <time>2021-04-17T21:08:15Z</time>
      </trkpt>
      <trkpt lat="4.9703310" lon="-75.4999810">
        <ele>2307.6</ele>
        <time>2021-04-17T21:08:16Z</time>
      </trkpt>
      <trkpt lat="4.9703480" lon="-75.4999700">
        <ele>2307.8</ele>
        <time>2021-04-17T21:08:17Z</time>
      </trkpt>
      <trkpt lat="4.9703650" lon="-75.4999580">
        <ele>2308.0</ele>
        <time>2021-04-17T21:08:18Z</time>
      </trkpt>
      <trkpt lat="4.9703840" lon="-75.4999490">
        <ele>2308.2</ele>
        <time>2021-04-17T21:08:19Z</time>
      </trkpt>
      <trkpt lat="4.9704020" lon="-75.4999400">
        <ele>2308.4</ele>
        <time>2021-04-17T21:08:20Z</time>
      </trkpt>
      <trkpt lat="4.9704190" lon="-75.4999300">
        <ele>2308.6</ele>
        <time>2021-04-17T21:08:21Z</time>
      </trkpt>
      <trkpt lat="4.9704350" lon="-75.4999180">
        <ele>2308.7</ele>
        <time>2021-04-17T21:08:22Z</time>
      </trkpt>
      <trkpt lat="4.9704510" lon="-75.4999040">
        <ele>2308.9</ele>
        <time>2021-04-17T21:08:23Z</time>
      </trkpt>
      <trkpt lat="4.9704680" lon="-75.4998920">
        <ele>2309.1</ele>
        <time>2021-04-17T21:08:24Z</time>
      </trkpt>
      <trkpt lat="4.9704830" lon="-75.4998800">
        <ele>2309.3</ele>
        <time>2021-04-17T21:08:25Z</time>
      </trkpt>
      <trkpt lat="4.9704990" lon="-75.4998680">
        <ele>2309.5</ele>
        <time>2021-04-17T21:08:26Z</time>
      </trkpt>
      <trkpt lat="4.9705160" lon="-75.4998550">
        <ele>2309.6</ele>
        <time>2021-04-17T21:08:27Z</time>
      </trkpt>
      <trkpt lat="4.9705320" lon="-75.4998410">
        <ele>2309.8</ele>
        <time>2021-04-17T21:08:28Z</time>
      </trkpt>
      <trkpt lat="4.9705510" lon="-75.4998270">
        <ele>2310.0</ele>
        <time>2021-04-17T21:08:29Z</time>
      </trkpt>
      <trkpt lat="4.9705690" lon="-75.4998130">
        <ele>2310.2</ele>
        <time>2021-04-17T21:08:30Z</time>
      </trkpt>
      <trkpt lat="4.9705870" lon="-75.4997990">
        <ele>2310.4</ele>
        <time>2021-04-17T21:08:31Z</time>
      </trkpt>
      <trkpt lat="4.9706060" lon="-75.4997840">
        <ele>2310.7</ele>
        <time>2021-04-17T21:08:32Z</time>
      </trkpt>
      <trkpt lat="4.9706240" lon="-75.4997680">
        <ele>2310.9</ele>
        <time>2021-04-17T21:08:33Z</time>
      </trkpt>
      <trkpt lat="4.9706440" lon="-75.4997510">
        <ele>2311.1</ele>
        <time>2021-04-17T21:08:34Z</time>
      </trkpt>
      <trkpt lat="4.9706640" lon="-75.4997350">
        <ele>2311.3</ele>
        <time>2021-04-17T21:08:35Z</time>
      </trkpt>
      <trkpt lat="4.9706840" lon="-75.4997190">
        <ele>2311.6</ele>
        <time>2021-04-17T21:08:36Z</time>
      </trkpt>
      <trkpt lat="4.9707040" lon="-75.4997020">
        <ele>2311.8</ele>
        <time>2021-04-17T21:08:37Z</time>
      </trkpt>
      <trkpt lat="4.9707250" lon="-75.4996870">
        <ele>2312.0</ele>
        <time>2021-04-17T21:08:38Z</time>
      </trkpt>
      <trkpt lat="4.9707480" lon="-75.4996730">
        <ele>2312.3</ele>
        <time>2021-04-17T21:08:39Z</time>
      </trkpt>
      <trkpt lat="4.9707710" lon="-75.4996590">
        <ele>2312.5</ele>
        <time>2021-04-17T21:08:40Z</time>
      </trkpt>
      <trkpt lat="4.9707950" lon="-75.4996450">
        <ele>2312.7</ele>
        <time>2021-04-17T21:08:41Z</time>
      </trkpt>
      <trkpt lat="4.9708190" lon="-75.4996310">
        <ele>2313.0</ele>
        <time>2021-04-17T21:08:42Z</time>
      </trkpt>
      <trkpt lat="4.9708420" lon="-75.4996160">
        <ele>2313.2</ele>
        <time>2021-04-17T21:08:43Z</time>
      </trkpt>
      <trkpt lat="4.9708660" lon="-75.4996020">
        <ele>2313.5</ele>
        <time>2021-04-17T21:08:44Z</time>
      </trkpt>
      <trkpt lat="4.9708890" lon="-75.4995900">
        <ele>2313.7</ele>
        <time>2021-04-17T21:08:45Z</time>
      </trkpt>
      <trkpt lat="4.9709130" lon="-75.4995790">
        <ele>2314.0</ele>
        <time>2021-04-17T21:08:46Z</time>
      </trkpt>
      <trkpt lat="4.9709380" lon="-75.4995710">
        <ele>2314.2</ele>
        <time>2021-04-17T21:08:47Z</time>
      </trkpt>
      <trkpt lat="4.9709630" lon="-75.4995650">
        <ele>2314.4</ele>
        <time>2021-04-17T21:08:48Z</time>
      </trkpt>
      <trkpt lat="4.9709890" lon="-75.4995570">
        <ele>2314.7</ele>
        <time>2021-04-17T21:08:49Z</time>
      </trkpt>
      <trkpt lat="4.9710140" lon="-75.4995490">
        <ele>2314.9</ele>
        <time>2021-04-17T21:08:50Z</time>
      </trkpt>
      <trkpt lat="4.9710400" lon="-75.4995400">
        <ele>2315.1</ele>
        <time>2021-04-17T21:08:51Z</time>
      </trkpt>
      <trkpt lat="4.9710660" lon="-75.4995310">
        <ele>2315.4</ele>
        <time>2021-04-17T21:08:52Z</time>
      </trkpt>
      <trkpt lat="4.9710910" lon="-75.4995230">
        <ele>2315.6</ele>
        <time>2021-04-17T21:08:53Z</time>
      </trkpt>
      <trkpt lat="4.9711160" lon="-75.4995150">
        <ele>2315.8</ele>
        <time>2021-04-17T21:08:54Z</time>
      </trkpt>
      <trkpt lat="4.9711400" lon="-75.4995060">
        <ele>2316.1</ele>
        <time>2021-04-17T21:08:55Z</time>
      </trkpt>
      <trkpt lat="4.9711640" lon="-75.4994980">
        <ele>2316.3</ele>
        <time>2021-04-17T21:08:56Z</time>
      </trkpt>
      <trkpt lat="4.9711860" lon="-75.4994910">
        <ele>2316.5</ele>
        <time>2021-04-17T21:08:57Z</time>
      </trkpt>
      <trkpt lat="4.9712080" lon="-75.4994820">
        <ele>2316.7</ele>
        <time>2021-04-17T21:08:58Z</time>
      </trkpt>
      <trkpt lat="4.9712310" lon="-75.4994740">
        <ele>2316.9</ele>
        <time>2021-04-17T21:08:59Z</time>
      </trkpt>
      <trkpt lat="4.9712550" lon="-75.4994660">
        <ele>2317.2</ele>
        <time>2021-04-17T21:09:00Z</time>
      </trkpt>
      <trkpt lat="4.9712780" lon="-75.4994570">
        <ele>2317.4</ele>
        <time>2021-04-17T21:09:01Z</time>
      </trkpt>
      <trkpt lat="4.9713010" lon="-75.4994470">
        <ele>2317.6</ele>
        <time>2021-04-17T21:09:02Z</time>
      </trkpt>
      <trkpt lat="4.9713260" lon="-75.4994370">
        <ele>2317.8</ele>
        <time>2021-04-17T21:09:03Z</time>
      </trkpt>
      <trkpt lat="4.9713520" lon="-75.4994280">
        <ele>2318.1</ele>
        <time>2021-04-17T21:09:04Z</time>
      </trkpt>
      <trkpt lat="4.9713770" lon="-75.4994190">
        <ele>2318.3</ele>
        <time>2021-04-17T21:09:05Z</time>
      </trkpt>
      <trkpt lat="4.9714000" lon="-75.4994080">
        <ele>2318.5</ele>
        <time>2021-04-17T21:09:06Z</time>
      </trkpt>
      <trkpt lat="4.9714240" lon="-75.4993980">
        <ele>2318.8</ele>
        <time>2021-04-17T21:09:07Z</time>
      </trkpt>
      <trkpt lat="4.9714480" lon="-75.4993870">
        <ele>2319.0</ele>
        <time>2021-04-17T21:09:08Z</time>
      </trkpt>
      <trkpt lat="4.9714710" lon="-75.4993760">
        <ele>2319.2</ele>
        <time>2021-04-17T21:09:09Z</time>
      </trkpt>
      <trkpt lat="4.9714920" lon="-75.4993650">
        <ele>2319.4</ele>
        <time>2021-04-17T21:09:10Z</time>
      </trkpt>
      <trkpt lat="4.9715130" lon="-75.4993540">
        <ele>2319.7</ele>
        <time>2021-04-17T21:09:11Z</time>
      </trkpt>
      <trkpt lat="4.9715320" lon="-75.4993400">
        <ele>2319.9</ele>
        <time>2021-04-17T21:09:12Z</time>
      </trkpt>
      <trkpt lat="4.9715520" lon="-75.4993260">
        <ele>2320.1</ele>
        <time>2021-04-17T21:09:13Z</time>
      </trkpt>
      <trkpt lat="4.9715700" lon="-75.4993140">
        <ele>2320.3</ele>
        <time>2021-04-17T21:09:14Z</time>
      </trkpt>
      <trkpt lat="4.9715870" lon="-75.4993000">
        <ele>2320.5</ele>
        <time>2021-04-17T21:09:15Z</time>
      </trkpt>
      <trkpt lat="4.9716040" lon="-75.4992850">
        <ele>2320.7</ele>
        <time>2021-04-17T21:09:16Z</time>
      </trkpt>
      <trkpt lat="4.9716250" lon="-75.4992730">
        <ele>2320.9</ele>
        <time>2021-04-17T21:09:17Z</time>
      </trkpt>
      <trkpt lat="4.9716440" lon="-75.4992600">
        <ele>2321.1</ele>
        <time>2021-04-17T21:09:18Z</time>
      </trkpt>
      <trkpt lat="4.9716660" lon="-75.4992480">
        <ele>2321.3</ele>
        <time>2021-04-17T21:09:19Z</time>
      </trkpt>
      <trkpt lat="4.9716880" lon="-75.4992360">
        <ele>2321.5</ele>
        <time>2021-04-17T21:09:20Z</time>
      </trkpt>
      <trkpt lat="4.9717080" lon="-75.4992250">
        <ele>2321.7</ele>
        <time>2021-04-17T21:09:21Z</time>
      </trkpt>
      <trkpt lat="4.9717260" lon="-75.4992140">
        <ele>2322.3</ele>
        <time>2021-04-17T21:09:22Z</time>
      </trkpt>
      <trkpt lat="4.9717450" lon="-75.4992040">
        <ele>2322.5</ele>
        <time>2021-04-17T21:09:23Z</time>
      </trkpt>
      <trkpt lat="4.9717640" lon="-75.4991940">
        <ele>2322.6</ele>
        <time>2021-04-17T21:09:24Z</time>
      </trkpt>
      <trkpt lat="4.9717830" lon="-75.4991850">
        <ele>2322.8</ele>
        <time>2021-04-17T21:09:25Z</time>
      </trkpt>
      <trkpt lat="4.9718030" lon="-75.4991750">
        <ele>2323.0</ele>
        <time>2021-04-17T21:09:26Z</time>
      </trkpt>
      <trkpt lat="4.9718240" lon="-75.4991680">
        <ele>2323.2</ele>
        <time>2021-04-17T21:09:27Z</time>
      </trkpt>
      <trkpt lat="4.9718470" lon="-75.4991620">
        <ele>2323.4</ele>
        <time>2021-04-17T21:09:28Z</time>
      </trkpt>
      <trkpt lat="4.9718690" lon="-75.4991550">
        <ele>2323.6</ele>
        <time>2021-04-17T21:09:29Z</time>
      </trkpt>
      <trkpt lat="4.9718900" lon="-75.4991490">
        <ele>2323.8</ele>
        <time>2021-04-17T21:09:30Z</time>
      </trkpt>
      <trkpt lat="4.9719140" lon="-75.4991440">
        <ele>2324.0</ele>
        <time>2021-04-17T21:09:31Z</time>
      </trkpt>
      <trkpt lat="4.9719350" lon="-75.4991390">
        <ele>2324.2</ele>
        <time>2021-04-17T21:09:32Z</time>
      </trkpt>
      <trkpt lat="4.9719560" lon="-75.4991310">
        <ele>2324.4</ele>
        <time>2021-04-17T21:09:33Z</time>
      </trkpt>
      <trkpt lat="4.9719770" lon="-75.4991230">
        <ele>2324.6</ele>
        <time>2021-04-17T21:09:34Z</time>
      </trkpt>
      <trkpt lat="4.9719980" lon="-75.4991160">
        <ele>2324.8</ele>
        <time>2021-04-17T21:09:35Z</time>
      </trkpt>
      <trkpt lat="4.9720200" lon="-75.4991080">
        <ele>2325.0</ele>
        <time>2021-04-17T21:09:36Z</time>
      </trkpt>
      <trkpt lat="4.9720410" lon="-75.4990990">
        <ele>2325.2</ele>
        <time>2021-04-17T21:09:37Z</time>
      </trkpt>
      <trkpt lat="4.9720610" lon="-75.4990900">
        <ele>2325.4</ele>
        <time>2021-04-17T21:09:38Z</time>
      </trkpt>
      <trkpt lat="4.9720810" lon="-75.4990790">
        <ele>2325.6</ele>
        <time>2021-04-17T21:09:39Z</time>
      </trkpt>
      <trkpt lat="4.9721020" lon="-75.4990680">
        <ele>2325.9</ele>
        <time>2021-04-17T21:09:40Z</time>
      </trkpt>
      <trkpt lat="4.9721230" lon="-75.4990580">
        <ele>2326.1</ele>
        <time>2021-04-17T21:09:41Z</time>
      </trkpt>
      <trkpt lat="4.9721440" lon="-75.4990490">
        <ele>2326.3</ele>
        <time>2021-04-17T21:09:42Z</time>
      </trkpt>
      <trkpt lat="4.9721670" lon="-75.4990420">
        <ele>2326.5</ele>
        <time>2021-04-17T21:09:43Z</time>
      </trkpt>
      <trkpt lat="4.9721910" lon="-75.4990310">
        <ele>2326.7</ele>
        <time>2021-04-17T21:09:44Z</time>
      </trkpt>
      <trkpt lat="4.9722140" lon="-75.4990190">
        <ele>2327.0</ele>
        <time>2021-04-17T21:09:45Z</time>
      </trkpt>
      <trkpt lat="4.9722370" lon="-75.4990070">
        <ele>2327.2</ele>
        <time>2021-04-17T21:09:46Z</time>
      </trkpt>
      <trkpt lat="4.9722580" lon="-75.4989950">
        <ele>2327.4</ele>
        <time>2021-04-17T21:09:47Z</time>
      </trkpt>
      <trkpt lat="4.9722800" lon="-75.4989820">
        <ele>2327.7</ele>
        <time>2021-04-17T21:09:48Z</time>
      </trkpt>
      <trkpt lat="4.9723020" lon="-75.4989680">
        <ele>2327.9</ele>
        <time>2021-04-17T21:09:49Z</time>
      </trkpt>
      <trkpt lat="4.9723230" lon="-75.4989540">
        <ele>2328.1</ele>
        <time>2021-04-17T21:09:50Z</time>
      </trkpt>
      <trkpt lat="4.9723450" lon="-75.4989430">
        <ele>2328.4</ele>
        <time>2021-04-17T21:09:51Z</time>
      </trkpt>
      <trkpt lat="4.9723680" lon="-75.4989340">
        <ele>2328.6</ele>
        <time>2021-04-17T21:09:52Z</time>
      </trkpt>
      <trkpt lat="4.9723900" lon="-75.4989270">
        <ele>2328.8</ele>
        <time>2021-04-17T21:09:53Z</time>
      </trkpt>
      <trkpt lat="4.9724130" lon="-75.4989200">
        <ele>2329.0</ele>
        <time>2021-04-17T21:09:54Z</time>
      </trkpt>
      <trkpt lat="4.9724370" lon="-75.4989120">
        <ele>2329.3</ele>
        <time>2021-04-17T21:09:55Z</time>
      </trkpt>
      <trkpt lat="4.9724610" lon="-75.4989050">
        <ele>2329.5</ele>
        <time>2021-04-17T21:09:56Z</time>
      </trkpt>
      <trkpt lat="4.9724850" lon="-75.4988980">
        <ele>2329.7</ele>
        <time>2021-04-17T21:09:57Z</time>
      </trkpt>
      <trkpt lat="4.9725090" lon="-75.4988910">
        <ele>2330.0</ele>
        <time>2021-04-17T21:09:58Z</time>
      </trkpt>
      <trkpt lat="4.9725330" lon="-75.4988860">
        <ele>2330.2</ele>
        <time>2021-04-17T21:09:59Z</time>
      </trkpt>
      <trkpt lat="4.9725560" lon="-75.4988810">
        <ele>2330.4</ele>
        <time>2021-04-17T21:10:00Z</time>
      </trkpt>
      <trkpt lat="4.9725780" lon="-75.4988770">
        <ele>2330.6</ele>
        <time>2021-04-17T21:10:01Z</time>
      </trkpt>
      <trkpt lat="4.9726010" lon="-75.4988720">
        <ele>2330.8</ele>
        <time>2021-04-17T21:10:02Z</time>
      </trkpt>
      <trkpt lat="4.9726210" lon="-75.4988650">
        <ele>2331.0</ele>
        <time>2021-04-17T21:10:03Z</time>
      </trkpt>
      <trkpt lat="4.9726430" lon="-75.4988600">
        <ele>2331.2</ele>
        <time>2021-04-17T21:10:04Z</time>
      </trkpt>
      <trkpt lat="4.9726650" lon="-75.4988530">
        <ele>2331.5</ele>
        <time>2021-04-17T21:10:05Z</time>
      </trkpt>
      <trkpt lat="4.9726860" lon="-75.4988440">
        <ele>2331.7</ele>
        <time>2021-04-17T21:10:06Z</time>
      </trkpt>
      <trkpt lat="4.9727070" lon="-75.4988330">
        <ele>2331.9</ele>
        <time>2021-04-17T21:10:07Z</time>
      </trkpt>
      <trkpt lat="4.9727290" lon="-75.4988220">
        <ele>2332.1</ele>
        <time>2021-04-17T21:10:08Z</time>
      </trkpt>
      <trkpt lat="4.9727480" lon="-75.4988080">
        <ele>2332.4</ele>
        <time>2021-04-17T21:10:09Z</time>
      </trkpt>
      <trkpt lat="4.9727680" lon="-75.4987950">
        <ele>2332.6</ele>
        <time>2021-04-17T21:10:10Z</time>
      </trkpt>
      <trkpt lat="4.9727870" lon="-75.4987790">
        <ele>2332.8</ele>
        <time>2021-04-17T21:10:11Z</time>
      </trkpt>
      <trkpt lat="4.9728050" lon="-75.4987630">
        <ele>2333.0</ele>
        <time>2021-04-17T21:10:12Z</time>
      </trkpt>
      <trkpt lat="4.9728240" lon="-75.4987490">
        <ele>2333.2</ele>
        <time>2021-04-17T21:10:13Z</time>
      </trkpt>
      <trkpt lat="4.9728420" lon="-75.4987350">
        <ele>2333.4</ele>
        <time>2021-04-17T21:10:14Z</time>
      </trkpt>
      <trkpt lat="4.9728600" lon="-75.4987200">
        <ele>2333.6</ele>
        <time>2021-04-17T21:10:15Z</time>
      </trkpt>
      <trkpt lat="4.9728790" lon="-75.4987080">
        <ele>2333.8</ele>
        <time>2021-04-17T21:10:16Z</time>
      </trkpt>
      <trkpt lat="4.9728990" lon="-75.4986960">
        <ele>2334.0</ele>
        <time>2021-04-17T21:10:17Z</time>
      </trkpt>
      <trkpt lat="4.9729210" lon="-75.4986840">
        <ele>2334.2</ele>
        <time>2021-04-17T21:10:18Z</time>
      </trkpt>
      <trkpt lat="4.9729430" lon="-75.4986730">
        <ele>2334.4</ele>
        <time>2021-04-17T21:10:19Z</time>
      </trkpt>
      <trkpt lat="4.9729670" lon="-75.4986600">
        <ele>2334.6</ele>
        <time>2021-04-17T21:10:20Z</time>
      </trkpt>
      <trkpt lat="4.9729920" lon="-75.4986520">
        <ele>2334.9</ele>
        <time>2021-04-17T21:10:21Z</time>
      </trkpt>
      <trkpt lat="4.9730180" lon="-75.4986470">
        <ele>2335.1</ele>
        <time>2021-04-17T21:10:22Z</time>
      </trkpt>
      <trkpt lat="4.9730450" lon="-75.4986430">
        <ele>2335.3</ele>
        <time>2021-04-17T21:10:23Z</time>
      </trkpt>
      <trkpt lat="4.9730730" lon="-75.4986400">
        <ele>2335.5</ele>
        <time>2021-04-17T21:10:24Z</time>
      </trkpt>
      <trkpt lat="4.9730990" lon="-75.4986360">
        <ele>2335.8</ele>
        <time>2021-04-17T21:10:25Z</time>
      </trkpt>
      <trkpt lat="4.9731230" lon="-75.4986320">
        <ele>2336.0</ele>
        <time>2021-04-17T21:10:26Z</time>
      </trkpt>
      <trkpt lat="4.9731470" lon="-75.4986280">
        <ele>2336.2</ele>
        <time>2021-04-17T21:10:27Z</time>
      </trkpt>
      <trkpt lat="4.9731700" lon="-75.4986240">
        <ele>2336.4</ele>
        <time>2021-04-17T21:10:28Z</time>
      </trkpt>
      <trkpt lat="4.9731930" lon="-75.4986220">
        <ele>2336.7</ele>
        <time>2021-04-17T21:10:29Z</time>
      </trkpt>
      <trkpt lat="4.9732160" lon="-75.4986180">
        <ele>2336.9</ele>
        <time>2021-04-17T21:10:30Z</time>
      </trkpt>
      <trkpt lat="4.9732370" lon="-75.4986160">
        <ele>2337.1</ele>
        <time>2021-04-17T21:10:31Z</time>
      </trkpt>
      <trkpt lat="4.9732600" lon="-75.4986130">
        <ele>2337.3</ele>
        <time>2021-04-17T21:10:32Z</time>
      </trkpt>
      <trkpt lat="4.9732830" lon="-75.4986100">
        <ele>2337.5</ele>
        <time>2021-04-17T21:10:33Z</time>
      </trkpt>
      <trkpt lat="4.9733060" lon="-75.4986070">
        <ele>2337.7</ele>
        <time>2021-04-17T21:10:34Z</time>
      </trkpt>
      <trkpt lat="4.9733310" lon="-75.4986030">
        <ele>2338.0</ele>
        <time>2021-04-17T21:10:35Z</time>
      </trkpt>
      <trkpt lat="4.9733550" lon="-75.4985980">
        <ele>2338.2</ele>
        <time>2021-04-17T21:10:36Z</time>
      </trkpt>
      <trkpt lat="4.9733790" lon="-75.4985900">
        <ele>2338.4</ele>
        <time>2021-04-17T21:10:37Z</time>
      </trkpt>
      <trkpt lat="4.9734020" lon="-75.4985840">
        <ele>2338.6</ele>
        <time>2021-04-17T21:10:38Z</time>
      </trkpt>
      <trkpt lat="4.9734230" lon="-75.4985750">
        <ele>2338.8</ele>
        <time>2021-04-17T21:10:39Z</time>
      </trkpt>
      <trkpt lat="4.9734440" lon="-75.4985650">
        <ele>2339.0</ele>
        <time>2021-04-17T21:10:40Z</time>
      </trkpt>
      <trkpt lat="4.9734630" lon="-75.4985560">
        <ele>2339.1</ele>
        <time>2021-04-17T21:10:41Z</time>
      </trkpt>
      <trkpt lat="4.9734830" lon="-75.4985450">
        <ele>2339.3</ele>
        <time>2021-04-17T21:10:42Z</time>
      </trkpt>
      <trkpt lat="4.9735020" lon="-75.4985310">
        <ele>2339.5</ele>
        <time>2021-04-17T21:10:43Z</time>
      </trkpt>
      <trkpt lat="4.9735210" lon="-75.4985140">
        <ele>2339.6</ele>
        <time>2021-04-17T21:10:44Z</time>
      </trkpt>
      <trkpt lat="4.9735410" lon="-75.4984990">
        <ele>2339.8</ele>
        <time>2021-04-17T21:10:45Z</time>
      </trkpt>
      <trkpt lat="4.9735570" lon="-75.4984840">
        <ele>2339.9</ele>
        <time>2021-04-17T21:10:46Z</time>
      </trkpt>
      <trkpt lat="4.9735690" lon="-75.4984660">
        <ele>2340.0</ele>
        <time>2021-04-17T21:10:47Z</time>
      </trkpt>
      <trkpt lat="4.9735790" lon="-75.4984450">
        <ele>2340.1</ele>
        <time>2021-04-17T21:10:48Z</time>
      </trkpt>
      <trkpt lat="4.9735820" lon="-75.4984230">
        <ele>2340.2</ele>
        <time>2021-04-17T21:10:49Z</time>
      </trkpt>
      <trkpt lat="4.9735860" lon="-75.4984010">
        <ele>2340.3</ele>
        <time>2021-04-17T21:10:50Z</time>
      </trkpt>
      <trkpt lat="4.9735890" lon="-75.4983780">
        <ele>2340.4</ele>
        <time>2021-04-17T21:10:51Z</time>
      </trkpt>
      <trkpt lat="4.9735910" lon="-75.4983540">
        <ele>2340.5</ele>
        <time>2021-04-17T21:10:52Z</time>
      </trkpt>
      <trkpt lat="4.9735970" lon="-75.4983310">
        <ele>2340.6</ele>
        <time>2021-04-17T21:10:53Z</time>
      </trkpt>
      <trkpt lat="4.9736030" lon="-75.4983060">
        <ele>2340.7</ele>
        <time>2021-04-17T21:10:54Z</time>
      </trkpt>
      <trkpt lat="4.9736060" lon="-75.4982740">
        <ele>2340.8</ele>
        <time>2021-04-17T21:10:55Z</time>
      </trkpt>
      <trkpt lat="4.9736030" lon="-75.4982360">
        <ele>2340.9</ele>
        <time>2021-04-17T21:10:56Z</time>
      </trkpt>
      <trkpt lat="4.9735950" lon="-75.4981930">
        <ele>2341.1</ele>
        <time>2021-04-17T21:10:57Z</time>
      </trkpt>
      <trkpt lat="4.9735880" lon="-75.4981500">
        <ele>2341.2</ele>
        <time>2021-04-17T21:10:58Z</time>
      </trkpt>
      <trkpt lat="4.9735880" lon="-75.4981140">
        <ele>2341.4</ele>
        <time>2021-04-17T21:10:59Z</time>
      </trkpt>
      <trkpt lat="4.9735910" lon="-75.4980860">
        <ele>2341.6</ele>
        <time>2021-04-17T21:11:00Z</time>
      </trkpt>
      <trkpt lat="4.9735940" lon="-75.4980610">
        <ele>2341.7</ele>
        <time>2021-04-17T21:11:01Z</time>
      </trkpt>
      <trkpt lat="4.9735980" lon="-75.4980400">
        <ele>2341.8</ele>
        <time>2021-04-17T21:11:02Z</time>
      </trkpt>
      <trkpt lat="4.9735990" lon="-75.4980190">
        <ele>2342.0</ele>
        <time>2021-04-17T21:11:03Z</time>
      </trkpt>
      <trkpt lat="4.9736000" lon="-75.4979990">
        <ele>2342.1</ele>
        <time>2021-04-17T21:11:04Z</time>
      </trkpt>
      <trkpt lat="4.9736000" lon="-75.4979770">
        <ele>2342.3</ele>
        <time>2021-04-17T21:11:05Z</time>
      </trkpt>
      <trkpt lat="4.9736010" lon="-75.4979530">
        <ele>2342.5</ele>
        <time>2021-04-17T21:11:06Z</time>
      </trkpt>
      <trkpt lat="4.9736050" lon="-75.4979260">
        <ele>2342.8</ele>
        <time>2021-04-17T21:11:07Z</time>
      </trkpt>
      <trkpt lat="4.9736130" lon="-75.4978950">
        <ele>2343.1</ele>
        <time>2021-04-17T21:11:08Z</time>
      </trkpt>
      <trkpt lat="4.9736200" lon="-75.4978630">
        <ele>2343.4</ele>
        <time>2021-04-17T21:11:09Z</time>
      </trkpt>
      <trkpt lat="4.9736230" lon="-75.4978310">
        <ele>2343.8</ele>
        <time>2021-04-17T21:11:10Z</time>
      </trkpt>
      <trkpt lat="4.9736250" lon="-75.4978000">
        <ele>2344.2</ele>
        <time>2021-04-17T21:11:11Z</time>
      </trkpt>
      <trkpt lat="4.9736250" lon="-75.4977750">
        <ele>2344.5</ele>
        <time>2021-04-17T21:11:12Z</time>
      </trkpt>
      <trkpt lat="4.9736260" lon="-75.4977570">
        <ele>2344.7</ele>
        <time>2021-04-17T21:11:13Z</time>
      </trkpt>
      <trkpt lat="4.9736270" lon="-75.4977430">
        <ele>2344.9</ele>
        <time>2021-04-17T21:11:14Z</time>
      </trkpt>
      <trkpt lat="4.9736290" lon="-75.4977270">
        <ele>2345.0</ele>
        <time>2021-04-17T21:11:15Z</time>
      </trkpt>
      <trkpt lat="4.9736330" lon="-75.4977090">
        <ele>2345.3</ele>
        <time>2021-04-17T21:11:16Z</time>
      </trkpt>
      <trkpt lat="4.9736330" lon="-75.4976890">
        <ele>2345.5</ele>
        <time>2021-04-17T21:11:17Z</time>
      </trkpt>
      <trkpt lat="4.9736330" lon="-75.4976690">
        <ele>2345.7</ele>
        <time>2021-04-17T21:11:18Z</time>
      </trkpt>
      <trkpt lat="4.9736350" lon="-75.4976490">
        <ele>2345.9</ele>
        <time>2021-04-17T21:11:19Z</time>
      </trkpt>
      <trkpt lat="4.9736360" lon="-75.4976310">
        <ele>2346.1</ele>
        <time>2021-04-17T21:11:20Z</time>
      </trkpt>
      <trkpt lat="4.9736350" lon="-75.4976130">
        <ele>2346.3</ele>
        <time>2021-04-17T21:11:21Z</time>
      </trkpt>
      <trkpt lat="4.9736330" lon="-75.4975960">
        <ele>2346.4</ele>
        <time>2021-04-17T21:11:22Z</time>
      </trkpt>
      <trkpt lat="4.9736300" lon="-75.4975800">
        <ele>2346.6</ele>
        <time>2021-04-17T21:11:23Z</time>
      </trkpt>
      <trkpt lat="4.9736280" lon="-75.4975620">
        <ele>2346.8</ele>
        <time>2021-04-17T21:11:24Z</time>
      </trkpt>
      <trkpt lat="4.9736300" lon="-75.4975420">
        <ele>2346.9</ele>
        <time>2021-04-17T21:11:25Z</time>
      </trkpt>
      <trkpt lat="4.9736350" lon="-75.4975200">
        <ele>2347.1</ele>
        <time>2021-04-17T21:11:26Z</time>
      </trkpt>
      <trkpt lat="4.9736460" lon="-75.4974990">
        <ele>2347.4</ele>
        <time>2021-04-17T21:11:27Z</time>
      </trkpt>
      <trkpt lat="4.9736600" lon="-75.4974800">
        <ele>2347.6</ele>
        <time>2021-04-17T21:11:28Z</time>
      </trkpt>
      <trkpt lat="4.9736790" lon="-75.4974630">
        <ele>2347.8</ele>
        <time>2021-04-17T21:11:29Z</time>
      </trkpt>
      <trkpt lat="4.9736930" lon="-75.4974430">
        <ele>2348.1</ele>
        <time>2021-04-17T21:11:30Z</time>
      </trkpt>
      <trkpt lat="4.9737070" lon="-75.4974230">
        <ele>2348.3</ele>
        <time>2021-04-17T21:11:31Z</time>
      </trkpt>
      <trkpt lat="4.9737220" lon="-75.4974030">
        <ele>2348.6</ele>
        <time>2021-04-17T21:11:32Z</time>
      </trkpt>
      <trkpt lat="4.9737370" lon="-75.4973860">
        <ele>2348.8</ele>
        <time>2021-04-17T21:11:33Z</time>
      </trkpt>
      <trkpt lat="4.9737530" lon="-75.4973690">
        <ele>2349.1</ele>
        <time>2021-04-17T21:11:34Z</time>
      </trkpt>
      <trkpt lat="4.9737710" lon="-75.4973540">
        <ele>2349.3</ele>
        <time>2021-04-17T21:11:35Z</time>
      </trkpt>
      <trkpt lat="4.9737860" lon="-75.4973380">
        <ele>2349.6</ele>
        <time>2021-04-17T21:11:36Z</time>
      </trkpt>
      <trkpt lat="4.9737990" lon="-75.4973260">
        <ele>2349.8</ele>
        <time>2021-04-17T21:11:37Z</time>
      </trkpt>
      <trkpt lat="4.9738100" lon="-75.4973170">
        <ele>2350.0</ele>
        <time>2021-04-17T21:11:38Z</time>
      </trkpt>
      <trkpt lat="4.9738200" lon="-75.4973060">
        <ele>2350.2</ele>
        <time>2021-04-17T21:11:39Z</time>
      </trkpt>
      <trkpt lat="4.9738330" lon="-75.4972950">
        <ele>2350.4</ele>
        <time>2021-04-17T21:11:40Z</time>
      </trkpt>
      <trkpt lat="4.9738470" lon="-75.4972850">
        <ele>2350.6</ele>
        <time>2021-04-17T21:11:41Z</time>
      </trkpt>
      <trkpt lat="4.9738600" lon="-75.4972730">
        <ele>2350.8</ele>
        <time>2021-04-17T21:11:42Z</time>
      </trkpt>
      <trkpt lat="4.9738720" lon="-75.4972610">
        <ele>2351.0</ele>
        <time>2021-04-17T21:11:43Z</time>
      </trkpt>
      <trkpt lat="4.9738830" lon="-75.4972500">
        <ele>2351.1</ele>
        <time>2021-04-17T21:11:44Z</time>
      </trkpt>
      <trkpt lat="4.9738950" lon="-75.4972380">
        <ele>2351.3</ele>
        <time>2021-04-17T21:11:45Z</time>
      </trkpt>
      <trkpt lat="4.9739060" lon="-75.4972270">
        <ele>2351.5</ele>
        <time>2021-04-17T21:11:46Z</time>
      </trkpt>
      <trkpt lat="4.9739210" lon="-75.4972180">
        <ele>2351.7</ele>
        <time>2021-04-17T21:11:47Z</time>
      </trkpt>
      <trkpt lat="4.9739400" lon="-75.4972080">
        <ele>2351.9</ele>
        <time>2021-04-17T21:11:48Z</time>
      </trkpt>
      <trkpt lat="4.9739610" lon="-75.4972000">
        <ele>2352.2</ele>
        <time>2021-04-17T21:11:49Z</time>
      </trkpt>
      <trkpt lat="4.9739830" lon="-75.4971940">
        <ele>2352.5</ele>
        <time>2021-04-17T21:11:50Z</time>
      </trkpt>
      <trkpt lat="4.9740030" lon="-75.4971880">
        <ele>2352.7</ele>
        <time>2021-04-17T21:11:51Z</time>
      </trkpt>
      <trkpt lat="4.9740220" lon="-75.4971830">
        <ele>2352.9</ele>
        <time>2021-04-17T21:11:52Z</time>
      </trkpt>
      <trkpt lat="4.9740400" lon="-75.4971770">
        <ele>2353.1</ele>
        <time>2021-04-17T21:11:53Z</time>
      </trkpt>
      <trkpt lat="4.9740590" lon="-75.4971720">
        <ele>2353.3</ele>
        <time>2021-04-17T21:11:54Z</time>
      </trkpt>
      <trkpt lat="4.9740800" lon="-75.4971680">
        <ele>2353.5</ele>
        <time>2021-04-17T21:11:55Z</time>
      </trkpt>
      <trkpt lat="4.9741010" lon="-75.4971630">
        <ele>2353.8</ele>
        <time>2021-04-17T21:11:56Z</time>
      </trkpt>
      <trkpt lat="4.9741210" lon="-75.4971590">
        <ele>2354.0</ele>
        <time>2021-04-17T21:11:57Z</time>
      </trkpt>
      <trkpt lat="4.9741420" lon="-75.4971570">
        <ele>2354.2</ele>
        <time>2021-04-17T21:11:58Z</time>
      </trkpt>
      <trkpt lat="4.9741600" lon="-75.4971570">
        <ele>2354.4</ele>
        <time>2021-04-17T21:11:59Z</time>
      </trkpt>
      <trkpt lat="4.9741790" lon="-75.4971560">
        <ele>2354.6</ele>
        <time>2021-04-17T21:12:00Z</time>
      </trkpt>
      <trkpt lat="4.9741970" lon="-75.4971550">
        <ele>2354.8</ele>
        <time>2021-04-17T21:12:01Z</time>
      </trkpt>
      <trkpt lat="4.9742140" lon="-75.4971530">
        <ele>2355.0</ele>
        <time>2021-04-17T21:12:02Z</time>
      </trkpt>
      <trkpt lat="4.9742310" lon="-75.4971500">
        <ele>2355.1</ele>
        <time>2021-04-17T21:12:03Z</time>
      </trkpt>
      <trkpt lat="4.9742490" lon="-75.4971480">
        <ele>2355.3</ele>
        <time>2021-04-17T21:12:04Z</time>
      </trkpt>
      <trkpt lat="4.9742670" lon="-75.4971440">
        <ele>2355.5</ele>
        <time>2021-04-17T21:12:05Z</time>
      </trkpt>
      <trkpt lat="4.9742830" lon="-75.4971410">
        <ele>2355.7</ele>
        <time>2021-04-17T21:12:06Z</time>
      </trkpt>
      <trkpt lat="4.9742980" lon="-75.4971390">
        <ele>2355.9</ele>
        <time>2021-04-17T21:12:07Z</time>
      </trkpt>
      <trkpt lat="4.9743130" lon="-75.4971380">
        <ele>2356.0</ele>
        <time>2021-04-17T21:12:08Z</time>
      </trkpt>
      <trkpt lat="4.9743290" lon="-75.4971360">
        <ele>2356.2</ele>
        <time>2021-04-17T21:12:09Z</time>
      </trkpt>
      <trkpt lat="4.9743470" lon="-75.4971320">
        <ele>2356.3</ele>
        <time>2021-04-17T21:12:10Z</time>
      </trkpt>
      <trkpt lat="4.9743630" lon="-75.4971250">
        <ele>2356.5</ele>
        <time>2021-04-17T21:12:11Z</time>
      </trkpt>
      <trkpt lat="4.9743800" lon="-75.4971180">
        <ele>2356.7</ele>
        <time>2021-04-17T21:12:12Z</time>
      </trkpt>
      <trkpt lat="4.9743980" lon="-75.4971100">
        <ele>2356.8</ele>
        <time>2021-04-17T21:12:13Z</time>
      </trkpt>
      <trkpt lat="4.9744150" lon="-75.4971020">
        <ele>2357.0</ele>
        <time>2021-04-17T21:12:14Z</time>
      </trkpt>
      <trkpt lat="4.9744330" lon="-75.4970910">
        <ele>2357.1</ele>
        <time>2021-04-17T21:12:15Z</time>
      </trkpt>
      <trkpt lat="4.9744490" lon="-75.4970780">
        <ele>2357.3</ele>
        <time>2021-04-17T21:12:16Z</time>
      </trkpt>
      <trkpt lat="4.9744640" lon="-75.4970670">
        <ele>2357.4</ele>
        <time>2021-04-17T21:12:17Z</time>
      </trkpt>
      <trkpt lat="4.9744780" lon="-75.4970570">
        <ele>2357.5</ele>
        <time>2021-04-17T21:12:18Z</time>
      </trkpt>
      <trkpt lat="4.9744920" lon="-75.4970450">
        <ele>2357.6</ele>
        <time>2021-04-17T21:12:19Z</time>
      </trkpt>
      <trkpt lat="4.9745030" lon="-75.4970300">
        <ele>2357.8</ele>
        <time>2021-04-17T21:12:20Z</time>
      </trkpt>
      <trkpt lat="4.9745130" lon="-75.4970150">
        <ele>2357.9</ele>
        <time>2021-04-17T21:12:21Z</time>
      </trkpt>
      <trkpt lat="4.9745230" lon="-75.4969990">
        <ele>2358.0</ele>
        <time>2021-04-17T21:12:22Z</time>
      </trkpt>
      <trkpt lat="4.9745340" lon="-75.4969820">
        <ele>2358.1</ele>
        <time>2021-04-17T21:12:23Z</time>
      </trkpt>
      <trkpt lat="4.9745470" lon="-75.4969660">
        <ele>2358.3</ele>
        <time>2021-04-17T21:12:24Z</time>
      </trkpt>
      <trkpt lat="4.9745580" lon="-75.4969500">
        <ele>2358.4</ele>
        <time>2021-04-17T21:12:25Z</time>
      </trkpt>
      <trkpt lat="4.9745660" lon="-75.4969330">
        <ele>2358.5</ele>
        <time>2021-04-17T21:12:26Z</time>
      </trkpt>
      <trkpt lat="4.9745780" lon="-75.4969170">
        <ele>2358.6</ele>
        <time>2021-04-17T21:12:27Z</time>
      </trkpt>
      <trkpt lat="4.9745870" lon="-75.4969010">
        <ele>2358.7</ele>
        <time>2021-04-17T21:12:28Z</time>
      </trkpt>
      <trkpt lat="4.9745910" lon="-75.4968840">
        <ele>2358.8</ele>
        <time>2021-04-17T21:12:29Z</time>
      </trkpt>
      <trkpt lat="4.9745980" lon="-75.4968650">
        <ele>2359.0</ele>
        <time>2021-04-17T21:12:30Z</time>
      </trkpt>
      <trkpt lat="4.9746080" lon="-75.4968470">
        <ele>2359.1</ele>
        <time>2021-04-17T21:12:31Z</time>
      </trkpt>
      <trkpt lat="4.9746180" lon="-75.4968280">
        <ele>2359.2</ele>
        <time>2021-04-17T21:12:32Z</time>
      </trkpt>
      <trkpt lat="4.9746260" lon="-75.4968090">
        <ele>2359.4</ele>
        <time>2021-04-17T21:12:33Z</time>
      </trkpt>
      <trkpt lat="4.9746340" lon="-75.4967900">
        <ele>2359.5</ele>
        <time>2021-04-17T21:12:34Z</time>
      </trkpt>
      <trkpt lat="4.9746450" lon="-75.4967700">
        <ele>2359.7</ele>
        <time>2021-04-17T21:12:35Z</time>
      </trkpt>
      <trkpt lat="4.9746600" lon="-75.4967500">
        <ele>2359.8</ele>
        <time>2021-04-17T21:12:36Z</time>
      </trkpt>
      <trkpt lat="4.9746750" lon="-75.4967290">
        <ele>2360.0</ele>
        <time>2021-04-17T21:12:37Z</time>
      </trkpt>
      <trkpt lat="4.9746850" lon="-75.4967050">
        <ele>2360.2</ele>
        <time>2021-04-17T21:12:38Z</time>
      </trkpt>
      <trkpt lat="4.9746940" lon="-75.4966820">
        <ele>2360.4</ele>
        <time>2021-04-17T21:12:39Z</time>
      </trkpt>
      <trkpt lat="4.9747040" lon="-75.4966610">
        <ele>2360.6</ele>
        <time>2021-04-17T21:12:40Z</time>
      </trkpt>
      <trkpt lat="4.9747140" lon="-75.4966420">
        <ele>2360.7</ele>
        <time>2021-04-17T21:12:41Z</time>
      </trkpt>
      <trkpt lat="4.9747250" lon="-75.4966240">
        <ele>2360.9</ele>
        <time>2021-04-17T21:12:42Z</time>
      </trkpt>
      <trkpt lat="4.9747390" lon="-75.4966060">
        <ele>2361.1</ele>
        <time>2021-04-17T21:12:43Z</time>
      </trkpt>
      <trkpt lat="4.9747550" lon="-75.4965910">
        <ele>2361.3</ele>
        <time>2021-04-17T21:12:44Z</time>
      </trkpt>
      <trkpt lat="4.9747710" lon="-75.4965770">
        <ele>2361.5</ele>
        <time>2021-04-17T21:12:45Z</time>
      </trkpt>
      <trkpt lat="4.9747880" lon="-75.4965630">
        <ele>2361.7</ele>
        <time>2021-04-17T21:12:46Z</time>
      </trkpt>
      <trkpt lat="4.9748060" lon="-75.4965490">
        <ele>2362.0</ele>
        <time>2021-04-17T21:12:47Z</time>
      </trkpt>
      <trkpt lat="4.9748260" lon="-75.4965370">
        <ele>2362.2</ele>
        <time>2021-04-17T21:12:48Z</time>
      </trkpt>
      <trkpt lat="4.9748460" lon="-75.4965240">
        <ele>2362.4</ele>
        <time>2021-04-17T21:12:49Z</time>
      </trkpt>
      <trkpt lat="4.9748670" lon="-75.4965130">
        <ele>2362.6</ele>
        <time>2021-04-17T21:12:50Z</time>
      </trkpt>
      <trkpt lat="4.9748890" lon="-75.4965030">
        <ele>2362.8</ele>
        <time>2021-04-17T21:12:51Z</time>
      </trkpt>
      <trkpt lat="4.9749110" lon="-75.4964910">
        <ele>2363.0</ele>
        <time>2021-04-17T21:12:52Z</time>
      </trkpt>
      <trkpt lat="4.9749310" lon="-75.4964770">
        <ele>2363.2</ele>
        <time>2021-04-17T21:12:53Z</time>
      </trkpt>
      <trkpt lat="4.9749500" lon="-75.4964640">
        <ele>2363.3</ele>
        <time>2021-04-17T21:12:54Z</time>
      </trkpt>
      <trkpt lat="4.9749690" lon="-75.4964540">
        <ele>2363.5</ele>
        <time>2021-04-17T21:12:55Z</time>
      </trkpt>
      <trkpt lat="4.9749910" lon="-75.4964460">
        <ele>2363.7</ele>
        <time>2021-04-17T21:12:56Z</time>
      </trkpt>
      <trkpt lat="4.9750150" lon="-75.4964390">
        <ele>2363.8</ele>
        <time>2021-04-17T21:12:57Z</time>
      </trkpt>
      <trkpt lat="4.9750370" lon="-75.4964300">
        <ele>2364.0</ele>
        <time>2021-04-17T21:12:58Z</time>
      </trkpt>
      <trkpt lat="4.9750560" lon="-75.4964230">
        <ele>2364.1</ele>
        <time>2021-04-17T21:12:59Z</time>
      </trkpt>
      <trkpt lat="4.9750780" lon="-75.4964190">
        <ele>2364.3</ele>
        <time>2021-04-17T21:13:00Z</time>
      </trkpt>
      <trkpt lat="4.9751000" lon="-75.4964160">
        <ele>2364.4</ele>
        <time>2021-04-17T21:13:01Z</time>
      </trkpt>
      <trkpt lat="4.9751230" lon="-75.4964130">
        <ele>2364.6</ele>
        <time>2021-04-17T21:13:02Z</time>
      </trkpt>
      <trkpt lat="4.9751440" lon="-75.4964070">
        <ele>2364.7</ele>
        <time>2021-04-17T21:13:03Z</time>
      </trkpt>
      <trkpt lat="4.9751630" lon="-75.4964000">
        <ele>2364.9</ele>
        <time>2021-04-17T21:13:04Z</time>
      </trkpt>
      <trkpt lat="4.9751860" lon="-75.4963940">
        <ele>2365.0</ele>
        <time>2021-04-17T21:13:05Z</time>
      </trkpt>
      <trkpt lat="4.9752090" lon="-75.4963910">
        <ele>2365.1</ele>
        <time>2021-04-17T21:13:06Z</time>
      </trkpt>
      <trkpt lat="4.9752340" lon="-75.4963860">
        <ele>2365.3</ele>
        <time>2021-04-17T21:13:07Z</time>
      </trkpt>
      <trkpt lat="4.9752560" lon="-75.4963790">
        <ele>2365.4</ele>
        <time>2021-04-17T21:13:08Z</time>
      </trkpt>
      <trkpt lat="4.9752760" lon="-75.4963720">
        <ele>2365.5</ele>
        <time>2021-04-17T21:13:09Z</time>
      </trkpt>
      <trkpt lat="4.9752970" lon="-75.4963660">
        <ele>2365.6</ele>
        <time>2021-04-17T21:13:10Z</time>
      </trkpt>
      <trkpt lat="4.9753190" lon="-75.4963590">
        <ele>2365.7</ele>
        <time>2021-04-17T21:13:11Z</time>
      </trkpt>
      <trkpt lat="4.9753420" lon="-75.4963500">
        <ele>2365.9</ele>
        <time>2021-04-17T21:13:12Z</time>
      </trkpt>
      <trkpt lat="4.9753650" lon="-75.4963400">
        <ele>2366.0</ele>
        <time>2021-04-17T21:13:13Z</time>
      </trkpt>
      <trkpt lat="4.9753870" lon="-75.4963280">
        <ele>2366.1</ele>
        <time>2021-04-17T21:13:14Z</time>
      </trkpt>
      <trkpt lat="4.9754100" lon="-75.4963180">
        <ele>2366.2</ele>
        <time>2021-04-17T21:13:15Z</time>
      </trkpt>
      <trkpt lat="4.9754320" lon="-75.4963080">
        <ele>2366.2</ele>
        <time>2021-04-17T21:13:16Z</time>
      </trkpt>
      <trkpt lat="4.9754560" lon="-75.4963000">
        <ele>2366.3</ele>
        <time>2021-04-17T21:13:17Z</time>
      </trkpt>
      <trkpt lat="4.9754820" lon="-75.4962910">
        <ele>2366.4</ele>
        <time>2021-04-17T21:13:18Z</time>
      </trkpt>
      <trkpt lat="4.9755060" lon="-75.4962850">
        <ele>2366.5</ele>
        <time>2021-04-17T21:13:19Z</time>
      </trkpt>
      <trkpt lat="4.9755370" lon="-75.4962800">
        <ele>2366.6</ele>
        <time>2021-04-17T21:13:20Z</time>
      </trkpt>
      <trkpt lat="4.9755660" lon="-75.4962710">
        <ele>2366.7</ele>
        <time>2021-04-17T21:13:21Z</time>
      </trkpt>
      <trkpt lat="4.9755940" lon="-75.4962600">
        <ele>2366.8</ele>
        <time>2021-04-17T21:13:22Z</time>
      </trkpt>
      <trkpt lat="4.9756190" lon="-75.4962450">
        <ele>2366.9</ele>
        <time>2021-04-17T21:13:23Z</time>
      </trkpt>
      <trkpt lat="4.9756450" lon="-75.4962290">
        <ele>2367.0</ele>
        <time>2021-04-17T21:13:24Z</time>
      </trkpt>
      <trkpt lat="4.9756740" lon="-75.4962130">
        <ele>2367.1</ele>
        <time>2021-04-17T21:13:25Z</time>
      </trkpt>
      <trkpt lat="4.9757050" lon="-75.4961990">
        <ele>2367.2</ele>
        <time>2021-04-17T21:13:26Z</time>
      </trkpt>
      <trkpt lat="4.9757370" lon="-75.4961880">
        <ele>2367.3</ele>
        <time>2021-04-17T21:13:27Z</time>
      </trkpt>
      <trkpt lat="4.9757650" lon="-75.4961740">
        <ele>2367.3</ele>
        <time>2021-04-17T21:13:28Z</time>
      </trkpt>
      <trkpt lat="4.9757920" lon="-75.4961570">
        <ele>2367.4</ele>
        <time>2021-04-17T21:13:29Z</time>
      </trkpt>
      <trkpt lat="4.9758160" lon="-75.4961390">
        <ele>2367.5</ele>
        <time>2021-04-17T21:13:30Z</time>
      </trkpt>
      <trkpt lat="4.9758400" lon="-75.4961250">
        <ele>2367.5</ele>
        <time>2021-04-17T21:13:31Z</time>
      </trkpt>
      <trkpt lat="4.9758660" lon="-75.4961110">
        <ele>2367.5</ele>
        <time>2021-04-17T21:13:32Z</time>
      </trkpt>
      <trkpt lat="4.9758940" lon="-75.4961010">
        <ele>2367.6</ele>
        <time>2021-04-17T21:13:33Z</time>
      </trkpt>
      <trkpt lat="4.9759230" lon="-75.4960880">
        <ele>2367.6</ele>
        <time>2021-04-17T21:13:34Z</time>
      </trkpt>
      <trkpt lat="4.9759490" lon="-75.4960700">
        <ele>2367.7</ele>
        <time>2021-04-17T21:13:35Z</time>
      </trkpt>
      <trkpt lat="4.9759740" lon="-75.4960490">
        <ele>2367.7</ele>
        <time>2021-04-17T21:13:36Z</time>
      </trkpt>
      <trkpt lat="4.9759990" lon="-75.4960300">
        <ele>2367.8</ele>
        <time>2021-04-17T21:13:37Z</time>
      </trkpt>
      <trkpt lat="4.9760250" lon="-75.4960120">
        <ele>2367.8</ele>
        <time>2021-04-17T21:13:38Z</time>
      </trkpt>
      <trkpt lat="4.9760500" lon="-75.4959920">
        <ele>2367.8</ele>
        <time>2021-04-17T21:13:39Z</time>
      </trkpt>
      <trkpt lat="4.9760720" lon="-75.4959720">
        <ele>2367.8</ele>
        <time>2021-04-17T21:13:40Z</time>
      </trkpt>
      <trkpt lat="4.9760980" lon="-75.4959540">
        <ele>2367.8</ele>
        <time>2021-04-17T21:13:41Z</time>
      </trkpt>
      <trkpt lat="4.9761260" lon="-75.4959380">
        <ele>2367.8</ele>
        <time>2021-04-17T21:13:42Z</time>
      </trkpt>
      <trkpt lat="4.9761550" lon="-75.4959200">
        <ele>2367.7</ele>
        <time>2021-04-17T21:13:43Z</time>
      </trkpt>
      <trkpt lat="4.9761830" lon="-75.4959040">
        <ele>2367.7</ele>
        <time>2021-04-17T21:13:44Z</time>
      </trkpt>
      <trkpt lat="4.9762160" lon="-75.4958890">
        <ele>2367.7</ele>
        <time>2021-04-17T21:13:45Z</time>
      </trkpt>
      <trkpt lat="4.9762500" lon="-75.4958700">
        <ele>2367.6</ele>
        <time>2021-04-17T21:13:46Z</time>
      </trkpt>
      <trkpt lat="4.9762850" lon="-75.4958520">
        <ele>2367.6</ele>
        <time>2021-04-17T21:13:47Z</time>
      </trkpt>
      <trkpt lat="4.9763200" lon="-75.4958360">
        <ele>2367.5</ele>
        <time>2021-04-17T21:13:48Z</time>
      </trkpt>
      <trkpt lat="4.9763530" lon="-75.4958230">
        <ele>2367.4</ele>
        <time>2021-04-17T21:13:49Z</time>
      </trkpt>
      <trkpt lat="4.9763860" lon="-75.4958110">
        <ele>2367.3</ele>
        <time>2021-04-17T21:13:50Z</time>
      </trkpt>
      <trkpt lat="4.9764200" lon="-75.4957990">
        <ele>2367.1</ele>
        <time>2021-04-17T21:13:51Z</time>
      </trkpt>
      <trkpt lat="4.9764550" lon="-75.4957860">
        <ele>2367.0</ele>
        <time>2021-04-17T21:13:52Z</time>
      </trkpt>
      <trkpt lat="4.9764910" lon="-75.4957710">
        <ele>2366.8</ele>
        <time>2021-04-17T21:13:53Z</time>
      </trkpt>
      <trkpt lat="4.9765310" lon="-75.4957510">
        <ele>2366.6</ele>
        <time>2021-04-17T21:13:54Z</time>
      </trkpt>
      <trkpt lat="4.9765690" lon="-75.4957260">
        <ele>2366.4</ele>
        <time>2021-04-17T21:13:55Z</time>
      </trkpt>
      <trkpt lat="4.9766080" lon="-75.4956960">
        <ele>2366.2</ele>
        <time>2021-04-17T21:13:56Z</time>
      </trkpt>
      <trkpt lat="4.9766430" lon="-75.4956620">
        <ele>2366.0</ele>
        <time>2021-04-17T21:13:57Z</time>
      </trkpt>
      <trkpt lat="4.9766750" lon="-75.4956230">
        <ele>2365.8</ele>
        <time>2021-04-17T21:13:58Z</time>
      </trkpt>
      <trkpt lat="4.9767070" lon="-75.4955820">
        <ele>2365.7</ele>
        <time>2021-04-17T21:13:59Z</time>
      </trkpt>
      <trkpt lat="4.9767400" lon="-75.4955370">
        <ele>2365.5</ele>
        <time>2021-04-17T21:14:00Z</time>
      </trkpt>
      <trkpt lat="4.9767740" lon="-75.4954890">
        <ele>2365.4</ele>
        <time>2021-04-17T21:14:01Z</time>
      </trkpt>
      <trkpt lat="4.9768090" lon="-75.4954440">
        <ele>2365.4</ele>
        <time>2021-04-17T21:14:02Z</time>
      </trkpt>
      <trkpt lat="4.9768440" lon="-75.4953990">
        <ele>2365.4</ele>
        <time>2021-04-17T21:14:03Z</time>
      </trkpt>
      <trkpt lat="4.9768770" lon="-75.4953560">
        <ele>2365.5</ele>
        <time>2021-04-17T21:14:04Z</time>
      </trkpt>
      <trkpt lat="4.9769110" lon="-75.4953140">
        <ele>2365.6</ele>
        <time>2021-04-17T21:14:05Z</time>
      </trkpt>
      <trkpt lat="4.9769450" lon="-75.4952750">
        <ele>2365.8</ele>
        <time>2021-04-17T21:14:06Z</time>
      </trkpt>
      <trkpt lat="4.9769770" lon="-75.4952360">
        <ele>2366.0</ele>
        <time>2021-04-17T21:14:07Z</time>
      </trkpt>
      <trkpt lat="4.9770080" lon="-75.4951990">
        <ele>2366.3</ele>
        <time>2021-04-17T21:14:08Z</time>
      </trkpt>
      <trkpt lat="4.9770360" lon="-75.4951660">
        <ele>2366.5</ele>
        <time>2021-04-17T21:14:09Z</time>
      </trkpt>
      <trkpt lat="4.9770630" lon="-75.4951330">
        <ele>2366.7</ele>
        <time>2021-04-17T21:14:10Z</time>
      </trkpt>
      <trkpt lat="4.9770870" lon="-75.4951020">
        <ele>2367.0</ele>
        <time>2021-04-17T21:14:11Z</time>
      </trkpt>
      <trkpt lat="4.9771100" lon="-75.4950740">
        <ele>2367.2</ele>
        <time>2021-04-17T21:14:12Z</time>
      </trkpt>
      <trkpt lat="4.9771330" lon="-75.4950480">
        <ele>2367.5</ele>
        <time>2021-04-17T21:14:13Z</time>
      </trkpt>
      <trkpt lat="4.9771560" lon="-75.4950240">
        <ele>2367.7</ele>
        <time>2021-04-17T21:14:14Z</time>
      </trkpt>
      <trkpt lat="4.9771750" lon="-75.4950010">
        <ele>2367.9</ele>
        <time>2021-04-17T21:14:15Z</time>
      </trkpt>
      <trkpt lat="4.9771930" lon="-75.4949800">
        <ele>2368.2</ele>
        <time>2021-04-17T21:14:16Z</time>
      </trkpt>
      <trkpt lat="4.9772130" lon="-75.4949580">
        <ele>2368.4</ele>
        <time>2021-04-17T21:14:17Z</time>
      </trkpt>
      <trkpt lat="4.9772290" lon="-75.4949370">
        <ele>2368.7</ele>
        <time>2021-04-17T21:14:18Z</time>
      </trkpt>
      <trkpt lat="4.9772470" lon="-75.4949180">
        <ele>2368.9</ele>
        <time>2021-04-17T21:14:19Z</time>
      </trkpt>
      <trkpt lat="4.9772650" lon="-75.4949030">
        <ele>2369.1</ele>
        <time>2021-04-17T21:14:20Z</time>
      </trkpt>
      <trkpt lat="4.9772880" lon="-75.4948880">
        <ele>2369.4</ele>
        <time>2021-04-17T21:14:21Z</time>
      </trkpt>
      <trkpt lat="4.9773090" lon="-75.4948760">
        <ele>2369.7</ele>
        <time>2021-04-17T21:14:22Z</time>
      </trkpt>
      <trkpt lat="4.9773310" lon="-75.4948680">
        <ele>2369.9</ele>
        <time>2021-04-17T21:14:23Z</time>
      </trkpt>
      <trkpt lat="4.9773520" lon="-75.4948600">
        <ele>2370.1</ele>
        <time>2021-04-17T21:14:24Z</time>
      </trkpt>
      <trkpt lat="4.9773740" lon="-75.4948580">
        <ele>2370.4</ele>
        <time>2021-04-17T21:14:25Z</time>
      </trkpt>
      <trkpt lat="4.9773960" lon="-75.4948570">
        <ele>2370.6</ele>
        <time>2021-04-17T21:14:26Z</time>
      </trkpt>
      <trkpt lat="4.9774150" lon="-75.4948570">
        <ele>2370.8</ele>
        <time>2021-04-17T21:14:27Z</time>
      </trkpt>
      <trkpt lat="4.9774320" lon="-75.4948540">
        <ele>2371.0</ele>
        <time>2021-04-17T21:14:28Z</time>
      </trkpt>
      <trkpt lat="4.9774510" lon="-75.4948500">
        <ele>2371.2</ele>
        <time>2021-04-17T21:14:29Z</time>
      </trkpt>
      <trkpt lat="4.9774710" lon="-75.4948490">
        <ele>2371.4</ele>
        <time>2021-04-17T21:14:30Z</time>
      </trkpt>
      <trkpt lat="4.9774890" lon="-75.4948500">
        <ele>2371.6</ele>
        <time>2021-04-17T21:14:31Z</time>
      </trkpt>
      <trkpt lat="4.9775070" lon="-75.4948520">
        <ele>2371.8</ele>
        <time>2021-04-17T21:14:32Z</time>
      </trkpt>
      <trkpt lat="4.9775230" lon="-75.4948570">
        <ele>2372.0</ele>
        <time>2021-04-17T21:14:33Z</time>
      </trkpt>
      <trkpt lat="4.9775380" lon="-75.4948600">
        <ele>2372.1</ele>
        <time>2021-04-17T21:14:34Z</time>
      </trkpt>
      <trkpt lat="4.9775550" lon="-75.4948610">
        <ele>2372.3</ele>
        <time>2021-04-17T21:14:35Z</time>
      </trkpt>
      <trkpt lat="4.9775740" lon="-75.4948630">
        <ele>2372.5</ele>
        <time>2021-04-17T21:14:36Z</time>
      </trkpt>
      <trkpt lat="4.9775930" lon="-75.4948650">
        <ele>2372.7</ele>
        <time>2021-04-17T21:14:37Z</time>
      </trkpt>
      <trkpt lat="4.9776120" lon="-75.4948660">
        <ele>2372.8</ele>
        <time>2021-04-17T21:14:38Z</time>
      </trkpt>
      <trkpt lat="4.9776320" lon="-75.4948650">
        <ele>2373.0</ele>
        <time>2021-04-17T21:14:39Z</time>
      </trkpt>
      <trkpt lat="4.9776510" lon="-75.4948650">
        <ele>2373.2</ele>
        <time>2021-04-17T21:14:40Z</time>
      </trkpt>
      <trkpt lat="4.9776690" lon="-75.4948640">
        <ele>2373.4</ele>
        <time>2021-04-17T21:14:41Z</time>
      </trkpt>
      <trkpt lat="4.9776850" lon="-75.4948650">
        <ele>2373.6</ele>
        <time>2021-04-17T21:14:42Z</time>
      </trkpt>
      <trkpt lat="4.9777010" lon="-75.4948640">
        <ele>2373.7</ele>
        <time>2021-04-17T21:14:43Z</time>
      </trkpt>
      <trkpt lat="4.9777170" lon="-75.4948610">
        <ele>2373.9</ele>
        <time>2021-04-17T21:14:44Z</time>
      </trkpt>
      <trkpt lat="4.9777330" lon="-75.4948590">
        <ele>2374.0</ele>
        <time>2021-04-17T21:14:45Z</time>
      </trkpt>
      <trkpt lat="4.9777490" lon="-75.4948580">
        <ele>2374.2</ele>
        <time>2021-04-17T21:14:46Z</time>
      </trkpt>
      <trkpt lat="4.9777660" lon="-75.4948590">
        <ele>2374.4</ele>
        <time>2021-04-17T21:14:47Z</time>
      </trkpt>
      <trkpt lat="4.9777840" lon="-75.4948610">
        <ele>2374.5</ele>
        <time>2021-04-17T21:14:48Z</time>
      </trkpt>
      <trkpt lat="4.9778030" lon="-75.4948620">
        <ele>2374.7</ele>
        <time>2021-04-17T21:14:49Z</time>
      </trkpt>
      <trkpt lat="4.9778220" lon="-75.4948640">
        <ele>2374.9</ele>
        <time>2021-04-17T21:14:50Z</time>
      </trkpt>
      <trkpt lat="4.9778440" lon="-75.4948630">
        <ele>2375.1</ele>
        <time>2021-04-17T21:14:51Z</time>
      </trkpt>
      <trkpt lat="4.9778660" lon="-75.4948620">
        <ele>2375.4</ele>
        <time>2021-04-17T21:14:52Z</time>
      </trkpt>
      <trkpt lat="4.9778870" lon="-75.4948610">
        <ele>2375.6</ele>
        <time>2021-04-17T21:14:53Z</time>
      </trkpt>
      <trkpt lat="4.9779080" lon="-75.4948600">
        <ele>2375.8</ele>
        <time>2021-04-17T21:14:54Z</time>
      </trkpt>
      <trkpt lat="4.9779280" lon="-75.4948640">
        <ele>2376.0</ele>
        <time>2021-04-17T21:14:55Z</time>
      </trkpt>
      <trkpt lat="4.9779460" lon="-75.4948720">
        <ele>2376.2</ele>
        <time>2021-04-17T21:14:56Z</time>
      </trkpt>
      <trkpt lat="4.9779660" lon="-75.4948780">
        <ele>2376.4</ele>
        <time>2021-04-17T21:14:57Z</time>
      </trkpt>
      <trkpt lat="4.9779870" lon="-75.4948810">
        <ele>2376.6</ele>
        <time>2021-04-17T21:14:58Z</time>
      </trkpt>
      <trkpt lat="4.9780080" lon="-75.4948850">
        <ele>2376.9</ele>
        <time>2021-04-17T21:14:59Z</time>
      </trkpt>
      <trkpt lat="4.9780270" lon="-75.4948890">
        <ele>2377.1</ele>
        <time>2021-04-17T21:15:00Z</time>
      </trkpt>
      <trkpt lat="4.9780440" lon="-75.4948940">
        <ele>2377.3</ele>
        <time>2021-04-17T21:15:01Z</time>
      </trkpt>
      <trkpt lat="4.9780610" lon="-75.4949010">
        <ele>2377.5</ele>
        <time>2021-04-17T21:15:02Z</time>
      </trkpt>
      <trkpt lat="4.9780770" lon="-75.4949110">
        <ele>2377.7</ele>
        <time>2021-04-17T21:15:03Z</time>
      </trkpt>
      <trkpt lat="4.9780920" lon="-75.4949210">
        <ele>2377.9</ele>
        <time>2021-04-17T21:15:04Z</time>
      </trkpt>
      <trkpt lat="4.9781070" lon="-75.4949320">
        <ele>2378.1</ele>
        <time>2021-04-17T21:15:05Z</time>
      </trkpt>
      <trkpt lat="4.9781230" lon="-75.4949400">
        <ele>2378.3</ele>
        <time>2021-04-17T21:15:06Z</time>
      </trkpt>
      <trkpt lat="4.9781380" lon="-75.4949480">
        <ele>2378.4</ele>
        <time>2021-04-17T21:15:07Z</time>
      </trkpt>
      <trkpt lat="4.9781510" lon="-75.4949570">
        <ele>2378.6</ele>
        <time>2021-04-17T21:15:08Z</time>
      </trkpt>
      <trkpt lat="4.9781640" lon="-75.4949660">
        <ele>2378.8</ele>
        <time>2021-04-17T21:15:09Z</time>
      </trkpt>
      <trkpt lat="4.9781760" lon="-75.4949770">
        <ele>2378.9</ele>
        <time>2021-04-17T21:15:10Z</time>
      </trkpt>
      <trkpt lat="4.9781870" lon="-75.4949870">
        <ele>2379.1</ele>
        <time>2021-04-17T21:15:11Z</time>
      </trkpt>
      <trkpt lat="4.9782000" lon="-75.4950000">
        <ele>2379.3</ele>
        <time>2021-04-17T21:15:12Z</time>
      </trkpt>
      <trkpt lat="4.9782170" lon="-75.4950120">
        <ele>2379.5</ele>
        <time>2021-04-17T21:15:13Z</time>
      </trkpt>
      <trkpt lat="4.9782340" lon="-75.4950240">
        <ele>2379.6</ele>
        <time>2021-04-17T21:15:14Z</time>
      </trkpt>
      <trkpt lat="4.9782510" lon="-75.4950340">
        <ele>2379.8</ele>
        <time>2021-04-17T21:15:15Z</time>
      </trkpt>
      <trkpt lat="4.9782690" lon="-75.4950430">
        <ele>2380.0</ele>
        <time>2021-04-17T21:15:16Z</time>
      </trkpt>
      <trkpt lat="4.9782880" lon="-75.4950500">
        <ele>2380.1</ele>
        <time>2021-04-17T21:15:17Z</time>
      </trkpt>
      <trkpt lat="4.9783060" lon="-75.4950570">
        <ele>2380.3</ele>
        <time>2021-04-17T21:15:18Z</time>
      </trkpt>
      <trkpt lat="4.9783240" lon="-75.4950650">
        <ele>2380.4</ele>
        <time>2021-04-17T21:15:19Z</time>
      </trkpt>
      <trkpt lat="4.9783440" lon="-75.4950690">
        <ele>2380.6</ele>
        <time>2021-04-17T21:15:20Z</time>
      </trkpt>
      <trkpt lat="4.9783630" lon="-75.4950740">
        <ele>2380.7</ele>
        <time>2021-04-17T21:15:21Z</time>
      </trkpt>
      <trkpt lat="4.9783840" lon="-75.4950780">
        <ele>2380.9</ele>
        <time>2021-04-17T21:15:22Z</time>
      </trkpt>
      <trkpt lat="4.9784040" lon="-75.4950810">
        <ele>2381.0</ele>
        <time>2021-04-17T21:15:23Z</time>
      </trkpt>
      <trkpt lat="4.9784220" lon="-75.4950830">
        <ele>2381.2</ele>
        <time>2021-04-17T21:15:24Z</time>
      </trkpt>
      <trkpt lat="4.9784390" lon="-75.4950890">
        <ele>2381.3</ele>
        <time>2021-04-17T21:15:25Z</time>
      </trkpt>
      <trkpt lat="4.9784560" lon="-75.4950950">
        <ele>2381.5</ele>
        <time>2021-04-17T21:15:26Z</time>
      </trkpt>
      <trkpt lat="4.9784720" lon="-75.4951000">
        <ele>2381.6</ele>
        <time>2021-04-17T21:15:27Z</time>
      </trkpt>
      <trkpt lat="4.9784890" lon="-75.4951080">
        <ele>2381.8</ele>
        <time>2021-04-17T21:15:28Z</time>
      </trkpt>
      <trkpt lat="4.9785070" lon="-75.4951190">
        <ele>2381.9</ele>
        <time>2021-04-17T21:15:29Z</time>
      </trkpt>
      <trkpt lat="4.9785240" lon="-75.4951340">
        <ele>2382.1</ele>
        <time>2021-04-17T21:15:30Z</time>
      </trkpt>
      <trkpt lat="4.9785410" lon="-75.4951460">
        <ele>2382.3</ele>
        <time>2021-04-17T21:15:31Z</time>
      </trkpt>
      <trkpt lat="4.9785590" lon="-75.4951560">
        <ele>2382.5</ele>
        <time>2021-04-17T21:15:32Z</time>
      </trkpt>
      <trkpt lat="4.9785770" lon="-75.4951620">
        <ele>2382.7</ele>
        <time>2021-04-17T21:15:33Z</time>
      </trkpt>
      <trkpt lat="4.9785940" lon="-75.4951640">
        <ele>2382.9</ele>
        <time>2021-04-17T21:15:34Z</time>
      </trkpt>
      <trkpt lat="4.9786090" lon="-75.4951690">
        <ele>2383.1</ele>
        <time>2021-04-17T21:15:35Z</time>
      </trkpt>
      <trkpt lat="4.9786220" lon="-75.4951700">
        <ele>2383.3</ele>
        <time>2021-04-17T21:15:36Z</time>
      </trkpt>
      <trkpt lat="4.9786390" lon="-75.4951690">
        <ele>2383.4</ele>
        <time>2021-04-17T21:15:37Z</time>
      </trkpt>
      <trkpt lat="4.9786530" lon="-75.4951710">
        <ele>2383.6</ele>
        <time>2021-04-17T21:15:38Z</time>
      </trkpt>
      <trkpt lat="4.9786640" lon="-75.4951730">
        <ele>2383.8</ele>
        <time>2021-04-17T21:15:39Z</time>
      </trkpt>
      <trkpt lat="4.9786790" lon="-75.4951770">
        <ele>2383.9</ele>
        <time>2021-04-17T21:15:40Z</time>
      </trkpt>
      <trkpt lat="4.9786930" lon="-75.4951820">
        <ele>2384.1</ele>
        <time>2021-04-17T21:15:41Z</time>
      </trkpt>
      <trkpt lat="4.9787090" lon="-75.4951900">
        <ele>2384.4</ele>
        <time>2021-04-17T21:15:42Z</time>
      </trkpt>
      <trkpt lat="4.9787260" lon="-75.4951950">
        <ele>2384.6</ele>
        <time>2021-04-17T21:15:43Z</time>
      </trkpt>
      <trkpt lat="4.9787440" lon="-75.4951980">
        <ele>2384.9</ele>
        <time>2021-04-17T21:15:44Z</time>
      </trkpt>
      <trkpt lat="4.9787620" lon="-75.4951980">
        <ele>2385.1</ele>
        <time>2021-04-17T21:15:45Z</time>
      </trkpt>
      <trkpt lat="4.9787810" lon="-75.4951960">
        <ele>2385.4</ele>
        <time>2021-04-17T21:15:46Z</time>
      </trkpt>
      <trkpt lat="4.9788020" lon="-75.4951960">
        <ele>2385.7</ele>
        <time>2021-04-17T21:15:47Z</time>
      </trkpt>
      <trkpt lat="4.9788230" lon="-75.4951940">
        <ele>2386.0</ele>
        <time>2021-04-17T21:15:48Z</time>
      </trkpt>
      <trkpt lat="4.9788430" lon="-75.4951920">
        <ele>2386.3</ele>
        <time>2021-04-17T21:15:49Z</time>
      </trkpt>
      <trkpt lat="4.9788620" lon="-75.4951900">
        <ele>2386.6</ele>
        <time>2021-04-17T21:15:50Z</time>
      </trkpt>
      <trkpt lat="4.9788810" lon="-75.4951880">
        <ele>2386.9</ele>
        <time>2021-04-17T21:15:51Z</time>
      </trkpt>
      <trkpt lat="4.9788980" lon="-75.4951870">
        <ele>2387.2</ele>
        <time>2021-04-17T21:15:52Z</time>
      </trkpt>
      <trkpt lat="4.9789160" lon="-75.4951870">
        <ele>2387.5</ele>
        <time>2021-04-17T21:15:53Z</time>
      </trkpt>
      <trkpt lat="4.9789330" lon="-75.4951870">
        <ele>2387.8</ele>
        <time>2021-04-17T21:15:54Z</time>
      </trkpt>
      <trkpt lat="4.9789520" lon="-75.4951860">
        <ele>2388.1</ele>
        <time>2021-04-17T21:15:55Z</time>
      </trkpt>
      <trkpt lat="4.9789700" lon="-75.4951830">
        <ele>2388.4</ele>
        <time>2021-04-17T21:15:56Z</time>
      </trkpt>
      <trkpt lat="4.9789890" lon="-75.4951800">
        <ele>2388.8</ele>
        <time>2021-04-17T21:15:57Z</time>
      </trkpt>
      <trkpt lat="4.9790090" lon="-75.4951740">
        <ele>2389.1</ele>
        <time>2021-04-17T21:15:58Z</time>
      </trkpt>
      <trkpt lat="4.9790280" lon="-75.4951660">
        <ele>2389.5</ele>
        <time>2021-04-17T21:15:59Z</time>
      </trkpt>
      <trkpt lat="4.9790480" lon="-75.4951560">
        <ele>2389.9</ele>
        <time>2021-04-17T21:16:00Z</time>
      </trkpt>
      <trkpt lat="4.9790670" lon="-75.4951460">
        <ele>2390.2</ele>
        <time>2021-04-17T21:16:01Z</time>
      </trkpt>
      <trkpt lat="4.9790840" lon="-75.4951350">
        <ele>2390.6</ele>
        <time>2021-04-17T21:16:02Z</time>
      </trkpt>
      <trkpt lat="4.9790990" lon="-75.4951220">
        <ele>2390.9</ele>
        <time>2021-04-17T21:16:03Z</time>
      </trkpt>
      <trkpt lat="4.9791110" lon="-75.4951060">
        <ele>2391.2</ele>
        <time>2021-04-17T21:16:04Z</time>
      </trkpt>
      <trkpt lat="4.9791210" lon="-75.4950900">
        <ele>2391.5</ele>
        <time>2021-04-17T21:16:05Z</time>
      </trkpt>
      <trkpt lat="4.9791270" lon="-75.4950750">
        <ele>2391.8</ele>
        <time>2021-04-17T21:16:06Z</time>
      </trkpt>
      <trkpt lat="4.9791320" lon="-75.4950590">
        <ele>2392.0</ele>
        <time>2021-04-17T21:16:07Z</time>
      </trkpt>
      <trkpt lat="4.9791330" lon="-75.4950430">
        <ele>2392.2</ele>
        <time>2021-04-17T21:16:08Z</time>
      </trkpt>
      <trkpt lat="4.9791360" lon="-75.4950260">
        <ele>2392.5</ele>
        <time>2021-04-17T21:16:09Z</time>
      </trkpt>
      <trkpt lat="4.9791380" lon="-75.4950090">
        <ele>2392.7</ele>
        <time>2021-04-17T21:16:10Z</time>
      </trkpt>
      <trkpt lat="4.9791390" lon="-75.4949900">
        <ele>2393.0</ele>
        <time>2021-04-17T21:16:11Z</time>
      </trkpt>
      <trkpt lat="4.9791390" lon="-75.4949730">
        <ele>2393.2</ele>
        <time>2021-04-17T21:16:12Z</time>
      </trkpt>
      <trkpt lat="4.9791320" lon="-75.4949530">
        <ele>2393.4</ele>
        <time>2021-04-17T21:16:13Z</time>
      </trkpt>
      <trkpt lat="4.9791200" lon="-75.4949380">
        <ele>2393.6</ele>
        <time>2021-04-17T21:16:14Z</time>
      </trkpt>
      <trkpt lat="4.9791100" lon="-75.4949220">
        <ele>2393.9</ele>
        <time>2021-04-17T21:16:15Z</time>
      </trkpt>
      <trkpt lat="4.9791020" lon="-75.4949050">
        <ele>2394.1</ele>
        <time>2021-04-17T21:16:16Z</time>
      </trkpt>
      <trkpt lat="4.9790940" lon="-75.4948920">
        <ele>2394.2</ele>
        <time>2021-04-17T21:16:17Z</time>
      </trkpt>
      <trkpt lat="4.9790890" lon="-75.4948730">
        <ele>2394.5</ele>
        <time>2021-04-17T21:16:18Z</time>
      </trkpt>
      <trkpt lat="4.9790810" lon="-75.4948540">
        <ele>2394.7</ele>
        <time>2021-04-17T21:16:19Z</time>
      </trkpt>
      <trkpt lat="4.9790750" lon="-75.4948360">
        <ele>2394.9</ele>
        <time>2021-04-17T21:16:20Z</time>
      </trkpt>
      <trkpt lat="4.9790690" lon="-75.4948200">
        <ele>2395.1</ele>
        <time>2021-04-17T21:16:21Z</time>
      </trkpt>
      <trkpt lat="4.9790620" lon="-75.4948040">
        <ele>2395.3</ele>
        <time>2021-04-17T21:16:22Z</time>
      </trkpt>
      <trkpt lat="4.9790550" lon="-75.4947890">
        <ele>2395.5</ele>
        <time>2021-04-17T21:16:23Z</time>
      </trkpt>
      <trkpt lat="4.9790480" lon="-75.4947730">
        <ele>2395.7</ele>
        <time>2021-04-17T21:16:24Z</time>
      </trkpt>
      <trkpt lat="4.9790390" lon="-75.4947600">
        <ele>2395.9</ele>
        <time>2021-04-17T21:16:25Z</time>
      </trkpt>
      <trkpt lat="4.9790260" lon="-75.4947510">
        <ele>2396.1</ele>
        <time>2021-04-17T21:16:26Z</time>
      </trkpt>
      <trkpt lat="4.9790150" lon="-75.4947400">
        <ele>2396.3</ele>
        <time>2021-04-17T21:16:27Z</time>
      </trkpt>
      <trkpt lat="4.9790100" lon="-75.4947290">
        <ele>2396.4</ele>
        <time>2021-04-17T21:16:28Z</time>
      </trkpt>
      <trkpt lat="4.9790080" lon="-75.4947150">
        <ele>2396.6</ele>
        <time>2021-04-17T21:16:29Z</time>
      </trkpt>
      <trkpt lat="4.9790060" lon="-75.4947000">
        <ele>2396.8</ele>
        <time>2021-04-17T21:16:30Z</time>
      </trkpt>
      <trkpt lat="4.9790020" lon="-75.4946820">
        <ele>2397.1</ele>
        <time>2021-04-17T21:16:31Z</time>
      </trkpt>
      <trkpt lat="4.9789970" lon="-75.4946650">
        <ele>2397.3</ele>
        <time>2021-04-17T21:16:32Z</time>
      </trkpt>
      <trkpt lat="4.9789950" lon="-75.4946470">
        <ele>2397.5</ele>
        <time>2021-04-17T21:16:33Z</time>
      </trkpt>
      <trkpt lat="4.9789930" lon="-75.4946280">
        <ele>2397.8</ele>
        <time>2021-04-17T21:16:34Z</time>
      </trkpt>
      <trkpt lat="4.9789910" lon="-75.4946080">
        <ele>2398.0</ele>
        <time>2021-04-17T21:16:35Z</time>
      </trkpt>
      <trkpt lat="4.9789900" lon="-75.4945870">
        <ele>2398.3</ele>
        <time>2021-04-17T21:16:36Z</time>
      </trkpt>
      <trkpt lat="4.9789890" lon="-75.4945690">
        <ele>2398.6</ele>
        <time>2021-04-17T21:16:37Z</time>
      </trkpt>
      <trkpt lat="4.9789920" lon="-75.4945530">
        <ele>2398.8</ele>
        <time>2021-04-17T21:16:38Z</time>
      </trkpt>
      <trkpt lat="4.9789930" lon="-75.4945390">
        <ele>2399.0</ele>
        <time>2021-04-17T21:16:39Z</time>
      </trkpt>
      <trkpt lat="4.9789950" lon="-75.4945270">
        <ele>2399.1</ele>
        <time>2021-04-17T21:16:40Z</time>
      </trkpt>
      <trkpt lat="4.9790000" lon="-75.4945130">
        <ele>2399.3</ele>
        <time>2021-04-17T21:16:41Z</time>
      </trkpt>
      <trkpt lat="4.9790030" lon="-75.4944980">
        <ele>2399.5</ele>
        <time>2021-04-17T21:16:42Z</time>
      </trkpt>
      <trkpt lat="4.9790080" lon="-75.4944820">
        <ele>2399.8</ele>
        <time>2021-04-17T21:16:43Z</time>
      </trkpt>
      <trkpt lat="4.9790160" lon="-75.4944660">
        <ele>2400.0</ele>
        <time>2021-04-17T21:16:44Z</time>
      </trkpt>
      <trkpt lat="4.9790230" lon="-75.4944490">
        <ele>2400.3</ele>
        <time>2021-04-17T21:16:45Z</time>
      </trkpt>
      <trkpt lat="4.9790290" lon="-75.4944330">
        <ele>2400.4</ele>
        <time>2021-04-17T21:16:46Z</time>
      </trkpt>
      <trkpt lat="4.9790340" lon="-75.4944180">
        <ele>2400.6</ele>
        <time>2021-04-17T21:16:47Z</time>
      </trkpt>
      <trkpt lat="4.9790420" lon="-75.4944040">
        <ele>2400.8</ele>
        <time>2021-04-17T21:16:48Z</time>
      </trkpt>
      <trkpt lat="4.9790520" lon="-75.4943920">
        <ele>2400.9</ele>
        <time>2021-04-17T21:16:49Z</time>
      </trkpt>
      <trkpt lat="4.9790610" lon="-75.4943800">
        <ele>2401.1</ele>
        <time>2021-04-17T21:16:50Z</time>
      </trkpt>
      <trkpt lat="4.9790680" lon="-75.4943660">
        <ele>2401.2</ele>
        <time>2021-04-17T21:16:51Z</time>
      </trkpt>
      <trkpt lat="4.9790760" lon="-75.4943520">
        <ele>2401.3</ele>
        <time>2021-04-17T21:16:52Z</time>
      </trkpt>
      <trkpt lat="4.9790870" lon="-75.4943360">
        <ele>2401.5</ele>
        <time>2021-04-17T21:16:53Z</time>
      </trkpt>
      <trkpt lat="4.9790950" lon="-75.4943220">
        <ele>2401.6</ele>
        <time>2021-04-17T21:16:54Z</time>
      </trkpt>
      <trkpt lat="4.9791040" lon="-75.4943080">
        <ele>2401.8</ele>
        <time>2021-04-17T21:16:55Z</time>
      </trkpt>
      <trkpt lat="4.9791200" lon="-75.4942950">
        <ele>2402.0</ele>
        <time>2021-04-17T21:16:56Z</time>
      </trkpt>
      <trkpt lat="4.9791320" lon="-75.4942840">
        <ele>2402.1</ele>
        <time>2021-04-17T21:16:57Z</time>
      </trkpt>
      <trkpt lat="4.9791430" lon="-75.4942700">
        <ele>2402.3</ele>
        <time>2021-04-17T21:16:58Z</time>
      </trkpt>
      <trkpt lat="4.9791560" lon="-75.4942580">
        <ele>2402.4</ele>
        <time>2021-04-17T21:16:59Z</time>
      </trkpt>
      <trkpt lat="4.9791680" lon="-75.4942480">
        <ele>2402.6</ele>
        <time>2021-04-17T21:17:00Z</time>
      </trkpt>
      <trkpt lat="4.9791840" lon="-75.4942400">
        <ele>2402.7</ele>
        <time>2021-04-17T21:17:01Z</time>
      </trkpt>
      <trkpt lat="4.9792050" lon="-75.4942360">
        <ele>2402.9</ele>
        <time>2021-04-17T21:17:02Z</time>
      </trkpt>
      <trkpt lat="4.9792250" lon="-75.4942290">
        <ele>2403.0</ele>
        <time>2021-04-17T21:17:03Z</time>
      </trkpt>
      <trkpt lat="4.9792440" lon="-75.4942260">
        <ele>2403.2</ele>
        <time>2021-04-17T21:17:04Z</time>
      </trkpt>
      <trkpt lat="4.9792640" lon="-75.4942260">
        <ele>2403.3</ele>
        <time>2021-04-17T21:17:05Z</time>
      </trkpt>
      <trkpt lat="4.9792850" lon="-75.4942290">
        <ele>2403.5</ele>
        <time>2021-04-17T21:17:06Z</time>
      </trkpt>
      <trkpt lat="4.9793050" lon="-75.4942380">
        <ele>2403.7</ele>
        <time>2021-04-17T21:17:07Z</time>
      </trkpt>
      <trkpt lat="4.9793250" lon="-75.4942420">
        <ele>2403.9</ele>
        <time>2021-04-17T21:17:08Z</time>
      </trkpt>
      <trkpt lat="4.9793430" lon="-75.4942430">
        <ele>2404.0</ele>
        <time>2021-04-17T21:17:09Z</time>
      </trkpt>
      <trkpt lat="4.9793600" lon="-75.4942470">
        <ele>2404.2</ele>
        <time>2021-04-17T21:17:10Z</time>
      </trkpt>
      <trkpt lat="4.9793750" lon="-75.4942520">
        <ele>2404.3</ele>
        <time>2021-04-17T21:17:11Z</time>
      </trkpt>
      <trkpt lat="4.9793900" lon="-75.4942570">
        <ele>2404.4</ele>
        <time>2021-04-17T21:17:12Z</time>
      </trkpt>
      <trkpt lat="4.9794040" lon="-75.4942620">
        <ele>2404.6</ele>
        <time>2021-04-17T21:17:13Z</time>
      </trkpt>
      <trkpt lat="4.9794190" lon="-75.4942670">
        <ele>2404.7</ele>
        <time>2021-04-17T21:17:14Z</time>
      </trkpt>
      <trkpt lat="4.9794350" lon="-75.4942710">
        <ele>2404.9</ele>
        <time>2021-04-17T21:17:15Z</time>
      </trkpt>
      <trkpt lat="4.9794510" lon="-75.4942710">
        <ele>2405.0</ele>
        <time>2021-04-17T21:17:16Z</time>
      </trkpt>
      <trkpt lat="4.9794670" lon="-75.4942680">
        <ele>2405.2</ele>
        <time>2021-04-17T21:17:17Z</time>
      </trkpt>
      <trkpt lat="4.9794850" lon="-75.4942680">
        <ele>2405.3</ele>
        <time>2021-04-17T21:17:18Z</time>
      </trkpt>
      <trkpt lat="4.9795010" lon="-75.4942710">
        <ele>2405.5</ele>
        <time>2021-04-17T21:17:19Z</time>
      </trkpt>
      <trkpt lat="4.9795190" lon="-75.4942770">
        <ele>2405.7</ele>
        <time>2021-04-17T21:17:20Z</time>
      </trkpt>
      <trkpt lat="4.9795340" lon="-75.4942810">
        <ele>2405.9</ele>
        <time>2021-04-17T21:17:21Z</time>
      </trkpt>
      <trkpt lat="4.9795500" lon="-75.4942870">
        <ele>2406.1</ele>
        <time>2021-04-17T21:17:22Z</time>
      </trkpt>
      <trkpt lat="4.9795640" lon="-75.4942930">
        <ele>2406.2</ele>
        <time>2021-04-17T21:17:23Z</time>
      </trkpt>
      <trkpt lat="4.9795760" lon="-75.4943000">
        <ele>2406.4</ele>
        <time>2021-04-17T21:17:24Z</time>
      </trkpt>
      <trkpt lat="4.9795880" lon="-75.4943080">
        <ele>2406.5</ele>
        <time>2021-04-17T21:17:25Z</time>
      </trkpt>
      <trkpt lat="4.9796020" lon="-75.4943130">
        <ele>2406.7</ele>
        <time>2021-04-17T21:17:26Z</time>
      </trkpt>
      <trkpt lat="4.9796170" lon="-75.4943170">
        <ele>2406.9</ele>
        <time>2021-04-17T21:17:27Z</time>
      </trkpt>
      <trkpt lat="4.9796300" lon="-75.4943220">
        <ele>2407.0</ele>
        <time>2021-04-17T21:17:28Z</time>
      </trkpt>
      <trkpt lat="4.9796450" lon="-75.4943280">
        <ele>2407.2</ele>
        <time>2021-04-17T21:17:29Z</time>
      </trkpt>
      <trkpt lat="4.9796570" lon="-75.4943340">
        <ele>2407.4</ele>
        <time>2021-04-17T21:17:30Z</time>
      </trkpt>
      <trkpt lat="4.9796720" lon="-75.4943350">
        <ele>2407.5</ele>
        <time>2021-04-17T21:17:31Z</time>
      </trkpt>
      <trkpt lat="4.9796870" lon="-75.4943400">
        <ele>2407.7</ele>
        <time>2021-04-17T21:17:32Z</time>
      </trkpt>
      <trkpt lat="4.9797010" lon="-75.4943450">
        <ele>2407.9</ele>
        <time>2021-04-17T21:17:33Z</time>
      </trkpt>
      <trkpt lat="4.9797150" lon="-75.4943510">
        <ele>2408.0</ele>
        <time>2021-04-17T21:17:34Z</time>
      </trkpt>
      <trkpt lat="4.9797270" lon="-75.4943560">
        <ele>2408.2</ele>
        <time>2021-04-17T21:17:35Z</time>
      </trkpt>
      <trkpt lat="4.9797410" lon="-75.4943590">
        <ele>2408.4</ele>
        <time>2021-04-17T21:17:36Z</time>
      </trkpt>
      <trkpt lat="4.9797530" lon="-75.4943630">
        <ele>2408.5</ele>
        <time>2021-04-17T21:17:37Z</time>
      </trkpt>
      <trkpt lat="4.9797640" lon="-75.4943670">
        <ele>2408.6</ele>
        <time>2021-04-17T21:17:38Z</time>
      </trkpt>
      <trkpt lat="4.9797750" lon="-75.4943740">
        <ele>2408.8</ele>
        <time>2021-04-17T21:17:39Z</time>
      </trkpt>
      <trkpt lat="4.9797830" lon="-75.4943890">
        <ele>2409.0</ele>
        <time>2021-04-17T21:17:40Z</time>
      </trkpt>
      <trkpt lat="4.9797940" lon="-75.4944030">
        <ele>2409.2</ele>
        <time>2021-04-17T21:17:41Z</time>
      </trkpt>
      <trkpt lat="4.9798050" lon="-75.4944160">
        <ele>2409.4</ele>
        <time>2021-04-17T21:17:42Z</time>
      </trkpt>
      <trkpt lat="4.9798140" lon="-75.4944290">
        <ele>2409.5</ele>
        <time>2021-04-17T21:17:43Z</time>
      </trkpt>
      <trkpt lat="4.9798190" lon="-75.4944460">
        <ele>2409.7</ele>
        <time>2021-04-17T21:17:44Z</time>
      </trkpt>
      <trkpt lat="4.9798250" lon="-75.4944620">
        <ele>2409.9</ele>
        <time>2021-04-17T21:17:45Z</time>
      </trkpt>
      <trkpt lat="4.9798350" lon="-75.4944790">
        <ele>2410.1</ele>
        <time>2021-04-17T21:17:46Z</time>
      </trkpt>
      <trkpt lat="4.9798410" lon="-75.4944900">
        <ele>2410.2</ele>
        <time>2021-04-17T21:17:47Z</time>
      </trkpt>
      <trkpt lat="4.9798510" lon="-75.4945070">
        <ele>2410.4</ele>
        <time>2021-04-17T21:17:48Z</time>
      </trkpt>
      <trkpt lat="4.9798570" lon="-75.4945250">
        <ele>2410.6</ele>
        <time>2021-04-17T21:17:49Z</time>
      </trkpt>
      <trkpt lat="4.9798630" lon="-75.4945430">
        <ele>2410.8</ele>
        <time>2021-04-17T21:17:50Z</time>
      </trkpt>
      <trkpt lat="4.9798710" lon="-75.4945570">
        <ele>2410.9</ele>
        <time>2021-04-17T21:17:51Z</time>
      </trkpt>
      <trkpt lat="4.9798780" lon="-75.4945710">
        <ele>2411.1</ele>
        <time>2021-04-17T21:17:52Z</time>
      </trkpt>
      <trkpt lat="4.9798830" lon="-75.4945870">
        <ele>2411.2</ele>
        <time>2021-04-17T21:17:53Z</time>
      </trkpt>
      <trkpt lat="4.9798870" lon="-75.4946120">
        <ele>2411.4</ele>
        <time>2021-04-17T21:17:54Z</time>
      </trkpt>
      <trkpt lat="4.9798950" lon="-75.4946250">
        <ele>2411.6</ele>
        <time>2021-04-17T21:17:55Z</time>
      </trkpt>
      <trkpt lat="4.9799080" lon="-75.4946360">
        <ele>2411.7</ele>
        <time>2021-04-17T21:17:56Z</time>
      </trkpt>
      <trkpt lat="4.9799200" lon="-75.4946540">
        <ele>2411.9</ele>
        <time>2021-04-17T21:17:57Z</time>
      </trkpt>
      <trkpt lat="4.9799310" lon="-75.4946820">
        <ele>2412.2</ele>
        <time>2021-04-17T21:17:58Z</time>
      </trkpt>
      <trkpt lat="4.9799460" lon="-75.4947030">
        <ele>2412.4</ele>
        <time>2021-04-17T21:17:59Z</time>
      </trkpt>
      <trkpt lat="4.9799590" lon="-75.4947190">
        <ele>2412.6</ele>
        <time>2021-04-17T21:18:00Z</time>
      </trkpt>
      <trkpt lat="4.9799760" lon="-75.4947330">
        <ele>2412.8</ele>
        <time>2021-04-17T21:18:01Z</time>
      </trkpt>
      <trkpt lat="4.9799890" lon="-75.4947490">
        <ele>2413.0</ele>
        <time>2021-04-17T21:18:02Z</time>
      </trkpt>
      <trkpt lat="4.9800030" lon="-75.4947640">
        <ele>2413.2</ele>
        <time>2021-04-17T21:18:03Z</time>
      </trkpt>
      <trkpt lat="4.9800140" lon="-75.4947790">
        <ele>2413.4</ele>
        <time>2021-04-17T21:18:04Z</time>
      </trkpt>
      <trkpt lat="4.9800250" lon="-75.4947940">
        <ele>2413.6</ele>
        <time>2021-04-17T21:18:05Z</time>
      </trkpt>
      <trkpt lat="4.9800380" lon="-75.4948110">
        <ele>2413.9</ele>
        <time>2021-04-17T21:18:06Z</time>
      </trkpt>
      <trkpt lat="4.9800510" lon="-75.4948280">
        <ele>2414.1</ele>
        <time>2021-04-17T21:18:07Z</time>
      </trkpt>
      <trkpt lat="4.9800620" lon="-75.4948480">
        <ele>2414.4</ele>
        <time>2021-04-17T21:18:08Z</time>
      </trkpt>
      <trkpt lat="4.9800760" lon="-75.4948670">
        <ele>2414.7</ele>
        <time>2021-04-17T21:18:09Z</time>
      </trkpt>
      <trkpt lat="4.9800900" lon="-75.4948850">
        <ele>2414.9</ele>
        <time>2021-04-17T21:18:10Z</time>
      </trkpt>
      <trkpt lat="4.9801040" lon="-75.4949010">
        <ele>2415.2</ele>
        <time>2021-04-17T21:18:11Z</time>
      </trkpt>
      <trkpt lat="4.9801150" lon="-75.4949170">
        <ele>2415.4</ele>
        <time>2021-04-17T21:18:12Z</time>
      </trkpt>
      <trkpt lat="4.9801290" lon="-75.4949340">
        <ele>2415.7</ele>
        <time>2021-04-17T21:18:13Z</time>
      </trkpt>
      <trkpt lat="4.9801430" lon="-75.4949500">
        <ele>2415.9</ele>
        <time>2021-04-17T21:18:14Z</time>
      </trkpt>
      <trkpt lat="4.9801660" lon="-75.4949580">
        <ele>2416.2</ele>
        <time>2021-04-17T21:18:15Z</time>
      </trkpt>
      <trkpt lat="4.9801890" lon="-75.4949630">
        <ele>2416.4</ele>
        <time>2021-04-17T21:18:16Z</time>
      </trkpt>
      <trkpt lat="4.9802130" lon="-75.4949750">
        <ele>2416.7</ele>
        <time>2021-04-17T21:18:17Z</time>
      </trkpt>
      <trkpt lat="4.9802350" lon="-75.4949840">
        <ele>2416.9</ele>
        <time>2021-04-17T21:18:18Z</time>
      </trkpt>
      <trkpt lat="4.9802590" lon="-75.4949900">
        <ele>2417.1</ele>
        <time>2021-04-17T21:18:19Z</time>
      </trkpt>
      <trkpt lat="4.9802800" lon="-75.4949930">
        <ele>2417.3</ele>
        <time>2021-04-17T21:18:20Z</time>
      </trkpt>
      <trkpt lat="4.9802980" lon="-75.4949950">
        <ele>2417.4</ele>
        <time>2021-04-17T21:18:21Z</time>
      </trkpt>
      <trkpt lat="4.9803130" lon="-75.4949950">
        <ele>2417.5</ele>
        <time>2021-04-17T21:18:22Z</time>
      </trkpt>
      <trkpt lat="4.9803280" lon="-75.4949940">
        <ele>2417.7</ele>
        <time>2021-04-17T21:18:23Z</time>
      </trkpt>
      <trkpt lat="4.9803430" lon="-75.4949940">
        <ele>2417.8</ele>
        <time>2021-04-17T21:18:24Z</time>
      </trkpt>
      <trkpt lat="4.9803590" lon="-75.4949920">
        <ele>2417.9</ele>
        <time>2021-04-17T21:18:25Z</time>
      </trkpt>
      <trkpt lat="4.9803750" lon="-75.4949870">
        <ele>2418.0</ele>
        <time>2021-04-17T21:18:26Z</time>
      </trkpt>
      <trkpt lat="4.9803910" lon="-75.4949810">
        <ele>2418.2</ele>
        <time>2021-04-17T21:18:27Z</time>
      </trkpt>
      <trkpt lat="4.9804060" lon="-75.4949790">
        <ele>2418.3</ele>
        <time>2021-04-17T21:18:28Z</time>
      </trkpt>
      <trkpt lat="4.9804230" lon="-75.4949740">
        <ele>2418.4</ele>
        <time>2021-04-17T21:18:29Z</time>
      </trkpt>
      <trkpt lat="4.9804400" lon="-75.4949690">
        <ele>2418.6</ele>
        <time>2021-04-17T21:18:30Z</time>
      </trkpt>
      <trkpt lat="4.9804570" lon="-75.4949680">
        <ele>2418.7</ele>
        <time>2021-04-17T21:18:31Z</time>
      </trkpt>
      <trkpt lat="4.9804740" lon="-75.4949650">
        <ele>2418.8</ele>
        <time>2021-04-17T21:18:32Z</time>
      </trkpt>
      <trkpt lat="4.9804910" lon="-75.4949610">
        <ele>2419.0</ele>
        <time>2021-04-17T21:18:33Z</time>
      </trkpt>
      <trkpt lat="4.9805080" lon="-75.4949560">
        <ele>2419.1</ele>
        <time>2021-04-17T21:18:34Z</time>
      </trkpt>
      <trkpt lat="4.9805230" lon="-75.4949510">
        <ele>2419.3</ele>
        <time>2021-04-17T21:18:35Z</time>
      </trkpt>
      <trkpt lat="4.9805380" lon="-75.4949440">
        <ele>2419.4</ele>
        <time>2021-04-17T21:18:36Z</time>
      </trkpt>
      <trkpt lat="4.9805540" lon="-75.4949380">
        <ele>2419.6</ele>
        <time>2021-04-17T21:18:37Z</time>
      </trkpt>
      <trkpt lat="4.9805700" lon="-75.4949290">
        <ele>2419.7</ele>
        <time>2021-04-17T21:18:38Z</time>
      </trkpt>
      <trkpt lat="4.9805880" lon="-75.4949200">
        <ele>2419.9</ele>
        <time>2021-04-17T21:18:39Z</time>
      </trkpt>
      <trkpt lat="4.9806070" lon="-75.4949090">
        <ele>2420.1</ele>
        <time>2021-04-17T21:18:40Z</time>
      </trkpt>
      <trkpt lat="4.9806250" lon="-75.4948990">
        <ele>2420.3</ele>
        <time>2021-04-17T21:18:41Z</time>
      </trkpt>
      <trkpt lat="4.9806440" lon="-75.4948900">
        <ele>2420.5</ele>
        <time>2021-04-17T21:18:42Z</time>
      </trkpt>
      <trkpt lat="4.9806630" lon="-75.4948830">
        <ele>2420.7</ele>
        <time>2021-04-17T21:18:43Z</time>
      </trkpt>
      <trkpt lat="4.9806810" lon="-75.4948780">
        <ele>2420.9</ele>
        <time>2021-04-17T21:18:44Z</time>
      </trkpt>
      <trkpt lat="4.9806980" lon="-75.4948740">
        <ele>2421.0</ele>
        <time>2021-04-17T21:18:45Z</time>
      </trkpt>
      <trkpt lat="4.9807130" lon="-75.4948670">
        <ele>2421.2</ele>
        <time>2021-04-17T21:18:46Z</time>
      </trkpt>
      <trkpt lat="4.9807290" lon="-75.4948610">
        <ele>2421.4</ele>
        <time>2021-04-17T21:18:47Z</time>
      </trkpt>
      <trkpt lat="4.9807460" lon="-75.4948560">
        <ele>2421.5</ele>
        <time>2021-04-17T21:18:48Z</time>
      </trkpt>
      <trkpt lat="4.9807620" lon="-75.4948530">
        <ele>2421.7</ele>
        <time>2021-04-17T21:18:49Z</time>
      </trkpt>
      <trkpt lat="4.9807780" lon="-75.4948510">
        <ele>2421.8</ele>
        <time>2021-04-17T21:18:50Z</time>
      </trkpt>
      <trkpt lat="4.9807960" lon="-75.4948480">
        <ele>2422.0</ele>
        <time>2021-04-17T21:18:51Z</time>
      </trkpt>
      <trkpt lat="4.9808150" lon="-75.4948440">
        <ele>2422.2</ele>
        <time>2021-04-17T21:18:52Z</time>
      </trkpt>
      <trkpt lat="4.9808340" lon="-75.4948360">
        <ele>2422.4</ele>
        <time>2021-04-17T21:18:53Z</time>
      </trkpt>
      <trkpt lat="4.9808530" lon="-75.4948290">
        <ele>2422.6</ele>
        <time>2021-04-17T21:18:54Z</time>
      </trkpt>
      <trkpt lat="4.9808730" lon="-75.4948240">
        <ele>2422.8</ele>
        <time>2021-04-17T21:18:55Z</time>
      </trkpt>
      <trkpt lat="4.9808930" lon="-75.4948180">
        <ele>2423.1</ele>
        <time>2021-04-17T21:18:56Z</time>
      </trkpt>
      <trkpt lat="4.9809120" lon="-75.4948130">
        <ele>2423.3</ele>
        <time>2021-04-17T21:18:57Z</time>
      </trkpt>
      <trkpt lat="4.9809310" lon="-75.4948050">
        <ele>2423.5</ele>
        <time>2021-04-17T21:18:58Z</time>
      </trkpt>
      <trkpt lat="4.9809500" lon="-75.4947950">
        <ele>2423.8</ele>
        <time>2021-04-17T21:18:59Z</time>
      </trkpt>
      <trkpt lat="4.9809680" lon="-75.4947880">
        <ele>2424.0</ele>
        <time>2021-04-17T21:19:00Z</time>
      </trkpt>
      <trkpt lat="4.9809860" lon="-75.4947810">
        <ele>2424.3</ele>
        <time>2021-04-17T21:19:01Z</time>
      </trkpt>
      <trkpt lat="4.9810040" lon="-75.4947720">
        <ele>2424.5</ele>
        <time>2021-04-17T21:19:02Z</time>
      </trkpt>
      <trkpt lat="4.9810190" lon="-75.4947620">
        <ele>2424.7</ele>
        <time>2021-04-17T21:19:03Z</time>
      </trkpt>
      <trkpt lat="4.9810330" lon="-75.4947520">
        <ele>2424.9</ele>
        <time>2021-04-17T21:19:04Z</time>
      </trkpt>
      <trkpt lat="4.9810470" lon="-75.4947440">
        <ele>2425.1</ele>
        <time>2021-04-17T21:19:05Z</time>
      </trkpt>
      <trkpt lat="4.9810590" lon="-75.4947340">
        <ele>2425.3</ele>
        <time>2021-04-17T21:19:06Z</time>
      </trkpt>
      <trkpt lat="4.9810730" lon="-75.4947240">
        <ele>2425.5</ele>
        <time>2021-04-17T21:19:07Z</time>
      </trkpt>
      <trkpt lat="4.9810870" lon="-75.4947140">
        <ele>2425.8</ele>
        <time>2021-04-17T21:19:08Z</time>
      </trkpt>
      <trkpt lat="4.9811000" lon="-75.4947040">
        <ele>2426.0</ele>
        <time>2021-04-17T21:19:09Z</time>
      </trkpt>
      <trkpt lat="4.9811130" lon="-75.4946950">
        <ele>2426.2</ele>
        <time>2021-04-17T21:19:10Z</time>
      </trkpt>
      <trkpt lat="4.9811260" lon="-75.4946860">
        <ele>2426.4</ele>
        <time>2021-04-17T21:19:11Z</time>
      </trkpt>
      <trkpt lat="4.9811390" lon="-75.4946800">
        <ele>2426.5</ele>
        <time>2021-04-17T21:19:12Z</time>
      </trkpt>
      <trkpt lat="4.9811520" lon="-75.4946740">
        <ele>2426.7</ele>
        <time>2021-04-17T21:19:13Z</time>
      </trkpt>
      <trkpt lat="4.9811670" lon="-75.4946700">
        <ele>2426.9</ele>
        <time>2021-04-17T21:19:14Z</time>
      </trkpt>
      <trkpt lat="4.9811850" lon="-75.4946640">
        <ele>2427.2</ele>
        <time>2021-04-17T21:19:15Z</time>
      </trkpt>
      <trkpt lat="4.9812020" lon="-75.4946580">
        <ele>2427.4</ele>
        <time>2021-04-17T21:19:16Z</time>
      </trkpt>
      <trkpt lat="4.9812160" lon="-75.4946490">
        <ele>2427.6</ele>
        <time>2021-04-17T21:19:17Z</time>
      </trkpt>
      <trkpt lat="4.9812260" lon="-75.4946400">
        <ele>2427.8</ele>
        <time>2021-04-17T21:19:18Z</time>
      </trkpt>
      <trkpt lat="4.9812360" lon="-75.4946320">
        <ele>2427.9</ele>
        <time>2021-04-17T21:19:19Z</time>
      </trkpt>
      <trkpt lat="4.9812470" lon="-75.4946240">
        <ele>2428.1</ele>
        <time>2021-04-17T21:19:20Z</time>
      </trkpt>
      <trkpt lat="4.9812590" lon="-75.4946170">
        <ele>2428.2</ele>
        <time>2021-04-17T21:19:21Z</time>
      </trkpt>
      <trkpt lat="4.9812730" lon="-75.4946130">
        <ele>2428.4</ele>
        <time>2021-04-17T21:19:22Z</time>
      </trkpt>
      <trkpt lat="4.9812850" lon="-75.4946070">
        <ele>2428.5</ele>
        <time>2021-04-17T21:19:23Z</time>
      </trkpt>
      <trkpt lat="4.9812960" lon="-75.4946010">
        <ele>2428.7</ele>
        <time>2021-04-17T21:19:24Z</time>
      </trkpt>
      <trkpt lat="4.9813080" lon="-75.4945910">
        <ele>2428.8</ele>
        <time>2021-04-17T21:19:25Z</time>
      </trkpt>
      <trkpt lat="4.9813190" lon="-75.4945800">
        <ele>2429.0</ele>
        <time>2021-04-17T21:19:26Z</time>
      </trkpt>
      <trkpt lat="4.9813300" lon="-75.4945690">
        <ele>2429.2</ele>
        <time>2021-04-17T21:19:27Z</time>
      </trkpt>
      <trkpt lat="4.9813390" lon="-75.4945590">
        <ele>2429.3</ele>
        <time>2021-04-17T21:19:28Z</time>
      </trkpt>
      <trkpt lat="4.9813490" lon="-75.4945500">
        <ele>2429.4</ele>
        <time>2021-04-17T21:19:29Z</time>
      </trkpt>
      <trkpt lat="4.9813590" lon="-75.4945380">
        <ele>2429.6</ele>
        <time>2021-04-17T21:19:30Z</time>
      </trkpt>
      <trkpt lat="4.9813710" lon="-75.4945270">
        <ele>2429.7</ele>
        <time>2021-04-17T21:19:31Z</time>
      </trkpt>
      <trkpt lat="4.9813830" lon="-75.4945150">
        <ele>2429.9</ele>
        <time>2021-04-17T21:19:32Z</time>
      </trkpt>
      <trkpt lat="4.9813920" lon="-75.4945010">
        <ele>2430.1</ele>
        <time>2021-04-17T21:19:33Z</time>
      </trkpt>
      <trkpt lat="4.9814010" lon="-75.4944850">
        <ele>2430.2</ele>
        <time>2021-04-17T21:19:34Z</time>
      </trkpt>
      <trkpt lat="4.9814090" lon="-75.4944720">
        <ele>2430.4</ele>
        <time>2021-04-17T21:19:35Z</time>
      </trkpt>
      <trkpt lat="4.9814150" lon="-75.4944610">
        <ele>2430.5</ele>
        <time>2021-04-17T21:19:36Z</time>
      </trkpt>
      <trkpt lat="4.9814200" lon="-75.4944480">
        <ele>2430.6</ele>
        <time>2021-04-17T21:19:37Z</time>
      </trkpt>
      <trkpt lat="4.9814260" lon="-75.4944340">
        <ele>2430.8</ele>
        <time>2021-04-17T21:19:38Z</time>
      </trkpt>
      <trkpt lat="4.9814320" lon="-75.4944170">
        <ele>2430.9</ele>
        <time>2021-04-17T21:19:39Z</time>
      </trkpt>
      <trkpt lat="4.9814340" lon="-75.4944010">
        <ele>2431.1</ele>
        <time>2021-04-17T21:19:40Z</time>
      </trkpt>
      <trkpt lat="4.9814340" lon="-75.4943850">
        <ele>2431.2</ele>
        <time>2021-04-17T21:19:41Z</time>
      </trkpt>
      <trkpt lat="4.9814370" lon="-75.4943700">
        <ele>2431.4</ele>
        <time>2021-04-17T21:19:42Z</time>
      </trkpt>
      <trkpt lat="4.9814400" lon="-75.4943540">
        <ele>2431.6</ele>
        <time>2021-04-17T21:19:43Z</time>
      </trkpt>
      <trkpt lat="4.9814420" lon="-75.4943380">
        <ele>2431.7</ele>
        <time>2021-04-17T21:19:44Z</time>
      </trkpt>
      <trkpt lat="4.9814420" lon="-75.4943220">
        <ele>2431.9</ele>
        <time>2021-04-17T21:19:45Z</time>
      </trkpt>
      <trkpt lat="4.9814410" lon="-75.4943080">
        <ele>2432.0</ele>
        <time>2021-04-17T21:19:46Z</time>
      </trkpt>
      <trkpt lat="4.9814400" lon="-75.4942930">
        <ele>2432.2</ele>
        <time>2021-04-17T21:19:47Z</time>
      </trkpt>
      <trkpt lat="4.9814410" lon="-75.4942760">
        <ele>2432.4</ele>
        <time>2021-04-17T21:19:48Z</time>
      </trkpt>
      <trkpt lat="4.9814440" lon="-75.4942610">
        <ele>2432.5</ele>
        <time>2021-04-17T21:19:49Z</time>
      </trkpt>
      <trkpt lat="4.9814470" lon="-75.4942460">
        <ele>2432.7</ele>
        <time>2021-04-17T21:19:50Z</time>
      </trkpt>
      <trkpt lat="4.9814520" lon="-75.4942310">
        <ele>2432.8</ele>
        <time>2021-04-17T21:19:51Z</time>
      </trkpt>
      <trkpt lat="4.9814590" lon="-75.4942150">
        <ele>2433.0</ele>
        <time>2021-04-17T21:19:52Z</time>
      </trkpt>
      <trkpt lat="4.9814640" lon="-75.4942000">
        <ele>2433.2</ele>
        <time>2021-04-17T21:19:53Z</time>
      </trkpt>
      <trkpt lat="4.9814630" lon="-75.4941860">
        <ele>2433.3</ele>
        <time>2021-04-17T21:19:54Z</time>
      </trkpt>
      <trkpt lat="4.9814610" lon="-75.4941680">
        <ele>2433.5</ele>
        <time>2021-04-17T21:19:55Z</time>
      </trkpt>
      <trkpt lat="4.9814590" lon="-75.4941500">
        <ele>2433.7</ele>
        <time>2021-04-17T21:19:56Z</time>
      </trkpt>
      <trkpt lat="4.9814550" lon="-75.4941370">
        <ele>2433.9</ele>
        <time>2021-04-17T21:19:57Z</time>
      </trkpt>
      <trkpt lat="4.9814560" lon="-75.4941250">
        <ele>2434.0</ele>
        <time>2021-04-17T21:19:58Z</time>
      </trkpt>
      <trkpt lat="4.9814550" lon="-75.4941100">
        <ele>2434.1</ele>
        <time>2021-04-17T21:19:59Z</time>
      </trkpt>
      <trkpt lat="4.9814560" lon="-75.4940950">
        <ele>2434.3</ele>
        <time>2021-04-17T21:20:00Z</time>
      </trkpt>
      <trkpt lat="4.9814540" lon="-75.4940790">
        <ele>2434.5</ele>
        <time>2021-04-17T21:20:01Z</time>
      </trkpt>
      <trkpt lat="4.9814520" lon="-75.4940630">
        <ele>2434.6</ele>
        <time>2021-04-17T21:20:02Z</time>
      </trkpt>
      <trkpt lat="4.9814500" lon="-75.4940500">
        <ele>2434.8</ele>
        <time>2021-04-17T21:20:03Z</time>
      </trkpt>
      <trkpt lat="4.9814490" lon="-75.4940380">
        <ele>2434.9</ele>
        <time>2021-04-17T21:20:04Z</time>
      </trkpt>
      <trkpt lat="4.9814470" lon="-75.4940250">
        <ele>2435.0</ele>
        <time>2021-04-17T21:20:05Z</time>
      </trkpt>
      <trkpt lat="4.9814430" lon="-75.4940100">
        <ele>2435.2</ele>
        <time>2021-04-17T21:20:06Z</time>
      </trkpt>
      <trkpt lat="4.9814410" lon="-75.4939950">
        <ele>2435.3</ele>
        <time>2021-04-17T21:20:07Z</time>
      </trkpt>
      <trkpt lat="4.9814340" lon="-75.4939760">
        <ele>2435.5</ele>
        <time>2021-04-17T21:20:08Z</time>
      </trkpt>
      <trkpt lat="4.9814270" lon="-75.4939580">
        <ele>2435.7</ele>
        <time>2021-04-17T21:20:09Z</time>
      </trkpt>
      <trkpt lat="4.9814220" lon="-75.4939430">
        <ele>2435.9</ele>
        <time>2021-04-17T21:20:10Z</time>
      </trkpt>
      <trkpt lat="4.9814190" lon="-75.4939280">
        <ele>2436.0</ele>
        <time>2021-04-17T21:20:11Z</time>
      </trkpt>
      <trkpt lat="4.9814140" lon="-75.4939130">
        <ele>2436.2</ele>
        <time>2021-04-17T21:20:12Z</time>
      </trkpt>
      <trkpt lat="4.9814080" lon="-75.4938990">
        <ele>2436.4</ele>
        <time>2021-04-17T21:20:13Z</time>
      </trkpt>
      <trkpt lat="4.9814020" lon="-75.4938850">
        <ele>2436.5</ele>
        <time>2021-04-17T21:20:14Z</time>
      </trkpt>
      <trkpt lat="4.9813950" lon="-75.4938680">
        <ele>2436.7</ele>
        <time>2021-04-17T21:20:15Z</time>
      </trkpt>
      <trkpt lat="4.9813880" lon="-75.4938530">
        <ele>2436.9</ele>
        <time>2021-04-17T21:20:16Z</time>
      </trkpt>
      <trkpt lat="4.9813840" lon="-75.4938390">
        <ele>2437.0</ele>
        <time>2021-04-17T21:20:17Z</time>
      </trkpt>
      <trkpt lat="4.9813790" lon="-75.4938260">
        <ele>2437.2</ele>
        <time>2021-04-17T21:20:18Z</time>
      </trkpt>
      <trkpt lat="4.9813750" lon="-75.4938120">
        <ele>2437.3</ele>
        <time>2021-04-17T21:20:19Z</time>
      </trkpt>
      <trkpt lat="4.9813710" lon="-75.4937970">
        <ele>2437.5</ele>
        <time>2021-04-17T21:20:20Z</time>
      </trkpt>
      <trkpt lat="4.9813650" lon="-75.4937860">
        <ele>2437.6</ele>
        <time>2021-04-17T21:20:21Z</time>
      </trkpt>
      <trkpt lat="4.9813620" lon="-75.4937720">
        <ele>2437.8</ele>
        <time>2021-04-17T21:20:22Z</time>
      </trkpt>
      <trkpt lat="4.9813580" lon="-75.4937580">
        <ele>2437.9</ele>
        <time>2021-04-17T21:20:23Z</time>
      </trkpt>
      <trkpt lat="4.9813530" lon="-75.4937440">
        <ele>2438.1</ele>
        <time>2021-04-17T21:20:24Z</time>
      </trkpt>
      <trkpt lat="4.9813470" lon="-75.4937300">
        <ele>2438.2</ele>
        <time>2021-04-17T21:20:25Z</time>
      </trkpt>
      <trkpt lat="4.9813400" lon="-75.4937140">
        <ele>2438.4</ele>
        <time>2021-04-17T21:20:26Z</time>
      </trkpt>
      <trkpt lat="4.9813350" lon="-75.4936960">
        <ele>2438.6</ele>
        <time>2021-04-17T21:20:27Z</time>
      </trkpt>
      <trkpt lat="4.9813270" lon="-75.4936800">
        <ele>2438.8</ele>
        <time>2021-04-17T21:20:28Z</time>
      </trkpt>
      <trkpt lat="4.9813200" lon="-75.4936650">
        <ele>2438.9</ele>
        <time>2021-04-17T21:20:29Z</time>
      </trkpt>
      <trkpt lat="4.9813110" lon="-75.4936550">
        <ele>2439.0</ele>
        <time>2021-04-17T21:20:30Z</time>
      </trkpt>
      <trkpt lat="4.9813020" lon="-75.4936440">
        <ele>2439.2</ele>
        <time>2021-04-17T21:20:31Z</time>
      </trkpt>
      <trkpt lat="4.9812910" lon="-75.4936370">
        <ele>2439.3</ele>
        <time>2021-04-17T21:20:32Z</time>
      </trkpt>
      <trkpt lat="4.9812830" lon="-75.4936360">
        <ele>2439.4</ele>
        <time>2021-04-17T21:20:33Z</time>
      </trkpt>
      <trkpt lat="4.9812740" lon="-75.4936270">
        <ele>2439.5</ele>
        <time>2021-04-17T21:20:34Z</time>
      </trkpt>
      <trkpt lat="4.9812640" lon="-75.4936180">
        <ele>2439.6</ele>
        <time>2021-04-17T21:20:35Z</time>
      </trkpt>
      <trkpt lat="4.9812540" lon="-75.4936140">
        <ele>2439.7</ele>
        <time>2021-04-17T21:20:36Z</time>
      </trkpt>
      <trkpt lat="4.9812440" lon="-75.4936060">
        <ele>2439.9</ele>
        <time>2021-04-17T21:20:37Z</time>
      </trkpt>
      <trkpt lat="4.9812340" lon="-75.4935970">
        <ele>2440.0</ele>
        <time>2021-04-17T21:20:38Z</time>
      </trkpt>
      <trkpt lat="4.9812240" lon="-75.4935900">
        <ele>2440.1</ele>
        <time>2021-04-17T21:20:39Z</time>
      </trkpt>
      <trkpt lat="4.9812110" lon="-75.4935770">
        <ele>2440.3</ele>
        <time>2021-04-17T21:20:40Z</time>
      </trkpt>
      <trkpt lat="4.9812020" lon="-75.4935610">
        <ele>2440.5</ele>
        <time>2021-04-17T21:20:41Z</time>
      </trkpt>
      <trkpt lat="4.9811960" lon="-75.4935440">
        <ele>2440.6</ele>
        <time>2021-04-17T21:20:42Z</time>
      </trkpt>
      <trkpt lat="4.9811880" lon="-75.4935280">
        <ele>2440.8</ele>
        <time>2021-04-17T21:20:43Z</time>
      </trkpt>
      <trkpt lat="4.9811790" lon="-75.4935130">
        <ele>2441.0</ele>
        <time>2021-04-17T21:20:44Z</time>
      </trkpt>
      <trkpt lat="4.9811680" lon="-75.4934990">
        <ele>2441.1</ele>
        <time>2021-04-17T21:20:45Z</time>
      </trkpt>
      <trkpt lat="4.9811580" lon="-75.4934830">
        <ele>2441.3</ele>
        <time>2021-04-17T21:20:46Z</time>
      </trkpt>
      <trkpt lat="4.9811490" lon="-75.4934670">
        <ele>2441.5</ele>
        <time>2021-04-17T21:20:47Z</time>
      </trkpt>
      <trkpt lat="4.9811420" lon="-75.4934490">
        <ele>2441.7</ele>
        <time>2021-04-17T21:20:48Z</time>
      </trkpt>
      <trkpt lat="4.9811360" lon="-75.4934310">
        <ele>2441.9</ele>
        <time>2021-04-17T21:20:49Z</time>
      </trkpt>
      <trkpt lat="4.9811290" lon="-75.4934150">
        <ele>2442.1</ele>
        <time>2021-04-17T21:20:50Z</time>
      </trkpt>
      <trkpt lat="4.9811210" lon="-75.4933980">
        <ele>2442.3</ele>
        <time>2021-04-17T21:20:51Z</time>
      </trkpt>
      <trkpt lat="4.9811120" lon="-75.4933800">
        <ele>2442.5</ele>
        <time>2021-04-17T21:20:52Z</time>
      </trkpt>
      <trkpt lat="4.9811030" lon="-75.4933620">
        <ele>2442.7</ele>
        <time>2021-04-17T21:20:53Z</time>
      </trkpt>
      <trkpt lat="4.9810930" lon="-75.4933470">
        <ele>2442.9</ele>
        <time>2021-04-17T21:20:54Z</time>
      </trkpt>
      <trkpt lat="4.9810830" lon="-75.4933320">
        <ele>2443.1</ele>
        <time>2021-04-17T21:20:55Z</time>
      </trkpt>
      <trkpt lat="4.9810760" lon="-75.4933160">
        <ele>2443.3</ele>
        <time>2021-04-17T21:20:56Z</time>
      </trkpt>
      <trkpt lat="4.9810690" lon="-75.4933020">
        <ele>2443.4</ele>
        <time>2021-04-17T21:20:57Z</time>
      </trkpt>
      <trkpt lat="4.9810610" lon="-75.4932910">
        <ele>2443.6</ele>
        <time>2021-04-17T21:20:58Z</time>
      </trkpt>
      <trkpt lat="4.9810530" lon="-75.4932790">
        <ele>2443.7</ele>
        <time>2021-04-17T21:20:59Z</time>
      </trkpt>
      <trkpt lat="4.9810440" lon="-75.4932680">
        <ele>2443.9</ele>
        <time>2021-04-17T21:21:00Z</time>
      </trkpt>
      <trkpt lat="4.9810350" lon="-75.4932540">
        <ele>2444.1</ele>
        <time>2021-04-17T21:21:01Z</time>
      </trkpt>
      <trkpt lat="4.9810270" lon="-75.4932360">
        <ele>2444.3</ele>
        <time>2021-04-17T21:21:02Z</time>
      </trkpt>
      <trkpt lat="4.9810210" lon="-75.4932210">
        <ele>2444.4</ele>
        <time>2021-04-17T21:21:03Z</time>
      </trkpt>
      <trkpt lat="4.9810180" lon="-75.4932060">
        <ele>2444.6</ele>
        <time>2021-04-17T21:21:04Z</time>
      </trkpt>
      <trkpt lat="4.9810170" lon="-75.4931890">
        <ele>2444.8</ele>
        <time>2021-04-17T21:21:05Z</time>
      </trkpt>
      <trkpt lat="4.9810150" lon="-75.4931710">
        <ele>2444.9</ele>
        <time>2021-04-17T21:21:06Z</time>
      </trkpt>
      <trkpt lat="4.9810120" lon="-75.4931540">
        <ele>2445.1</ele>
        <time>2021-04-17T21:21:07Z</time>
      </trkpt>
      <trkpt lat="4.9810110" lon="-75.4931370">
        <ele>2445.3</ele>
        <time>2021-04-17T21:21:08Z</time>
      </trkpt>
      <trkpt lat="4.9810070" lon="-75.4931200">
        <ele>2445.4</ele>
        <time>2021-04-17T21:21:09Z</time>
      </trkpt>
      <trkpt lat="4.9810060" lon="-75.4931040">
        <ele>2445.6</ele>
        <time>2021-04-17T21:21:10Z</time>
      </trkpt>
      <trkpt lat="4.9810060" lon="-75.4930870">
        <ele>2445.7</ele>
        <time>2021-04-17T21:21:11Z</time>
      </trkpt>
      <trkpt lat="4.9810070" lon="-75.4930690">
        <ele>2445.8</ele>
        <time>2021-04-17T21:21:12Z</time>
      </trkpt>
      <trkpt lat="4.9810070" lon="-75.4930520">
        <ele>2445.9</ele>
        <time>2021-04-17T21:21:13Z</time>
      </trkpt>
      <trkpt lat="4.9810090" lon="-75.4930360">
        <ele>2446.1</ele>
        <time>2021-04-17T21:21:14Z</time>
      </trkpt>
      <trkpt lat="4.9810120" lon="-75.4930210">
        <ele>2446.2</ele>
        <time>2021-04-17T21:21:15Z</time>
      </trkpt>
      <trkpt lat="4.9810220" lon="-75.4930090">
        <ele>2446.3</ele>
        <time>2021-04-17T21:21:16Z</time>
      </trkpt>
      <trkpt lat="4.9810330" lon="-75.4929970">
        <ele>2446.4</ele>
        <time>2021-04-17T21:21:17Z</time>
      </trkpt>
      <trkpt lat="4.9810440" lon="-75.4929840">
        <ele>2446.5</ele>
        <time>2021-04-17T21:21:18Z</time>
      </trkpt>
      <trkpt lat="4.9810530" lon="-75.4929700">
        <ele>2446.6</ele>
        <time>2021-04-17T21:21:19Z</time>
      </trkpt>
      <trkpt lat="4.9810650" lon="-75.4929550">
        <ele>2446.7</ele>
        <time>2021-04-17T21:21:20Z</time>
      </trkpt>
      <trkpt lat="4.9810780" lon="-75.4929430">
        <ele>2446.8</ele>
        <time>2021-04-17T21:21:21Z</time>
      </trkpt>
      <trkpt lat="4.9810900" lon="-75.4929300">
        <ele>2446.9</ele>
        <time>2021-04-17T21:21:22Z</time>
      </trkpt>
      <trkpt lat="4.9811000" lon="-75.4929200">
        <ele>2447.0</ele>
        <time>2021-04-17T21:21:23Z</time>
      </trkpt>
      <trkpt lat="4.9811120" lon="-75.4929100">
        <ele>2447.1</ele>
        <time>2021-04-17T21:21:24Z</time>
      </trkpt>
      <trkpt lat="4.9811220" lon="-75.4929000">
        <ele>2447.2</ele>
        <time>2021-04-17T21:21:25Z</time>
      </trkpt>
      <trkpt lat="4.9811320" lon="-75.4928940">
        <ele>2447.3</ele>
        <time>2021-04-17T21:21:26Z</time>
      </trkpt>
      <trkpt lat="4.9811410" lon="-75.4928850">
        <ele>2447.4</ele>
        <time>2021-04-17T21:21:27Z</time>
      </trkpt>
      <trkpt lat="4.9811530" lon="-75.4928770">
        <ele>2447.5</ele>
        <time>2021-04-17T21:21:28Z</time>
      </trkpt>
      <trkpt lat="4.9811640" lon="-75.4928670">
        <ele>2447.6</ele>
        <time>2021-04-17T21:21:29Z</time>
      </trkpt>
      <trkpt lat="4.9811770" lon="-75.4928580">
        <ele>2447.7</ele>
        <time>2021-04-17T21:21:30Z</time>
      </trkpt>
      <trkpt lat="4.9811940" lon="-75.4928490">
        <ele>2447.8</ele>
        <time>2021-04-17T21:21:31Z</time>
      </trkpt>
      <trkpt lat="4.9812060" lon="-75.4928320">
        <ele>2448.0</ele>
        <time>2021-04-17T21:21:32Z</time>
      </trkpt>
      <trkpt lat="4.9812170" lon="-75.4928170">
        <ele>2448.1</ele>
        <time>2021-04-17T21:21:33Z</time>
      </trkpt>
      <trkpt lat="4.9812280" lon="-75.4928010">
        <ele>2448.2</ele>
        <time>2021-04-17T21:21:34Z</time>
      </trkpt>
      <trkpt lat="4.9812400" lon="-75.4927860">
        <ele>2448.4</ele>
        <time>2021-04-17T21:21:35Z</time>
      </trkpt>
      <trkpt lat="4.9812570" lon="-75.4927680">
        <ele>2448.5</ele>
        <time>2021-04-17T21:21:36Z</time>
      </trkpt>
      <trkpt lat="4.9812690" lon="-75.4927510">
        <ele>2448.7</ele>
        <time>2021-04-17T21:21:37Z</time>
      </trkpt>
      <trkpt lat="4.9812800" lon="-75.4927370">
        <ele>2448.8</ele>
        <time>2021-04-17T21:21:38Z</time>
      </trkpt>
      <trkpt lat="4.9812890" lon="-75.4927260">
        <ele>2448.9</ele>
        <time>2021-04-17T21:21:39Z</time>
      </trkpt>
      <trkpt lat="4.9813020" lon="-75.4927120">
        <ele>2449.0</ele>
        <time>2021-04-17T21:21:40Z</time>
      </trkpt>
      <trkpt lat="4.9813140" lon="-75.4926960">
        <ele>2449.2</ele>
        <time>2021-04-17T21:21:41Z</time>
      </trkpt>
      <trkpt lat="4.9813210" lon="-75.4926790">
        <ele>2449.3</ele>
        <time>2021-04-17T21:21:42Z</time>
      </trkpt>
      <trkpt lat="4.9813300" lon="-75.4926620">
        <ele>2449.4</ele>
        <time>2021-04-17T21:21:43Z</time>
      </trkpt>
      <trkpt lat="4.9813410" lon="-75.4926440">
        <ele>2449.6</ele>
        <time>2021-04-17T21:21:44Z</time>
      </trkpt>
      <trkpt lat="4.9813530" lon="-75.4926280">
        <ele>2449.7</ele>
        <time>2021-04-17T21:21:45Z</time>
      </trkpt>
      <trkpt lat="4.9813630" lon="-75.4926140">
        <ele>2449.8</ele>
        <time>2021-04-17T21:21:46Z</time>
      </trkpt>
      <trkpt lat="4.9813740" lon="-75.4925980">
        <ele>2449.9</ele>
        <time>2021-04-17T21:21:47Z</time>
      </trkpt>
      <trkpt lat="4.9813850" lon="-75.4925860">
        <ele>2450.0</ele>
        <time>2021-04-17T21:21:48Z</time>
      </trkpt>
      <trkpt lat="4.9813950" lon="-75.4925790">
        <ele>2450.1</ele>
        <time>2021-04-17T21:21:49Z</time>
      </trkpt>
      <trkpt lat="4.9814080" lon="-75.4925720">
        <ele>2450.2</ele>
        <time>2021-04-17T21:21:50Z</time>
      </trkpt>
      <trkpt lat="4.9814230" lon="-75.4925630">
        <ele>2450.3</ele>
        <time>2021-04-17T21:21:51Z</time>
      </trkpt>
      <trkpt lat="4.9814370" lon="-75.4925560">
        <ele>2450.4</ele>
        <time>2021-04-17T21:21:52Z</time>
      </trkpt>
      <trkpt lat="4.9814520" lon="-75.4925490">
        <ele>2450.6</ele>
        <time>2021-04-17T21:21:53Z</time>
      </trkpt>
      <trkpt lat="4.9814690" lon="-75.4925420">
        <ele>2450.7</ele>
        <time>2021-04-17T21:21:54Z</time>
      </trkpt>
      <trkpt lat="4.9814850" lon="-75.4925390">
        <ele>2450.8</ele>
        <time>2021-04-17T21:21:55Z</time>
      </trkpt>
      <trkpt lat="4.9814990" lon="-75.4925360">
        <ele>2450.9</ele>
        <time>2021-04-17T21:21:56Z</time>
      </trkpt>
      <trkpt lat="4.9815150" lon="-75.4925320">
        <ele>2451.0</ele>
        <time>2021-04-17T21:21:57Z</time>
      </trkpt>
      <trkpt lat="4.9815290" lon="-75.4925280">
        <ele>2451.1</ele>
        <time>2021-04-17T21:21:58Z</time>
      </trkpt>
      <trkpt lat="4.9815420" lon="-75.4925210">
        <ele>2451.2</ele>
        <time>2021-04-17T21:21:59Z</time>
      </trkpt>
      <trkpt lat="4.9815560" lon="-75.4925140">
        <ele>2451.3</ele>
        <time>2021-04-17T21:22:00Z</time>
      </trkpt>
      <trkpt lat="4.9815700" lon="-75.4925080">
        <ele>2451.5</ele>
        <time>2021-04-17T21:22:01Z</time>
      </trkpt>
      <trkpt lat="4.9815840" lon="-75.4924990">
        <ele>2451.6</ele>
        <time>2021-04-17T21:22:02Z</time>
      </trkpt>
      <trkpt lat="4.9815950" lon="-75.4924880">
        <ele>2451.7</ele>
        <time>2021-04-17T21:22:03Z</time>
      </trkpt>
      <trkpt lat="4.9816070" lon="-75.4924790">
        <ele>2451.8</ele>
        <time>2021-04-17T21:22:04Z</time>
      </trkpt>
      <trkpt lat="4.9816210" lon="-75.4924690">
        <ele>2452.0</ele>
        <time>2021-04-17T21:22:05Z</time>
      </trkpt>
      <trkpt lat="4.9816350" lon="-75.4924600">
        <ele>2452.1</ele>
        <time>2021-04-17T21:22:06Z</time>
      </trkpt>
      <trkpt lat="4.9816460" lon="-75.4924500">
        <ele>2452.2</ele>
        <time>2021-04-17T21:22:07Z</time>
      </trkpt>
      <trkpt lat="4.9816580" lon="-75.4924390">
        <ele>2452.3</ele>
        <time>2021-04-17T21:22:08Z</time>
      </trkpt>
      <trkpt lat="4.9816710" lon="-75.4924270">
        <ele>2452.5</ele>
        <time>2021-04-17T21:22:09Z</time>
      </trkpt>
      <trkpt lat="4.9816820" lon="-75.4924160">
        <ele>2452.6</ele>
        <time>2021-04-17T21:22:10Z</time>
      </trkpt>
      <trkpt lat="4.9816950" lon="-75.4924040">
        <ele>2452.8</ele>
        <time>2021-04-17T21:22:11Z</time>
      </trkpt>
      <trkpt lat="4.9817070" lon="-75.4923940">
        <ele>2452.9</ele>
        <time>2021-04-17T21:22:12Z</time>
      </trkpt>
      <trkpt lat="4.9817220" lon="-75.4923850">
        <ele>2453.0</ele>
        <time>2021-04-17T21:22:13Z</time>
      </trkpt>
      <trkpt lat="4.9817340" lon="-75.4923740">
        <ele>2453.2</ele>
        <time>2021-04-17T21:22:14Z</time>
      </trkpt>
      <trkpt lat="4.9817460" lon="-75.4923600">
        <ele>2453.3</ele>
        <time>2021-04-17T21:22:15Z</time>
      </trkpt>
      <trkpt lat="4.9817550" lon="-75.4923480">
        <ele>2453.5</ele>
        <time>2021-04-17T21:22:16Z</time>
      </trkpt>
      <trkpt lat="4.9817650" lon="-75.4923350">
        <ele>2453.6</ele>
        <time>2021-04-17T21:22:17Z</time>
      </trkpt>
      <trkpt lat="4.9817810" lon="-75.4923240">
        <ele>2453.8</ele>
        <time>2021-04-17T21:22:18Z</time>
      </trkpt>
      <trkpt lat="4.9817970" lon="-75.4923120">
        <ele>2454.0</ele>
        <time>2021-04-17T21:22:19Z</time>
      </trkpt>
      <trkpt lat="4.9818130" lon="-75.4922980">
        <ele>2454.1</ele>
        <time>2021-04-17T21:22:20Z</time>
      </trkpt>
      <trkpt lat="4.9818250" lon="-75.4922850">
        <ele>2454.3</ele>
        <time>2021-04-17T21:22:21Z</time>
      </trkpt>
      <trkpt lat="4.9818390" lon="-75.4922720">
        <ele>2454.5</ele>
        <time>2021-04-17T21:22:22Z</time>
      </trkpt>
      <trkpt lat="4.9818500" lon="-75.4922590">
        <ele>2454.6</ele>
        <time>2021-04-17T21:22:23Z</time>
      </trkpt>
      <trkpt lat="4.9818620" lon="-75.4922460">
        <ele>2454.8</ele>
        <time>2021-04-17T21:22:24Z</time>
      </trkpt>
      <trkpt lat="4.9818810" lon="-75.4922330">
        <ele>2455.0</ele>
        <time>2021-04-17T21:22:25Z</time>
      </trkpt>
      <trkpt lat="4.9819010" lon="-75.4922240">
        <ele>2455.2</ele>
        <time>2021-04-17T21:22:26Z</time>
      </trkpt>
      <trkpt lat="4.9819210" lon="-75.4922170">
        <ele>2455.3</ele>
        <time>2021-04-17T21:22:27Z</time>
      </trkpt>
      <trkpt lat="4.9819410" lon="-75.4922090">
        <ele>2455.5</ele>
        <time>2021-04-17T21:22:28Z</time>
      </trkpt>
      <trkpt lat="4.9819570" lon="-75.4921990">
        <ele>2455.7</ele>
        <time>2021-04-17T21:22:29Z</time>
      </trkpt>
      <trkpt lat="4.9819710" lon="-75.4921850">
        <ele>2455.9</ele>
        <time>2021-04-17T21:22:30Z</time>
      </trkpt>
      <trkpt lat="4.9819840" lon="-75.4921690">
        <ele>2456.1</ele>
        <time>2021-04-17T21:22:31Z</time>
      </trkpt>
      <trkpt lat="4.9819960" lon="-75.4921540">
        <ele>2456.2</ele>
        <time>2021-04-17T21:22:32Z</time>
      </trkpt>
      <trkpt lat="4.9820100" lon="-75.4921390">
        <ele>2456.4</ele>
        <time>2021-04-17T21:22:33Z</time>
      </trkpt>
      <trkpt lat="4.9820250" lon="-75.4921260">
        <ele>2456.6</ele>
        <time>2021-04-17T21:22:34Z</time>
      </trkpt>
      <trkpt lat="4.9820440" lon="-75.4921150">
        <ele>2456.8</ele>
        <time>2021-04-17T21:22:35Z</time>
      </trkpt>
      <trkpt lat="4.9820630" lon="-75.4921010">
        <ele>2457.0</ele>
        <time>2021-04-17T21:22:36Z</time>
      </trkpt>
      <trkpt lat="4.9820800" lon="-75.4920890">
        <ele>2457.2</ele>
        <time>2021-04-17T21:22:37Z</time>
      </trkpt>
      <trkpt lat="4.9820970" lon="-75.4920780">
        <ele>2457.4</ele>
        <time>2021-04-17T21:22:38Z</time>
      </trkpt>
      <trkpt lat="4.9821150" lon="-75.4920690">
        <ele>2457.6</ele>
        <time>2021-04-17T21:22:39Z</time>
      </trkpt>
      <trkpt lat="4.9821290" lon="-75.4920600">
        <ele>2457.7</ele>
        <time>2021-04-17T21:22:40Z</time>
      </trkpt>
      <trkpt lat="4.9821420" lon="-75.4920520">
        <ele>2457.8</ele>
        <time>2021-04-17T21:22:41Z</time>
      </trkpt>
      <trkpt lat="4.9821570" lon="-75.4920440">
        <ele>2458.0</ele>
        <time>2021-04-17T21:22:42Z</time>
      </trkpt>
      <trkpt lat="4.9821720" lon="-75.4920350">
        <ele>2458.1</ele>
        <time>2021-04-17T21:22:43Z</time>
      </trkpt>
      <trkpt lat="4.9821910" lon="-75.4920230">
        <ele>2458.3</ele>
        <time>2021-04-17T21:22:44Z</time>
      </trkpt>
      <trkpt lat="4.9822090" lon="-75.4920130">
        <ele>2458.5</ele>
        <time>2021-04-17T21:22:45Z</time>
      </trkpt>
      <trkpt lat="4.9822280" lon="-75.4920010">
        <ele>2458.7</ele>
        <time>2021-04-17T21:22:46Z</time>
      </trkpt>
      <trkpt lat="4.9822420" lon="-75.4919940">
        <ele>2458.8</ele>
        <time>2021-04-17T21:22:47Z</time>
      </trkpt>
      <trkpt lat="4.9822560" lon="-75.4919830">
        <ele>2459.0</ele>
        <time>2021-04-17T21:22:48Z</time>
      </trkpt>
      <trkpt lat="4.9822700" lon="-75.4919730">
        <ele>2459.1</ele>
        <time>2021-04-17T21:22:49Z</time>
      </trkpt>
      <trkpt lat="4.9822840" lon="-75.4919630">
        <ele>2459.2</ele>
        <time>2021-04-17T21:22:50Z</time>
      </trkpt>
      <trkpt lat="4.9822970" lon="-75.4919500">
        <ele>2459.4</ele>
        <time>2021-04-17T21:22:51Z</time>
      </trkpt>
      <trkpt lat="4.9823110" lon="-75.4919430">
        <ele>2459.5</ele>
        <time>2021-04-17T21:22:52Z</time>
      </trkpt>
      <trkpt lat="4.9823260" lon="-75.4919370">
        <ele>2459.6</ele>
        <time>2021-04-17T21:22:53Z</time>
      </trkpt>
      <trkpt lat="4.9823380" lon="-75.4919300">
        <ele>2459.7</ele>
        <time>2021-04-17T21:22:54Z</time>
      </trkpt>
      <trkpt lat="4.9823510" lon="-75.4919220">
        <ele>2459.9</ele>
        <time>2021-04-17T21:22:55Z</time>
      </trkpt>
      <trkpt lat="4.9823660" lon="-75.4919150">
        <ele>2460.0</ele>
        <time>2021-04-17T21:22:56Z</time>
      </trkpt>
      <trkpt lat="4.9823840" lon="-75.4919090">
        <ele>2460.1</ele>
        <time>2021-04-17T21:22:57Z</time>
      </trkpt>
      <trkpt lat="4.9824000" lon="-75.4919010">
        <ele>2460.3</ele>
        <time>2021-04-17T21:22:58Z</time>
      </trkpt>
      <trkpt lat="4.9824150" lon="-75.4918910">
        <ele>2460.4</ele>
        <time>2021-04-17T21:22:59Z</time>
      </trkpt>
      <trkpt lat="4.9824280" lon="-75.4918820">
        <ele>2460.5</ele>
        <time>2021-04-17T21:23:00Z</time>
      </trkpt>
      <trkpt lat="4.9824430" lon="-75.4918770">
        <ele>2460.6</ele>
        <time>2021-04-17T21:23:01Z</time>
      </trkpt>
      <trkpt lat="4.9824580" lon="-75.4918700">
        <ele>2460.8</ele>
        <time>2021-04-17T21:23:02Z</time>
      </trkpt>
      <trkpt lat="4.9824740" lon="-75.4918610">
        <ele>2460.9</ele>
        <time>2021-04-17T21:23:03Z</time>
      </trkpt>
      <trkpt lat="4.9824910" lon="-75.4918510">
        <ele>2461.1</ele>
        <time>2021-04-17T21:23:04Z</time>
      </trkpt>
      <trkpt lat="4.9825100" lon="-75.4918400">
        <ele>2461.2</ele>
        <time>2021-04-17T21:23:05Z</time>
      </trkpt>
      <trkpt lat="4.9825270" lon="-75.4918300">
        <ele>2461.4</ele>
        <time>2021-04-17T21:23:06Z</time>
      </trkpt>
      <trkpt lat="4.9825430" lon="-75.4918200">
        <ele>2461.5</ele>
        <time>2021-04-17T21:23:07Z</time>
      </trkpt>
      <trkpt lat="4.9825610" lon="-75.4918100">
        <ele>2461.7</ele>
        <time>2021-04-17T21:23:08Z</time>
      </trkpt>
      <trkpt lat="4.9825780" lon="-75.4918000">
        <ele>2461.8</ele>
        <time>2021-04-17T21:23:09Z</time>
      </trkpt>
      <trkpt lat="4.9825940" lon="-75.4917910">
        <ele>2461.9</ele>
        <time>2021-04-17T21:23:10Z</time>
      </trkpt>
      <trkpt lat="4.9826070" lon="-75.4917840">
        <ele>2462.1</ele>
        <time>2021-04-17T21:23:11Z</time>
      </trkpt>
      <trkpt lat="4.9826180" lon="-75.4917730">
        <ele>2462.2</ele>
        <time>2021-04-17T21:23:12Z</time>
      </trkpt>
      <trkpt lat="4.9826280" lon="-75.4917620">
        <ele>2462.3</ele>
        <time>2021-04-17T21:23:13Z</time>
      </trkpt>
      <trkpt lat="4.9826360" lon="-75.4917500">
        <ele>2462.4</ele>
        <time>2021-04-17T21:23:14Z</time>
      </trkpt>
      <trkpt lat="4.9826440" lon="-75.4917390">
        <ele>2462.5</ele>
        <time>2021-04-17T21:23:15Z</time>
      </trkpt>
      <trkpt lat="4.9826530" lon="-75.4917290">
        <ele>2462.6</ele>
        <time>2021-04-17T21:23:16Z</time>
      </trkpt>
      <trkpt lat="4.9826650" lon="-75.4917200">
        <ele>2462.8</ele>
        <time>2021-04-17T21:23:17Z</time>
      </trkpt>
      <trkpt lat="4.9826730" lon="-75.4917130">
        <ele>2462.8</ele>
        <time>2021-04-17T21:23:18Z</time>
      </trkpt>
      <trkpt lat="4.9826830" lon="-75.4917060">
        <ele>2462.9</ele>
        <time>2021-04-17T21:23:19Z</time>
      </trkpt>
      <trkpt lat="4.9826970" lon="-75.4917020">
        <ele>2463.1</ele>
        <time>2021-04-17T21:23:20Z</time>
      </trkpt>
      <trkpt lat="4.9827090" lon="-75.4916960">
        <ele>2463.2</ele>
        <time>2021-04-17T21:23:21Z</time>
      </trkpt>
      <trkpt lat="4.9827200" lon="-75.4916860">
        <ele>2463.3</ele>
        <time>2021-04-17T21:23:22Z</time>
      </trkpt>
      <trkpt lat="4.9827310" lon="-75.4916750">
        <ele>2463.4</ele>
        <time>2021-04-17T21:23:23Z</time>
      </trkpt>
      <trkpt lat="4.9827410" lon="-75.4916640">
        <ele>2463.6</ele>
        <time>2021-04-17T21:23:24Z</time>
      </trkpt>
      <trkpt lat="4.9827540" lon="-75.4916510">
        <ele>2463.7</ele>
        <time>2021-04-17T21:23:25Z</time>
      </trkpt>
      <trkpt lat="4.9827650" lon="-75.4916360">
        <ele>2463.9</ele>
        <time>2021-04-17T21:23:26Z</time>
      </trkpt>
      <trkpt lat="4.9827770" lon="-75.4916240">
        <ele>2464.0</ele>
        <time>2021-04-17T21:23:27Z</time>
      </trkpt>
      <trkpt lat="4.9827900" lon="-75.4916140">
        <ele>2464.2</ele>
        <time>2021-04-17T21:23:28Z</time>
      </trkpt>
      <trkpt lat="4.9828050" lon="-75.4916010">
        <ele>2464.3</ele>
        <time>2021-04-17T21:23:29Z</time>
      </trkpt>
      <trkpt lat="4.9828190" lon="-75.4915880">
        <ele>2464.5</ele>
        <time>2021-04-17T21:23:30Z</time>
      </trkpt>
      <trkpt lat="4.9828310" lon="-75.4915760">
        <ele>2464.6</ele>
        <time>2021-04-17T21:23:31Z</time>
      </trkpt>
      <trkpt lat="4.9828430" lon="-75.4915640">
        <ele>2464.8</ele>
        <time>2021-04-17T21:23:32Z</time>
      </trkpt>
      <trkpt lat="4.9828530" lon="-75.4915520">
        <ele>2464.9</ele>
        <time>2021-04-17T21:23:33Z</time>
      </trkpt>
      <trkpt lat="4.9828660" lon="-75.4915380">
        <ele>2465.1</ele>
        <time>2021-04-17T21:23:34Z</time>
      </trkpt>
      <trkpt lat="4.9828780" lon="-75.4915260">
        <ele>2465.2</ele>
        <time>2021-04-17T21:23:35Z</time>
      </trkpt>
      <trkpt lat="4.9828900" lon="-75.4915150">
        <ele>2465.4</ele>
        <time>2021-04-17T21:23:36Z</time>
      </trkpt>
      <trkpt lat="4.9829100" lon="-75.4915030">
        <ele>2465.6</ele>
        <time>2021-04-17T21:23:37Z</time>
      </trkpt>
      <trkpt lat="4.9829270" lon="-75.4914910">
        <ele>2465.7</ele>
        <time>2021-04-17T21:23:38Z</time>
      </trkpt>
      <trkpt lat="4.9829440" lon="-75.4914760">
        <ele>2465.9</ele>
        <time>2021-04-17T21:23:39Z</time>
      </trkpt>
      <trkpt lat="4.9829610" lon="-75.4914650">
        <ele>2466.1</ele>
        <time>2021-04-17T21:23:40Z</time>
      </trkpt>
      <trkpt lat="4.9829770" lon="-75.4914510">
        <ele>2466.3</ele>
        <time>2021-04-17T21:23:41Z</time>
      </trkpt>
      <trkpt lat="4.9829930" lon="-75.4914380">
        <ele>2466.4</ele>
        <time>2021-04-17T21:23:42Z</time>
      </trkpt>
      <trkpt lat="4.9830090" lon="-75.4914290">
        <ele>2466.6</ele>
        <time>2021-04-17T21:23:43Z</time>
      </trkpt>
      <trkpt lat="4.9830210" lon="-75.4914150">
        <ele>2466.7</ele>
        <time>2021-04-17T21:23:44Z</time>
      </trkpt>
      <trkpt lat="4.9830350" lon="-75.4914000">
        <ele>2466.9</ele>
        <time>2021-04-17T21:23:45Z</time>
      </trkpt>
      <trkpt lat="4.9830540" lon="-75.4913860">
        <ele>2467.1</ele>
        <time>2021-04-17T21:23:46Z</time>
      </trkpt>
      <trkpt lat="4.9830710" lon="-75.4913740">
        <ele>2467.2</ele>
        <time>2021-04-17T21:23:47Z</time>
      </trkpt>
      <trkpt lat="4.9830900" lon="-75.4913640">
        <ele>2467.4</ele>
        <time>2021-04-17T21:23:48Z</time>
      </trkpt>
      <trkpt lat="4.9831080" lon="-75.4913550">
        <ele>2467.5</ele>
        <time>2021-04-17T21:23:49Z</time>
      </trkpt>
      <trkpt lat="4.9831240" lon="-75.4913450">
        <ele>2467.7</ele>
        <time>2021-04-17T21:23:50Z</time>
      </trkpt>
      <trkpt lat="4.9831380" lon="-75.4913370">
        <ele>2467.8</ele>
        <time>2021-04-17T21:23:51Z</time>
      </trkpt>
      <trkpt lat="4.9831520" lon="-75.4913280">
        <ele>2468.0</ele>
        <time>2021-04-17T21:23:52Z</time>
      </trkpt>
      <trkpt lat="4.9831660" lon="-75.4913200">
        <ele>2468.1</ele>
        <time>2021-04-17T21:23:53Z</time>
      </trkpt>
      <trkpt lat="4.9831810" lon="-75.4913140">
        <ele>2468.2</ele>
        <time>2021-04-17T21:23:54Z</time>
      </trkpt>
      <trkpt lat="4.9831960" lon="-75.4913060">
        <ele>2468.4</ele>
        <time>2021-04-17T21:23:55Z</time>
      </trkpt>
      <trkpt lat="4.9832120" lon="-75.4913000">
        <ele>2468.5</ele>
        <time>2021-04-17T21:23:56Z</time>
      </trkpt>
      <trkpt lat="4.9832250" lon="-75.4912930">
        <ele>2468.6</ele>
        <time>2021-04-17T21:23:57Z</time>
      </trkpt>
      <trkpt lat="4.9832480" lon="-75.4912850">
        <ele>2468.9</ele>
        <time>2021-04-17T21:23:58Z</time>
      </trkpt>
      <trkpt lat="4.9832690" lon="-75.4912790">
        <ele>2469.1</ele>
        <time>2021-04-17T21:23:59Z</time>
      </trkpt>
      <trkpt lat="4.9832870" lon="-75.4912710">
        <ele>2469.2</ele>
        <time>2021-04-17T21:24:00Z</time>
      </trkpt>
      <trkpt lat="4.9833030" lon="-75.4912640">
        <ele>2469.4</ele>
        <time>2021-04-17T21:24:01Z</time>
      </trkpt>
      <trkpt lat="4.9833170" lon="-75.4912580">
        <ele>2469.5</ele>
        <time>2021-04-17T21:24:02Z</time>
      </trkpt>
      <trkpt lat="4.9833300" lon="-75.4912490">
        <ele>2469.7</ele>
        <time>2021-04-17T21:24:03Z</time>
      </trkpt>
      <trkpt lat="4.9833440" lon="-75.4912380">
        <ele>2469.8</ele>
        <time>2021-04-17T21:24:04Z</time>
      </trkpt>
      <trkpt lat="4.9833590" lon="-75.4912280">
        <ele>2470.0</ele>
        <time>2021-04-17T21:24:05Z</time>
      </trkpt>
      <trkpt lat="4.9833750" lon="-75.4912200">
        <ele>2470.2</ele>
        <time>2021-04-17T21:24:06Z</time>
      </trkpt>
      <trkpt lat="4.9833940" lon="-75.4912120">
        <ele>2470.3</ele>
        <time>2021-04-17T21:24:07Z</time>
      </trkpt>
      <trkpt lat="4.9834110" lon="-75.4912040">
        <ele>2470.5</ele>
        <time>2021-04-17T21:24:08Z</time>
      </trkpt>
      <trkpt lat="4.9834300" lon="-75.4911940">
        <ele>2470.7</ele>
        <time>2021-04-17T21:24:09Z</time>
      </trkpt>
      <trkpt lat="4.9834500" lon="-75.4911830">
        <ele>2470.9</ele>
        <time>2021-04-17T21:24:10Z</time>
      </trkpt>
      <trkpt lat="4.9834670" lon="-75.4911750">
        <ele>2471.0</ele>
        <time>2021-04-17T21:24:11Z</time>
      </trkpt>
      <trkpt lat="4.9834830" lon="-75.4911700">
        <ele>2471.2</ele>
        <time>2021-04-17T21:24:12Z</time>
      </trkpt>
      <trkpt lat="4.9835010" lon="-75.4911660">
        <ele>2471.3</ele>
        <time>2021-04-17T21:24:13Z</time>
      </trkpt>
      <trkpt lat="4.9835180" lon="-75.4911640">
        <ele>2471.5</ele>
        <time>2021-04-17T21:24:14Z</time>
      </trkpt>
      <trkpt lat="4.9835360" lon="-75.4911600">
        <ele>2471.6</ele>
        <time>2021-04-17T21:24:15Z</time>
      </trkpt>
      <trkpt lat="4.9835540" lon="-75.4911590">
        <ele>2471.8</ele>
        <time>2021-04-17T21:24:16Z</time>
      </trkpt>
      <trkpt lat="4.9835740" lon="-75.4911580">
        <ele>2472.0</ele>
        <time>2021-04-17T21:24:17Z</time>
      </trkpt>
      <trkpt lat="4.9835950" lon="-75.4911540">
        <ele>2472.2</ele>
        <time>2021-04-17T21:24:18Z</time>
      </trkpt>
      <trkpt lat="4.9836140" lon="-75.4911490">
        <ele>2472.3</ele>
        <time>2021-04-17T21:24:19Z</time>
      </trkpt>
      <trkpt lat="4.9836330" lon="-75.4911430">
        <ele>2472.5</ele>
        <time>2021-04-17T21:24:20Z</time>
      </trkpt>
      <trkpt lat="4.9836500" lon="-75.4911380">
        <ele>2472.6</ele>
        <time>2021-04-17T21:24:21Z</time>
      </trkpt>
      <trkpt lat="4.9836680" lon="-75.4911360">
        <ele>2472.8</ele>
        <time>2021-04-17T21:24:22Z</time>
      </trkpt>
      <trkpt lat="4.9836860" lon="-75.4911350">
        <ele>2472.9</ele>
        <time>2021-04-17T21:24:23Z</time>
      </trkpt>
      <trkpt lat="4.9837030" lon="-75.4911320">
        <ele>2473.0</ele>
        <time>2021-04-17T21:24:24Z</time>
      </trkpt>
      <trkpt lat="4.9837200" lon="-75.4911330">
        <ele>2473.2</ele>
        <time>2021-04-17T21:24:25Z</time>
      </trkpt>
      <trkpt lat="4.9837390" lon="-75.4911390">
        <ele>2473.3</ele>
        <time>2021-04-17T21:24:26Z</time>
      </trkpt>
      <trkpt lat="4.9837590" lon="-75.4911460">
        <ele>2473.4</ele>
        <time>2021-04-17T21:24:27Z</time>
      </trkpt>
      <trkpt lat="4.9837780" lon="-75.4911510">
        <ele>2473.5</ele>
        <time>2021-04-17T21:24:28Z</time>
      </trkpt>
      <trkpt lat="4.9837980" lon="-75.4911540">
        <ele>2473.6</ele>
        <time>2021-04-17T21:24:29Z</time>
      </trkpt>
      <trkpt lat="4.9838160" lon="-75.4911590">
        <ele>2473.7</ele>
        <time>2021-04-17T21:24:30Z</time>
      </trkpt>
      <trkpt lat="4.9838310" lon="-75.4911710">
        <ele>2473.8</ele>
        <time>2021-04-17T21:24:31Z</time>
      </trkpt>
      <trkpt lat="4.9838490" lon="-75.4911770">
        <ele>2473.9</ele>
        <time>2021-04-17T21:24:32Z</time>
      </trkpt>
      <trkpt lat="4.9838650" lon="-75.4911820">
        <ele>2474.0</ele>
        <time>2021-04-17T21:24:33Z</time>
      </trkpt>
      <trkpt lat="4.9838810" lon="-75.4911870">
        <ele>2474.1</ele>
        <time>2021-04-17T21:24:34Z</time>
      </trkpt>
      <trkpt lat="4.9838970" lon="-75.4911940">
        <ele>2474.1</ele>
        <time>2021-04-17T21:24:35Z</time>
      </trkpt>
      <trkpt lat="4.9839100" lon="-75.4912030">
        <ele>2474.2</ele>
        <time>2021-04-17T21:24:36Z</time>
      </trkpt>
      <trkpt lat="4.9839200" lon="-75.4912190">
        <ele>2474.2</ele>
        <time>2021-04-17T21:24:37Z</time>
      </trkpt>
      <trkpt lat="4.9839310" lon="-75.4912320">
        <ele>2474.3</ele>
        <time>2021-04-17T21:24:38Z</time>
      </trkpt>
      <trkpt lat="4.9839420" lon="-75.4912460">
        <ele>2474.3</ele>
        <time>2021-04-17T21:24:39Z</time>
      </trkpt>
      <trkpt lat="4.9839510" lon="-75.4912610">
        <ele>2474.4</ele>
        <time>2021-04-17T21:24:40Z</time>
      </trkpt>
      <trkpt lat="4.9839620" lon="-75.4912750">
        <ele>2474.4</ele>
        <time>2021-04-17T21:24:41Z</time>
      </trkpt>
      <trkpt lat="4.9839740" lon="-75.4912880">
        <ele>2474.5</ele>
        <time>2021-04-17T21:24:42Z</time>
      </trkpt>
      <trkpt lat="4.9839880" lon="-75.4913020">
        <ele>2474.5</ele>
        <time>2021-04-17T21:24:43Z</time>
      </trkpt>
      <trkpt lat="4.9840000" lon="-75.4913160">
        <ele>2474.5</ele>
        <time>2021-04-17T21:24:44Z</time>
      </trkpt>
      <trkpt lat="4.9840150" lon="-75.4913320">
        <ele>2474.6</ele>
        <time>2021-04-17T21:24:45Z</time>
      </trkpt>
      <trkpt lat="4.9840330" lon="-75.4913470">
        <ele>2474.6</ele>
        <time>2021-04-17T21:24:46Z</time>
      </trkpt>
      <trkpt lat="4.9840520" lon="-75.4913620">
        <ele>2474.6</ele>
        <time>2021-04-17T21:24:47Z</time>
      </trkpt>
      <trkpt lat="4.9840730" lon="-75.4913770">
        <ele>2474.7</ele>
        <time>2021-04-17T21:24:48Z</time>
      </trkpt>
      <trkpt lat="4.9840910" lon="-75.4913930">
        <ele>2474.7</ele>
        <time>2021-04-17T21:24:49Z</time>
      </trkpt>
      <trkpt lat="4.9841030" lon="-75.4914200">
        <ele>2474.7</ele>
        <time>2021-04-17T21:24:50Z</time>
      </trkpt>
      <trkpt lat="4.9841180" lon="-75.4914420">
        <ele>2474.7</ele>
        <time>2021-04-17T21:24:51Z</time>
      </trkpt>
      <trkpt lat="4.9841300" lon="-75.4914660">
        <ele>2474.8</ele>
        <time>2021-04-17T21:24:52Z</time>
      </trkpt>
      <trkpt lat="4.9841470" lon="-75.4914860">
        <ele>2474.8</ele>
        <time>2021-04-17T21:24:53Z</time>
      </trkpt>
      <trkpt lat="4.9841670" lon="-75.4915020">
        <ele>2474.8</ele>
        <time>2021-04-17T21:24:54Z</time>
      </trkpt>
      <trkpt lat="4.9841900" lon="-75.4915150">
        <ele>2474.9</ele>
        <time>2021-04-17T21:24:55Z</time>
      </trkpt>
      <trkpt lat="4.9842090" lon="-75.4915270">
        <ele>2474.9</ele>
        <time>2021-04-17T21:24:56Z</time>
      </trkpt>
      <trkpt lat="4.9842280" lon="-75.4915310">
        <ele>2474.9</ele>
        <time>2021-04-17T21:24:57Z</time>
      </trkpt>
      <trkpt lat="4.9842480" lon="-75.4915300">
        <ele>2474.9</ele>
        <time>2021-04-17T21:24:58Z</time>
      </trkpt>
      <trkpt lat="4.9842640" lon="-75.4915320">
        <ele>2475.0</ele>
        <time>2021-04-17T21:24:59Z</time>
      </trkpt>
      <trkpt lat="4.9842760" lon="-75.4915370">
        <ele>2475.0</ele>
        <time>2021-04-17T21:25:00Z</time>
      </trkpt>
      <trkpt lat="4.9842800" lon="-75.4915370">
        <ele>2475.0</ele>
        <time>2021-04-17T21:25:01Z</time>
      </trkpt>
      <trkpt lat="4.9842820" lon="-75.4915340">
        <ele>2474.9</ele>
        <time>2021-04-17T21:25:02Z</time>
      </trkpt>
      <trkpt lat="4.9842830" lon="-75.4915310">
        <ele>2474.9</ele>
        <time>2021-04-17T21:25:03Z</time>
      </trkpt>
      <trkpt lat="4.9842830" lon="-75.4915280">
        <ele>2474.9</ele>
        <time>2021-04-17T21:25:04Z</time>
      </trkpt>
      <trkpt lat="4.9844420" lon="-75.4915790">
        <ele>2473.6</ele>
        <time>2021-04-17T21:25:55Z</time>
      </trkpt>
      <trkpt lat="4.9844690" lon="-75.4915950">
        <ele>2473.3</ele>
        <time>2021-04-17T21:25:56Z</time>
      </trkpt>
      <trkpt lat="4.9844950" lon="-75.4916100">
        <ele>2473.0</ele>
        <time>2021-04-17T21:25:57Z</time>
      </trkpt>
      <trkpt lat="4.9845230" lon="-75.4916240">
        <ele>2472.7</ele>
        <time>2021-04-17T21:25:58Z</time>
      </trkpt>
      <trkpt lat="4.9845530" lon="-75.4916420">
        <ele>2472.3</ele>
        <time>2021-04-17T21:25:59Z</time>
      </trkpt>
      <trkpt lat="4.9845840" lon="-75.4916640">
        <ele>2471.9</ele>
        <time>2021-04-17T21:26:00Z</time>
      </trkpt>
      <trkpt lat="4.9846180" lon="-75.4916880">
        <ele>2471.5</ele>
        <time>2021-04-17T21:26:01Z</time>
      </trkpt>
      <trkpt lat="4.9846540" lon="-75.4917170">
        <ele>2470.9</ele>
        <time>2021-04-17T21:26:02Z</time>
      </trkpt>
      <trkpt lat="4.9846970" lon="-75.4917460">
        <ele>2470.3</ele>
        <time>2021-04-17T21:26:03Z</time>
      </trkpt>
      <trkpt lat="4.9847470" lon="-75.4917750">
        <ele>2469.6</ele>
        <time>2021-04-17T21:26:04Z</time>
      </trkpt>
      <trkpt lat="4.9847990" lon="-75.4918070">
        <ele>2468.9</ele>
        <time>2021-04-17T21:26:05Z</time>
      </trkpt>
      <trkpt lat="4.9848570" lon="-75.4918420">
        <ele>2468.1</ele>
        <time>2021-04-17T21:26:06Z</time>
      </trkpt>
      <trkpt lat="4.9849190" lon="-75.4918770">
        <ele>2467.4</ele>
        <time>2021-04-17T21:26:07Z</time>
      </trkpt>
      <trkpt lat="4.9849890" lon="-75.4919100">
        <ele>2466.6</ele>
        <time>2021-04-17T21:26:08Z</time>
      </trkpt>
      <trkpt lat="4.9850680" lon="-75.4919300">
        <ele>2465.9</ele>
        <time>2021-04-17T21:26:09Z</time>
      </trkpt>
      <trkpt lat="4.9851500" lon="-75.4919320">
        <ele>2465.1</ele>
        <time>2021-04-17T21:26:10Z</time>
      </trkpt>
      <trkpt lat="4.9852320" lon="-75.4919270">
        <ele>2464.3</ele>
        <time>2021-04-17T21:26:11Z</time>
      </trkpt>
      <trkpt lat="4.9853150" lon="-75.4919240">
        <ele>2463.5</ele>
        <time>2021-04-17T21:26:12Z</time>
      </trkpt>
      <trkpt lat="4.9853990" lon="-75.4919310">
        <ele>2462.6</ele>
        <time>2021-04-17T21:26:13Z</time>
      </trkpt>
      <trkpt lat="4.9854850" lon="-75.4919410">
        <ele>2461.6</ele>
        <time>2021-04-17T21:26:14Z</time>
      </trkpt>
      <trkpt lat="4.9855730" lon="-75.4919500">
        <ele>2460.5</ele>
        <time>2021-04-17T21:26:15Z</time>
      </trkpt>
      <trkpt lat="4.9856650" lon="-75.4919710">
        <ele>2459.3</ele>
        <time>2021-04-17T21:26:16Z</time>
      </trkpt>
      <trkpt lat="4.9857540" lon="-75.4920090">
        <ele>2458.3</ele>
        <time>2021-04-17T21:26:17Z</time>
      </trkpt>
      <trkpt lat="4.9858350" lon="-75.4920690">
        <ele>2457.3</ele>
        <time>2021-04-17T21:26:18Z</time>
      </trkpt>
      <trkpt lat="4.9859030" lon="-75.4921500">
        <ele>2456.6</ele>
        <time>2021-04-17T21:26:19Z</time>
      </trkpt>
      <trkpt lat="4.9859700" lon="-75.4922300">
        <ele>2456.0</ele>
        <time>2021-04-17T21:26:20Z</time>
      </trkpt>
      <trkpt lat="4.9860420" lon="-75.4923030">
        <ele>2455.3</ele>
        <time>2021-04-17T21:26:21Z</time>
      </trkpt>
      <trkpt lat="4.9861150" lon="-75.4923720">
        <ele>2454.6</ele>
        <time>2021-04-17T21:26:22Z</time>
      </trkpt>
      <trkpt lat="4.9861900" lon="-75.4924400">
        <ele>2453.7</ele>
        <time>2021-04-17T21:26:23Z</time>
      </trkpt>
      <trkpt lat="4.9862590" lon="-75.4925070">
        <ele>2452.8</ele>
        <time>2021-04-17T21:26:24Z</time>
      </trkpt>
      <trkpt lat="4.9863150" lon="-75.4925720">
        <ele>2451.9</ele>
        <time>2021-04-17T21:26:25Z</time>
      </trkpt>
      <trkpt lat="4.9863600" lon="-75.4926340">
        <ele>2451.0</ele>
        <time>2021-04-17T21:26:26Z</time>
      </trkpt>
      <trkpt lat="4.9863790" lon="-75.4926890">
        <ele>2450.3</ele>
        <time>2021-04-17T21:26:27Z</time>
      </trkpt>
      <trkpt lat="4.9863810" lon="-75.4927410">
        <ele>2449.7</ele>
        <time>2021-04-17T21:26:28Z</time>
      </trkpt>
      <trkpt lat="4.9863510" lon="-75.4927960">
        <ele>2448.9</ele>
        <time>2021-04-17T21:26:29Z</time>
      </trkpt>
      <trkpt lat="4.9863130" lon="-75.4928600">
        <ele>2447.9</ele>
        <time>2021-04-17T21:26:30Z</time>
      </trkpt>
      <trkpt lat="4.9862620" lon="-75.4929380">
        <ele>2446.6</ele>
        <time>2021-04-17T21:26:31Z</time>
      </trkpt>
      <trkpt lat="4.9862050" lon="-75.4930270">
        <ele>2445.1</ele>
        <time>2021-04-17T21:26:32Z</time>
      </trkpt>
      <trkpt lat="4.9861400" lon="-75.4931140">
        <ele>2443.6</ele>
        <time>2021-04-17T21:26:33Z</time>
      </trkpt>
      <trkpt lat="4.9860750" lon="-75.4931980">
        <ele>2442.3</ele>
        <time>2021-04-17T21:26:34Z</time>
      </trkpt>
      <trkpt lat="4.9860260" lon="-75.4932790">
        <ele>2441.3</ele>
        <time>2021-04-17T21:26:35Z</time>
      </trkpt>
      <trkpt lat="4.9859850" lon="-75.4933730">
        <ele>2440.1</ele>
        <time>2021-04-17T21:26:36Z</time>
      </trkpt>
      <trkpt lat="4.9859490" lon="-75.4934610">
        <ele>2439.1</ele>
        <time>2021-04-17T21:26:37Z</time>
      </trkpt>
      <trkpt lat="4.9859290" lon="-75.4935330">
        <ele>2438.3</ele>
        <time>2021-04-17T21:26:38Z</time>
      </trkpt>
      <trkpt lat="4.9859950" lon="-75.4935830">
        <ele>2437.5</ele>
        <time>2021-04-17T21:26:39Z</time>
      </trkpt>
      <trkpt lat="4.9860880" lon="-75.4936030">
        <ele>2436.4</ele>
        <time>2021-04-17T21:26:40Z</time>
      </trkpt>
      <trkpt lat="4.9861700" lon="-75.4935980">
        <ele>2435.4</ele>
        <time>2021-04-17T21:26:41Z</time>
      </trkpt>
      <trkpt lat="4.9862500" lon="-75.4935820">
        <ele>2434.5</ele>
        <time>2021-04-17T21:26:42Z</time>
      </trkpt>
      <trkpt lat="4.9863290" lon="-75.4935760">
        <ele>2433.6</ele>
        <time>2021-04-17T21:26:43Z</time>
      </trkpt>
      <trkpt lat="4.9864140" lon="-75.4935950">
        <ele>2432.6</ele>
        <time>2021-04-17T21:26:44Z</time>
      </trkpt>
      <trkpt lat="4.9865000" lon="-75.4936270">
        <ele>2431.6</ele>
        <time>2021-04-17T21:26:45Z</time>
      </trkpt>
      <trkpt lat="4.9865800" lon="-75.4936770">
        <ele>2430.5</ele>
        <time>2021-04-17T21:26:46Z</time>
      </trkpt>
      <trkpt lat="4.9866580" lon="-75.4937380">
        <ele>2429.4</ele>
        <time>2021-04-17T21:26:47Z</time>
      </trkpt>
      <trkpt lat="4.9867300" lon="-75.4937960">
        <ele>2428.3</ele>
        <time>2021-04-17T21:26:48Z</time>
      </trkpt>
      <trkpt lat="4.9868050" lon="-75.4938240">
        <ele>2427.4</ele>
        <time>2021-04-17T21:26:49Z</time>
      </trkpt>
      <trkpt lat="4.9868800" lon="-75.4938160">
        <ele>2426.4</ele>
        <time>2021-04-17T21:26:50Z</time>
      </trkpt>
      <trkpt lat="4.9869430" lon="-75.4937630">
        <ele>2425.3</ele>
        <time>2021-04-17T21:26:51Z</time>
      </trkpt>
      <trkpt lat="4.9869920" lon="-75.4937020">
        <ele>2424.3</ele>
        <time>2021-04-17T21:26:52Z</time>
      </trkpt>
      <trkpt lat="4.9870540" lon="-75.4936340">
        <ele>2423.2</ele>
        <time>2021-04-17T21:26:53Z</time>
      </trkpt>
      <trkpt lat="4.9871270" lon="-75.4935900">
        <ele>2422.2</ele>
        <time>2021-04-17T21:26:54Z</time>
      </trkpt>
      <trkpt lat="4.9872170" lon="-75.4935820">
        <ele>2421.2</ele>
        <time>2021-04-17T21:26:55Z</time>
      </trkpt>
      <trkpt lat="4.9873070" lon="-75.4936060">
        <ele>2420.2</ele>
        <time>2021-04-17T21:26:56Z</time>
      </trkpt>
      <trkpt lat="4.9873930" lon="-75.4936380">
        <ele>2419.3</ele>
        <time>2021-04-17T21:26:57Z</time>
      </trkpt>
      <trkpt lat="4.9874810" lon="-75.4936450">
        <ele>2418.4</ele>
        <time>2021-04-17T21:26:58Z</time>
      </trkpt>
      <trkpt lat="4.9875660" lon="-75.4936310">
        <ele>2417.6</ele>
        <time>2021-04-17T21:26:59Z</time>
      </trkpt>
      <trkpt lat="4.9876250" lon="-75.4935670">
        <ele>2416.7</ele>
        <time>2021-04-17T21:27:00Z</time>
      </trkpt>
      <trkpt lat="4.9876660" lon="-75.4934970">
        <ele>2415.8</ele>
        <time>2021-04-17T21:27:01Z</time>
      </trkpt>
      <trkpt lat="4.9877000" lon="-75.4934210">
        <ele>2414.9</ele>
        <time>2021-04-17T21:27:02Z</time>
      </trkpt>
      <trkpt lat="4.9877410" lon="-75.4933500">
        <ele>2413.8</ele>
        <time>2021-04-17T21:27:03Z</time>
      </trkpt>
      <trkpt lat="4.9877940" lon="-75.4932940">
        <ele>2412.8</ele>
        <time>2021-04-17T21:27:04Z</time>
      </trkpt>
      <trkpt lat="4.9878540" lon="-75.4932600">
        <ele>2411.9</ele>
        <time>2021-04-17T21:27:05Z</time>
      </trkpt>
      <trkpt lat="4.9879220" lon="-75.4932570">
        <ele>2411.0</ele>
        <time>2021-04-17T21:27:06Z</time>
      </trkpt>
      <trkpt lat="4.9879810" lon="-75.4932890">
        <ele>2410.2</ele>
        <time>2021-04-17T21:27:07Z</time>
      </trkpt>
      <trkpt lat="4.9880250" lon="-75.4933480">
        <ele>2409.4</ele>
        <time>2021-04-17T21:27:08Z</time>
      </trkpt>
      <trkpt lat="4.9880550" lon="-75.4934190">
        <ele>2408.5</ele>
        <time>2021-04-17T21:27:09Z</time>
      </trkpt>
      <trkpt lat="4.9880780" lon="-75.4935000">
        <ele>2407.7</ele>
        <time>2021-04-17T21:27:10Z</time>
      </trkpt>
      <trkpt lat="4.9881030" lon="-75.4935870">
        <ele>2406.8</ele>
        <time>2021-04-17T21:27:11Z</time>
      </trkpt>
      <trkpt lat="4.9881410" lon="-75.4936720">
        <ele>2406.1</ele>
        <time>2021-04-17T21:27:12Z</time>
      </trkpt>
      <trkpt lat="4.9881930" lon="-75.4937490">
        <ele>2405.5</ele>
        <time>2021-04-17T21:27:13Z</time>
      </trkpt>
      <trkpt lat="4.9882520" lon="-75.4938180">
        <ele>2405.2</ele>
        <time>2021-04-17T21:27:14Z</time>
      </trkpt>
      <trkpt lat="4.9883090" lon="-75.4938850">
        <ele>2405.0</ele>
        <time>2021-04-17T21:27:15Z</time>
      </trkpt>
      <trkpt lat="4.9883660" lon="-75.4939510">
        <ele>2404.9</ele>
        <time>2021-04-17T21:27:16Z</time>
      </trkpt>
      <trkpt lat="4.9884220" lon="-75.4940130">
        <ele>2404.9</ele>
        <time>2021-04-17T21:27:17Z</time>
      </trkpt>
      <trkpt lat="4.9884810" lon="-75.4940640">
        <ele>2404.9</ele>
        <time>2021-04-17T21:27:18Z</time>
      </trkpt>
      <trkpt lat="4.9885440" lon="-75.4941050">
        <ele>2404.9</ele>
        <time>2021-04-17T21:27:19Z</time>
      </trkpt>
      <trkpt lat="4.9886070" lon="-75.4941390">
        <ele>2404.9</ele>
        <time>2021-04-17T21:27:20Z</time>
      </trkpt>
      <trkpt lat="4.9886680" lon="-75.4941720">
        <ele>2405.0</ele>
        <time>2021-04-17T21:27:21Z</time>
      </trkpt>
      <trkpt lat="4.9887280" lon="-75.4942020">
        <ele>2405.0</ele>
        <time>2021-04-17T21:27:22Z</time>
      </trkpt>
      <trkpt lat="4.9887900" lon="-75.4942280">
        <ele>2405.1</ele>
        <time>2021-04-17T21:27:23Z</time>
      </trkpt>
      <trkpt lat="4.9888510" lon="-75.4942530">
        <ele>2405.2</ele>
        <time>2021-04-17T21:27:24Z</time>
      </trkpt>
      <trkpt lat="4.9889120" lon="-75.4942780">
        <ele>2405.4</ele>
        <time>2021-04-17T21:27:25Z</time>
      </trkpt>
      <trkpt lat="4.9889700" lon="-75.4943030">
        <ele>2405.5</ele>
        <time>2021-04-17T21:27:26Z</time>
      </trkpt>
      <trkpt lat="4.9890240" lon="-75.4943330">
        <ele>2405.6</ele>
        <time>2021-04-17T21:27:27Z</time>
      </trkpt>
      <trkpt lat="4.9890750" lon="-75.4943640">
        <ele>2405.8</ele>
        <time>2021-04-17T21:27:28Z</time>
      </trkpt>
      <trkpt lat="4.9891230" lon="-75.4943930">
        <ele>2405.9</ele>
        <time>2021-04-17T21:27:29Z</time>
      </trkpt>
      <trkpt lat="4.9891690" lon="-75.4944210">
        <ele>2406.0</ele>
        <time>2021-04-17T21:27:30Z</time>
      </trkpt>
      <trkpt lat="4.9892130" lon="-75.4944450">
        <ele>2406.0</ele>
        <time>2021-04-17T21:27:31Z</time>
      </trkpt>
      <trkpt lat="4.9892590" lon="-75.4944660">
        <ele>2406.1</ele>
        <time>2021-04-17T21:27:32Z</time>
      </trkpt>
      <trkpt lat="4.9893050" lon="-75.4944860">
        <ele>2406.2</ele>
        <time>2021-04-17T21:27:33Z</time>
      </trkpt>
      <trkpt lat="4.9893500" lon="-75.4945050">
        <ele>2406.2</ele>
        <time>2021-04-17T21:27:34Z</time>
      </trkpt>
      <trkpt lat="4.9893970" lon="-75.4945190">
        <ele>2406.3</ele>
        <time>2021-04-17T21:27:35Z</time>
      </trkpt>
      <trkpt lat="4.9894460" lon="-75.4945260">
        <ele>2406.3</ele>
        <time>2021-04-17T21:27:36Z</time>
      </trkpt>
      <trkpt lat="4.9894950" lon="-75.4945270">
        <ele>2406.3</ele>
        <time>2021-04-17T21:27:37Z</time>
      </trkpt>
      <trkpt lat="4.9895440" lon="-75.4945260">
        <ele>2406.3</ele>
        <time>2021-04-17T21:27:38Z</time>
      </trkpt>
      <trkpt lat="4.9895920" lon="-75.4945270">
        <ele>2406.4</ele>
        <time>2021-04-17T21:27:39Z</time>
      </trkpt>
      <trkpt lat="4.9896390" lon="-75.4945290">
        <ele>2406.4</ele>
        <time>2021-04-17T21:27:40Z</time>
      </trkpt>
      <trkpt lat="4.9896860" lon="-75.4945310">
        <ele>2406.4</ele>
        <time>2021-04-17T21:27:41Z</time>
      </trkpt>
      <trkpt lat="4.9897330" lon="-75.4945330">
        <ele>2406.5</ele>
        <time>2021-04-17T21:27:42Z</time>
      </trkpt>
      <trkpt lat="4.9897800" lon="-75.4945370">
        <ele>2406.5</ele>
        <time>2021-04-17T21:27:43Z</time>
      </trkpt>
      <trkpt lat="4.9898250" lon="-75.4945480">
        <ele>2406.6</ele>
        <time>2021-04-17T21:27:44Z</time>
      </trkpt>
      <trkpt lat="4.9898700" lon="-75.4945600">
        <ele>2406.7</ele>
        <time>2021-04-17T21:27:45Z</time>
      </trkpt>
      <trkpt lat="4.9899150" lon="-75.4945700">
        <ele>2406.8</ele>
        <time>2021-04-17T21:27:46Z</time>
      </trkpt>
      <trkpt lat="4.9899600" lon="-75.4945790">
        <ele>2406.9</ele>
        <time>2021-04-17T21:27:47Z</time>
      </trkpt>
      <trkpt lat="4.9900040" lon="-75.4945840">
        <ele>2407.1</ele>
        <time>2021-04-17T21:27:48Z</time>
      </trkpt>
      <trkpt lat="4.9900460" lon="-75.4945880">
        <ele>2407.3</ele>
        <time>2021-04-17T21:27:49Z</time>
      </trkpt>
      <trkpt lat="4.9900880" lon="-75.4945910">
        <ele>2407.5</ele>
        <time>2021-04-17T21:27:50Z</time>
      </trkpt>
      <trkpt lat="4.9901290" lon="-75.4945920">
        <ele>2407.8</ele>
        <time>2021-04-17T21:27:51Z</time>
      </trkpt>
      <trkpt lat="4.9901640" lon="-75.4945930">
        <ele>2408.0</ele>
        <time>2021-04-17T21:27:52Z</time>
      </trkpt>
      <trkpt lat="4.9901960" lon="-75.4945950">
        <ele>2408.3</ele>
        <time>2021-04-17T21:27:53Z</time>
      </trkpt>
      <trkpt lat="4.9902260" lon="-75.4945960">
        <ele>2408.5</ele>
        <time>2021-04-17T21:27:54Z</time>
      </trkpt>
      <trkpt lat="4.9902530" lon="-75.4945980">
        <ele>2408.7</ele>
        <time>2021-04-17T21:27:55Z</time>
      </trkpt>
      <trkpt lat="4.9902780" lon="-75.4945970">
        <ele>2408.9</ele>
        <time>2021-04-17T21:27:56Z</time>
      </trkpt>
      <trkpt lat="4.9903020" lon="-75.4945990">
        <ele>2409.1</ele>
        <time>2021-04-17T21:27:57Z</time>
      </trkpt>
      <trkpt lat="4.9903260" lon="-75.4946030">
        <ele>2409.3</ele>
        <time>2021-04-17T21:27:58Z</time>
      </trkpt>
      <trkpt lat="4.9903500" lon="-75.4946070">
        <ele>2409.6</ele>
        <time>2021-04-17T21:27:59Z</time>
      </trkpt>
      <trkpt lat="4.9903740" lon="-75.4946090">
        <ele>2409.8</ele>
        <time>2021-04-17T21:28:00Z</time>
      </trkpt>
      <trkpt lat="4.9903980" lon="-75.4946110">
        <ele>2410.1</ele>
        <time>2021-04-17T21:28:01Z</time>
      </trkpt>
      <trkpt lat="4.9904220" lon="-75.4946120">
        <ele>2410.3</ele>
        <time>2021-04-17T21:28:02Z</time>
      </trkpt>
      <trkpt lat="4.9904450" lon="-75.4946160">
        <ele>2410.6</ele>
        <time>2021-04-17T21:28:03Z</time>
      </trkpt>
      <trkpt lat="4.9904690" lon="-75.4946180">
        <ele>2410.8</ele>
        <time>2021-04-17T21:28:04Z</time>
      </trkpt>
      <trkpt lat="4.9904930" lon="-75.4946180">
        <ele>2411.1</ele>
        <time>2021-04-17T21:28:05Z</time>
      </trkpt>
      <trkpt lat="4.9905180" lon="-75.4946190">
        <ele>2411.3</ele>
        <time>2021-04-17T21:28:06Z</time>
      </trkpt>
      <trkpt lat="4.9905420" lon="-75.4946190">
        <ele>2411.6</ele>
        <time>2021-04-17T21:28:07Z</time>
      </trkpt>
      <trkpt lat="4.9905670" lon="-75.4946200">
        <ele>2411.9</ele>
        <time>2021-04-17T21:28:08Z</time>
      </trkpt>
      <trkpt lat="4.9905910" lon="-75.4946200">
        <ele>2412.1</ele>
        <time>2021-04-17T21:28:09Z</time>
      </trkpt>
      <trkpt lat="4.9906150" lon="-75.4946210">
        <ele>2412.4</ele>
        <time>2021-04-17T21:28:10Z</time>
      </trkpt>
      <trkpt lat="4.9906370" lon="-75.4946230">
        <ele>2412.6</ele>
        <time>2021-04-17T21:28:11Z</time>
      </trkpt>
      <trkpt lat="4.9906600" lon="-75.4946270">
        <ele>2412.8</ele>
        <time>2021-04-17T21:28:12Z</time>
      </trkpt>
      <trkpt lat="4.9906820" lon="-75.4946330">
        <ele>2413.1</ele>
        <time>2021-04-17T21:28:13Z</time>
      </trkpt>
      <trkpt lat="4.9907020" lon="-75.4946420">
        <ele>2413.3</ele>
        <time>2021-04-17T21:28:14Z</time>
      </trkpt>
      <trkpt lat="4.9907230" lon="-75.4946530">
        <ele>2413.5</ele>
        <time>2021-04-17T21:28:15Z</time>
      </trkpt>
      <trkpt lat="4.9907450" lon="-75.4946640">
        <ele>2413.7</ele>
        <time>2021-04-17T21:28:16Z</time>
      </trkpt>
      <trkpt lat="4.9907670" lon="-75.4946750">
        <ele>2413.9</ele>
        <time>2021-04-17T21:28:17Z</time>
      </trkpt>
      <trkpt lat="4.9907890" lon="-75.4946840">
        <ele>2414.1</ele>
        <time>2021-04-17T21:28:18Z</time>
      </trkpt>
      <trkpt lat="4.9908080" lon="-75.4946950">
        <ele>2414.3</ele>
        <time>2021-04-17T21:28:19Z</time>
      </trkpt>
      <trkpt lat="4.9908260" lon="-75.4947060">
        <ele>2414.4</ele>
        <time>2021-04-17T21:28:20Z</time>
      </trkpt>
      <trkpt lat="4.9908450" lon="-75.4947140">
        <ele>2414.6</ele>
        <time>2021-04-17T21:28:21Z</time>
      </trkpt>
      <trkpt lat="4.9908660" lon="-75.4947190">
        <ele>2414.7</ele>
        <time>2021-04-17T21:28:22Z</time>
      </trkpt>
      <trkpt lat="4.9908880" lon="-75.4947230">
        <ele>2414.9</ele>
        <time>2021-04-17T21:28:23Z</time>
      </trkpt>
      <trkpt lat="4.9909110" lon="-75.4947280">
        <ele>2415.1</ele>
        <time>2021-04-17T21:28:24Z</time>
      </trkpt>
      <trkpt lat="4.9909310" lon="-75.4947380">
        <ele>2415.2</ele>
        <time>2021-04-17T21:28:25Z</time>
      </trkpt>
      <trkpt lat="4.9909480" lon="-75.4947500">
        <ele>2415.4</ele>
        <time>2021-04-17T21:28:26Z</time>
      </trkpt>
      <trkpt lat="4.9909650" lon="-75.4947650">
        <ele>2415.6</ele>
        <time>2021-04-17T21:28:27Z</time>
      </trkpt>
      <trkpt lat="4.9909830" lon="-75.4947790">
        <ele>2415.7</ele>
        <time>2021-04-17T21:28:28Z</time>
      </trkpt>
      <trkpt lat="4.9910000" lon="-75.4947910">
        <ele>2415.8</ele>
        <time>2021-04-17T21:28:29Z</time>
      </trkpt>
      <trkpt lat="4.9910160" lon="-75.4948020">
        <ele>2416.0</ele>
        <time>2021-04-17T21:28:30Z</time>
      </trkpt>
      <trkpt lat="4.9910300" lon="-75.4948130">
        <ele>2416.1</ele>
        <time>2021-04-17T21:28:31Z</time>
      </trkpt>
      <trkpt lat="4.9910460" lon="-75.4948240">
        <ele>2416.2</ele>
        <time>2021-04-17T21:28:32Z</time>
      </trkpt>
      <trkpt lat="4.9910640" lon="-75.4948330">
        <ele>2416.3</ele>
        <time>2021-04-17T21:28:33Z</time>
      </trkpt>
      <trkpt lat="4.9910810" lon="-75.4948430">
        <ele>2416.5</ele>
        <time>2021-04-17T21:28:34Z</time>
      </trkpt>
      <trkpt lat="4.9910970" lon="-75.4948510">
        <ele>2416.6</ele>
        <time>2021-04-17T21:28:35Z</time>
      </trkpt>
      <trkpt lat="4.9911120" lon="-75.4948570">
        <ele>2416.7</ele>
        <time>2021-04-17T21:28:36Z</time>
      </trkpt>
      <trkpt lat="4.9911280" lon="-75.4948630">
        <ele>2416.8</ele>
        <time>2021-04-17T21:28:37Z</time>
      </trkpt>
      <trkpt lat="4.9911440" lon="-75.4948700">
        <ele>2417.0</ele>
        <time>2021-04-17T21:28:38Z</time>
      </trkpt>
      <trkpt lat="4.9911600" lon="-75.4948770">
        <ele>2417.1</ele>
        <time>2021-04-17T21:28:39Z</time>
      </trkpt>
      <trkpt lat="4.9911750" lon="-75.4948830">
        <ele>2417.2</ele>
        <time>2021-04-17T21:28:40Z</time>
      </trkpt>
      <trkpt lat="4.9911890" lon="-75.4948890">
        <ele>2417.3</ele>
        <time>2021-04-17T21:28:41Z</time>
      </trkpt>
      <trkpt lat="4.9912060" lon="-75.4948960">
        <ele>2417.5</ele>
        <time>2021-04-17T21:28:42Z</time>
      </trkpt>
      <trkpt lat="4.9912220" lon="-75.4949050">
        <ele>2417.6</ele>
        <time>2021-04-17T21:28:43Z</time>
      </trkpt>
      <trkpt lat="4.9912390" lon="-75.4949150">
        <ele>2417.8</ele>
        <time>2021-04-17T21:28:44Z</time>
      </trkpt>
      <trkpt lat="4.9912570" lon="-75.4949250">
        <ele>2418.0</ele>
        <time>2021-04-17T21:28:45Z</time>
      </trkpt>
      <trkpt lat="4.9912740" lon="-75.4949320">
        <ele>2418.1</ele>
        <time>2021-04-17T21:28:46Z</time>
      </trkpt>
      <trkpt lat="4.9912900" lon="-75.4949390">
        <ele>2418.3</ele>
        <time>2021-04-17T21:28:47Z</time>
      </trkpt>
      <trkpt lat="4.9913060" lon="-75.4949430">
        <ele>2418.5</ele>
        <time>2021-04-17T21:28:48Z</time>
      </trkpt>
      <trkpt lat="4.9913200" lon="-75.4949440">
        <ele>2418.6</ele>
        <time>2021-04-17T21:28:49Z</time>
      </trkpt>
      <trkpt lat="4.9913360" lon="-75.4949460">
        <ele>2418.8</ele>
        <time>2021-04-17T21:28:50Z</time>
      </trkpt>
      <trkpt lat="4.9913500" lon="-75.4949490">
        <ele>2418.9</ele>
        <time>2021-04-17T21:28:51Z</time>
      </trkpt>
      <trkpt lat="4.9913650" lon="-75.4949530">
        <ele>2419.1</ele>
        <time>2021-04-17T21:28:52Z</time>
      </trkpt>
      <trkpt lat="4.9913800" lon="-75.4949610">
        <ele>2419.3</ele>
        <time>2021-04-17T21:28:53Z</time>
      </trkpt>
      <trkpt lat="4.9913940" lon="-75.4949670">
        <ele>2419.4</ele>
        <time>2021-04-17T21:28:54Z</time>
      </trkpt>
      <trkpt lat="4.9914100" lon="-75.4949730">
        <ele>2419.6</ele>
        <time>2021-04-17T21:28:55Z</time>
      </trkpt>
      <trkpt lat="4.9914260" lon="-75.4949810">
        <ele>2419.8</ele>
        <time>2021-04-17T21:28:56Z</time>
      </trkpt>
      <trkpt lat="4.9914400" lon="-75.4949910">
        <ele>2420.0</ele>
        <time>2021-04-17T21:28:57Z</time>
      </trkpt>
      <trkpt lat="4.9914530" lon="-75.4949970">
        <ele>2420.2</ele>
        <time>2021-04-17T21:28:58Z</time>
      </trkpt>
      <trkpt lat="4.9914660" lon="-75.4950030">
        <ele>2420.4</ele>
        <time>2021-04-17T21:28:59Z</time>
      </trkpt>
      <trkpt lat="4.9914800" lon="-75.4950110">
        <ele>2420.5</ele>
        <time>2021-04-17T21:29:00Z</time>
      </trkpt>
      <trkpt lat="4.9914960" lon="-75.4950180">
        <ele>2420.7</ele>
        <time>2021-04-17T21:29:01Z</time>
      </trkpt>
      <trkpt lat="4.9915110" lon="-75.4950260">
        <ele>2420.9</ele>
        <time>2021-04-17T21:29:02Z</time>
      </trkpt>
      <trkpt lat="4.9915260" lon="-75.4950330">
        <ele>2421.1</ele>
        <time>2021-04-17T21:29:03Z</time>
      </trkpt>
      <trkpt lat="4.9915420" lon="-75.4950410">
        <ele>2421.3</ele>
        <time>2021-04-17T21:29:04Z</time>
      </trkpt>
      <trkpt lat="4.9915600" lon="-75.4950490">
        <ele>2421.6</ele>
        <time>2021-04-17T21:29:05Z</time>
      </trkpt>
      <trkpt lat="4.9915790" lon="-75.4950550">
        <ele>2421.8</ele>
        <time>2021-04-17T21:29:06Z</time>
      </trkpt>
      <trkpt lat="4.9915990" lon="-75.4950570">
        <ele>2422.0</ele>
        <time>2021-04-17T21:29:07Z</time>
      </trkpt>
      <trkpt lat="4.9916190" lon="-75.4950600">
        <ele>2422.2</ele>
        <time>2021-04-17T21:29:08Z</time>
      </trkpt>
      <trkpt lat="4.9916400" lon="-75.4950600">
        <ele>2422.5</ele>
        <time>2021-04-17T21:29:09Z</time>
      </trkpt>
      <trkpt lat="4.9916600" lon="-75.4950560">
        <ele>2422.7</ele>
        <time>2021-04-17T21:29:10Z</time>
      </trkpt>
      <trkpt lat="4.9916790" lon="-75.4950480">
        <ele>2422.9</ele>
        <time>2021-04-17T21:29:11Z</time>
      </trkpt>
      <trkpt lat="4.9916940" lon="-75.4950420">
        <ele>2423.1</ele>
        <time>2021-04-17T21:29:12Z</time>
      </trkpt>
      <trkpt lat="4.9917090" lon="-75.4950330">
        <ele>2423.3</ele>
        <time>2021-04-17T21:29:13Z</time>
      </trkpt>
      <trkpt lat="4.9917240" lon="-75.4950250">
        <ele>2423.4</ele>
        <time>2021-04-17T21:29:14Z</time>
      </trkpt>
      <trkpt lat="4.9917370" lon="-75.4950180">
        <ele>2423.6</ele>
        <time>2021-04-17T21:29:15Z</time>
      </trkpt>
      <trkpt lat="4.9917490" lon="-75.4950070">
        <ele>2423.7</ele>
        <time>2021-04-17T21:29:16Z</time>
      </trkpt>
      <trkpt lat="4.9917610" lon="-75.4949940">
        <ele>2423.9</ele>
        <time>2021-04-17T21:29:17Z</time>
      </trkpt>
      <trkpt lat="4.9917720" lon="-75.4949830">
        <ele>2424.0</ele>
        <time>2021-04-17T21:29:18Z</time>
      </trkpt>
      <trkpt lat="4.9917810" lon="-75.4949700">
        <ele>2424.2</ele>
        <time>2021-04-17T21:29:19Z</time>
      </trkpt>
      <trkpt lat="4.9917900" lon="-75.4949590">
        <ele>2424.3</ele>
        <time>2021-04-17T21:29:20Z</time>
      </trkpt>
      <trkpt lat="4.9917980" lon="-75.4949450">
        <ele>2424.4</ele>
        <time>2021-04-17T21:29:21Z</time>
      </trkpt>
      <trkpt lat="4.9918040" lon="-75.4949340">
        <ele>2424.5</ele>
        <time>2021-04-17T21:29:22Z</time>
      </trkpt>
      <trkpt lat="4.9918100" lon="-75.4949210">
        <ele>2424.6</ele>
        <time>2021-04-17T21:29:23Z</time>
      </trkpt>
      <trkpt lat="4.9918150" lon="-75.4949090">
        <ele>2424.7</ele>
        <time>2021-04-17T21:29:24Z</time>
      </trkpt>
      <trkpt lat="4.9918270" lon="-75.4948950">
        <ele>2424.9</ele>
        <time>2021-04-17T21:29:25Z</time>
      </trkpt>
      <trkpt lat="4.9918380" lon="-75.4948810">
        <ele>2425.0</ele>
        <time>2021-04-17T21:29:26Z</time>
      </trkpt>
      <trkpt lat="4.9918560" lon="-75.4948610">
        <ele>2425.2</ele>
        <time>2021-04-17T21:29:27Z</time>
      </trkpt>
      <trkpt lat="4.9918760" lon="-75.4948430">
        <ele>2425.5</ele>
        <time>2021-04-17T21:29:28Z</time>
      </trkpt>
      <trkpt lat="4.9918880" lon="-75.4948320">
        <ele>2425.6</ele>
        <time>2021-04-17T21:29:29Z</time>
      </trkpt>
      <trkpt lat="4.9918990" lon="-75.4948200">
        <ele>2425.7</ele>
        <time>2021-04-17T21:29:30Z</time>
      </trkpt>
      <trkpt lat="4.9919210" lon="-75.4948030">
        <ele>2425.9</ele>
        <time>2021-04-17T21:29:31Z</time>
      </trkpt>
      <trkpt lat="4.9919430" lon="-75.4947870">
        <ele>2426.1</ele>
        <time>2021-04-17T21:29:32Z</time>
      </trkpt>
      <trkpt lat="4.9919660" lon="-75.4947670">
        <ele>2426.3</ele>
        <time>2021-04-17T21:29:33Z</time>
      </trkpt>
      <trkpt lat="4.9919860" lon="-75.4947520">
        <ele>2426.5</ele>
        <time>2021-04-17T21:29:34Z</time>
      </trkpt>
      <trkpt lat="4.9920060" lon="-75.4947440">
        <ele>2426.7</ele>
        <time>2021-04-17T21:29:35Z</time>
      </trkpt>
      <trkpt lat="4.9920280" lon="-75.4947380">
        <ele>2426.8</ele>
        <time>2021-04-17T21:29:36Z</time>
      </trkpt>
      <trkpt lat="4.9920480" lon="-75.4947370">
        <ele>2427.0</ele>
        <time>2021-04-17T21:29:37Z</time>
      </trkpt>
      <trkpt lat="4.9920690" lon="-75.4947350">
        <ele>2427.1</ele>
        <time>2021-04-17T21:29:38Z</time>
      </trkpt>
      <trkpt lat="4.9920920" lon="-75.4947290">
        <ele>2427.3</ele>
        <time>2021-04-17T21:29:39Z</time>
      </trkpt>
      <trkpt lat="4.9921160" lon="-75.4947260">
        <ele>2427.5</ele>
        <time>2021-04-17T21:29:40Z</time>
      </trkpt>
      <trkpt lat="4.9921380" lon="-75.4947250">
        <ele>2427.7</ele>
        <time>2021-04-17T21:29:41Z</time>
      </trkpt>
      <trkpt lat="4.9921620" lon="-75.4947240">
        <ele>2427.9</ele>
        <time>2021-04-17T21:29:42Z</time>
      </trkpt>
      <trkpt lat="4.9921840" lon="-75.4947200">
        <ele>2428.1</ele>
        <time>2021-04-17T21:29:43Z</time>
      </trkpt>
      <trkpt lat="4.9922040" lon="-75.4947140">
        <ele>2428.3</ele>
        <time>2021-04-17T21:29:44Z</time>
      </trkpt>
      <trkpt lat="4.9922260" lon="-75.4947090">
        <ele>2428.5</ele>
        <time>2021-04-17T21:29:45Z</time>
      </trkpt>
      <trkpt lat="4.9922480" lon="-75.4947060">
        <ele>2428.7</ele>
        <time>2021-04-17T21:29:46Z</time>
      </trkpt>
      <trkpt lat="4.9922690" lon="-75.4947070">
        <ele>2428.8</ele>
        <time>2021-04-17T21:29:47Z</time>
      </trkpt>
      <trkpt lat="4.9922920" lon="-75.4947090">
        <ele>2429.0</ele>
        <time>2021-04-17T21:29:48Z</time>
      </trkpt>
      <trkpt lat="4.9923140" lon="-75.4947120">
        <ele>2429.2</ele>
        <time>2021-04-17T21:29:49Z</time>
      </trkpt>
      <trkpt lat="4.9923330" lon="-75.4947150">
        <ele>2429.4</ele>
        <time>2021-04-17T21:29:50Z</time>
      </trkpt>
      <trkpt lat="4.9923540" lon="-75.4947210">
        <ele>2429.6</ele>
        <time>2021-04-17T21:29:51Z</time>
      </trkpt>
      <trkpt lat="4.9923740" lon="-75.4947280">
        <ele>2429.8</ele>
        <time>2021-04-17T21:29:52Z</time>
      </trkpt>
      <trkpt lat="4.9923920" lon="-75.4947380">
        <ele>2430.0</ele>
        <time>2021-04-17T21:29:53Z</time>
      </trkpt>
      <trkpt lat="4.9924110" lon="-75.4947460">
        <ele>2430.1</ele>
        <time>2021-04-17T21:29:54Z</time>
      </trkpt>
      <trkpt lat="4.9924300" lon="-75.4947590">
        <ele>2430.3</ele>
        <time>2021-04-17T21:29:55Z</time>
      </trkpt>
      <trkpt lat="4.9924490" lon="-75.4947700">
        <ele>2430.5</ele>
        <time>2021-04-17T21:29:56Z</time>
      </trkpt>
      <trkpt lat="4.9924670" lon="-75.4947830">
        <ele>2430.7</ele>
        <time>2021-04-17T21:29:57Z</time>
      </trkpt>
      <trkpt lat="4.9924840" lon="-75.4947970">
        <ele>2430.9</ele>
        <time>2021-04-17T21:29:58Z</time>
      </trkpt>
      <trkpt lat="4.9924990" lon="-75.4948120">
        <ele>2431.1</ele>
        <time>2021-04-17T21:29:59Z</time>
      </trkpt>
      <trkpt lat="4.9925150" lon="-75.4948270">
        <ele>2431.3</ele>
        <time>2021-04-17T21:30:00Z</time>
      </trkpt>
      <trkpt lat="4.9925320" lon="-75.4948380">
        <ele>2431.4</ele>
        <time>2021-04-17T21:30:01Z</time>
      </trkpt>
      <trkpt lat="4.9925490" lon="-75.4948530">
        <ele>2431.6</ele>
        <time>2021-04-17T21:30:02Z</time>
      </trkpt>
      <trkpt lat="4.9925650" lon="-75.4948670">
        <ele>2431.8</ele>
        <time>2021-04-17T21:30:03Z</time>
      </trkpt>
      <trkpt lat="4.9925790" lon="-75.4948820">
        <ele>2432.0</ele>
        <time>2021-04-17T21:30:04Z</time>
      </trkpt>
      <trkpt lat="4.9925930" lon="-75.4948950">
        <ele>2432.1</ele>
        <time>2021-04-17T21:30:05Z</time>
      </trkpt>
      <trkpt lat="4.9926080" lon="-75.4949070">
        <ele>2432.3</ele>
        <time>2021-04-17T21:30:06Z</time>
      </trkpt>
      <trkpt lat="4.9926250" lon="-75.4949200">
        <ele>2432.5</ele>
        <time>2021-04-17T21:30:07Z</time>
      </trkpt>
      <trkpt lat="4.9926400" lon="-75.4949340">
        <ele>2432.7</ele>
        <time>2021-04-17T21:30:08Z</time>
      </trkpt>
      <trkpt lat="4.9926520" lon="-75.4949470">
        <ele>2432.8</ele>
        <time>2021-04-17T21:30:09Z</time>
      </trkpt>
      <trkpt lat="4.9926640" lon="-75.4949630">
        <ele>2433.0</ele>
        <time>2021-04-17T21:30:10Z</time>
      </trkpt>
      <trkpt lat="4.9926730" lon="-75.4949790">
        <ele>2433.2</ele>
        <time>2021-04-17T21:30:11Z</time>
      </trkpt>
      <trkpt lat="4.9926810" lon="-75.4949950">
        <ele>2433.3</ele>
        <time>2021-04-17T21:30:12Z</time>
      </trkpt>
      <trkpt lat="4.9926870" lon="-75.4950140">
        <ele>2433.5</ele>
        <time>2021-04-17T21:30:13Z</time>
      </trkpt>
      <trkpt lat="4.9926900" lon="-75.4950330">
        <ele>2433.7</ele>
        <time>2021-04-17T21:30:14Z</time>
      </trkpt>
      <trkpt lat="4.9926950" lon="-75.4950520">
        <ele>2433.9</ele>
        <time>2021-04-17T21:30:15Z</time>
      </trkpt>
      <trkpt lat="4.9927030" lon="-75.4950680">
        <ele>2434.1</ele>
        <time>2021-04-17T21:30:16Z</time>
      </trkpt>
      <trkpt lat="4.9927090" lon="-75.4950880">
        <ele>2434.3</ele>
        <time>2021-04-17T21:30:17Z</time>
      </trkpt>
      <trkpt lat="4.9927160" lon="-75.4951060">
        <ele>2434.5</ele>
        <time>2021-04-17T21:30:18Z</time>
      </trkpt>
      <trkpt lat="4.9927200" lon="-75.4951250">
        <ele>2434.7</ele>
        <time>2021-04-17T21:30:19Z</time>
      </trkpt>
      <trkpt lat="4.9927200" lon="-75.4951490">
        <ele>2435.0</ele>
        <time>2021-04-17T21:30:20Z</time>
      </trkpt>
      <trkpt lat="4.9927230" lon="-75.4951680">
        <ele>2435.1</ele>
        <time>2021-04-17T21:30:21Z</time>
      </trkpt>
      <trkpt lat="4.9927270" lon="-75.4951870">
        <ele>2435.3</ele>
        <time>2021-04-17T21:30:22Z</time>
      </trkpt>
      <trkpt lat="4.9927330" lon="-75.4952030">
        <ele>2435.5</ele>
        <time>2021-04-17T21:30:23Z</time>
      </trkpt>
      <trkpt lat="4.9927360" lon="-75.4952220">
        <ele>2435.7</ele>
        <time>2021-04-17T21:30:24Z</time>
      </trkpt>
      <trkpt lat="4.9927390" lon="-75.4952390">
        <ele>2435.8</ele>
        <time>2021-04-17T21:30:25Z</time>
      </trkpt>
      <trkpt lat="4.9927460" lon="-75.4952490">
        <ele>2435.9</ele>
        <time>2021-04-17T21:30:26Z</time>
      </trkpt>
      <trkpt lat="4.9927560" lon="-75.4952600">
        <ele>2436.1</ele>
        <time>2021-04-17T21:30:27Z</time>
      </trkpt>
      <trkpt lat="4.9927660" lon="-75.4952730">
        <ele>2436.2</ele>
        <time>2021-04-17T21:30:28Z</time>
      </trkpt>
      <trkpt lat="4.9927730" lon="-75.4952940">
        <ele>2436.4</ele>
        <time>2021-04-17T21:30:29Z</time>
      </trkpt>
      <trkpt lat="4.9927810" lon="-75.4953060">
        <ele>2436.6</ele>
        <time>2021-04-17T21:30:30Z</time>
      </trkpt>
      <trkpt lat="4.9927880" lon="-75.4953250">
        <ele>2436.8</ele>
        <time>2021-04-17T21:30:31Z</time>
      </trkpt>
      <trkpt lat="4.9927960" lon="-75.4953390">
        <ele>2436.9</ele>
        <time>2021-04-17T21:30:32Z</time>
      </trkpt>
      <trkpt lat="4.9928020" lon="-75.4953540">
        <ele>2437.1</ele>
        <time>2021-04-17T21:30:33Z</time>
      </trkpt>
      <trkpt lat="4.9928080" lon="-75.4953690">
        <ele>2437.2</ele>
        <time>2021-04-17T21:30:34Z</time>
      </trkpt>
      <trkpt lat="4.9928100" lon="-75.4953860">
        <ele>2437.3</ele>
        <time>2021-04-17T21:30:35Z</time>
      </trkpt>
      <trkpt lat="4.9928080" lon="-75.4954080">
        <ele>2437.5</ele>
        <time>2021-04-17T21:30:36Z</time>
      </trkpt>
      <trkpt lat="4.9928080" lon="-75.4954270">
        <ele>2437.6</ele>
        <time>2021-04-17T21:30:37Z</time>
      </trkpt>
      <trkpt lat="4.9928080" lon="-75.4954460">
        <ele>2437.8</ele>
        <time>2021-04-17T21:30:38Z</time>
      </trkpt>
      <trkpt lat="4.9928050" lon="-75.4954630">
        <ele>2437.9</ele>
        <time>2021-04-17T21:30:39Z</time>
      </trkpt>
      <trkpt lat="4.9928000" lon="-75.4954820">
        <ele>2438.0</ele>
        <time>2021-04-17T21:30:40Z</time>
      </trkpt>
      <trkpt lat="4.9927950" lon="-75.4954990">
        <ele>2438.2</ele>
        <time>2021-04-17T21:30:41Z</time>
      </trkpt>
      <trkpt lat="4.9927890" lon="-75.4955150">
        <ele>2438.3</ele>
        <time>2021-04-17T21:30:42Z</time>
      </trkpt>
      <trkpt lat="4.9927840" lon="-75.4955310">
        <ele>2438.4</ele>
        <time>2021-04-17T21:30:43Z</time>
      </trkpt>
      <trkpt lat="4.9927810" lon="-75.4955470">
        <ele>2438.5</ele>
        <time>2021-04-17T21:30:44Z</time>
      </trkpt>
      <trkpt lat="4.9927780" lon="-75.4955640">
        <ele>2438.6</ele>
        <time>2021-04-17T21:30:45Z</time>
      </trkpt>
      <trkpt lat="4.9927740" lon="-75.4955790">
        <ele>2438.7</ele>
        <time>2021-04-17T21:30:46Z</time>
      </trkpt>
      <trkpt lat="4.9927710" lon="-75.4955950">
        <ele>2438.9</ele>
        <time>2021-04-17T21:30:47Z</time>
      </trkpt>
      <trkpt lat="4.9927690" lon="-75.4956110">
        <ele>2439.0</ele>
        <time>2021-04-17T21:30:48Z</time>
      </trkpt>
      <trkpt lat="4.9927680" lon="-75.4956260">
        <ele>2439.1</ele>
        <time>2021-04-17T21:30:49Z</time>
      </trkpt>
      <trkpt lat="4.9927640" lon="-75.4956420">
        <ele>2439.3</ele>
        <time>2021-04-17T21:30:50Z</time>
      </trkpt>
      <trkpt lat="4.9927590" lon="-75.4956600">
        <ele>2439.4</ele>
        <time>2021-04-17T21:30:51Z</time>
      </trkpt>
      <trkpt lat="4.9927530" lon="-75.4956790">
        <ele>2439.6</ele>
        <time>2021-04-17T21:30:52Z</time>
      </trkpt>
      <trkpt lat="4.9927480" lon="-75.4956980">
        <ele>2439.8</ele>
        <time>2021-04-17T21:30:53Z</time>
      </trkpt>
      <trkpt lat="4.9927460" lon="-75.4957170">
        <ele>2439.9</ele>
        <time>2021-04-17T21:30:54Z</time>
      </trkpt>
      <trkpt lat="4.9927470" lon="-75.4957370">
        <ele>2440.1</ele>
        <time>2021-04-17T21:30:55Z</time>
      </trkpt>
      <trkpt lat="4.9927480" lon="-75.4957550">
        <ele>2440.3</ele>
        <time>2021-04-17T21:30:56Z</time>
      </trkpt>
      <trkpt lat="4.9927510" lon="-75.4957720">
        <ele>2440.4</ele>
        <time>2021-04-17T21:30:57Z</time>
      </trkpt>
      <trkpt lat="4.9927590" lon="-75.4957850">
        <ele>2440.6</ele>
        <time>2021-04-17T21:30:58Z</time>
      </trkpt>
      <trkpt lat="4.9927680" lon="-75.4957960">
        <ele>2440.7</ele>
        <time>2021-04-17T21:30:59Z</time>
      </trkpt>
      <trkpt lat="4.9927770" lon="-75.4958090">
        <ele>2440.9</ele>
        <time>2021-04-17T21:31:00Z</time>
      </trkpt>
      <trkpt lat="4.9927870" lon="-75.4958210">
        <ele>2441.0</ele>
        <time>2021-04-17T21:31:01Z</time>
      </trkpt>
      <trkpt lat="4.9927970" lon="-75.4958330">
        <ele>2441.2</ele>
        <time>2021-04-17T21:31:02Z</time>
      </trkpt>
      <trkpt lat="4.9928100" lon="-75.4958430">
        <ele>2441.3</ele>
        <time>2021-04-17T21:31:03Z</time>
      </trkpt>
      <trkpt lat="4.9928270" lon="-75.4958510">
        <ele>2441.5</ele>
        <time>2021-04-17T21:31:04Z</time>
      </trkpt>
      <trkpt lat="4.9928460" lon="-75.4958580">
        <ele>2441.7</ele>
        <time>2021-04-17T21:31:05Z</time>
      </trkpt>
      <trkpt lat="4.9928650" lon="-75.4958620">
        <ele>2441.9</ele>
        <time>2021-04-17T21:31:06Z</time>
      </trkpt>
      <trkpt lat="4.9928830" lon="-75.4958670">
        <ele>2442.1</ele>
        <time>2021-04-17T21:31:07Z</time>
      </trkpt>
      <trkpt lat="4.9929020" lon="-75.4958720">
        <ele>2442.3</ele>
        <time>2021-04-17T21:31:08Z</time>
      </trkpt>
      <trkpt lat="4.9929200" lon="-75.4958770">
        <ele>2442.5</ele>
        <time>2021-04-17T21:31:09Z</time>
      </trkpt>
      <trkpt lat="4.9929370" lon="-75.4958830">
        <ele>2442.7</ele>
        <time>2021-04-17T21:31:10Z</time>
      </trkpt>
      <trkpt lat="4.9929540" lon="-75.4958870">
        <ele>2442.8</ele>
        <time>2021-04-17T21:31:11Z</time>
      </trkpt>
      <trkpt lat="4.9929740" lon="-75.4958870">
        <ele>2443.0</ele>
        <time>2021-04-17T21:31:12Z</time>
      </trkpt>
      <trkpt lat="4.9929920" lon="-75.4958840">
        <ele>2443.2</ele>
        <time>2021-04-17T21:31:13Z</time>
      </trkpt>
      <trkpt lat="4.9930110" lon="-75.4958810">
        <ele>2443.4</ele>
        <time>2021-04-17T21:31:14Z</time>
      </trkpt>
      <trkpt lat="4.9930300" lon="-75.4958770">
        <ele>2443.6</ele>
        <time>2021-04-17T21:31:15Z</time>
      </trkpt>
      <trkpt lat="4.9930500" lon="-75.4958710">
        <ele>2443.8</ele>
        <time>2021-04-17T21:31:16Z</time>
      </trkpt>
      <trkpt lat="4.9930700" lon="-75.4958680">
        <ele>2444.0</ele>
        <time>2021-04-17T21:31:17Z</time>
      </trkpt>
      <trkpt lat="4.9930900" lon="-75.4958690">
        <ele>2444.2</ele>
        <time>2021-04-17T21:31:18Z</time>
      </trkpt>
      <trkpt lat="4.9931080" lon="-75.4958720">
        <ele>2444.4</ele>
        <time>2021-04-17T21:31:19Z</time>
      </trkpt>
      <trkpt lat="4.9931270" lon="-75.4958790">
        <ele>2444.6</ele>
        <time>2021-04-17T21:31:20Z</time>
      </trkpt>
      <trkpt lat="4.9931450" lon="-75.4958880">
        <ele>2444.8</ele>
        <time>2021-04-17T21:31:21Z</time>
      </trkpt>
      <trkpt lat="4.9931620" lon="-75.4958980">
        <ele>2444.9</ele>
        <time>2021-04-17T21:31:22Z</time>
      </trkpt>
      <trkpt lat="4.9931780" lon="-75.4959050">
        <ele>2445.1</ele>
        <time>2021-04-17T21:31:23Z</time>
      </trkpt>
      <trkpt lat="4.9931910" lon="-75.4959190">
        <ele>2445.3</ele>
        <time>2021-04-17T21:31:24Z</time>
      </trkpt>
      <trkpt lat="4.9932030" lon="-75.4959350">
        <ele>2445.4</ele>
        <time>2021-04-17T21:31:25Z</time>
      </trkpt>
      <trkpt lat="4.9932110" lon="-75.4959530">
        <ele>2445.6</ele>
        <time>2021-04-17T21:31:26Z</time>
      </trkpt>
      <trkpt lat="4.9932170" lon="-75.4959680">
        <ele>2445.7</ele>
        <time>2021-04-17T21:31:27Z</time>
      </trkpt>
      <trkpt lat="4.9932180" lon="-75.4959870">
        <ele>2445.9</ele>
        <time>2021-04-17T21:31:28Z</time>
      </trkpt>
      <trkpt lat="4.9932210" lon="-75.4960060">
        <ele>2446.1</ele>
        <time>2021-04-17T21:31:29Z</time>
      </trkpt>
      <trkpt lat="4.9932230" lon="-75.4960230">
        <ele>2446.2</ele>
        <time>2021-04-17T21:31:30Z</time>
      </trkpt>
      <trkpt lat="4.9932230" lon="-75.4960420">
        <ele>2446.4</ele>
        <time>2021-04-17T21:31:31Z</time>
      </trkpt>
      <trkpt lat="4.9932220" lon="-75.4960600">
        <ele>2446.5</ele>
        <time>2021-04-17T21:31:32Z</time>
      </trkpt>
      <trkpt lat="4.9932180" lon="-75.4960770">
        <ele>2446.6</ele>
        <time>2021-04-17T21:31:33Z</time>
      </trkpt>
      <trkpt lat="4.9932150" lon="-75.4960940">
        <ele>2446.8</ele>
        <time>2021-04-17T21:31:34Z</time>
      </trkpt>
      <trkpt lat="4.9932140" lon="-75.4961060">
        <ele>2446.9</ele>
        <time>2021-04-17T21:31:35Z</time>
      </trkpt>
      <trkpt lat="4.9932100" lon="-75.4961170">
        <ele>2447.0</ele>
        <time>2021-04-17T21:31:36Z</time>
      </trkpt>
      <trkpt lat="4.9932060" lon="-75.4961290">
        <ele>2447.1</ele>
        <time>2021-04-17T21:31:37Z</time>
      </trkpt>
      <trkpt lat="4.9932040" lon="-75.4961450">
        <ele>2447.2</ele>
        <time>2021-04-17T21:31:38Z</time>
      </trkpt>
      <trkpt lat="4.9932010" lon="-75.4961600">
        <ele>2447.3</ele>
        <time>2021-04-17T21:31:39Z</time>
      </trkpt>
      <trkpt lat="4.9932000" lon="-75.4961760">
        <ele>2447.4</ele>
        <time>2021-04-17T21:31:40Z</time>
      </trkpt>
      <trkpt lat="4.9931970" lon="-75.4961970">
        <ele>2447.6</ele>
        <time>2021-04-17T21:31:41Z</time>
      </trkpt>
      <trkpt lat="4.9931940" lon="-75.4962160">
        <ele>2447.7</ele>
        <time>2021-04-17T21:31:42Z</time>
      </trkpt>
      <trkpt lat="4.9931920" lon="-75.4962310">
        <ele>2447.8</ele>
        <time>2021-04-17T21:31:43Z</time>
      </trkpt>
      <trkpt lat="4.9931870" lon="-75.4962450">
        <ele>2447.9</ele>
        <time>2021-04-17T21:31:44Z</time>
      </trkpt>
      <trkpt lat="4.9931820" lon="-75.4962610">
        <ele>2448.1</ele>
        <time>2021-04-17T21:31:45Z</time>
      </trkpt>
      <trkpt lat="4.9931780" lon="-75.4962760">
        <ele>2448.2</ele>
        <time>2021-04-17T21:31:46Z</time>
      </trkpt>
      <trkpt lat="4.9931710" lon="-75.4962920">
        <ele>2448.3</ele>
        <time>2021-04-17T21:31:47Z</time>
      </trkpt>
      <trkpt lat="4.9931680" lon="-75.4963070">
        <ele>2448.4</ele>
        <time>2021-04-17T21:31:48Z</time>
      </trkpt>
      <trkpt lat="4.9931670" lon="-75.4963240">
        <ele>2448.5</ele>
        <time>2021-04-17T21:31:49Z</time>
      </trkpt>
      <trkpt lat="4.9931680" lon="-75.4963390">
        <ele>2448.6</ele>
        <time>2021-04-17T21:31:50Z</time>
      </trkpt>
      <trkpt lat="4.9931710" lon="-75.4963540">
        <ele>2448.7</ele>
        <time>2021-04-17T21:31:51Z</time>
      </trkpt>
      <trkpt lat="4.9931770" lon="-75.4963690">
        <ele>2448.9</ele>
        <time>2021-04-17T21:31:52Z</time>
      </trkpt>
      <trkpt lat="4.9931840" lon="-75.4963810">
        <ele>2449.0</ele>
        <time>2021-04-17T21:31:53Z</time>
      </trkpt>
      <trkpt lat="4.9931930" lon="-75.4963930">
        <ele>2449.1</ele>
        <time>2021-04-17T21:31:54Z</time>
      </trkpt>
      <trkpt lat="4.9932030" lon="-75.4964060">
        <ele>2449.2</ele>
        <time>2021-04-17T21:31:55Z</time>
      </trkpt>
      <trkpt lat="4.9932150" lon="-75.4964190">
        <ele>2449.3</ele>
        <time>2021-04-17T21:31:56Z</time>
      </trkpt>
      <trkpt lat="4.9932270" lon="-75.4964330">
        <ele>2449.5</ele>
        <time>2021-04-17T21:31:57Z</time>
      </trkpt>
      <trkpt lat="4.9932400" lon="-75.4964460">
        <ele>2449.6</ele>
        <time>2021-04-17T21:31:58Z</time>
      </trkpt>
      <trkpt lat="4.9932530" lon="-75.4964580">
        <ele>2449.7</ele>
        <time>2021-04-17T21:31:59Z</time>
      </trkpt>
      <trkpt lat="4.9932650" lon="-75.4964680">
        <ele>2449.9</ele>
        <time>2021-04-17T21:32:00Z</time>
      </trkpt>
      <trkpt lat="4.9932760" lon="-75.4964800">
        <ele>2450.0</ele>
        <time>2021-04-17T21:32:01Z</time>
      </trkpt>
      <trkpt lat="4.9932860" lon="-75.4964930">
        <ele>2450.1</ele>
        <time>2021-04-17T21:32:02Z</time>
      </trkpt>
      <trkpt lat="4.9932960" lon="-75.4965050">
        <ele>2450.3</ele>
        <time>2021-04-17T21:32:03Z</time>
      </trkpt>
      <trkpt lat="4.9933070" lon="-75.4965160">
        <ele>2450.4</ele>
        <time>2021-04-17T21:32:04Z</time>
      </trkpt>
      <trkpt lat="4.9933180" lon="-75.4965300">
        <ele>2450.6</ele>
        <time>2021-04-17T21:32:05Z</time>
      </trkpt>
      <trkpt lat="4.9933300" lon="-75.4965440">
        <ele>2450.7</ele>
        <time>2021-04-17T21:32:06Z</time>
      </trkpt>
      <trkpt lat="4.9933400" lon="-75.4965610">
        <ele>2450.9</ele>
        <time>2021-04-17T21:32:07Z</time>
      </trkpt>
      <trkpt lat="4.9933510" lon="-75.4965760">
        <ele>2451.1</ele>
        <time>2021-04-17T21:32:08Z</time>
      </trkpt>
      <trkpt lat="4.9933620" lon="-75.4965920">
        <ele>2451.3</ele>
        <time>2021-04-17T21:32:09Z</time>
      </trkpt>
      <trkpt lat="4.9933740" lon="-75.4966070">
        <ele>2451.5</ele>
        <time>2021-04-17T21:32:10Z</time>
      </trkpt>
      <trkpt lat="4.9933890" lon="-75.4966190">
        <ele>2451.6</ele>
        <time>2021-04-17T21:32:11Z</time>
      </trkpt>
      <trkpt lat="4.9934020" lon="-75.4966300">
        <ele>2451.8</ele>
        <time>2021-04-17T21:32:12Z</time>
      </trkpt>
      <trkpt lat="4.9934160" lon="-75.4966420">
        <ele>2452.0</ele>
        <time>2021-04-17T21:32:13Z</time>
      </trkpt>
      <trkpt lat="4.9934330" lon="-75.4966530">
        <ele>2452.2</ele>
        <time>2021-04-17T21:32:14Z</time>
      </trkpt>
      <trkpt lat="4.9934510" lon="-75.4966640">
        <ele>2452.4</ele>
        <time>2021-04-17T21:32:15Z</time>
      </trkpt>
      <trkpt lat="4.9934680" lon="-75.4966730">
        <ele>2452.6</ele>
        <time>2021-04-17T21:32:16Z</time>
      </trkpt>
      <trkpt lat="4.9934850" lon="-75.4966850">
        <ele>2452.8</ele>
        <time>2021-04-17T21:32:17Z</time>
      </trkpt>
      <trkpt lat="4.9935020" lon="-75.4966960">
        <ele>2453.0</ele>
        <time>2021-04-17T21:32:18Z</time>
      </trkpt>
      <trkpt lat="4.9935170" lon="-75.4967080">
        <ele>2453.2</ele>
        <time>2021-04-17T21:32:19Z</time>
      </trkpt>
      <trkpt lat="4.9935330" lon="-75.4967210">
        <ele>2453.4</ele>
        <time>2021-04-17T21:32:20Z</time>
      </trkpt>
      <trkpt lat="4.9935470" lon="-75.4967330">
        <ele>2453.6</ele>
        <time>2021-04-17T21:32:21Z</time>
      </trkpt>
      <trkpt lat="4.9935610" lon="-75.4967440">
        <ele>2453.7</ele>
        <time>2021-04-17T21:32:22Z</time>
      </trkpt>
      <trkpt lat="4.9935750" lon="-75.4967550">
        <ele>2453.9</ele>
        <time>2021-04-17T21:32:23Z</time>
      </trkpt>
      <trkpt lat="4.9935890" lon="-75.4967680">
        <ele>2454.1</ele>
        <time>2021-04-17T21:32:24Z</time>
      </trkpt>
      <trkpt lat="4.9936030" lon="-75.4967790">
        <ele>2454.2</ele>
        <time>2021-04-17T21:32:25Z</time>
      </trkpt>
      <trkpt lat="4.9936180" lon="-75.4967900">
        <ele>2454.4</ele>
        <time>2021-04-17T21:32:26Z</time>
      </trkpt>
      <trkpt lat="4.9936340" lon="-75.4968010">
        <ele>2454.6</ele>
        <time>2021-04-17T21:32:27Z</time>
      </trkpt>
      <trkpt lat="4.9936480" lon="-75.4968170">
        <ele>2454.8</ele>
        <time>2021-04-17T21:32:28Z</time>
      </trkpt>
      <trkpt lat="4.9936620" lon="-75.4968330">
        <ele>2455.1</ele>
        <time>2021-04-17T21:32:29Z</time>
      </trkpt>
      <trkpt lat="4.9936700" lon="-75.4968520">
        <ele>2455.3</ele>
        <time>2021-04-17T21:32:30Z</time>
      </trkpt>
      <trkpt lat="4.9936780" lon="-75.4968670">
        <ele>2455.4</ele>
        <time>2021-04-17T21:32:31Z</time>
      </trkpt>
      <trkpt lat="4.9936880" lon="-75.4968830">
        <ele>2455.6</ele>
        <time>2021-04-17T21:32:32Z</time>
      </trkpt>
      <trkpt lat="4.9936990" lon="-75.4968970">
        <ele>2455.8</ele>
        <time>2021-04-17T21:32:33Z</time>
      </trkpt>
      <trkpt lat="4.9937130" lon="-75.4969090">
        <ele>2456.0</ele>
        <time>2021-04-17T21:32:34Z</time>
      </trkpt>
      <trkpt lat="4.9937270" lon="-75.4969220">
        <ele>2456.2</ele>
        <time>2021-04-17T21:32:35Z</time>
      </trkpt>
      <trkpt lat="4.9937430" lon="-75.4969330">
        <ele>2456.4</ele>
        <time>2021-04-17T21:32:36Z</time>
      </trkpt>
      <trkpt lat="4.9937590" lon="-75.4969430">
        <ele>2456.5</ele>
        <time>2021-04-17T21:32:37Z</time>
      </trkpt>
      <trkpt lat="4.9937760" lon="-75.4969510">
        <ele>2456.7</ele>
        <time>2021-04-17T21:32:38Z</time>
      </trkpt>
      <trkpt lat="4.9937920" lon="-75.4969610">
        <ele>2456.9</ele>
        <time>2021-04-17T21:32:39Z</time>
      </trkpt>
      <trkpt lat="4.9938080" lon="-75.4969740">
        <ele>2457.1</ele>
        <time>2021-04-17T21:32:40Z</time>
      </trkpt>
      <trkpt lat="4.9938220" lon="-75.4969860">
        <ele>2457.2</ele>
        <time>2021-04-17T21:32:41Z</time>
      </trkpt>
      <trkpt lat="4.9938360" lon="-75.4970030">
        <ele>2457.4</ele>
        <time>2021-04-17T21:32:42Z</time>
      </trkpt>
      <trkpt lat="4.9938530" lon="-75.4970150">
        <ele>2457.6</ele>
        <time>2021-04-17T21:32:43Z</time>
      </trkpt>
      <trkpt lat="4.9938660" lon="-75.4970300">
        <ele>2457.7</ele>
        <time>2021-04-17T21:32:44Z</time>
      </trkpt>
      <trkpt lat="4.9938770" lon="-75.4970440">
        <ele>2457.9</ele>
        <time>2021-04-17T21:32:45Z</time>
      </trkpt>
      <trkpt lat="4.9938880" lon="-75.4970610">
        <ele>2458.0</ele>
        <time>2021-04-17T21:32:46Z</time>
      </trkpt>
      <trkpt lat="4.9938970" lon="-75.4970790">
        <ele>2458.1</ele>
        <time>2021-04-17T21:32:47Z</time>
      </trkpt>
      <trkpt lat="4.9939040" lon="-75.4970950">
        <ele>2458.3</ele>
        <time>2021-04-17T21:32:48Z</time>
      </trkpt>
      <trkpt lat="4.9939140" lon="-75.4971150">
        <ele>2458.4</ele>
        <time>2021-04-17T21:32:49Z</time>
      </trkpt>
      <trkpt lat="4.9939240" lon="-75.4971330">
        <ele>2458.5</ele>
        <time>2021-04-17T21:32:50Z</time>
      </trkpt>
      <trkpt lat="4.9939320" lon="-75.4971530">
        <ele>2458.6</ele>
        <time>2021-04-17T21:32:51Z</time>
      </trkpt>
      <trkpt lat="4.9939370" lon="-75.4971750">
        <ele>2458.8</ele>
        <time>2021-04-17T21:32:52Z</time>
      </trkpt>
      <trkpt lat="4.9939450" lon="-75.4971960">
        <ele>2458.9</ele>
        <time>2021-04-17T21:32:53Z</time>
      </trkpt>
      <trkpt lat="4.9939520" lon="-75.4972150">
        <ele>2459.0</ele>
        <time>2021-04-17T21:32:54Z</time>
      </trkpt>
      <trkpt lat="4.9939590" lon="-75.4972330">
        <ele>2459.1</ele>
        <time>2021-04-17T21:32:55Z</time>
      </trkpt>
      <trkpt lat="4.9939640" lon="-75.4972530">
        <ele>2459.2</ele>
        <time>2021-04-17T21:32:56Z</time>
      </trkpt>
      <trkpt lat="4.9939710" lon="-75.4972730">
        <ele>2459.3</ele>
        <time>2021-04-17T21:32:57Z</time>
      </trkpt>
      <trkpt lat="4.9939790" lon="-75.4972940">
        <ele>2459.4</ele>
        <time>2021-04-17T21:32:58Z</time>
      </trkpt>
      <trkpt lat="4.9939870" lon="-75.4973160">
        <ele>2459.4</ele>
        <time>2021-04-17T21:32:59Z</time>
      </trkpt>
      <trkpt lat="4.9939940" lon="-75.4973390">
        <ele>2459.5</ele>
        <time>2021-04-17T21:33:00Z</time>
      </trkpt>
      <trkpt lat="4.9940010" lon="-75.4973610">
        <ele>2459.6</ele>
        <time>2021-04-17T21:33:01Z</time>
      </trkpt>
      <trkpt lat="4.9940060" lon="-75.4973830">
        <ele>2459.7</ele>
        <time>2021-04-17T21:33:02Z</time>
      </trkpt>
      <trkpt lat="4.9940130" lon="-75.4974050">
        <ele>2459.8</ele>
        <time>2021-04-17T21:33:03Z</time>
      </trkpt>
      <trkpt lat="4.9940200" lon="-75.4974270">
        <ele>2459.9</ele>
        <time>2021-04-17T21:33:04Z</time>
      </trkpt>
      <trkpt lat="4.9940260" lon="-75.4974480">
        <ele>2460.0</ele>
        <time>2021-04-17T21:33:05Z</time>
      </trkpt>
      <trkpt lat="4.9940330" lon="-75.4974700">
        <ele>2460.1</ele>
        <time>2021-04-17T21:33:06Z</time>
      </trkpt>
      <trkpt lat="4.9940400" lon="-75.4974920">
        <ele>2460.2</ele>
        <time>2021-04-17T21:33:07Z</time>
      </trkpt>
      <trkpt lat="4.9940470" lon="-75.4975110">
        <ele>2460.1</ele>
        <time>2021-04-17T21:33:08Z</time>
      </trkpt>
      <trkpt lat="4.9940510" lon="-75.4975330">
        <ele>2460.1</ele>
        <time>2021-04-17T21:33:09Z</time>
      </trkpt>
      <trkpt lat="4.9940560" lon="-75.4975550">
        <ele>2460.1</ele>
        <time>2021-04-17T21:33:10Z</time>
      </trkpt>
      <trkpt lat="4.9940640" lon="-75.4975790">
        <ele>2460.1</ele>
        <time>2021-04-17T21:33:11Z</time>
      </trkpt>
      <trkpt lat="4.9940740" lon="-75.4976030">
        <ele>2460.1</ele>
        <time>2021-04-17T21:33:12Z</time>
      </trkpt>
      <trkpt lat="4.9940850" lon="-75.4976240">
        <ele>2460.0</ele>
        <time>2021-04-17T21:33:13Z</time>
      </trkpt>
      <trkpt lat="4.9940960" lon="-75.4976450">
        <ele>2460.0</ele>
        <time>2021-04-17T21:33:14Z</time>
      </trkpt>
      <trkpt lat="4.9941080" lon="-75.4976680">
        <ele>2460.0</ele>
        <time>2021-04-17T21:33:15Z</time>
      </trkpt>
      <trkpt lat="4.9941210" lon="-75.4976910">
        <ele>2460.0</ele>
        <time>2021-04-17T21:33:16Z</time>
      </trkpt>
      <trkpt lat="4.9941360" lon="-75.4977140">
        <ele>2460.0</ele>
        <time>2021-04-17T21:33:17Z</time>
      </trkpt>
      <trkpt lat="4.9941530" lon="-75.4977370">
        <ele>2460.0</ele>
        <time>2021-04-17T21:33:18Z</time>
      </trkpt>
      <trkpt lat="4.9941720" lon="-75.4977590">
        <ele>2459.9</ele>
        <time>2021-04-17T21:33:19Z</time>
      </trkpt>
      <trkpt lat="4.9941900" lon="-75.4977830">
        <ele>2459.9</ele>
        <time>2021-04-17T21:33:20Z</time>
      </trkpt>
      <trkpt lat="4.9942100" lon="-75.4978050">
        <ele>2459.9</ele>
        <time>2021-04-17T21:33:21Z</time>
      </trkpt>
      <trkpt lat="4.9942290" lon="-75.4978280">
        <ele>2459.9</ele>
        <time>2021-04-17T21:33:22Z</time>
      </trkpt>
      <trkpt lat="4.9942480" lon="-75.4978510">
        <ele>2459.9</ele>
        <time>2021-04-17T21:33:23Z</time>
      </trkpt>
      <trkpt lat="4.9942670" lon="-75.4978740">
        <ele>2459.9</ele>
        <time>2021-04-17T21:33:24Z</time>
      </trkpt>
      <trkpt lat="4.9942860" lon="-75.4978980">
        <ele>2459.9</ele>
        <time>2021-04-17T21:33:25Z</time>
      </trkpt>
      <trkpt lat="4.9943050" lon="-75.4979220">
        <ele>2459.8</ele>
        <time>2021-04-17T21:33:26Z</time>
      </trkpt>
      <trkpt lat="4.9943250" lon="-75.4979460">
        <ele>2459.8</ele>
        <time>2021-04-17T21:33:27Z</time>
      </trkpt>
      <trkpt lat="4.9943450" lon="-75.4979730">
        <ele>2459.8</ele>
        <time>2021-04-17T21:33:28Z</time>
      </trkpt>
      <trkpt lat="4.9943670" lon="-75.4980000">
        <ele>2459.8</ele>
        <time>2021-04-17T21:33:29Z</time>
      </trkpt>
      <trkpt lat="4.9943900" lon="-75.4980280">
        <ele>2459.7</ele>
        <time>2021-04-17T21:33:30Z</time>
      </trkpt>
      <trkpt lat="4.9944130" lon="-75.4980550">
        <ele>2459.7</ele>
        <time>2021-04-17T21:33:31Z</time>
      </trkpt>
      <trkpt lat="4.9944370" lon="-75.4980810">
        <ele>2459.6</ele>
        <time>2021-04-17T21:33:32Z</time>
      </trkpt>
      <trkpt lat="4.9944600" lon="-75.4981070">
        <ele>2459.6</ele>
        <time>2021-04-17T21:33:33Z</time>
      </trkpt>
      <trkpt lat="4.9944820" lon="-75.4981310">
        <ele>2459.5</ele>
        <time>2021-04-17T21:33:34Z</time>
      </trkpt>
      <trkpt lat="4.9945030" lon="-75.4981560">
        <ele>2459.4</ele>
        <time>2021-04-17T21:33:35Z</time>
      </trkpt>
      <trkpt lat="4.9945220" lon="-75.4981830">
        <ele>2459.4</ele>
        <time>2021-04-17T21:33:36Z</time>
      </trkpt>
      <trkpt lat="4.9945380" lon="-75.4982130">
        <ele>2459.3</ele>
        <time>2021-04-17T21:33:37Z</time>
      </trkpt>
      <trkpt lat="4.9945530" lon="-75.4982440">
        <ele>2459.2</ele>
        <time>2021-04-17T21:33:38Z</time>
      </trkpt>
      <trkpt lat="4.9945690" lon="-75.4982770">
        <ele>2459.1</ele>
        <time>2021-04-17T21:33:39Z</time>
      </trkpt>
      <trkpt lat="4.9945860" lon="-75.4983100">
        <ele>2459.0</ele>
        <time>2021-04-17T21:33:40Z</time>
      </trkpt>
      <trkpt lat="4.9946060" lon="-75.4983450">
        <ele>2458.9</ele>
        <time>2021-04-17T21:33:41Z</time>
      </trkpt>
      <trkpt lat="4.9946270" lon="-75.4983830">
        <ele>2458.8</ele>
        <time>2021-04-17T21:33:42Z</time>
      </trkpt>
      <trkpt lat="4.9946480" lon="-75.4984190">
        <ele>2458.6</ele>
        <time>2021-04-17T21:33:43Z</time>
      </trkpt>
      <trkpt lat="4.9946680" lon="-75.4984560">
        <ele>2458.5</ele>
        <time>2021-04-17T21:33:44Z</time>
      </trkpt>
      <trkpt lat="4.9946930" lon="-75.4984980">
        <ele>2458.3</ele>
        <time>2021-04-17T21:33:45Z</time>
      </trkpt>
      <trkpt lat="4.9947220" lon="-75.4985330">
        <ele>2458.1</ele>
        <time>2021-04-17T21:33:46Z</time>
      </trkpt>
      <trkpt lat="4.9947530" lon="-75.4985640">
        <ele>2458.0</ele>
        <time>2021-04-17T21:33:47Z</time>
      </trkpt>
      <trkpt lat="4.9947870" lon="-75.4985900">
        <ele>2457.8</ele>
        <time>2021-04-17T21:33:48Z</time>
      </trkpt>
      <trkpt lat="4.9948220" lon="-75.4986100">
        <ele>2457.7</ele>
        <time>2021-04-17T21:33:49Z</time>
      </trkpt>
      <trkpt lat="4.9948570" lon="-75.4986280">
        <ele>2457.5</ele>
        <time>2021-04-17T21:33:50Z</time>
      </trkpt>
      <trkpt lat="4.9948980" lon="-75.4986350">
        <ele>2457.3</ele>
        <time>2021-04-17T21:33:51Z</time>
      </trkpt>
      <trkpt lat="4.9949430" lon="-75.4986380">
        <ele>2457.1</ele>
        <time>2021-04-17T21:33:52Z</time>
      </trkpt>
      <trkpt lat="4.9949880" lon="-75.4986370">
        <ele>2456.9</ele>
        <time>2021-04-17T21:33:53Z</time>
      </trkpt>
      <trkpt lat="4.9950330" lon="-75.4986370">
        <ele>2456.6</ele>
        <time>2021-04-17T21:33:54Z</time>
      </trkpt>
      <trkpt lat="4.9950810" lon="-75.4986350">
        <ele>2456.2</ele>
        <time>2021-04-17T21:33:55Z</time>
      </trkpt>
      <trkpt lat="4.9951310" lon="-75.4986290">
        <ele>2455.8</ele>
        <time>2021-04-17T21:33:56Z</time>
      </trkpt>
      <trkpt lat="4.9951810" lon="-75.4986210">
        <ele>2455.4</ele>
        <time>2021-04-17T21:33:57Z</time>
      </trkpt>
      <trkpt lat="4.9952320" lon="-75.4986160">
        <ele>2454.9</ele>
        <time>2021-04-17T21:33:58Z</time>
      </trkpt>
      <trkpt lat="4.9952880" lon="-75.4986160">
        <ele>2454.3</ele>
        <time>2021-04-17T21:33:59Z</time>
      </trkpt>
      <trkpt lat="4.9953500" lon="-75.4986200">
        <ele>2453.6</ele>
        <time>2021-04-17T21:34:00Z</time>
      </trkpt>
      <trkpt lat="4.9954170" lon="-75.4986260">
        <ele>2452.9</ele>
        <time>2021-04-17T21:34:01Z</time>
      </trkpt>
      <trkpt lat="4.9954870" lon="-75.4986290">
        <ele>2452.2</ele>
        <time>2021-04-17T21:34:02Z</time>
      </trkpt>
      <trkpt lat="4.9955590" lon="-75.4986230">
        <ele>2451.5</ele>
        <time>2021-04-17T21:34:03Z</time>
      </trkpt>
      <trkpt lat="4.9956340" lon="-75.4986200">
        <ele>2450.7</ele>
        <time>2021-04-17T21:34:04Z</time>
      </trkpt>
      <trkpt lat="4.9957130" lon="-75.4986250">
        <ele>2449.8</ele>
        <time>2021-04-17T21:34:05Z</time>
      </trkpt>
      <trkpt lat="4.9957960" lon="-75.4986280">
        <ele>2448.9</ele>
        <time>2021-04-17T21:34:06Z</time>
      </trkpt>
      <trkpt lat="4.9958810" lon="-75.4986280">
        <ele>2447.9</ele>
        <time>2021-04-17T21:34:07Z</time>
      </trkpt>
      <trkpt lat="4.9959680" lon="-75.4986330">
        <ele>2446.8</ele>
        <time>2021-04-17T21:34:08Z</time>
      </trkpt>
      <trkpt lat="4.9960580" lon="-75.4986360">
        <ele>2445.6</ele>
        <time>2021-04-17T21:34:09Z</time>
      </trkpt>
      <trkpt lat="4.9961520" lon="-75.4986370">
        <ele>2444.4</ele>
        <time>2021-04-17T21:34:10Z</time>
      </trkpt>
      <trkpt lat="4.9962480" lon="-75.4986410">
        <ele>2443.3</ele>
        <time>2021-04-17T21:34:11Z</time>
      </trkpt>
      <trkpt lat="4.9963480" lon="-75.4986510">
        <ele>2442.3</ele>
        <time>2021-04-17T21:34:12Z</time>
      </trkpt>
      <trkpt lat="4.9964490" lon="-75.4986650">
        <ele>2441.3</ele>
        <time>2021-04-17T21:34:13Z</time>
      </trkpt>
      <trkpt lat="4.9965450" lon="-75.4986780">
        <ele>2440.4</ele>
        <time>2021-04-17T21:34:14Z</time>
      </trkpt>
      <trkpt lat="4.9966340" lon="-75.4986850">
        <ele>2439.5</ele>
        <time>2021-04-17T21:34:15Z</time>
      </trkpt>
      <trkpt lat="4.9967180" lon="-75.4986760">
        <ele>2438.6</ele>
        <time>2021-04-17T21:34:16Z</time>
      </trkpt>
      <trkpt lat="4.9967980" lon="-75.4986430">
        <ele>2437.9</ele>
        <time>2021-04-17T21:34:17Z</time>
      </trkpt>
      <trkpt lat="4.9968750" lon="-75.4985800">
        <ele>2437.1</ele>
        <time>2021-04-17T21:34:18Z</time>
      </trkpt>
      <trkpt lat="4.9969540" lon="-75.4985310">
        <ele>2436.7</ele>
        <time>2021-04-17T21:34:19Z</time>
      </trkpt>
      <trkpt lat="4.9970420" lon="-75.4985030">
        <ele>2436.5</ele>
        <time>2021-04-17T21:34:20Z</time>
      </trkpt>
      <trkpt lat="4.9971300" lon="-75.4985000">
        <ele>2436.3</ele>
        <time>2021-04-17T21:34:21Z</time>
      </trkpt>
      <trkpt lat="4.9972130" lon="-75.4985060">
        <ele>2436.1</ele>
        <time>2021-04-17T21:34:22Z</time>
      </trkpt>
      <trkpt lat="4.9972910" lon="-75.4985170">
        <ele>2435.8</ele>
        <time>2021-04-17T21:34:23Z</time>
      </trkpt>
      <trkpt lat="4.9973660" lon="-75.4985170">
        <ele>2435.3</ele>
        <time>2021-04-17T21:34:24Z</time>
      </trkpt>
      <trkpt lat="4.9974320" lon="-75.4984950">
        <ele>2434.8</ele>
        <time>2021-04-17T21:34:25Z</time>
      </trkpt>
      <trkpt lat="4.9974950" lon="-75.4984590">
        <ele>2434.2</ele>
        <time>2021-04-17T21:34:26Z</time>
      </trkpt>
      <trkpt lat="4.9975570" lon="-75.4984090">
        <ele>2433.6</ele>
        <time>2021-04-17T21:34:27Z</time>
      </trkpt>
      <trkpt lat="4.9976220" lon="-75.4983590">
        <ele>2433.1</ele>
        <time>2021-04-17T21:34:28Z</time>
      </trkpt>
      <trkpt lat="4.9976910" lon="-75.4983130">
        <ele>2432.5</ele>
        <time>2021-04-17T21:34:29Z</time>
      </trkpt>
      <trkpt lat="4.9977650" lon="-75.4982720">
        <ele>2431.9</ele>
        <time>2021-04-17T21:34:30Z</time>
      </trkpt>
      <trkpt lat="4.9978380" lon="-75.4982330">
        <ele>2431.2</ele>
        <time>2021-04-17T21:34:31Z</time>
      </trkpt>
      <trkpt lat="4.9979130" lon="-75.4981990">
        <ele>2430.4</ele>
        <time>2021-04-17T21:34:32Z</time>
      </trkpt>
      <trkpt lat="4.9979940" lon="-75.4981680">
        <ele>2429.5</ele>
        <time>2021-04-17T21:34:33Z</time>
      </trkpt>
      <trkpt lat="4.9980800" lon="-75.4981400">
        <ele>2428.6</ele>
        <time>2021-04-17T21:34:34Z</time>
      </trkpt>
      <trkpt lat="4.9981650" lon="-75.4981180">
        <ele>2427.7</ele>
        <time>2021-04-17T21:34:35Z</time>
      </trkpt>
      <trkpt lat="4.9982590" lon="-75.4980950">
        <ele>2426.9</ele>
        <time>2021-04-17T21:34:36Z</time>
      </trkpt>
      <trkpt lat="4.9983530" lon="-75.4980810">
        <ele>2426.3</ele>
        <time>2021-04-17T21:34:37Z</time>
      </trkpt>
      <trkpt lat="4.9984460" lon="-75.4980800">
        <ele>2425.9</ele>
        <time>2021-04-17T21:34:38Z</time>
      </trkpt>
      <trkpt lat="4.9985380" lon="-75.4980920">
        <ele>2425.5</ele>
        <time>2021-04-17T21:34:39Z</time>
      </trkpt>
      <trkpt lat="4.9986330" lon="-75.4981090">
        <ele>2425.3</ele>
        <time>2021-04-17T21:34:40Z</time>
      </trkpt>
      <trkpt lat="4.9987240" lon="-75.4981260">
        <ele>2425.1</ele>
        <time>2021-04-17T21:34:41Z</time>
      </trkpt>
      <trkpt lat="4.9988090" lon="-75.4981390">
        <ele>2424.7</ele>
        <time>2021-04-17T21:34:42Z</time>
      </trkpt>
      <trkpt lat="4.9988890" lon="-75.4981530">
        <ele>2424.2</ele>
        <time>2021-04-17T21:34:43Z</time>
      </trkpt>
      <trkpt lat="4.9989640" lon="-75.4981750">
        <ele>2423.7</ele>
        <time>2021-04-17T21:34:44Z</time>
      </trkpt>
      <trkpt lat="4.9990340" lon="-75.4982110">
        <ele>2423.1</ele>
        <time>2021-04-17T21:34:45Z</time>
      </trkpt>
      <trkpt lat="4.9991030" lon="-75.4982600">
        <ele>2422.4</ele>
        <time>2021-04-17T21:34:46Z</time>
      </trkpt>
      <trkpt lat="4.9991730" lon="-75.4983130">
        <ele>2421.8</ele>
        <time>2021-04-17T21:34:47Z</time>
      </trkpt>
      <trkpt lat="4.9992440" lon="-75.4983660">
        <ele>2421.1</ele>
        <time>2021-04-17T21:34:48Z</time>
      </trkpt>
      <trkpt lat="4.9993140" lon="-75.4984200">
        <ele>2420.5</ele>
        <time>2021-04-17T21:34:49Z</time>
      </trkpt>
      <trkpt lat="4.9993830" lon="-75.4984740">
        <ele>2419.8</ele>
        <time>2021-04-17T21:34:50Z</time>
      </trkpt>
      <trkpt lat="4.9994550" lon="-75.4985230">
        <ele>2419.1</ele>
        <time>2021-04-17T21:34:51Z</time>
      </trkpt>
      <trkpt lat="4.9995340" lon="-75.4985610">
        <ele>2418.3</ele>
        <time>2021-04-17T21:34:52Z</time>
      </trkpt>
      <trkpt lat="4.9996230" lon="-75.4985680">
        <ele>2417.5</ele>
        <time>2021-04-17T21:34:53Z</time>
      </trkpt>
      <trkpt lat="4.9997050" lon="-75.4985700">
        <ele>2416.8</ele>
        <time>2021-04-17T21:34:54Z</time>
      </trkpt>
      <trkpt lat="4.9997890" lon="-75.4985620">
        <ele>2416.1</ele>
        <time>2021-04-17T21:34:55Z</time>
      </trkpt>
      <trkpt lat="4.9998740" lon="-75.4985610">
        <ele>2415.4</ele>
        <time>2021-04-17T21:34:56Z</time>
      </trkpt>
      <trkpt lat="4.9999580" lon="-75.4985800">
        <ele>2414.7</ele>
        <time>2021-04-17T21:34:57Z</time>
      </trkpt>
      <trkpt lat="5.0000430" lon="-75.4986100">
        <ele>2414.0</ele>
        <time>2021-04-17T21:34:58Z</time>
      </trkpt>
      <trkpt lat="5.0001260" lon="-75.4986420">
        <ele>2413.2</ele>
        <time>2021-04-17T21:34:59Z</time>
      </trkpt>
      <trkpt lat="5.0002070" lon="-75.4986790">
        <ele>2412.4</ele>
        <time>2021-04-17T21:35:00Z</time>
      </trkpt>
      <trkpt lat="5.0002800" lon="-75.4987410">
        <ele>2411.6</ele>
        <time>2021-04-17T21:35:01Z</time>
      </trkpt>
      <trkpt lat="5.0003330" lon="-75.4988170">
        <ele>2410.9</ele>
        <time>2021-04-17T21:35:02Z</time>
      </trkpt>
      <trkpt lat="5.0003750" lon="-75.4988960">
        <ele>2410.3</ele>
        <time>2021-04-17T21:35:03Z</time>
      </trkpt>
      <trkpt lat="5.0004020" lon="-75.4989820">
        <ele>2409.6</ele>
        <time>2021-04-17T21:35:04Z</time>
      </trkpt>
      <trkpt lat="5.0004350" lon="-75.4990650">
        <ele>2408.9</ele>
        <time>2021-04-17T21:35:05Z</time>
      </trkpt>
      <trkpt lat="5.0004800" lon="-75.4991390">
        <ele>2408.2</ele>
        <time>2021-04-17T21:35:06Z</time>
      </trkpt>
      <trkpt lat="5.0005380" lon="-75.4991910">
        <ele>2407.5</ele>
        <time>2021-04-17T21:35:07Z</time>
      </trkpt>
      <trkpt lat="5.0006200" lon="-75.4992060">
        <ele>2406.7</ele>
        <time>2021-04-17T21:35:08Z</time>
      </trkpt>
      <trkpt lat="5.0007040" lon="-75.4991870">
        <ele>2406.0</ele>
        <time>2021-04-17T21:35:09Z</time>
      </trkpt>
      <trkpt lat="5.0007850" lon="-75.4991450">
        <ele>2405.2</ele>
        <time>2021-04-17T21:35:10Z</time>
      </trkpt>
      <trkpt lat="5.0008480" lon="-75.4990780">
        <ele>2404.4</ele>
        <time>2021-04-17T21:35:11Z</time>
      </trkpt>
      <trkpt lat="5.0009050" lon="-75.4990080">
        <ele>2403.7</ele>
        <time>2021-04-17T21:35:12Z</time>
      </trkpt>
      <trkpt lat="5.0009610" lon="-75.4989330">
        <ele>2402.9</ele>
        <time>2021-04-17T21:35:13Z</time>
      </trkpt>
      <trkpt lat="5.0010200" lon="-75.4988610">
        <ele>2402.1</ele>
        <time>2021-04-17T21:35:14Z</time>
      </trkpt>
      <trkpt lat="5.0010900" lon="-75.4987980">
        <ele>2401.3</ele>
        <time>2021-04-17T21:35:15Z</time>
      </trkpt>
      <trkpt lat="5.0011700" lon="-75.4987500">
        <ele>2400.6</ele>
        <time>2021-04-17T21:35:16Z</time>
      </trkpt>
      <trkpt lat="5.0012550" lon="-75.4987120">
        <ele>2400.4</ele>
        <time>2021-04-17T21:35:17Z</time>
      </trkpt>
      <trkpt lat="5.0013390" lon="-75.4986710">
        <ele>2400.4</ele>
        <time>2021-04-17T21:35:18Z</time>
      </trkpt>
      <trkpt lat="5.0014230" lon="-75.4986300">
        <ele>2400.4</ele>
        <time>2021-04-17T21:35:19Z</time>
      </trkpt>
      <trkpt lat="5.0015080" lon="-75.4985920">
        <ele>2400.3</ele>
        <time>2021-04-17T21:35:20Z</time>
      </trkpt>
      <trkpt lat="5.0015950" lon="-75.4985620">
        <ele>2400.3</ele>
        <time>2021-04-17T21:35:21Z</time>
      </trkpt>
      <trkpt lat="5.0016860" lon="-75.4985450">
        <ele>2400.2</ele>
        <time>2021-04-17T21:35:22Z</time>
      </trkpt>
      <trkpt lat="5.0017790" lon="-75.4985330">
        <ele>2400.2</ele>
        <time>2021-04-17T21:35:23Z</time>
      </trkpt>
      <trkpt lat="5.0018740" lon="-75.4985240">
        <ele>2400.1</ele>
        <time>2021-04-17T21:35:24Z</time>
      </trkpt>
      <trkpt lat="5.0019710" lon="-75.4985160">
        <ele>2400.1</ele>
        <time>2021-04-17T21:35:25Z</time>
      </trkpt>
      <trkpt lat="5.0020660" lon="-75.4985100">
        <ele>2400.0</ele>
        <time>2021-04-17T21:35:26Z</time>
      </trkpt>
      <trkpt lat="5.0021560" lon="-75.4985070">
        <ele>2399.5</ele>
        <time>2021-04-17T21:35:27Z</time>
      </trkpt>
      <trkpt lat="5.0022400" lon="-75.4985070">
        <ele>2399.1</ele>
        <time>2021-04-17T21:35:28Z</time>
      </trkpt>
      <trkpt lat="5.0023160" lon="-75.4985080">
        <ele>2398.7</ele>
        <time>2021-04-17T21:35:29Z</time>
      </trkpt>
      <trkpt lat="5.0023860" lon="-75.4985120">
        <ele>2398.4</ele>
        <time>2021-04-17T21:35:30Z</time>
      </trkpt>
      <trkpt lat="5.0024500" lon="-75.4985170">
        <ele>2398.0</ele>
        <time>2021-04-17T21:35:31Z</time>
      </trkpt>
      <trkpt lat="5.0025060" lon="-75.4985190">
        <ele>2397.8</ele>
        <time>2021-04-17T21:35:32Z</time>
      </trkpt>
      <trkpt lat="5.0025520" lon="-75.4985190">
        <ele>2397.6</ele>
        <time>2021-04-17T21:35:33Z</time>
      </trkpt>
      <trkpt lat="5.0025930" lon="-75.4985200">
        <ele>2397.3</ele>
        <time>2021-04-17T21:35:34Z</time>
      </trkpt>
      <trkpt lat="5.0026360" lon="-75.4985170">
        <ele>2397.1</ele>
        <time>2021-04-17T21:35:35Z</time>
      </trkpt>
      <trkpt lat="5.0026860" lon="-75.4985090">
        <ele>2396.8</ele>
        <time>2021-04-17T21:35:36Z</time>
      </trkpt>
      <trkpt lat="5.0027420" lon="-75.4984950">
        <ele>2396.5</ele>
        <time>2021-04-17T21:35:37Z</time>
      </trkpt>
      <trkpt lat="5.0028000" lon="-75.4984750">
        <ele>2396.2</ele>
        <time>2021-04-17T21:35:38Z</time>
      </trkpt>
      <trkpt lat="5.0028570" lon="-75.4984450">
        <ele>2395.9</ele>
        <time>2021-04-17T21:35:39Z</time>
      </trkpt>
      <trkpt lat="5.0029160" lon="-75.4984110">
        <ele>2395.6</ele>
        <time>2021-04-17T21:35:40Z</time>
      </trkpt>
      <trkpt lat="5.0029740" lon="-75.4983730">
        <ele>2395.2</ele>
        <time>2021-04-17T21:35:41Z</time>
      </trkpt>
      <trkpt lat="5.0030330" lon="-75.4983310">
        <ele>2394.8</ele>
        <time>2021-04-17T21:35:42Z</time>
      </trkpt>
      <trkpt lat="5.0030930" lon="-75.4982860">
        <ele>2394.5</ele>
        <time>2021-04-17T21:35:43Z</time>
      </trkpt>
      <trkpt lat="5.0031520" lon="-75.4982390">
        <ele>2394.1</ele>
        <time>2021-04-17T21:35:44Z</time>
      </trkpt>
      <trkpt lat="5.0032150" lon="-75.4981930">
        <ele>2393.8</ele>
        <time>2021-04-17T21:35:45Z</time>
      </trkpt>
      <trkpt lat="5.0032820" lon="-75.4981540">
        <ele>2393.4</ele>
        <time>2021-04-17T21:35:46Z</time>
      </trkpt>
      <trkpt lat="5.0033530" lon="-75.4981200">
        <ele>2393.0</ele>
        <time>2021-04-17T21:35:47Z</time>
      </trkpt>
      <trkpt lat="5.0034290" lon="-75.4980950">
        <ele>2392.6</ele>
        <time>2021-04-17T21:35:48Z</time>
      </trkpt>
      <trkpt lat="5.0035090" lon="-75.4980810">
        <ele>2392.2</ele>
        <time>2021-04-17T21:35:49Z</time>
      </trkpt>
      <trkpt lat="5.0035940" lon="-75.4981120">
        <ele>2391.7</ele>
        <time>2021-04-17T21:35:50Z</time>
      </trkpt>
      <trkpt lat="5.0036730" lon="-75.4981460">
        <ele>2391.2</ele>
        <time>2021-04-17T21:35:51Z</time>
      </trkpt>
      <trkpt lat="5.0037390" lon="-75.4981920">
        <ele>2390.7</ele>
        <time>2021-04-17T21:35:52Z</time>
      </trkpt>
      <trkpt lat="5.0038080" lon="-75.4982350">
        <ele>2390.1</ele>
        <time>2021-04-17T21:35:53Z</time>
      </trkpt>
      <trkpt lat="5.0038870" lon="-75.4982540">
        <ele>2389.5</ele>
        <time>2021-04-17T21:35:54Z</time>
      </trkpt>
      <trkpt lat="5.0039630" lon="-75.4982730">
        <ele>2388.9</ele>
        <time>2021-04-17T21:35:55Z</time>
      </trkpt>
      <trkpt lat="5.0040410" lon="-75.4982650">
        <ele>2388.3</ele>
        <time>2021-04-17T21:35:56Z</time>
      </trkpt>
      <trkpt lat="5.0041190" lon="-75.4982470">
        <ele>2387.7</ele>
        <time>2021-04-17T21:35:57Z</time>
      </trkpt>
      <trkpt lat="5.0041680" lon="-75.4982010">
        <ele>2387.1</ele>
        <time>2021-04-17T21:35:58Z</time>
      </trkpt>
      <trkpt lat="5.0042070" lon="-75.4981050">
        <ele>2386.3</ele>
        <time>2021-04-17T21:35:59Z</time>
      </trkpt>
      <trkpt lat="5.0042470" lon="-75.4980180">
        <ele>2385.6</ele>
        <time>2021-04-17T21:36:00Z</time>
      </trkpt>
      <trkpt lat="5.0043000" lon="-75.4979470">
        <ele>2384.9</ele>
        <time>2021-04-17T21:36:01Z</time>
      </trkpt>
      <trkpt lat="5.0043700" lon="-75.4978810">
        <ele>2384.1</ele>
        <time>2021-04-17T21:36:02Z</time>
      </trkpt>
      <trkpt lat="5.0044520" lon="-75.4978200">
        <ele>2383.2</ele>
        <time>2021-04-17T21:36:03Z</time>
      </trkpt>
      <trkpt lat="5.0045330" lon="-75.4977650">
        <ele>2382.4</ele>
        <time>2021-04-17T21:36:04Z</time>
      </trkpt>
      <trkpt lat="5.0046200" lon="-75.4977100">
        <ele>2381.5</ele>
        <time>2021-04-17T21:36:05Z</time>
      </trkpt>
      <trkpt lat="5.0047150" lon="-75.4976680">
        <ele>2380.6</ele>
        <time>2021-04-17T21:36:06Z</time>
      </trkpt>
      <trkpt lat="5.0048160" lon="-75.4976500">
        <ele>2379.8</ele>
        <time>2021-04-17T21:36:07Z</time>
      </trkpt>
      <trkpt lat="5.0049160" lon="-75.4976400">
        <ele>2379.1</ele>
        <time>2021-04-17T21:36:08Z</time>
      </trkpt>
      <trkpt lat="5.0050240" lon="-75.4976320">
        <ele>2378.3</ele>
        <time>2021-04-17T21:36:09Z</time>
      </trkpt>
      <trkpt lat="5.0051350" lon="-75.4976260">
        <ele>2377.5</ele>
        <time>2021-04-17T21:36:10Z</time>
      </trkpt>
      <trkpt lat="5.0052480" lon="-75.4976230">
        <ele>2376.7</ele>
        <time>2021-04-17T21:36:11Z</time>
      </trkpt>
      <trkpt lat="5.0053570" lon="-75.4976180">
        <ele>2375.8</ele>
        <time>2021-04-17T21:36:12Z</time>
      </trkpt>
      <trkpt lat="5.0054690" lon="-75.4976110">
        <ele>2375.0</ele>
        <time>2021-04-17T21:36:13Z</time>
      </trkpt>
      <trkpt lat="5.0055780" lon="-75.4976020">
        <ele>2374.2</ele>
        <time>2021-04-17T21:36:14Z</time>
      </trkpt>
      <trkpt lat="5.0056890" lon="-75.4975910">
        <ele>2373.6</ele>
        <time>2021-04-17T21:36:15Z</time>
      </trkpt>
      <trkpt lat="5.0057930" lon="-75.4975800">
        <ele>2373.1</ele>
        <time>2021-04-17T21:36:16Z</time>
      </trkpt>
      <trkpt lat="5.0058970" lon="-75.4975800">
        <ele>2372.7</ele>
        <time>2021-04-17T21:36:17Z</time>
      </trkpt>
      <trkpt lat="5.0059910" lon="-75.4975920">
        <ele>2372.5</ele>
        <time>2021-04-17T21:36:18Z</time>
      </trkpt>
      <trkpt lat="5.0060820" lon="-75.4976150">
        <ele>2372.5</ele>
        <time>2021-04-17T21:36:19Z</time>
      </trkpt>
      <trkpt lat="5.0061670" lon="-75.4976400">
        <ele>2372.7</ele>
        <time>2021-04-17T21:36:20Z</time>
      </trkpt>
      <trkpt lat="5.0062500" lon="-75.4976640">
        <ele>2372.9</ele>
        <time>2021-04-17T21:36:21Z</time>
      </trkpt>
      <trkpt lat="5.0063360" lon="-75.4976830">
        <ele>2373.4</ele>
        <time>2021-04-17T21:36:22Z</time>
      </trkpt>
      <trkpt lat="5.0064230" lon="-75.4976990">
        <ele>2374.0</ele>
        <time>2021-04-17T21:36:23Z</time>
      </trkpt>
      <trkpt lat="5.0065110" lon="-75.4977220">
        <ele>2375.0</ele>
        <time>2021-04-17T21:36:24Z</time>
      </trkpt>
      <trkpt lat="5.0066020" lon="-75.4977500">
        <ele>2376.1</ele>
        <time>2021-04-17T21:36:25Z</time>
      </trkpt>
      <trkpt lat="5.0066880" lon="-75.4977900">
        <ele>2377.1</ele>
        <time>2021-04-17T21:36:26Z</time>
      </trkpt>
      <trkpt lat="5.0067750" lon="-75.4978390">
        <ele>2378.3</ele>
        <time>2021-04-17T21:36:27Z</time>
      </trkpt>
      <trkpt lat="5.0068620" lon="-75.4978890">
        <ele>2379.6</ele>
        <time>2021-04-17T21:36:28Z</time>
      </trkpt>
      <trkpt lat="5.0069450" lon="-75.4979370">
        <ele>2380.9</ele>
        <time>2021-04-17T21:36:29Z</time>
      </trkpt>
      <trkpt lat="5.0070350" lon="-75.4979710">
        <ele>2382.5</ele>
        <time>2021-04-17T21:36:30Z</time>
      </trkpt>
      <trkpt lat="5.0071280" lon="-75.4979910">
        <ele>2383.9</ele>
        <time>2021-04-17T21:36:31Z</time>
      </trkpt>
      <trkpt lat="5.0072230" lon="-75.4979940">
        <ele>2385.1</ele>
        <time>2021-04-17T21:36:32Z</time>
      </trkpt>
      <trkpt lat="5.0073180" lon="-75.4979870">
        <ele>2386.0</ele>
        <time>2021-04-17T21:36:33Z</time>
      </trkpt>
      <trkpt lat="5.0074110" lon="-75.4979630">
        <ele>2386.7</ele>
        <time>2021-04-17T21:36:34Z</time>
      </trkpt>
      <trkpt lat="5.0075030" lon="-75.4979310">
        <ele>2387.4</ele>
        <time>2021-04-17T21:36:35Z</time>
      </trkpt>
      <trkpt lat="5.0075950" lon="-75.4979050">
        <ele>2388.0</ele>
        <time>2021-04-17T21:36:36Z</time>
      </trkpt>
      <trkpt lat="5.0076830" lon="-75.4978750">
        <ele>2388.5</ele>
        <time>2021-04-17T21:36:37Z</time>
      </trkpt>
      <trkpt lat="5.0077730" lon="-75.4978510">
        <ele>2389.2</ele>
        <time>2021-04-17T21:36:38Z</time>
      </trkpt>
      <trkpt lat="5.0078630" lon="-75.4978340">
        <ele>2389.9</ele>
        <time>2021-04-17T21:36:39Z</time>
      </trkpt>
      <trkpt lat="5.0079560" lon="-75.4978320">
        <ele>2390.6</ele>
        <time>2021-04-17T21:36:40Z</time>
      </trkpt>
      <trkpt lat="5.0080490" lon="-75.4978400">
        <ele>2391.4</ele>
        <time>2021-04-17T21:36:41Z</time>
      </trkpt>
      <trkpt lat="5.0081400" lon="-75.4978540">
        <ele>2392.1</ele>
        <time>2021-04-17T21:36:42Z</time>
      </trkpt>
      <trkpt lat="5.0082300" lon="-75.4978630">
        <ele>2392.7</ele>
        <time>2021-04-17T21:36:43Z</time>
      </trkpt>
      <trkpt lat="5.0083190" lon="-75.4978750">
        <ele>2391.8</ele>
        <time>2021-04-17T21:36:44Z</time>
      </trkpt>
      <trkpt lat="5.0084110" lon="-75.4978890">
        <ele>2385.3</ele>
        <time>2021-04-17T21:36:45Z</time>
      </trkpt>
      <trkpt lat="5.0085000" lon="-75.4979090">
        <ele>2382.0</ele>
        <time>2021-04-17T21:36:46Z</time>
      </trkpt>
      <trkpt lat="5.0085830" lon="-75.4979320">
        <ele>2373.7</ele>
        <time>2021-04-17T21:36:47Z</time>
      </trkpt>
      <trkpt lat="5.0086630" lon="-75.4979560">
        <ele>2372.9</ele>
        <time>2021-04-17T21:36:48Z</time>
      </trkpt>
      <trkpt lat="5.0087390" lon="-75.4979750">
        <ele>2369.2</ele>
        <time>2021-04-17T21:36:49Z</time>
      </trkpt>
      <trkpt lat="5.0088060" lon="-75.4979860">
        <ele>2369.9</ele>
        <time>2021-04-17T21:36:50Z</time>
      </trkpt>
      <trkpt lat="5.0088650" lon="-75.4979850">
        <ele>2370.8</ele>
        <time>2021-04-17T21:36:51Z</time>
      </trkpt>
      <trkpt lat="5.0089160" lon="-75.4979770">
        <ele>2372.2</ele>
        <time>2021-04-17T21:36:52Z</time>
      </trkpt>
      <trkpt lat="5.0089620" lon="-75.4979550">
        <ele>2375.2</ele>
        <time>2021-04-17T21:36:53Z</time>
      </trkpt>
      <trkpt lat="5.0090040" lon="-75.4979220">
        <ele>2374.9</ele>
        <time>2021-04-17T21:36:54Z</time>
      </trkpt>
      <trkpt lat="5.0090380" lon="-75.4978700">
        <ele>2379.9</ele>
        <time>2021-04-17T21:36:55Z</time>
      </trkpt>
      <trkpt lat="5.0090750" lon="-75.4978150">
        <ele>2383.0</ele>
        <time>2021-04-17T21:36:56Z</time>
      </trkpt>
      <trkpt lat="5.0091150" lon="-75.4977590">
        <ele>2385.2</ele>
        <time>2021-04-17T21:36:57Z</time>
      </trkpt>
      <trkpt lat="5.0091570" lon="-75.4977100">
        <ele>2387.7</ele>
        <time>2021-04-17T21:36:58Z</time>
      </trkpt>
      <trkpt lat="5.0092100" lon="-75.4976760">
        <ele>2390.3</ele>
        <time>2021-04-17T21:36:59Z</time>
      </trkpt>
      <trkpt lat="5.0092680" lon="-75.4976540">
        <ele>2392.2</ele>
        <time>2021-04-17T21:37:00Z</time>
      </trkpt>
      <trkpt lat="5.0093290" lon="-75.4976400">
        <ele>2392.7</ele>
        <time>2021-04-17T21:37:01Z</time>
      </trkpt>
      <trkpt lat="5.0093830" lon="-75.4976430">
        <ele>2393.6</ele>
        <time>2021-04-17T21:37:02Z</time>
      </trkpt>
      <trkpt lat="5.0094530" lon="-75.4976570">
        <ele>2394.2</ele>
        <time>2021-04-17T21:37:03Z</time>
      </trkpt>
      <trkpt lat="5.0095260" lon="-75.4976770">
        <ele>2392.3</ele>
        <time>2021-04-17T21:37:04Z</time>
      </trkpt>
      <trkpt lat="5.0096010" lon="-75.4976920">
        <ele>2391.9</ele>
        <time>2021-04-17T21:37:05Z</time>
      </trkpt>
      <trkpt lat="5.0096800" lon="-75.4977000">
        <ele>2388.8</ele>
        <time>2021-04-17T21:37:06Z</time>
      </trkpt>
      <trkpt lat="5.0097650" lon="-75.4976950">
        <ele>2384.8</ele>
        <time>2021-04-17T21:37:07Z</time>
      </trkpt>
      <trkpt lat="5.0098490" lon="-75.4976810">
        <ele>2382.4</ele>
        <time>2021-04-17T21:37:08Z</time>
      </trkpt>
      <trkpt lat="5.0099280" lon="-75.4976670">
        <ele>2375.5</ele>
        <time>2021-04-17T21:37:09Z</time>
      </trkpt>
      <trkpt lat="5.0100070" lon="-75.4976430">
        <ele>2373.6</ele>
        <time>2021-04-17T21:37:10Z</time>
      </trkpt>
      <trkpt lat="5.0100870" lon="-75.4976160">
        <ele>2372.7</ele>
        <time>2021-04-17T21:37:11Z</time>
      </trkpt>
      <trkpt lat="5.0101680" lon="-75.4975830">
        <ele>2368.9</ele>
        <time>2021-04-17T21:37:12Z</time>
      </trkpt>
      <trkpt lat="5.0102500" lon="-75.4975370">
        <ele>2371.1</ele>
        <time>2021-04-17T21:37:13Z</time>
      </trkpt>
      <trkpt lat="5.0103340" lon="-75.4974950">
        <ele>2373.8</ele>
        <time>2021-04-17T21:37:14Z</time>
      </trkpt>
      <trkpt lat="5.0104230" lon="-75.4974490">
        <ele>2379.9</ele>
        <time>2021-04-17T21:37:15Z</time>
      </trkpt>
      <trkpt lat="5.0105180" lon="-75.4974050">
        <ele>2386.2</ele>
        <time>2021-04-17T21:37:16Z</time>
      </trkpt>
      <trkpt lat="5.0105960" lon="-75.4973550">
        <ele>2395.0</ele>
        <time>2021-04-17T21:37:17Z</time>
      </trkpt>
      <trkpt lat="5.0106780" lon="-75.4973210">
        <ele>2398.2</ele>
        <time>2021-04-17T21:37:18Z</time>
      </trkpt>
      <trkpt lat="5.0107600" lon="-75.4973070">
        <ele>2401.4</ele>
        <time>2021-04-17T21:37:19Z</time>
      </trkpt>
      <trkpt lat="5.0108490" lon="-75.4973090">
        <ele>2402.4</ele>
        <time>2021-04-17T21:37:20Z</time>
      </trkpt>
      <trkpt lat="5.0109320" lon="-75.4973370">
        <ele>2400.3</ele>
        <time>2021-04-17T21:37:21Z</time>
      </trkpt>
      <trkpt lat="5.0110160" lon="-75.4973730">
        <ele>2398.5</ele>
        <time>2021-04-17T21:37:22Z</time>
      </trkpt>
      <trkpt lat="5.0110970" lon="-75.4974130">
        <ele>2397.8</ele>
        <time>2021-04-17T21:37:23Z</time>
      </trkpt>
      <trkpt lat="5.0111730" lon="-75.4974560">
        <ele>2397.4</ele>
        <time>2021-04-17T21:37:24Z</time>
      </trkpt>
      <trkpt lat="5.0112500" lon="-75.4974900">
        <ele>2398.1</ele>
        <time>2021-04-17T21:37:25Z</time>
      </trkpt>
      <trkpt lat="5.0113230" lon="-75.4975230">
        <ele>2400.9</ele>
        <time>2021-04-17T21:37:26Z</time>
      </trkpt>
      <trkpt lat="5.0113760" lon="-75.4975760">
        <ele>2397.9</ele>
        <time>2021-04-17T21:37:27Z</time>
      </trkpt>
      <trkpt lat="5.0114230" lon="-75.4976330">
        <ele>2397.6</ele>
        <time>2021-04-17T21:37:28Z</time>
      </trkpt>
      <trkpt lat="5.0114700" lon="-75.4976890">
        <ele>2397.9</ele>
        <time>2021-04-17T21:37:29Z</time>
      </trkpt>
      <trkpt lat="5.0115190" lon="-75.4977540">
        <ele>2399.3</ele>
        <time>2021-04-17T21:37:30Z</time>
      </trkpt>
      <trkpt lat="5.0115660" lon="-75.4978260">
        <ele>2399.8</ele>
        <time>2021-04-17T21:37:31Z</time>
      </trkpt>
      <trkpt lat="5.0116170" lon="-75.4979010">
        <ele>2396.8</ele>
        <time>2021-04-17T21:37:32Z</time>
      </trkpt>
      <trkpt lat="5.0116740" lon="-75.4979770">
        <ele>2391.3</ele>
        <time>2021-04-17T21:37:33Z</time>
      </trkpt>
      <trkpt lat="5.0117270" lon="-75.4980580">
        <ele>2383.4</ele>
        <time>2021-04-17T21:37:34Z</time>
      </trkpt>
      <trkpt lat="5.0117840" lon="-75.4981320">
        <ele>2386.0</ele>
        <time>2021-04-17T21:37:35Z</time>
      </trkpt>
      <trkpt lat="5.0118490" lon="-75.4982000">
        <ele>2384.4</ele>
        <time>2021-04-17T21:37:36Z</time>
      </trkpt>
      <trkpt lat="5.0119210" lon="-75.4982580">
        <ele>2385.0</ele>
        <time>2021-04-17T21:37:37Z</time>
      </trkpt>
      <trkpt lat="5.0119960" lon="-75.4983130">
        <ele>2382.0</ele>
        <time>2021-04-17T21:37:38Z</time>
      </trkpt>
      <trkpt lat="5.0120690" lon="-75.4983720">
        <ele>2381.8</ele>
        <time>2021-04-17T21:37:39Z</time>
      </trkpt>
      <trkpt lat="5.0121390" lon="-75.4984400">
        <ele>2383.4</ele>
        <time>2021-04-17T21:37:40Z</time>
      </trkpt>
      <trkpt lat="5.0122030" lon="-75.4985110">
        <ele>2387.1</ele>
        <time>2021-04-17T21:37:41Z</time>
      </trkpt>
      <trkpt lat="5.0122540" lon="-75.4985880">
        <ele>2388.8</ele>
        <time>2021-04-17T21:37:42Z</time>
      </trkpt>
      <trkpt lat="5.0122980" lon="-75.4986560">
        <ele>2386.7</ele>
        <time>2021-04-17T21:37:43Z</time>
      </trkpt>
      <trkpt lat="5.0123270" lon="-75.4987220">
        <ele>2382.2</ele>
        <time>2021-04-17T21:37:44Z</time>
      </trkpt>
      <trkpt lat="5.0123300" lon="-75.4987920">
        <ele>2373.3</ele>
        <time>2021-04-17T21:37:45Z</time>
      </trkpt>
      <trkpt lat="5.0123230" lon="-75.4988750">
        <ele>2366.7</ele>
        <time>2021-04-17T21:37:46Z</time>
      </trkpt>
      <trkpt lat="5.0123180" lon="-75.4989620">
        <ele>2361.2</ele>
        <time>2021-04-17T21:37:47Z</time>
      </trkpt>
      <trkpt lat="5.0123150" lon="-75.4990420">
        <ele>2358.2</ele>
        <time>2021-04-17T21:37:48Z</time>
      </trkpt>
      <trkpt lat="5.0123540" lon="-75.4990990">
        <ele>2357.6</ele>
        <time>2021-04-17T21:37:49Z</time>
      </trkpt>
      <trkpt lat="5.0124020" lon="-75.4991520">
        <ele>2356.4</ele>
        <time>2021-04-17T21:37:50Z</time>
      </trkpt>
      <trkpt lat="5.0124750" lon="-75.4991640">
        <ele>2350.4</ele>
        <time>2021-04-17T21:37:51Z</time>
      </trkpt>
      <trkpt lat="5.0125560" lon="-75.4991550">
        <ele>2350.5</ele>
        <time>2021-04-17T21:37:52Z</time>
      </trkpt>
      <trkpt lat="5.0126370" lon="-75.4991420">
        <ele>2345.8</ele>
        <time>2021-04-17T21:37:53Z</time>
      </trkpt>
      <trkpt lat="5.0127230" lon="-75.4991140">
        <ele>2348.1</ele>
        <time>2021-04-17T21:37:54Z</time>
      </trkpt>
      <trkpt lat="5.0128150" lon="-75.4990860">
        <ele>2346.9</ele>
        <time>2021-04-17T21:37:55Z</time>
      </trkpt>
      <trkpt lat="5.0129060" lon="-75.4990560">
        <ele>2352.8</ele>
        <time>2021-04-17T21:37:56Z</time>
      </trkpt>
      <trkpt lat="5.0129970" lon="-75.4990280">
        <ele>2358.7</ele>
        <time>2021-04-17T21:37:57Z</time>
      </trkpt>
      <trkpt lat="5.0130880" lon="-75.4990020">
        <ele>2358.2</ele>
        <time>2021-04-17T21:37:58Z</time>
      </trkpt>
      <trkpt lat="5.0131750" lon="-75.4989810">
        <ele>2365.7</ele>
        <time>2021-04-17T21:37:59Z</time>
      </trkpt>
      <trkpt lat="5.0132550" lon="-75.4990030">
        <ele>2363.5</ele>
        <time>2021-04-17T21:38:00Z</time>
      </trkpt>
      <trkpt lat="5.0133250" lon="-75.4990420">
        <ele>2363.2</ele>
        <time>2021-04-17T21:38:01Z</time>
      </trkpt>
      <trkpt lat="5.0133860" lon="-75.4990980">
        <ele>2360.9</ele>
        <time>2021-04-17T21:38:02Z</time>
      </trkpt>
      <trkpt lat="5.0134340" lon="-75.4991610">
        <ele>2359.7</ele>
        <time>2021-04-17T21:38:03Z</time>
      </trkpt>
      <trkpt lat="5.0134680" lon="-75.4992250">
        <ele>2358.6</ele>
        <time>2021-04-17T21:38:04Z</time>
      </trkpt>
      <trkpt lat="5.0134850" lon="-75.4992950">
        <ele>2357.5</ele>
        <time>2021-04-17T21:38:05Z</time>
      </trkpt>
      <trkpt lat="5.0134920" lon="-75.4993700">
        <ele>2356.3</ele>
        <time>2021-04-17T21:38:06Z</time>
      </trkpt>
      <trkpt lat="5.0135030" lon="-75.4994500">
        <ele>2355.2</ele>
        <time>2021-04-17T21:38:07Z</time>
      </trkpt>
      <trkpt lat="5.0135300" lon="-75.4995200">
        <ele>2354.2</ele>
        <time>2021-04-17T21:38:08Z</time>
      </trkpt>
      <trkpt lat="5.0135720" lon="-75.4995780">
        <ele>2353.3</ele>
        <time>2021-04-17T21:38:09Z</time>
      </trkpt>
      <trkpt lat="5.0136180" lon="-75.4996440">
        <ele>2352.3</ele>
        <time>2021-04-17T21:38:10Z</time>
      </trkpt>
      <trkpt lat="5.0136610" lon="-75.4997200">
        <ele>2351.1</ele>
        <time>2021-04-17T21:38:11Z</time>
      </trkpt>
      <trkpt lat="5.0136940" lon="-75.4998020">
        <ele>2349.8</ele>
        <time>2021-04-17T21:38:12Z</time>
      </trkpt>
      <trkpt lat="5.0137170" lon="-75.4998900">
        <ele>2348.3</ele>
        <time>2021-04-17T21:38:13Z</time>
      </trkpt>
      <trkpt lat="5.0137270" lon="-75.4999840">
        <ele>2346.5</ele>
        <time>2021-04-17T21:38:14Z</time>
      </trkpt>
      <trkpt lat="5.0137350" lon="-75.5000860">
        <ele>2344.6</ele>
        <time>2021-04-17T21:38:15Z</time>
      </trkpt>
      <trkpt lat="5.0137530" lon="-75.5001850">
        <ele>2342.9</ele>
        <time>2021-04-17T21:38:16Z</time>
      </trkpt>
      <trkpt lat="5.0137600" lon="-75.5002950">
        <ele>2341.2</ele>
        <time>2021-04-17T21:38:17Z</time>
      </trkpt>
      <trkpt lat="5.0137820" lon="-75.5003960">
        <ele>2339.7</ele>
        <time>2021-04-17T21:38:18Z</time>
      </trkpt>
      <trkpt lat="5.0138110" lon="-75.5004840">
        <ele>2338.5</ele>
        <time>2021-04-17T21:38:19Z</time>
      </trkpt>
      <trkpt lat="5.0138470" lon="-75.5005610">
        <ele>2337.3</ele>
        <time>2021-04-17T21:38:20Z</time>
      </trkpt>
      <trkpt lat="5.0139010" lon="-75.5006280">
        <ele>2336.1</ele>
        <time>2021-04-17T21:38:21Z</time>
      </trkpt>
      <trkpt lat="5.0139820" lon="-75.5006650">
        <ele>2334.7</ele>
        <time>2021-04-17T21:38:22Z</time>
      </trkpt>
      <trkpt lat="5.0140750" lon="-75.5006730">
        <ele>2333.4</ele>
        <time>2021-04-17T21:38:23Z</time>
      </trkpt>
      <trkpt lat="5.0141630" lon="-75.5006760">
        <ele>2332.1</ele>
        <time>2021-04-17T21:38:24Z</time>
      </trkpt>
      <trkpt lat="5.0142520" lon="-75.5006840">
        <ele>2330.8</ele>
        <time>2021-04-17T21:38:25Z</time>
      </trkpt>
      <trkpt lat="5.0143400" lon="-75.5007010">
        <ele>2329.4</ele>
        <time>2021-04-17T21:38:26Z</time>
      </trkpt>
      <trkpt lat="5.0144200" lon="-75.5007360">
        <ele>2327.9</ele>
        <time>2021-04-17T21:38:27Z</time>
      </trkpt>
      <trkpt lat="5.0144840" lon="-75.5007950">
        <ele>2326.5</ele>
        <time>2021-04-17T21:38:28Z</time>
      </trkpt>
      <trkpt lat="5.0145430" lon="-75.5008600">
        <ele>2325.1</ele>
        <time>2021-04-17T21:38:29Z</time>
      </trkpt>
      <trkpt lat="5.0145850" lon="-75.5009290">
        <ele>2323.8</ele>
        <time>2021-04-17T21:38:30Z</time>
      </trkpt>
      <trkpt lat="5.0146150" lon="-75.5010000">
        <ele>2322.6</ele>
        <time>2021-04-17T21:38:31Z</time>
      </trkpt>
      <trkpt lat="5.0146340" lon="-75.5010760">
        <ele>2321.5</ele>
        <time>2021-04-17T21:38:32Z</time>
      </trkpt>
      <trkpt lat="5.0146480" lon="-75.5011470">
        <ele>2320.5</ele>
        <time>2021-04-17T21:38:33Z</time>
      </trkpt>
      <trkpt lat="5.0146690" lon="-75.5012140">
        <ele>2319.4</ele>
        <time>2021-04-17T21:38:34Z</time>
      </trkpt>
      <trkpt lat="5.0146980" lon="-75.5012780">
        <ele>2318.3</ele>
        <time>2021-04-17T21:38:35Z</time>
      </trkpt>
      <trkpt lat="5.0147410" lon="-75.5013340">
        <ele>2317.1</ele>
        <time>2021-04-17T21:38:36Z</time>
      </trkpt>
      <trkpt lat="5.0148080" lon="-75.5013750">
        <ele>2315.7</ele>
        <time>2021-04-17T21:38:37Z</time>
      </trkpt>
      <trkpt lat="5.0148750" lon="-75.5014170">
        <ele>2314.3</ele>
        <time>2021-04-17T21:38:38Z</time>
      </trkpt>
      <trkpt lat="5.0149490" lon="-75.5014580">
        <ele>2312.8</ele>
        <time>2021-04-17T21:38:39Z</time>
      </trkpt>
      <trkpt lat="5.0150330" lon="-75.5014870">
        <ele>2311.3</ele>
        <time>2021-04-17T21:38:40Z</time>
      </trkpt>
      <trkpt lat="5.0151130" lon="-75.5015080">
        <ele>2310.1</ele>
        <time>2021-04-17T21:38:41Z</time>
      </trkpt>
      <trkpt lat="5.0152000" lon="-75.5015100">
        <ele>2308.8</ele>
        <time>2021-04-17T21:38:42Z</time>
      </trkpt>
      <trkpt lat="5.0152740" lon="-75.5014850">
        <ele>2307.7</ele>
        <time>2021-04-17T21:38:43Z</time>
      </trkpt>
      <trkpt lat="5.0153510" lon="-75.5014470">
        <ele>2306.4</ele>
        <time>2021-04-17T21:38:44Z</time>
      </trkpt>
      <trkpt lat="5.0154350" lon="-75.5014120">
        <ele>2305.0</ele>
        <time>2021-04-17T21:38:45Z</time>
      </trkpt>
      <trkpt lat="5.0155210" lon="-75.5013770">
        <ele>2303.6</ele>
        <time>2021-04-17T21:38:46Z</time>
      </trkpt>
      <trkpt lat="5.0156130" lon="-75.5013460">
        <ele>2302.2</ele>
        <time>2021-04-17T21:38:47Z</time>
      </trkpt>
      <trkpt lat="5.0157070" lon="-75.5013260">
        <ele>2300.8</ele>
        <time>2021-04-17T21:38:48Z</time>
      </trkpt>
      <trkpt lat="5.0158010" lon="-75.5013130">
        <ele>2299.4</ele>
        <time>2021-04-17T21:38:49Z</time>
      </trkpt>
      <trkpt lat="5.0158990" lon="-75.5013120">
        <ele>2298.0</ele>
        <time>2021-04-17T21:38:50Z</time>
      </trkpt>
      <trkpt lat="5.0159980" lon="-75.5013090">
        <ele>2296.7</ele>
        <time>2021-04-17T21:38:51Z</time>
      </trkpt>
      <trkpt lat="5.0160990" lon="-75.5013120">
        <ele>2295.3</ele>
        <time>2021-04-17T21:38:52Z</time>
      </trkpt>
      <trkpt lat="5.0161990" lon="-75.5013140">
        <ele>2293.9</ele>
        <time>2021-04-17T21:38:53Z</time>
      </trkpt>
      <trkpt lat="5.0163000" lon="-75.5013230">
        <ele>2292.5</ele>
        <time>2021-04-17T21:38:54Z</time>
      </trkpt>
      <trkpt lat="5.0163980" lon="-75.5013400">
        <ele>2291.2</ele>
        <time>2021-04-17T21:38:55Z</time>
      </trkpt>
      <trkpt lat="5.0164920" lon="-75.5013680">
        <ele>2289.9</ele>
        <time>2021-04-17T21:38:56Z</time>
      </trkpt>
      <trkpt lat="5.0165760" lon="-75.5014100">
        <ele>2288.8</ele>
        <time>2021-04-17T21:38:57Z</time>
      </trkpt>
      <trkpt lat="5.0166580" lon="-75.5014580">
        <ele>2287.4</ele>
        <time>2021-04-17T21:38:58Z</time>
      </trkpt>
      <trkpt lat="5.0167350" lon="-75.5015170">
        <ele>2285.8</ele>
        <time>2021-04-17T21:38:59Z</time>
      </trkpt>
      <trkpt lat="5.0168080" lon="-75.5015750">
        <ele>2284.2</ele>
        <time>2021-04-17T21:39:00Z</time>
      </trkpt>
      <trkpt lat="5.0168910" lon="-75.5016230">
        <ele>2282.5</ele>
        <time>2021-04-17T21:39:01Z</time>
      </trkpt>
      <trkpt lat="5.0169820" lon="-75.5016620">
        <ele>2281.0</ele>
        <time>2021-04-17T21:39:02Z</time>
      </trkpt>
      <trkpt lat="5.0170770" lon="-75.5016860">
        <ele>2279.6</ele>
        <time>2021-04-17T21:39:03Z</time>
      </trkpt>
      <trkpt lat="5.0171730" lon="-75.5016840">
        <ele>2278.3</ele>
        <time>2021-04-17T21:39:04Z</time>
      </trkpt>
      <trkpt lat="5.0172660" lon="-75.5016810">
        <ele>2277.0</ele>
        <time>2021-04-17T21:39:05Z</time>
      </trkpt>
      <trkpt lat="5.0173600" lon="-75.5016710">
        <ele>2275.7</ele>
        <time>2021-04-17T21:39:06Z</time>
      </trkpt>
      <trkpt lat="5.0174540" lon="-75.5016580">
        <ele>2274.4</ele>
        <time>2021-04-17T21:39:07Z</time>
      </trkpt>
      <trkpt lat="5.0175520" lon="-75.5016520">
        <ele>2273.1</ele>
        <time>2021-04-17T21:39:08Z</time>
      </trkpt>
      <trkpt lat="5.0176450" lon="-75.5016490">
        <ele>2271.7</ele>
        <time>2021-04-17T21:39:09Z</time>
      </trkpt>
      <trkpt lat="5.0177330" lon="-75.5016690">
        <ele>2270.4</ele>
        <time>2021-04-17T21:39:10Z</time>
      </trkpt>
      <trkpt lat="5.0178060" lon="-75.5017090">
        <ele>2269.2</ele>
        <time>2021-04-17T21:39:11Z</time>
      </trkpt>
      <trkpt lat="5.0178300" lon="-75.5018050">
        <ele>2267.9</ele>
        <time>2021-04-17T21:39:12Z</time>
      </trkpt>
      <trkpt lat="5.0178690" lon="-75.5018790">
        <ele>2266.7</ele>
        <time>2021-04-17T21:39:13Z</time>
      </trkpt>
      <trkpt lat="5.0179100" lon="-75.5019600">
        <ele>2265.5</ele>
        <time>2021-04-17T21:39:14Z</time>
      </trkpt>
      <trkpt lat="5.0179380" lon="-75.5020460">
        <ele>2264.3</ele>
        <time>2021-04-17T21:39:15Z</time>
      </trkpt>
      <trkpt lat="5.0179610" lon="-75.5021300">
        <ele>2263.2</ele>
        <time>2021-04-17T21:39:16Z</time>
      </trkpt>
      <trkpt lat="5.0179840" lon="-75.5022160">
        <ele>2261.8</ele>
        <time>2021-04-17T21:39:17Z</time>
      </trkpt>
      <trkpt lat="5.0180120" lon="-75.5023060">
        <ele>2260.9</ele>
        <time>2021-04-17T21:39:18Z</time>
      </trkpt>
      <trkpt lat="5.0180440" lon="-75.5023930">
        <ele>2259.9</ele>
        <time>2021-04-17T21:39:19Z</time>
      </trkpt>
      <trkpt lat="5.0180780" lon="-75.5024750">
        <ele>2259.0</ele>
        <time>2021-04-17T21:39:20Z</time>
      </trkpt>
      <trkpt lat="5.0181210" lon="-75.5025480">
        <ele>2258.1</ele>
        <time>2021-04-17T21:39:21Z</time>
      </trkpt>
      <trkpt lat="5.0181660" lon="-75.5026260">
        <ele>2257.3</ele>
        <time>2021-04-17T21:39:22Z</time>
      </trkpt>
      <trkpt lat="5.0182090" lon="-75.5027100">
        <ele>2256.4</ele>
        <time>2021-04-17T21:39:23Z</time>
      </trkpt>
      <trkpt lat="5.0182510" lon="-75.5027930">
        <ele>2255.6</ele>
        <time>2021-04-17T21:39:24Z</time>
      </trkpt>
      <trkpt lat="5.0182890" lon="-75.5028790">
        <ele>2254.9</ele>
        <time>2021-04-17T21:39:25Z</time>
      </trkpt>
      <trkpt lat="5.0183220" lon="-75.5029600">
        <ele>2254.1</ele>
        <time>2021-04-17T21:39:26Z</time>
      </trkpt>
      <trkpt lat="5.0183520" lon="-75.5030430">
        <ele>2253.4</ele>
        <time>2021-04-17T21:39:27Z</time>
      </trkpt>
      <trkpt lat="5.0183820" lon="-75.5031260">
        <ele>2252.6</ele>
        <time>2021-04-17T21:39:28Z</time>
      </trkpt>
      <trkpt lat="5.0184060" lon="-75.5032100">
        <ele>2251.8</ele>
        <time>2021-04-17T21:39:29Z</time>
      </trkpt>
      <trkpt lat="5.0184190" lon="-75.5032950">
        <ele>2251.0</ele>
        <time>2021-04-17T21:39:30Z</time>
      </trkpt>
      <trkpt lat="5.0184170" lon="-75.5033830">
        <ele>2250.2</ele>
        <time>2021-04-17T21:39:31Z</time>
      </trkpt>
      <trkpt lat="5.0184070" lon="-75.5034770">
        <ele>2249.3</ele>
        <time>2021-04-17T21:39:32Z</time>
      </trkpt>
      <trkpt lat="5.0183960" lon="-75.5035680">
        <ele>2248.5</ele>
        <time>2021-04-17T21:39:33Z</time>
      </trkpt>
      <trkpt lat="5.0183780" lon="-75.5036510">
        <ele>2247.7</ele>
        <time>2021-04-17T21:39:34Z</time>
      </trkpt>
      <trkpt lat="5.0183440" lon="-75.5037330">
        <ele>2247.0</ele>
        <time>2021-04-17T21:39:35Z</time>
      </trkpt>
      <trkpt lat="5.0182850" lon="-75.5037980">
        <ele>2246.2</ele>
        <time>2021-04-17T21:39:36Z</time>
      </trkpt>
      <trkpt lat="5.0182270" lon="-75.5038650">
        <ele>2245.5</ele>
        <time>2021-04-17T21:39:37Z</time>
      </trkpt>
      <trkpt lat="5.0181530" lon="-75.5039070">
        <ele>2244.8</ele>
        <time>2021-04-17T21:39:38Z</time>
      </trkpt>
      <trkpt lat="5.0180960" lon="-75.5039510">
        <ele>2244.2</ele>
        <time>2021-04-17T21:39:39Z</time>
      </trkpt>
      <trkpt lat="5.0180460" lon="-75.5040060">
        <ele>2243.6</ele>
        <time>2021-04-17T21:39:40Z</time>
      </trkpt>
      <trkpt lat="5.0180110" lon="-75.5040880">
        <ele>2242.8</ele>
        <time>2021-04-17T21:39:41Z</time>
      </trkpt>
      <trkpt lat="5.0179900" lon="-75.5041630">
        <ele>2242.1</ele>
        <time>2021-04-17T21:39:42Z</time>
      </trkpt>
      <trkpt lat="5.0179860" lon="-75.5042360">
        <ele>2241.5</ele>
        <time>2021-04-17T21:39:43Z</time>
      </trkpt>
      <trkpt lat="5.0180050" lon="-75.5042990">
        <ele>2241.0</ele>
        <time>2021-04-17T21:39:44Z</time>
      </trkpt>
      <trkpt lat="5.0180940" lon="-75.5043370">
        <ele>2240.2</ele>
        <time>2021-04-17T21:39:45Z</time>
      </trkpt>
      <trkpt lat="5.0181510" lon="-75.5043860">
        <ele>2239.5</ele>
        <time>2021-04-17T21:39:46Z</time>
      </trkpt>
      <trkpt lat="5.0181990" lon="-75.5044330">
        <ele>2238.9</ele>
        <time>2021-04-17T21:39:47Z</time>
      </trkpt>
      <trkpt lat="5.0182420" lon="-75.5044730">
        <ele>2238.3</ele>
        <time>2021-04-17T21:39:48Z</time>
      </trkpt>
      <trkpt lat="5.0182690" lon="-75.5045160">
        <ele>2237.8</ele>
        <time>2021-04-17T21:39:49Z</time>
      </trkpt>
      <trkpt lat="5.0182780" lon="-75.5045540">
        <ele>2237.4</ele>
        <time>2021-04-17T21:39:50Z</time>
      </trkpt>
      <trkpt lat="5.0182830" lon="-75.5045870">
        <ele>2237.1</ele>
        <time>2021-04-17T21:39:51Z</time>
      </trkpt>
      <trkpt lat="5.0182730" lon="-75.5046240">
        <ele>2236.7</ele>
        <time>2021-04-17T21:39:52Z</time>
      </trkpt>
      <trkpt lat="5.0182470" lon="-75.5046820">
        <ele>2236.1</ele>
        <time>2021-04-17T21:39:53Z</time>
      </trkpt>
      <trkpt lat="5.0182260" lon="-75.5047380">
        <ele>2235.4</ele>
        <time>2021-04-17T21:39:54Z</time>
      </trkpt>
      <trkpt lat="5.0182140" lon="-75.5048000">
        <ele>2234.8</ele>
        <time>2021-04-17T21:39:55Z</time>
      </trkpt>
      <trkpt lat="5.0182140" lon="-75.5048710">
        <ele>2234.0</ele>
        <time>2021-04-17T21:39:56Z</time>
      </trkpt>
      <trkpt lat="5.0182260" lon="-75.5049390">
        <ele>2233.3</ele>
        <time>2021-04-17T21:39:57Z</time>
      </trkpt>
      <trkpt lat="5.0182310" lon="-75.5050080">
        <ele>2232.6</ele>
        <time>2021-04-17T21:39:58Z</time>
      </trkpt>
      <trkpt lat="5.0182270" lon="-75.5050730">
        <ele>2232.0</ele>
        <time>2021-04-17T21:39:59Z</time>
      </trkpt>
      <trkpt lat="5.0182080" lon="-75.5051280">
        <ele>2231.4</ele>
        <time>2021-04-17T21:40:00Z</time>
      </trkpt>
      <trkpt lat="5.0181730" lon="-75.5051670">
        <ele>2230.9</ele>
        <time>2021-04-17T21:40:01Z</time>
      </trkpt>
      <trkpt lat="5.0181230" lon="-75.5052030">
        <ele>2230.4</ele>
        <time>2021-04-17T21:40:02Z</time>
      </trkpt>
      <trkpt lat="5.0180650" lon="-75.5052350">
        <ele>2229.7</ele>
        <time>2021-04-17T21:40:03Z</time>
      </trkpt>
      <trkpt lat="5.0179940" lon="-75.5052440">
        <ele>2229.1</ele>
        <time>2021-04-17T21:40:04Z</time>
      </trkpt>
      <trkpt lat="5.0179350" lon="-75.5052820">
        <ele>2228.5</ele>
        <time>2021-04-17T21:40:05Z</time>
      </trkpt>
      <trkpt lat="5.0178850" lon="-75.5053320">
        <ele>2227.9</ele>
        <time>2021-04-17T21:40:06Z</time>
      </trkpt>
      <trkpt lat="5.0178400" lon="-75.5053760">
        <ele>2227.3</ele>
        <time>2021-04-17T21:40:07Z</time>
      </trkpt>
      <trkpt lat="5.0177940" lon="-75.5054300">
        <ele>2226.8</ele>
        <time>2021-04-17T21:40:08Z</time>
      </trkpt>
      <trkpt lat="5.0177450" lon="-75.5055190">
        <ele>2226.0</ele>
        <time>2021-04-17T21:40:09Z</time>
      </trkpt>
      <trkpt lat="5.0177120" lon="-75.5055950">
        <ele>2225.3</ele>
        <time>2021-04-17T21:40:10Z</time>
      </trkpt>
      <trkpt lat="5.0177040" lon="-75.5056920">
        <ele>2224.6</ele>
        <time>2021-04-17T21:40:11Z</time>
      </trkpt>
      <trkpt lat="5.0176910" lon="-75.5057790">
        <ele>2223.8</ele>
        <time>2021-04-17T21:40:12Z</time>
      </trkpt>
      <trkpt lat="5.0176730" lon="-75.5058610">
        <ele>2223.1</ele>
        <time>2021-04-17T21:40:13Z</time>
      </trkpt>
      <trkpt lat="5.0176520" lon="-75.5059450">
        <ele>2222.4</ele>
        <time>2021-04-17T21:40:14Z</time>
      </trkpt>
      <trkpt lat="5.0176370" lon="-75.5060300">
        <ele>2221.7</ele>
        <time>2021-04-17T21:40:15Z</time>
      </trkpt>
      <trkpt lat="5.0176330" lon="-75.5061120">
        <ele>2221.0</ele>
        <time>2021-04-17T21:40:16Z</time>
      </trkpt>
      <trkpt lat="5.0176270" lon="-75.5061920">
        <ele>2220.3</ele>
        <time>2021-04-17T21:40:17Z</time>
      </trkpt>
      <trkpt lat="5.0176170" lon="-75.5062670">
        <ele>2219.7</ele>
        <time>2021-04-17T21:40:18Z</time>
      </trkpt>
      <trkpt lat="5.0175980" lon="-75.5063370">
        <ele>2219.1</ele>
        <time>2021-04-17T21:40:19Z</time>
      </trkpt>
      <trkpt lat="5.0175720" lon="-75.5064010">
        <ele>2218.5</ele>
        <time>2021-04-17T21:40:20Z</time>
      </trkpt>
      <trkpt lat="5.0175290" lon="-75.5064630">
        <ele>2217.9</ele>
        <time>2021-04-17T21:40:21Z</time>
      </trkpt>
      <trkpt lat="5.0174790" lon="-75.5065210">
        <ele>2217.1</ele>
        <time>2021-04-17T21:40:22Z</time>
      </trkpt>
      <trkpt lat="5.0174270" lon="-75.5065760">
        <ele>2216.4</ele>
        <time>2021-04-17T21:40:23Z</time>
      </trkpt>
      <trkpt lat="5.0173730" lon="-75.5066310">
        <ele>2215.6</ele>
        <time>2021-04-17T21:40:24Z</time>
      </trkpt>
      <trkpt lat="5.0173160" lon="-75.5066810">
        <ele>2214.8</ele>
        <time>2021-04-17T21:40:25Z</time>
      </trkpt>
      <trkpt lat="5.0172560" lon="-75.5067430">
        <ele>2214.0</ele>
        <time>2021-04-17T21:40:26Z</time>
      </trkpt>
      <trkpt lat="5.0172000" lon="-75.5068060">
        <ele>2213.2</ele>
        <time>2021-04-17T21:40:27Z</time>
      </trkpt>
      <trkpt lat="5.0171520" lon="-75.5068730">
        <ele>2212.3</ele>
        <time>2021-04-17T21:40:28Z</time>
      </trkpt>
      <trkpt lat="5.0171110" lon="-75.5069430">
        <ele>2211.4</ele>
        <time>2021-04-17T21:40:29Z</time>
      </trkpt>
      <trkpt lat="5.0170710" lon="-75.5070110">
        <ele>2210.5</ele>
        <time>2021-04-17T21:40:30Z</time>
      </trkpt>
      <trkpt lat="5.0170470" lon="-75.5070730">
        <ele>2209.8</ele>
        <time>2021-04-17T21:40:31Z</time>
      </trkpt>
      <trkpt lat="5.0171050" lon="-75.5071160">
        <ele>2209.1</ele>
        <time>2021-04-17T21:40:32Z</time>
      </trkpt>
      <trkpt lat="5.0171430" lon="-75.5071660">
        <ele>2208.4</ele>
        <time>2021-04-17T21:40:33Z</time>
      </trkpt>
      <trkpt lat="5.0171840" lon="-75.5072070">
        <ele>2207.8</ele>
        <time>2021-04-17T21:40:34Z</time>
      </trkpt>
      <trkpt lat="5.0172420" lon="-75.5072110">
        <ele>2207.2</ele>
        <time>2021-04-17T21:40:35Z</time>
      </trkpt>
      <trkpt lat="5.0172960" lon="-75.5072100">
        <ele>2206.6</ele>
        <time>2021-04-17T21:40:36Z</time>
      </trkpt>
      <trkpt lat="5.0173740" lon="-75.5071760">
        <ele>2205.7</ele>
        <time>2021-04-17T21:40:37Z</time>
      </trkpt>
      <trkpt lat="5.0174520" lon="-75.5071510">
        <ele>2204.8</ele>
        <time>2021-04-17T21:40:38Z</time>
      </trkpt>
      <trkpt lat="5.0175310" lon="-75.5071370">
        <ele>2203.8</ele>
        <time>2021-04-17T21:40:39Z</time>
      </trkpt>
      <trkpt lat="5.0176140" lon="-75.5071320">
        <ele>2202.8</ele>
        <time>2021-04-17T21:40:40Z</time>
      </trkpt>
      <trkpt lat="5.0177020" lon="-75.5071360">
        <ele>2201.8</ele>
        <time>2021-04-17T21:40:41Z</time>
      </trkpt>
      <trkpt lat="5.0178170" lon="-75.5071540">
        <ele>2200.5</ele>
        <time>2021-04-17T21:40:42Z</time>
      </trkpt>
      <trkpt lat="5.0179180" lon="-75.5071800">
        <ele>2199.5</ele>
        <time>2021-04-17T21:40:43Z</time>
      </trkpt>
      <trkpt lat="5.0180200" lon="-75.5072050">
        <ele>2198.4</ele>
        <time>2021-04-17T21:40:44Z</time>
      </trkpt>
      <trkpt lat="5.0181220" lon="-75.5072240">
        <ele>2197.3</ele>
        <time>2021-04-17T21:40:45Z</time>
      </trkpt>
      <trkpt lat="5.0182260" lon="-75.5072330">
        <ele>2196.2</ele>
        <time>2021-04-17T21:40:46Z</time>
      </trkpt>
      <trkpt lat="5.0183220" lon="-75.5072440">
        <ele>2195.1</ele>
        <time>2021-04-17T21:40:47Z</time>
      </trkpt>
      <trkpt lat="5.0184170" lon="-75.5072580">
        <ele>2194.0</ele>
        <time>2021-04-17T21:40:48Z</time>
      </trkpt>
      <trkpt lat="5.0185100" lon="-75.5072750">
        <ele>2192.9</ele>
        <time>2021-04-17T21:40:49Z</time>
      </trkpt>
      <trkpt lat="5.0185980" lon="-75.5072910">
        <ele>2192.0</ele>
        <time>2021-04-17T21:40:50Z</time>
      </trkpt>
      <trkpt lat="5.0186870" lon="-75.5073060">
        <ele>2191.0</ele>
        <time>2021-04-17T21:40:51Z</time>
      </trkpt>
      <trkpt lat="5.0187780" lon="-75.5073200">
        <ele>2190.0</ele>
        <time>2021-04-17T21:40:52Z</time>
      </trkpt>
      <trkpt lat="5.0188660" lon="-75.5073380">
        <ele>2189.0</ele>
        <time>2021-04-17T21:40:53Z</time>
      </trkpt>
      <trkpt lat="5.0189530" lon="-75.5073470">
        <ele>2188.0</ele>
        <time>2021-04-17T21:40:54Z</time>
      </trkpt>
      <trkpt lat="5.0190290" lon="-75.5073670">
        <ele>2187.2</ele>
        <time>2021-04-17T21:40:55Z</time>
      </trkpt>
      <trkpt lat="5.0191050" lon="-75.5073930">
        <ele>2186.4</ele>
        <time>2021-04-17T21:40:56Z</time>
      </trkpt>
      <trkpt lat="5.0191810" lon="-75.5074230">
        <ele>2185.8</ele>
        <time>2021-04-17T21:40:57Z</time>
      </trkpt>
      <trkpt lat="5.0192530" lon="-75.5074580">
        <ele>2185.2</ele>
        <time>2021-04-17T21:40:58Z</time>
      </trkpt>
      <trkpt lat="5.0193250" lon="-75.5074950">
        <ele>2184.6</ele>
        <time>2021-04-17T21:40:59Z</time>
      </trkpt>
      <trkpt lat="5.0194030" lon="-75.5075180">
        <ele>2184.0</ele>
        <time>2021-04-17T21:41:00Z</time>
      </trkpt>
      <trkpt lat="5.0194770" lon="-75.5075300">
        <ele>2183.4</ele>
        <time>2021-04-17T21:41:01Z</time>
      </trkpt>
      <trkpt lat="5.0195480" lon="-75.5075250">
        <ele>2182.6</ele>
        <time>2021-04-17T21:41:02Z</time>
      </trkpt>
      <trkpt lat="5.0196100" lon="-75.5075060">
        <ele>2182.0</ele>
        <time>2021-04-17T21:41:03Z</time>
      </trkpt>
      <trkpt lat="5.0196710" lon="-75.5074720">
        <ele>2181.3</ele>
        <time>2021-04-17T21:41:04Z</time>
      </trkpt>
      <trkpt lat="5.0197330" lon="-75.5074490">
        <ele>2180.8</ele>
        <time>2021-04-17T21:41:05Z</time>
      </trkpt>
      <trkpt lat="5.0198070" lon="-75.5074620">
        <ele>2180.2</ele>
        <time>2021-04-17T21:41:06Z</time>
      </trkpt>
      <trkpt lat="5.0198790" lon="-75.5074840">
        <ele>2179.7</ele>
        <time>2021-04-17T21:41:07Z</time>
      </trkpt>
      <trkpt lat="5.0199530" lon="-75.5075130">
        <ele>2179.0</ele>
        <time>2021-04-17T21:41:08Z</time>
      </trkpt>
      <trkpt lat="5.0200250" lon="-75.5075470">
        <ele>2178.4</ele>
        <time>2021-04-17T21:41:09Z</time>
      </trkpt>
      <trkpt lat="5.0200980" lon="-75.5075810">
        <ele>2177.6</ele>
        <time>2021-04-17T21:41:10Z</time>
      </trkpt>
      <trkpt lat="5.0201710" lon="-75.5076170">
        <ele>2176.8</ele>
        <time>2021-04-17T21:41:11Z</time>
      </trkpt>
      <trkpt lat="5.0202430" lon="-75.5076540">
        <ele>2176.0</ele>
        <time>2021-04-17T21:41:12Z</time>
      </trkpt>
      <trkpt lat="5.0203070" lon="-75.5076920">
        <ele>2175.3</ele>
        <time>2021-04-17T21:41:13Z</time>
      </trkpt>
      <trkpt lat="5.0203620" lon="-75.5077400">
        <ele>2174.5</ele>
        <time>2021-04-17T21:41:14Z</time>
      </trkpt>
      <trkpt lat="5.0204080" lon="-75.5077960">
        <ele>2173.8</ele>
        <time>2021-04-17T21:41:15Z</time>
      </trkpt>
      <trkpt lat="5.0204380" lon="-75.5078610">
        <ele>2173.0</ele>
        <time>2021-04-17T21:41:16Z</time>
      </trkpt>
      <trkpt lat="5.0204560" lon="-75.5079320">
        <ele>2172.2</ele>
        <time>2021-04-17T21:41:17Z</time>
      </trkpt>
      <trkpt lat="5.0204620" lon="-75.5080050">
        <ele>2171.5</ele>
        <time>2021-04-17T21:41:18Z</time>
      </trkpt>
      <trkpt lat="5.0204350" lon="-75.5080800">
        <ele>2170.8</ele>
        <time>2021-04-17T21:41:19Z</time>
      </trkpt>
      <trkpt lat="5.0203760" lon="-75.5081550">
        <ele>2170.0</ele>
        <time>2021-04-17T21:41:20Z</time>
      </trkpt>
      <trkpt lat="5.0203300" lon="-75.5082210">
        <ele>2169.3</ele>
        <time>2021-04-17T21:41:21Z</time>
      </trkpt>
      <trkpt lat="5.0202740" lon="-75.5082900">
        <ele>2168.5</ele>
        <time>2021-04-17T21:41:22Z</time>
      </trkpt>
      <trkpt lat="5.0202220" lon="-75.5083580">
        <ele>2167.7</ele>
        <time>2021-04-17T21:41:23Z</time>
      </trkpt>
      <trkpt lat="5.0201790" lon="-75.5084250">
        <ele>2166.9</ele>
        <time>2021-04-17T21:41:24Z</time>
      </trkpt>
      <trkpt lat="5.0201560" lon="-75.5085100">
        <ele>2166.1</ele>
        <time>2021-04-17T21:41:25Z</time>
      </trkpt>
      <trkpt lat="5.0201510" lon="-75.5085930">
        <ele>2165.3</ele>
        <time>2021-04-17T21:41:26Z</time>
      </trkpt>
      <trkpt lat="5.0201550" lon="-75.5086760">
        <ele>2164.6</ele>
        <time>2021-04-17T21:41:27Z</time>
      </trkpt>
      <trkpt lat="5.0201800" lon="-75.5087480">
        <ele>2163.9</ele>
        <time>2021-04-17T21:41:28Z</time>
      </trkpt>
      <trkpt lat="5.0202620" lon="-75.5087800">
        <ele>2163.2</ele>
        <time>2021-04-17T21:41:29Z</time>
      </trkpt>
      <trkpt lat="5.0203330" lon="-75.5088270">
        <ele>2162.5</ele>
        <time>2021-04-17T21:41:30Z</time>
      </trkpt>
      <trkpt lat="5.0204020" lon="-75.5088790">
        <ele>2161.7</ele>
        <time>2021-04-17T21:41:31Z</time>
      </trkpt>
      <trkpt lat="5.0204710" lon="-75.5089340">
        <ele>2160.9</ele>
        <time>2021-04-17T21:41:32Z</time>
      </trkpt>
      <trkpt lat="5.0205350" lon="-75.5089940">
        <ele>2160.1</ele>
        <time>2021-04-17T21:41:33Z</time>
      </trkpt>
      <trkpt lat="5.0205960" lon="-75.5090610">
        <ele>2159.4</ele>
        <time>2021-04-17T21:41:34Z</time>
      </trkpt>
      <trkpt lat="5.0206590" lon="-75.5091260">
        <ele>2158.6</ele>
        <time>2021-04-17T21:41:35Z</time>
      </trkpt>
      <trkpt lat="5.0207260" lon="-75.5091950">
        <ele>2157.7</ele>
        <time>2021-04-17T21:41:36Z</time>
      </trkpt>
      <trkpt lat="5.0208000" lon="-75.5092570">
        <ele>2156.9</ele>
        <time>2021-04-17T21:41:37Z</time>
      </trkpt>
      <trkpt lat="5.0208790" lon="-75.5093160">
        <ele>2156.0</ele>
        <time>2021-04-17T21:41:38Z</time>
      </trkpt>
      <trkpt lat="5.0209580" lon="-75.5093770">
        <ele>2155.0</ele>
        <time>2021-04-17T21:41:39Z</time>
      </trkpt>
      <trkpt lat="5.0210320" lon="-75.5094410">
        <ele>2154.1</ele>
        <time>2021-04-17T21:41:40Z</time>
      </trkpt>
      <trkpt lat="5.0211010" lon="-75.5095040">
        <ele>2153.2</ele>
        <time>2021-04-17T21:41:41Z</time>
      </trkpt>
      <trkpt lat="5.0211830" lon="-75.5095390">
        <ele>2152.4</ele>
        <time>2021-04-17T21:41:42Z</time>
      </trkpt>
      <trkpt lat="5.0212540" lon="-75.5095800">
        <ele>2151.7</ele>
        <time>2021-04-17T21:41:43Z</time>
      </trkpt>
      <trkpt lat="5.0213330" lon="-75.5096090">
        <ele>2151.1</ele>
        <time>2021-04-17T21:41:44Z</time>
      </trkpt>
      <trkpt lat="5.0214190" lon="-75.5096120">
        <ele>2150.6</ele>
        <time>2021-04-17T21:41:45Z</time>
      </trkpt>
      <trkpt lat="5.0215000" lon="-75.5095870">
        <ele>2150.0</ele>
        <time>2021-04-17T21:41:46Z</time>
      </trkpt>
      <trkpt lat="5.0215660" lon="-75.5095450">
        <ele>2149.3</ele>
        <time>2021-04-17T21:41:47Z</time>
      </trkpt>
      <trkpt lat="5.0216200" lon="-75.5094880">
        <ele>2148.5</ele>
        <time>2021-04-17T21:41:48Z</time>
      </trkpt>
      <trkpt lat="5.0216620" lon="-75.5094210">
        <ele>2147.6</ele>
        <time>2021-04-17T21:41:49Z</time>
      </trkpt>
      <trkpt lat="5.0217030" lon="-75.5093570">
        <ele>2146.8</ele>
        <time>2021-04-17T21:41:50Z</time>
      </trkpt>
      <trkpt lat="5.0217450" lon="-75.5092910">
        <ele>2146.1</ele>
        <time>2021-04-17T21:41:51Z</time>
      </trkpt>
      <trkpt lat="5.0217940" lon="-75.5092200">
        <ele>2145.5</ele>
        <time>2021-04-17T21:41:52Z</time>
      </trkpt>
      <trkpt lat="5.0218540" lon="-75.5091560">
        <ele>2144.9</ele>
        <time>2021-04-17T21:41:53Z</time>
      </trkpt>
      <trkpt lat="5.0219270" lon="-75.5090980">
        <ele>2144.0</ele>
        <time>2021-04-17T21:41:54Z</time>
      </trkpt>
      <trkpt lat="5.0220070" lon="-75.5090570">
        <ele>2143.0</ele>
        <time>2021-04-17T21:41:55Z</time>
      </trkpt>
      <trkpt lat="5.0220880" lon="-75.5090230">
        <ele>2142.0</ele>
        <time>2021-04-17T21:41:56Z</time>
      </trkpt>
      <trkpt lat="5.0221700" lon="-75.5089860">
        <ele>2141.0</ele>
        <time>2021-04-17T21:41:57Z</time>
      </trkpt>
      <trkpt lat="5.0222470" lon="-75.5089440">
        <ele>2140.0</ele>
        <time>2021-04-17T21:41:58Z</time>
      </trkpt>
      <trkpt lat="5.0223160" lon="-75.5088860">
        <ele>2138.7</ele>
        <time>2021-04-17T21:41:59Z</time>
      </trkpt>
      <trkpt lat="5.0223740" lon="-75.5088230">
        <ele>2137.4</ele>
        <time>2021-04-17T21:42:00Z</time>
      </trkpt>
      <trkpt lat="5.0224450" lon="-75.5087790">
        <ele>2136.1</ele>
        <time>2021-04-17T21:42:01Z</time>
      </trkpt>
      <trkpt lat="5.0225230" lon="-75.5087480">
        <ele>2135.0</ele>
        <time>2021-04-17T21:42:02Z</time>
      </trkpt>
      <trkpt lat="5.0226030" lon="-75.5087600">
        <ele>2134.2</ele>
        <time>2021-04-17T21:42:03Z</time>
      </trkpt>
      <trkpt lat="5.0226990" lon="-75.5087810">
        <ele>2133.5</ele>
        <time>2021-04-17T21:42:04Z</time>
      </trkpt>
      <trkpt lat="5.0227990" lon="-75.5088330">
        <ele>2132.8</ele>
        <time>2021-04-17T21:42:05Z</time>
      </trkpt>
      <trkpt lat="5.0228990" lon="-75.5088820">
        <ele>2132.1</ele>
        <time>2021-04-17T21:42:06Z</time>
      </trkpt>
      <trkpt lat="5.0229850" lon="-75.5089310">
        <ele>2131.3</ele>
        <time>2021-04-17T21:42:07Z</time>
      </trkpt>
      <trkpt lat="5.0230670" lon="-75.5089690">
        <ele>2130.6</ele>
        <time>2021-04-17T21:42:08Z</time>
      </trkpt>
      <trkpt lat="5.0231410" lon="-75.5089910">
        <ele>2129.9</ele>
        <time>2021-04-17T21:42:09Z</time>
      </trkpt>
      <trkpt lat="5.0232160" lon="-75.5089910">
        <ele>2129.2</ele>
        <time>2021-04-17T21:42:10Z</time>
      </trkpt>
      <trkpt lat="5.0232830" lon="-75.5089550">
        <ele>2128.5</ele>
        <time>2021-04-17T21:42:11Z</time>
      </trkpt>
      <trkpt lat="5.0233470" lon="-75.5089070">
        <ele>2127.8</ele>
        <time>2021-04-17T21:42:12Z</time>
      </trkpt>
      <trkpt lat="5.0234060" lon="-75.5088520">
        <ele>2127.0</ele>
        <time>2021-04-17T21:42:13Z</time>
      </trkpt>
      <trkpt lat="5.0234620" lon="-75.5087930">
        <ele>2126.1</ele>
        <time>2021-04-17T21:42:14Z</time>
      </trkpt>
      <trkpt lat="5.0235180" lon="-75.5087370">
        <ele>2125.3</ele>
        <time>2021-04-17T21:42:15Z</time>
      </trkpt>
      <trkpt lat="5.0235850" lon="-75.5086840">
        <ele>2124.3</ele>
        <time>2021-04-17T21:42:16Z</time>
      </trkpt>
      <trkpt lat="5.0236420" lon="-75.5086690">
        <ele>2123.6</ele>
        <time>2021-04-17T21:42:17Z</time>
      </trkpt>
      <trkpt lat="5.0237040" lon="-75.5086780">
        <ele>2123.0</ele>
        <time>2021-04-17T21:42:18Z</time>
      </trkpt>
      <trkpt lat="5.0237720" lon="-75.5087160">
        <ele>2122.2</ele>
        <time>2021-04-17T21:42:19Z</time>
      </trkpt>
      <trkpt lat="5.0238250" lon="-75.5087710">
        <ele>2121.5</ele>
        <time>2021-04-17T21:42:20Z</time>
      </trkpt>
      <trkpt lat="5.0238550" lon="-75.5088310">
        <ele>2120.9</ele>
        <time>2021-04-17T21:42:21Z</time>
      </trkpt>
      <trkpt lat="5.0238610" lon="-75.5088920">
        <ele>2120.4</ele>
        <time>2021-04-17T21:42:22Z</time>
      </trkpt>
      <trkpt lat="5.0238640" lon="-75.5089490">
        <ele>2119.9</ele>
        <time>2021-04-17T21:42:23Z</time>
      </trkpt>
      <trkpt lat="5.0238790" lon="-75.5090010">
        <ele>2119.5</ele>
        <time>2021-04-17T21:42:24Z</time>
      </trkpt>
      <trkpt lat="5.0238690" lon="-75.5090870">
        <ele>2118.8</ele>
        <time>2021-04-17T21:42:25Z</time>
      </trkpt>
      <trkpt lat="5.0238800" lon="-75.5091660">
        <ele>2118.1</ele>
        <time>2021-04-17T21:42:26Z</time>
      </trkpt>
      <trkpt lat="5.0238970" lon="-75.5092440">
        <ele>2117.4</ele>
        <time>2021-04-17T21:42:27Z</time>
      </trkpt>
      <trkpt lat="5.0239070" lon="-75.5093200">
        <ele>2116.8</ele>
        <time>2021-04-17T21:42:28Z</time>
      </trkpt>
      <trkpt lat="5.0239220" lon="-75.5093820">
        <ele>2116.2</ele>
        <time>2021-04-17T21:42:29Z</time>
      </trkpt>
      <trkpt lat="5.0239250" lon="-75.5094460">
        <ele>2115.7</ele>
        <time>2021-04-17T21:42:30Z</time>
      </trkpt>
      <trkpt lat="5.0238970" lon="-75.5095280">
        <ele>2115.0</ele>
        <time>2021-04-17T21:42:31Z</time>
      </trkpt>
      <trkpt lat="5.0238650" lon="-75.5096100">
        <ele>2114.2</ele>
        <time>2021-04-17T21:42:32Z</time>
      </trkpt>
      <trkpt lat="5.0238350" lon="-75.5096940">
        <ele>2113.5</ele>
        <time>2021-04-17T21:42:33Z</time>
      </trkpt>
      <trkpt lat="5.0238190" lon="-75.5097950">
        <ele>2112.7</ele>
        <time>2021-04-17T21:42:34Z</time>
      </trkpt>
      <trkpt lat="5.0238130" lon="-75.5098920">
        <ele>2111.9</ele>
        <time>2021-04-17T21:42:35Z</time>
      </trkpt>
      <trkpt lat="5.0238500" lon="-75.5099670">
        <ele>2111.3</ele>
        <time>2021-04-17T21:42:36Z</time>
      </trkpt>
      <trkpt lat="5.0238920" lon="-75.5100390">
        <ele>2110.7</ele>
        <time>2021-04-17T21:42:37Z</time>
      </trkpt>
      <trkpt lat="5.0239450" lon="-75.5101020">
        <ele>2110.1</ele>
        <time>2021-04-17T21:42:38Z</time>
      </trkpt>
      <trkpt lat="5.0240050" lon="-75.5101630">
        <ele>2109.5</ele>
        <time>2021-04-17T21:42:39Z</time>
      </trkpt>
      <trkpt lat="5.0240680" lon="-75.5102250">
        <ele>2108.8</ele>
        <time>2021-04-17T21:42:40Z</time>
      </trkpt>
      <trkpt lat="5.0241340" lon="-75.5102870">
        <ele>2108.1</ele>
        <time>2021-04-17T21:42:41Z</time>
      </trkpt>
      <trkpt lat="5.0242050" lon="-75.5103430">
        <ele>2107.4</ele>
        <time>2021-04-17T21:42:42Z</time>
      </trkpt>
      <trkpt lat="5.0242780" lon="-75.5103990">
        <ele>2106.7</ele>
        <time>2021-04-17T21:42:43Z</time>
      </trkpt>
      <trkpt lat="5.0243670" lon="-75.5104340">
        <ele>2105.9</ele>
        <time>2021-04-17T21:42:44Z</time>
      </trkpt>
      <trkpt lat="5.0244630" lon="-75.5104570">
        <ele>2105.0</ele>
        <time>2021-04-17T21:42:45Z</time>
      </trkpt>
      <trkpt lat="5.0245630" lon="-75.5104700">
        <ele>2104.1</ele>
        <time>2021-04-17T21:42:46Z</time>
      </trkpt>
      <trkpt lat="5.0246650" lon="-75.5104560">
        <ele>2103.3</ele>
        <time>2021-04-17T21:42:47Z</time>
      </trkpt>
      <trkpt lat="5.0247660" lon="-75.5104390">
        <ele>2102.5</ele>
        <time>2021-04-17T21:42:48Z</time>
      </trkpt>
      <trkpt lat="5.0248680" lon="-75.5104200">
        <ele>2101.7</ele>
        <time>2021-04-17T21:42:49Z</time>
      </trkpt>
      <trkpt lat="5.0249720" lon="-75.5104040">
        <ele>2100.9</ele>
        <time>2021-04-17T21:42:50Z</time>
      </trkpt>
      <trkpt lat="5.0250700" lon="-75.5103950">
        <ele>2100.2</ele>
        <time>2021-04-17T21:42:51Z</time>
      </trkpt>
      <trkpt lat="5.0251590" lon="-75.5103990">
        <ele>2099.7</ele>
        <time>2021-04-17T21:42:52Z</time>
      </trkpt>
      <trkpt lat="5.0252210" lon="-75.5104030">
        <ele>2099.3</ele>
        <time>2021-04-17T21:42:53Z</time>
      </trkpt>
      <trkpt lat="5.0252500" lon="-75.5104160">
        <ele>2099.1</ele>
        <time>2021-04-17T21:42:54Z</time>
      </trkpt>
      <trkpt lat="5.0252520" lon="-75.5104190">
        <ele>2099.1</ele>
        <time>2021-04-17T21:42:55Z</time>
      </trkpt>
      <trkpt lat="5.0252510" lon="-75.5104170">
        <ele>2099.1</ele>
        <time>2021-04-17T21:42:56Z</time>
      </trkpt>
      <trkpt lat="5.0252490" lon="-75.5104180">
        <ele>2099.0</ele>
        <time>2021-04-17T21:42:57Z</time>
      </trkpt>
      <trkpt lat="5.0252480" lon="-75.5104180">
        <ele>2099.0</ele>
        <time>2021-04-17T21:42:58Z</time>
      </trkpt>
      <trkpt lat="5.0252460" lon="-75.5104230">
        <ele>2099.0</ele>
        <time>2021-04-17T21:42:59Z</time>
      </trkpt>
      <trkpt lat="5.0252420" lon="-75.5104270">
        <ele>2099.0</ele>
        <time>2021-04-17T21:43:00Z</time>
      </trkpt>
      <trkpt lat="5.0252380" lon="-75.5104280">
        <ele>2098.9</ele>
        <time>2021-04-17T21:43:01Z</time>
      </trkpt>
      <trkpt lat="5.0252360" lon="-75.5104290">
        <ele>2098.9</ele>
        <time>2021-04-17T21:43:02Z</time>
      </trkpt>
      <trkpt lat="5.0252340" lon="-75.5104290">
        <ele>2098.9</ele>
        <time>2021-04-17T21:43:03Z</time>
      </trkpt>
      <trkpt lat="5.0252310" lon="-75.5104280">
        <ele>2098.9</ele>
        <time>2021-04-17T21:43:04Z</time>
      </trkpt>
      <trkpt lat="5.0252290" lon="-75.5104290">
        <ele>2098.9</ele>
        <time>2021-04-17T21:43:05Z</time>
      </trkpt>
      <trkpt lat="5.0252270" lon="-75.5104300">
        <ele>2098.9</ele>
        <time>2021-04-17T21:43:06Z</time>
      </trkpt>
      <trkpt lat="5.0252250" lon="-75.5104300">
        <ele>2098.9</ele>
        <time>2021-04-17T21:43:07Z</time>
      </trkpt>
      <trkpt lat="5.0252240" lon="-75.5104290">
        <ele>2098.9</ele>
        <time>2021-04-17T21:43:08Z</time>
      </trkpt>
      <trkpt lat="5.0252230" lon="-75.5104290">
        <ele>2098.8</ele>
        <time>2021-04-17T21:43:09Z</time>
      </trkpt>
      <trkpt lat="5.0252210" lon="-75.5104300">
        <ele>2098.8</ele>
        <time>2021-04-17T21:43:10Z</time>
      </trkpt>
      <trkpt lat="5.0252190" lon="-75.5104310">
        <ele>2098.8</ele>
        <time>2021-04-17T21:43:11Z</time>
      </trkpt>
      <trkpt lat="5.0252190" lon="-75.5104320">
        <ele>2098.8</ele>
        <time>2021-04-17T21:43:12Z</time>
      </trkpt>
      <trkpt lat="5.0252180" lon="-75.5104330">
        <ele>2098.8</ele>
        <time>2021-04-17T21:43:13Z</time>
      </trkpt>
      <trkpt lat="5.0252170" lon="-75.5104340">
        <ele>2098.8</ele>
        <time>2021-04-17T21:43:14Z</time>
      </trkpt>
      <trkpt lat="5.0252170" lon="-75.5104350">
        <ele>2098.8</ele>
        <time>2021-04-17T21:43:15Z</time>
      </trkpt>
      <trkpt lat="5.0252160" lon="-75.5104350">
        <ele>2098.8</ele>
        <time>2021-04-17T21:43:16Z</time>
      </trkpt>
      <trkpt lat="5.0252160" lon="-75.5104360">
        <ele>2098.8</ele>
        <time>2021-04-17T21:43:17Z</time>
      </trkpt>
      <trkpt lat="5.0252140" lon="-75.5104370">
        <ele>2098.8</ele>
        <time>2021-04-17T21:43:18Z</time>
      </trkpt>
      <trkpt lat="5.0252140" lon="-75.5104370">
        <ele>2098.8</ele>
        <time>2021-04-17T21:43:19Z</time>
      </trkpt>
      <trkpt lat="5.0252150" lon="-75.5104380">
        <ele>2098.8</ele>
        <time>2021-04-17T21:43:20Z</time>
      </trkpt>
      <trkpt lat="5.0252140" lon="-75.5104380">
        <ele>2098.8</ele>
        <time>2021-04-17T21:43:21Z</time>
      </trkpt>
      <trkpt lat="5.0252150" lon="-75.5104410">
        <ele>2098.7</ele>
        <time>2021-04-17T21:43:22Z</time>
      </trkpt>
      <trkpt lat="5.0252110" lon="-75.5104410">
        <ele>2098.7</ele>
        <time>2021-04-17T21:43:23Z</time>
      </trkpt>
      <trkpt lat="5.0252100" lon="-75.5104400">
        <ele>2098.7</ele>
        <time>2021-04-17T21:43:24Z</time>
      </trkpt>
      <trkpt lat="5.0252100" lon="-75.5104390">
        <ele>2098.7</ele>
        <time>2021-04-17T21:43:25Z</time>
      </trkpt>
      <trkpt lat="5.0252130" lon="-75.5104330">
        <ele>2098.7</ele>
        <time>2021-04-17T21:43:26Z</time>
      </trkpt>
      <trkpt lat="5.0252150" lon="-75.5104290">
        <ele>2098.6</ele>
        <time>2021-04-17T21:43:27Z</time>
      </trkpt>
      <trkpt lat="5.0252150" lon="-75.5104260">
        <ele>2098.6</ele>
        <time>2021-04-17T21:43:28Z</time>
      </trkpt>
      <trkpt lat="5.0252150" lon="-75.5104260">
        <ele>2098.6</ele>
        <time>2021-04-17T21:43:29Z</time>
      </trkpt>
      <trkpt lat="5.0252160" lon="-75.5104290">
        <ele>2098.6</ele>
        <time>2021-04-17T21:43:30Z</time>
      </trkpt>
      <trkpt lat="5.0252160" lon="-75.5104290">
        <ele>2098.6</ele>
        <time>2021-04-17T21:43:31Z</time>
      </trkpt>
      <trkpt lat="5.0252170" lon="-75.5104310">
        <ele>2098.6</ele>
        <time>2021-04-17T21:43:32Z</time>
      </trkpt>
      <trkpt lat="5.0252150" lon="-75.5104320">
        <ele>2098.6</ele>
        <time>2021-04-17T21:43:33Z</time>
      </trkpt>
      <trkpt lat="5.0252130" lon="-75.5104330">
        <ele>2098.6</ele>
        <time>2021-04-17T21:43:34Z</time>
      </trkpt>
      <trkpt lat="5.0252120" lon="-75.5104320">
        <ele>2098.6</ele>
        <time>2021-04-17T21:43:35Z</time>
      </trkpt>
      <trkpt lat="5.0252110" lon="-75.5104310">
        <ele>2098.6</ele>
        <time>2021-04-17T21:43:36Z</time>
      </trkpt>
      <trkpt lat="5.0252090" lon="-75.5104300">
        <ele>2098.5</ele>
        <time>2021-04-17T21:43:37Z</time>
      </trkpt>
      <trkpt lat="5.0252060" lon="-75.5104320">
        <ele>2098.5</ele>
        <time>2021-04-17T21:43:38Z</time>
      </trkpt>
      <trkpt lat="5.0252040" lon="-75.5104340">
        <ele>2098.5</ele>
        <time>2021-04-17T21:43:39Z</time>
      </trkpt>
      <trkpt lat="5.0252010" lon="-75.5104300">
        <ele>2098.5</ele>
        <time>2021-04-17T21:43:40Z</time>
      </trkpt>
      <trkpt lat="5.0252000" lon="-75.5104290">
        <ele>2098.5</ele>
        <time>2021-04-17T21:43:41Z</time>
      </trkpt>
      <trkpt lat="5.0251990" lon="-75.5104280">
        <ele>2098.5</ele>
        <time>2021-04-17T21:43:42Z</time>
      </trkpt>
      <trkpt lat="5.0252000" lon="-75.5104320">
        <ele>2098.4</ele>
        <time>2021-04-17T21:43:43Z</time>
      </trkpt>
      <trkpt lat="5.0251950" lon="-75.5104350">
        <ele>2098.4</ele>
        <time>2021-04-17T21:43:44Z</time>
      </trkpt>
      <trkpt lat="5.0251960" lon="-75.5104350">
        <ele>2098.4</ele>
        <time>2021-04-17T21:43:45Z</time>
      </trkpt>
      <trkpt lat="5.0251960" lon="-75.5104360">
        <ele>2098.4</ele>
        <time>2021-04-17T21:43:46Z</time>
      </trkpt>
      <trkpt lat="5.0251960" lon="-75.5104390">
        <ele>2098.4</ele>
        <time>2021-04-17T21:43:47Z</time>
      </trkpt>
      <trkpt lat="5.0251960" lon="-75.5104410">
        <ele>2098.4</ele>
        <time>2021-04-17T21:43:48Z</time>
      </trkpt>
      <trkpt lat="5.0251970" lon="-75.5104410">
        <ele>2098.4</ele>
        <time>2021-04-17T21:43:49Z</time>
      </trkpt>
      <trkpt lat="5.0251970" lon="-75.5104420">
        <ele>2098.4</ele>
        <time>2021-04-17T21:43:50Z</time>
      </trkpt>
      <trkpt lat="5.0251980" lon="-75.5104420">
        <ele>2098.3</ele>
        <time>2021-04-17T21:43:51Z</time>
      </trkpt>
      <trkpt lat="5.0251990" lon="-75.5104430">
        <ele>2098.3</ele>
        <time>2021-04-17T21:43:52Z</time>
      </trkpt>
      <trkpt lat="5.0252000" lon="-75.5104440">
        <ele>2098.3</ele>
        <time>2021-04-17T21:43:53Z</time>
      </trkpt>
      <trkpt lat="5.0252000" lon="-75.5104450">
        <ele>2098.3</ele>
        <time>2021-04-17T21:43:54Z</time>
      </trkpt>
      <trkpt lat="5.0252000" lon="-75.5104460">
        <ele>2098.3</ele>
        <time>2021-04-17T21:43:55Z</time>
      </trkpt>
      <trkpt lat="5.0252010" lon="-75.5104430">
        <ele>2098.3</ele>
        <time>2021-04-17T21:43:56Z</time>
      </trkpt>
      <trkpt lat="5.0252020" lon="-75.5104400">
        <ele>2098.3</ele>
        <time>2021-04-17T21:43:57Z</time>
      </trkpt>
      <trkpt lat="5.0252030" lon="-75.5104390">
        <ele>2098.3</ele>
        <time>2021-04-17T21:43:58Z</time>
      </trkpt>
      <trkpt lat="5.0252020" lon="-75.5104380">
        <ele>2098.3</ele>
        <time>2021-04-17T21:43:59Z</time>
      </trkpt>
      <trkpt lat="5.0252020" lon="-75.5104370">
        <ele>2098.3</ele>
        <time>2021-04-17T21:44:00Z</time>
      </trkpt>
      <trkpt lat="5.0252010" lon="-75.5104360">
        <ele>2098.3</ele>
        <time>2021-04-17T21:44:01Z</time>
      </trkpt>
      <trkpt lat="5.0252010" lon="-75.5104350">
        <ele>2098.3</ele>
        <time>2021-04-17T21:44:02Z</time>
      </trkpt>
      <trkpt lat="5.0252000" lon="-75.5104350">
        <ele>2098.2</ele>
        <time>2021-04-17T21:44:03Z</time>
      </trkpt>
      <trkpt lat="5.0251980" lon="-75.5104380">
        <ele>2098.2</ele>
        <time>2021-04-17T21:44:04Z</time>
      </trkpt>
      <trkpt lat="5.0251970" lon="-75.5104370">
        <ele>2098.2</ele>
        <time>2021-04-17T21:44:05Z</time>
      </trkpt>
      <trkpt lat="5.0251970" lon="-75.5104370">
        <ele>2098.2</ele>
        <time>2021-04-17T21:44:06Z</time>
      </trkpt>
      <trkpt lat="5.0251970" lon="-75.5104360">
        <ele>2098.2</ele>
        <time>2021-04-17T21:44:07Z</time>
      </trkpt>
      <trkpt lat="5.0251980" lon="-75.5104350">
        <ele>2098.2</ele>
        <time>2021-04-17T21:44:08Z</time>
      </trkpt>
      <trkpt lat="5.0251970" lon="-75.5104350">
        <ele>2098.2</ele>
        <time>2021-04-17T21:44:09Z</time>
      </trkpt>
      <trkpt lat="5.0251970" lon="-75.5104320">
        <ele>2098.2</ele>
        <time>2021-04-17T21:44:10Z</time>
      </trkpt>
      <trkpt lat="5.0251950" lon="-75.5104310">
        <ele>2098.2</ele>
        <time>2021-04-17T21:44:11Z</time>
      </trkpt>
      <trkpt lat="5.0251930" lon="-75.5104310">
        <ele>2098.2</ele>
        <time>2021-04-17T21:44:12Z</time>
      </trkpt>
      <trkpt lat="5.0251920" lon="-75.5104280">
        <ele>2098.1</ele>
        <time>2021-04-17T21:44:13Z</time>
      </trkpt>
      <trkpt lat="5.0251920" lon="-75.5104280">
        <ele>2098.1</ele>
        <time>2021-04-17T21:44:14Z</time>
      </trkpt>
      <trkpt lat="5.0251870" lon="-75.5104290">
        <ele>2098.1</ele>
        <time>2021-04-17T21:44:15Z</time>
      </trkpt>
      <trkpt lat="5.0251830" lon="-75.5104240">
        <ele>2098.1</ele>
        <time>2021-04-17T21:44:16Z</time>
      </trkpt>
      <trkpt lat="5.0251850" lon="-75.5104230">
        <ele>2098.1</ele>
        <time>2021-04-17T21:44:17Z</time>
      </trkpt>
      <trkpt lat="5.0251870" lon="-75.5104240">
        <ele>2098.1</ele>
        <time>2021-04-17T21:44:18Z</time>
      </trkpt>
      <trkpt lat="5.0251870" lon="-75.5104240">
        <ele>2098.1</ele>
        <time>2021-04-17T21:44:19Z</time>
      </trkpt>
      <trkpt lat="5.0251870" lon="-75.5104230">
        <ele>2098.0</ele>
        <time>2021-04-17T21:44:20Z</time>
      </trkpt>
      <trkpt lat="5.0251960" lon="-75.5104250">
        <ele>2098.0</ele>
        <time>2021-04-17T21:44:21Z</time>
      </trkpt>
      <trkpt lat="5.0251980" lon="-75.5104270">
        <ele>2098.0</ele>
        <time>2021-04-17T21:44:22Z</time>
      </trkpt>
      <trkpt lat="5.0251990" lon="-75.5104270">
        <ele>2098.0</ele>
        <time>2021-04-17T21:44:23Z</time>
      </trkpt>
      <trkpt lat="5.0252000" lon="-75.5104270">
        <ele>2098.0</ele>
        <time>2021-04-17T21:44:24Z</time>
      </trkpt>
      <trkpt lat="5.0251970" lon="-75.5104270">
        <ele>2098.0</ele>
        <time>2021-04-17T21:44:25Z</time>
      </trkpt>
      <trkpt lat="5.0251970" lon="-75.5104290">
        <ele>2097.9</ele>
        <time>2021-04-17T21:44:26Z</time>
      </trkpt>
      <trkpt lat="5.0251970" lon="-75.5104280">
        <ele>2097.9</ele>
        <time>2021-04-17T21:44:27Z</time>
      </trkpt>
      <trkpt lat="5.0251980" lon="-75.5104280">
        <ele>2097.9</ele>
        <time>2021-04-17T21:44:28Z</time>
      </trkpt>
      <trkpt lat="5.0251970" lon="-75.5104270">
        <ele>2097.9</ele>
        <time>2021-04-17T21:44:29Z</time>
      </trkpt>
      <trkpt lat="5.0251970" lon="-75.5104280">
        <ele>2097.9</ele>
        <time>2021-04-17T21:44:30Z</time>
      </trkpt>
      <trkpt lat="5.0251980" lon="-75.5104290">
        <ele>2097.9</ele>
        <time>2021-04-17T21:44:31Z</time>
      </trkpt>
      <trkpt lat="5.0252000" lon="-75.5104300">
        <ele>2097.9</ele>
        <time>2021-04-17T21:44:32Z</time>
      </trkpt>
      <trkpt lat="5.0252000" lon="-75.5104310">
        <ele>2097.9</ele>
        <time>2021-04-17T21:44:33Z</time>
      </trkpt>
      <trkpt lat="5.0252010" lon="-75.5104290">
        <ele>2097.9</ele>
        <time>2021-04-17T21:44:34Z</time>
      </trkpt>
      <trkpt lat="5.0252010" lon="-75.5104290">
        <ele>2097.9</ele>
        <time>2021-04-17T21:44:35Z</time>
      </trkpt>
      <trkpt lat="5.0251990" lon="-75.5104300">
        <ele>2097.9</ele>
        <time>2021-04-17T21:44:36Z</time>
      </trkpt>
      <trkpt lat="5.0251970" lon="-75.5104300">
        <ele>2097.9</ele>
        <time>2021-04-17T21:44:37Z</time>
      </trkpt>
      <trkpt lat="5.0251990" lon="-75.5104210">
        <ele>2097.8</ele>
        <time>2021-04-17T21:44:38Z</time>
      </trkpt>
      <trkpt lat="5.0251960" lon="-75.5104200">
        <ele>2097.8</ele>
        <time>2021-04-17T21:44:39Z</time>
      </trkpt>
      <trkpt lat="5.0251970" lon="-75.5104200">
        <ele>2097.8</ele>
        <time>2021-04-17T21:44:40Z</time>
      </trkpt>
      <trkpt lat="5.0251970" lon="-75.5104220">
        <ele>2097.8</ele>
        <time>2021-04-17T21:44:41Z</time>
      </trkpt>
      <trkpt lat="5.0251980" lon="-75.5104220">
        <ele>2097.8</ele>
        <time>2021-04-17T21:44:42Z</time>
      </trkpt>
      <trkpt lat="5.0251980" lon="-75.5104220">
        <ele>2097.8</ele>
        <time>2021-04-17T21:44:43Z</time>
      </trkpt>
      <trkpt lat="5.0251970" lon="-75.5104230">
        <ele>2097.8</ele>
        <time>2021-04-17T21:44:44Z</time>
      </trkpt>
      <trkpt lat="5.0251980" lon="-75.5104220">
        <ele>2097.7</ele>
        <time>2021-04-17T21:44:45Z</time>
      </trkpt>
      <trkpt lat="5.0251970" lon="-75.5104220">
        <ele>2097.7</ele>
        <time>2021-04-17T21:44:46Z</time>
      </trkpt>
      <trkpt lat="5.0251950" lon="-75.5104190">
        <ele>2097.7</ele>
        <time>2021-04-17T21:44:47Z</time>
      </trkpt>
      <trkpt lat="5.0251940" lon="-75.5104120">
        <ele>2097.7</ele>
        <time>2021-04-17T21:44:48Z</time>
      </trkpt>
      <trkpt lat="5.0251930" lon="-75.5104150">
        <ele>2097.7</ele>
        <time>2021-04-17T21:44:49Z</time>
      </trkpt>
      <trkpt lat="5.0251920" lon="-75.5104170">
        <ele>2097.7</ele>
        <time>2021-04-17T21:44:50Z</time>
      </trkpt>
      <trkpt lat="5.0251980" lon="-75.5104210">
        <ele>2097.6</ele>
        <time>2021-04-17T21:44:51Z</time>
      </trkpt>
      <trkpt lat="5.0252100" lon="-75.5104270">
        <ele>2097.5</ele>
        <time>2021-04-17T21:44:52Z</time>
      </trkpt>
      <trkpt lat="5.0252240" lon="-75.5104330">
        <ele>2097.5</ele>
        <time>2021-04-17T21:44:53Z</time>
      </trkpt>
      <trkpt lat="5.0252400" lon="-75.5104420">
        <ele>2097.3</ele>
        <time>2021-04-17T21:44:54Z</time>
      </trkpt>
      <trkpt lat="5.0252630" lon="-75.5104500">
        <ele>2097.2</ele>
        <time>2021-04-17T21:44:55Z</time>
      </trkpt>
      <trkpt lat="5.0252940" lon="-75.5104600">
        <ele>2097.0</ele>
        <time>2021-04-17T21:44:56Z</time>
      </trkpt>
      <trkpt lat="5.0253290" lon="-75.5104730">
        <ele>2096.7</ele>
        <time>2021-04-17T21:44:57Z</time>
      </trkpt>
      <trkpt lat="5.0253700" lon="-75.5104850">
        <ele>2096.4</ele>
        <time>2021-04-17T21:44:58Z</time>
      </trkpt>
      <trkpt lat="5.0254170" lon="-75.5104910">
        <ele>2096.1</ele>
        <time>2021-04-17T21:44:59Z</time>
      </trkpt>
      <trkpt lat="5.0254680" lon="-75.5104820">
        <ele>2095.7</ele>
        <time>2021-04-17T21:45:00Z</time>
      </trkpt>
      <trkpt lat="5.0255170" lon="-75.5104610">
        <ele>2095.2</ele>
        <time>2021-04-17T21:45:01Z</time>
      </trkpt>
      <trkpt lat="5.0255540" lon="-75.5104190">
        <ele>2094.8</ele>
        <time>2021-04-17T21:45:02Z</time>
      </trkpt>
      <trkpt lat="5.0255810" lon="-75.5103690">
        <ele>2094.3</ele>
        <time>2021-04-17T21:45:03Z</time>
      </trkpt>
      <trkpt lat="5.0255920" lon="-75.5103120">
        <ele>2093.9</ele>
        <time>2021-04-17T21:45:04Z</time>
      </trkpt>
      <trkpt lat="5.0255910" lon="-75.5102490">
        <ele>2093.4</ele>
        <time>2021-04-17T21:45:05Z</time>
      </trkpt>
      <trkpt lat="5.0255830" lon="-75.5101810">
        <ele>2092.9</ele>
        <time>2021-04-17T21:45:06Z</time>
      </trkpt>
      <trkpt lat="5.0255790" lon="-75.5101120">
        <ele>2092.5</ele>
        <time>2021-04-17T21:45:07Z</time>
      </trkpt>
      <trkpt lat="5.0255840" lon="-75.5100410">
        <ele>2092.0</ele>
        <time>2021-04-17T21:45:08Z</time>
      </trkpt>
      <trkpt lat="5.0256020" lon="-75.5099730">
        <ele>2091.5</ele>
        <time>2021-04-17T21:45:09Z</time>
      </trkpt>
      <trkpt lat="5.0256240" lon="-75.5099070">
        <ele>2091.0</ele>
        <time>2021-04-17T21:45:10Z</time>
      </trkpt>
      <trkpt lat="5.0256410" lon="-75.5098400">
        <ele>2090.4</ele>
        <time>2021-04-17T21:45:11Z</time>
      </trkpt>
      <trkpt lat="5.0256410" lon="-75.5097700">
        <ele>2089.9</ele>
        <time>2021-04-17T21:45:12Z</time>
      </trkpt>
      <trkpt lat="5.0256320" lon="-75.5096970">
        <ele>2089.3</ele>
        <time>2021-04-17T21:45:13Z</time>
      </trkpt>
      <trkpt lat="5.0256180" lon="-75.5096220">
        <ele>2088.7</ele>
        <time>2021-04-17T21:45:14Z</time>
      </trkpt>
      <trkpt lat="5.0256090" lon="-75.5095520">
        <ele>2088.2</ele>
        <time>2021-04-17T21:45:15Z</time>
      </trkpt>
      <trkpt lat="5.0256050" lon="-75.5094900">
        <ele>2087.7</ele>
        <time>2021-04-17T21:45:16Z</time>
      </trkpt>
      <trkpt lat="5.0256250" lon="-75.5094220">
        <ele>2087.3</ele>
        <time>2021-04-17T21:45:17Z</time>
      </trkpt>
      <trkpt lat="5.0256580" lon="-75.5093630">
        <ele>2086.9</ele>
        <time>2021-04-17T21:45:18Z</time>
      </trkpt>
      <trkpt lat="5.0256930" lon="-75.5093080">
        <ele>2086.5</ele>
        <time>2021-04-17T21:45:19Z</time>
      </trkpt>
      <trkpt lat="5.0257300" lon="-75.5092600">
        <ele>2086.0</ele>
        <time>2021-04-17T21:45:20Z</time>
      </trkpt>
      <trkpt lat="5.0257730" lon="-75.5092140">
        <ele>2085.5</ele>
        <time>2021-04-17T21:45:21Z</time>
      </trkpt>
      <trkpt lat="5.0258230" lon="-75.5091740">
        <ele>2085.0</ele>
        <time>2021-04-17T21:45:22Z</time>
      </trkpt>
      <trkpt lat="5.0258890" lon="-75.5091460">
        <ele>2084.4</ele>
        <time>2021-04-17T21:45:23Z</time>
      </trkpt>
      <trkpt lat="5.0259580" lon="-75.5091440">
        <ele>2083.8</ele>
        <time>2021-04-17T21:45:24Z</time>
      </trkpt>
      <trkpt lat="5.0260280" lon="-75.5091450">
        <ele>2083.2</ele>
        <time>2021-04-17T21:45:25Z</time>
      </trkpt>
      <trkpt lat="5.0260880" lon="-75.5091730">
        <ele>2082.7</ele>
        <time>2021-04-17T21:45:26Z</time>
      </trkpt>
      <trkpt lat="5.0261570" lon="-75.5092030">
        <ele>2082.1</ele>
        <time>2021-04-17T21:45:27Z</time>
      </trkpt>
      <trkpt lat="5.0262200" lon="-75.5092440">
        <ele>2081.4</ele>
        <time>2021-04-17T21:45:28Z</time>
      </trkpt>
      <trkpt lat="5.0262860" lon="-75.5092860">
        <ele>2080.7</ele>
        <time>2021-04-17T21:45:29Z</time>
      </trkpt>
      <trkpt lat="5.0263490" lon="-75.5093330">
        <ele>2080.0</ele>
        <time>2021-04-17T21:45:30Z</time>
      </trkpt>
      <trkpt lat="5.0264200" lon="-75.5093770">
        <ele>2079.3</ele>
        <time>2021-04-17T21:45:31Z</time>
      </trkpt>
      <trkpt lat="5.0265110" lon="-75.5094240">
        <ele>2078.5</ele>
        <time>2021-04-17T21:45:32Z</time>
      </trkpt>
      <trkpt lat="5.0265910" lon="-75.5094670">
        <ele>2077.8</ele>
        <time>2021-04-17T21:45:33Z</time>
      </trkpt>
      <trkpt lat="5.0266690" lon="-75.5095120">
        <ele>2077.2</ele>
        <time>2021-04-17T21:45:34Z</time>
      </trkpt>
      <trkpt lat="5.0267370" lon="-75.5095610">
        <ele>2076.5</ele>
        <time>2021-04-17T21:45:35Z</time>
      </trkpt>
      <trkpt lat="5.0267950" lon="-75.5096190">
        <ele>2075.8</ele>
        <time>2021-04-17T21:45:36Z</time>
      </trkpt>
      <trkpt lat="5.0268460" lon="-75.5096820">
        <ele>2075.1</ele>
        <time>2021-04-17T21:45:37Z</time>
      </trkpt>
      <trkpt lat="5.0268890" lon="-75.5097490">
        <ele>2074.4</ele>
        <time>2021-04-17T21:45:38Z</time>
      </trkpt>
      <trkpt lat="5.0269180" lon="-75.5098170">
        <ele>2073.8</ele>
        <time>2021-04-17T21:45:39Z</time>
      </trkpt>
      <trkpt lat="5.0269390" lon="-75.5098840">
        <ele>2073.3</ele>
        <time>2021-04-17T21:45:40Z</time>
      </trkpt>
      <trkpt lat="5.0269500" lon="-75.5099540">
        <ele>2072.7</ele>
        <time>2021-04-17T21:45:41Z</time>
      </trkpt>
      <trkpt lat="5.0269640" lon="-75.5100240">
        <ele>2072.1</ele>
        <time>2021-04-17T21:45:42Z</time>
      </trkpt>
      <trkpt lat="5.0269860" lon="-75.5100910">
        <ele>2071.6</ele>
        <time>2021-04-17T21:45:43Z</time>
      </trkpt>
      <trkpt lat="5.0270190" lon="-75.5101550">
        <ele>2071.0</ele>
        <time>2021-04-17T21:45:44Z</time>
      </trkpt>
      <trkpt lat="5.0270610" lon="-75.5102140">
        <ele>2070.3</ele>
        <time>2021-04-17T21:45:45Z</time>
      </trkpt>
      <trkpt lat="5.0271080" lon="-75.5102730">
        <ele>2069.7</ele>
        <time>2021-04-17T21:45:46Z</time>
      </trkpt>
      <trkpt lat="5.0271510" lon="-75.5103320">
        <ele>2069.1</ele>
        <time>2021-04-17T21:45:47Z</time>
      </trkpt>
      <trkpt lat="5.0271870" lon="-75.5103910">
        <ele>2068.5</ele>
        <time>2021-04-17T21:45:48Z</time>
      </trkpt>
      <trkpt lat="5.0272190" lon="-75.5104480">
        <ele>2068.0</ele>
        <time>2021-04-17T21:45:49Z</time>
      </trkpt>
      <trkpt lat="5.0272500" lon="-75.5105050">
        <ele>2067.5</ele>
        <time>2021-04-17T21:45:50Z</time>
      </trkpt>
      <trkpt lat="5.0272780" lon="-75.5105680">
        <ele>2066.9</ele>
        <time>2021-04-17T21:45:51Z</time>
      </trkpt>
      <trkpt lat="5.0273090" lon="-75.5106310">
        <ele>2066.4</ele>
        <time>2021-04-17T21:45:52Z</time>
      </trkpt>
      <trkpt lat="5.0273400" lon="-75.5106980">
        <ele>2066.0</ele>
        <time>2021-04-17T21:45:53Z</time>
      </trkpt>
      <trkpt lat="5.0273720" lon="-75.5107690">
        <ele>2065.5</ele>
        <time>2021-04-17T21:45:54Z</time>
      </trkpt>
      <trkpt lat="5.0274020" lon="-75.5108410">
        <ele>2065.0</ele>
        <time>2021-04-17T21:45:55Z</time>
      </trkpt>
      <trkpt lat="5.0274280" lon="-75.5109170">
        <ele>2064.4</ele>
        <time>2021-04-17T21:45:56Z</time>
      </trkpt>
      <trkpt lat="5.0274520" lon="-75.5109970">
        <ele>2063.8</ele>
        <time>2021-04-17T21:45:57Z</time>
      </trkpt>
      <trkpt lat="5.0274740" lon="-75.5110790">
        <ele>2063.1</ele>
        <time>2021-04-17T21:45:58Z</time>
      </trkpt>
      <trkpt lat="5.0274880" lon="-75.5111650">
        <ele>2062.4</ele>
        <time>2021-04-17T21:45:59Z</time>
      </trkpt>
      <trkpt lat="5.0275090" lon="-75.5112420">
        <ele>2061.7</ele>
        <time>2021-04-17T21:46:00Z</time>
      </trkpt>
      <trkpt lat="5.0275510" lon="-75.5112970">
        <ele>2061.1</ele>
        <time>2021-04-17T21:46:01Z</time>
      </trkpt>
      <trkpt lat="5.0276020" lon="-75.5113420">
        <ele>2060.6</ele>
        <time>2021-04-17T21:46:02Z</time>
      </trkpt>
      <trkpt lat="5.0276690" lon="-75.5113820">
        <ele>2059.9</ele>
        <time>2021-04-17T21:46:03Z</time>
      </trkpt>
      <trkpt lat="5.0277430" lon="-75.5114200">
        <ele>2059.3</ele>
        <time>2021-04-17T21:46:04Z</time>
      </trkpt>
      <trkpt lat="5.0278250" lon="-75.5114480">
        <ele>2058.7</ele>
        <time>2021-04-17T21:46:05Z</time>
      </trkpt>
      <trkpt lat="5.0279080" lon="-75.5114580">
        <ele>2058.2</ele>
        <time>2021-04-17T21:46:06Z</time>
      </trkpt>
      <trkpt lat="5.0279840" lon="-75.5114540">
        <ele>2057.8</ele>
        <time>2021-04-17T21:46:07Z</time>
      </trkpt>
      <trkpt lat="5.0280610" lon="-75.5114270">
        <ele>2057.3</ele>
        <time>2021-04-17T21:46:08Z</time>
      </trkpt>
      <trkpt lat="5.0281180" lon="-75.5113830">
        <ele>2056.8</ele>
        <time>2021-04-17T21:46:09Z</time>
      </trkpt>
      <trkpt lat="5.0281580" lon="-75.5113230">
        <ele>2056.2</ele>
        <time>2021-04-17T21:46:10Z</time>
      </trkpt>
      <trkpt lat="5.0281750" lon="-75.5112510">
        <ele>2055.7</ele>
        <time>2021-04-17T21:46:11Z</time>
      </trkpt>
      <trkpt lat="5.0281700" lon="-75.5111730">
        <ele>2055.1</ele>
        <time>2021-04-17T21:46:12Z</time>
      </trkpt>
      <trkpt lat="5.0281540" lon="-75.5110930">
        <ele>2054.4</ele>
        <time>2021-04-17T21:46:13Z</time>
      </trkpt>
      <trkpt lat="5.0281340" lon="-75.5110150">
        <ele>2053.8</ele>
        <time>2021-04-17T21:46:14Z</time>
      </trkpt>
      <trkpt lat="5.0281140" lon="-75.5109370">
        <ele>2053.3</ele>
        <time>2021-04-17T21:46:15Z</time>
      </trkpt>
      <trkpt lat="5.0281040" lon="-75.5108570">
        <ele>2052.8</ele>
        <time>2021-04-17T21:46:16Z</time>
      </trkpt>
      <trkpt lat="5.0281110" lon="-75.5107760">
        <ele>2052.2</ele>
        <time>2021-04-17T21:46:17Z</time>
      </trkpt>
      <trkpt lat="5.0281260" lon="-75.5106930">
        <ele>2051.6</ele>
        <time>2021-04-17T21:46:18Z</time>
      </trkpt>
      <trkpt lat="5.0281490" lon="-75.5106170">
        <ele>2051.1</ele>
        <time>2021-04-17T21:46:19Z</time>
      </trkpt>
      <trkpt lat="5.0281790" lon="-75.5105480">
        <ele>2050.6</ele>
        <time>2021-04-17T21:46:20Z</time>
      </trkpt>
      <trkpt lat="5.0282130" lon="-75.5104840">
        <ele>2050.2</ele>
        <time>2021-04-17T21:46:21Z</time>
      </trkpt>
      <trkpt lat="5.0282410" lon="-75.5104240">
        <ele>2049.8</ele>
        <time>2021-04-17T21:46:22Z</time>
      </trkpt>
      <trkpt lat="5.0282610" lon="-75.5103600">
        <ele>2049.3</ele>
        <time>2021-04-17T21:46:23Z</time>
      </trkpt>
      <trkpt lat="5.0282740" lon="-75.5102920">
        <ele>2048.8</ele>
        <time>2021-04-17T21:46:24Z</time>
      </trkpt>
      <trkpt lat="5.0282800" lon="-75.5102190">
        <ele>2048.3</ele>
        <time>2021-04-17T21:46:25Z</time>
      </trkpt>
      <trkpt lat="5.0282790" lon="-75.5101450">
        <ele>2047.7</ele>
        <time>2021-04-17T21:46:26Z</time>
      </trkpt>
      <trkpt lat="5.0282820" lon="-75.5100680">
        <ele>2047.1</ele>
        <time>2021-04-17T21:46:27Z</time>
      </trkpt>
      <trkpt lat="5.0282940" lon="-75.5099970">
        <ele>2046.6</ele>
        <time>2021-04-17T21:46:28Z</time>
      </trkpt>
      <trkpt lat="5.0283170" lon="-75.5099370">
        <ele>2046.2</ele>
        <time>2021-04-17T21:46:29Z</time>
      </trkpt>
      <trkpt lat="5.0283590" lon="-75.5098990">
        <ele>2045.8</ele>
        <time>2021-04-17T21:46:30Z</time>
      </trkpt>
      <trkpt lat="5.0284220" lon="-75.5098830">
        <ele>2045.5</ele>
        <time>2021-04-17T21:46:31Z</time>
      </trkpt>
      <trkpt lat="5.0284800" lon="-75.5098930">
        <ele>2045.1</ele>
        <time>2021-04-17T21:46:32Z</time>
      </trkpt>
      <trkpt lat="5.0285380" lon="-75.5099140">
        <ele>2044.7</ele>
        <time>2021-04-17T21:46:33Z</time>
      </trkpt>
      <trkpt lat="5.0286000" lon="-75.5099410">
        <ele>2044.2</ele>
        <time>2021-04-17T21:46:34Z</time>
      </trkpt>
      <trkpt lat="5.0286640" lon="-75.5099750">
        <ele>2043.7</ele>
        <time>2021-04-17T21:46:35Z</time>
      </trkpt>
      <trkpt lat="5.0287320" lon="-75.5100080">
        <ele>2043.1</ele>
        <time>2021-04-17T21:46:36Z</time>
      </trkpt>
      <trkpt lat="5.0288040" lon="-75.5100340">
        <ele>2042.4</ele>
        <time>2021-04-17T21:46:37Z</time>
      </trkpt>
      <trkpt lat="5.0288810" lon="-75.5100520">
        <ele>2041.7</ele>
        <time>2021-04-17T21:46:38Z</time>
      </trkpt>
      <trkpt lat="5.0289600" lon="-75.5100670">
        <ele>2040.9</ele>
        <time>2021-04-17T21:46:39Z</time>
      </trkpt>
      <trkpt lat="5.0290400" lon="-75.5100990">
        <ele>2040.1</ele>
        <time>2021-04-17T21:46:40Z</time>
      </trkpt>
      <trkpt lat="5.0291180" lon="-75.5101480">
        <ele>2039.2</ele>
        <time>2021-04-17T21:46:41Z</time>
      </trkpt>
      <trkpt lat="5.0291870" lon="-75.5102030">
        <ele>2038.5</ele>
        <time>2021-04-17T21:46:42Z</time>
      </trkpt>
      <trkpt lat="5.0292550" lon="-75.5102510">
        <ele>2037.9</ele>
        <time>2021-04-17T21:46:43Z</time>
      </trkpt>
      <trkpt lat="5.0293370" lon="-75.5102740">
        <ele>2037.3</ele>
        <time>2021-04-17T21:46:44Z</time>
      </trkpt>
      <trkpt lat="5.0294160" lon="-75.5102790">
        <ele>2036.8</ele>
        <time>2021-04-17T21:46:45Z</time>
      </trkpt>
      <trkpt lat="5.0294980" lon="-75.5102670">
        <ele>2036.2</ele>
        <time>2021-04-17T21:46:46Z</time>
      </trkpt>
      <trkpt lat="5.0295790" lon="-75.5102440">
        <ele>2035.6</ele>
        <time>2021-04-17T21:46:47Z</time>
      </trkpt>
      <trkpt lat="5.0296610" lon="-75.5102210">
        <ele>2035.0</ele>
        <time>2021-04-17T21:46:48Z</time>
      </trkpt>
      <trkpt lat="5.0297420" lon="-75.5101920">
        <ele>2034.4</ele>
        <time>2021-04-17T21:46:49Z</time>
      </trkpt>
      <trkpt lat="5.0298240" lon="-75.5101610">
        <ele>2033.9</ele>
        <time>2021-04-17T21:46:50Z</time>
      </trkpt>
      <trkpt lat="5.0299010" lon="-75.5101330">
        <ele>2033.4</ele>
        <time>2021-04-17T21:46:51Z</time>
      </trkpt>
      <trkpt lat="5.0299740" lon="-75.5101110">
        <ele>2032.9</ele>
        <time>2021-04-17T21:46:52Z</time>
      </trkpt>
      <trkpt lat="5.0300490" lon="-75.5100930">
        <ele>2032.5</ele>
        <time>2021-04-17T21:46:53Z</time>
      </trkpt>
      <trkpt lat="5.0301240" lon="-75.5100820">
        <ele>2032.1</ele>
        <time>2021-04-17T21:46:54Z</time>
      </trkpt>
      <trkpt lat="5.0301960" lon="-75.5100820">
        <ele>2031.7</ele>
        <time>2021-04-17T21:46:55Z</time>
      </trkpt>
      <trkpt lat="5.0302660" lon="-75.5100950">
        <ele>2031.2</ele>
        <time>2021-04-17T21:46:56Z</time>
      </trkpt>
      <trkpt lat="5.0303340" lon="-75.5101130">
        <ele>2030.6</ele>
        <time>2021-04-17T21:46:57Z</time>
      </trkpt>
      <trkpt lat="5.0304020" lon="-75.5101370">
        <ele>2029.9</ele>
        <time>2021-04-17T21:46:58Z</time>
      </trkpt>
      <trkpt lat="5.0304680" lon="-75.5101750">
        <ele>2029.2</ele>
        <time>2021-04-17T21:46:59Z</time>
      </trkpt>
      <trkpt lat="5.0305340" lon="-75.5102200">
        <ele>2028.5</ele>
        <time>2021-04-17T21:47:00Z</time>
      </trkpt>
      <trkpt lat="5.0305930" lon="-75.5102750">
        <ele>2027.8</ele>
        <time>2021-04-17T21:47:01Z</time>
      </trkpt>
      <trkpt lat="5.0306470" lon="-75.5103350">
        <ele>2027.2</ele>
        <time>2021-04-17T21:47:02Z</time>
      </trkpt>
      <trkpt lat="5.0306980" lon="-75.5103860">
        <ele>2026.7</ele>
        <time>2021-04-17T21:47:03Z</time>
      </trkpt>
      <trkpt lat="5.0307490" lon="-75.5104370">
        <ele>2026.2</ele>
        <time>2021-04-17T21:47:04Z</time>
      </trkpt>
      <trkpt lat="5.0308060" lon="-75.5104850">
        <ele>2025.7</ele>
        <time>2021-04-17T21:47:05Z</time>
      </trkpt>
      <trkpt lat="5.0308700" lon="-75.5105300">
        <ele>2025.2</ele>
        <time>2021-04-17T21:47:06Z</time>
      </trkpt>
      <trkpt lat="5.0309410" lon="-75.5105610">
        <ele>2024.7</ele>
        <time>2021-04-17T21:47:07Z</time>
      </trkpt>
      <trkpt lat="5.0310150" lon="-75.5105710">
        <ele>2024.2</ele>
        <time>2021-04-17T21:47:08Z</time>
      </trkpt>
      <trkpt lat="5.0310890" lon="-75.5105550">
        <ele>2023.7</ele>
        <time>2021-04-17T21:47:09Z</time>
      </trkpt>
      <trkpt lat="5.0311480" lon="-75.5105130">
        <ele>2023.1</ele>
        <time>2021-04-17T21:47:10Z</time>
      </trkpt>
      <trkpt lat="5.0311870" lon="-75.5104490">
        <ele>2022.8</ele>
        <time>2021-04-17T21:47:11Z</time>
      </trkpt>
      <trkpt lat="5.0312050" lon="-75.5103760">
        <ele>2022.4</ele>
        <time>2021-04-17T21:47:12Z</time>
      </trkpt>
      <trkpt lat="5.0312120" lon="-75.5103010">
        <ele>2022.1</ele>
        <time>2021-04-17T21:47:13Z</time>
      </trkpt>
      <trkpt lat="5.0312140" lon="-75.5102260">
        <ele>2021.7</ele>
        <time>2021-04-17T21:47:14Z</time>
      </trkpt>
      <trkpt lat="5.0312150" lon="-75.5101490">
        <ele>2021.3</ele>
        <time>2021-04-17T21:47:15Z</time>
      </trkpt>
      <trkpt lat="5.0312140" lon="-75.5100720">
        <ele>2020.9</ele>
        <time>2021-04-17T21:47:16Z</time>
      </trkpt>
      <trkpt lat="5.0312100" lon="-75.5099900">
        <ele>2020.5</ele>
        <time>2021-04-17T21:47:17Z</time>
      </trkpt>
      <trkpt lat="5.0312060" lon="-75.5099100">
        <ele>2020.1</ele>
        <time>2021-04-17T21:47:18Z</time>
      </trkpt>
      <trkpt lat="5.0312050" lon="-75.5098320">
        <ele>2019.7</ele>
        <time>2021-04-17T21:47:19Z</time>
      </trkpt>
      <trkpt lat="5.0312070" lon="-75.5097580">
        <ele>2019.4</ele>
        <time>2021-04-17T21:47:20Z</time>
      </trkpt>
      <trkpt lat="5.0312160" lon="-75.5096880">
        <ele>2019.1</ele>
        <time>2021-04-17T21:47:21Z</time>
      </trkpt>
      <trkpt lat="5.0312320" lon="-75.5096230">
        <ele>2018.9</ele>
        <time>2021-04-17T21:47:22Z</time>
      </trkpt>
      <trkpt lat="5.0312550" lon="-75.5095640">
        <ele>2018.6</ele>
        <time>2021-04-17T21:47:23Z</time>
      </trkpt>
      <trkpt lat="5.0312820" lon="-75.5095050">
        <ele>2018.3</ele>
        <time>2021-04-17T21:47:24Z</time>
      </trkpt>
      <trkpt lat="5.0313180" lon="-75.5094530">
        <ele>2018.0</ele>
        <time>2021-04-17T21:47:25Z</time>
      </trkpt>
      <trkpt lat="5.0313650" lon="-75.5094120">
        <ele>2017.7</ele>
        <time>2021-04-17T21:47:26Z</time>
      </trkpt>
      <trkpt lat="5.0314210" lon="-75.5093800">
        <ele>2017.2</ele>
        <time>2021-04-17T21:47:27Z</time>
      </trkpt>
      <trkpt lat="5.0314840" lon="-75.5093540">
        <ele>2016.7</ele>
        <time>2021-04-17T21:47:28Z</time>
      </trkpt>
      <trkpt lat="5.0315460" lon="-75.5093260">
        <ele>2016.2</ele>
        <time>2021-04-17T21:47:29Z</time>
      </trkpt>
      <trkpt lat="5.0316130" lon="-75.5093000">
        <ele>2015.7</ele>
        <time>2021-04-17T21:47:30Z</time>
      </trkpt>
      <trkpt lat="5.0316830" lon="-75.5092730">
        <ele>2015.1</ele>
        <time>2021-04-17T21:47:31Z</time>
      </trkpt>
      <trkpt lat="5.0317520" lon="-75.5092500">
        <ele>2014.5</ele>
        <time>2021-04-17T21:47:32Z</time>
      </trkpt>
      <trkpt lat="5.0318210" lon="-75.5092270">
        <ele>2013.9</ele>
        <time>2021-04-17T21:47:33Z</time>
      </trkpt>
      <trkpt lat="5.0318810" lon="-75.5092080">
        <ele>2013.4</ele>
        <time>2021-04-17T21:47:34Z</time>
      </trkpt>
      <trkpt lat="5.0319440" lon="-75.5091910">
        <ele>2012.9</ele>
        <time>2021-04-17T21:47:35Z</time>
      </trkpt>
      <trkpt lat="5.0320080" lon="-75.5091830">
        <ele>2012.4</ele>
        <time>2021-04-17T21:47:36Z</time>
      </trkpt>
      <trkpt lat="5.0320720" lon="-75.5091890">
        <ele>2011.9</ele>
        <time>2021-04-17T21:47:37Z</time>
      </trkpt>
      <trkpt lat="5.0321380" lon="-75.5092070">
        <ele>2011.4</ele>
        <time>2021-04-17T21:47:38Z</time>
      </trkpt>
      <trkpt lat="5.0321980" lon="-75.5092390">
        <ele>2010.9</ele>
        <time>2021-04-17T21:47:39Z</time>
      </trkpt>
      <trkpt lat="5.0322490" lon="-75.5092700">
        <ele>2010.4</ele>
        <time>2021-04-17T21:47:40Z</time>
      </trkpt>
      <trkpt lat="5.0322990" lon="-75.5092990">
        <ele>2010.0</ele>
        <time>2021-04-17T21:47:41Z</time>
      </trkpt>
      <trkpt lat="5.0323540" lon="-75.5093190">
        <ele>2009.5</ele>
        <time>2021-04-17T21:47:42Z</time>
      </trkpt>
      <trkpt lat="5.0324100" lon="-75.5093230">
        <ele>2009.1</ele>
        <time>2021-04-17T21:47:43Z</time>
      </trkpt>
      <trkpt lat="5.0324670" lon="-75.5093150">
        <ele>2008.7</ele>
        <time>2021-04-17T21:47:44Z</time>
      </trkpt>
      <trkpt lat="5.0325270" lon="-75.5092860">
        <ele>2008.1</ele>
        <time>2021-04-17T21:47:45Z</time>
      </trkpt>
      <trkpt lat="5.0325790" lon="-75.5092490">
        <ele>2007.6</ele>
        <time>2021-04-17T21:47:46Z</time>
      </trkpt>
      <trkpt lat="5.0326360" lon="-75.5092270">
        <ele>2007.1</ele>
        <time>2021-04-17T21:47:47Z</time>
      </trkpt>
      <trkpt lat="5.0326940" lon="-75.5092150">
        <ele>2006.6</ele>
        <time>2021-04-17T21:47:48Z</time>
      </trkpt>
      <trkpt lat="5.0327560" lon="-75.5092100">
        <ele>2006.0</ele>
        <time>2021-04-17T21:47:49Z</time>
      </trkpt>
      <trkpt lat="5.0328180" lon="-75.5092090">
        <ele>2005.5</ele>
        <time>2021-04-17T21:47:50Z</time>
      </trkpt>
      <trkpt lat="5.0328820" lon="-75.5092100">
        <ele>2005.0</ele>
        <time>2021-04-17T21:47:51Z</time>
      </trkpt>
      <trkpt lat="5.0329470" lon="-75.5092040">
        <ele>2004.5</ele>
        <time>2021-04-17T21:47:52Z</time>
      </trkpt>
      <trkpt lat="5.0330150" lon="-75.5091920">
        <ele>2003.9</ele>
        <time>2021-04-17T21:47:53Z</time>
      </trkpt>
      <trkpt lat="5.0330840" lon="-75.5091710">
        <ele>2003.3</ele>
        <time>2021-04-17T21:47:54Z</time>
      </trkpt>
      <trkpt lat="5.0331560" lon="-75.5091440">
        <ele>2002.7</ele>
        <time>2021-04-17T21:47:55Z</time>
      </trkpt>
      <trkpt lat="5.0332300" lon="-75.5091180">
        <ele>2002.2</ele>
        <time>2021-04-17T21:47:56Z</time>
      </trkpt>
      <trkpt lat="5.0333060" lon="-75.5090940">
        <ele>2001.6</ele>
        <time>2021-04-17T21:47:57Z</time>
      </trkpt>
      <trkpt lat="5.0333800" lon="-75.5090660">
        <ele>2001.0</ele>
        <time>2021-04-17T21:47:58Z</time>
      </trkpt>
      <trkpt lat="5.0334480" lon="-75.5090370">
        <ele>2000.4</ele>
        <time>2021-04-17T21:47:59Z</time>
      </trkpt>
      <trkpt lat="5.0335130" lon="-75.5090090">
        <ele>1999.8</ele>
        <time>2021-04-17T21:48:00Z</time>
      </trkpt>
      <trkpt lat="5.0335790" lon="-75.5089830">
        <ele>1999.3</ele>
        <time>2021-04-17T21:48:01Z</time>
      </trkpt>
      <trkpt lat="5.0336440" lon="-75.5089590">
        <ele>1998.8</ele>
        <time>2021-04-17T21:48:02Z</time>
      </trkpt>
      <trkpt lat="5.0337040" lon="-75.5089430">
        <ele>1998.3</ele>
        <time>2021-04-17T21:48:03Z</time>
      </trkpt>
      <trkpt lat="5.0337520" lon="-75.5089280">
        <ele>1997.9</ele>
        <time>2021-04-17T21:48:04Z</time>
      </trkpt>
      <trkpt lat="5.0337820" lon="-75.5089160">
        <ele>1997.6</ele>
        <time>2021-04-17T21:48:05Z</time>
      </trkpt>
      <trkpt lat="5.0338000" lon="-75.5089080">
        <ele>1997.4</ele>
        <time>2021-04-17T21:48:06Z</time>
      </trkpt>
      <trkpt lat="5.0338050" lon="-75.5089010">
        <ele>1997.3</ele>
        <time>2021-04-17T21:48:07Z</time>
      </trkpt>
      <trkpt lat="5.0338040" lon="-75.5088960">
        <ele>1997.3</ele>
        <time>2021-04-17T21:48:08Z</time>
      </trkpt>
      <trkpt lat="5.0337980" lon="-75.5088910">
        <ele>1997.2</ele>
        <time>2021-04-17T21:48:09Z</time>
      </trkpt>
      <trkpt lat="5.0337950" lon="-75.5088890">
        <ele>1997.2</ele>
        <time>2021-04-17T21:48:10Z</time>
      </trkpt>
      <trkpt lat="5.0337890" lon="-75.5088860">
        <ele>1997.1</ele>
        <time>2021-04-17T21:48:11Z</time>
      </trkpt>
      <trkpt lat="5.0337870" lon="-75.5088830">
        <ele>1997.1</ele>
        <time>2021-04-17T21:48:12Z</time>
      </trkpt>
      <trkpt lat="5.0337860" lon="-75.5088880">
        <ele>1997.0</ele>
        <time>2021-04-17T21:48:13Z</time>
      </trkpt>
      <trkpt lat="5.0337850" lon="-75.5088950">
        <ele>1997.0</ele>
        <time>2021-04-17T21:48:14Z</time>
      </trkpt>
      <trkpt lat="5.0337970" lon="-75.5089090">
        <ele>1996.8</ele>
        <time>2021-04-17T22:00:38Z</time>
      </trkpt>
      <trkpt lat="5.0337990" lon="-75.5089130">
        <ele>1996.8</ele>
        <time>2021-04-17T22:00:39Z</time>
      </trkpt>
      <trkpt lat="5.0338010" lon="-75.5089140">
        <ele>1996.8</ele>
        <time>2021-04-17T22:00:40Z</time>
      </trkpt>
      <trkpt lat="5.0338000" lon="-75.5089170">
        <ele>1996.7</ele>
        <time>2021-04-17T22:00:41Z</time>
      </trkpt>
      <trkpt lat="5.0337980" lon="-75.5089200">
        <ele>1996.7</ele>
        <time>2021-04-17T22:00:42Z</time>
      </trkpt>
      <trkpt lat="5.0337960" lon="-75.5089230">
        <ele>1996.7</ele>
        <time>2021-04-17T22:00:43Z</time>
      </trkpt>
      <trkpt lat="5.0337960" lon="-75.5089290">
        <ele>1996.6</ele>
        <time>2021-04-17T22:00:44Z</time>
      </trkpt>
      <trkpt lat="5.0337950" lon="-75.5089290">
        <ele>1996.6</ele>
        <time>2021-04-17T22:00:45Z</time>
      </trkpt>
      <trkpt lat="5.0337930" lon="-75.5089310">
        <ele>1996.6</ele>
        <time>2021-04-17T22:00:46Z</time>
      </trkpt>
      <trkpt lat="5.0337910" lon="-75.5089300">
        <ele>1996.6</ele>
        <time>2021-04-17T22:00:47Z</time>
      </trkpt>
      <trkpt lat="5.0337890" lon="-75.5089260">
        <ele>1996.5</ele>
        <time>2021-04-17T22:00:48Z</time>
      </trkpt>
      <trkpt lat="5.0337900" lon="-75.5089270">
        <ele>1996.5</ele>
        <time>2021-04-17T22:00:49Z</time>
      </trkpt>
      <trkpt lat="5.0337930" lon="-75.5089260">
        <ele>1996.5</ele>
        <time>2021-04-17T22:00:50Z</time>
      </trkpt>
      <trkpt lat="5.0337970" lon="-75.5089240">
        <ele>1996.4</ele>
        <time>2021-04-17T22:00:51Z</time>
      </trkpt>
      <trkpt lat="5.0338110" lon="-75.5089280">
        <ele>1996.3</ele>
        <time>2021-04-17T22:00:52Z</time>
      </trkpt>
      <trkpt lat="5.0338260" lon="-75.5089320">
        <ele>1996.2</ele>
        <time>2021-04-17T22:00:53Z</time>
      </trkpt>
      <trkpt lat="5.0338440" lon="-75.5089330">
        <ele>1996.0</ele>
        <time>2021-04-17T22:00:54Z</time>
      </trkpt>
      <trkpt lat="5.0338690" lon="-75.5089290">
        <ele>1995.8</ele>
        <time>2021-04-17T22:00:55Z</time>
      </trkpt>
      <trkpt lat="5.0339000" lon="-75.5089260">
        <ele>1995.5</ele>
        <time>2021-04-17T22:00:56Z</time>
      </trkpt>
      <trkpt lat="5.0339380" lon="-75.5089240">
        <ele>1995.1</ele>
        <time>2021-04-17T22:00:57Z</time>
      </trkpt>
      <trkpt lat="5.0339810" lon="-75.5089240">
        <ele>1994.8</ele>
        <time>2021-04-17T22:00:58Z</time>
      </trkpt>
      <trkpt lat="5.0340300" lon="-75.5089300">
        <ele>1994.3</ele>
        <time>2021-04-17T22:00:59Z</time>
      </trkpt>
      <trkpt lat="5.0340780" lon="-75.5089340">
        <ele>1993.8</ele>
        <time>2021-04-17T22:01:00Z</time>
      </trkpt>
      <trkpt lat="5.0341170" lon="-75.5089380">
        <ele>1993.5</ele>
        <time>2021-04-17T22:01:01Z</time>
      </trkpt>
      <trkpt lat="5.0341500" lon="-75.5089440">
        <ele>1993.1</ele>
        <time>2021-04-17T22:01:02Z</time>
      </trkpt>
      <trkpt lat="5.0341800" lon="-75.5089520">
        <ele>1992.8</ele>
        <time>2021-04-17T22:01:03Z</time>
      </trkpt>
      <trkpt lat="5.0342070" lon="-75.5089610">
        <ele>1992.6</ele>
        <time>2021-04-17T22:01:04Z</time>
      </trkpt>
      <trkpt lat="5.0342310" lon="-75.5089680">
        <ele>1992.3</ele>
        <time>2021-04-17T22:01:05Z</time>
      </trkpt>
      <trkpt lat="5.0342550" lon="-75.5089770">
        <ele>1992.1</ele>
        <time>2021-04-17T22:01:06Z</time>
      </trkpt>
      <trkpt lat="5.0342770" lon="-75.5089830">
        <ele>1991.8</ele>
        <time>2021-04-17T22:01:07Z</time>
      </trkpt>
      <trkpt lat="5.0342990" lon="-75.5089870">
        <ele>1991.7</ele>
        <time>2021-04-17T22:01:08Z</time>
      </trkpt>
      <trkpt lat="5.0343190" lon="-75.5089900">
        <ele>1991.6</ele>
        <time>2021-04-17T22:01:09Z</time>
      </trkpt>
      <trkpt lat="5.0343410" lon="-75.5089940">
        <ele>1991.4</ele>
        <time>2021-04-17T22:01:10Z</time>
      </trkpt>
      <trkpt lat="5.0343610" lon="-75.5090000">
        <ele>1991.3</ele>
        <time>2021-04-17T22:01:11Z</time>
      </trkpt>
      <trkpt lat="5.0343810" lon="-75.5090070">
        <ele>1991.1</ele>
        <time>2021-04-17T22:01:12Z</time>
      </trkpt>
      <trkpt lat="5.0344020" lon="-75.5090170">
        <ele>1991.0</ele>
        <time>2021-04-17T22:01:13Z</time>
      </trkpt>
      <trkpt lat="5.0344260" lon="-75.5090280">
        <ele>1990.8</ele>
        <time>2021-04-17T22:01:14Z</time>
      </trkpt>
      <trkpt lat="5.0344520" lon="-75.5090410">
        <ele>1990.7</ele>
        <time>2021-04-17T22:01:15Z</time>
      </trkpt>
      <trkpt lat="5.0344830" lon="-75.5090570">
        <ele>1990.5</ele>
        <time>2021-04-17T22:01:16Z</time>
      </trkpt>
      <trkpt lat="5.0345170" lon="-75.5090740">
        <ele>1990.4</ele>
        <time>2021-04-17T22:01:17Z</time>
      </trkpt>
      <trkpt lat="5.0345480" lon="-75.5090910">
        <ele>1990.2</ele>
        <time>2021-04-17T22:01:18Z</time>
      </trkpt>
      <trkpt lat="5.0345780" lon="-75.5091020">
        <ele>1990.1</ele>
        <time>2021-04-17T22:01:19Z</time>
      </trkpt>
      <trkpt lat="5.0346130" lon="-75.5091030">
        <ele>1990.0</ele>
        <time>2021-04-17T22:01:20Z</time>
      </trkpt>
      <trkpt lat="5.0346470" lon="-75.5091040">
        <ele>1989.9</ele>
        <time>2021-04-17T22:01:21Z</time>
      </trkpt>
      <trkpt lat="5.0346790" lon="-75.5091080">
        <ele>1989.8</ele>
        <time>2021-04-17T22:01:22Z</time>
      </trkpt>
      <trkpt lat="5.0347120" lon="-75.5091110">
        <ele>1989.7</ele>
        <time>2021-04-17T22:01:23Z</time>
      </trkpt>
      <trkpt lat="5.0347450" lon="-75.5091070">
        <ele>1989.5</ele>
        <time>2021-04-17T22:01:24Z</time>
      </trkpt>
      <trkpt lat="5.0347790" lon="-75.5091000">
        <ele>1989.4</ele>
        <time>2021-04-17T22:01:25Z</time>
      </trkpt>
      <trkpt lat="5.0348130" lon="-75.5090930">
        <ele>1989.4</ele>
        <time>2021-04-17T22:01:26Z</time>
      </trkpt>
      <trkpt lat="5.0348420" lon="-75.5090830">
        <ele>1989.5</ele>
        <time>2021-04-17T22:01:27Z</time>
      </trkpt>
      <trkpt lat="5.0348670" lon="-75.5090750">
        <ele>1989.3</ele>
        <time>2021-04-17T22:01:28Z</time>
      </trkpt>
      <trkpt lat="5.0348900" lon="-75.5090660">
        <ele>1989.0</ele>
        <time>2021-04-17T22:01:29Z</time>
      </trkpt>
      <trkpt lat="5.0349150" lon="-75.5090560">
        <ele>1988.8</ele>
        <time>2021-04-17T22:01:30Z</time>
      </trkpt>
      <trkpt lat="5.0349440" lon="-75.5090480">
        <ele>1988.5</ele>
        <time>2021-04-17T22:01:31Z</time>
      </trkpt>
      <trkpt lat="5.0349790" lon="-75.5090390">
        <ele>1988.1</ele>
        <time>2021-04-17T22:01:32Z</time>
      </trkpt>
      <trkpt lat="5.0350230" lon="-75.5090330">
        <ele>1987.7</ele>
        <time>2021-04-17T22:01:33Z</time>
      </trkpt>
      <trkpt lat="5.0350770" lon="-75.5090310">
        <ele>1987.1</ele>
        <time>2021-04-17T22:01:34Z</time>
      </trkpt>
      <trkpt lat="5.0351400" lon="-75.5090310">
        <ele>1986.6</ele>
        <time>2021-04-17T22:01:35Z</time>
      </trkpt>
      <trkpt lat="5.0352060" lon="-75.5090300">
        <ele>1986.0</ele>
        <time>2021-04-17T22:01:36Z</time>
      </trkpt>
      <trkpt lat="5.0352760" lon="-75.5090310">
        <ele>1985.4</ele>
        <time>2021-04-17T22:01:37Z</time>
      </trkpt>
      <trkpt lat="5.0353480" lon="-75.5090350">
        <ele>1984.8</ele>
        <time>2021-04-17T22:01:38Z</time>
      </trkpt>
      <trkpt lat="5.0354220" lon="-75.5090370">
        <ele>1984.2</ele>
        <time>2021-04-17T22:01:39Z</time>
      </trkpt>
      <trkpt lat="5.0354940" lon="-75.5090340">
        <ele>1983.6</ele>
        <time>2021-04-17T22:01:40Z</time>
      </trkpt>
      <trkpt lat="5.0355630" lon="-75.5090240">
        <ele>1983.1</ele>
        <time>2021-04-17T22:01:41Z</time>
      </trkpt>
      <trkpt lat="5.0356310" lon="-75.5090070">
        <ele>1982.5</ele>
        <time>2021-04-17T22:01:42Z</time>
      </trkpt>
      <trkpt lat="5.0356930" lon="-75.5089850">
        <ele>1981.9</ele>
        <time>2021-04-17T22:01:43Z</time>
      </trkpt>
      <trkpt lat="5.0357490" lon="-75.5089600">
        <ele>1981.4</ele>
        <time>2021-04-17T22:01:44Z</time>
      </trkpt>
      <trkpt lat="5.0358010" lon="-75.5089360">
        <ele>1981.0</ele>
        <time>2021-04-17T22:01:45Z</time>
      </trkpt>
      <trkpt lat="5.0358500" lon="-75.5089130">
        <ele>1980.6</ele>
        <time>2021-04-17T22:01:46Z</time>
      </trkpt>
      <trkpt lat="5.0358980" lon="-75.5088910">
        <ele>1980.2</ele>
        <time>2021-04-17T22:01:47Z</time>
      </trkpt>
      <trkpt lat="5.0359440" lon="-75.5088710">
        <ele>1979.9</ele>
        <time>2021-04-17T22:01:48Z</time>
      </trkpt>
      <trkpt lat="5.0359910" lon="-75.5088550">
        <ele>1979.6</ele>
        <time>2021-04-17T22:01:49Z</time>
      </trkpt>
      <trkpt lat="5.0360400" lon="-75.5088380">
        <ele>1979.3</ele>
        <time>2021-04-17T22:01:50Z</time>
      </trkpt>
      <trkpt lat="5.0360860" lon="-75.5088200">
        <ele>1979.3</ele>
        <time>2021-04-17T22:01:51Z</time>
      </trkpt>
      <trkpt lat="5.0361270" lon="-75.5088030">
        <ele>1978.9</ele>
        <time>2021-04-17T22:01:52Z</time>
      </trkpt>
      <trkpt lat="5.0361680" lon="-75.5087890">
        <ele>1978.5</ele>
        <time>2021-04-17T22:01:53Z</time>
      </trkpt>
      <trkpt lat="5.0362090" lon="-75.5087750">
        <ele>1978.2</ele>
        <time>2021-04-17T22:01:54Z</time>
      </trkpt>
      <trkpt lat="5.0362480" lon="-75.5087630">
        <ele>1977.8</ele>
        <time>2021-04-17T22:01:55Z</time>
      </trkpt>
      <trkpt lat="5.0362890" lon="-75.5087500">
        <ele>1977.4</ele>
        <time>2021-04-17T22:01:56Z</time>
      </trkpt>
      <trkpt lat="5.0363320" lon="-75.5087360">
        <ele>1977.1</ele>
        <time>2021-04-17T22:01:57Z</time>
      </trkpt>
      <trkpt lat="5.0363790" lon="-75.5087190">
        <ele>1976.6</ele>
        <time>2021-04-17T22:01:58Z</time>
      </trkpt>
      <trkpt lat="5.0364290" lon="-75.5087010">
        <ele>1976.1</ele>
        <time>2021-04-17T22:01:59Z</time>
      </trkpt>
      <trkpt lat="5.0364790" lon="-75.5086770">
        <ele>1975.6</ele>
        <time>2021-04-17T22:02:00Z</time>
      </trkpt>
      <trkpt lat="5.0365220" lon="-75.5086470">
        <ele>1975.1</ele>
        <time>2021-04-17T22:02:01Z</time>
      </trkpt>
      <trkpt lat="5.0365630" lon="-75.5086050">
        <ele>1974.5</ele>
        <time>2021-04-17T22:02:02Z</time>
      </trkpt>
      <trkpt lat="5.0366020" lon="-75.5085600">
        <ele>1974.0</ele>
        <time>2021-04-17T22:02:03Z</time>
      </trkpt>
      <trkpt lat="5.0366450" lon="-75.5085120">
        <ele>1973.3</ele>
        <time>2021-04-17T22:02:04Z</time>
      </trkpt>
      <trkpt lat="5.0366930" lon="-75.5084700">
        <ele>1972.7</ele>
        <time>2021-04-17T22:02:05Z</time>
      </trkpt>
      <trkpt lat="5.0367440" lon="-75.5084280">
        <ele>1972.0</ele>
        <time>2021-04-17T22:02:06Z</time>
      </trkpt>
      <trkpt lat="5.0368030" lon="-75.5084060">
        <ele>1971.3</ele>
        <time>2021-04-17T22:02:07Z</time>
      </trkpt>
      <trkpt lat="5.0368620" lon="-75.5083990">
        <ele>1970.7</ele>
        <time>2021-04-17T22:02:08Z</time>
      </trkpt>
      <trkpt lat="5.0369200" lon="-75.5084030">
        <ele>1970.1</ele>
        <time>2021-04-17T22:02:09Z</time>
      </trkpt>
      <trkpt lat="5.0369710" lon="-75.5084280">
        <ele>1969.6</ele>
        <time>2021-04-17T22:02:10Z</time>
      </trkpt>
      <trkpt lat="5.0370230" lon="-75.5084590">
        <ele>1969.1</ele>
        <time>2021-04-17T22:02:11Z</time>
      </trkpt>
      <trkpt lat="5.0370710" lon="-75.5084890">
        <ele>1968.6</ele>
        <time>2021-04-17T22:02:12Z</time>
      </trkpt>
      <trkpt lat="5.0371110" lon="-75.5085320">
        <ele>1968.2</ele>
        <time>2021-04-17T22:02:13Z</time>
      </trkpt>
      <trkpt lat="5.0371420" lon="-75.5085900">
        <ele>1967.7</ele>
        <time>2021-04-17T22:02:14Z</time>
      </trkpt>
      <trkpt lat="5.0371770" lon="-75.5086580">
        <ele>1967.1</ele>
        <time>2021-04-17T22:02:15Z</time>
      </trkpt>
      <trkpt lat="5.0372250" lon="-75.5087230">
        <ele>1966.5</ele>
        <time>2021-04-17T22:02:16Z</time>
      </trkpt>
      <trkpt lat="5.0372680" lon="-75.5087840">
        <ele>1965.8</ele>
        <time>2021-04-17T22:02:17Z</time>
      </trkpt>
      <trkpt lat="5.0373420" lon="-75.5088180">
        <ele>1965.1</ele>
        <time>2021-04-17T22:02:18Z</time>
      </trkpt>
      <trkpt lat="5.0374140" lon="-75.5088530">
        <ele>1964.4</ele>
        <time>2021-04-17T22:02:19Z</time>
      </trkpt>
      <trkpt lat="5.0374980" lon="-75.5088750">
        <ele>1963.6</ele>
        <time>2021-04-17T22:02:20Z</time>
      </trkpt>
      <trkpt lat="5.0375920" lon="-75.5088880">
        <ele>1962.8</ele>
        <time>2021-04-17T22:02:21Z</time>
      </trkpt>
      <trkpt lat="5.0376820" lon="-75.5088950">
        <ele>1962.0</ele>
        <time>2021-04-17T22:02:22Z</time>
      </trkpt>
      <trkpt lat="5.0377680" lon="-75.5088930">
        <ele>1961.2</ele>
        <time>2021-04-17T22:02:23Z</time>
      </trkpt>
      <trkpt lat="5.0378530" lon="-75.5088850">
        <ele>1960.5</ele>
        <time>2021-04-17T22:02:24Z</time>
      </trkpt>
      <trkpt lat="5.0379360" lon="-75.5088650">
        <ele>1959.7</ele>
        <time>2021-04-17T22:02:25Z</time>
      </trkpt>
      <trkpt lat="5.0380130" lon="-75.5088340">
        <ele>1959.0</ele>
        <time>2021-04-17T22:02:26Z</time>
      </trkpt>
      <trkpt lat="5.0380840" lon="-75.5087930">
        <ele>1958.1</ele>
        <time>2021-04-17T22:02:27Z</time>
      </trkpt>
      <trkpt lat="5.0381500" lon="-75.5087330">
        <ele>1957.1</ele>
        <time>2021-04-17T22:02:28Z</time>
      </trkpt>
      <trkpt lat="5.0382160" lon="-75.5086790">
        <ele>1956.2</ele>
        <time>2021-04-17T22:02:29Z</time>
      </trkpt>
      <trkpt lat="5.0382890" lon="-75.5086300">
        <ele>1955.1</ele>
        <time>2021-04-17T22:02:30Z</time>
      </trkpt>
      <trkpt lat="5.0383750" lon="-75.5085860">
        <ele>1954.0</ele>
        <time>2021-04-17T22:02:31Z</time>
      </trkpt>
      <trkpt lat="5.0384680" lon="-75.5085490">
        <ele>1952.9</ele>
        <time>2021-04-17T22:02:32Z</time>
      </trkpt>
      <trkpt lat="5.0385640" lon="-75.5085130">
        <ele>1951.8</ele>
        <time>2021-04-17T22:02:33Z</time>
      </trkpt>
      <trkpt lat="5.0386650" lon="-75.5084720">
        <ele>1950.7</ele>
        <time>2021-04-17T22:02:34Z</time>
      </trkpt>
      <trkpt lat="5.0387640" lon="-75.5084270">
        <ele>1949.6</ele>
        <time>2021-04-17T22:02:35Z</time>
      </trkpt>
      <trkpt lat="5.0388670" lon="-75.5083780">
        <ele>1948.5</ele>
        <time>2021-04-17T22:02:36Z</time>
      </trkpt>
      <trkpt lat="5.0389700" lon="-75.5083300">
        <ele>1947.4</ele>
        <time>2021-04-17T22:02:37Z</time>
      </trkpt>
      <trkpt lat="5.0390710" lon="-75.5082870">
        <ele>1946.4</ele>
        <time>2021-04-17T22:02:38Z</time>
      </trkpt>
      <trkpt lat="5.0391660" lon="-75.5082440">
        <ele>1945.4</ele>
        <time>2021-04-17T22:02:39Z</time>
      </trkpt>
      <trkpt lat="5.0392550" lon="-75.5081920">
        <ele>1944.5</ele>
        <time>2021-04-17T22:02:40Z</time>
      </trkpt>
      <trkpt lat="5.0393380" lon="-75.5081280">
        <ele>1943.5</ele>
        <time>2021-04-17T22:02:41Z</time>
      </trkpt>
      <trkpt lat="5.0394190" lon="-75.5080660">
        <ele>1942.5</ele>
        <time>2021-04-17T22:02:42Z</time>
      </trkpt>
      <trkpt lat="5.0395050" lon="-75.5080160">
        <ele>1941.4</ele>
        <time>2021-04-17T22:02:43Z</time>
      </trkpt>
      <trkpt lat="5.0396030" lon="-75.5079960">
        <ele>1940.4</ele>
        <time>2021-04-17T22:02:44Z</time>
      </trkpt>
      <trkpt lat="5.0397040" lon="-75.5079960">
        <ele>1939.3</ele>
        <time>2021-04-17T22:02:45Z</time>
      </trkpt>
      <trkpt lat="5.0398120" lon="-75.5080020">
        <ele>1938.0</ele>
        <time>2021-04-17T22:02:46Z</time>
      </trkpt>
      <trkpt lat="5.0399250" lon="-75.5080060">
        <ele>1937.0</ele>
        <time>2021-04-17T22:02:47Z</time>
      </trkpt>
      <trkpt lat="5.0400430" lon="-75.5080070">
        <ele>1936.1</ele>
        <time>2021-04-17T22:02:48Z</time>
      </trkpt>
      <trkpt lat="5.0401640" lon="-75.5080090">
        <ele>1935.3</ele>
        <time>2021-04-17T22:02:49Z</time>
      </trkpt>
      <trkpt lat="5.0402860" lon="-75.5080150">
        <ele>1934.6</ele>
        <time>2021-04-17T22:02:50Z</time>
      </trkpt>
      <trkpt lat="5.0404090" lon="-75.5080320">
        <ele>1934.1</ele>
        <time>2021-04-17T22:02:51Z</time>
      </trkpt>
      <trkpt lat="5.0405260" lon="-75.5080610">
        <ele>1933.7</ele>
        <time>2021-04-17T22:02:52Z</time>
      </trkpt>
      <trkpt lat="5.0406330" lon="-75.5081070">
        <ele>1933.5</ele>
        <time>2021-04-17T22:02:53Z</time>
      </trkpt>
      <trkpt lat="5.0407260" lon="-75.5081700">
        <ele>1933.3</ele>
        <time>2021-04-17T22:02:54Z</time>
      </trkpt>
      <trkpt lat="5.0408000" lon="-75.5082480">
        <ele>1933.0</ele>
        <time>2021-04-17T22:02:55Z</time>
      </trkpt>
      <trkpt lat="5.0408550" lon="-75.5083350">
        <ele>1932.7</ele>
        <time>2021-04-17T22:02:56Z</time>
      </trkpt>
      <trkpt lat="5.0409010" lon="-75.5084220">
        <ele>1932.5</ele>
        <time>2021-04-17T22:02:57Z</time>
      </trkpt>
      <trkpt lat="5.0409530" lon="-75.5084990">
        <ele>1932.4</ele>
        <time>2021-04-17T22:02:58Z</time>
      </trkpt>
      <trkpt lat="5.0410230" lon="-75.5085460">
        <ele>1932.5</ele>
        <time>2021-04-17T22:02:59Z</time>
      </trkpt>
      <trkpt lat="5.0410990" lon="-75.5085790">
        <ele>1932.7</ele>
        <time>2021-04-17T22:03:00Z</time>
      </trkpt>
      <trkpt lat="5.0411720" lon="-75.5086000">
        <ele>1933.0</ele>
        <time>2021-04-17T22:03:01Z</time>
      </trkpt>
      <trkpt lat="5.0412380" lon="-75.5086160">
        <ele>1933.4</ele>
        <time>2021-04-17T22:03:02Z</time>
      </trkpt>
      <trkpt lat="5.0412940" lon="-75.5086360">
        <ele>1933.8</ele>
        <time>2021-04-17T22:03:03Z</time>
      </trkpt>
      <trkpt lat="5.0413410" lon="-75.5086600">
        <ele>1934.1</ele>
        <time>2021-04-17T22:03:04Z</time>
      </trkpt>
      <trkpt lat="5.0413780" lon="-75.5086900">
        <ele>1934.5</ele>
        <time>2021-04-17T22:03:05Z</time>
      </trkpt>
      <trkpt lat="5.0414040" lon="-75.5087200">
        <ele>1934.8</ele>
        <time>2021-04-17T22:03:06Z</time>
      </trkpt>
      <trkpt lat="5.0414280" lon="-75.5087490">
        <ele>1935.2</ele>
        <time>2021-04-17T22:03:07Z</time>
      </trkpt>
      <trkpt lat="5.0414510" lon="-75.5087770">
        <ele>1935.6</ele>
        <time>2021-04-17T22:03:08Z</time>
      </trkpt>
      <trkpt lat="5.0414710" lon="-75.5088050">
        <ele>1936.0</ele>
        <time>2021-04-17T22:03:09Z</time>
      </trkpt>
      <trkpt lat="5.0414890" lon="-75.5088290">
        <ele>1936.3</ele>
        <time>2021-04-17T22:03:10Z</time>
      </trkpt>
      <trkpt lat="5.0415060" lon="-75.5088500">
        <ele>1936.7</ele>
        <time>2021-04-17T22:03:11Z</time>
      </trkpt>
      <trkpt lat="5.0415240" lon="-75.5088680">
        <ele>1937.0</ele>
        <time>2021-04-17T22:03:12Z</time>
      </trkpt>
      <trkpt lat="5.0415420" lon="-75.5088810">
        <ele>1937.3</ele>
        <time>2021-04-17T22:03:13Z</time>
      </trkpt>
      <trkpt lat="5.0415600" lon="-75.5088890">
        <ele>1937.6</ele>
        <time>2021-04-17T22:03:14Z</time>
      </trkpt>
      <trkpt lat="5.0415790" lon="-75.5088970">
        <ele>1937.8</ele>
        <time>2021-04-17T22:03:15Z</time>
      </trkpt>
      <trkpt lat="5.0415950" lon="-75.5089000">
        <ele>1938.0</ele>
        <time>2021-04-17T22:03:16Z</time>
      </trkpt>
      <trkpt lat="5.0416060" lon="-75.5088960">
        <ele>1938.1</ele>
        <time>2021-04-17T22:03:17Z</time>
      </trkpt>
      <trkpt lat="5.0416130" lon="-75.5088940">
        <ele>1938.1</ele>
        <time>2021-04-17T22:03:18Z</time>
      </trkpt>
      <trkpt lat="5.0416150" lon="-75.5088940">
        <ele>1938.1</ele>
        <time>2021-04-17T22:03:19Z</time>
      </trkpt>
      <trkpt lat="5.0416150" lon="-75.5088910">
        <ele>1938.1</ele>
        <time>2021-04-17T22:03:20Z</time>
      </trkpt>
      <trkpt lat="5.0416140" lon="-75.5088890">
        <ele>1938.1</ele>
        <time>2021-04-17T22:03:21Z</time>
      </trkpt>
      <trkpt lat="5.0416150" lon="-75.5088900">
        <ele>1938.1</ele>
        <time>2021-04-17T22:03:22Z</time>
      </trkpt>
      <trkpt lat="5.0416170" lon="-75.5088930">
        <ele>1938.1</ele>
        <time>2021-04-17T22:03:23Z</time>
      </trkpt>
      <trkpt lat="5.0416210" lon="-75.5089000">
        <ele>1938.2</ele>
        <time>2021-04-17T22:03:24Z</time>
      </trkpt>
      <trkpt lat="5.0416250" lon="-75.5089060">
        <ele>1938.2</ele>
        <time>2021-04-17T22:03:25Z</time>
      </trkpt>
      <trkpt lat="5.0416250" lon="-75.5089090">
        <ele>1938.2</ele>
        <time>2021-04-17T22:03:26Z</time>
      </trkpt>
      <trkpt lat="5.0416270" lon="-75.5089130">
        <ele>1938.2</ele>
        <time>2021-04-17T22:03:27Z</time>
      </trkpt>
      <trkpt lat="5.0416290" lon="-75.5089140">
        <ele>1938.2</ele>
        <time>2021-04-17T22:03:28Z</time>
      </trkpt>
      <trkpt lat="5.0416310" lon="-75.5089140">
        <ele>1938.2</ele>
        <time>2021-04-17T22:03:29Z</time>
      </trkpt>
      <trkpt lat="5.0416320" lon="-75.5089140">
        <ele>1938.2</ele>
        <time>2021-04-17T22:03:30Z</time>
      </trkpt>
      <trkpt lat="5.0416310" lon="-75.5089120">
        <ele>1938.2</ele>
        <time>2021-04-17T22:03:31Z</time>
      </trkpt>
      <trkpt lat="5.0416300" lon="-75.5089120">
        <ele>1938.2</ele>
        <time>2021-04-17T22:03:32Z</time>
      </trkpt>
      <trkpt lat="5.0416300" lon="-75.5089110">
        <ele>1938.2</ele>
        <time>2021-04-17T22:03:33Z</time>
      </trkpt>
      <trkpt lat="5.0416280" lon="-75.5089100">
        <ele>1938.2</ele>
        <time>2021-04-17T22:03:34Z</time>
      </trkpt>
      <trkpt lat="5.0416290" lon="-75.5089090">
        <ele>1938.2</ele>
        <time>2021-04-17T22:03:35Z</time>
      </trkpt>
      <trkpt lat="5.0416300" lon="-75.5089100">
        <ele>1938.2</ele>
        <time>2021-04-17T22:03:36Z</time>
      </trkpt>
      <trkpt lat="5.0416280" lon="-75.5089100">
        <ele>1938.2</ele>
        <time>2021-04-17T22:03:37Z</time>
      </trkpt>
      <trkpt lat="5.0416250" lon="-75.5089100">
        <ele>1938.2</ele>
        <time>2021-04-17T22:03:38Z</time>
      </trkpt>
      <trkpt lat="5.0416270" lon="-75.5089110">
        <ele>1938.2</ele>
        <time>2021-04-17T22:03:39Z</time>
      </trkpt>
      <trkpt lat="5.0416270" lon="-75.5089110">
        <ele>1938.2</ele>
        <time>2021-04-17T22:03:40Z</time>
      </trkpt>
      <trkpt lat="5.0416260" lon="-75.5089110">
        <ele>1938.2</ele>
        <time>2021-04-17T22:03:41Z</time>
      </trkpt>
      <trkpt lat="5.0416250" lon="-75.5089100">
        <ele>1938.2</ele>
        <time>2021-04-17T22:03:42Z</time>
      </trkpt>
      <trkpt lat="5.0416310" lon="-75.5089130">
        <ele>1938.2</ele>
        <time>2021-04-17T22:03:43Z</time>
      </trkpt>
      <trkpt lat="5.0416350" lon="-75.5089060">
        <ele>1938.2</ele>
        <time>2021-04-17T22:03:44Z</time>
      </trkpt>
      <trkpt lat="5.0416430" lon="-75.5089020">
        <ele>1938.2</ele>
        <time>2021-04-17T22:03:45Z</time>
      </trkpt>
      <trkpt lat="5.0416490" lon="-75.5088970">
        <ele>1938.2</ele>
        <time>2021-04-17T22:03:46Z</time>
      </trkpt>
      <trkpt lat="5.0416560" lon="-75.5088880">
        <ele>1938.2</ele>
        <time>2021-04-17T22:03:47Z</time>
      </trkpt>
      <trkpt lat="5.0416630" lon="-75.5088800">
        <ele>1938.3</ele>
        <time>2021-04-17T22:03:48Z</time>
      </trkpt>
      <trkpt lat="5.0416690" lon="-75.5088730">
        <ele>1938.3</ele>
        <time>2021-04-17T22:03:49Z</time>
      </trkpt>
      <trkpt lat="5.0416730" lon="-75.5088710">
        <ele>1938.3</ele>
        <time>2021-04-17T22:03:50Z</time>
      </trkpt>
      <trkpt lat="5.0416520" lon="-75.5088810">
        <ele>1938.3</ele>
        <time>2021-04-17T22:03:51Z</time>
      </trkpt>
      <trkpt lat="5.0416430" lon="-75.5088840">
        <ele>1938.3</ele>
        <time>2021-04-17T22:03:52Z</time>
      </trkpt>
      <trkpt lat="5.0416380" lon="-75.5088860">
        <ele>1938.3</ele>
        <time>2021-04-17T22:03:53Z</time>
      </trkpt>
      <trkpt lat="5.0416300" lon="-75.5088910">
        <ele>1938.3</ele>
        <time>2021-04-17T22:03:54Z</time>
      </trkpt>
      <trkpt lat="5.0416340" lon="-75.5088900">
        <ele>1938.3</ele>
        <time>2021-04-17T22:03:55Z</time>
      </trkpt>
      <trkpt lat="5.0416390" lon="-75.5088800">
        <ele>1938.3</ele>
        <time>2021-04-17T22:03:56Z</time>
      </trkpt>
      <trkpt lat="5.0416500" lon="-75.5088640">
        <ele>1938.3</ele>
        <time>2021-04-17T22:03:57Z</time>
      </trkpt>
      <trkpt lat="5.0416610" lon="-75.5088510">
        <ele>1938.3</ele>
        <time>2021-04-17T22:03:58Z</time>
      </trkpt>
      <trkpt lat="5.0416770" lon="-75.5088350">
        <ele>1938.3</ele>
        <time>2021-04-17T22:03:59Z</time>
      </trkpt>
      <trkpt lat="5.0416850" lon="-75.5088270">
        <ele>1938.3</ele>
        <time>2021-04-17T22:04:00Z</time>
      </trkpt>
      <trkpt lat="5.0416930" lon="-75.5088210">
        <ele>1938.3</ele>
        <time>2021-04-17T22:04:01Z</time>
      </trkpt>
      <trkpt lat="5.0417000" lon="-75.5088180">
        <ele>1938.3</ele>
        <time>2021-04-17T22:04:02Z</time>
      </trkpt>
      <trkpt lat="5.0417100" lon="-75.5088150">
        <ele>1938.3</ele>
        <time>2021-04-17T22:04:03Z</time>
      </trkpt>
      <trkpt lat="5.0417300" lon="-75.5088140">
        <ele>1938.3</ele>
        <time>2021-04-17T22:04:04Z</time>
      </trkpt>
      <trkpt lat="5.0417560" lon="-75.5088050">
        <ele>1938.2</ele>
        <time>2021-04-17T22:04:05Z</time>
      </trkpt>
      <trkpt lat="5.0417800" lon="-75.5087890">
        <ele>1938.2</ele>
        <time>2021-04-17T22:04:06Z</time>
      </trkpt>
      <trkpt lat="5.0418040" lon="-75.5087610">
        <ele>1938.2</ele>
        <time>2021-04-17T22:04:07Z</time>
      </trkpt>
      <trkpt lat="5.0418340" lon="-75.5087280">
        <ele>1938.2</ele>
        <time>2021-04-17T22:04:08Z</time>
      </trkpt>
      <trkpt lat="5.0418770" lon="-75.5086920">
        <ele>1938.1</ele>
        <time>2021-04-17T22:04:09Z</time>
      </trkpt>
      <trkpt lat="5.0419250" lon="-75.5086430">
        <ele>1938.0</ele>
        <time>2021-04-17T22:04:10Z</time>
      </trkpt>
      <trkpt lat="5.0419780" lon="-75.5085890">
        <ele>1938.0</ele>
        <time>2021-04-17T22:04:11Z</time>
      </trkpt>
      <trkpt lat="5.0420310" lon="-75.5085340">
        <ele>1938.0</ele>
        <time>2021-04-17T22:04:12Z</time>
      </trkpt>
      <trkpt lat="5.0420830" lon="-75.5084720">
        <ele>1936.0</ele>
        <time>2021-04-17T22:04:13Z</time>
      </trkpt>
      <trkpt lat="5.0421340" lon="-75.5084080">
        <ele>1929.8</ele>
        <time>2021-04-17T22:04:14Z</time>
      </trkpt>
      <trkpt lat="5.0421800" lon="-75.5083510">
        <ele>1924.3</ele>
        <time>2021-04-17T22:04:15Z</time>
      </trkpt>
      <trkpt lat="5.0422230" lon="-75.5083070">
        <ele>1921.0</ele>
        <time>2021-04-17T22:04:16Z</time>
      </trkpt>
      <trkpt lat="5.0422690" lon="-75.5082630">
        <ele>1921.0</ele>
        <time>2021-04-17T22:04:17Z</time>
      </trkpt>
      <trkpt lat="5.0423130" lon="-75.5082190">
        <ele>1921.1</ele>
        <time>2021-04-17T22:04:18Z</time>
      </trkpt>
      <trkpt lat="5.0423550" lon="-75.5081730">
        <ele>1921.0</ele>
        <time>2021-04-17T22:04:19Z</time>
      </trkpt>
      <trkpt lat="5.0423890" lon="-75.5081200">
        <ele>1920.1</ele>
        <time>2021-04-17T22:04:20Z</time>
      </trkpt>
      <trkpt lat="5.0424090" lon="-75.5080690">
        <ele>1917.2</ele>
        <time>2021-04-17T22:04:21Z</time>
      </trkpt>
      <trkpt lat="5.0424280" lon="-75.5080200">
        <ele>1914.4</ele>
        <time>2021-04-17T22:04:22Z</time>
      </trkpt>
      <trkpt lat="5.0424490" lon="-75.5079660">
        <ele>1911.3</ele>
        <time>2021-04-17T22:04:23Z</time>
      </trkpt>
      <trkpt lat="5.0424680" lon="-75.5079140">
        <ele>1908.3</ele>
        <time>2021-04-17T22:04:24Z</time>
      </trkpt>
      <trkpt lat="5.0424890" lon="-75.5078630">
        <ele>1905.4</ele>
        <time>2021-04-17T22:04:25Z</time>
      </trkpt>
      <trkpt lat="5.0425090" lon="-75.5078130">
        <ele>1902.9</ele>
        <time>2021-04-17T22:04:26Z</time>
      </trkpt>
      <trkpt lat="5.0425230" lon="-75.5077680">
        <ele>1901.5</ele>
        <time>2021-04-17T22:04:27Z</time>
      </trkpt>
      <trkpt lat="5.0425340" lon="-75.5077160">
        <ele>1900.0</ele>
        <time>2021-04-17T22:04:28Z</time>
      </trkpt>
      <trkpt lat="5.0425400" lon="-75.5076700">
        <ele>1898.7</ele>
        <time>2021-04-17T22:04:29Z</time>
      </trkpt>
      <trkpt lat="5.0425470" lon="-75.5076230">
        <ele>1897.3</ele>
        <time>2021-04-17T22:04:30Z</time>
      </trkpt>
      <trkpt lat="5.0425520" lon="-75.5075800">
        <ele>1896.1</ele>
        <time>2021-04-17T22:04:31Z</time>
      </trkpt>
      <trkpt lat="5.0425650" lon="-75.5075480">
        <ele>1896.1</ele>
        <time>2021-04-17T22:04:32Z</time>
      </trkpt>
      <trkpt lat="5.0425910" lon="-75.5075250">
        <ele>1896.1</ele>
        <time>2021-04-17T22:04:33Z</time>
      </trkpt>
      <trkpt lat="5.0426190" lon="-75.5075410">
        <ele>1896.1</ele>
        <time>2021-04-17T22:04:34Z</time>
      </trkpt>
      <trkpt lat="5.0426420" lon="-75.5075580">
        <ele>1896.2</ele>
        <time>2021-04-17T22:04:35Z</time>
      </trkpt>
      <trkpt lat="5.0426570" lon="-75.5075860">
        <ele>1896.3</ele>
        <time>2021-04-17T22:04:36Z</time>
      </trkpt>
      <trkpt lat="5.0426580" lon="-75.5076510">
        <ele>1896.5</ele>
        <time>2021-04-17T22:04:37Z</time>
      </trkpt>
      <trkpt lat="5.0426640" lon="-75.5077110">
        <ele>1896.6</ele>
        <time>2021-04-17T22:04:38Z</time>
      </trkpt>
      <trkpt lat="5.0426770" lon="-75.5077650">
        <ele>1896.8</ele>
        <time>2021-04-17T22:04:39Z</time>
      </trkpt>
      <trkpt lat="5.0426990" lon="-75.5078100">
        <ele>1896.9</ele>
        <time>2021-04-17T22:04:40Z</time>
      </trkpt>
      <trkpt lat="5.0427230" lon="-75.5078510">
        <ele>1897.1</ele>
        <time>2021-04-17T22:04:41Z</time>
      </trkpt>
      <trkpt lat="5.0427460" lon="-75.5078830">
        <ele>1897.2</ele>
        <time>2021-04-17T22:04:42Z</time>
      </trkpt>
      <trkpt lat="5.0427690" lon="-75.5079080">
        <ele>1897.3</ele>
        <time>2021-04-17T22:04:43Z</time>
      </trkpt>
      <trkpt lat="5.0427920" lon="-75.5079310">
        <ele>1897.4</ele>
        <time>2021-04-17T22:04:44Z</time>
      </trkpt>
      <trkpt lat="5.0428140" lon="-75.5079510">
        <ele>1897.6</ele>
        <time>2021-04-17T22:04:45Z</time>
      </trkpt>
      <trkpt lat="5.0428370" lon="-75.5079660">
        <ele>1897.8</ele>
        <time>2021-04-17T22:04:46Z</time>
      </trkpt>
      <trkpt lat="5.0428560" lon="-75.5079690">
        <ele>1897.9</ele>
        <time>2021-04-17T22:04:47Z</time>
      </trkpt>
      <trkpt lat="5.0428680" lon="-75.5079650">
        <ele>1898.0</ele>
        <time>2021-04-17T22:04:48Z</time>
      </trkpt>
      <trkpt lat="5.0428700" lon="-75.5079500">
        <ele>1898.1</ele>
        <time>2021-04-17T22:04:49Z</time>
      </trkpt>
      <trkpt lat="5.0428550" lon="-75.5079280">
        <ele>1898.2</ele>
        <time>2021-04-17T22:04:50Z</time>
      </trkpt>
      <trkpt lat="5.0428260" lon="-75.5078960">
        <ele>1897.8</ele>
        <time>2021-04-17T22:04:51Z</time>
      </trkpt>
      <trkpt lat="5.0427910" lon="-75.5078540">
        <ele>1897.4</ele>
        <time>2021-04-17T22:04:52Z</time>
      </trkpt>
      <trkpt lat="5.0427630" lon="-75.5078010">
        <ele>1896.9</ele>
        <time>2021-04-17T22:04:53Z</time>
      </trkpt>
      <trkpt lat="5.0427460" lon="-75.5077400">
        <ele>1896.3</ele>
        <time>2021-04-17T22:04:54Z</time>
      </trkpt>
      <trkpt lat="5.0427510" lon="-75.5076680">
        <ele>1895.6</ele>
        <time>2021-04-17T22:04:55Z</time>
      </trkpt>
      <trkpt lat="5.0427700" lon="-75.5075910">
        <ele>1894.8</ele>
        <time>2021-04-17T22:04:56Z</time>
      </trkpt>
      <trkpt lat="5.0427970" lon="-75.5075130">
        <ele>1894.0</ele>
        <time>2021-04-17T22:04:57Z</time>
      </trkpt>
      <trkpt lat="5.0428270" lon="-75.5074250">
        <ele>1893.0</ele>
        <time>2021-04-17T22:04:58Z</time>
      </trkpt>
      <trkpt lat="5.0428410" lon="-75.5073230">
        <ele>1891.8</ele>
        <time>2021-04-17T22:04:59Z</time>
      </trkpt>
      <trkpt lat="5.0428170" lon="-75.5072210">
        <ele>1890.5</ele>
        <time>2021-04-17T22:05:00Z</time>
      </trkpt>
      <trkpt lat="5.0427640" lon="-75.5071200">
        <ele>1889.2</ele>
        <time>2021-04-17T22:05:01Z</time>
      </trkpt>
      <trkpt lat="5.0426940" lon="-75.5070280">
        <ele>1887.8</ele>
        <time>2021-04-17T22:05:02Z</time>
      </trkpt>
      <trkpt lat="5.0426260" lon="-75.5069430">
        <ele>1886.5</ele>
        <time>2021-04-17T22:05:03Z</time>
      </trkpt>
      <trkpt lat="5.0425660" lon="-75.5068700">
        <ele>1885.7</ele>
        <time>2021-04-17T22:05:04Z</time>
      </trkpt>
      <trkpt lat="5.0425090" lon="-75.5068050">
        <ele>1885.1</ele>
        <time>2021-04-17T22:05:05Z</time>
      </trkpt>
      <trkpt lat="5.0424440" lon="-75.5067430">
        <ele>1883.9</ele>
        <time>2021-04-17T22:05:06Z</time>
      </trkpt>
      <trkpt lat="5.0423750" lon="-75.5066800">
        <ele>1882.5</ele>
        <time>2021-04-17T22:05:07Z</time>
      </trkpt>
      <trkpt lat="5.0422950" lon="-75.5066180">
        <ele>1881.0</ele>
        <time>2021-04-17T22:05:08Z</time>
      </trkpt>
      <trkpt lat="5.0422040" lon="-75.5065600">
        <ele>1879.5</ele>
        <time>2021-04-17T22:05:09Z</time>
      </trkpt>
      <trkpt lat="5.0421040" lon="-75.5065080">
        <ele>1878.1</ele>
        <time>2021-04-17T22:05:10Z</time>
      </trkpt>
      <trkpt lat="5.0419910" lon="-75.5064690">
        <ele>1876.7</ele>
        <time>2021-04-17T22:05:11Z</time>
      </trkpt>
      <trkpt lat="5.0418870" lon="-75.5064210">
        <ele>1875.4</ele>
        <time>2021-04-17T22:05:12Z</time>
      </trkpt>
      <trkpt lat="5.0418020" lon="-75.5063480">
        <ele>1874.2</ele>
        <time>2021-04-17T22:05:13Z</time>
      </trkpt>
      <trkpt lat="5.0417410" lon="-75.5062590">
        <ele>1872.9</ele>
        <time>2021-04-17T22:05:14Z</time>
      </trkpt>
      <trkpt lat="5.0416980" lon="-75.5061610">
        <ele>1871.7</ele>
        <time>2021-04-17T22:05:15Z</time>
      </trkpt>
      <trkpt lat="5.0416760" lon="-75.5060530">
        <ele>1870.4</ele>
        <time>2021-04-17T22:05:16Z</time>
      </trkpt>
      <trkpt lat="5.0416800" lon="-75.5059430">
        <ele>1869.3</ele>
        <time>2021-04-17T22:05:17Z</time>
      </trkpt>
      <trkpt lat="5.0417090" lon="-75.5058320">
        <ele>1868.3</ele>
        <time>2021-04-17T22:05:18Z</time>
      </trkpt>
      <trkpt lat="5.0417570" lon="-75.5057230">
        <ele>1867.2</ele>
        <time>2021-04-17T22:05:19Z</time>
      </trkpt>
      <trkpt lat="5.0418200" lon="-75.5056180">
        <ele>1866.2</ele>
        <time>2021-04-17T22:05:20Z</time>
      </trkpt>
      <trkpt lat="5.0418890" lon="-75.5055150">
        <ele>1865.1</ele>
        <time>2021-04-17T22:05:21Z</time>
      </trkpt>
      <trkpt lat="5.0419470" lon="-75.5054080">
        <ele>1864.2</ele>
        <time>2021-04-17T22:05:22Z</time>
      </trkpt>
      <trkpt lat="5.0419780" lon="-75.5052910">
        <ele>1863.3</ele>
        <time>2021-04-17T22:05:23Z</time>
      </trkpt>
      <trkpt lat="5.0419660" lon="-75.5051920">
        <ele>1862.5</ele>
        <time>2021-04-17T22:05:24Z</time>
      </trkpt>
      <trkpt lat="5.0419410" lon="-75.5051140">
        <ele>1861.7</ele>
        <time>2021-04-17T22:05:25Z</time>
      </trkpt>
      <trkpt lat="5.0419060" lon="-75.5050850">
        <ele>1861.3</ele>
        <time>2021-04-17T22:05:26Z</time>
      </trkpt>
      <trkpt lat="5.0418800" lon="-75.5050550">
        <ele>1860.9</ele>
        <time>2021-04-17T22:05:27Z</time>
      </trkpt>
      <trkpt lat="5.0418550" lon="-75.5050240">
        <ele>1860.5</ele>
        <time>2021-04-17T22:05:28Z</time>
      </trkpt>
      <trkpt lat="5.0418260" lon="-75.5049890">
        <ele>1860.1</ele>
        <time>2021-04-17T22:05:29Z</time>
      </trkpt>
      <trkpt lat="5.0417910" lon="-75.5049510">
        <ele>1859.7</ele>
        <time>2021-04-17T22:05:30Z</time>
      </trkpt>
      <trkpt lat="5.0417510" lon="-75.5049070">
        <ele>1859.2</ele>
        <time>2021-04-17T22:05:31Z</time>
      </trkpt>
      <trkpt lat="5.0417070" lon="-75.5048590">
        <ele>1858.6</ele>
        <time>2021-04-17T22:05:32Z</time>
      </trkpt>
      <trkpt lat="5.0416600" lon="-75.5048070">
        <ele>1858.0</ele>
        <time>2021-04-17T22:05:33Z</time>
      </trkpt>
      <trkpt lat="5.0416090" lon="-75.5047520">
        <ele>1857.3</ele>
        <time>2021-04-17T22:05:34Z</time>
      </trkpt>
      <trkpt lat="5.0415560" lon="-75.5046970">
        <ele>1856.7</ele>
        <time>2021-04-17T22:05:35Z</time>
      </trkpt>
      <trkpt lat="5.0415010" lon="-75.5046380">
        <ele>1856.2</ele>
        <time>2021-04-17T22:05:36Z</time>
      </trkpt>
      <trkpt lat="5.0414470" lon="-75.5045740">
        <ele>1855.7</ele>
        <time>2021-04-17T22:05:37Z</time>
      </trkpt>
      <trkpt lat="5.0413930" lon="-75.5045080">
        <ele>1855.3</ele>
        <time>2021-04-17T22:05:38Z</time>
      </trkpt>
      <trkpt lat="5.0413380" lon="-75.5044440">
        <ele>1855.0</ele>
        <time>2021-04-17T22:05:39Z</time>
      </trkpt>
      <trkpt lat="5.0412830" lon="-75.5043780">
        <ele>1854.7</ele>
        <time>2021-04-17T22:05:40Z</time>
      </trkpt>
      <trkpt lat="5.0412290" lon="-75.5043140">
        <ele>1854.6</ele>
        <time>2021-04-17T22:05:41Z</time>
      </trkpt>
      <trkpt lat="5.0411760" lon="-75.5042500">
        <ele>1854.4</ele>
        <time>2021-04-17T22:05:42Z</time>
      </trkpt>
      <trkpt lat="5.0411240" lon="-75.5041860">
        <ele>1854.4</ele>
        <time>2021-04-17T22:05:43Z</time>
      </trkpt>
      <trkpt lat="5.0410730" lon="-75.5041240">
        <ele>1854.3</ele>
        <time>2021-04-17T22:05:44Z</time>
      </trkpt>
      <trkpt lat="5.0410250" lon="-75.5040610">
        <ele>1854.2</ele>
        <time>2021-04-17T22:05:45Z</time>
      </trkpt>
      <trkpt lat="5.0409820" lon="-75.5039940">
        <ele>1854.1</ele>
        <time>2021-04-17T22:05:46Z</time>
      </trkpt>
      <trkpt lat="5.0409440" lon="-75.5039240">
        <ele>1854.0</ele>
        <time>2021-04-17T22:05:47Z</time>
      </trkpt>
      <trkpt lat="5.0409130" lon="-75.5038510">
        <ele>1853.9</ele>
        <time>2021-04-17T22:05:48Z</time>
      </trkpt>
      <trkpt lat="5.0408860" lon="-75.5037780">
        <ele>1853.5</ele>
        <time>2021-04-17T22:05:49Z</time>
      </trkpt>
      <trkpt lat="5.0408640" lon="-75.5037030">
        <ele>1852.9</ele>
        <time>2021-04-17T22:05:50Z</time>
      </trkpt>
      <trkpt lat="5.0408450" lon="-75.5036280">
        <ele>1852.3</ele>
        <time>2021-04-17T22:05:51Z</time>
      </trkpt>
      <trkpt lat="5.0408280" lon="-75.5035530">
        <ele>1851.8</ele>
        <time>2021-04-17T22:05:52Z</time>
      </trkpt>
      <trkpt lat="5.0408160" lon="-75.5034770">
        <ele>1851.3</ele>
        <time>2021-04-17T22:05:53Z</time>
      </trkpt>
      <trkpt lat="5.0408080" lon="-75.5034020">
        <ele>1850.8</ele>
        <time>2021-04-17T22:05:54Z</time>
      </trkpt>
      <trkpt lat="5.0408050" lon="-75.5033310">
        <ele>1850.4</ele>
        <time>2021-04-17T22:05:55Z</time>
      </trkpt>
      <trkpt lat="5.0408090" lon="-75.5032590">
        <ele>1850.0</ele>
        <time>2021-04-17T22:05:56Z</time>
      </trkpt>
      <trkpt lat="5.0408170" lon="-75.5031910">
        <ele>1849.7</ele>
        <time>2021-04-17T22:05:57Z</time>
      </trkpt>
      <trkpt lat="5.0408320" lon="-75.5031250">
        <ele>1849.3</ele>
        <time>2021-04-17T22:05:58Z</time>
      </trkpt>
      <trkpt lat="5.0408540" lon="-75.5030630">
        <ele>1849.0</ele>
        <time>2021-04-17T22:05:59Z</time>
      </trkpt>
      <trkpt lat="5.0408830" lon="-75.5030040">
        <ele>1848.7</ele>
        <time>2021-04-17T22:06:00Z</time>
      </trkpt>
      <trkpt lat="5.0409160" lon="-75.5029480">
        <ele>1848.5</ele>
        <time>2021-04-17T22:06:01Z</time>
      </trkpt>
      <trkpt lat="5.0409540" lon="-75.5028950">
        <ele>1848.2</ele>
        <time>2021-04-17T22:06:02Z</time>
      </trkpt>
      <trkpt lat="5.0409920" lon="-75.5028440">
        <ele>1847.9</ele>
        <time>2021-04-17T22:06:03Z</time>
      </trkpt>
      <trkpt lat="5.0410320" lon="-75.5027940">
        <ele>1847.7</ele>
        <time>2021-04-17T22:06:04Z</time>
      </trkpt>
      <trkpt lat="5.0410740" lon="-75.5027470">
        <ele>1847.4</ele>
        <time>2021-04-17T22:06:05Z</time>
      </trkpt>
      <trkpt lat="5.0411170" lon="-75.5027030">
        <ele>1847.2</ele>
        <time>2021-04-17T22:06:06Z</time>
      </trkpt>
      <trkpt lat="5.0411610" lon="-75.5026570">
        <ele>1847.0</ele>
        <time>2021-04-17T22:06:07Z</time>
      </trkpt>
      <trkpt lat="5.0412040" lon="-75.5026150">
        <ele>1847.2</ele>
        <time>2021-04-17T22:06:08Z</time>
      </trkpt>
      <trkpt lat="5.0412460" lon="-75.5025730">
        <ele>1847.5</ele>
        <time>2021-04-17T22:06:09Z</time>
      </trkpt>
      <trkpt lat="5.0412870" lon="-75.5025300">
        <ele>1847.7</ele>
        <time>2021-04-17T22:06:10Z</time>
      </trkpt>
      <trkpt lat="5.0413270" lon="-75.5024890">
        <ele>1848.0</ele>
        <time>2021-04-17T22:06:11Z</time>
      </trkpt>
      <trkpt lat="5.0413660" lon="-75.5024480">
        <ele>1848.3</ele>
        <time>2021-04-17T22:06:12Z</time>
      </trkpt>
      <trkpt lat="5.0414050" lon="-75.5024090">
        <ele>1848.5</ele>
        <time>2021-04-17T22:06:13Z</time>
      </trkpt>
      <trkpt lat="5.0414450" lon="-75.5023680">
        <ele>1848.9</ele>
        <time>2021-04-17T22:06:14Z</time>
      </trkpt>
      <trkpt lat="5.0414840" lon="-75.5023280">
        <ele>1849.2</ele>
        <time>2021-04-17T22:06:15Z</time>
      </trkpt>
      <trkpt lat="5.0415230" lon="-75.5022850">
        <ele>1849.2</ele>
        <time>2021-04-17T22:06:16Z</time>
      </trkpt>
      <trkpt lat="5.0415580" lon="-75.5022400">
        <ele>1849.2</ele>
        <time>2021-04-17T22:06:17Z</time>
      </trkpt>
      <trkpt lat="5.0415860" lon="-75.5021910">
        <ele>1850.1</ele>
        <time>2021-04-17T22:06:18Z</time>
      </trkpt>
      <trkpt lat="5.0416060" lon="-75.5021360">
        <ele>1850.9</ele>
        <time>2021-04-17T22:06:19Z</time>
      </trkpt>
      <trkpt lat="5.0416130" lon="-75.5020880">
        <ele>1851.7</ele>
        <time>2021-04-17T22:06:20Z</time>
      </trkpt>
      <trkpt lat="5.0416130" lon="-75.5020420">
        <ele>1852.5</ele>
        <time>2021-04-17T22:06:21Z</time>
      </trkpt>
      <trkpt lat="5.0416060" lon="-75.5019940">
        <ele>1853.3</ele>
        <time>2021-04-17T22:06:22Z</time>
      </trkpt>
      <trkpt lat="5.0415900" lon="-75.5019480">
        <ele>1854.1</ele>
        <time>2021-04-17T22:06:23Z</time>
      </trkpt>
      <trkpt lat="5.0415680" lon="-75.5019050">
        <ele>1854.9</ele>
        <time>2021-04-17T22:06:24Z</time>
      </trkpt>
      <trkpt lat="5.0415430" lon="-75.5018630">
        <ele>1855.7</ele>
        <time>2021-04-17T22:06:25Z</time>
      </trkpt>
      <trkpt lat="5.0415150" lon="-75.5018230">
        <ele>1856.5</ele>
        <time>2021-04-17T22:06:26Z</time>
      </trkpt>
      <trkpt lat="5.0414870" lon="-75.5017850">
        <ele>1857.3</ele>
        <time>2021-04-17T22:06:27Z</time>
      </trkpt>
      <trkpt lat="5.0414600" lon="-75.5017450">
        <ele>1858.1</ele>
        <time>2021-04-17T22:06:28Z</time>
      </trkpt>
      <trkpt lat="5.0414330" lon="-75.5017040">
        <ele>1858.8</ele>
        <time>2021-04-17T22:06:29Z</time>
      </trkpt>
      <trkpt lat="5.0414060" lon="-75.5016640">
        <ele>1859.6</ele>
        <time>2021-04-17T22:06:30Z</time>
      </trkpt>
      <trkpt lat="5.0413810" lon="-75.5016230">
        <ele>1860.3</ele>
        <time>2021-04-17T22:06:31Z</time>
      </trkpt>
      <trkpt lat="5.0413570" lon="-75.5015830">
        <ele>1861.0</ele>
        <time>2021-04-17T22:06:32Z</time>
      </trkpt>
      <trkpt lat="5.0413320" lon="-75.5015420">
        <ele>1861.7</ele>
        <time>2021-04-17T22:06:33Z</time>
      </trkpt>
      <trkpt lat="5.0413070" lon="-75.5015000">
        <ele>1862.4</ele>
        <time>2021-04-17T22:06:34Z</time>
      </trkpt>
      <trkpt lat="5.0412820" lon="-75.5014590">
        <ele>1863.0</ele>
        <time>2021-04-17T22:06:35Z</time>
      </trkpt>
      <trkpt lat="5.0412570" lon="-75.5014200">
        <ele>1863.7</ele>
        <time>2021-04-17T22:06:36Z</time>
      </trkpt>
      <trkpt lat="5.0412330" lon="-75.5013810">
        <ele>1864.2</ele>
        <time>2021-04-17T22:06:37Z</time>
      </trkpt>
      <trkpt lat="5.0412090" lon="-75.5013420">
        <ele>1864.8</ele>
        <time>2021-04-17T22:06:38Z</time>
      </trkpt>
      <trkpt lat="5.0411830" lon="-75.5013050">
        <ele>1865.3</ele>
        <time>2021-04-17T22:06:39Z</time>
      </trkpt>
      <trkpt lat="5.0411560" lon="-75.5012690">
        <ele>1865.8</ele>
        <time>2021-04-17T22:06:40Z</time>
      </trkpt>
      <trkpt lat="5.0411300" lon="-75.5012320">
        <ele>1867.7</ele>
        <time>2021-04-17T22:06:41Z</time>
      </trkpt>
      <trkpt lat="5.0411060" lon="-75.5012000">
        <ele>1869.7</ele>
        <time>2021-04-17T22:06:42Z</time>
      </trkpt>
      <trkpt lat="5.0410860" lon="-75.5011670">
        <ele>1871.6</ele>
        <time>2021-04-17T22:06:43Z</time>
      </trkpt>
      <trkpt lat="5.0410690" lon="-75.5011330">
        <ele>1873.5</ele>
        <time>2021-04-17T22:06:44Z</time>
      </trkpt>
      <trkpt lat="5.0410550" lon="-75.5011010">
        <ele>1875.2</ele>
        <time>2021-04-17T22:06:45Z</time>
      </trkpt>
      <trkpt lat="5.0410430" lon="-75.5010690">
        <ele>1875.8</ele>
        <time>2021-04-17T22:06:46Z</time>
      </trkpt>
      <trkpt lat="5.0410280" lon="-75.5010390">
        <ele>1875.7</ele>
        <time>2021-04-17T22:06:47Z</time>
      </trkpt>
      <trkpt lat="5.0410130" lon="-75.5010110">
        <ele>1875.7</ele>
        <time>2021-04-17T22:06:48Z</time>
      </trkpt>
      <trkpt lat="5.0409970" lon="-75.5009850">
        <ele>1875.6</ele>
        <time>2021-04-17T22:06:49Z</time>
      </trkpt>
      <trkpt lat="5.0409810" lon="-75.5009620">
        <ele>1875.6</ele>
        <time>2021-04-17T22:06:50Z</time>
      </trkpt>
      <trkpt lat="5.0409670" lon="-75.5009400">
        <ele>1875.5</ele>
        <time>2021-04-17T22:06:51Z</time>
      </trkpt>
      <trkpt lat="5.0409580" lon="-75.5009170">
        <ele>1875.5</ele>
        <time>2021-04-17T22:06:52Z</time>
      </trkpt>
      <trkpt lat="5.0409560" lon="-75.5008990">
        <ele>1875.4</ele>
        <time>2021-04-17T22:06:53Z</time>
      </trkpt>
      <trkpt lat="5.0409650" lon="-75.5008860">
        <ele>1875.4</ele>
        <time>2021-04-17T22:06:54Z</time>
      </trkpt>
      <trkpt lat="5.0409840" lon="-75.5008870">
        <ele>1875.4</ele>
        <time>2021-04-17T22:06:55Z</time>
      </trkpt>
      <trkpt lat="5.0409990" lon="-75.5008970">
        <ele>1875.4</ele>
        <time>2021-04-17T22:06:56Z</time>
      </trkpt>
      <trkpt lat="5.0410060" lon="-75.5009030">
        <ele>1875.3</ele>
        <time>2021-04-17T22:06:57Z</time>
      </trkpt>
      <trkpt lat="5.0410080" lon="-75.5009050">
        <ele>1875.3</ele>
        <time>2021-04-17T22:06:58Z</time>
      </trkpt>
      <trkpt lat="5.0410080" lon="-75.5009030">
        <ele>1875.3</ele>
        <time>2021-04-17T22:06:59Z</time>
      </trkpt>
      <trkpt lat="5.0410070" lon="-75.5009050">
        <ele>1875.3</ele>
        <time>2021-04-17T22:07:00Z</time>
      </trkpt>
      <trkpt lat="5.0410070" lon="-75.5009060">
        <ele>1875.3</ele>
        <time>2021-04-17T22:07:01Z</time>
      </trkpt>
      <trkpt lat="5.0410080" lon="-75.5009080">
        <ele>1875.3</ele>
        <time>2021-04-17T22:07:02Z</time>
      </trkpt>
      <trkpt lat="5.0410090" lon="-75.5009090">
        <ele>1875.3</ele>
        <time>2021-04-17T22:07:03Z</time>
      </trkpt>
      <trkpt lat="5.0410120" lon="-75.5009080">
        <ele>1875.3</ele>
        <time>2021-04-17T22:07:04Z</time>
      </trkpt>
      <trkpt lat="5.0410120" lon="-75.5009090">
        <ele>1875.3</ele>
        <time>2021-04-17T22:07:05Z</time>
      </trkpt>
      <trkpt lat="5.0410130" lon="-75.5009110">
        <ele>1875.3</ele>
        <time>2021-04-17T22:07:06Z</time>
      </trkpt>
      <trkpt lat="5.0410130" lon="-75.5009110">
        <ele>1875.3</ele>
        <time>2021-04-17T22:07:07Z</time>
      </trkpt>
      <trkpt lat="5.0410120" lon="-75.5009100">
        <ele>1875.3</ele>
        <time>2021-04-17T22:07:08Z</time>
      </trkpt>
      <trkpt lat="5.0410130" lon="-75.5009100">
        <ele>1875.3</ele>
        <time>2021-04-17T22:07:09Z</time>
      </trkpt>
      <trkpt lat="5.0410150" lon="-75.5009050">
        <ele>1875.3</ele>
        <time>2021-04-17T22:07:10Z</time>
      </trkpt>
      <trkpt lat="5.0410120" lon="-75.5009030">
        <ele>1875.3</ele>
        <time>2021-04-17T22:07:11Z</time>
      </trkpt>
      <trkpt lat="5.0410100" lon="-75.5009040">
        <ele>1875.3</ele>
        <time>2021-04-17T22:07:12Z</time>
      </trkpt>
      <trkpt lat="5.0410100" lon="-75.5009070">
        <ele>1875.3</ele>
        <time>2021-04-17T22:07:13Z</time>
      </trkpt>
      <trkpt lat="5.0410230" lon="-75.5009130">
        <ele>1875.2</ele>
        <time>2021-04-17T22:07:14Z</time>
      </trkpt>
      <trkpt lat="5.0410270" lon="-75.5009160">
        <ele>1875.2</ele>
        <time>2021-04-17T22:07:15Z</time>
      </trkpt>
      <trkpt lat="5.0410290" lon="-75.5009180">
        <ele>1875.2</ele>
        <time>2021-04-17T22:07:16Z</time>
      </trkpt>
      <trkpt lat="5.0410290" lon="-75.5009190">
        <ele>1875.2</ele>
        <time>2021-04-17T22:07:17Z</time>
      </trkpt>
      <trkpt lat="5.0410310" lon="-75.5009190">
        <ele>1875.2</ele>
        <time>2021-04-17T22:07:18Z</time>
      </trkpt>
      <trkpt lat="5.0410340" lon="-75.5009180">
        <ele>1875.2</ele>
        <time>2021-04-17T22:07:19Z</time>
      </trkpt>
      <trkpt lat="5.0410350" lon="-75.5009200">
        <ele>1875.2</ele>
        <time>2021-04-17T22:07:20Z</time>
      </trkpt>
      <trkpt lat="5.0410360" lon="-75.5009210">
        <ele>1875.2</ele>
        <time>2021-04-17T22:07:21Z</time>
      </trkpt>
      <trkpt lat="5.0410360" lon="-75.5009230">
        <ele>1875.2</ele>
        <time>2021-04-17T22:07:22Z</time>
      </trkpt>
      <trkpt lat="5.0410360" lon="-75.5009250">
        <ele>1875.2</ele>
        <time>2021-04-17T22:07:23Z</time>
      </trkpt>
      <trkpt lat="5.0410370" lon="-75.5009260">
        <ele>1875.2</ele>
        <time>2021-04-17T22:07:24Z</time>
      </trkpt>
      <trkpt lat="5.0410350" lon="-75.5009270">
        <ele>1875.2</ele>
        <time>2021-04-17T22:07:25Z</time>
      </trkpt>
      <trkpt lat="5.0410350" lon="-75.5009280">
        <ele>1875.2</ele>
        <time>2021-04-17T22:07:26Z</time>
      </trkpt>
      <trkpt lat="5.0410360" lon="-75.5009280">
        <ele>1875.2</ele>
        <time>2021-04-17T22:07:27Z</time>
      </trkpt>
      <trkpt lat="5.0410350" lon="-75.5009300">
        <ele>1875.2</ele>
        <time>2021-04-17T22:07:28Z</time>
      </trkpt>
      <trkpt lat="5.0410350" lon="-75.5009320">
        <ele>1875.2</ele>
        <time>2021-04-17T22:07:29Z</time>
      </trkpt>
      <trkpt lat="5.0410340" lon="-75.5009330">
        <ele>1875.2</ele>
        <time>2021-04-17T22:07:30Z</time>
      </trkpt>
      <trkpt lat="5.0410330" lon="-75.5009350">
        <ele>1875.2</ele>
        <time>2021-04-17T22:07:31Z</time>
      </trkpt>
      <trkpt lat="5.0410320" lon="-75.5009370">
        <ele>1875.2</ele>
        <time>2021-04-17T22:07:32Z</time>
      </trkpt>
      <trkpt lat="5.0410310" lon="-75.5009390">
        <ele>1875.2</ele>
        <time>2021-04-17T22:07:33Z</time>
      </trkpt>
      <trkpt lat="5.0410310" lon="-75.5009390">
        <ele>1875.2</ele>
        <time>2021-04-17T22:07:34Z</time>
      </trkpt>
      <trkpt lat="5.0410290" lon="-75.5009410">
        <ele>1875.2</ele>
        <time>2021-04-17T22:07:35Z</time>
      </trkpt>
      <trkpt lat="5.0410290" lon="-75.5009410">
        <ele>1875.2</ele>
        <time>2021-04-17T22:07:36Z</time>
      </trkpt>
      <trkpt lat="5.0410280" lon="-75.5009430">
        <ele>1875.2</ele>
        <time>2021-04-17T22:07:37Z</time>
      </trkpt>
      <trkpt lat="5.0410270" lon="-75.5009450">
        <ele>1875.2</ele>
        <time>2021-04-17T22:07:38Z</time>
      </trkpt>
      <trkpt lat="5.0410260" lon="-75.5009460">
        <ele>1875.2</ele>
        <time>2021-04-17T22:07:39Z</time>
      </trkpt>
      <trkpt lat="5.0410240" lon="-75.5009480">
        <ele>1875.2</ele>
        <time>2021-04-17T22:07:40Z</time>
      </trkpt>
      <trkpt lat="5.0410240" lon="-75.5009490">
        <ele>1875.1</ele>
        <time>2021-04-17T22:07:41Z</time>
      </trkpt>
      <trkpt lat="5.0410260" lon="-75.5009490">
        <ele>1875.1</ele>
        <time>2021-04-17T22:07:42Z</time>
      </trkpt>
      <trkpt lat="5.0410280" lon="-75.5009510">
        <ele>1875.1</ele>
        <time>2021-04-17T22:07:43Z</time>
      </trkpt>
      <trkpt lat="5.0410350" lon="-75.5009530">
        <ele>1875.1</ele>
        <time>2021-04-17T22:07:44Z</time>
      </trkpt>
      <trkpt lat="5.0410470" lon="-75.5009540">
        <ele>1875.1</ele>
        <time>2021-04-17T22:07:45Z</time>
      </trkpt>
      <trkpt lat="5.0410620" lon="-75.5009600">
        <ele>1875.1</ele>
        <time>2021-04-17T22:07:46Z</time>
      </trkpt>
      <trkpt lat="5.0410850" lon="-75.5009760">
        <ele>1875.4</ele>
        <time>2021-04-17T22:07:47Z</time>
      </trkpt>
      <trkpt lat="5.0411050" lon="-75.5009950">
        <ele>1875.6</ele>
        <time>2021-04-17T22:07:48Z</time>
      </trkpt>
      <trkpt lat="5.0411240" lon="-75.5010210">
        <ele>1875.9</ele>
        <time>2021-04-17T22:07:49Z</time>
      </trkpt>
      <trkpt lat="5.0411450" lon="-75.5010490">
        <ele>1875.0</ele>
        <time>2021-04-17T22:07:50Z</time>
      </trkpt>
      <trkpt lat="5.0411650" lon="-75.5010790">
        <ele>1873.2</ele>
        <time>2021-04-17T22:07:51Z</time>
      </trkpt>
      <trkpt lat="5.0411870" lon="-75.5011070">
        <ele>1871.4</ele>
        <time>2021-04-17T22:07:52Z</time>
      </trkpt>
      <trkpt lat="5.0412090" lon="-75.5011350">
        <ele>1869.6</ele>
        <time>2021-04-17T22:07:53Z</time>
      </trkpt>
      <trkpt lat="5.0412310" lon="-75.5011640">
        <ele>1867.8</ele>
        <time>2021-04-17T22:07:54Z</time>
      </trkpt>
      <trkpt lat="5.0412520" lon="-75.5011950">
        <ele>1866.0</ele>
        <time>2021-04-17T22:07:55Z</time>
      </trkpt>
      <trkpt lat="5.0412750" lon="-75.5012280">
        <ele>1865.6</ele>
        <time>2021-04-17T22:07:56Z</time>
      </trkpt>
      <trkpt lat="5.0413030" lon="-75.5012570">
        <ele>1865.2</ele>
        <time>2021-04-17T22:07:57Z</time>
      </trkpt>
      <trkpt lat="5.0413280" lon="-75.5012920">
        <ele>1864.7</ele>
        <time>2021-04-17T22:07:58Z</time>
      </trkpt>
      <trkpt lat="5.0413550" lon="-75.5013290">
        <ele>1864.2</ele>
        <time>2021-04-17T22:07:59Z</time>
      </trkpt>
      <trkpt lat="5.0413830" lon="-75.5013670">
        <ele>1863.6</ele>
        <time>2021-04-17T22:08:00Z</time>
      </trkpt>
      <trkpt lat="5.0414110" lon="-75.5014040">
        <ele>1863.0</ele>
        <time>2021-04-17T22:08:01Z</time>
      </trkpt>
      <trkpt lat="5.0414410" lon="-75.5014410">
        <ele>1861.1</ele>
        <time>2021-04-17T22:08:02Z</time>
      </trkpt>
      <trkpt lat="5.0414710" lon="-75.5014800">
        <ele>1861.9</ele>
        <time>2021-04-17T22:08:03Z</time>
      </trkpt>
      <trkpt lat="5.0415060" lon="-75.5015170">
        <ele>1861.0</ele>
        <time>2021-04-17T22:08:04Z</time>
      </trkpt>
      <trkpt lat="5.0415470" lon="-75.5015480">
        <ele>1860.5</ele>
        <time>2021-04-17T22:08:05Z</time>
      </trkpt>
      <trkpt lat="5.0415900" lon="-75.5015780">
        <ele>1860.4</ele>
        <time>2021-04-17T22:08:06Z</time>
      </trkpt>
      <trkpt lat="5.0416310" lon="-75.5016070">
        <ele>1861.4</ele>
        <time>2021-04-17T22:08:07Z</time>
      </trkpt>
      <trkpt lat="5.0416710" lon="-75.5016350">
        <ele>1861.5</ele>
        <time>2021-04-17T22:08:08Z</time>
      </trkpt>
      <trkpt lat="5.0417090" lon="-75.5016590">
        <ele>1861.8</ele>
        <time>2021-04-17T22:08:09Z</time>
      </trkpt>
      <trkpt lat="5.0417440" lon="-75.5016790">
        <ele>1863.0</ele>
        <time>2021-04-17T22:08:10Z</time>
      </trkpt>
      <trkpt lat="5.0417770" lon="-75.5016980">
        <ele>1862.2</ele>
        <time>2021-04-17T22:08:11Z</time>
      </trkpt>
      <trkpt lat="5.0418050" lon="-75.5017130">
        <ele>1863.5</ele>
        <time>2021-04-17T22:08:12Z</time>
      </trkpt>
      <trkpt lat="5.0418300" lon="-75.5017260">
        <ele>1864.8</ele>
        <time>2021-04-17T22:08:13Z</time>
      </trkpt>
      <trkpt lat="5.0418510" lon="-75.5017390">
        <ele>1863.8</ele>
        <time>2021-04-17T22:08:14Z</time>
      </trkpt>
      <trkpt lat="5.0418720" lon="-75.5017500">
        <ele>1865.0</ele>
        <time>2021-04-17T22:08:15Z</time>
      </trkpt>
      <trkpt lat="5.0418880" lon="-75.5017620">
        <ele>1865.0</ele>
        <time>2021-04-17T22:08:16Z</time>
      </trkpt>
      <trkpt lat="5.0419050" lon="-75.5017730">
        <ele>1865.0</ele>
        <time>2021-04-17T22:08:17Z</time>
      </trkpt>
      <trkpt lat="5.0419220" lon="-75.5017830">
        <ele>1864.9</ele>
        <time>2021-04-17T22:08:18Z</time>
      </trkpt>
      <trkpt lat="5.0419370" lon="-75.5017920">
        <ele>1864.9</ele>
        <time>2021-04-17T22:08:19Z</time>
      </trkpt>
      <trkpt lat="5.0419580" lon="-75.5017910">
        <ele>1865.9</ele>
        <time>2021-04-17T22:08:20Z</time>
      </trkpt>
      <trkpt lat="5.0419760" lon="-75.5017830">
        <ele>1865.9</ele>
        <time>2021-04-17T22:08:21Z</time>
      </trkpt>
      <trkpt lat="5.0419850" lon="-75.5017680">
        <ele>1867.3</ele>
        <time>2021-04-17T22:08:22Z</time>
      </trkpt>
      <trkpt lat="5.0419880" lon="-75.5017540">
        <ele>1867.3</ele>
        <time>2021-04-17T22:08:23Z</time>
      </trkpt>
      <trkpt lat="5.0419860" lon="-75.5017450">
        <ele>1867.3</ele>
        <time>2021-04-17T22:08:24Z</time>
      </trkpt>
      <trkpt lat="5.0419840" lon="-75.5017400">
        <ele>1867.3</ele>
        <time>2021-04-17T22:08:25Z</time>
      </trkpt>
      <trkpt lat="5.0419820" lon="-75.5017380">
        <ele>1867.3</ele>
        <time>2021-04-17T22:08:26Z</time>
      </trkpt>
      <trkpt lat="5.0419810" lon="-75.5017370">
        <ele>1868.5</ele>
        <time>2021-04-17T22:08:27Z</time>
      </trkpt>
      <trkpt lat="5.0419810" lon="-75.5017360">
        <ele>1868.5</ele>
        <time>2021-04-17T22:08:28Z</time>
      </trkpt>
      <trkpt lat="5.0419770" lon="-75.5017300">
        <ele>1868.5</ele>
        <time>2021-04-17T22:08:29Z</time>
      </trkpt>
      <trkpt lat="5.0419700" lon="-75.5017180">
        <ele>1868.5</ele>
        <time>2021-04-17T22:08:30Z</time>
      </trkpt>
      <trkpt lat="5.0419600" lon="-75.5017020">
        <ele>1868.5</ele>
        <time>2021-04-17T22:08:31Z</time>
      </trkpt>
      <trkpt lat="5.0419480" lon="-75.5016890">
        <ele>1868.2</ele>
        <time>2021-04-17T22:08:32Z</time>
      </trkpt>
      <trkpt lat="5.0419360" lon="-75.5016740">
        <ele>1868.2</ele>
        <time>2021-04-17T22:08:33Z</time>
      </trkpt>
      <trkpt lat="5.0419260" lon="-75.5016580">
        <ele>1868.2</ele>
        <time>2021-04-17T22:08:34Z</time>
      </trkpt>
      <trkpt lat="5.0419130" lon="-75.5016420">
        <ele>1868.9</ele>
        <time>2021-04-17T22:08:35Z</time>
      </trkpt>
      <trkpt lat="5.0418990" lon="-75.5016250">
        <ele>1867.5</ele>
        <time>2021-04-17T22:08:36Z</time>
      </trkpt>
      <trkpt lat="5.0418880" lon="-75.5016060">
        <ele>1868.1</ele>
        <time>2021-04-17T22:08:37Z</time>
      </trkpt>
      <trkpt lat="5.0418790" lon="-75.5015840">
        <ele>1868.1</ele>
        <time>2021-04-17T22:08:38Z</time>
      </trkpt>
      <trkpt lat="5.0418660" lon="-75.5015690">
        <ele>1866.8</ele>
        <time>2021-04-17T22:08:39Z</time>
      </trkpt>
      <trkpt lat="5.0418530" lon="-75.5015510">
        <ele>1867.5</ele>
        <time>2021-04-17T22:08:40Z</time>
      </trkpt>
      <trkpt lat="5.0418400" lon="-75.5015320">
        <ele>1867.5</ele>
        <time>2021-04-17T22:08:41Z</time>
      </trkpt>
      <trkpt lat="5.0418260" lon="-75.5015130">
        <ele>1867.3</ele>
        <time>2021-04-17T22:08:42Z</time>
      </trkpt>
      <trkpt lat="5.0418150" lon="-75.5014960">
        <ele>1867.3</ele>
        <time>2021-04-17T22:08:43Z</time>
      </trkpt>
      <trkpt lat="5.0418030" lon="-75.5014800">
        <ele>1868.3</ele>
        <time>2021-04-17T22:08:44Z</time>
      </trkpt>
      <trkpt lat="5.0417880" lon="-75.5014690">
        <ele>1868.3</ele>
        <time>2021-04-17T22:08:45Z</time>
      </trkpt>
      <trkpt lat="5.0417740" lon="-75.5014570">
        <ele>1867.4</ele>
        <time>2021-04-17T22:08:46Z</time>
      </trkpt>
      <trkpt lat="5.0417630" lon="-75.5014440">
        <ele>1867.4</ele>
        <time>2021-04-17T22:08:47Z</time>
      </trkpt>
      <trkpt lat="5.0417520" lon="-75.5014310">
        <ele>1868.5</ele>
        <time>2021-04-17T22:08:48Z</time>
      </trkpt>
      <trkpt lat="5.0417420" lon="-75.5014180">
        <ele>1868.5</ele>
        <time>2021-04-17T22:08:49Z</time>
      </trkpt>
      <trkpt lat="5.0417320" lon="-75.5014070">
        <ele>1867.6</ele>
        <time>2021-04-17T22:08:50Z</time>
      </trkpt>
      <trkpt lat="5.0417240" lon="-75.5013950">
        <ele>1867.6</ele>
        <time>2021-04-17T22:08:51Z</time>
      </trkpt>
      <trkpt lat="5.0417150" lon="-75.5013840">
        <ele>1868.8</ele>
        <time>2021-04-17T22:08:52Z</time>
      </trkpt>
      <trkpt lat="5.0417040" lon="-75.5013750">
        <ele>1868.8</ele>
        <time>2021-04-17T22:08:53Z</time>
      </trkpt>
      <trkpt lat="5.0416940" lon="-75.5013670">
        <ele>1868.1</ele>
        <time>2021-04-17T22:08:54Z</time>
      </trkpt>
      <trkpt lat="5.0416840" lon="-75.5013570">
        <ele>1868.1</ele>
        <time>2021-04-17T22:08:55Z</time>
      </trkpt>
      <trkpt lat="5.0416740" lon="-75.5013450">
        <ele>1869.6</ele>
        <time>2021-04-17T22:08:56Z</time>
      </trkpt>
      <trkpt lat="5.0416640" lon="-75.5013350">
        <ele>1869.6</ele>
        <time>2021-04-17T22:08:57Z</time>
      </trkpt>
      <trkpt lat="5.0416540" lon="-75.5013250">
        <ele>1869.1</ele>
        <time>2021-04-17T22:08:58Z</time>
      </trkpt>
      <trkpt lat="5.0416420" lon="-75.5013160">
        <ele>1869.1</ele>
        <time>2021-04-17T22:08:59Z</time>
      </trkpt>
      <trkpt lat="5.0416320" lon="-75.5013060">
        <ele>1870.9</ele>
        <time>2021-04-17T22:09:00Z</time>
      </trkpt>
      <trkpt lat="5.0416200" lon="-75.5012950">
        <ele>1870.9</ele>
        <time>2021-04-17T22:09:01Z</time>
      </trkpt>
      <trkpt lat="5.0416090" lon="-75.5012840">
        <ele>1870.5</ele>
        <time>2021-04-17T22:09:02Z</time>
      </trkpt>
      <trkpt lat="5.0415970" lon="-75.5012730">
        <ele>1870.5</ele>
        <time>2021-04-17T22:09:03Z</time>
      </trkpt>
      <trkpt lat="5.0415860" lon="-75.5012570">
        <ele>1872.3</ele>
        <time>2021-04-17T22:09:04Z</time>
      </trkpt>
      <trkpt lat="5.0415770" lon="-75.5012420">
        <ele>1872.3</ele>
        <time>2021-04-17T22:09:05Z</time>
      </trkpt>
      <trkpt lat="5.0415720" lon="-75.5012290">
        <ele>1872.3</ele>
        <time>2021-04-17T22:09:06Z</time>
      </trkpt>
      <trkpt lat="5.0415730" lon="-75.5012200">
        <ele>1874.0</ele>
        <time>2021-04-17T22:09:07Z</time>
      </trkpt>
      <trkpt lat="5.0415800" lon="-75.5012100">
        <ele>1874.0</ele>
        <time>2021-04-17T22:09:08Z</time>
      </trkpt>
      <trkpt lat="5.0415890" lon="-75.5012030">
        <ele>1874.0</ele>
        <time>2021-04-17T22:09:09Z</time>
      </trkpt>
      <trkpt lat="5.0415990" lon="-75.5011990">
        <ele>1874.0</ele>
        <time>2021-04-17T22:09:10Z</time>
      </trkpt>
      <trkpt lat="5.0416130" lon="-75.5012000">
        <ele>1874.0</ele>
        <time>2021-04-17T22:09:11Z</time>
      </trkpt>
      <trkpt lat="5.0416250" lon="-75.5012090">
        <ele>1874.2</ele>
        <time>2021-04-17T22:09:12Z</time>
      </trkpt>
      <trkpt lat="5.0416380" lon="-75.5012240">
        <ele>1872.6</ele>
        <time>2021-04-17T22:09:13Z</time>
      </trkpt>
      <trkpt lat="5.0416500" lon="-75.5012380">
        <ele>1872.6</ele>
        <time>2021-04-17T22:09:14Z</time>
      </trkpt>
      <trkpt lat="5.0416580" lon="-75.5012510">
        <ele>1872.7</ele>
        <time>2021-04-17T22:09:15Z</time>
      </trkpt>
      <trkpt lat="5.0416630" lon="-75.5012610">
        <ele>1872.7</ele>
        <time>2021-04-17T22:09:16Z</time>
      </trkpt>
      <trkpt lat="5.0416690" lon="-75.5012690">
        <ele>1871.1</ele>
        <time>2021-04-17T22:09:17Z</time>
      </trkpt>
      <trkpt lat="5.0416720" lon="-75.5012750">
        <ele>1871.1</ele>
        <time>2021-04-17T22:09:18Z</time>
      </trkpt>
      <trkpt lat="5.0416720" lon="-75.5012760">
        <ele>1871.1</ele>
        <time>2021-04-17T22:09:19Z</time>
      </trkpt>
      <trkpt lat="5.0416770" lon="-75.5012670">
        <ele>1871.1</ele>
        <time>2021-04-17T22:09:20Z</time>
      </trkpt>
      <trkpt lat="5.0416730" lon="-75.5012710">
        <ele>1871.1</ele>
        <time>2021-04-17T22:09:21Z</time>
      </trkpt>
      <trkpt lat="5.0416730" lon="-75.5012710">
        <ele>1871.1</ele>
        <time>2021-04-17T22:09:22Z</time>
      </trkpt>
    </trkseg>
  </trk>
</gpx>
